<?xml version="1.0" encoding="UTF-8" standalone="no" ?>
<gpx xmlns="http://www.topografix.com/GPX/1/1" xmlns:xsi="http://www.w3.org/2001/XMLSchema-instance" xsi:schemaLocation="http://www.topografix.com/GPX/1/1 http://www.topografix.com/GPX/1/1/gpx.xsd" version="1.1" creator="VisuGPX - https://www.visugpx.com">
  <metadata>
    <name>Belledonne Duo</name>
  </metadata>
  <trk>
    <name><![CDATA[dudu sur TraceDeTrail.fr]]></name>
    <trkseg>
      <trkpt lat="45.09957" lon="5.87768">
        <ele>1635</ele>
        <time>2022-07-22T05:07:47.000Z</time>
      </trkpt>
      <trkpt lat="45.09957" lon="5.87773">
        <ele>1637.9</ele>
        <time>2022-07-22T05:07:57.000Z</time>
      </trkpt>
      <trkpt lat="45.0996" lon="5.87778">
        <ele>1638.4</ele>
        <time>2022-07-22T05:08:07.000Z</time>
      </trkpt>
      <trkpt lat="45.09961" lon="5.87781">
        <ele>1638.5</ele>
        <time>2022-07-22T05:08:17.000Z</time>
      </trkpt>
      <trkpt lat="45.09961" lon="5.87789">
        <ele>1638.2</ele>
        <time>2022-07-22T05:08:27.000Z</time>
      </trkpt>
      <trkpt lat="45.09965" lon="5.878">
        <ele>1644</ele>
        <time>2022-07-22T05:10:41.000Z</time>
      </trkpt>
      <trkpt lat="45.09978" lon="5.87818">
        <ele>1641.5</ele>
        <time>2022-07-22T05:10:51.000Z</time>
      </trkpt>
      <trkpt lat="45.09992" lon="5.8787">
        <ele>1651</ele>
        <time>2022-07-22T05:11:22.000Z</time>
      </trkpt>
      <trkpt lat="45.09997" lon="5.87894">
        <ele>1643</ele>
        <time>2022-07-22T05:11:32.000Z</time>
      </trkpt>
      <trkpt lat="45.09998" lon="5.87902">
        <ele>1652</ele>
        <time>2022-07-22T05:11:39.000Z</time>
      </trkpt>
      <trkpt lat="45.10004" lon="5.87932">
        <ele>1646</ele>
        <time>2022-07-22T05:11:57.000Z</time>
      </trkpt>
      <trkpt lat="45.10011" lon="5.87957">
        <ele>1644.1</ele>
        <time>2022-07-22T05:12:07.000Z</time>
      </trkpt>
      <trkpt lat="45.10017" lon="5.87983">
        <ele>1646</ele>
        <time>2022-07-22T05:12:24.000Z</time>
      </trkpt>
      <trkpt lat="45.10029" lon="5.88011">
        <ele>1647</ele>
        <time>2022-07-22T05:12:42.000Z</time>
      </trkpt>
      <trkpt lat="45.1003" lon="5.88018">
        <ele>1645.9</ele>
        <time>2022-07-22T05:12:52.000Z</time>
      </trkpt>
      <trkpt lat="45.10043" lon="5.88045">
        <ele>1647</ele>
        <time>2022-07-22T05:13:04.000Z</time>
      </trkpt>
      <trkpt lat="45.10051" lon="5.88058">
        <ele>1649</ele>
        <time>2022-07-22T05:13:14.000Z</time>
      </trkpt>
      <trkpt lat="45.1006" lon="5.88077">
        <ele>1646</ele>
        <time>2022-07-22T05:13:29.000Z</time>
      </trkpt>
      <trkpt lat="45.10064" lon="5.88092">
        <ele>1651.5</ele>
        <time>2022-07-22T05:13:39.000Z</time>
      </trkpt>
      <trkpt lat="45.10069" lon="5.88104">
        <ele>1649</ele>
        <time>2022-07-22T05:13:48.000Z</time>
      </trkpt>
      <trkpt lat="45.10071" lon="5.88121">
        <ele>1652</ele>
        <time>2022-07-22T05:13:58.000Z</time>
      </trkpt>
      <trkpt lat="45.10075" lon="5.88142">
        <ele>1652</ele>
        <time>2022-07-22T05:14:04.000Z</time>
      </trkpt>
      <trkpt lat="45.10076" lon="5.8815">
        <ele>1652</ele>
        <time>2022-07-22T05:14:14.000Z</time>
      </trkpt>
      <trkpt lat="45.10085" lon="5.88169">
        <ele>1648</ele>
        <time>2022-07-22T05:14:19.000Z</time>
      </trkpt>
      <trkpt lat="45.10087" lon="5.88196">
        <ele>1646</ele>
        <time>2022-07-22T05:14:32.000Z</time>
      </trkpt>
      <trkpt lat="45.10087" lon="5.88208">
        <ele>1651.9</ele>
        <time>2022-07-22T05:14:42.000Z</time>
      </trkpt>
      <trkpt lat="45.10094" lon="5.88233">
        <ele>1649</ele>
        <time>2022-07-22T05:14:51.000Z</time>
      </trkpt>
      <trkpt lat="45.10102" lon="5.88268">
        <ele>1652</ele>
        <time>2022-07-22T05:15:06.000Z</time>
      </trkpt>
      <trkpt lat="45.10107" lon="5.88293">
        <ele>1651.2</ele>
        <time>2022-07-22T05:15:16.000Z</time>
      </trkpt>
      <trkpt lat="45.10111" lon="5.88319">
        <ele>1652</ele>
        <time>2022-07-22T05:15:33.000Z</time>
      </trkpt>
      <trkpt lat="45.10116" lon="5.88329">
        <ele>1650.2</ele>
        <time>2022-07-22T05:15:43.000Z</time>
      </trkpt>
      <trkpt lat="45.10118" lon="5.88363">
        <ele>1650</ele>
        <time>2022-07-22T05:15:56.000Z</time>
      </trkpt>
      <trkpt lat="45.10118" lon="5.88375">
        <ele>1648.6</ele>
        <time>2022-07-22T05:16:06.000Z</time>
      </trkpt>
      <trkpt lat="45.10121" lon="5.88395">
        <ele>1648</ele>
        <time>2022-07-22T05:16:13.000Z</time>
      </trkpt>
      <trkpt lat="45.10123" lon="5.88401">
        <ele>1648</ele>
        <time>2022-07-22T05:16:23.000Z</time>
      </trkpt>
      <trkpt lat="45.10125" lon="5.88423">
        <ele>1646</ele>
        <time>2022-07-22T05:16:26.000Z</time>
      </trkpt>
      <trkpt lat="45.10127" lon="5.88436">
        <ele>1646.8</ele>
        <time>2022-07-22T05:16:36.000Z</time>
      </trkpt>
      <trkpt lat="45.10126" lon="5.88445">
        <ele>1646.1</ele>
        <time>2022-07-22T05:16:46.000Z</time>
      </trkpt>
      <trkpt lat="45.10136" lon="5.88477">
        <ele>1645</ele>
        <time>2022-07-22T05:16:56.000Z</time>
      </trkpt>
      <trkpt lat="45.10136" lon="5.88492">
        <ele>1646.5</ele>
        <time>2022-07-22T05:17:06.000Z</time>
      </trkpt>
      <trkpt lat="45.10139" lon="5.88506">
        <ele>1642</ele>
        <time>2022-07-22T05:17:11.000Z</time>
      </trkpt>
      <trkpt lat="45.10149" lon="5.88523">
        <ele>1648</ele>
        <time>2022-07-22T05:17:21.000Z</time>
      </trkpt>
      <trkpt lat="45.10159" lon="5.88567">
        <ele>1642</ele>
        <time>2022-07-22T05:17:49.000Z</time>
      </trkpt>
      <trkpt lat="45.10168" lon="5.88592">
        <ele>1642</ele>
        <time>2022-07-22T05:18:04.000Z</time>
      </trkpt>
      <trkpt lat="45.10177" lon="5.88613">
        <ele>1650.5</ele>
        <time>2022-07-22T05:18:14.000Z</time>
      </trkpt>
      <trkpt lat="45.10181" lon="5.88625">
        <ele>1648</ele>
        <time>2022-07-22T05:18:28.000Z</time>
      </trkpt>
      <trkpt lat="45.10185" lon="5.88634">
        <ele>1651.9</ele>
        <time>2022-07-22T05:18:38.000Z</time>
      </trkpt>
      <trkpt lat="45.10186" lon="5.88638">
        <ele>1652.1</ele>
        <time>2022-07-22T05:18:48.000Z</time>
      </trkpt>
      <trkpt lat="45.10192" lon="5.8865">
        <ele>1657</ele>
        <time>2022-07-22T05:18:40.000Z</time>
      </trkpt>
      <trkpt lat="45.10195" lon="5.88659">
        <ele>1653.8</ele>
        <time>2022-07-22T05:18:50.000Z</time>
      </trkpt>
      <trkpt lat="45.10202" lon="5.8867">
        <ele>1654.8</ele>
        <time>2022-07-22T05:19:00.000Z</time>
      </trkpt>
      <trkpt lat="45.10211" lon="5.88697">
        <ele>1661</ele>
        <time>2022-07-22T05:19:05.000Z</time>
      </trkpt>
      <trkpt lat="45.10214" lon="5.88703">
        <ele>1656</ele>
        <time>2022-07-22T05:19:15.000Z</time>
      </trkpt>
      <trkpt lat="45.10219" lon="5.88716">
        <ele>1656.6</ele>
        <time>2022-07-22T05:19:25.000Z</time>
      </trkpt>
      <trkpt lat="45.10223" lon="5.88719">
        <ele>1665</ele>
        <time>2022-07-22T05:19:20.000Z</time>
      </trkpt>
      <trkpt lat="45.10224" lon="5.88723">
        <ele>1657.2</ele>
        <time>2022-07-22T05:19:30.000Z</time>
      </trkpt>
      <trkpt lat="45.10231" lon="5.88728">
        <ele>1658.1</ele>
        <time>2022-07-22T05:19:40.000Z</time>
      </trkpt>
      <trkpt lat="45.10234" lon="5.88739">
        <ele>1665</ele>
        <time>2022-07-22T05:19:50.000Z</time>
      </trkpt>
      <trkpt lat="45.10236" lon="5.88741">
        <ele>1659.2</ele>
        <time>2022-07-22T05:20:00.000Z</time>
      </trkpt>
      <trkpt lat="45.10241" lon="5.88767">
        <ele>1666</ele>
        <time>2022-07-22T05:20:00.000Z</time>
      </trkpt>
      <trkpt lat="45.10242" lon="5.88779">
        <ele>1660.2</ele>
        <time>2022-07-22T05:20:10.000Z</time>
      </trkpt>
      <trkpt lat="45.10246" lon="5.8879">
        <ele>1660.3</ele>
        <time>2022-07-22T05:20:20.000Z</time>
      </trkpt>
      <trkpt lat="45.10246" lon="5.88793">
        <ele>1663</ele>
        <time>2022-07-22T05:20:19.000Z</time>
      </trkpt>
      <trkpt lat="45.10249" lon="5.88801">
        <ele>1660.1</ele>
        <time>2022-07-22T05:20:29.000Z</time>
      </trkpt>
      <trkpt lat="45.10251" lon="5.88811">
        <ele>1660</ele>
        <time>2022-07-22T05:20:39.000Z</time>
      </trkpt>
      <trkpt lat="45.10254" lon="5.88837">
        <ele>1660</ele>
        <time>2022-07-22T05:20:30.000Z</time>
      </trkpt>
      <trkpt lat="45.1026" lon="5.88847">
        <ele>1659.1</ele>
        <time>2022-07-22T05:20:40.000Z</time>
      </trkpt>
      <trkpt lat="45.10267" lon="5.88851">
        <ele>1659.9</ele>
        <time>2022-07-22T05:20:50.000Z</time>
      </trkpt>
      <trkpt lat="45.10266" lon="5.88861">
        <ele>1664</ele>
        <time>2022-07-22T05:20:49.000Z</time>
      </trkpt>
      <trkpt lat="45.10268" lon="5.88866">
        <ele>1659.5</ele>
        <time>2022-07-22T05:20:59.000Z</time>
      </trkpt>
      <trkpt lat="45.10275" lon="5.88874">
        <ele>1661.3</ele>
        <time>2022-07-22T05:21:09.000Z</time>
      </trkpt>
      <trkpt lat="45.10278" lon="5.8888">
        <ele>1662.4</ele>
        <time>2022-07-22T05:21:19.000Z</time>
      </trkpt>
      <trkpt lat="45.10281" lon="5.88891">
        <ele>1668</ele>
        <time>2022-07-22T05:21:13.000Z</time>
      </trkpt>
      <trkpt lat="45.10285" lon="5.88903">
        <ele>1664.4</ele>
        <time>2022-07-22T05:21:23.000Z</time>
      </trkpt>
      <trkpt lat="45.10289" lon="5.88924">
        <ele>1669</ele>
        <time>2022-07-22T05:21:29.000Z</time>
      </trkpt>
      <trkpt lat="45.10289" lon="5.88928">
        <ele>1665.6</ele>
        <time>2022-07-22T05:21:39.000Z</time>
      </trkpt>
      <trkpt lat="45.10293" lon="5.88938">
        <ele>1666.4</ele>
        <time>2022-07-22T05:21:49.000Z</time>
      </trkpt>
      <trkpt lat="45.10294" lon="5.88948">
        <ele>1667</ele>
        <time>2022-07-22T05:21:59.000Z</time>
      </trkpt>
      <trkpt lat="45.10297" lon="5.88965">
        <ele>1671</ele>
        <time>2022-07-22T05:21:55.000Z</time>
      </trkpt>
      <trkpt lat="45.10297" lon="5.8899">
        <ele>1669.9</ele>
        <time>2022-07-22T05:22:05.000Z</time>
      </trkpt>
      <trkpt lat="45.10296" lon="5.89001">
        <ele>1673</ele>
        <time>2022-07-22T05:22:14.000Z</time>
      </trkpt>
      <trkpt lat="45.10295" lon="5.89003">
        <ele>1670.3</ele>
        <time>2022-07-22T05:22:24.000Z</time>
      </trkpt>
      <trkpt lat="45.10295" lon="5.89009">
        <ele>1670.6</ele>
        <time>2022-07-22T05:22:34.000Z</time>
      </trkpt>
      <trkpt lat="45.1029" lon="5.89054">
        <ele>1680</ele>
        <time>2022-07-22T05:22:45.000Z</time>
      </trkpt>
      <trkpt lat="45.10289" lon="5.89057">
        <ele>1673.1</ele>
        <time>2022-07-22T05:22:55.000Z</time>
      </trkpt>
      <trkpt lat="45.10287" lon="5.89083">
        <ele>1682</ele>
        <time>2022-07-22T05:23:08.000Z</time>
      </trkpt>
      <trkpt lat="45.1029" lon="5.89088">
        <ele>1675.5</ele>
        <time>2022-07-22T05:23:18.000Z</time>
      </trkpt>
      <trkpt lat="45.1029" lon="5.89094">
        <ele>1676</ele>
        <time>2022-07-22T05:23:28.000Z</time>
      </trkpt>
      <trkpt lat="45.10289" lon="5.89097">
        <ele>1676</ele>
        <time>2022-07-22T05:23:38.000Z</time>
      </trkpt>
      <trkpt lat="45.1029" lon="5.89103">
        <ele>1676.6</ele>
        <time>2022-07-22T05:23:48.000Z</time>
      </trkpt>
      <trkpt lat="45.10293" lon="5.89113">
        <ele>1682</ele>
        <time>2022-07-22T05:23:22.000Z</time>
      </trkpt>
      <trkpt lat="45.10297" lon="5.89119">
        <ele>1678.4</ele>
        <time>2022-07-22T05:23:32.000Z</time>
      </trkpt>
      <trkpt lat="45.103" lon="5.89128">
        <ele>1678.5</ele>
        <time>2022-07-22T05:23:42.000Z</time>
      </trkpt>
      <trkpt lat="45.103" lon="5.89138">
        <ele>1688</ele>
        <time>2022-07-22T05:23:41.000Z</time>
      </trkpt>
      <trkpt lat="45.10303" lon="5.89152">
        <ele>1679.5</ele>
        <time>2022-07-22T05:23:51.000Z</time>
      </trkpt>
      <trkpt lat="45.10305" lon="5.89154">
        <ele>1679.7</ele>
        <time>2022-07-22T05:24:01.000Z</time>
      </trkpt>
      <trkpt lat="45.10308" lon="5.89159">
        <ele>1680.5</ele>
        <time>2022-07-22T05:24:11.000Z</time>
      </trkpt>
      <trkpt lat="45.10306" lon="5.89171">
        <ele>1688</ele>
        <time>2022-07-22T05:24:09.000Z</time>
      </trkpt>
      <trkpt lat="45.10303" lon="5.89175">
        <ele>1682.3</ele>
        <time>2022-07-22T05:24:19.000Z</time>
      </trkpt>
      <trkpt lat="45.10303" lon="5.89177">
        <ele>1682.5</ele>
        <time>2022-07-22T05:24:29.000Z</time>
      </trkpt>
      <trkpt lat="45.10307" lon="5.89192">
        <ele>1684.9</ele>
        <time>2022-07-22T05:24:39.000Z</time>
      </trkpt>
      <trkpt lat="45.10317" lon="5.89202">
        <ele>1690</ele>
        <time>2022-07-22T05:24:24.000Z</time>
      </trkpt>
      <trkpt lat="45.10319" lon="5.89202">
        <ele>1688</ele>
        <time>2022-07-22T05:24:34.000Z</time>
      </trkpt>
      <trkpt lat="45.10322" lon="5.8921">
        <ele>1689.1</ele>
        <time>2022-07-22T05:24:44.000Z</time>
      </trkpt>
      <trkpt lat="45.10325" lon="5.89212">
        <ele>1689.8</ele>
        <time>2022-07-22T05:24:54.000Z</time>
      </trkpt>
      <trkpt lat="45.10327" lon="5.89211">
        <ele>1690.1</ele>
        <time>2022-07-22T05:25:04.000Z</time>
      </trkpt>
      <trkpt lat="45.10329" lon="5.89212">
        <ele>1690.5</ele>
        <time>2022-07-22T05:25:14.000Z</time>
      </trkpt>
      <trkpt lat="45.10335" lon="5.89218">
        <ele>1692</ele>
        <time>2022-07-22T05:25:24.000Z</time>
      </trkpt>
      <trkpt lat="45.10337" lon="5.89224">
        <ele>1693</ele>
        <time>2022-07-22T05:25:34.000Z</time>
      </trkpt>
      <trkpt lat="45.1034" lon="5.89226">
        <ele>1693.9</ele>
        <time>2022-07-22T05:25:44.000Z</time>
      </trkpt>
      <trkpt lat="45.10346" lon="5.89226">
        <ele>1695.2</ele>
        <time>2022-07-22T05:25:54.000Z</time>
      </trkpt>
      <trkpt lat="45.10351" lon="5.89227">
        <ele>1697</ele>
        <time>2022-07-22T05:25:26.000Z</time>
      </trkpt>
      <trkpt lat="45.10361" lon="5.89232">
        <ele>1699.4</ele>
        <time>2022-07-22T05:25:36.000Z</time>
      </trkpt>
      <trkpt lat="45.10368" lon="5.89238">
        <ele>1701.3</ele>
        <time>2022-07-22T05:25:46.000Z</time>
      </trkpt>
      <trkpt lat="45.10377" lon="5.89242">
        <ele>1703</ele>
        <time>2022-07-22T05:25:51.000Z</time>
      </trkpt>
      <trkpt lat="45.10383" lon="5.89242">
        <ele>1704</ele>
        <time>2022-07-22T05:26:01.000Z</time>
      </trkpt>
      <trkpt lat="45.10385" lon="5.89243">
        <ele>1704.4</ele>
        <time>2022-07-22T05:26:11.000Z</time>
      </trkpt>
      <trkpt lat="45.10402" lon="5.89242">
        <ele>1707</ele>
        <time>2022-07-22T05:26:34.000Z</time>
      </trkpt>
      <trkpt lat="45.10405" lon="5.89243">
        <ele>1706.6</ele>
        <time>2022-07-22T05:26:44.000Z</time>
      </trkpt>
      <trkpt lat="45.10412" lon="5.89239">
        <ele>1706.6</ele>
        <time>2022-07-22T05:26:54.000Z</time>
      </trkpt>
      <trkpt lat="45.10423" lon="5.89243">
        <ele>1712</ele>
        <time>2022-07-22T05:26:24.000Z</time>
      </trkpt>
      <trkpt lat="45.10438" lon="5.89252">
        <ele>1709.3</ele>
        <time>2022-07-22T05:26:34.000Z</time>
      </trkpt>
      <trkpt lat="45.10452" lon="5.89266">
        <ele>1716</ele>
        <time>2022-07-22T05:26:39.000Z</time>
      </trkpt>
      <trkpt lat="45.10465" lon="5.89277">
        <ele>1712.9</ele>
        <time>2022-07-22T05:26:49.000Z</time>
      </trkpt>
      <trkpt lat="45.1047" lon="5.89283">
        <ele>1723</ele>
        <time>2022-07-22T05:27:01.000Z</time>
      </trkpt>
      <trkpt lat="45.10472" lon="5.89295">
        <ele>1713.6</ele>
        <time>2022-07-22T05:27:11.000Z</time>
      </trkpt>
      <trkpt lat="45.10473" lon="5.89298">
        <ele>1713.8</ele>
        <time>2022-07-22T05:27:21.000Z</time>
      </trkpt>
      <trkpt lat="45.10482" lon="5.89307">
        <ele>1727</ele>
        <time>2022-07-22T05:27:12.000Z</time>
      </trkpt>
      <trkpt lat="45.10487" lon="5.89309">
        <ele>1715.4</ele>
        <time>2022-07-22T05:27:22.000Z</time>
      </trkpt>
      <trkpt lat="45.10492" lon="5.89315">
        <ele>1716.2</ele>
        <time>2022-07-22T05:27:32.000Z</time>
      </trkpt>
      <trkpt lat="45.10495" lon="5.89321">
        <ele>1716.6</ele>
        <time>2022-07-22T05:27:42.000Z</time>
      </trkpt>
      <trkpt lat="45.10498" lon="5.89324">
        <ele>1731</ele>
        <time>2022-07-22T05:27:29.000Z</time>
      </trkpt>
      <trkpt lat="45.10507" lon="5.89326">
        <ele>1717</ele>
        <time>2022-07-22T05:27:39.000Z</time>
      </trkpt>
      <trkpt lat="45.1051" lon="5.8933">
        <ele>1717.2</ele>
        <time>2022-07-22T05:27:49.000Z</time>
      </trkpt>
      <trkpt lat="45.10516" lon="5.89333">
        <ele>1731</ele>
        <time>2022-07-22T05:27:46.000Z</time>
      </trkpt>
      <trkpt lat="45.10524" lon="5.8934">
        <ele>1719.3</ele>
        <time>2022-07-22T05:27:56.000Z</time>
      </trkpt>
      <trkpt lat="45.10527" lon="5.89347">
        <ele>1720.9</ele>
        <time>2022-07-22T05:28:06.000Z</time>
      </trkpt>
      <trkpt lat="45.10533" lon="5.89356">
        <ele>1731</ele>
        <time>2022-07-22T05:28:21.000Z</time>
      </trkpt>
      <trkpt lat="45.10533" lon="5.89361">
        <ele>1723.6</ele>
        <time>2022-07-22T05:28:31.000Z</time>
      </trkpt>
      <trkpt lat="45.10535" lon="5.89369">
        <ele>1724.4</ele>
        <time>2022-07-22T05:28:41.000Z</time>
      </trkpt>
      <trkpt lat="45.10536" lon="5.89372">
        <ele>1724.8</ele>
        <time>2022-07-22T05:28:51.000Z</time>
      </trkpt>
      <trkpt lat="45.10539" lon="5.89376">
        <ele>1725.3</ele>
        <time>2022-07-22T05:29:01.000Z</time>
      </trkpt>
      <trkpt lat="45.1054" lon="5.8938">
        <ele>1726</ele>
        <time>2022-07-22T05:29:11.000Z</time>
      </trkpt>
      <trkpt lat="45.10547" lon="5.89389">
        <ele>1731</ele>
        <time>2022-07-22T05:28:54.000Z</time>
      </trkpt>
      <trkpt lat="45.10553" lon="5.8939">
        <ele>1728.8</ele>
        <time>2022-07-22T05:29:04.000Z</time>
      </trkpt>
      <trkpt lat="45.10555" lon="5.89392">
        <ele>1729.2</ele>
        <time>2022-07-22T05:29:14.000Z</time>
      </trkpt>
      <trkpt lat="45.1056" lon="5.894">
        <ele>1729.9</ele>
        <time>2022-07-22T05:29:24.000Z</time>
      </trkpt>
      <trkpt lat="45.10561" lon="5.89415">
        <ele>1734</ele>
        <time>2022-07-22T05:29:06.000Z</time>
      </trkpt>
      <trkpt lat="45.10565" lon="5.89426">
        <ele>1732</ele>
        <time>2022-07-22T05:29:16.000Z</time>
      </trkpt>
      <trkpt lat="45.1057" lon="5.89436">
        <ele>1733.1</ele>
        <time>2022-07-22T05:29:26.000Z</time>
      </trkpt>
      <trkpt lat="45.10572" lon="5.89438">
        <ele>1741</ele>
        <time>2022-07-22T05:29:44.000Z</time>
      </trkpt>
      <trkpt lat="45.10575" lon="5.89445">
        <ele>1734.1</ele>
        <time>2022-07-22T05:29:54.000Z</time>
      </trkpt>
      <trkpt lat="45.10583" lon="5.89453">
        <ele>1734.6</ele>
        <time>2022-07-22T05:30:04.000Z</time>
      </trkpt>
      <trkpt lat="45.1059" lon="5.89458">
        <ele>1742</ele>
        <time>2022-07-22T05:29:50.000Z</time>
      </trkpt>
      <trkpt lat="45.1059" lon="5.89464">
        <ele>1736.5</ele>
        <time>2022-07-22T05:30:00.000Z</time>
      </trkpt>
      <trkpt lat="45.10589" lon="5.89465">
        <ele>1736.4</ele>
        <time>2022-07-22T05:30:10.000Z</time>
      </trkpt>
      <trkpt lat="45.10588" lon="5.89468">
        <ele>1736.5</ele>
        <time>2022-07-22T05:30:20.000Z</time>
      </trkpt>
      <trkpt lat="45.1059" lon="5.89471">
        <ele>1737.1</ele>
        <time>2022-07-22T05:30:30.000Z</time>
      </trkpt>
      <trkpt lat="45.10593" lon="5.89474">
        <ele>1738.3</ele>
        <time>2022-07-22T05:30:40.000Z</time>
      </trkpt>
      <trkpt lat="45.10594" lon="5.89477">
        <ele>1739.5</ele>
        <time>2022-07-22T05:30:50.000Z</time>
      </trkpt>
      <trkpt lat="45.10597" lon="5.89477">
        <ele>1745</ele>
        <time>2022-07-22T05:30:22.000Z</time>
      </trkpt>
      <trkpt lat="45.10601" lon="5.89475">
        <ele>1740.1</ele>
        <time>2022-07-22T05:30:32.000Z</time>
      </trkpt>
      <trkpt lat="45.10602" lon="5.8949">
        <ele>1745.6</ele>
        <time>2022-07-22T05:30:42.000Z</time>
      </trkpt>
      <trkpt lat="45.10603" lon="5.89493">
        <ele>1746.8</ele>
        <time>2022-07-22T05:30:52.000Z</time>
      </trkpt>
      <trkpt lat="45.10609" lon="5.89496">
        <ele>1754</ele>
        <time>2022-07-22T05:30:48.000Z</time>
      </trkpt>
      <trkpt lat="45.10614" lon="5.89501">
        <ele>1752.2</ele>
        <time>2022-07-22T05:30:58.000Z</time>
      </trkpt>
      <trkpt lat="45.10617" lon="5.89499">
        <ele>1752.3</ele>
        <time>2022-07-22T05:31:08.000Z</time>
      </trkpt>
      <trkpt lat="45.10619" lon="5.89503">
        <ele>1754.2</ele>
        <time>2022-07-22T05:31:18.000Z</time>
      </trkpt>
      <trkpt lat="45.1062" lon="5.89507">
        <ele>1755.7</ele>
        <time>2022-07-22T05:31:28.000Z</time>
      </trkpt>
      <trkpt lat="45.10621" lon="5.89506">
        <ele>1755.7</ele>
        <time>2022-07-22T05:31:38.000Z</time>
      </trkpt>
      <trkpt lat="45.10626" lon="5.89509">
        <ele>1754</ele>
        <time>2022-07-22T05:31:34.000Z</time>
      </trkpt>
      <trkpt lat="45.10632" lon="5.89511">
        <ele>1760.3</ele>
        <time>2022-07-22T05:31:44.000Z</time>
      </trkpt>
      <trkpt lat="45.10636" lon="5.8951">
        <ele>1761.1</ele>
        <time>2022-07-22T05:31:54.000Z</time>
      </trkpt>
      <trkpt lat="45.10644" lon="5.89514">
        <ele>1762.6</ele>
        <time>2022-07-22T05:32:04.000Z</time>
      </trkpt>
      <trkpt lat="45.10648" lon="5.89524">
        <ele>1764</ele>
        <time>2022-07-22T05:31:58.000Z</time>
      </trkpt>
      <trkpt lat="45.10649" lon="5.89524">
        <ele>1765.4</ele>
        <time>2022-07-22T05:32:08.000Z</time>
      </trkpt>
      <trkpt lat="45.10651" lon="5.89528">
        <ele>1766.7</ele>
        <time>2022-07-22T05:32:18.000Z</time>
      </trkpt>
      <trkpt lat="45.10654" lon="5.89529">
        <ele>1766.9</ele>
        <time>2022-07-22T05:32:28.000Z</time>
      </trkpt>
      <trkpt lat="45.10658" lon="5.8954">
        <ele>1771.3</ele>
        <time>2022-07-22T05:32:38.000Z</time>
      </trkpt>
      <trkpt lat="45.10661" lon="5.89542">
        <ele>1774</ele>
        <time>2022-07-22T05:32:43.000Z</time>
      </trkpt>
      <trkpt lat="45.10666" lon="5.89548">
        <ele>1774.7</ele>
        <time>2022-07-22T05:32:53.000Z</time>
      </trkpt>
      <trkpt lat="45.10676" lon="5.89552">
        <ele>1776.8</ele>
        <time>2022-07-22T05:33:03.000Z</time>
      </trkpt>
      <trkpt lat="45.1068" lon="5.89551">
        <ele>1782</ele>
        <time>2022-07-22T05:32:58.000Z</time>
      </trkpt>
      <trkpt lat="45.10683" lon="5.89553">
        <ele>1777.5</ele>
        <time>2022-07-22T05:33:08.000Z</time>
      </trkpt>
      <trkpt lat="45.10687" lon="5.89556">
        <ele>1778.9</ele>
        <time>2022-07-22T05:33:18.000Z</time>
      </trkpt>
      <trkpt lat="45.10691" lon="5.89565">
        <ele>1783.5</ele>
        <time>2022-07-22T05:33:28.000Z</time>
      </trkpt>
      <trkpt lat="45.107" lon="5.89574">
        <ele>1796</ele>
        <time>2022-07-22T05:33:36.000Z</time>
      </trkpt>
      <trkpt lat="45.10701" lon="5.89576">
        <ele>1789.5</ele>
        <time>2022-07-22T05:33:46.000Z</time>
      </trkpt>
      <trkpt lat="45.10701" lon="5.89575">
        <ele>1789</ele>
        <time>2022-07-22T05:33:56.000Z</time>
      </trkpt>
      <trkpt lat="45.10704" lon="5.89578">
        <ele>1790.5</ele>
        <time>2022-07-22T05:34:06.000Z</time>
      </trkpt>
      <trkpt lat="45.10708" lon="5.8958">
        <ele>1791.5</ele>
        <time>2022-07-22T05:34:16.000Z</time>
      </trkpt>
      <trkpt lat="45.1071" lon="5.8958">
        <ele>1791.5</ele>
        <time>2022-07-22T05:34:26.000Z</time>
      </trkpt>
      <trkpt lat="45.10711" lon="5.89583">
        <ele>1792.9</ele>
        <time>2022-07-22T05:34:36.000Z</time>
      </trkpt>
      <trkpt lat="45.10714" lon="5.89586">
        <ele>1794.2</ele>
        <time>2022-07-22T05:34:46.000Z</time>
      </trkpt>
      <trkpt lat="45.10716" lon="5.89586">
        <ele>1802</ele>
        <time>2022-07-22T05:34:56.000Z</time>
      </trkpt>
      <trkpt lat="45.1072" lon="5.89588">
        <ele>1795</ele>
        <time>2022-07-22T05:35:06.000Z</time>
      </trkpt>
      <trkpt lat="45.10726" lon="5.89588">
        <ele>1795.2</ele>
        <time>2022-07-22T05:35:16.000Z</time>
      </trkpt>
      <trkpt lat="45.10737" lon="5.89595">
        <ele>1802</ele>
        <time>2022-07-22T05:34:55.000Z</time>
      </trkpt>
      <trkpt lat="45.1074" lon="5.89595">
        <ele>1798.5</ele>
        <time>2022-07-22T05:35:05.000Z</time>
      </trkpt>
      <trkpt lat="45.10741" lon="5.89598">
        <ele>1799.6</ele>
        <time>2022-07-22T05:35:15.000Z</time>
      </trkpt>
      <trkpt lat="45.10747" lon="5.89603">
        <ele>1801.4</ele>
        <time>2022-07-22T05:35:25.000Z</time>
      </trkpt>
      <trkpt lat="45.10758" lon="5.89614">
        <ele>1819</ele>
        <time>2022-07-22T05:35:04.000Z</time>
      </trkpt>
      <trkpt lat="45.10768" lon="5.89621">
        <ele>1807.5</ele>
        <time>2022-07-22T05:35:14.000Z</time>
      </trkpt>
      <trkpt lat="45.1077" lon="5.89622">
        <ele>1807.8</ele>
        <time>2022-07-22T05:35:24.000Z</time>
      </trkpt>
      <trkpt lat="45.10771" lon="5.89621">
        <ele>1807.5</ele>
        <time>2022-07-22T05:35:34.000Z</time>
      </trkpt>
      <trkpt lat="45.10777" lon="5.89624">
        <ele>1825</ele>
        <time>2022-07-22T05:35:26.000Z</time>
      </trkpt>
      <trkpt lat="45.10781" lon="5.89627">
        <ele>1810.2</ele>
        <time>2022-07-22T05:35:36.000Z</time>
      </trkpt>
      <trkpt lat="45.1078" lon="5.89628">
        <ele>1810</ele>
        <time>2022-07-22T05:35:46.000Z</time>
      </trkpt>
      <trkpt lat="45.10784" lon="5.89631">
        <ele>1812</ele>
        <time>2022-07-22T05:35:56.000Z</time>
      </trkpt>
      <trkpt lat="45.10787" lon="5.89639">
        <ele>1814</ele>
        <time>2022-07-22T05:36:06.000Z</time>
      </trkpt>
      <trkpt lat="45.10789" lon="5.8964">
        <ele>1814.7</ele>
        <time>2022-07-22T05:36:16.000Z</time>
      </trkpt>
      <trkpt lat="45.10792" lon="5.89647">
        <ele>1829</ele>
        <time>2022-07-22T05:35:52.000Z</time>
      </trkpt>
      <trkpt lat="45.10801" lon="5.8965">
        <ele>1820.2</ele>
        <time>2022-07-22T05:36:02.000Z</time>
      </trkpt>
      <trkpt lat="45.10804" lon="5.89652">
        <ele>1821.4</ele>
        <time>2022-07-22T05:36:12.000Z</time>
      </trkpt>
      <trkpt lat="45.10806" lon="5.89658">
        <ele>1823.7</ele>
        <time>2022-07-22T05:36:22.000Z</time>
      </trkpt>
      <trkpt lat="45.10813" lon="5.89665">
        <ele>1840</ele>
        <time>2022-07-22T05:36:47.000Z</time>
      </trkpt>
      <trkpt lat="45.10819" lon="5.89666">
        <ele>1829.8</ele>
        <time>2022-07-22T05:36:57.000Z</time>
      </trkpt>
      <trkpt lat="45.10821" lon="5.89665">
        <ele>1830.2</ele>
        <time>2022-07-22T05:37:07.000Z</time>
      </trkpt>
      <trkpt lat="45.10825" lon="5.89667">
        <ele>1831.7</ele>
        <time>2022-07-22T05:37:17.000Z</time>
      </trkpt>
      <trkpt lat="45.10835" lon="5.89665">
        <ele>1849</ele>
        <time>2022-07-22T05:37:10.000Z</time>
      </trkpt>
      <trkpt lat="45.10839" lon="5.89666">
        <ele>1835</ele>
        <time>2022-07-22T05:37:20.000Z</time>
      </trkpt>
      <trkpt lat="45.10842" lon="5.89669">
        <ele>1835.9</ele>
        <time>2022-07-22T05:37:30.000Z</time>
      </trkpt>
      <trkpt lat="45.10845" lon="5.8967">
        <ele>1836.5</ele>
        <time>2022-07-22T05:37:40.000Z</time>
      </trkpt>
      <trkpt lat="45.10846" lon="5.89669">
        <ele>1836.6</ele>
        <time>2022-07-22T05:37:50.000Z</time>
      </trkpt>
      <trkpt lat="45.10847" lon="5.8967">
        <ele>1836.8</ele>
        <time>2022-07-22T05:38:00.000Z</time>
      </trkpt>
      <trkpt lat="45.10848" lon="5.89685">
        <ele>1849</ele>
        <time>2022-07-22T05:37:36.000Z</time>
      </trkpt>
      <trkpt lat="45.10847" lon="5.89689">
        <ele>1838.9</ele>
        <time>2022-07-22T05:37:46.000Z</time>
      </trkpt>
      <trkpt lat="45.10847" lon="5.89691">
        <ele>1839.1</ele>
        <time>2022-07-22T05:37:56.000Z</time>
      </trkpt>
      <trkpt lat="45.1085" lon="5.89698">
        <ele>1840.4</ele>
        <time>2022-07-22T05:38:06.000Z</time>
      </trkpt>
      <trkpt lat="45.10851" lon="5.89703">
        <ele>1841.8</ele>
        <time>2022-07-22T05:38:16.000Z</time>
      </trkpt>
      <trkpt lat="45.10856" lon="5.89711">
        <ele>1861</ele>
        <time>2022-07-22T05:38:01.000Z</time>
      </trkpt>
      <trkpt lat="45.10855" lon="5.89712">
        <ele>1843.5</ele>
        <time>2022-07-22T05:38:11.000Z</time>
      </trkpt>
      <trkpt lat="45.10856" lon="5.89716">
        <ele>1844.2</ele>
        <time>2022-07-22T05:38:21.000Z</time>
      </trkpt>
      <trkpt lat="45.10855" lon="5.89718">
        <ele>1845</ele>
        <time>2022-07-22T05:38:31.000Z</time>
      </trkpt>
      <trkpt lat="45.10855" lon="5.89723">
        <ele>1846.2</ele>
        <time>2022-07-22T05:38:41.000Z</time>
      </trkpt>
      <trkpt lat="45.10857" lon="5.89721">
        <ele>1845.1</ele>
        <time>2022-07-22T05:38:51.000Z</time>
      </trkpt>
      <trkpt lat="45.10859" lon="5.89725">
        <ele>1845.7</ele>
        <time>2022-07-22T05:39:01.000Z</time>
      </trkpt>
      <trkpt lat="45.10859" lon="5.89733">
        <ele>1861</ele>
        <time>2022-07-22T05:38:30.000Z</time>
      </trkpt>
      <trkpt lat="45.10858" lon="5.89738">
        <ele>1850.4</ele>
        <time>2022-07-22T05:38:40.000Z</time>
      </trkpt>
      <trkpt lat="45.10855" lon="5.89739">
        <ele>1851.5</ele>
        <time>2022-07-22T05:38:50.000Z</time>
      </trkpt>
      <trkpt lat="45.10851" lon="5.89739">
        <ele>1852.4</ele>
        <time>2022-07-22T05:39:00.000Z</time>
      </trkpt>
      <trkpt lat="45.10849" lon="5.89743">
        <ele>1854.1</ele>
        <time>2022-07-22T05:39:10.000Z</time>
      </trkpt>
      <trkpt lat="45.10854" lon="5.89754">
        <ele>1862</ele>
        <time>2022-07-22T05:39:01.000Z</time>
      </trkpt>
      <trkpt lat="45.10855" lon="5.89754">
        <ele>1856</ele>
        <time>2022-07-22T05:39:11.000Z</time>
      </trkpt>
      <trkpt lat="45.10855" lon="5.89757">
        <ele>1856.7</ele>
        <time>2022-07-22T05:39:21.000Z</time>
      </trkpt>
      <trkpt lat="45.10858" lon="5.89775">
        <ele>1860.1</ele>
        <time>2022-07-22T05:39:31.000Z</time>
      </trkpt>
      <trkpt lat="45.10862" lon="5.89782">
        <ele>1865</ele>
        <time>2022-07-22T05:39:21.000Z</time>
      </trkpt>
      <trkpt lat="45.10865" lon="5.89785">
        <ele>1860.5</ele>
        <time>2022-07-22T05:39:31.000Z</time>
      </trkpt>
      <trkpt lat="45.10867" lon="5.89789">
        <ele>1860.7</ele>
        <time>2022-07-22T05:39:41.000Z</time>
      </trkpt>
      <trkpt lat="45.10871" lon="5.898">
        <ele>1861.9</ele>
        <time>2022-07-22T05:39:51.000Z</time>
      </trkpt>
      <trkpt lat="45.10877" lon="5.89805">
        <ele>1871</ele>
        <time>2022-07-22T05:39:41.000Z</time>
      </trkpt>
      <trkpt lat="45.10878" lon="5.89808">
        <ele>1862.1</ele>
        <time>2022-07-22T05:39:51.000Z</time>
      </trkpt>
      <trkpt lat="45.10881" lon="5.89809">
        <ele>1861.8</ele>
        <time>2022-07-22T05:40:01.000Z</time>
      </trkpt>
      <trkpt lat="45.10887" lon="5.89823">
        <ele>1865</ele>
        <time>2022-07-22T05:40:11.000Z</time>
      </trkpt>
      <trkpt lat="45.10895" lon="5.8983">
        <ele>1876</ele>
        <time>2022-07-22T05:40:06.000Z</time>
      </trkpt>
      <trkpt lat="45.10895" lon="5.89833">
        <ele>1868.1</ele>
        <time>2022-07-22T05:40:16.000Z</time>
      </trkpt>
      <trkpt lat="45.10897" lon="5.89834">
        <ele>1868.4</ele>
        <time>2022-07-22T05:40:26.000Z</time>
      </trkpt>
      <trkpt lat="45.10901" lon="5.89841">
        <ele>1869.8</ele>
        <time>2022-07-22T05:40:36.000Z</time>
      </trkpt>
      <trkpt lat="45.10903" lon="5.89852">
        <ele>1871.5</ele>
        <time>2022-07-22T05:40:46.000Z</time>
      </trkpt>
      <trkpt lat="45.10906" lon="5.89858">
        <ele>1881</ele>
        <time>2022-07-22T05:40:33.000Z</time>
      </trkpt>
      <trkpt lat="45.10906" lon="5.89859">
        <ele>1872</ele>
        <time>2022-07-22T05:40:43.000Z</time>
      </trkpt>
      <trkpt lat="45.10902" lon="5.89867">
        <ele>1873.9</ele>
        <time>2022-07-22T05:40:53.000Z</time>
      </trkpt>
      <trkpt lat="45.10902" lon="5.89873">
        <ele>1874.6</ele>
        <time>2022-07-22T05:41:03.000Z</time>
      </trkpt>
      <trkpt lat="45.10901" lon="5.8988">
        <ele>1875.6</ele>
        <time>2022-07-22T05:41:13.000Z</time>
      </trkpt>
      <trkpt lat="45.10902" lon="5.89885">
        <ele>1881</ele>
        <time>2022-07-22T05:40:52.000Z</time>
      </trkpt>
      <trkpt lat="45.10903" lon="5.89889">
        <ele>1876.5</ele>
        <time>2022-07-22T05:41:02.000Z</time>
      </trkpt>
      <trkpt lat="45.10905" lon="5.89892">
        <ele>1876</ele>
        <time>2022-07-22T05:41:12.000Z</time>
      </trkpt>
      <trkpt lat="45.10913" lon="5.89895">
        <ele>1875.3</ele>
        <time>2022-07-22T05:41:22.000Z</time>
      </trkpt>
      <trkpt lat="45.10916" lon="5.89905">
        <ele>1881</ele>
        <time>2022-07-22T05:41:12.000Z</time>
      </trkpt>
      <trkpt lat="45.1092" lon="5.89912">
        <ele>1875</ele>
        <time>2022-07-22T05:41:22.000Z</time>
      </trkpt>
      <trkpt lat="45.10922" lon="5.89919">
        <ele>1875.5</ele>
        <time>2022-07-22T05:41:32.000Z</time>
      </trkpt>
      <trkpt lat="45.10926" lon="5.89927">
        <ele>1876.9</ele>
        <time>2022-07-22T05:41:42.000Z</time>
      </trkpt>
      <trkpt lat="45.10929" lon="5.89931">
        <ele>1885</ele>
        <time>2022-07-22T05:41:31.000Z</time>
      </trkpt>
      <trkpt lat="45.1093" lon="5.89936">
        <ele>1878.2</ele>
        <time>2022-07-22T05:41:41.000Z</time>
      </trkpt>
      <trkpt lat="45.10929" lon="5.89944">
        <ele>1879.6</ele>
        <time>2022-07-22T05:41:51.000Z</time>
      </trkpt>
      <trkpt lat="45.1093" lon="5.8995">
        <ele>1880</ele>
        <time>2022-07-22T05:42:01.000Z</time>
      </trkpt>
      <trkpt lat="45.10929" lon="5.89952">
        <ele>1880.2</ele>
        <time>2022-07-22T05:42:11.000Z</time>
      </trkpt>
      <trkpt lat="45.1093" lon="5.89953">
        <ele>1880.2</ele>
        <time>2022-07-22T05:42:21.000Z</time>
      </trkpt>
      <trkpt lat="45.10931" lon="5.89953">
        <ele>1880.1</ele>
        <time>2022-07-22T05:42:31.000Z</time>
      </trkpt>
      <trkpt lat="45.10931" lon="5.89962">
        <ele>1888</ele>
        <time>2022-07-22T05:42:05.000Z</time>
      </trkpt>
      <trkpt lat="45.1093" lon="5.89967">
        <ele>1881.2</ele>
        <time>2022-07-22T05:42:15.000Z</time>
      </trkpt>
      <trkpt lat="45.10944" lon="5.89982">
        <ele>1889</ele>
        <time>2022-07-22T05:42:22.000Z</time>
      </trkpt>
      <trkpt lat="45.10948" lon="5.89982">
        <ele>1882.3</ele>
        <time>2022-07-22T05:42:32.000Z</time>
      </trkpt>
      <trkpt lat="45.10954" lon="5.89985">
        <ele>1881.4</ele>
        <time>2022-07-22T05:42:42.000Z</time>
      </trkpt>
      <trkpt lat="45.10958" lon="5.89986">
        <ele>1880.6</ele>
        <time>2022-07-22T05:42:52.000Z</time>
      </trkpt>
      <trkpt lat="45.10961" lon="5.8999">
        <ele>1880.5</ele>
        <time>2022-07-22T05:43:02.000Z</time>
      </trkpt>
      <trkpt lat="45.10968" lon="5.89991">
        <ele>1888</ele>
        <time>2022-07-22T05:42:45.000Z</time>
      </trkpt>
      <trkpt lat="45.10976" lon="5.89995">
        <ele>1878.2</ele>
        <time>2022-07-22T05:42:55.000Z</time>
      </trkpt>
      <trkpt lat="45.10979" lon="5.89999">
        <ele>1878.6</ele>
        <time>2022-07-22T05:43:05.000Z</time>
      </trkpt>
      <trkpt lat="45.10993" lon="5.90008">
        <ele>1888</ele>
        <time>2022-07-22T05:43:03.000Z</time>
      </trkpt>
      <trkpt lat="45.10997" lon="5.90014">
        <ele>1879.3</ele>
        <time>2022-07-22T05:43:13.000Z</time>
      </trkpt>
      <trkpt lat="45.11" lon="5.90021">
        <ele>1879.5</ele>
        <time>2022-07-22T05:43:23.000Z</time>
      </trkpt>
      <trkpt lat="45.11004" lon="5.90025">
        <ele>1880.1</ele>
        <time>2022-07-22T05:43:33.000Z</time>
      </trkpt>
      <trkpt lat="45.11004" lon="5.90027">
        <ele>1880.2</ele>
        <time>2022-07-22T05:43:43.000Z</time>
      </trkpt>
      <trkpt lat="45.11005" lon="5.90029">
        <ele>1888</ele>
        <time>2022-07-22T05:43:53.000Z</time>
      </trkpt>
      <trkpt lat="45.11005" lon="5.90032">
        <ele>1880.7</ele>
        <time>2022-07-22T05:44:03.000Z</time>
      </trkpt>
      <trkpt lat="45.11008" lon="5.90035">
        <ele>1881.2</ele>
        <time>2022-07-22T05:44:13.000Z</time>
      </trkpt>
      <trkpt lat="45.1101" lon="5.90042">
        <ele>1882.1</ele>
        <time>2022-07-22T05:44:23.000Z</time>
      </trkpt>
      <trkpt lat="45.11015" lon="5.90051">
        <ele>1887</ele>
        <time>2022-07-22T05:44:00.000Z</time>
      </trkpt>
      <trkpt lat="45.11018" lon="5.90054">
        <ele>1884.4</ele>
        <time>2022-07-22T05:44:10.000Z</time>
      </trkpt>
      <trkpt lat="45.11021" lon="5.90054">
        <ele>1884.8</ele>
        <time>2022-07-22T05:44:20.000Z</time>
      </trkpt>
      <trkpt lat="45.11024" lon="5.90058">
        <ele>1885.4</ele>
        <time>2022-07-22T05:44:30.000Z</time>
      </trkpt>
      <trkpt lat="45.11031" lon="5.90059">
        <ele>1886.3</ele>
        <time>2022-07-22T05:44:40.000Z</time>
      </trkpt>
      <trkpt lat="45.11036" lon="5.90064">
        <ele>1887</ele>
        <time>2022-07-22T05:44:02.000Z</time>
      </trkpt>
      <trkpt lat="45.11039" lon="5.90066">
        <ele>1887.3</ele>
        <time>2022-07-22T05:44:12.000Z</time>
      </trkpt>
      <trkpt lat="45.11044" lon="5.90066">
        <ele>1887.8</ele>
        <time>2022-07-22T05:44:22.000Z</time>
      </trkpt>
      <trkpt lat="45.11051" lon="5.90071">
        <ele>1889.1</ele>
        <time>2022-07-22T05:44:32.000Z</time>
      </trkpt>
      <trkpt lat="45.11054" lon="5.90077">
        <ele>1898</ele>
        <time>2022-07-22T05:44:21.000Z</time>
      </trkpt>
      <trkpt lat="45.11055" lon="5.90082">
        <ele>1890.8</ele>
        <time>2022-07-22T05:44:31.000Z</time>
      </trkpt>
      <trkpt lat="45.11056" lon="5.90092">
        <ele>1891.8</ele>
        <time>2022-07-22T05:44:41.000Z</time>
      </trkpt>
      <trkpt lat="45.11055" lon="5.90097">
        <ele>1891.9</ele>
        <time>2022-07-22T05:44:51.000Z</time>
      </trkpt>
      <trkpt lat="45.11055" lon="5.90102">
        <ele>1892.2</ele>
        <time>2022-07-22T05:45:01.000Z</time>
      </trkpt>
      <trkpt lat="45.11061" lon="5.90112">
        <ele>1899</ele>
        <time>2022-07-22T05:44:53.000Z</time>
      </trkpt>
      <trkpt lat="45.11064" lon="5.90113">
        <ele>1896</ele>
        <time>2022-07-22T05:45:03.000Z</time>
      </trkpt>
      <trkpt lat="45.11068" lon="5.90113">
        <ele>1897.4</ele>
        <time>2022-07-22T05:45:13.000Z</time>
      </trkpt>
      <trkpt lat="45.11069" lon="5.90116">
        <ele>1897.7</ele>
        <time>2022-07-22T05:45:23.000Z</time>
      </trkpt>
      <trkpt lat="45.11073" lon="5.90119">
        <ele>1898.9</ele>
        <time>2022-07-22T05:45:33.000Z</time>
      </trkpt>
      <trkpt lat="45.11078" lon="5.90112">
        <ele>1913</ele>
        <time>2022-07-22T05:45:25.000Z</time>
      </trkpt>
      <trkpt lat="45.11079" lon="5.90113">
        <ele>1901.3</ele>
        <time>2022-07-22T05:45:35.000Z</time>
      </trkpt>
      <trkpt lat="45.11083" lon="5.90114">
        <ele>1902.7</ele>
        <time>2022-07-22T05:45:45.000Z</time>
      </trkpt>
      <trkpt lat="45.11089" lon="5.90121">
        <ele>1904.7</ele>
        <time>2022-07-22T05:45:55.000Z</time>
      </trkpt>
      <trkpt lat="45.11093" lon="5.90121">
        <ele>1906.5</ele>
        <time>2022-07-22T05:46:05.000Z</time>
      </trkpt>
      <trkpt lat="45.11096" lon="5.90116">
        <ele>1913</ele>
        <time>2022-07-22T05:46:00.000Z</time>
      </trkpt>
      <trkpt lat="45.11101" lon="5.90122">
        <ele>1910</ele>
        <time>2022-07-22T05:46:10.000Z</time>
      </trkpt>
      <trkpt lat="45.11101" lon="5.90124">
        <ele>1910</ele>
        <time>2022-07-22T05:46:20.000Z</time>
      </trkpt>
      <trkpt lat="45.11102" lon="5.90128">
        <ele>1910.4</ele>
        <time>2022-07-22T05:46:30.000Z</time>
      </trkpt>
      <trkpt lat="45.11108" lon="5.90136">
        <ele>1934</ele>
        <time>2022-07-22T05:46:40.000Z</time>
      </trkpt>
      <trkpt lat="45.11111" lon="5.90134">
        <ele>1914.8</ele>
        <time>2022-07-22T05:46:50.000Z</time>
      </trkpt>
      <trkpt lat="45.11114" lon="5.90135">
        <ele>1915</ele>
        <time>2022-07-22T05:47:00.000Z</time>
      </trkpt>
      <trkpt lat="45.11117" lon="5.90138">
        <ele>1915.4</ele>
        <time>2022-07-22T05:47:10.000Z</time>
      </trkpt>
      <trkpt lat="45.11118" lon="5.90137">
        <ele>1915.4</ele>
        <time>2022-07-22T05:47:20.000Z</time>
      </trkpt>
      <trkpt lat="45.11123" lon="5.90138">
        <ele>1915.8</ele>
        <time>2022-07-22T05:47:30.000Z</time>
      </trkpt>
      <trkpt lat="45.11126" lon="5.90141">
        <ele>1934</ele>
        <time>2022-07-22T05:47:17.000Z</time>
      </trkpt>
      <trkpt lat="45.1113" lon="5.90142">
        <ele>1917</ele>
        <time>2022-07-22T05:47:27.000Z</time>
      </trkpt>
      <trkpt lat="45.11139" lon="5.90139">
        <ele>1917</ele>
        <time>2022-07-22T05:47:37.000Z</time>
      </trkpt>
      <trkpt lat="45.11142" lon="5.90139">
        <ele>1916.8</ele>
        <time>2022-07-22T05:47:47.000Z</time>
      </trkpt>
      <trkpt lat="45.11164" lon="5.90148">
        <ele>1933</ele>
        <time>2022-07-22T05:47:14.000Z</time>
      </trkpt>
      <trkpt lat="45.11174" lon="5.90151">
        <ele>1917.5</ele>
        <time>2022-07-22T05:47:24.000Z</time>
      </trkpt>
      <trkpt lat="45.11179" lon="5.90156">
        <ele>1917.9</ele>
        <time>2022-07-22T05:47:34.000Z</time>
      </trkpt>
      <trkpt lat="45.11183" lon="5.90162">
        <ele>1933</ele>
        <time>2022-07-22T05:47:34.000Z</time>
      </trkpt>
      <trkpt lat="45.11207" lon="5.90186">
        <ele>1931</ele>
        <time>2022-07-22T05:47:56.000Z</time>
      </trkpt>
      <trkpt lat="45.11209" lon="5.9019">
        <ele>1919.9</ele>
        <time>2022-07-22T05:48:06.000Z</time>
      </trkpt>
      <trkpt lat="45.11218" lon="5.90191">
        <ele>1917.7</ele>
        <time>2022-07-22T05:48:16.000Z</time>
      </trkpt>
      <trkpt lat="45.11224" lon="5.90188">
        <ele>1916.3</ele>
        <time>2022-07-22T05:48:26.000Z</time>
      </trkpt>
      <trkpt lat="45.11228" lon="5.90184">
        <ele>1931</ele>
        <time>2022-07-22T05:48:16.000Z</time>
      </trkpt>
      <trkpt lat="45.11232" lon="5.90177">
        <ele>1915.2</ele>
        <time>2022-07-22T05:48:26.000Z</time>
      </trkpt>
      <trkpt lat="45.11237" lon="5.90171">
        <ele>1914.8</ele>
        <time>2022-07-22T05:48:36.000Z</time>
      </trkpt>
      <trkpt lat="45.11245" lon="5.90168">
        <ele>1927</ele>
        <time>2022-07-22T05:48:34.000Z</time>
      </trkpt>
      <trkpt lat="45.11253" lon="5.90168">
        <ele>1915.2</ele>
        <time>2022-07-22T05:48:44.000Z</time>
      </trkpt>
      <trkpt lat="45.11262" lon="5.90172">
        <ele>1915.6</ele>
        <time>2022-07-22T05:48:54.000Z</time>
      </trkpt>
      <trkpt lat="45.1127" lon="5.90172">
        <ele>1927</ele>
        <time>2022-07-22T05:49:01.000Z</time>
      </trkpt>
      <trkpt lat="45.11277" lon="5.90168">
        <ele>1916</ele>
        <time>2022-07-22T05:49:11.000Z</time>
      </trkpt>
      <trkpt lat="45.11287" lon="5.90171">
        <ele>1916.3</ele>
        <time>2022-07-22T05:49:21.000Z</time>
      </trkpt>
      <trkpt lat="45.11295" lon="5.90181">
        <ele>1930</ele>
        <time>2022-07-22T05:49:23.000Z</time>
      </trkpt>
      <trkpt lat="45.11303" lon="5.90186">
        <ele>1918.6</ele>
        <time>2022-07-22T05:49:33.000Z</time>
      </trkpt>
      <trkpt lat="45.11306" lon="5.90186">
        <ele>1918.7</ele>
        <time>2022-07-22T05:49:43.000Z</time>
      </trkpt>
      <trkpt lat="45.11306" lon="5.9019">
        <ele>1919.3</ele>
        <time>2022-07-22T05:49:53.000Z</time>
      </trkpt>
      <trkpt lat="45.11298" lon="5.90201">
        <ele>1933</ele>
        <time>2022-07-22T05:50:02.000Z</time>
      </trkpt>
      <trkpt lat="45.113" lon="5.90216">
        <ele>1919.9</ele>
        <time>2022-07-22T05:50:12.000Z</time>
      </trkpt>
      <trkpt lat="45.11304" lon="5.90227">
        <ele>1934</ele>
        <time>2022-07-22T05:50:31.000Z</time>
      </trkpt>
      <trkpt lat="45.11304" lon="5.9023">
        <ele>1920.8</ele>
        <time>2022-07-22T05:50:41.000Z</time>
      </trkpt>
      <trkpt lat="45.11307" lon="5.90237">
        <ele>1921.5</ele>
        <time>2022-07-22T05:50:51.000Z</time>
      </trkpt>
      <trkpt lat="45.11323" lon="5.9025">
        <ele>1934</ele>
        <time>2022-07-22T05:50:58.000Z</time>
      </trkpt>
      <trkpt lat="45.11343" lon="5.90257">
        <ele>1934</ele>
        <time>2022-07-22T05:51:02.000Z</time>
      </trkpt>
      <trkpt lat="45.1135" lon="5.90268">
        <ele>1927.4</ele>
        <time>2022-07-22T05:51:12.000Z</time>
      </trkpt>
      <trkpt lat="45.11354" lon="5.90269">
        <ele>1928</ele>
        <time>2022-07-22T05:51:22.000Z</time>
      </trkpt>
      <trkpt lat="45.11359" lon="5.90274">
        <ele>1936</ele>
        <time>2022-07-22T05:51:26.000Z</time>
      </trkpt>
      <trkpt lat="45.11363" lon="5.90275">
        <ele>1929.9</ele>
        <time>2022-07-22T05:51:36.000Z</time>
      </trkpt>
      <trkpt lat="45.11369" lon="5.90285">
        <ele>1933.5</ele>
        <time>2022-07-22T05:51:46.000Z</time>
      </trkpt>
      <trkpt lat="45.11374" lon="5.90288">
        <ele>1934.9</ele>
        <time>2022-07-22T05:51:56.000Z</time>
      </trkpt>
      <trkpt lat="45.11376" lon="5.9029">
        <ele>1936</ele>
        <time>2022-07-22T05:52:02.000Z</time>
      </trkpt>
      <trkpt lat="45.11378" lon="5.90294">
        <ele>1936.9</ele>
        <time>2022-07-22T05:52:12.000Z</time>
      </trkpt>
      <trkpt lat="45.11379" lon="5.90298">
        <ele>1937.9</ele>
        <time>2022-07-22T05:52:22.000Z</time>
      </trkpt>
      <trkpt lat="45.11382" lon="5.90298">
        <ele>1938.1</ele>
        <time>2022-07-22T05:52:32.000Z</time>
      </trkpt>
      <trkpt lat="45.11389" lon="5.90305">
        <ele>1939.9</ele>
        <time>2022-07-22T05:52:42.000Z</time>
      </trkpt>
      <trkpt lat="45.11392" lon="5.90307">
        <ele>1948</ele>
        <time>2022-07-22T05:52:33.000Z</time>
      </trkpt>
      <trkpt lat="45.11395" lon="5.90307">
        <ele>1942.5</ele>
        <time>2022-07-22T05:52:43.000Z</time>
      </trkpt>
      <trkpt lat="45.11398" lon="5.90309">
        <ele>1943.9</ele>
        <time>2022-07-22T05:52:53.000Z</time>
      </trkpt>
      <trkpt lat="45.114" lon="5.90311">
        <ele>1944.9</ele>
        <time>2022-07-22T05:53:03.000Z</time>
      </trkpt>
      <trkpt lat="45.114" lon="5.90313">
        <ele>1945.2</ele>
        <time>2022-07-22T05:53:13.000Z</time>
      </trkpt>
      <trkpt lat="45.11409" lon="5.90323">
        <ele>1951</ele>
        <time>2022-07-22T05:53:00.000Z</time>
      </trkpt>
      <trkpt lat="45.11413" lon="5.90325">
        <ele>1948.8</ele>
        <time>2022-07-22T05:53:10.000Z</time>
      </trkpt>
      <trkpt lat="45.11416" lon="5.90329">
        <ele>1949.1</ele>
        <time>2022-07-22T05:53:20.000Z</time>
      </trkpt>
      <trkpt lat="45.11416" lon="5.90331">
        <ele>1949</ele>
        <time>2022-07-22T05:53:30.000Z</time>
      </trkpt>
      <trkpt lat="45.11425" lon="5.90336">
        <ele>1954</ele>
        <time>2022-07-22T05:53:13.000Z</time>
      </trkpt>
      <trkpt lat="45.11436" lon="5.90362">
        <ele>1955</ele>
        <time>2022-07-22T05:53:31.000Z</time>
      </trkpt>
      <trkpt lat="45.11437" lon="5.90365">
        <ele>1950.3</ele>
        <time>2022-07-22T05:53:41.000Z</time>
      </trkpt>
      <trkpt lat="45.11437" lon="5.90369">
        <ele>1950.2</ele>
        <time>2022-07-22T05:53:51.000Z</time>
      </trkpt>
      <trkpt lat="45.11438" lon="5.90371">
        <ele>1950.1</ele>
        <time>2022-07-22T05:54:01.000Z</time>
      </trkpt>
      <trkpt lat="45.11441" lon="5.90372">
        <ele>1950</ele>
        <time>2022-07-22T05:54:11.000Z</time>
      </trkpt>
      <trkpt lat="45.11444" lon="5.9037">
        <ele>1949.7</ele>
        <time>2022-07-22T05:54:21.000Z</time>
      </trkpt>
      <trkpt lat="45.11453" lon="5.90374">
        <ele>1956</ele>
        <time>2022-07-22T05:53:58.000Z</time>
      </trkpt>
      <trkpt lat="45.11457" lon="5.90378">
        <ele>1950.7</ele>
        <time>2022-07-22T05:54:08.000Z</time>
      </trkpt>
      <trkpt lat="45.11476" lon="5.90389">
        <ele>1965</ele>
        <time>2022-07-22T05:54:23.000Z</time>
      </trkpt>
      <trkpt lat="45.11483" lon="5.90391">
        <ele>1953.7</ele>
        <time>2022-07-22T05:54:33.000Z</time>
      </trkpt>
      <trkpt lat="45.11487" lon="5.90399">
        <ele>1954.6</ele>
        <time>2022-07-22T05:54:43.000Z</time>
      </trkpt>
      <trkpt lat="45.11488" lon="5.90405">
        <ele>1954.9</ele>
        <time>2022-07-22T05:54:53.000Z</time>
      </trkpt>
      <trkpt lat="45.11496" lon="5.90412">
        <ele>1974</ele>
        <time>2022-07-22T05:54:44.000Z</time>
      </trkpt>
      <trkpt lat="45.11506" lon="5.90428">
        <ele>1957.8</ele>
        <time>2022-07-22T05:54:54.000Z</time>
      </trkpt>
      <trkpt lat="45.11511" lon="5.90429">
        <ele>1974</ele>
        <time>2022-07-22T05:55:02.000Z</time>
      </trkpt>
      <trkpt lat="45.11512" lon="5.90431">
        <ele>1959.2</ele>
        <time>2022-07-22T05:55:12.000Z</time>
      </trkpt>
      <trkpt lat="45.11515" lon="5.90434">
        <ele>1959.8</ele>
        <time>2022-07-22T05:55:22.000Z</time>
      </trkpt>
      <trkpt lat="45.11522" lon="5.90445">
        <ele>1960.7</ele>
        <time>2022-07-22T05:55:32.000Z</time>
      </trkpt>
      <trkpt lat="45.11525" lon="5.90448">
        <ele>1976</ele>
        <time>2022-07-22T05:55:25.000Z</time>
      </trkpt>
      <trkpt lat="45.11528" lon="5.90449">
        <ele>1961.9</ele>
        <time>2022-07-22T05:55:35.000Z</time>
      </trkpt>
      <trkpt lat="45.11534" lon="5.90447">
        <ele>1962.5</ele>
        <time>2022-07-22T05:55:45.000Z</time>
      </trkpt>
      <trkpt lat="45.11542" lon="5.9045">
        <ele>1964.4</ele>
        <time>2022-07-22T05:55:55.000Z</time>
      </trkpt>
      <trkpt lat="45.11552" lon="5.90452">
        <ele>1979</ele>
        <time>2022-07-22T05:55:52.000Z</time>
      </trkpt>
      <trkpt lat="45.11558" lon="5.90455">
        <ele>1967.6</ele>
        <time>2022-07-22T05:56:02.000Z</time>
      </trkpt>
      <trkpt lat="45.11562" lon="5.90455">
        <ele>1968.3</ele>
        <time>2022-07-22T05:56:12.000Z</time>
      </trkpt>
      <trkpt lat="45.11569" lon="5.90452">
        <ele>1969.2</ele>
        <time>2022-07-22T05:56:22.000Z</time>
      </trkpt>
      <trkpt lat="45.11574" lon="5.90453">
        <ele>1983</ele>
        <time>2022-07-22T05:56:16.000Z</time>
      </trkpt>
      <trkpt lat="45.11579" lon="5.90455">
        <ele>1971.4</ele>
        <time>2022-07-22T05:56:26.000Z</time>
      </trkpt>
      <trkpt lat="45.11587" lon="5.9046">
        <ele>1973.2</ele>
        <time>2022-07-22T05:56:36.000Z</time>
      </trkpt>
      <trkpt lat="45.11593" lon="5.90455">
        <ele>1983</ele>
        <time>2022-07-22T05:56:35.000Z</time>
      </trkpt>
      <trkpt lat="45.11596" lon="5.90455">
        <ele>1974</ele>
        <time>2022-07-22T05:56:45.000Z</time>
      </trkpt>
      <trkpt lat="45.11598" lon="5.90459">
        <ele>1974.7</ele>
        <time>2022-07-22T05:56:55.000Z</time>
      </trkpt>
      <trkpt lat="45.11603" lon="5.90456">
        <ele>1975.1</ele>
        <time>2022-07-22T05:57:05.000Z</time>
      </trkpt>
      <trkpt lat="45.11614" lon="5.90465">
        <ele>1982</ele>
        <time>2022-07-22T05:57:02.000Z</time>
      </trkpt>
      <trkpt lat="45.11618" lon="5.90465">
        <ele>1978.1</ele>
        <time>2022-07-22T05:57:12.000Z</time>
      </trkpt>
      <trkpt lat="45.11627" lon="5.9047">
        <ele>1980</ele>
        <time>2022-07-22T05:57:22.000Z</time>
      </trkpt>
      <trkpt lat="45.11633" lon="5.90479">
        <ele>1982</ele>
        <time>2022-07-22T05:57:27.000Z</time>
      </trkpt>
      <trkpt lat="45.11651" lon="5.90483">
        <ele>1987.1</ele>
        <time>2022-07-22T05:57:37.000Z</time>
      </trkpt>
      <trkpt lat="45.11654" lon="5.90487">
        <ele>1982</ele>
        <time>2022-07-22T05:57:53.000Z</time>
      </trkpt>
      <trkpt lat="45.1166" lon="5.90488">
        <ele>1989.7</ele>
        <time>2022-07-22T05:58:03.000Z</time>
      </trkpt>
      <trkpt lat="45.11668" lon="5.90488">
        <ele>1990.7</ele>
        <time>2022-07-22T05:58:13.000Z</time>
      </trkpt>
      <trkpt lat="45.11673" lon="5.90485">
        <ele>1982</ele>
        <time>2022-07-22T05:58:19.000Z</time>
      </trkpt>
      <trkpt lat="45.11683" lon="5.90488">
        <ele>1992.6</ele>
        <time>2022-07-22T05:58:29.000Z</time>
      </trkpt>
      <trkpt lat="45.11687" lon="5.90496">
        <ele>1995.1</ele>
        <time>2022-07-22T05:58:39.000Z</time>
      </trkpt>
      <trkpt lat="45.11692" lon="5.90499">
        <ele>1988</ele>
        <time>2022-07-22T05:58:41.000Z</time>
      </trkpt>
      <trkpt lat="45.11696" lon="5.90504">
        <ele>1998.6</ele>
        <time>2022-07-22T05:58:51.000Z</time>
      </trkpt>
      <trkpt lat="45.117" lon="5.90505">
        <ele>1998.7</ele>
        <time>2022-07-22T05:59:01.000Z</time>
      </trkpt>
      <trkpt lat="45.11711" lon="5.90515">
        <ele>1994</ele>
        <time>2022-07-22T05:59:17.000Z</time>
      </trkpt>
      <trkpt lat="45.11715" lon="5.90517">
        <ele>2002.4</ele>
        <time>2022-07-22T05:59:27.000Z</time>
      </trkpt>
      <trkpt lat="45.11717" lon="5.90519">
        <ele>2003</ele>
        <time>2022-07-22T05:59:37.000Z</time>
      </trkpt>
      <trkpt lat="45.11719" lon="5.90523">
        <ele>2004.4</ele>
        <time>2022-07-22T05:59:47.000Z</time>
      </trkpt>
      <trkpt lat="45.11723" lon="5.90527">
        <ele>2005.7</ele>
        <time>2022-07-22T05:59:57.000Z</time>
      </trkpt>
      <trkpt lat="45.11728" lon="5.90536">
        <ele>2003</ele>
        <time>2022-07-22T05:59:48.000Z</time>
      </trkpt>
      <trkpt lat="45.11732" lon="5.90538">
        <ele>2010.8</ele>
        <time>2022-07-22T05:59:58.000Z</time>
      </trkpt>
      <trkpt lat="45.11735" lon="5.90541">
        <ele>2012</ele>
        <time>2022-07-22T06:00:08.000Z</time>
      </trkpt>
      <trkpt lat="45.11737" lon="5.90545">
        <ele>2013.8</ele>
        <time>2022-07-22T06:00:18.000Z</time>
      </trkpt>
      <trkpt lat="45.11738" lon="5.90545">
        <ele>2013.7</ele>
        <time>2022-07-22T06:00:28.000Z</time>
      </trkpt>
      <trkpt lat="45.1174" lon="5.9055">
        <ele>2015.8</ele>
        <time>2022-07-22T06:00:38.000Z</time>
      </trkpt>
      <trkpt lat="45.11745" lon="5.90556">
        <ele>2014</ele>
        <time>2022-07-22T06:00:16.000Z</time>
      </trkpt>
      <trkpt lat="45.11749" lon="5.90563">
        <ele>2021.5</ele>
        <time>2022-07-22T06:00:26.000Z</time>
      </trkpt>
      <trkpt lat="45.11751" lon="5.90564">
        <ele>2021.9</ele>
        <time>2022-07-22T06:00:36.000Z</time>
      </trkpt>
      <trkpt lat="45.11755" lon="5.90563">
        <ele>2021.8</ele>
        <time>2022-07-22T06:00:46.000Z</time>
      </trkpt>
      <trkpt lat="45.11761" lon="5.90566">
        <ele>2023.6</ele>
        <time>2022-07-22T06:00:56.000Z</time>
      </trkpt>
      <trkpt lat="45.11764" lon="5.90566">
        <ele>2014</ele>
        <time>2022-07-22T06:01:01.000Z</time>
      </trkpt>
      <trkpt lat="45.11765" lon="5.90575">
        <ele>2026.9</ele>
        <time>2022-07-22T06:01:11.000Z</time>
      </trkpt>
      <trkpt lat="45.11768" lon="5.90577">
        <ele>2027.2</ele>
        <time>2022-07-22T06:01:21.000Z</time>
      </trkpt>
      <trkpt lat="45.1177" lon="5.90577">
        <ele>2027</ele>
        <time>2022-07-22T06:01:31.000Z</time>
      </trkpt>
      <trkpt lat="45.11775" lon="5.90575">
        <ele>2026</ele>
        <time>2022-07-22T06:01:41.000Z</time>
      </trkpt>
      <trkpt lat="45.11777" lon="5.90577">
        <ele>2029</ele>
        <time>2022-07-22T06:01:34.000Z</time>
      </trkpt>
      <trkpt lat="45.11783" lon="5.90579">
        <ele>2027.5</ele>
        <time>2022-07-22T06:01:44.000Z</time>
      </trkpt>
      <trkpt lat="45.11785" lon="5.90585">
        <ele>2028.2</ele>
        <time>2022-07-22T06:01:54.000Z</time>
      </trkpt>
      <trkpt lat="45.11792" lon="5.90595">
        <ele>2029</ele>
        <time>2022-07-22T06:03:03.000Z</time>
      </trkpt>
      <trkpt lat="45.11797" lon="5.90604">
        <ele>2027.1</ele>
        <time>2022-07-22T06:03:13.000Z</time>
      </trkpt>
      <trkpt lat="45.11801" lon="5.90614">
        <ele>2025.4</ele>
        <time>2022-07-22T06:03:23.000Z</time>
      </trkpt>
      <trkpt lat="45.11804" lon="5.90616">
        <ele>2036</ele>
        <time>2022-07-22T06:03:21.000Z</time>
      </trkpt>
      <trkpt lat="45.11808" lon="5.90627">
        <ele>2023.7</ele>
        <time>2022-07-22T06:03:31.000Z</time>
      </trkpt>
      <trkpt lat="45.11814" lon="5.90634">
        <ele>2023.8</ele>
        <time>2022-07-22T06:03:41.000Z</time>
      </trkpt>
      <trkpt lat="45.11822" lon="5.90645">
        <ele>2044</ele>
        <time>2022-07-22T06:03:54.000Z</time>
      </trkpt>
      <trkpt lat="45.11828" lon="5.90646">
        <ele>2023.2</ele>
        <time>2022-07-22T06:04:04.000Z</time>
      </trkpt>
      <trkpt lat="45.11833" lon="5.9065">
        <ele>2022.9</ele>
        <time>2022-07-22T06:04:14.000Z</time>
      </trkpt>
      <trkpt lat="45.11843" lon="5.90654">
        <ele>2044</ele>
        <time>2022-07-22T06:04:22.000Z</time>
      </trkpt>
      <trkpt lat="45.1185" lon="5.90658">
        <ele>2024.5</ele>
        <time>2022-07-22T06:04:32.000Z</time>
      </trkpt>
      <trkpt lat="45.11854" lon="5.90658">
        <ele>2025.5</ele>
        <time>2022-07-22T06:04:42.000Z</time>
      </trkpt>
      <trkpt lat="45.11866" lon="5.90669">
        <ele>2042</ele>
        <time>2022-07-22T06:04:43.000Z</time>
      </trkpt>
      <trkpt lat="45.11869" lon="5.90675">
        <ele>2025.2</ele>
        <time>2022-07-22T06:04:53.000Z</time>
      </trkpt>
      <trkpt lat="45.11869" lon="5.90681">
        <ele>2024.5</ele>
        <time>2022-07-22T06:05:03.000Z</time>
      </trkpt>
      <trkpt lat="45.1187" lon="5.90685">
        <ele>2024.4</ele>
        <time>2022-07-22T06:05:13.000Z</time>
      </trkpt>
      <trkpt lat="45.11871" lon="5.90693">
        <ele>2023.7</ele>
        <time>2022-07-22T06:05:23.000Z</time>
      </trkpt>
      <trkpt lat="45.11875" lon="5.907">
        <ele>2040</ele>
        <time>2022-07-22T06:05:03.000Z</time>
      </trkpt>
      <trkpt lat="45.11884" lon="5.90706">
        <ele>2025.3</ele>
        <time>2022-07-22T06:05:13.000Z</time>
      </trkpt>
      <trkpt lat="45.11887" lon="5.90711">
        <ele>2025.6</ele>
        <time>2022-07-22T06:05:23.000Z</time>
      </trkpt>
      <trkpt lat="45.11904" lon="5.90726">
        <ele>2045</ele>
        <time>2022-07-22T06:05:46.000Z</time>
      </trkpt>
      <trkpt lat="45.11911" lon="5.90731">
        <ele>2031.3</ele>
        <time>2022-07-22T06:05:56.000Z</time>
      </trkpt>
      <trkpt lat="45.11914" lon="5.90731">
        <ele>2032.2</ele>
        <time>2022-07-22T06:06:06.000Z</time>
      </trkpt>
      <trkpt lat="45.11917" lon="5.90735">
        <ele>2032.8</ele>
        <time>2022-07-22T06:06:16.000Z</time>
      </trkpt>
      <trkpt lat="45.11921" lon="5.90738">
        <ele>2045</ele>
        <time>2022-07-22T06:06:07.000Z</time>
      </trkpt>
      <trkpt lat="45.11923" lon="5.90741">
        <ele>2034.8</ele>
        <time>2022-07-22T06:06:17.000Z</time>
      </trkpt>
      <trkpt lat="45.11924" lon="5.90747">
        <ele>2034.5</ele>
        <time>2022-07-22T06:06:27.000Z</time>
      </trkpt>
      <trkpt lat="45.11935" lon="5.90756">
        <ele>2045</ele>
        <time>2022-07-22T06:06:19.000Z</time>
      </trkpt>
      <trkpt lat="45.11939" lon="5.90762">
        <ele>2036.9</ele>
        <time>2022-07-22T06:06:29.000Z</time>
      </trkpt>
      <trkpt lat="45.11942" lon="5.90764">
        <ele>2037.5</ele>
        <time>2022-07-22T06:06:39.000Z</time>
      </trkpt>
      <trkpt lat="45.11946" lon="5.90768">
        <ele>2038.3</ele>
        <time>2022-07-22T06:06:49.000Z</time>
      </trkpt>
      <trkpt lat="45.11948" lon="5.90771">
        <ele>2038.8</ele>
        <time>2022-07-22T06:06:59.000Z</time>
      </trkpt>
      <trkpt lat="45.11949" lon="5.90777">
        <ele>2055</ele>
        <time>2022-07-22T06:06:49.000Z</time>
      </trkpt>
      <trkpt lat="45.11954" lon="5.9078">
        <ele>2040.5</ele>
        <time>2022-07-22T06:06:59.000Z</time>
      </trkpt>
      <trkpt lat="45.11961" lon="5.90792">
        <ele>2043.7</ele>
        <time>2022-07-22T06:07:09.000Z</time>
      </trkpt>
      <trkpt lat="45.11961" lon="5.90797">
        <ele>2055</ele>
        <time>2022-07-22T06:07:18.000Z</time>
      </trkpt>
      <trkpt lat="45.11962" lon="5.90803">
        <ele>2042.7</ele>
        <time>2022-07-22T06:07:28.000Z</time>
      </trkpt>
      <trkpt lat="45.11962" lon="5.90806">
        <ele>2042.2</ele>
        <time>2022-07-22T06:07:38.000Z</time>
      </trkpt>
      <trkpt lat="45.11964" lon="5.90812">
        <ele>2043.1</ele>
        <time>2022-07-22T06:07:48.000Z</time>
      </trkpt>
      <trkpt lat="45.11963" lon="5.90813">
        <ele>2042.2</ele>
        <time>2022-07-22T06:07:58.000Z</time>
      </trkpt>
      <trkpt lat="45.11964" lon="5.90814">
        <ele>2042.8</ele>
        <time>2022-07-22T06:08:08.000Z</time>
      </trkpt>
      <trkpt lat="45.11963" lon="5.9082">
        <ele>2041.5</ele>
        <time>2022-07-22T06:08:18.000Z</time>
      </trkpt>
      <trkpt lat="45.11964" lon="5.90825">
        <ele>2056</ele>
        <time>2022-07-22T06:07:41.000Z</time>
      </trkpt>
      <trkpt lat="45.11969" lon="5.90831">
        <ele>2044.2</ele>
        <time>2022-07-22T06:07:51.000Z</time>
      </trkpt>
      <trkpt lat="45.11975" lon="5.90835">
        <ele>2047.3</ele>
        <time>2022-07-22T06:08:01.000Z</time>
      </trkpt>
      <trkpt lat="45.11978" lon="5.90841">
        <ele>2048.5</ele>
        <time>2022-07-22T06:08:11.000Z</time>
      </trkpt>
      <trkpt lat="45.11985" lon="5.90844">
        <ele>2056</ele>
        <time>2022-07-22T06:08:18.000Z</time>
      </trkpt>
      <trkpt lat="45.11988" lon="5.90847">
        <ele>2053.9</ele>
        <time>2022-07-22T06:08:28.000Z</time>
      </trkpt>
      <trkpt lat="45.11993" lon="5.90854">
        <ele>2056.7</ele>
        <time>2022-07-22T06:08:38.000Z</time>
      </trkpt>
      <trkpt lat="45.11994" lon="5.90853">
        <ele>2057.3</ele>
        <time>2022-07-22T06:08:48.000Z</time>
      </trkpt>
      <trkpt lat="45.11994" lon="5.90851">
        <ele>2057.3</ele>
        <time>2022-07-22T06:08:58.000Z</time>
      </trkpt>
      <trkpt lat="45.11997" lon="5.90849">
        <ele>2059.2</ele>
        <time>2022-07-22T06:09:08.000Z</time>
      </trkpt>
      <trkpt lat="45.11998" lon="5.90849">
        <ele>2059.8</ele>
        <time>2022-07-22T06:09:18.000Z</time>
      </trkpt>
      <trkpt lat="45.12" lon="5.90846">
        <ele>2076</ele>
        <time>2022-07-22T06:09:02.000Z</time>
      </trkpt>
      <trkpt lat="45.12004" lon="5.90842">
        <ele>2062.3</ele>
        <time>2022-07-22T06:09:12.000Z</time>
      </trkpt>
      <trkpt lat="45.12009" lon="5.90841">
        <ele>2064</ele>
        <time>2022-07-22T06:09:22.000Z</time>
      </trkpt>
      <trkpt lat="45.12013" lon="5.90839">
        <ele>2065.4</ele>
        <time>2022-07-22T06:09:32.000Z</time>
      </trkpt>
      <trkpt lat="45.12016" lon="5.90836">
        <ele>2066.6</ele>
        <time>2022-07-22T06:09:42.000Z</time>
      </trkpt>
      <trkpt lat="45.12017" lon="5.90834">
        <ele>2076</ele>
        <time>2022-07-22T06:09:29.000Z</time>
      </trkpt>
      <trkpt lat="45.1202" lon="5.90835">
        <ele>2068.1</ele>
        <time>2022-07-22T06:09:39.000Z</time>
      </trkpt>
      <trkpt lat="45.12026" lon="5.90852">
        <ele>2068.5</ele>
        <time>2022-07-22T06:09:49.000Z</time>
      </trkpt>
      <trkpt lat="45.12029" lon="5.90857">
        <ele>2076</ele>
        <time>2022-07-22T06:09:42.000Z</time>
      </trkpt>
      <trkpt lat="45.12035" lon="5.90858">
        <ele>2067.9</ele>
        <time>2022-07-22T06:09:52.000Z</time>
      </trkpt>
      <trkpt lat="45.12045" lon="5.90861">
        <ele>2066.8</ele>
        <time>2022-07-22T06:10:02.000Z</time>
      </trkpt>
      <trkpt lat="45.12052" lon="5.90861">
        <ele>2080</ele>
        <time>2022-07-22T06:10:01.000Z</time>
      </trkpt>
      <trkpt lat="45.12064" lon="5.90868">
        <ele>2065.5</ele>
        <time>2022-07-22T06:10:11.000Z</time>
      </trkpt>
      <trkpt lat="45.12066" lon="5.90872">
        <ele>2065.1</ele>
        <time>2022-07-22T06:10:21.000Z</time>
      </trkpt>
      <trkpt lat="45.12075" lon="5.90876">
        <ele>2078</ele>
        <time>2022-07-22T06:10:27.000Z</time>
      </trkpt>
      <trkpt lat="45.12081" lon="5.90883">
        <ele>2065.3</ele>
        <time>2022-07-22T06:10:37.000Z</time>
      </trkpt>
      <trkpt lat="45.12086" lon="5.90891">
        <ele>2065.1</ele>
        <time>2022-07-22T06:10:47.000Z</time>
      </trkpt>
      <trkpt lat="45.12089" lon="5.90902">
        <ele>2078</ele>
        <time>2022-07-22T06:10:43.000Z</time>
      </trkpt>
      <trkpt lat="45.1209" lon="5.90903">
        <ele>2063.5</ele>
        <time>2022-07-22T06:10:53.000Z</time>
      </trkpt>
      <trkpt lat="45.12091" lon="5.90906">
        <ele>2063.1</ele>
        <time>2022-07-22T06:11:03.000Z</time>
      </trkpt>
      <trkpt lat="45.12098" lon="5.90916">
        <ele>2062.2</ele>
        <time>2022-07-22T06:11:13.000Z</time>
      </trkpt>
      <trkpt lat="45.12104" lon="5.9092">
        <ele>2077</ele>
        <time>2022-07-22T06:11:00.000Z</time>
      </trkpt>
      <trkpt lat="45.12107" lon="5.90926">
        <ele>2061.3</ele>
        <time>2022-07-22T06:11:10.000Z</time>
      </trkpt>
      <trkpt lat="45.12112" lon="5.90932">
        <ele>2060.6</ele>
        <time>2022-07-22T06:11:20.000Z</time>
      </trkpt>
      <trkpt lat="45.12116" lon="5.90938">
        <ele>2059.4</ele>
        <time>2022-07-22T06:11:30.000Z</time>
      </trkpt>
      <trkpt lat="45.12115" lon="5.9094">
        <ele>2078</ele>
        <time>2022-07-22T06:11:28.000Z</time>
      </trkpt>
      <trkpt lat="45.12116" lon="5.90941">
        <ele>2058.8</ele>
        <time>2022-07-22T06:11:38.000Z</time>
      </trkpt>
      <trkpt lat="45.12119" lon="5.90943">
        <ele>2058.5</ele>
        <time>2022-07-22T06:11:48.000Z</time>
      </trkpt>
      <trkpt lat="45.12135" lon="5.90941">
        <ele>2078</ele>
        <time>2022-07-22T06:11:45.000Z</time>
      </trkpt>
      <trkpt lat="45.12139" lon="5.90944">
        <ele>2059</ele>
        <time>2022-07-22T06:11:55.000Z</time>
      </trkpt>
      <trkpt lat="45.1214" lon="5.90949">
        <ele>2058.9</ele>
        <time>2022-07-22T06:12:05.000Z</time>
      </trkpt>
      <trkpt lat="45.12147" lon="5.90953">
        <ele>2059.1</ele>
        <time>2022-07-22T06:12:15.000Z</time>
      </trkpt>
      <trkpt lat="45.1216" lon="5.9097">
        <ele>2078</ele>
        <time>2022-07-22T06:12:15.000Z</time>
      </trkpt>
      <trkpt lat="45.12165" lon="5.90974">
        <ele>2063</ele>
        <time>2022-07-22T06:12:25.000Z</time>
      </trkpt>
      <trkpt lat="45.12168" lon="5.90972">
        <ele>2063.2</ele>
        <time>2022-07-22T06:12:35.000Z</time>
      </trkpt>
      <trkpt lat="45.1217" lon="5.90973">
        <ele>2063.7</ele>
        <time>2022-07-22T06:12:45.000Z</time>
      </trkpt>
      <trkpt lat="45.1217" lon="5.90974">
        <ele>2063.9</ele>
        <time>2022-07-22T06:12:55.000Z</time>
      </trkpt>
      <trkpt lat="45.12173" lon="5.90973">
        <ele>2064.3</ele>
        <time>2022-07-22T06:13:05.000Z</time>
      </trkpt>
      <trkpt lat="45.12176" lon="5.90974">
        <ele>2064.9</ele>
        <time>2022-07-22T06:13:15.000Z</time>
      </trkpt>
      <trkpt lat="45.12179" lon="5.90972">
        <ele>2081</ele>
        <time>2022-07-22T06:12:43.000Z</time>
      </trkpt>
      <trkpt lat="45.12185" lon="5.90975">
        <ele>2066.6</ele>
        <time>2022-07-22T06:12:53.000Z</time>
      </trkpt>
      <trkpt lat="45.1219" lon="5.90975">
        <ele>2067.4</ele>
        <time>2022-07-22T06:13:03.000Z</time>
      </trkpt>
      <trkpt lat="45.12191" lon="5.90974">
        <ele>2067.5</ele>
        <time>2022-07-22T06:13:13.000Z</time>
      </trkpt>
      <trkpt lat="45.12196" lon="5.90975">
        <ele>2068.4</ele>
        <time>2022-07-22T06:13:23.000Z</time>
      </trkpt>
      <trkpt lat="45.12203" lon="5.90975">
        <ele>2085</ele>
        <time>2022-07-22T06:13:12.000Z</time>
      </trkpt>
      <trkpt lat="45.12212" lon="5.90981">
        <ele>2070.5</ele>
        <time>2022-07-22T06:13:22.000Z</time>
      </trkpt>
      <trkpt lat="45.12216" lon="5.90989">
        <ele>2071.5</ele>
        <time>2022-07-22T06:13:32.000Z</time>
      </trkpt>
      <trkpt lat="45.12216" lon="5.90991">
        <ele>2071.7</ele>
        <time>2022-07-22T06:13:42.000Z</time>
      </trkpt>
      <trkpt lat="45.12219" lon="5.90994">
        <ele>2089</ele>
        <time>2022-07-22T06:13:31.000Z</time>
      </trkpt>
      <trkpt lat="45.12237" lon="5.91">
        <ele>2072.5</ele>
        <time>2022-07-22T06:13:41.000Z</time>
      </trkpt>
      <trkpt lat="45.12257" lon="5.91004">
        <ele>2088</ele>
        <time>2022-07-22T06:14:03.000Z</time>
      </trkpt>
      <trkpt lat="45.12273" lon="5.91015">
        <ele>2071.2</ele>
        <time>2022-07-22T06:14:13.000Z</time>
      </trkpt>
      <trkpt lat="45.12282" lon="5.91024">
        <ele>2087</ele>
        <time>2022-07-22T06:14:23.000Z</time>
      </trkpt>
      <trkpt lat="45.12288" lon="5.91033">
        <ele>2073</ele>
        <time>2022-07-22T06:14:33.000Z</time>
      </trkpt>
      <trkpt lat="45.12289" lon="5.91033">
        <ele>2073.1</ele>
        <time>2022-07-22T06:14:43.000Z</time>
      </trkpt>
      <trkpt lat="45.12306" lon="5.91043">
        <ele>2087</ele>
        <time>2022-07-22T06:14:42.000Z</time>
      </trkpt>
      <trkpt lat="45.12319" lon="5.91049">
        <ele>2077.3</ele>
        <time>2022-07-22T06:14:52.000Z</time>
      </trkpt>
      <trkpt lat="45.12326" lon="5.91046">
        <ele>2088</ele>
        <time>2022-07-22T06:15:00.000Z</time>
      </trkpt>
      <trkpt lat="45.12338" lon="5.91047">
        <ele>2079.3</ele>
        <time>2022-07-22T06:15:10.000Z</time>
      </trkpt>
      <trkpt lat="45.12358" lon="5.91038">
        <ele>2087</ele>
        <time>2022-07-22T06:15:26.000Z</time>
      </trkpt>
      <trkpt lat="45.12371" lon="5.91036">
        <ele>2079.8</ele>
        <time>2022-07-22T06:15:36.000Z</time>
      </trkpt>
      <trkpt lat="45.12382" lon="5.91027">
        <ele>2086</ele>
        <time>2022-07-22T06:15:46.000Z</time>
      </trkpt>
      <trkpt lat="45.12387" lon="5.91017">
        <ele>2079</ele>
        <time>2022-07-22T06:15:56.000Z</time>
      </trkpt>
      <trkpt lat="45.12391" lon="5.91001">
        <ele>2087</ele>
        <time>2022-07-22T06:16:03.000Z</time>
      </trkpt>
      <trkpt lat="45.12391" lon="5.90997">
        <ele>2079.1</ele>
        <time>2022-07-22T06:16:13.000Z</time>
      </trkpt>
      <trkpt lat="45.12396" lon="5.90987">
        <ele>2082</ele>
        <time>2022-07-22T06:16:23.000Z</time>
      </trkpt>
      <trkpt lat="45.12403" lon="5.90977">
        <ele>2088</ele>
        <time>2022-07-22T06:16:36.000Z</time>
      </trkpt>
      <trkpt lat="45.12404" lon="5.90967">
        <ele>2087.4</ele>
        <time>2022-07-22T06:16:46.000Z</time>
      </trkpt>
      <trkpt lat="45.12406" lon="5.90964">
        <ele>2088.7</ele>
        <time>2022-07-22T06:16:56.000Z</time>
      </trkpt>
      <trkpt lat="45.12405" lon="5.90959">
        <ele>2089.3</ele>
        <time>2022-07-22T06:17:06.000Z</time>
      </trkpt>
      <trkpt lat="45.12403" lon="5.90955">
        <ele>2089.2</ele>
        <time>2022-07-22T06:17:16.000Z</time>
      </trkpt>
      <trkpt lat="45.12403" lon="5.90951">
        <ele>2091</ele>
        <time>2022-07-22T06:17:06.000Z</time>
      </trkpt>
      <trkpt lat="45.12407" lon="5.90947">
        <ele>2092.3</ele>
        <time>2022-07-22T06:17:16.000Z</time>
      </trkpt>
      <trkpt lat="45.12409" lon="5.90943">
        <ele>2093.8</ele>
        <time>2022-07-22T06:17:26.000Z</time>
      </trkpt>
      <trkpt lat="45.12408" lon="5.9094">
        <ele>2093.7</ele>
        <time>2022-07-22T06:17:36.000Z</time>
      </trkpt>
      <trkpt lat="45.12408" lon="5.90938">
        <ele>2093.9</ele>
        <time>2022-07-22T06:17:46.000Z</time>
      </trkpt>
      <trkpt lat="45.12413" lon="5.90931">
        <ele>2101</ele>
        <time>2022-07-22T06:17:56.000Z</time>
      </trkpt>
      <trkpt lat="45.12413" lon="5.90917">
        <ele>2098.2</ele>
        <time>2022-07-22T06:18:06.000Z</time>
      </trkpt>
      <trkpt lat="45.12416" lon="5.90914">
        <ele>2099.5</ele>
        <time>2022-07-22T06:18:16.000Z</time>
      </trkpt>
      <trkpt lat="45.12417" lon="5.90912">
        <ele>2099.9</ele>
        <time>2022-07-22T06:18:26.000Z</time>
      </trkpt>
      <trkpt lat="45.12416" lon="5.9091">
        <ele>2099.2</ele>
        <time>2022-07-22T06:18:36.000Z</time>
      </trkpt>
      <trkpt lat="45.12419" lon="5.90905">
        <ele>2110</ele>
        <time>2022-07-22T06:18:26.000Z</time>
      </trkpt>
      <trkpt lat="45.12427" lon="5.90906">
        <ele>2105</ele>
        <time>2022-07-22T06:18:36.000Z</time>
      </trkpt>
      <trkpt lat="45.12429" lon="5.909">
        <ele>2105.6</ele>
        <time>2022-07-22T06:18:46.000Z</time>
      </trkpt>
      <trkpt lat="45.12442" lon="5.90891">
        <ele>2117</ele>
        <time>2022-07-22T06:18:50.000Z</time>
      </trkpt>
      <trkpt lat="45.12445" lon="5.90896">
        <ele>2114.1</ele>
        <time>2022-07-22T06:19:00.000Z</time>
      </trkpt>
      <trkpt lat="45.12449" lon="5.90898">
        <ele>2116.7</ele>
        <time>2022-07-22T06:19:10.000Z</time>
      </trkpt>
      <trkpt lat="45.12451" lon="5.90904">
        <ele>2118.4</ele>
        <time>2022-07-22T06:19:20.000Z</time>
      </trkpt>
      <trkpt lat="45.12451" lon="5.90909">
        <ele>2118.8</ele>
        <time>2022-07-22T06:19:30.000Z</time>
      </trkpt>
      <trkpt lat="45.12448" lon="5.90916">
        <ele>2117</ele>
        <time>2022-07-22T06:19:24.000Z</time>
      </trkpt>
      <trkpt lat="45.1245" lon="5.90924">
        <ele>2118.7</ele>
        <time>2022-07-22T06:19:34.000Z</time>
      </trkpt>
      <trkpt lat="45.12454" lon="5.90925">
        <ele>2120.9</ele>
        <time>2022-07-22T06:19:44.000Z</time>
      </trkpt>
      <trkpt lat="45.12456" lon="5.90927">
        <ele>2121.9</ele>
        <time>2022-07-22T06:19:54.000Z</time>
      </trkpt>
      <trkpt lat="45.12464" lon="5.90946">
        <ele>2124</ele>
        <time>2022-07-22T06:19:54.000Z</time>
      </trkpt>
      <trkpt lat="45.12469" lon="5.90949">
        <ele>2127.6</ele>
        <time>2022-07-22T06:20:04.000Z</time>
      </trkpt>
      <trkpt lat="45.1247" lon="5.90949">
        <ele>2128.1</ele>
        <time>2022-07-22T06:20:14.000Z</time>
      </trkpt>
      <trkpt lat="45.12469" lon="5.90929">
        <ele>2131</ele>
        <time>2022-07-22T06:20:17.000Z</time>
      </trkpt>
      <trkpt lat="45.12472" lon="5.90921">
        <ele>2130.7</ele>
        <time>2022-07-22T06:20:27.000Z</time>
      </trkpt>
      <trkpt lat="45.12476" lon="5.90917">
        <ele>2132.8</ele>
        <time>2022-07-22T06:20:37.000Z</time>
      </trkpt>
      <trkpt lat="45.1248" lon="5.9092">
        <ele>2134.5</ele>
        <time>2022-07-22T06:20:47.000Z</time>
      </trkpt>
      <trkpt lat="45.12482" lon="5.9092">
        <ele>2135.4</ele>
        <time>2022-07-22T06:20:57.000Z</time>
      </trkpt>
      <trkpt lat="45.12484" lon="5.90923">
        <ele>2131</ele>
        <time>2022-07-22T06:20:37.000Z</time>
      </trkpt>
      <trkpt lat="45.12487" lon="5.90933">
        <ele>2137</ele>
        <time>2022-07-22T06:20:47.000Z</time>
      </trkpt>
      <trkpt lat="45.12498" lon="5.9096">
        <ele>2145</ele>
        <time>2022-07-22T06:21:08.000Z</time>
      </trkpt>
      <trkpt lat="45.12505" lon="5.90966">
        <ele>2143</ele>
        <time>2022-07-22T06:21:18.000Z</time>
      </trkpt>
      <trkpt lat="45.12514" lon="5.90987">
        <ele>2145</ele>
        <time>2022-07-22T06:21:29.000Z</time>
      </trkpt>
      <trkpt lat="45.12517" lon="5.90992">
        <ele>2146.5</ele>
        <time>2022-07-22T06:21:39.000Z</time>
      </trkpt>
      <trkpt lat="45.12519" lon="5.91002">
        <ele>2147</ele>
        <time>2022-07-22T06:21:49.000Z</time>
      </trkpt>
      <trkpt lat="45.12524" lon="5.91017">
        <ele>2159</ele>
        <time>2022-07-22T06:21:47.000Z</time>
      </trkpt>
      <trkpt lat="45.12525" lon="5.91025">
        <ele>2150.8</ele>
        <time>2022-07-22T06:21:57.000Z</time>
      </trkpt>
      <trkpt lat="45.12525" lon="5.91034">
        <ele>2152.2</ele>
        <time>2022-07-22T06:22:07.000Z</time>
      </trkpt>
      <trkpt lat="45.12523" lon="5.9105">
        <ele>2156</ele>
        <time>2022-07-22T06:22:17.000Z</time>
      </trkpt>
      <trkpt lat="45.12518" lon="5.91062">
        <ele>2153.9</ele>
        <time>2022-07-22T06:22:27.000Z</time>
      </trkpt>
      <trkpt lat="45.12516" lon="5.91076">
        <ele>2158</ele>
        <time>2022-07-22T06:22:27.000Z</time>
      </trkpt>
      <trkpt lat="45.12517" lon="5.9109">
        <ele>2157.9</ele>
        <time>2022-07-22T06:22:37.000Z</time>
      </trkpt>
      <trkpt lat="45.12512" lon="5.91106">
        <ele>2161</ele>
        <time>2022-07-22T06:22:46.000Z</time>
      </trkpt>
      <trkpt lat="45.12509" lon="5.91133">
        <ele>2171</ele>
        <time>2022-07-22T06:23:15.000Z</time>
      </trkpt>
      <trkpt lat="45.12509" lon="5.91138">
        <ele>2158.8</ele>
        <time>2022-07-22T06:23:25.000Z</time>
      </trkpt>
      <trkpt lat="45.1251" lon="5.91143">
        <ele>2160.1</ele>
        <time>2022-07-22T06:23:35.000Z</time>
      </trkpt>
      <trkpt lat="45.12507" lon="5.91173">
        <ele>2170</ele>
        <time>2022-07-22T06:23:40.000Z</time>
      </trkpt>
      <trkpt lat="45.12501" lon="5.91192">
        <ele>2162.2</ele>
        <time>2022-07-22T06:23:50.000Z</time>
      </trkpt>
      <trkpt lat="45.12511" lon="5.91208">
        <ele>2170</ele>
        <time>2022-07-22T06:25:11.000Z</time>
      </trkpt>
      <trkpt lat="45.12531" lon="5.9123">
        <ele>2168</ele>
        <time>2022-07-22T06:25:30.000Z</time>
      </trkpt>
      <trkpt lat="45.12533" lon="5.91233">
        <ele>2157.9</ele>
        <time>2022-07-22T06:25:40.000Z</time>
      </trkpt>
      <trkpt lat="45.12537" lon="5.91236">
        <ele>2158.2</ele>
        <time>2022-07-22T06:25:50.000Z</time>
      </trkpt>
      <trkpt lat="45.12544" lon="5.91244">
        <ele>2157.5</ele>
        <time>2022-07-22T06:26:00.000Z</time>
      </trkpt>
      <trkpt lat="45.12563" lon="5.91276">
        <ele>2168</ele>
        <time>2022-07-22T06:26:02.000Z</time>
      </trkpt>
      <trkpt lat="45.12565" lon="5.91282">
        <ele>2149.7</ele>
        <time>2022-07-22T06:26:12.000Z</time>
      </trkpt>
      <trkpt lat="45.12569" lon="5.91286">
        <ele>2149.6</ele>
        <time>2022-07-22T06:26:22.000Z</time>
      </trkpt>
      <trkpt lat="45.12578" lon="5.913">
        <ele>2168</ele>
        <time>2022-07-22T06:26:17.000Z</time>
      </trkpt>
      <trkpt lat="45.12585" lon="5.91313">
        <ele>2145.3</ele>
        <time>2022-07-22T06:26:27.000Z</time>
      </trkpt>
      <trkpt lat="45.12591" lon="5.91333">
        <ele>2155</ele>
        <time>2022-07-22T06:26:38.000Z</time>
      </trkpt>
      <trkpt lat="45.12592" lon="5.91341">
        <ele>2138.5</ele>
        <time>2022-07-22T06:26:48.000Z</time>
      </trkpt>
      <trkpt lat="45.12595" lon="5.91348">
        <ele>2137.2</ele>
        <time>2022-07-22T06:26:58.000Z</time>
      </trkpt>
      <trkpt lat="45.12596" lon="5.91356">
        <ele>2134.8</ele>
        <time>2022-07-22T06:27:08.000Z</time>
      </trkpt>
      <trkpt lat="45.12598" lon="5.91361">
        <ele>2151</ele>
        <time>2022-07-22T06:26:52.000Z</time>
      </trkpt>
      <trkpt lat="45.12598" lon="5.91364">
        <ele>2133</ele>
        <time>2022-07-22T06:27:02.000Z</time>
      </trkpt>
      <trkpt lat="45.12599" lon="5.91368">
        <ele>2132.2</ele>
        <time>2022-07-22T06:27:12.000Z</time>
      </trkpt>
      <trkpt lat="45.12613" lon="5.91389">
        <ele>2154</ele>
        <time>2022-07-22T06:27:09.000Z</time>
      </trkpt>
      <trkpt lat="45.12617" lon="5.91388">
        <ele>2132.7</ele>
        <time>2022-07-22T06:27:19.000Z</time>
      </trkpt>
      <trkpt lat="45.12625" lon="5.91398">
        <ele>2132.4</ele>
        <time>2022-07-22T06:27:29.000Z</time>
      </trkpt>
      <trkpt lat="45.12632" lon="5.91404">
        <ele>2153</ele>
        <time>2022-07-22T06:27:28.000Z</time>
      </trkpt>
      <trkpt lat="45.12638" lon="5.91416">
        <ele>2131</ele>
        <time>2022-07-22T06:27:38.000Z</time>
      </trkpt>
      <trkpt lat="45.12643" lon="5.91421">
        <ele>2131.4</ele>
        <time>2022-07-22T06:27:48.000Z</time>
      </trkpt>
      <trkpt lat="45.12644" lon="5.91431">
        <ele>2152</ele>
        <time>2022-07-22T06:27:47.000Z</time>
      </trkpt>
      <trkpt lat="45.12652" lon="5.91448">
        <ele>2128.1</ele>
        <time>2022-07-22T06:27:57.000Z</time>
      </trkpt>
      <trkpt lat="45.1267" lon="5.91498">
        <ele>2143</ele>
        <time>2022-07-22T06:28:26.000Z</time>
      </trkpt>
      <trkpt lat="45.12673" lon="5.9152">
        <ele>2129.3</ele>
        <time>2022-07-22T06:28:36.000Z</time>
      </trkpt>
      <trkpt lat="45.12674" lon="5.91531">
        <ele>2140</ele>
        <time>2022-07-22T06:28:43.000Z</time>
      </trkpt>
      <trkpt lat="45.12681" lon="5.91552">
        <ele>2131</ele>
        <time>2022-07-22T06:28:53.000Z</time>
      </trkpt>
      <trkpt lat="45.12681" lon="5.91564">
        <ele>2133</ele>
        <time>2022-07-22T06:29:01.000Z</time>
      </trkpt>
      <trkpt lat="45.12684" lon="5.91568">
        <ele>2132</ele>
        <time>2022-07-22T06:29:11.000Z</time>
      </trkpt>
      <trkpt lat="45.12684" lon="5.91582">
        <ele>2131.6</ele>
        <time>2022-07-22T06:29:21.000Z</time>
      </trkpt>
      <trkpt lat="45.12685" lon="5.91589">
        <ele>2135</ele>
        <time>2022-07-22T06:29:51.000Z</time>
      </trkpt>
      <trkpt lat="45.12687" lon="5.91593">
        <ele>2132</ele>
        <time>2022-07-22T06:30:01.000Z</time>
      </trkpt>
      <trkpt lat="45.12689" lon="5.91608">
        <ele>2130.8</ele>
        <time>2022-07-22T06:30:11.000Z</time>
      </trkpt>
      <trkpt lat="45.12694" lon="5.91621">
        <ele>2135</ele>
        <time>2022-07-22T06:29:44.000Z</time>
      </trkpt>
      <trkpt lat="45.12698" lon="5.91625">
        <ele>2130</ele>
        <time>2022-07-22T06:29:54.000Z</time>
      </trkpt>
      <trkpt lat="45.12699" lon="5.91628">
        <ele>2129.5</ele>
        <time>2022-07-22T06:30:04.000Z</time>
      </trkpt>
      <trkpt lat="45.12699" lon="5.91638">
        <ele>2126.4</ele>
        <time>2022-07-22T06:30:14.000Z</time>
      </trkpt>
      <trkpt lat="45.12705" lon="5.91651">
        <ele>2136</ele>
        <time>2022-07-22T06:30:15.000Z</time>
      </trkpt>
      <trkpt lat="45.12708" lon="5.91661">
        <ele>2123.6</ele>
        <time>2022-07-22T06:30:25.000Z</time>
      </trkpt>
      <trkpt lat="45.12709" lon="5.91663">
        <ele>2123.5</ele>
        <time>2022-07-22T06:30:35.000Z</time>
      </trkpt>
      <trkpt lat="45.12714" lon="5.91663">
        <ele>2126</ele>
        <time>2022-07-22T06:30:45.000Z</time>
      </trkpt>
      <trkpt lat="45.12718" lon="5.91674">
        <ele>2138</ele>
        <time>2022-07-22T06:30:47.000Z</time>
      </trkpt>
      <trkpt lat="45.12719" lon="5.91683">
        <ele>2123.1</ele>
        <time>2022-07-22T06:30:57.000Z</time>
      </trkpt>
      <trkpt lat="45.12719" lon="5.91691">
        <ele>2120.9</ele>
        <time>2022-07-22T06:31:07.000Z</time>
      </trkpt>
      <trkpt lat="45.12722" lon="5.91709">
        <ele>2135</ele>
        <time>2022-07-22T06:31:10.000Z</time>
      </trkpt>
      <trkpt lat="45.12724" lon="5.91712">
        <ele>2118.7</ele>
        <time>2022-07-22T06:31:20.000Z</time>
      </trkpt>
      <trkpt lat="45.12728" lon="5.91732">
        <ele>2115.6</ele>
        <time>2022-07-22T06:31:30.000Z</time>
      </trkpt>
      <trkpt lat="45.12728" lon="5.91739">
        <ele>2142</ele>
        <time>2022-07-22T06:31:29.000Z</time>
      </trkpt>
      <trkpt lat="45.12738" lon="5.91755">
        <ele>2114.2</ele>
        <time>2022-07-22T06:31:39.000Z</time>
      </trkpt>
      <trkpt lat="45.12742" lon="5.91759">
        <ele>2138</ele>
        <time>2022-07-22T06:31:46.000Z</time>
      </trkpt>
      <trkpt lat="45.12745" lon="5.9176">
        <ele>2116.2</ele>
        <time>2022-07-22T06:31:56.000Z</time>
      </trkpt>
      <trkpt lat="45.12752" lon="5.91774">
        <ele>2114.6</ele>
        <time>2022-07-22T06:32:06.000Z</time>
      </trkpt>
      <trkpt lat="45.12752" lon="5.91781">
        <ele>2134</ele>
        <time>2022-07-22T06:32:05.000Z</time>
      </trkpt>
      <trkpt lat="45.12754" lon="5.91787">
        <ele>2111.6</ele>
        <time>2022-07-22T06:32:15.000Z</time>
      </trkpt>
      <trkpt lat="45.12759" lon="5.91794">
        <ele>2112.1</ele>
        <time>2022-07-22T06:32:25.000Z</time>
      </trkpt>
      <trkpt lat="45.12765" lon="5.91807">
        <ele>2132</ele>
        <time>2022-07-22T06:32:21.000Z</time>
      </trkpt>
      <trkpt lat="45.12773" lon="5.9182">
        <ele>2110.1</ele>
        <time>2022-07-22T06:32:31.000Z</time>
      </trkpt>
      <trkpt lat="45.12774" lon="5.91823">
        <ele>2109.4</ele>
        <time>2022-07-22T06:32:41.000Z</time>
      </trkpt>
      <trkpt lat="45.12776" lon="5.91825">
        <ele>2109.5</ele>
        <time>2022-07-22T06:32:51.000Z</time>
      </trkpt>
      <trkpt lat="45.12777" lon="5.91828">
        <ele>2131</ele>
        <time>2022-07-22T06:32:40.000Z</time>
      </trkpt>
      <trkpt lat="45.12781" lon="5.91831">
        <ele>2109.1</ele>
        <time>2022-07-22T06:32:50.000Z</time>
      </trkpt>
      <trkpt lat="45.12783" lon="5.91836">
        <ele>2107.9</ele>
        <time>2022-07-22T06:33:00.000Z</time>
      </trkpt>
      <trkpt lat="45.12782" lon="5.91838">
        <ele>2106.7</ele>
        <time>2022-07-22T06:33:10.000Z</time>
      </trkpt>
      <trkpt lat="45.12784" lon="5.91841">
        <ele>2106.4</ele>
        <time>2022-07-22T06:33:20.000Z</time>
      </trkpt>
      <trkpt lat="45.12782" lon="5.9185">
        <ele>2131</ele>
        <time>2022-07-22T06:33:30.000Z</time>
      </trkpt>
      <trkpt lat="45.12792" lon="5.9187">
        <ele>2100.3</ele>
        <time>2022-07-22T06:33:40.000Z</time>
      </trkpt>
      <trkpt lat="45.12796" lon="5.91875">
        <ele>2127</ele>
        <time>2022-07-22T06:33:28.000Z</time>
      </trkpt>
      <trkpt lat="45.12799" lon="5.91874">
        <ele>2102.6</ele>
        <time>2022-07-22T06:33:38.000Z</time>
      </trkpt>
      <trkpt lat="45.12804" lon="5.91876">
        <ele>2104.5</ele>
        <time>2022-07-22T06:33:48.000Z</time>
      </trkpt>
      <trkpt lat="45.12808" lon="5.91879">
        <ele>2104.7</ele>
        <time>2022-07-22T06:33:58.000Z</time>
      </trkpt>
      <trkpt lat="45.12812" lon="5.91885">
        <ele>2103.9</ele>
        <time>2022-07-22T06:34:08.000Z</time>
      </trkpt>
      <trkpt lat="45.12815" lon="5.91895">
        <ele>2124</ele>
        <time>2022-07-22T06:33:48.000Z</time>
      </trkpt>
      <trkpt lat="45.12823" lon="5.9191">
        <ele>2101.5</ele>
        <time>2022-07-22T06:33:58.000Z</time>
      </trkpt>
      <trkpt lat="45.1283" lon="5.91934">
        <ele>2122</ele>
        <time>2022-07-22T06:34:18.000Z</time>
      </trkpt>
      <trkpt lat="45.12841" lon="5.91946">
        <ele>2101.5</ele>
        <time>2022-07-22T06:34:28.000Z</time>
      </trkpt>
      <trkpt lat="45.12842" lon="5.91949">
        <ele>2101.5</ele>
        <time>2022-07-22T06:34:38.000Z</time>
      </trkpt>
      <trkpt lat="45.12854" lon="5.91963">
        <ele>2109</ele>
        <time>2022-07-22T06:34:42.000Z</time>
      </trkpt>
      <trkpt lat="45.12864" lon="5.91945">
        <ele>2099</ele>
        <time>2022-07-22T06:34:52.000Z</time>
      </trkpt>
      <trkpt lat="45.12869" lon="5.9196">
        <ele>2109</ele>
        <time>2022-07-22T06:37:08.000Z</time>
      </trkpt>
      <trkpt lat="45.12874" lon="5.91959">
        <ele>2096.6</ele>
        <time>2022-07-22T06:37:18.000Z</time>
      </trkpt>
      <trkpt lat="45.12874" lon="5.91957">
        <ele>2096.4</ele>
        <time>2022-07-22T06:37:28.000Z</time>
      </trkpt>
      <trkpt lat="45.12877" lon="5.91953">
        <ele>2095.1</ele>
        <time>2022-07-22T06:37:38.000Z</time>
      </trkpt>
      <trkpt lat="45.12876" lon="5.91938">
        <ele>2109</ele>
        <time>2022-07-22T06:39:01.000Z</time>
      </trkpt>
      <trkpt lat="45.12881" lon="5.91929">
        <ele>2090.7</ele>
        <time>2022-07-22T06:39:11.000Z</time>
      </trkpt>
      <trkpt lat="45.12884" lon="5.91926">
        <ele>2088.9</ele>
        <time>2022-07-22T06:39:21.000Z</time>
      </trkpt>
      <trkpt lat="45.12888" lon="5.9193">
        <ele>2087.8</ele>
        <time>2022-07-22T06:39:31.000Z</time>
      </trkpt>
      <trkpt lat="45.12888" lon="5.91933">
        <ele>2088.3</ele>
        <time>2022-07-22T06:39:41.000Z</time>
      </trkpt>
      <trkpt lat="45.1289" lon="5.91942">
        <ele>2099</ele>
        <time>2022-07-22T06:39:37.000Z</time>
      </trkpt>
      <trkpt lat="45.12893" lon="5.91944">
        <ele>2088</ele>
        <time>2022-07-22T06:39:47.000Z</time>
      </trkpt>
      <trkpt lat="45.12896" lon="5.91944">
        <ele>2086.6</ele>
        <time>2022-07-22T06:39:57.000Z</time>
      </trkpt>
      <trkpt lat="45.12898" lon="5.91945">
        <ele>2085.8</ele>
        <time>2022-07-22T06:40:07.000Z</time>
      </trkpt>
      <trkpt lat="45.129" lon="5.91947">
        <ele>2085.2</ele>
        <time>2022-07-22T06:40:17.000Z</time>
      </trkpt>
      <trkpt lat="45.12899" lon="5.91944">
        <ele>2085.2</ele>
        <time>2022-07-22T06:40:27.000Z</time>
      </trkpt>
      <trkpt lat="45.12902" lon="5.91944">
        <ele>2083.8</ele>
        <time>2022-07-22T06:40:37.000Z</time>
      </trkpt>
      <trkpt lat="45.12905" lon="5.91938">
        <ele>2097</ele>
        <time>2022-07-22T06:40:16.000Z</time>
      </trkpt>
      <trkpt lat="45.12909" lon="5.91939">
        <ele>2079.3</ele>
        <time>2022-07-22T06:40:26.000Z</time>
      </trkpt>
      <trkpt lat="45.12913" lon="5.91938">
        <ele>2077.2</ele>
        <time>2022-07-22T06:40:36.000Z</time>
      </trkpt>
      <trkpt lat="45.12911" lon="5.91936">
        <ele>2077.6</ele>
        <time>2022-07-22T06:40:46.000Z</time>
      </trkpt>
      <trkpt lat="45.12913" lon="5.91934">
        <ele>2076.2</ele>
        <time>2022-07-22T06:40:56.000Z</time>
      </trkpt>
      <trkpt lat="45.12905" lon="5.91928">
        <ele>2097</ele>
        <time>2022-07-22T06:40:47.000Z</time>
      </trkpt>
      <trkpt lat="45.12909" lon="5.9192">
        <ele>2074.9</ele>
        <time>2022-07-22T06:40:57.000Z</time>
      </trkpt>
      <trkpt lat="45.1291" lon="5.91912">
        <ele>2072.2</ele>
        <time>2022-07-22T06:41:07.000Z</time>
      </trkpt>
      <trkpt lat="45.12913" lon="5.91907">
        <ele>2069</ele>
        <time>2022-07-22T06:41:17.000Z</time>
      </trkpt>
      <trkpt lat="45.12914" lon="5.91897">
        <ele>2085</ele>
        <time>2022-07-22T06:41:16.000Z</time>
      </trkpt>
      <trkpt lat="45.12918" lon="5.91884">
        <ele>2059.5</ele>
        <time>2022-07-22T06:41:26.000Z</time>
      </trkpt>
      <trkpt lat="45.12918" lon="5.91883">
        <ele>2059.3</ele>
        <time>2022-07-22T06:41:36.000Z</time>
      </trkpt>
      <trkpt lat="45.12916" lon="5.91879">
        <ele>2059.7</ele>
        <time>2022-07-22T06:41:46.000Z</time>
      </trkpt>
      <trkpt lat="45.1292" lon="5.91867">
        <ele>2083</ele>
        <time>2022-07-22T06:41:33.000Z</time>
      </trkpt>
      <trkpt lat="45.12919" lon="5.91861">
        <ele>2054.8</ele>
        <time>2022-07-22T06:41:43.000Z</time>
      </trkpt>
      <trkpt lat="45.12922" lon="5.91851">
        <ele>2052.5</ele>
        <time>2022-07-22T06:41:53.000Z</time>
      </trkpt>
      <trkpt lat="45.12921" lon="5.91848">
        <ele>2052.8</ele>
        <time>2022-07-22T06:42:03.000Z</time>
      </trkpt>
      <trkpt lat="45.12921" lon="5.91846">
        <ele>2052.6</ele>
        <time>2022-07-22T06:42:13.000Z</time>
      </trkpt>
      <trkpt lat="45.12923" lon="5.91841">
        <ele>2083</ele>
        <time>2022-07-22T06:41:58.000Z</time>
      </trkpt>
      <trkpt lat="45.12922" lon="5.9183">
        <ele>2050.5</ele>
        <time>2022-07-22T06:42:08.000Z</time>
      </trkpt>
      <trkpt lat="45.12924" lon="5.91821">
        <ele>2047.7</ele>
        <time>2022-07-22T06:42:18.000Z</time>
      </trkpt>
      <trkpt lat="45.12923" lon="5.91816">
        <ele>2047.3</ele>
        <time>2022-07-22T06:42:28.000Z</time>
      </trkpt>
      <trkpt lat="45.12927" lon="5.91812">
        <ele>2069</ele>
        <time>2022-07-22T06:42:07.000Z</time>
      </trkpt>
      <trkpt lat="45.12929" lon="5.91807">
        <ele>2042.2</ele>
        <time>2022-07-22T06:42:17.000Z</time>
      </trkpt>
      <trkpt lat="45.12931" lon="5.91805">
        <ele>2040.8</ele>
        <time>2022-07-22T06:42:27.000Z</time>
      </trkpt>
      <trkpt lat="45.12932" lon="5.918">
        <ele>2040.5</ele>
        <time>2022-07-22T06:42:37.000Z</time>
      </trkpt>
      <trkpt lat="45.12934" lon="5.91796">
        <ele>2039.6</ele>
        <time>2022-07-22T06:42:47.000Z</time>
      </trkpt>
      <trkpt lat="45.12938" lon="5.91794">
        <ele>2037.4</ele>
        <time>2022-07-22T06:42:57.000Z</time>
      </trkpt>
      <trkpt lat="45.12952" lon="5.91771">
        <ele>2055</ele>
        <time>2022-07-22T06:43:05.000Z</time>
      </trkpt>
      <trkpt lat="45.12953" lon="5.91765">
        <ele>2030.5</ele>
        <time>2022-07-22T06:43:15.000Z</time>
      </trkpt>
      <trkpt lat="45.12955" lon="5.9176">
        <ele>2029.5</ele>
        <time>2022-07-22T06:43:25.000Z</time>
      </trkpt>
      <trkpt lat="45.12967" lon="5.91745">
        <ele>2042</ele>
        <time>2022-07-22T06:43:25.000Z</time>
      </trkpt>
      <trkpt lat="45.12973" lon="5.91742">
        <ele>2021.5</ele>
        <time>2022-07-22T06:43:35.000Z</time>
      </trkpt>
      <trkpt lat="45.12979" lon="5.91734">
        <ele>2019.7</ele>
        <time>2022-07-22T06:43:45.000Z</time>
      </trkpt>
      <trkpt lat="45.12981" lon="5.91727">
        <ele>2029</ele>
        <time>2022-07-22T06:43:42.000Z</time>
      </trkpt>
      <trkpt lat="45.12984" lon="5.91725">
        <ele>2018.2</ele>
        <time>2022-07-22T06:43:52.000Z</time>
      </trkpt>
      <trkpt lat="45.1299" lon="5.91714">
        <ele>2015.6</ele>
        <time>2022-07-22T06:44:02.000Z</time>
      </trkpt>
      <trkpt lat="45.13" lon="5.91702">
        <ele>2021</ele>
        <time>2022-07-22T06:44:02.000Z</time>
      </trkpt>
      <trkpt lat="45.13006" lon="5.91688">
        <ele>2008.1</ele>
        <time>2022-07-22T06:44:12.000Z</time>
      </trkpt>
      <trkpt lat="45.13032" lon="5.91662">
        <ele>2014</ele>
        <time>2022-07-22T06:44:36.000Z</time>
      </trkpt>
      <trkpt lat="45.1304" lon="5.91663">
        <ele>2002.2</ele>
        <time>2022-07-22T06:44:46.000Z</time>
      </trkpt>
      <trkpt lat="45.13052" lon="5.91661">
        <ele>2010</ele>
        <time>2022-07-22T06:44:50.000Z</time>
      </trkpt>
      <trkpt lat="45.13057" lon="5.91664">
        <ele>1999.7</ele>
        <time>2022-07-22T06:45:00.000Z</time>
      </trkpt>
      <trkpt lat="45.13061" lon="5.91671">
        <ele>1998.8</ele>
        <time>2022-07-22T06:45:10.000Z</time>
      </trkpt>
      <trkpt lat="45.1306" lon="5.91678">
        <ele>1998.9</ele>
        <time>2022-07-22T06:45:20.000Z</time>
      </trkpt>
      <trkpt lat="45.13066" lon="5.9169">
        <ele>2010</ele>
        <time>2022-07-22T06:45:26.000Z</time>
      </trkpt>
      <trkpt lat="45.13069" lon="5.91701">
        <ele>1997.4</ele>
        <time>2022-07-22T06:45:36.000Z</time>
      </trkpt>
      <trkpt lat="45.13078" lon="5.91709">
        <ele>1995.9</ele>
        <time>2022-07-22T06:45:46.000Z</time>
      </trkpt>
      <trkpt lat="45.13084" lon="5.91719">
        <ele>2010</ele>
        <time>2022-07-22T06:45:28.000Z</time>
      </trkpt>
      <trkpt lat="45.13087" lon="5.9172">
        <ele>1994.3</ele>
        <time>2022-07-22T06:45:38.000Z</time>
      </trkpt>
      <trkpt lat="45.13098" lon="5.91728">
        <ele>1994.3</ele>
        <time>2022-07-22T06:45:48.000Z</time>
      </trkpt>
      <trkpt lat="45.13102" lon="5.91729">
        <ele>2011</ele>
        <time>2022-07-22T06:45:43.000Z</time>
      </trkpt>
      <trkpt lat="45.13103" lon="5.91732">
        <ele>1994.5</ele>
        <time>2022-07-22T06:45:53.000Z</time>
      </trkpt>
      <trkpt lat="45.13106" lon="5.91734">
        <ele>1994.7</ele>
        <time>2022-07-22T06:46:03.000Z</time>
      </trkpt>
      <trkpt lat="45.13124" lon="5.91729">
        <ele>2011</ele>
        <time>2022-07-22T06:46:03.000Z</time>
      </trkpt>
      <trkpt lat="45.13133" lon="5.91716">
        <ele>1995.3</ele>
        <time>2022-07-22T06:46:13.000Z</time>
      </trkpt>
      <trkpt lat="45.13143" lon="5.91716">
        <ele>2009</ele>
        <time>2022-07-22T06:46:19.000Z</time>
      </trkpt>
      <trkpt lat="45.13152" lon="5.91714">
        <ele>1995.3</ele>
        <time>2022-07-22T06:46:29.000Z</time>
      </trkpt>
      <trkpt lat="45.13156" lon="5.9172">
        <ele>1995.8</ele>
        <time>2022-07-22T06:46:39.000Z</time>
      </trkpt>
      <trkpt lat="45.13168" lon="5.91727">
        <ele>2009</ele>
        <time>2022-07-22T06:46:39.000Z</time>
      </trkpt>
      <trkpt lat="45.13172" lon="5.91733">
        <ele>1996.8</ele>
        <time>2022-07-22T06:46:49.000Z</time>
      </trkpt>
      <trkpt lat="45.1318" lon="5.91736">
        <ele>1997</ele>
        <time>2022-07-22T06:46:59.000Z</time>
      </trkpt>
      <trkpt lat="45.13184" lon="5.91741">
        <ele>2009</ele>
        <time>2022-07-22T06:46:52.000Z</time>
      </trkpt>
      <trkpt lat="45.13187" lon="5.91741">
        <ele>1997.1</ele>
        <time>2022-07-22T06:47:02.000Z</time>
      </trkpt>
      <trkpt lat="45.1319" lon="5.91736">
        <ele>1997</ele>
        <time>2022-07-22T06:47:12.000Z</time>
      </trkpt>
      <trkpt lat="45.13194" lon="5.91732">
        <ele>1997</ele>
        <time>2022-07-22T06:47:22.000Z</time>
      </trkpt>
      <trkpt lat="45.13199" lon="5.91719">
        <ele>2009</ele>
        <time>2022-07-22T06:47:12.000Z</time>
      </trkpt>
      <trkpt lat="45.13203" lon="5.91719">
        <ele>1998.2</ele>
        <time>2022-07-22T06:47:22.000Z</time>
      </trkpt>
      <trkpt lat="45.13206" lon="5.91722">
        <ele>1998.7</ele>
        <time>2022-07-22T06:47:32.000Z</time>
      </trkpt>
      <trkpt lat="45.13207" lon="5.91725">
        <ele>1998.7</ele>
        <time>2022-07-22T06:47:42.000Z</time>
      </trkpt>
      <trkpt lat="45.13216" lon="5.9173">
        <ele>2009</ele>
        <time>2022-07-22T06:47:27.000Z</time>
      </trkpt>
      <trkpt lat="45.13234" lon="5.91727">
        <ele>2001</ele>
        <time>2022-07-22T06:47:37.000Z</time>
      </trkpt>
      <trkpt lat="45.13252" lon="5.91726">
        <ele>2014</ele>
        <time>2022-07-22T06:47:54.000Z</time>
      </trkpt>
      <trkpt lat="45.13267" lon="5.91726">
        <ele>2004.7</ele>
        <time>2022-07-22T06:48:04.000Z</time>
      </trkpt>
      <trkpt lat="45.13271" lon="5.91732">
        <ele>2015</ele>
        <time>2022-07-22T06:48:09.000Z</time>
      </trkpt>
      <trkpt lat="45.13274" lon="5.91735">
        <ele>2005.3</ele>
        <time>2022-07-22T06:48:19.000Z</time>
      </trkpt>
      <trkpt lat="45.1328" lon="5.91745">
        <ele>2005.9</ele>
        <time>2022-07-22T06:48:29.000Z</time>
      </trkpt>
      <trkpt lat="45.13285" lon="5.91746">
        <ele>2006.9</ele>
        <time>2022-07-22T06:48:39.000Z</time>
      </trkpt>
      <trkpt lat="45.13294" lon="5.91753">
        <ele>2017</ele>
        <time>2022-07-22T06:48:45.000Z</time>
      </trkpt>
      <trkpt lat="45.13318" lon="5.91758">
        <ele>2023</ele>
        <time>2022-07-22T06:49:07.000Z</time>
      </trkpt>
      <trkpt lat="45.1332" lon="5.9176">
        <ele>2012</ele>
        <time>2022-07-22T06:49:17.000Z</time>
      </trkpt>
      <trkpt lat="45.13324" lon="5.91772">
        <ele>2012.3</ele>
        <time>2022-07-22T06:49:27.000Z</time>
      </trkpt>
      <trkpt lat="45.13341" lon="5.91774">
        <ele>2025</ele>
        <time>2022-07-22T06:49:28.000Z</time>
      </trkpt>
      <trkpt lat="45.13357" lon="5.91792">
        <ele>2025</ele>
        <time>2022-07-22T06:49:42.000Z</time>
      </trkpt>
      <trkpt lat="45.13369" lon="5.918">
        <ele>2011.1</ele>
        <time>2022-07-22T06:49:52.000Z</time>
      </trkpt>
      <trkpt lat="45.13371" lon="5.918">
        <ele>2011</ele>
        <time>2022-07-22T06:50:02.000Z</time>
      </trkpt>
      <trkpt lat="45.13378" lon="5.91804">
        <ele>2018</ele>
        <time>2022-07-22T06:50:04.000Z</time>
      </trkpt>
      <trkpt lat="45.13382" lon="5.91804">
        <ele>2009.7</ele>
        <time>2022-07-22T06:50:14.000Z</time>
      </trkpt>
      <trkpt lat="45.1339" lon="5.91808">
        <ele>2009</ele>
        <time>2022-07-22T06:50:24.000Z</time>
      </trkpt>
      <trkpt lat="45.13392" lon="5.91813">
        <ele>2008.9</ele>
        <time>2022-07-22T06:50:34.000Z</time>
      </trkpt>
      <trkpt lat="45.13399" lon="5.91847">
        <ele>2019</ele>
        <time>2022-07-22T06:50:37.000Z</time>
      </trkpt>
      <trkpt lat="45.13408" lon="5.9187">
        <ele>2006</ele>
        <time>2022-07-22T06:50:47.000Z</time>
      </trkpt>
      <trkpt lat="45.13429" lon="5.91897">
        <ele>2019</ele>
        <time>2022-07-22T06:51:17.000Z</time>
      </trkpt>
      <trkpt lat="45.13431" lon="5.91898">
        <ele>2009.6</ele>
        <time>2022-07-22T06:51:27.000Z</time>
      </trkpt>
      <trkpt lat="45.13434" lon="5.91903">
        <ele>2009.8</ele>
        <time>2022-07-22T06:51:37.000Z</time>
      </trkpt>
      <trkpt lat="45.13433" lon="5.91912">
        <ele>2008.5</ele>
        <time>2022-07-22T06:51:47.000Z</time>
      </trkpt>
      <trkpt lat="45.13434" lon="5.91916">
        <ele>2008.2</ele>
        <time>2022-07-22T06:51:57.000Z</time>
      </trkpt>
      <trkpt lat="45.13439" lon="5.91922">
        <ele>2019</ele>
        <time>2022-07-22T06:51:35.000Z</time>
      </trkpt>
      <trkpt lat="45.13442" lon="5.91922">
        <ele>2008.7</ele>
        <time>2022-07-22T06:51:45.000Z</time>
      </trkpt>
      <trkpt lat="45.13453" lon="5.91931">
        <ele>2009</ele>
        <time>2022-07-22T06:51:55.000Z</time>
      </trkpt>
      <trkpt lat="45.13473" lon="5.91942">
        <ele>2020</ele>
        <time>2022-07-22T06:52:14.000Z</time>
      </trkpt>
      <trkpt lat="45.13475" lon="5.91945">
        <ele>2008.8</ele>
        <time>2022-07-22T06:52:24.000Z</time>
      </trkpt>
      <trkpt lat="45.13483" lon="5.91953">
        <ele>2007.6</ele>
        <time>2022-07-22T06:52:34.000Z</time>
      </trkpt>
      <trkpt lat="45.13496" lon="5.91958">
        <ele>2020</ele>
        <time>2022-07-22T06:52:30.000Z</time>
      </trkpt>
      <trkpt lat="45.13498" lon="5.91963">
        <ele>2006.6</ele>
        <time>2022-07-22T06:52:40.000Z</time>
      </trkpt>
      <trkpt lat="45.13499" lon="5.91962">
        <ele>2006.7</ele>
        <time>2022-07-22T06:52:50.000Z</time>
      </trkpt>
      <trkpt lat="45.13506" lon="5.91963">
        <ele>2006.1</ele>
        <time>2022-07-22T06:53:00.000Z</time>
      </trkpt>
      <trkpt lat="45.13508" lon="5.91966">
        <ele>2005.6</ele>
        <time>2022-07-22T06:53:10.000Z</time>
      </trkpt>
      <trkpt lat="45.13512" lon="5.91968">
        <ele>2019</ele>
        <time>2022-07-22T06:52:54.000Z</time>
      </trkpt>
      <trkpt lat="45.13519" lon="5.9198">
        <ele>2002.6</ele>
        <time>2022-07-22T06:53:04.000Z</time>
      </trkpt>
      <trkpt lat="45.13524" lon="5.91981">
        <ele>2001.9</ele>
        <time>2022-07-22T06:53:14.000Z</time>
      </trkpt>
      <trkpt lat="45.13529" lon="5.91986">
        <ele>2019</ele>
        <time>2022-07-22T06:53:17.000Z</time>
      </trkpt>
      <trkpt lat="45.13538" lon="5.91991">
        <ele>1997.4</ele>
        <time>2022-07-22T06:53:27.000Z</time>
      </trkpt>
      <trkpt lat="45.13539" lon="5.91995">
        <ele>1996.3</ele>
        <time>2022-07-22T06:53:37.000Z</time>
      </trkpt>
      <trkpt lat="45.13539" lon="5.91997">
        <ele>1995.8</ele>
        <time>2022-07-22T06:53:47.000Z</time>
      </trkpt>
      <trkpt lat="45.13544" lon="5.92001">
        <ele>2010</ele>
        <time>2022-07-22T06:53:45.000Z</time>
      </trkpt>
      <trkpt lat="45.13542" lon="5.92008">
        <ele>1992.2</ele>
        <time>2022-07-22T06:53:55.000Z</time>
      </trkpt>
      <trkpt lat="45.13546" lon="5.9201">
        <ele>1990.3</ele>
        <time>2022-07-22T06:54:05.000Z</time>
      </trkpt>
      <trkpt lat="45.13547" lon="5.92007">
        <ele>1990.9</ele>
        <time>2022-07-22T06:54:15.000Z</time>
      </trkpt>
      <trkpt lat="45.13551" lon="5.92002">
        <ele>1991.4</ele>
        <time>2022-07-22T06:54:25.000Z</time>
      </trkpt>
      <trkpt lat="45.13554" lon="5.92003">
        <ele>1998</ele>
        <time>2022-07-22T06:54:16.000Z</time>
      </trkpt>
      <trkpt lat="45.13558" lon="5.92001">
        <ele>1989.6</ele>
        <time>2022-07-22T06:54:26.000Z</time>
      </trkpt>
      <trkpt lat="45.13561" lon="5.92001">
        <ele>1988.4</ele>
        <time>2022-07-22T06:54:36.000Z</time>
      </trkpt>
      <trkpt lat="45.13557" lon="5.92006">
        <ele>1988</ele>
        <time>2022-07-22T06:54:46.000Z</time>
      </trkpt>
      <trkpt lat="45.13559" lon="5.92005">
        <ele>1987.6</ele>
        <time>2022-07-22T06:54:56.000Z</time>
      </trkpt>
      <trkpt lat="45.1356" lon="5.92006">
        <ele>1986.7</ele>
        <time>2022-07-22T06:55:06.000Z</time>
      </trkpt>
      <trkpt lat="45.13559" lon="5.92024">
        <ele>1990</ele>
        <time>2022-07-22T06:55:05.000Z</time>
      </trkpt>
      <trkpt lat="45.13568" lon="5.92029">
        <ele>1972.9</ele>
        <time>2022-07-22T06:55:15.000Z</time>
      </trkpt>
      <trkpt lat="45.13569" lon="5.92033">
        <ele>1971.2</ele>
        <time>2022-07-22T06:55:25.000Z</time>
      </trkpt>
      <trkpt lat="45.13569" lon="5.92051">
        <ele>1983</ele>
        <time>2022-07-22T06:55:47.000Z</time>
      </trkpt>
      <trkpt lat="45.1357" lon="5.92054">
        <ele>1964.7</ele>
        <time>2022-07-22T06:55:57.000Z</time>
      </trkpt>
      <trkpt lat="45.13575" lon="5.9205">
        <ele>1963.7</ele>
        <time>2022-07-22T06:56:07.000Z</time>
      </trkpt>
      <trkpt lat="45.13574" lon="5.92052">
        <ele>1963.6</ele>
        <time>2022-07-22T06:56:17.000Z</time>
      </trkpt>
      <trkpt lat="45.13578" lon="5.92053">
        <ele>1961.7</ele>
        <time>2022-07-22T06:56:27.000Z</time>
      </trkpt>
      <trkpt lat="45.13579" lon="5.92054">
        <ele>1961.1</ele>
        <time>2022-07-22T06:56:37.000Z</time>
      </trkpt>
      <trkpt lat="45.13585" lon="5.92056">
        <ele>1975</ele>
        <time>2022-07-22T06:56:24.000Z</time>
      </trkpt>
      <trkpt lat="45.13591" lon="5.9205">
        <ele>1956.4</ele>
        <time>2022-07-22T06:56:34.000Z</time>
      </trkpt>
      <trkpt lat="45.13594" lon="5.92048">
        <ele>1955.3</ele>
        <time>2022-07-22T06:56:44.000Z</time>
      </trkpt>
      <trkpt lat="45.13603" lon="5.92052">
        <ele>1967</ele>
        <time>2022-07-22T06:56:19.000Z</time>
      </trkpt>
      <trkpt lat="45.13612" lon="5.92056">
        <ele>1945.6</ele>
        <time>2022-07-22T06:56:29.000Z</time>
      </trkpt>
      <trkpt lat="45.13616" lon="5.92052">
        <ele>1944.8</ele>
        <time>2022-07-22T06:56:39.000Z</time>
      </trkpt>
      <trkpt lat="45.13616" lon="5.92054">
        <ele>1944.5</ele>
        <time>2022-07-22T06:56:49.000Z</time>
      </trkpt>
      <trkpt lat="45.13613" lon="5.92064">
        <ele>1967</ele>
        <time>2022-07-22T06:57:04.000Z</time>
      </trkpt>
      <trkpt lat="45.13614" lon="5.92065">
        <ele>1942.9</ele>
        <time>2022-07-22T06:57:14.000Z</time>
      </trkpt>
      <trkpt lat="45.13621" lon="5.92064">
        <ele>1940.6</ele>
        <time>2022-07-22T06:57:24.000Z</time>
      </trkpt>
      <trkpt lat="45.13625" lon="5.92068">
        <ele>1938.3</ele>
        <time>2022-07-22T06:57:34.000Z</time>
      </trkpt>
      <trkpt lat="45.13636" lon="5.92084">
        <ele>1953</ele>
        <time>2022-07-22T06:57:12.000Z</time>
      </trkpt>
      <trkpt lat="45.13641" lon="5.92081">
        <ele>1930.3</ele>
        <time>2022-07-22T06:57:22.000Z</time>
      </trkpt>
      <trkpt lat="45.13642" lon="5.92079">
        <ele>1930.6</ele>
        <time>2022-07-22T06:57:32.000Z</time>
      </trkpt>
      <trkpt lat="45.13647" lon="5.92083">
        <ele>1929.2</ele>
        <time>2022-07-22T06:57:42.000Z</time>
      </trkpt>
      <trkpt lat="45.13652" lon="5.92082">
        <ele>1928.9</ele>
        <time>2022-07-22T06:57:52.000Z</time>
      </trkpt>
      <trkpt lat="45.13666" lon="5.92085">
        <ele>1949</ele>
        <time>2022-07-22T06:57:41.000Z</time>
      </trkpt>
      <trkpt lat="45.13671" lon="5.92089">
        <ele>1928.2</ele>
        <time>2022-07-22T06:57:51.000Z</time>
      </trkpt>
      <trkpt lat="45.13674" lon="5.92095">
        <ele>1929</ele>
        <time>2022-07-22T06:58:01.000Z</time>
      </trkpt>
      <trkpt lat="45.13677" lon="5.92099">
        <ele>1929.7</ele>
        <time>2022-07-22T06:58:11.000Z</time>
      </trkpt>
      <trkpt lat="45.13676" lon="5.92103">
        <ele>1929.6</ele>
        <time>2022-07-22T06:58:21.000Z</time>
      </trkpt>
      <trkpt lat="45.13677" lon="5.92109">
        <ele>1947</ele>
        <time>2022-07-22T06:58:01.000Z</time>
      </trkpt>
      <trkpt lat="45.13686" lon="5.92135">
        <ele>1947</ele>
        <time>2022-07-22T06:58:17.000Z</time>
      </trkpt>
      <trkpt lat="45.13689" lon="5.92134">
        <ele>1931</ele>
        <time>2022-07-22T06:58:27.000Z</time>
      </trkpt>
      <trkpt lat="45.13694" lon="5.92145">
        <ele>1929.9</ele>
        <time>2022-07-22T06:58:37.000Z</time>
      </trkpt>
      <trkpt lat="45.13696" lon="5.92154">
        <ele>1928.7</ele>
        <time>2022-07-22T06:58:47.000Z</time>
      </trkpt>
      <trkpt lat="45.13708" lon="5.92174">
        <ele>1948</ele>
        <time>2022-07-22T06:58:54.000Z</time>
      </trkpt>
      <trkpt lat="45.13718" lon="5.92183">
        <ele>1928.7</ele>
        <time>2022-07-22T06:59:04.000Z</time>
      </trkpt>
      <trkpt lat="45.13733" lon="5.92186">
        <ele>1947</ele>
        <time>2022-07-22T06:59:05.000Z</time>
      </trkpt>
      <trkpt lat="45.13738" lon="5.92188">
        <ele>1928.7</ele>
        <time>2022-07-22T06:59:15.000Z</time>
      </trkpt>
      <trkpt lat="45.13745" lon="5.92188">
        <ele>1929.4</ele>
        <time>2022-07-22T06:59:25.000Z</time>
      </trkpt>
      <trkpt lat="45.13747" lon="5.92191">
        <ele>1928.7</ele>
        <time>2022-07-22T06:59:35.000Z</time>
      </trkpt>
      <trkpt lat="45.13748" lon="5.92191">
        <ele>1928.8</ele>
        <time>2022-07-22T06:59:45.000Z</time>
      </trkpt>
      <trkpt lat="45.13751" lon="5.922">
        <ele>1946</ele>
        <time>2022-07-22T06:59:35.000Z</time>
      </trkpt>
      <trkpt lat="45.13751" lon="5.92205">
        <ele>1926.5</ele>
        <time>2022-07-22T06:59:45.000Z</time>
      </trkpt>
      <trkpt lat="45.13758" lon="5.9221">
        <ele>1925.4</ele>
        <time>2022-07-22T06:59:55.000Z</time>
      </trkpt>
      <trkpt lat="45.1376" lon="5.92213">
        <ele>1924.7</ele>
        <time>2022-07-22T07:00:05.000Z</time>
      </trkpt>
      <trkpt lat="45.13765" lon="5.92217">
        <ele>1945</ele>
        <time>2022-07-22T06:59:51.000Z</time>
      </trkpt>
      <trkpt lat="45.13785" lon="5.92221">
        <ele>1943</ele>
        <time>2022-07-22T07:00:07.000Z</time>
      </trkpt>
      <trkpt lat="45.13785" lon="5.92223">
        <ele>1920.6</ele>
        <time>2022-07-22T07:00:17.000Z</time>
      </trkpt>
      <trkpt lat="45.13792" lon="5.92231">
        <ele>1921.2</ele>
        <time>2022-07-22T07:00:27.000Z</time>
      </trkpt>
      <trkpt lat="45.13796" lon="5.92234">
        <ele>1921.3</ele>
        <time>2022-07-22T07:00:37.000Z</time>
      </trkpt>
      <trkpt lat="45.13797" lon="5.92241">
        <ele>1942</ele>
        <time>2022-07-22T07:00:26.000Z</time>
      </trkpt>
      <trkpt lat="45.13798" lon="5.92243">
        <ele>1922.2</ele>
        <time>2022-07-22T07:00:36.000Z</time>
      </trkpt>
      <trkpt lat="45.13797" lon="5.92247">
        <ele>1922.8</ele>
        <time>2022-07-22T07:00:46.000Z</time>
      </trkpt>
      <trkpt lat="45.13798" lon="5.92249">
        <ele>1923</ele>
        <time>2022-07-22T07:00:56.000Z</time>
      </trkpt>
      <trkpt lat="45.13807" lon="5.92256">
        <ele>1924.3</ele>
        <time>2022-07-22T07:01:06.000Z</time>
      </trkpt>
      <trkpt lat="45.13809" lon="5.92255">
        <ele>1923.4</ele>
        <time>2022-07-22T07:01:16.000Z</time>
      </trkpt>
      <trkpt lat="45.13815" lon="5.92256">
        <ele>1931</ele>
        <time>2022-07-22T07:00:42.000Z</time>
      </trkpt>
      <trkpt lat="45.13821" lon="5.92258">
        <ele>1921.7</ele>
        <time>2022-07-22T07:00:52.000Z</time>
      </trkpt>
      <trkpt lat="45.13824" lon="5.92262">
        <ele>1922.1</ele>
        <time>2022-07-22T07:01:02.000Z</time>
      </trkpt>
      <trkpt lat="45.13828" lon="5.92262">
        <ele>1921</ele>
        <time>2022-07-22T07:01:12.000Z</time>
      </trkpt>
      <trkpt lat="45.13833" lon="5.92264">
        <ele>1932</ele>
        <time>2022-07-22T07:01:22.000Z</time>
      </trkpt>
      <trkpt lat="45.13846" lon="5.92291">
        <ele>1934</ele>
        <time>2022-07-22T07:01:29.000Z</time>
      </trkpt>
      <trkpt lat="45.13851" lon="5.92298">
        <ele>1925.6</ele>
        <time>2022-07-22T07:01:39.000Z</time>
      </trkpt>
      <trkpt lat="45.13856" lon="5.92299">
        <ele>1924.2</ele>
        <time>2022-07-22T07:01:49.000Z</time>
      </trkpt>
      <trkpt lat="45.1386" lon="5.92303">
        <ele>1923.2</ele>
        <time>2022-07-22T07:01:59.000Z</time>
      </trkpt>
      <trkpt lat="45.13859" lon="5.92304">
        <ele>1923.7</ele>
        <time>2022-07-22T07:02:09.000Z</time>
      </trkpt>
      <trkpt lat="45.13863" lon="5.92303">
        <ele>1936</ele>
        <time>2022-07-22T07:01:50.000Z</time>
      </trkpt>
      <trkpt lat="45.1387" lon="5.92306">
        <ele>1923.7</ele>
        <time>2022-07-22T07:02:00.000Z</time>
      </trkpt>
      <trkpt lat="45.13875" lon="5.92313">
        <ele>1925.6</ele>
        <time>2022-07-22T07:02:10.000Z</time>
      </trkpt>
      <trkpt lat="45.13875" lon="5.92316">
        <ele>1926.3</ele>
        <time>2022-07-22T07:02:20.000Z</time>
      </trkpt>
      <trkpt lat="45.13876" lon="5.92322">
        <ele>1936</ele>
        <time>2022-07-22T07:02:09.000Z</time>
      </trkpt>
      <trkpt lat="45.13879" lon="5.92327">
        <ele>1928.7</ele>
        <time>2022-07-22T07:02:19.000Z</time>
      </trkpt>
      <trkpt lat="45.13879" lon="5.92328">
        <ele>1928.9</ele>
        <time>2022-07-22T07:02:29.000Z</time>
      </trkpt>
      <trkpt lat="45.13882" lon="5.92326">
        <ele>1928.5</ele>
        <time>2022-07-22T07:02:39.000Z</time>
      </trkpt>
      <trkpt lat="45.13881" lon="5.92331">
        <ele>1929.5</ele>
        <time>2022-07-22T07:02:49.000Z</time>
      </trkpt>
      <trkpt lat="45.13887" lon="5.92332">
        <ele>1929.8</ele>
        <time>2022-07-22T07:02:59.000Z</time>
      </trkpt>
      <trkpt lat="45.1389" lon="5.92336">
        <ele>1937</ele>
        <time>2022-07-22T07:02:55.000Z</time>
      </trkpt>
      <trkpt lat="45.13896" lon="5.92341">
        <ele>1931.9</ele>
        <time>2022-07-22T07:03:05.000Z</time>
      </trkpt>
      <trkpt lat="45.13899" lon="5.92347">
        <ele>1933.3</ele>
        <time>2022-07-22T07:03:15.000Z</time>
      </trkpt>
      <trkpt lat="45.13897" lon="5.92358">
        <ele>1941</ele>
        <time>2022-07-22T07:03:09.000Z</time>
      </trkpt>
      <trkpt lat="45.13898" lon="5.92358">
        <ele>1935.7</ele>
        <time>2022-07-22T07:03:19.000Z</time>
      </trkpt>
      <trkpt lat="45.13898" lon="5.92363">
        <ele>1936.8</ele>
        <time>2022-07-22T07:03:29.000Z</time>
      </trkpt>
      <trkpt lat="45.139" lon="5.92362">
        <ele>1936.6</ele>
        <time>2022-07-22T07:03:39.000Z</time>
      </trkpt>
      <trkpt lat="45.139" lon="5.92361">
        <ele>1936.4</ele>
        <time>2022-07-22T07:03:49.000Z</time>
      </trkpt>
      <trkpt lat="45.13908" lon="5.92362">
        <ele>1936.9</ele>
        <time>2022-07-22T07:03:59.000Z</time>
      </trkpt>
      <trkpt lat="45.13912" lon="5.92369">
        <ele>1946</ele>
        <time>2022-07-22T07:03:35.000Z</time>
      </trkpt>
      <trkpt lat="45.13912" lon="5.92376">
        <ele>1941</ele>
        <time>2022-07-22T07:03:45.000Z</time>
      </trkpt>
      <trkpt lat="45.1391" lon="5.92388">
        <ele>1944.3</ele>
        <time>2022-07-22T07:03:55.000Z</time>
      </trkpt>
      <trkpt lat="45.13912" lon="5.92394">
        <ele>1946.4</ele>
        <time>2022-07-22T07:04:05.000Z</time>
      </trkpt>
      <trkpt lat="45.13917" lon="5.92395">
        <ele>1953</ele>
        <time>2022-07-22T07:04:00.000Z</time>
      </trkpt>
      <trkpt lat="45.1392" lon="5.92391">
        <ele>1946.3</ele>
        <time>2022-07-22T07:04:10.000Z</time>
      </trkpt>
      <trkpt lat="45.13927" lon="5.92395">
        <ele>1948.9</ele>
        <time>2022-07-22T07:04:20.000Z</time>
      </trkpt>
      <trkpt lat="45.13933" lon="5.92397">
        <ele>1950.8</ele>
        <time>2022-07-22T07:04:30.000Z</time>
      </trkpt>
      <trkpt lat="45.13937" lon="5.92395">
        <ele>1953</ele>
        <time>2022-07-22T07:04:36.000Z</time>
      </trkpt>
      <trkpt lat="45.13943" lon="5.92396">
        <ele>1952.1</ele>
        <time>2022-07-22T07:04:46.000Z</time>
      </trkpt>
      <trkpt lat="45.13946" lon="5.92403">
        <ele>1955.7</ele>
        <time>2022-07-22T07:04:56.000Z</time>
      </trkpt>
      <trkpt lat="45.13945" lon="5.92405">
        <ele>1956.6</ele>
        <time>2022-07-22T07:05:06.000Z</time>
      </trkpt>
      <trkpt lat="45.13945" lon="5.9241">
        <ele>1958.9</ele>
        <time>2022-07-22T07:05:16.000Z</time>
      </trkpt>
      <trkpt lat="45.13947" lon="5.9241">
        <ele>1956</ele>
        <time>2022-07-22T07:05:12.000Z</time>
      </trkpt>
      <trkpt lat="45.13946" lon="5.92416">
        <ele>1961.8</ele>
        <time>2022-07-22T07:05:22.000Z</time>
      </trkpt>
      <trkpt lat="45.13943" lon="5.92422">
        <ele>1964.3</ele>
        <time>2022-07-22T07:05:32.000Z</time>
      </trkpt>
      <trkpt lat="45.13939" lon="5.92428">
        <ele>1966.2</ele>
        <time>2022-07-22T07:05:42.000Z</time>
      </trkpt>
      <trkpt lat="45.13937" lon="5.92429">
        <ele>1966.1</ele>
        <time>2022-07-22T07:05:52.000Z</time>
      </trkpt>
      <trkpt lat="45.13934" lon="5.92434">
        <ele>1960</ele>
        <time>2022-07-22T07:05:51.000Z</time>
      </trkpt>
      <trkpt lat="45.13934" lon="5.92438">
        <ele>1969.5</ele>
        <time>2022-07-22T07:06:01.000Z</time>
      </trkpt>
      <trkpt lat="45.13934" lon="5.92441">
        <ele>1971</ele>
        <time>2022-07-22T07:06:11.000Z</time>
      </trkpt>
      <trkpt lat="45.13933" lon="5.92447">
        <ele>1973.8</ele>
        <time>2022-07-22T07:06:21.000Z</time>
      </trkpt>
      <trkpt lat="45.13934" lon="5.92455">
        <ele>1978.9</ele>
        <time>2022-07-22T07:06:31.000Z</time>
      </trkpt>
      <trkpt lat="45.1393" lon="5.92465">
        <ele>1979</ele>
        <time>2022-07-22T07:07:02.000Z</time>
      </trkpt>
      <trkpt lat="45.13933" lon="5.92466">
        <ele>1985.2</ele>
        <time>2022-07-22T07:07:12.000Z</time>
      </trkpt>
      <trkpt lat="45.13937" lon="5.92474">
        <ele>1991.8</ele>
        <time>2022-07-22T07:07:22.000Z</time>
      </trkpt>
      <trkpt lat="45.13936" lon="5.92475">
        <ele>1992.3</ele>
        <time>2022-07-22T07:07:32.000Z</time>
      </trkpt>
      <trkpt lat="45.13937" lon="5.92476">
        <ele>1993.4</ele>
        <time>2022-07-22T07:07:42.000Z</time>
      </trkpt>
      <trkpt lat="45.13944" lon="5.92473">
        <ele>1988</ele>
        <time>2022-07-22T07:07:55.000Z</time>
      </trkpt>
      <trkpt lat="45.13946" lon="5.92478">
        <ele>1997.8</ele>
        <time>2022-07-22T07:08:05.000Z</time>
      </trkpt>
      <trkpt lat="45.13948" lon="5.92486">
        <ele>2004.1</ele>
        <time>2022-07-22T07:08:15.000Z</time>
      </trkpt>
      <trkpt lat="45.13949" lon="5.92487">
        <ele>2004.9</ele>
        <time>2022-07-22T07:08:25.000Z</time>
      </trkpt>
      <trkpt lat="45.1395" lon="5.92484">
        <ele>2002.7</ele>
        <time>2022-07-22T07:08:35.000Z</time>
      </trkpt>
      <trkpt lat="45.13952" lon="5.92483">
        <ele>2002.2</ele>
        <time>2022-07-22T07:08:45.000Z</time>
      </trkpt>
      <trkpt lat="45.13955" lon="5.92486">
        <ele>1988</ele>
        <time>2022-07-22T07:08:37.000Z</time>
      </trkpt>
      <trkpt lat="45.13956" lon="5.9249">
        <ele>2007.3</ele>
        <time>2022-07-22T07:08:47.000Z</time>
      </trkpt>
      <trkpt lat="45.13955" lon="5.92491">
        <ele>2008</ele>
        <time>2022-07-22T07:08:57.000Z</time>
      </trkpt>
      <trkpt lat="45.13957" lon="5.92494">
        <ele>2010</ele>
        <time>2022-07-22T07:09:07.000Z</time>
      </trkpt>
      <trkpt lat="45.13957" lon="5.92498">
        <ele>2012.7</ele>
        <time>2022-07-22T07:09:17.000Z</time>
      </trkpt>
      <trkpt lat="45.13965" lon="5.92499">
        <ele>2012.9</ele>
        <time>2022-07-22T07:09:27.000Z</time>
      </trkpt>
      <trkpt lat="45.1397" lon="5.92495">
        <ele>2012</ele>
        <time>2022-07-22T07:09:28.000Z</time>
      </trkpt>
      <trkpt lat="45.13973" lon="5.92494">
        <ele>2009.9</ele>
        <time>2022-07-22T07:09:38.000Z</time>
      </trkpt>
      <trkpt lat="45.13972" lon="5.92505">
        <ele>2015.5</ele>
        <time>2022-07-22T07:09:48.000Z</time>
      </trkpt>
      <trkpt lat="45.13976" lon="5.92504">
        <ele>2016.1</ele>
        <time>2022-07-22T07:09:58.000Z</time>
      </trkpt>
      <trkpt lat="45.1398" lon="5.92502">
        <ele>2012</ele>
        <time>2022-07-22T07:10:08.000Z</time>
      </trkpt>
      <trkpt lat="45.13982" lon="5.92504">
        <ele>2017.8</ele>
        <time>2022-07-22T07:10:18.000Z</time>
      </trkpt>
      <trkpt lat="45.13982" lon="5.92508">
        <ele>2019.7</ele>
        <time>2022-07-22T07:10:28.000Z</time>
      </trkpt>
      <trkpt lat="45.13979" lon="5.92516">
        <ele>2022.9</ele>
        <time>2022-07-22T07:10:38.000Z</time>
      </trkpt>
      <trkpt lat="45.13976" lon="5.9252">
        <ele>2024.1</ele>
        <time>2022-07-22T07:10:48.000Z</time>
      </trkpt>
      <trkpt lat="45.13978" lon="5.92526">
        <ele>2030</ele>
        <time>2022-07-22T07:10:43.000Z</time>
      </trkpt>
      <trkpt lat="45.13981" lon="5.92528">
        <ele>2029.3</ele>
        <time>2022-07-22T07:10:53.000Z</time>
      </trkpt>
      <trkpt lat="45.1398" lon="5.92533">
        <ele>2030.1</ele>
        <time>2022-07-22T07:11:03.000Z</time>
      </trkpt>
      <trkpt lat="45.1398" lon="5.92536">
        <ele>2030.7</ele>
        <time>2022-07-22T07:11:13.000Z</time>
      </trkpt>
      <trkpt lat="45.13978" lon="5.92537">
        <ele>2030.4</ele>
        <time>2022-07-22T07:11:23.000Z</time>
      </trkpt>
      <trkpt lat="45.13976" lon="5.9254">
        <ele>2030.6</ele>
        <time>2022-07-22T07:11:33.000Z</time>
      </trkpt>
      <trkpt lat="45.13985" lon="5.92535">
        <ele>2030</ele>
        <time>2022-07-22T07:11:11.000Z</time>
      </trkpt>
      <trkpt lat="45.1399" lon="5.9253">
        <ele>2032</ele>
        <time>2022-07-22T07:11:21.000Z</time>
      </trkpt>
      <trkpt lat="45.13994" lon="5.92529">
        <ele>2032.8</ele>
        <time>2022-07-22T07:11:31.000Z</time>
      </trkpt>
      <trkpt lat="45.13995" lon="5.92531">
        <ele>2033.4</ele>
        <time>2022-07-22T07:11:41.000Z</time>
      </trkpt>
      <trkpt lat="45.13994" lon="5.92534">
        <ele>2033.8</ele>
        <time>2022-07-22T07:11:51.000Z</time>
      </trkpt>
      <trkpt lat="45.13996" lon="5.92534">
        <ele>2034.3</ele>
        <time>2022-07-22T07:12:01.000Z</time>
      </trkpt>
      <trkpt lat="45.13994" lon="5.92542">
        <ele>2038</ele>
        <time>2022-07-22T07:12:00.000Z</time>
      </trkpt>
      <trkpt lat="45.13997" lon="5.92545">
        <ele>2037</ele>
        <time>2022-07-22T07:12:10.000Z</time>
      </trkpt>
      <trkpt lat="45.14001" lon="5.92547">
        <ele>2038.2</ele>
        <time>2022-07-22T07:12:20.000Z</time>
      </trkpt>
      <trkpt lat="45.14002" lon="5.92552">
        <ele>2039.4</ele>
        <time>2022-07-22T07:12:30.000Z</time>
      </trkpt>
      <trkpt lat="45.14006" lon="5.9256">
        <ele>2041</ele>
        <time>2022-07-22T07:12:40.000Z</time>
      </trkpt>
      <trkpt lat="45.14022" lon="5.92567">
        <ele>2046</ele>
        <time>2022-07-22T07:12:45.000Z</time>
      </trkpt>
      <trkpt lat="45.14025" lon="5.92566">
        <ele>2045.4</ele>
        <time>2022-07-22T07:12:55.000Z</time>
      </trkpt>
      <trkpt lat="45.14029" lon="5.9257">
        <ele>2047.1</ele>
        <time>2022-07-22T07:13:05.000Z</time>
      </trkpt>
      <trkpt lat="45.14029" lon="5.92571">
        <ele>2047.4</ele>
        <time>2022-07-22T07:13:15.000Z</time>
      </trkpt>
      <trkpt lat="45.14037" lon="5.92577">
        <ele>2048.7</ele>
        <time>2022-07-22T07:13:25.000Z</time>
      </trkpt>
      <trkpt lat="45.14048" lon="5.92583">
        <ele>2049</ele>
        <time>2022-07-22T07:13:07.000Z</time>
      </trkpt>
      <trkpt lat="45.14054" lon="5.92585">
        <ele>2050.5</ele>
        <time>2022-07-22T07:13:17.000Z</time>
      </trkpt>
      <trkpt lat="45.14061" lon="5.92591">
        <ele>2050.8</ele>
        <time>2022-07-22T07:13:27.000Z</time>
      </trkpt>
      <trkpt lat="45.14063" lon="5.92592">
        <ele>2050.6</ele>
        <time>2022-07-22T07:13:37.000Z</time>
      </trkpt>
      <trkpt lat="45.14066" lon="5.92597">
        <ele>2049</ele>
        <time>2022-07-22T07:13:32.000Z</time>
      </trkpt>
      <trkpt lat="45.14073" lon="5.9261">
        <ele>2053.3</ele>
        <time>2022-07-22T07:13:42.000Z</time>
      </trkpt>
      <trkpt lat="45.14073" lon="5.92613">
        <ele>2054.1</ele>
        <time>2022-07-22T07:13:52.000Z</time>
      </trkpt>
      <trkpt lat="45.14071" lon="5.92616">
        <ele>2055.4</ele>
        <time>2022-07-22T07:14:02.000Z</time>
      </trkpt>
      <trkpt lat="45.1407" lon="5.92623">
        <ele>2050</ele>
        <time>2022-07-22T07:13:55.000Z</time>
      </trkpt>
      <trkpt lat="45.14071" lon="5.92627">
        <ele>2058.4</ele>
        <time>2022-07-22T07:14:05.000Z</time>
      </trkpt>
      <trkpt lat="45.14074" lon="5.92631">
        <ele>2058.8</ele>
        <time>2022-07-22T07:14:15.000Z</time>
      </trkpt>
      <trkpt lat="45.14074" lon="5.92632">
        <ele>2059.1</ele>
        <time>2022-07-22T07:14:25.000Z</time>
      </trkpt>
      <trkpt lat="45.14072" lon="5.92631">
        <ele>2059.3</ele>
        <time>2022-07-22T07:14:35.000Z</time>
      </trkpt>
      <trkpt lat="45.14068" lon="5.92631">
        <ele>2060.2</ele>
        <time>2022-07-22T07:14:45.000Z</time>
      </trkpt>
      <trkpt lat="45.14065" lon="5.92629">
        <ele>2060.3</ele>
        <time>2022-07-22T07:14:55.000Z</time>
      </trkpt>
      <trkpt lat="45.14063" lon="5.92626">
        <ele>2059</ele>
        <time>2022-07-22T07:14:23.000Z</time>
      </trkpt>
      <trkpt lat="45.14061" lon="5.92636">
        <ele>2063.1</ele>
        <time>2022-07-22T07:14:33.000Z</time>
      </trkpt>
      <trkpt lat="45.14062" lon="5.92643">
        <ele>2064.5</ele>
        <time>2022-07-22T07:14:43.000Z</time>
      </trkpt>
      <trkpt lat="45.14065" lon="5.92652">
        <ele>2068</ele>
        <time>2022-07-22T07:14:46.000Z</time>
      </trkpt>
      <trkpt lat="45.14067" lon="5.92664">
        <ele>2068.2</ele>
        <time>2022-07-22T07:14:56.000Z</time>
      </trkpt>
      <trkpt lat="45.14073" lon="5.92672">
        <ele>2069.7</ele>
        <time>2022-07-22T07:15:06.000Z</time>
      </trkpt>
      <trkpt lat="45.14076" lon="5.92672">
        <ele>2068</ele>
        <time>2022-07-22T07:15:10.000Z</time>
      </trkpt>
      <trkpt lat="45.14077" lon="5.92681">
        <ele>2071.6</ele>
        <time>2022-07-22T07:15:20.000Z</time>
      </trkpt>
      <trkpt lat="45.14085" lon="5.92695">
        <ele>2079</ele>
        <time>2022-07-22T07:15:30.000Z</time>
      </trkpt>
      <trkpt lat="45.1409" lon="5.92702">
        <ele>2073.1</ele>
        <time>2022-07-22T07:15:40.000Z</time>
      </trkpt>
      <trkpt lat="45.14091" lon="5.92705">
        <ele>2073.6</ele>
        <time>2022-07-22T07:15:50.000Z</time>
      </trkpt>
      <trkpt lat="45.14091" lon="5.92716">
        <ele>2077.4</ele>
        <time>2022-07-22T07:16:00.000Z</time>
      </trkpt>
      <trkpt lat="45.14094" lon="5.92729">
        <ele>2086</ele>
        <time>2022-07-22T07:16:07.000Z</time>
      </trkpt>
      <trkpt lat="45.14094" lon="5.92736">
        <ele>2081.9</ele>
        <time>2022-07-22T07:16:17.000Z</time>
      </trkpt>
      <trkpt lat="45.14098" lon="5.92745">
        <ele>2082.6</ele>
        <time>2022-07-22T07:16:27.000Z</time>
      </trkpt>
      <trkpt lat="45.141" lon="5.92756">
        <ele>2090</ele>
        <time>2022-07-22T07:16:31.000Z</time>
      </trkpt>
      <trkpt lat="45.14101" lon="5.92766">
        <ele>2086</ele>
        <time>2022-07-22T07:16:41.000Z</time>
      </trkpt>
      <trkpt lat="45.14101" lon="5.92774">
        <ele>2087.6</ele>
        <time>2022-07-22T07:16:51.000Z</time>
      </trkpt>
      <trkpt lat="45.14105" lon="5.92784">
        <ele>2095</ele>
        <time>2022-07-22T07:17:01.000Z</time>
      </trkpt>
      <trkpt lat="45.141" lon="5.92783">
        <ele>2090.3</ele>
        <time>2022-07-22T07:17:11.000Z</time>
      </trkpt>
      <trkpt lat="45.14096" lon="5.92781">
        <ele>2091.4</ele>
        <time>2022-07-22T07:17:21.000Z</time>
      </trkpt>
      <trkpt lat="45.14092" lon="5.92781">
        <ele>2093</ele>
        <time>2022-07-22T07:17:31.000Z</time>
      </trkpt>
      <trkpt lat="45.14088" lon="5.92779">
        <ele>2094.2</ele>
        <time>2022-07-22T07:17:41.000Z</time>
      </trkpt>
      <trkpt lat="45.14084" lon="5.92772">
        <ele>2106</ele>
        <time>2022-07-22T07:17:34.000Z</time>
      </trkpt>
      <trkpt lat="45.14076" lon="5.92771">
        <ele>2094.2</ele>
        <time>2022-07-22T07:17:44.000Z</time>
      </trkpt>
      <trkpt lat="45.14078" lon="5.92775">
        <ele>2095</ele>
        <time>2022-07-22T07:17:54.000Z</time>
      </trkpt>
      <trkpt lat="45.14077" lon="5.9278">
        <ele>2095.5</ele>
        <time>2022-07-22T07:18:04.000Z</time>
      </trkpt>
      <trkpt lat="45.14074" lon="5.92784">
        <ele>2106</ele>
        <time>2022-07-22T07:18:07.000Z</time>
      </trkpt>
      <trkpt lat="45.14075" lon="5.92788">
        <ele>2095.6</ele>
        <time>2022-07-22T07:18:17.000Z</time>
      </trkpt>
      <trkpt lat="45.14075" lon="5.92791">
        <ele>2095.7</ele>
        <time>2022-07-22T07:18:27.000Z</time>
      </trkpt>
      <trkpt lat="45.14077" lon="5.92795">
        <ele>2096.5</ele>
        <time>2022-07-22T07:18:37.000Z</time>
      </trkpt>
      <trkpt lat="45.14081" lon="5.92796">
        <ele>2097.9</ele>
        <time>2022-07-22T07:18:47.000Z</time>
      </trkpt>
      <trkpt lat="45.14082" lon="5.92806">
        <ele>2114</ele>
        <time>2022-07-22T07:18:35.000Z</time>
      </trkpt>
      <trkpt lat="45.14085" lon="5.92818">
        <ele>2100.8</ele>
        <time>2022-07-22T07:18:45.000Z</time>
      </trkpt>
      <trkpt lat="45.14089" lon="5.9282">
        <ele>2100.8</ele>
        <time>2022-07-22T07:18:55.000Z</time>
      </trkpt>
      <trkpt lat="45.14097" lon="5.92835">
        <ele>2121</ele>
        <time>2022-07-22T07:18:59.000Z</time>
      </trkpt>
      <trkpt lat="45.14101" lon="5.92839">
        <ele>2104</ele>
        <time>2022-07-22T07:19:09.000Z</time>
      </trkpt>
      <trkpt lat="45.14102" lon="5.92841">
        <ele>2104.4</ele>
        <time>2022-07-22T07:19:19.000Z</time>
      </trkpt>
      <trkpt lat="45.14106" lon="5.92859">
        <ele>2127</ele>
        <time>2022-07-22T07:19:21.000Z</time>
      </trkpt>
      <trkpt lat="45.14105" lon="5.92872">
        <ele>2109</ele>
        <time>2022-07-22T07:19:31.000Z</time>
      </trkpt>
      <trkpt lat="45.1411" lon="5.92881">
        <ele>2111.9</ele>
        <time>2022-07-22T07:19:41.000Z</time>
      </trkpt>
      <trkpt lat="45.14121" lon="5.9289">
        <ele>2134</ele>
        <time>2022-07-22T07:19:48.000Z</time>
      </trkpt>
      <trkpt lat="45.14121" lon="5.92905">
        <ele>2114.9</ele>
        <time>2022-07-22T07:19:58.000Z</time>
      </trkpt>
      <trkpt lat="45.14121" lon="5.92909">
        <ele>2115.2</ele>
        <time>2022-07-22T07:20:08.000Z</time>
      </trkpt>
      <trkpt lat="45.1412" lon="5.92918">
        <ele>2141</ele>
        <time>2022-07-22T07:20:36.000Z</time>
      </trkpt>
      <trkpt lat="45.14112" lon="5.92932">
        <ele>2115.2</ele>
        <time>2022-07-22T07:20:46.000Z</time>
      </trkpt>
      <trkpt lat="45.14121" lon="5.9293">
        <ele>2141</ele>
        <time>2022-07-22T07:21:56.000Z</time>
      </trkpt>
      <trkpt lat="45.14119" lon="5.9294">
        <ele>2116.9</ele>
        <time>2022-07-22T07:22:06.000Z</time>
      </trkpt>
      <trkpt lat="45.1412" lon="5.92935">
        <ele>2116.7</ele>
        <time>2022-07-22T07:22:16.000Z</time>
      </trkpt>
      <trkpt lat="45.14119" lon="5.92945">
        <ele>2117.3</ele>
        <time>2022-07-22T07:22:26.000Z</time>
      </trkpt>
      <trkpt lat="45.1412" lon="5.92949">
        <ele>2141</ele>
        <time>2022-07-22T07:25:19.000Z</time>
      </trkpt>
      <trkpt lat="45.14119" lon="5.92951">
        <ele>2118.6</ele>
        <time>2022-07-22T07:25:29.000Z</time>
      </trkpt>
      <trkpt lat="45.14121" lon="5.92958">
        <ele>2120</ele>
        <time>2022-07-22T07:25:39.000Z</time>
      </trkpt>
      <trkpt lat="45.1412" lon="5.9296">
        <ele>2120.6</ele>
        <time>2022-07-22T07:25:49.000Z</time>
      </trkpt>
      <trkpt lat="45.14118" lon="5.92959">
        <ele>2120.5</ele>
        <time>2022-07-22T07:25:59.000Z</time>
      </trkpt>
      <trkpt lat="45.14118" lon="5.92965">
        <ele>2122</ele>
        <time>2022-07-22T07:26:09.000Z</time>
      </trkpt>
      <trkpt lat="45.14119" lon="5.92968">
        <ele>2122.5</ele>
        <time>2022-07-22T07:26:19.000Z</time>
      </trkpt>
      <trkpt lat="45.14114" lon="5.92969">
        <ele>2142</ele>
        <time>2022-07-22T07:26:02.000Z</time>
      </trkpt>
      <trkpt lat="45.14112" lon="5.92974">
        <ele>2126.4</ele>
        <time>2022-07-22T07:26:12.000Z</time>
      </trkpt>
      <trkpt lat="45.14107" lon="5.92974">
        <ele>2127.3</ele>
        <time>2022-07-22T07:26:22.000Z</time>
      </trkpt>
      <trkpt lat="45.14106" lon="5.92976">
        <ele>2128.2</ele>
        <time>2022-07-22T07:26:32.000Z</time>
      </trkpt>
      <trkpt lat="45.14104" lon="5.92976">
        <ele>2128.5</ele>
        <time>2022-07-22T07:26:42.000Z</time>
      </trkpt>
      <trkpt lat="45.14099" lon="5.92983">
        <ele>2142</ele>
        <time>2022-07-22T07:26:42.000Z</time>
      </trkpt>
      <trkpt lat="45.14099" lon="5.92985">
        <ele>2132.8</ele>
        <time>2022-07-22T07:26:52.000Z</time>
      </trkpt>
      <trkpt lat="45.14102" lon="5.92988">
        <ele>2133.6</ele>
        <time>2022-07-22T07:27:02.000Z</time>
      </trkpt>
      <trkpt lat="45.14103" lon="5.92992">
        <ele>2135</ele>
        <time>2022-07-22T07:27:12.000Z</time>
      </trkpt>
      <trkpt lat="45.14103" lon="5.92995">
        <ele>2136.2</ele>
        <time>2022-07-22T07:27:22.000Z</time>
      </trkpt>
      <trkpt lat="45.14106" lon="5.92999">
        <ele>2137.3</ele>
        <time>2022-07-22T07:27:32.000Z</time>
      </trkpt>
      <trkpt lat="45.14105" lon="5.93002">
        <ele>2138.5</ele>
        <time>2022-07-22T07:27:42.000Z</time>
      </trkpt>
      <trkpt lat="45.14095" lon="5.93008">
        <ele>2152</ele>
        <time>2022-07-22T07:27:39.000Z</time>
      </trkpt>
      <trkpt lat="45.14094" lon="5.93012">
        <ele>2144</ele>
        <time>2022-07-22T07:27:49.000Z</time>
      </trkpt>
      <trkpt lat="45.14092" lon="5.93014">
        <ele>2145.2</ele>
        <time>2022-07-22T07:27:59.000Z</time>
      </trkpt>
      <trkpt lat="45.14091" lon="5.93024">
        <ele>2149.3</ele>
        <time>2022-07-22T07:28:09.000Z</time>
      </trkpt>
      <trkpt lat="45.14088" lon="5.93028">
        <ele>2151.7</ele>
        <time>2022-07-22T07:28:19.000Z</time>
      </trkpt>
      <trkpt lat="45.14085" lon="5.93029">
        <ele>2163</ele>
        <time>2022-07-22T07:28:29.000Z</time>
      </trkpt>
      <trkpt lat="45.14073" lon="5.93036">
        <ele>2154.3</ele>
        <time>2022-07-22T07:28:39.000Z</time>
      </trkpt>
      <trkpt lat="45.14071" lon="5.93039">
        <ele>2154.9</ele>
        <time>2022-07-22T07:28:49.000Z</time>
      </trkpt>
      <trkpt lat="45.1407" lon="5.93044">
        <ele>2163</ele>
        <time>2022-07-22T07:29:02.000Z</time>
      </trkpt>
      <trkpt lat="45.14066" lon="5.93048">
        <ele>2156.8</ele>
        <time>2022-07-22T07:29:12.000Z</time>
      </trkpt>
      <trkpt lat="45.14062" lon="5.93067">
        <ele>2161.6</ele>
        <time>2022-07-22T07:29:22.000Z</time>
      </trkpt>
      <trkpt lat="45.14059" lon="5.93073">
        <ele>2173</ele>
        <time>2022-07-22T07:29:26.000Z</time>
      </trkpt>
      <trkpt lat="45.14048" lon="5.93088">
        <ele>2167.6</ele>
        <time>2022-07-22T07:29:36.000Z</time>
      </trkpt>
      <trkpt lat="45.14048" lon="5.93091">
        <ele>2168.6</ele>
        <time>2022-07-22T07:29:46.000Z</time>
      </trkpt>
      <trkpt lat="45.14049" lon="5.93096">
        <ele>2184</ele>
        <time>2022-07-22T07:29:58.000Z</time>
      </trkpt>
      <trkpt lat="45.14049" lon="5.93098">
        <ele>2170.9</ele>
        <time>2022-07-22T07:30:08.000Z</time>
      </trkpt>
      <trkpt lat="45.14047" lon="5.93099">
        <ele>2171.4</ele>
        <time>2022-07-22T07:30:18.000Z</time>
      </trkpt>
      <trkpt lat="45.14047" lon="5.93101">
        <ele>2172</ele>
        <time>2022-07-22T07:30:28.000Z</time>
      </trkpt>
      <trkpt lat="45.14048" lon="5.93104">
        <ele>2172.9</ele>
        <time>2022-07-22T07:30:38.000Z</time>
      </trkpt>
      <trkpt lat="45.14043" lon="5.9311">
        <ele>2175.1</ele>
        <time>2022-07-22T07:30:48.000Z</time>
      </trkpt>
      <trkpt lat="45.14044" lon="5.93111">
        <ele>2175.4</ele>
        <time>2022-07-22T07:30:58.000Z</time>
      </trkpt>
      <trkpt lat="45.14042" lon="5.9312">
        <ele>2194</ele>
        <time>2022-07-22T07:30:37.000Z</time>
      </trkpt>
      <trkpt lat="45.14039" lon="5.93124">
        <ele>2180.6</ele>
        <time>2022-07-22T07:30:47.000Z</time>
      </trkpt>
      <trkpt lat="45.14038" lon="5.93128">
        <ele>2182.1</ele>
        <time>2022-07-22T07:30:57.000Z</time>
      </trkpt>
      <trkpt lat="45.14039" lon="5.9313">
        <ele>2183</ele>
        <time>2022-07-22T07:31:07.000Z</time>
      </trkpt>
      <trkpt lat="45.14035" lon="5.9314">
        <ele>2186.1</ele>
        <time>2022-07-22T07:31:17.000Z</time>
      </trkpt>
      <trkpt lat="45.14026" lon="5.93145">
        <ele>2205</ele>
        <time>2022-07-22T07:31:18.000Z</time>
      </trkpt>
      <trkpt lat="45.1402" lon="5.93146">
        <ele>2185.9</ele>
        <time>2022-07-22T07:31:28.000Z</time>
      </trkpt>
      <trkpt lat="45.14019" lon="5.93151">
        <ele>2187.5</ele>
        <time>2022-07-22T07:31:38.000Z</time>
      </trkpt>
      <trkpt lat="45.14015" lon="5.93164">
        <ele>2209</ele>
        <time>2022-07-22T07:31:45.000Z</time>
      </trkpt>
      <trkpt lat="45.14015" lon="5.93168">
        <ele>2192.3</ele>
        <time>2022-07-22T07:31:55.000Z</time>
      </trkpt>
      <trkpt lat="45.14011" lon="5.93171">
        <ele>2192.3</ele>
        <time>2022-07-22T07:32:05.000Z</time>
      </trkpt>
      <trkpt lat="45.14009" lon="5.93176">
        <ele>2193.5</ele>
        <time>2022-07-22T07:32:15.000Z</time>
      </trkpt>
      <trkpt lat="45.14007" lon="5.93184">
        <ele>2195.7</ele>
        <time>2022-07-22T07:32:25.000Z</time>
      </trkpt>
      <trkpt lat="45.13998" lon="5.93196">
        <ele>2211</ele>
        <time>2022-07-22T07:32:50.000Z</time>
      </trkpt>
      <trkpt lat="45.13996" lon="5.93204">
        <ele>2202.3</ele>
        <time>2022-07-22T07:33:00.000Z</time>
      </trkpt>
      <trkpt lat="45.13988" lon="5.93208">
        <ele>2203.2</ele>
        <time>2022-07-22T07:33:10.000Z</time>
      </trkpt>
      <trkpt lat="45.13985" lon="5.93217">
        <ele>2218</ele>
        <time>2022-07-22T07:33:44.000Z</time>
      </trkpt>
      <trkpt lat="45.13985" lon="5.9322">
        <ele>2208.1</ele>
        <time>2022-07-22T07:33:54.000Z</time>
      </trkpt>
      <trkpt lat="45.13981" lon="5.93227">
        <ele>2210.6</ele>
        <time>2022-07-22T07:34:04.000Z</time>
      </trkpt>
      <trkpt lat="45.13979" lon="5.93229">
        <ele>2210.8</ele>
        <time>2022-07-22T07:34:14.000Z</time>
      </trkpt>
      <trkpt lat="45.13976" lon="5.93236">
        <ele>2213</ele>
        <time>2022-07-22T07:34:24.000Z</time>
      </trkpt>
      <trkpt lat="45.13973" lon="5.93238">
        <ele>2218</ele>
        <time>2022-07-22T07:34:32.000Z</time>
      </trkpt>
      <trkpt lat="45.13971" lon="5.93244">
        <ele>2214.3</ele>
        <time>2022-07-22T07:34:42.000Z</time>
      </trkpt>
      <trkpt lat="45.13974" lon="5.93258">
        <ele>2223.9</ele>
        <time>2022-07-22T07:34:52.000Z</time>
      </trkpt>
      <trkpt lat="45.13973" lon="5.93261">
        <ele>2225.1</ele>
        <time>2022-07-22T07:35:02.000Z</time>
      </trkpt>
      <trkpt lat="45.13968" lon="5.93265">
        <ele>2229</ele>
        <time>2022-07-22T07:34:57.000Z</time>
      </trkpt>
      <trkpt lat="45.13962" lon="5.93268">
        <ele>2224.9</ele>
        <time>2022-07-22T07:35:07.000Z</time>
      </trkpt>
      <trkpt lat="45.13958" lon="5.93274">
        <ele>2225.7</ele>
        <time>2022-07-22T07:35:17.000Z</time>
      </trkpt>
      <trkpt lat="45.1396" lon="5.93275">
        <ele>2227.2</ele>
        <time>2022-07-22T07:35:27.000Z</time>
      </trkpt>
      <trkpt lat="45.13962" lon="5.93275">
        <ele>2228.4</ele>
        <time>2022-07-22T07:35:37.000Z</time>
      </trkpt>
      <trkpt lat="45.13961" lon="5.93285">
        <ele>2244</ele>
        <time>2022-07-22T07:35:34.000Z</time>
      </trkpt>
      <trkpt lat="45.13964" lon="5.93286">
        <ele>2233.2</ele>
        <time>2022-07-22T07:35:44.000Z</time>
      </trkpt>
      <trkpt lat="45.13968" lon="5.9329">
        <ele>2237</ele>
        <time>2022-07-22T07:35:54.000Z</time>
      </trkpt>
      <trkpt lat="45.13964" lon="5.93299">
        <ele>2236.7</ele>
        <time>2022-07-22T07:36:04.000Z</time>
      </trkpt>
      <trkpt lat="45.13956" lon="5.93311">
        <ele>2251</ele>
        <time>2022-07-22T07:36:02.000Z</time>
      </trkpt>
      <trkpt lat="45.13957" lon="5.93319">
        <ele>2238</ele>
        <time>2022-07-22T07:36:12.000Z</time>
      </trkpt>
      <trkpt lat="45.13955" lon="5.93325">
        <ele>2238.6</ele>
        <time>2022-07-22T07:36:22.000Z</time>
      </trkpt>
      <trkpt lat="45.13956" lon="5.93332">
        <ele>2242.1</ele>
        <time>2022-07-22T07:36:32.000Z</time>
      </trkpt>
      <trkpt lat="45.13953" lon="5.93336">
        <ele>2255</ele>
        <time>2022-07-22T07:36:59.000Z</time>
      </trkpt>
      <trkpt lat="45.13953" lon="5.93339">
        <ele>2242</ele>
        <time>2022-07-22T07:37:09.000Z</time>
      </trkpt>
      <trkpt lat="45.1395" lon="5.93343">
        <ele>2240.7</ele>
        <time>2022-07-22T07:37:19.000Z</time>
      </trkpt>
      <trkpt lat="45.13949" lon="5.93348">
        <ele>2241.3</ele>
        <time>2022-07-22T07:37:29.000Z</time>
      </trkpt>
      <trkpt lat="45.13945" lon="5.93352">
        <ele>2238.9</ele>
        <time>2022-07-22T07:37:39.000Z</time>
      </trkpt>
      <trkpt lat="45.13945" lon="5.93355">
        <ele>2239.8</ele>
        <time>2022-07-22T07:37:49.000Z</time>
      </trkpt>
      <trkpt lat="45.13946" lon="5.93357">
        <ele>2241.3</ele>
        <time>2022-07-22T07:37:59.000Z</time>
      </trkpt>
      <trkpt lat="45.13943" lon="5.93364">
        <ele>2260</ele>
        <time>2022-07-22T07:37:25.000Z</time>
      </trkpt>
      <trkpt lat="45.13945" lon="5.93375">
        <ele>2246</ele>
        <time>2022-07-22T07:37:35.000Z</time>
      </trkpt>
      <trkpt lat="45.13944" lon="5.93381">
        <ele>2247.3</ele>
        <time>2022-07-22T07:37:45.000Z</time>
      </trkpt>
      <trkpt lat="45.13944" lon="5.93392">
        <ele>2276</ele>
        <time>2022-07-22T07:37:59.000Z</time>
      </trkpt>
      <trkpt lat="45.13943" lon="5.93397">
        <ele>2253.1</ele>
        <time>2022-07-22T07:38:09.000Z</time>
      </trkpt>
      <trkpt lat="45.13944" lon="5.93402">
        <ele>2255.5</ele>
        <time>2022-07-22T07:38:19.000Z</time>
      </trkpt>
      <trkpt lat="45.13947" lon="5.93404">
        <ele>2258</ele>
        <time>2022-07-22T07:38:29.000Z</time>
      </trkpt>
      <trkpt lat="45.1395" lon="5.93404">
        <ele>2259.7</ele>
        <time>2022-07-22T07:38:39.000Z</time>
      </trkpt>
      <trkpt lat="45.13948" lon="5.93408">
        <ele>2260.1</ele>
        <time>2022-07-22T07:38:49.000Z</time>
      </trkpt>
      <trkpt lat="45.13949" lon="5.93411">
        <ele>2292</ele>
        <time>2022-07-22T07:38:47.000Z</time>
      </trkpt>
      <trkpt lat="45.13947" lon="5.93428">
        <ele>2266.3</ele>
        <time>2022-07-22T07:38:57.000Z</time>
      </trkpt>
      <trkpt lat="45.13943" lon="5.93436">
        <ele>2292</ele>
        <time>2022-07-22T07:39:08.000Z</time>
      </trkpt>
      <trkpt lat="45.13941" lon="5.93446">
        <ele>2269.9</ele>
        <time>2022-07-22T07:39:18.000Z</time>
      </trkpt>
      <trkpt lat="45.13941" lon="5.93451">
        <ele>2271.7</ele>
        <time>2022-07-22T07:39:28.000Z</time>
      </trkpt>
      <trkpt lat="45.13938" lon="5.93458">
        <ele>2273.5</ele>
        <time>2022-07-22T07:39:38.000Z</time>
      </trkpt>
      <trkpt lat="45.1394" lon="5.93459">
        <ele>2274.3</ele>
        <time>2022-07-22T07:39:48.000Z</time>
      </trkpt>
      <trkpt lat="45.13933" lon="5.93468">
        <ele>2296</ele>
        <time>2022-07-22T07:40:06.000Z</time>
      </trkpt>
      <trkpt lat="45.13931" lon="5.93476">
        <ele>2277.8</ele>
        <time>2022-07-22T07:40:16.000Z</time>
      </trkpt>
      <trkpt lat="45.13931" lon="5.93478">
        <ele>2278.4</ele>
        <time>2022-07-22T07:40:26.000Z</time>
      </trkpt>
      <trkpt lat="45.13927" lon="5.93486">
        <ele>2279.6</ele>
        <time>2022-07-22T07:40:36.000Z</time>
      </trkpt>
      <trkpt lat="45.13923" lon="5.93491">
        <ele>2296</ele>
        <time>2022-07-22T07:40:35.000Z</time>
      </trkpt>
      <trkpt lat="45.13923" lon="5.93495">
        <ele>2280.9</ele>
        <time>2022-07-22T07:40:45.000Z</time>
      </trkpt>
      <trkpt lat="45.13914" lon="5.93513">
        <ele>2284.1</ele>
        <time>2022-07-22T07:40:55.000Z</time>
      </trkpt>
      <trkpt lat="45.13916" lon="5.93523">
        <ele>2297</ele>
        <time>2022-07-22T07:41:10.000Z</time>
      </trkpt>
      <trkpt lat="45.13915" lon="5.93528">
        <ele>2288.1</ele>
        <time>2022-07-22T07:41:20.000Z</time>
      </trkpt>
      <trkpt lat="45.1391" lon="5.93537">
        <ele>2290.2</ele>
        <time>2022-07-22T07:41:30.000Z</time>
      </trkpt>
      <trkpt lat="45.13898" lon="5.93545">
        <ele>2301</ele>
        <time>2022-07-22T07:41:40.000Z</time>
      </trkpt>
      <trkpt lat="45.13897" lon="5.93556">
        <ele>2293</ele>
        <time>2022-07-22T07:41:50.000Z</time>
      </trkpt>
      <trkpt lat="45.13896" lon="5.9356">
        <ele>2294.1</ele>
        <time>2022-07-22T07:42:00.000Z</time>
      </trkpt>
      <trkpt lat="45.13893" lon="5.93564">
        <ele>2294.6</ele>
        <time>2022-07-22T07:42:10.000Z</time>
      </trkpt>
      <trkpt lat="45.13893" lon="5.93568">
        <ele>2295.7</ele>
        <time>2022-07-22T07:42:20.000Z</time>
      </trkpt>
      <trkpt lat="45.13892" lon="5.93572">
        <ele>2307</ele>
        <time>2022-07-22T07:42:43.000Z</time>
      </trkpt>
      <trkpt lat="45.13893" lon="5.93574">
        <ele>2297.2</ele>
        <time>2022-07-22T07:42:53.000Z</time>
      </trkpt>
      <trkpt lat="45.13892" lon="5.93582">
        <ele>2298.9</ele>
        <time>2022-07-22T07:43:03.000Z</time>
      </trkpt>
      <trkpt lat="45.13892" lon="5.93596">
        <ele>2304.4</ele>
        <time>2022-07-22T07:43:13.000Z</time>
      </trkpt>
      <trkpt lat="45.13895" lon="5.93595">
        <ele>2307</ele>
        <time>2022-07-22T07:43:01.000Z</time>
      </trkpt>
      <trkpt lat="45.13895" lon="5.93603">
        <ele>2308.5</ele>
        <time>2022-07-22T07:43:11.000Z</time>
      </trkpt>
      <trkpt lat="45.13894" lon="5.93607">
        <ele>2309.7</ele>
        <time>2022-07-22T07:43:21.000Z</time>
      </trkpt>
      <trkpt lat="45.13894" lon="5.93622">
        <ele>2310</ele>
        <time>2022-07-22T07:44:20.000Z</time>
      </trkpt>
      <trkpt lat="45.13896" lon="5.93626">
        <ele>2318.9</ele>
        <time>2022-07-22T07:44:30.000Z</time>
      </trkpt>
      <trkpt lat="45.13897" lon="5.93626">
        <ele>2319.4</ele>
        <time>2022-07-22T07:44:40.000Z</time>
      </trkpt>
      <trkpt lat="45.13901" lon="5.93627">
        <ele>2321.8</ele>
        <time>2022-07-22T07:44:50.000Z</time>
      </trkpt>
      <trkpt lat="45.13901" lon="5.93627">
        <ele>2321.8</ele>
        <time>2022-07-22T07:45:00.000Z</time>
      </trkpt>
      <trkpt lat="45.13907" lon="5.93629">
        <ele>2325.6</ele>
        <time>2022-07-22T07:45:10.000Z</time>
      </trkpt>
      <trkpt lat="45.13906" lon="5.93625">
        <ele>2323.3</ele>
        <time>2022-07-22T07:45:20.000Z</time>
      </trkpt>
      <trkpt lat="45.13909" lon="5.93626">
        <ele>2310</ele>
        <time>2022-07-22T07:45:21.000Z</time>
      </trkpt>
      <trkpt lat="45.13907" lon="5.93648">
        <ele>2334.4</ele>
        <time>2022-07-22T07:45:31.000Z</time>
      </trkpt>
      <trkpt lat="45.13917" lon="5.93663">
        <ele>2319</ele>
        <time>2022-07-22T07:45:54.000Z</time>
      </trkpt>
      <trkpt lat="45.1391" lon="5.93662">
        <ele>2342.7</ele>
        <time>2022-07-22T07:46:04.000Z</time>
      </trkpt>
      <trkpt lat="45.13912" lon="5.93665">
        <ele>2345.3</ele>
        <time>2022-07-22T07:46:14.000Z</time>
      </trkpt>
      <trkpt lat="45.13909" lon="5.9367">
        <ele>2345.6</ele>
        <time>2022-07-22T07:46:24.000Z</time>
      </trkpt>
      <trkpt lat="45.13906" lon="5.9367">
        <ele>2343.8</ele>
        <time>2022-07-22T07:46:34.000Z</time>
      </trkpt>
      <trkpt lat="45.13893" lon="5.93663">
        <ele>2329</ele>
        <time>2022-07-22T07:46:13.000Z</time>
      </trkpt>
      <trkpt lat="45.1389" lon="5.93665">
        <ele>2332</ele>
        <time>2022-07-22T07:46:23.000Z</time>
      </trkpt>
      <trkpt lat="45.1389" lon="5.9367">
        <ele>2333.8</ele>
        <time>2022-07-22T07:46:33.000Z</time>
      </trkpt>
      <trkpt lat="45.13896" lon="5.9368">
        <ele>2341</ele>
        <time>2022-07-22T07:46:43.000Z</time>
      </trkpt>
      <trkpt lat="45.13895" lon="5.9368">
        <ele>2340.4</ele>
        <time>2022-07-22T07:46:53.000Z</time>
      </trkpt>
      <trkpt lat="45.13896" lon="5.93683">
        <ele>2329</ele>
        <time>2022-07-22T07:47:13.000Z</time>
      </trkpt>
      <trkpt lat="45.13895" lon="5.93688">
        <ele>2343.2</ele>
        <time>2022-07-22T07:47:23.000Z</time>
      </trkpt>
      <trkpt lat="45.13893" lon="5.93688">
        <ele>2341.8</ele>
        <time>2022-07-22T07:47:33.000Z</time>
      </trkpt>
      <trkpt lat="45.13894" lon="5.93689">
        <ele>2342.8</ele>
        <time>2022-07-22T07:47:43.000Z</time>
      </trkpt>
      <trkpt lat="45.13892" lon="5.93691">
        <ele>2342.1</ele>
        <time>2022-07-22T07:47:53.000Z</time>
      </trkpt>
      <trkpt lat="45.13891" lon="5.93694">
        <ele>2342.4</ele>
        <time>2022-07-22T07:48:03.000Z</time>
      </trkpt>
      <trkpt lat="45.13891" lon="5.93699">
        <ele>2343.9</ele>
        <time>2022-07-22T07:48:13.000Z</time>
      </trkpt>
      <trkpt lat="45.13893" lon="5.93702">
        <ele>2346.3</ele>
        <time>2022-07-22T07:48:23.000Z</time>
      </trkpt>
      <trkpt lat="45.13892" lon="5.93707">
        <ele>2337</ele>
        <time>2022-07-22T07:47:53.000Z</time>
      </trkpt>
      <trkpt lat="45.13893" lon="5.93709">
        <ele>2348.4</ele>
        <time>2022-07-22T07:48:03.000Z</time>
      </trkpt>
      <trkpt lat="45.13888" lon="5.93721">
        <ele>2348.2</ele>
        <time>2022-07-22T07:48:13.000Z</time>
      </trkpt>
      <trkpt lat="45.13883" lon="5.93729">
        <ele>2349</ele>
        <time>2022-07-22T07:47:54.000Z</time>
      </trkpt>
      <trkpt lat="45.13879" lon="5.93758">
        <ele>2362</ele>
        <time>2022-07-22T07:48:47.000Z</time>
      </trkpt>
      <trkpt lat="45.1387" lon="5.93767">
        <ele>2356.6</ele>
        <time>2022-07-22T07:48:57.000Z</time>
      </trkpt>
      <trkpt lat="45.13868" lon="5.93781">
        <ele>2364</ele>
        <time>2022-07-22T07:49:09.000Z</time>
      </trkpt>
      <trkpt lat="45.13868" lon="5.93783">
        <ele>2360</ele>
        <time>2022-07-22T07:49:19.000Z</time>
      </trkpt>
      <trkpt lat="45.1387" lon="5.93785">
        <ele>2361</ele>
        <time>2022-07-22T07:49:29.000Z</time>
      </trkpt>
      <trkpt lat="45.13866" lon="5.93793">
        <ele>2360.9</ele>
        <time>2022-07-22T07:49:39.000Z</time>
      </trkpt>
      <trkpt lat="45.13867" lon="5.93801">
        <ele>2362.4</ele>
        <time>2022-07-22T07:49:49.000Z</time>
      </trkpt>
      <trkpt lat="45.13862" lon="5.93807">
        <ele>2368</ele>
        <time>2022-07-22T07:49:56.000Z</time>
      </trkpt>
      <trkpt lat="45.13861" lon="5.93812">
        <ele>2362.2</ele>
        <time>2022-07-22T07:50:06.000Z</time>
      </trkpt>
      <trkpt lat="45.13864" lon="5.9382">
        <ele>2364.6</ele>
        <time>2022-07-22T07:50:16.000Z</time>
      </trkpt>
      <trkpt lat="45.13863" lon="5.93825">
        <ele>2365.2</ele>
        <time>2022-07-22T07:50:26.000Z</time>
      </trkpt>
      <trkpt lat="45.13866" lon="5.93836">
        <ele>2369</ele>
        <time>2022-07-22T07:50:36.000Z</time>
      </trkpt>
      <trkpt lat="45.13869" lon="5.93835">
        <ele>2368.5</ele>
        <time>2022-07-22T07:50:46.000Z</time>
      </trkpt>
      <trkpt lat="45.1387" lon="5.93839">
        <ele>2368</ele>
        <time>2022-07-22T07:50:56.000Z</time>
      </trkpt>
      <trkpt lat="45.13873" lon="5.93842">
        <ele>2368.2</ele>
        <time>2022-07-22T07:51:06.000Z</time>
      </trkpt>
      <trkpt lat="45.13874" lon="5.93846">
        <ele>2367.5</ele>
        <time>2022-07-22T07:51:16.000Z</time>
      </trkpt>
      <trkpt lat="45.13872" lon="5.93852">
        <ele>2365.7</ele>
        <time>2022-07-22T07:51:26.000Z</time>
      </trkpt>
      <trkpt lat="45.13872" lon="5.93857">
        <ele>2369</ele>
        <time>2022-07-22T07:51:25.000Z</time>
      </trkpt>
      <trkpt lat="45.13873" lon="5.93861">
        <ele>2363.7</ele>
        <time>2022-07-22T07:51:35.000Z</time>
      </trkpt>
      <trkpt lat="45.13874" lon="5.93856">
        <ele>2365.1</ele>
        <time>2022-07-22T07:51:45.000Z</time>
      </trkpt>
      <trkpt lat="45.13877" lon="5.93854">
        <ele>2366.2</ele>
        <time>2022-07-22T07:51:55.000Z</time>
      </trkpt>
      <trkpt lat="45.13877" lon="5.93856">
        <ele>2365.7</ele>
        <time>2022-07-22T07:52:05.000Z</time>
      </trkpt>
      <trkpt lat="45.1388" lon="5.9385">
        <ele>2368</ele>
        <time>2022-07-22T07:52:15.000Z</time>
      </trkpt>
      <trkpt lat="45.1388" lon="5.93857">
        <ele>2372</ele>
        <time>2022-07-22T07:54:53.000Z</time>
      </trkpt>
      <trkpt lat="45.13884" lon="5.93859">
        <ele>2366</ele>
        <time>2022-07-22T07:55:03.000Z</time>
      </trkpt>
      <trkpt lat="45.13885" lon="5.93862">
        <ele>2364.9</ele>
        <time>2022-07-22T07:55:13.000Z</time>
      </trkpt>
      <trkpt lat="45.13884" lon="5.93866">
        <ele>2362.1</ele>
        <time>2022-07-22T07:55:23.000Z</time>
      </trkpt>
      <trkpt lat="45.13887" lon="5.93865">
        <ele>2363.2</ele>
        <time>2022-07-22T07:55:33.000Z</time>
      </trkpt>
      <trkpt lat="45.13885" lon="5.93875">
        <ele>2372</ele>
        <time>2022-07-22T07:59:27.000Z</time>
      </trkpt>
      <trkpt lat="45.13889" lon="5.93875">
        <ele>2357</ele>
        <time>2022-07-22T07:59:37.000Z</time>
      </trkpt>
      <trkpt lat="45.13892" lon="5.93873">
        <ele>2358.9</ele>
        <time>2022-07-22T07:59:47.000Z</time>
      </trkpt>
      <trkpt lat="45.13896" lon="5.93873">
        <ele>2359.6</ele>
        <time>2022-07-22T07:59:57.000Z</time>
      </trkpt>
      <trkpt lat="45.13894" lon="5.93883">
        <ele>2352.3</ele>
        <time>2022-07-22T08:00:07.000Z</time>
      </trkpt>
      <trkpt lat="45.13892" lon="5.93889">
        <ele>2359</ele>
        <time>2022-07-22T07:59:44.000Z</time>
      </trkpt>
      <trkpt lat="45.139" lon="5.93885">
        <ele>2351.3</ele>
        <time>2022-07-22T07:59:54.000Z</time>
      </trkpt>
      <trkpt lat="45.13903" lon="5.93881">
        <ele>2354.6</ele>
        <time>2022-07-22T08:00:04.000Z</time>
      </trkpt>
      <trkpt lat="45.13905" lon="5.93883">
        <ele>2353.3</ele>
        <time>2022-07-22T08:00:14.000Z</time>
      </trkpt>
      <trkpt lat="45.13903" lon="5.93888">
        <ele>2359</ele>
        <time>2022-07-22T08:00:10.000Z</time>
      </trkpt>
      <trkpt lat="45.13895" lon="5.93898">
        <ele>2342</ele>
        <time>2022-07-22T08:00:20.000Z</time>
      </trkpt>
      <trkpt lat="45.13895" lon="5.93899">
        <ele>2341.3</ele>
        <time>2022-07-22T08:00:30.000Z</time>
      </trkpt>
      <trkpt lat="45.13904" lon="5.93895">
        <ele>2359</ele>
        <time>2022-07-22T08:00:27.000Z</time>
      </trkpt>
      <trkpt lat="45.13906" lon="5.93891">
        <ele>2347.1</ele>
        <time>2022-07-22T08:00:37.000Z</time>
      </trkpt>
      <trkpt lat="45.13909" lon="5.93889">
        <ele>2348.6</ele>
        <time>2022-07-22T08:00:47.000Z</time>
      </trkpt>
      <trkpt lat="45.1392" lon="5.93891">
        <ele>2348.7</ele>
        <time>2022-07-22T08:00:57.000Z</time>
      </trkpt>
      <trkpt lat="45.13923" lon="5.93894">
        <ele>2364</ele>
        <time>2022-07-22T08:00:47.000Z</time>
      </trkpt>
      <trkpt lat="45.13936" lon="5.93901">
        <ele>2346.8</ele>
        <time>2022-07-22T08:00:57.000Z</time>
      </trkpt>
      <trkpt lat="45.13939" lon="5.93904">
        <ele>2345.4</ele>
        <time>2022-07-22T08:01:07.000Z</time>
      </trkpt>
      <trkpt lat="45.13943" lon="5.93902">
        <ele>2359</ele>
        <time>2022-07-22T08:01:06.000Z</time>
      </trkpt>
      <trkpt lat="45.13945" lon="5.93903">
        <ele>2348.3</ele>
        <time>2022-07-22T08:01:16.000Z</time>
      </trkpt>
      <trkpt lat="45.13947" lon="5.93909">
        <ele>2342.7</ele>
        <time>2022-07-22T08:01:26.000Z</time>
      </trkpt>
      <trkpt lat="45.13949" lon="5.93913">
        <ele>2339</ele>
        <time>2022-07-22T08:01:36.000Z</time>
      </trkpt>
      <trkpt lat="45.13953" lon="5.93918">
        <ele>2334.4</ele>
        <time>2022-07-22T08:01:46.000Z</time>
      </trkpt>
      <trkpt lat="45.13956" lon="5.9392">
        <ele>2332.7</ele>
        <time>2022-07-22T08:01:56.000Z</time>
      </trkpt>
      <trkpt lat="45.13969" lon="5.9392">
        <ele>2364</ele>
        <time>2022-07-22T08:01:35.000Z</time>
      </trkpt>
      <trkpt lat="45.13979" lon="5.93918">
        <ele>2334.1</ele>
        <time>2022-07-22T08:01:45.000Z</time>
      </trkpt>
      <trkpt lat="45.1399" lon="5.93918">
        <ele>2370</ele>
        <time>2022-07-22T08:01:54.000Z</time>
      </trkpt>
      <trkpt lat="45.1399" lon="5.93923">
        <ele>2333.1</ele>
        <time>2022-07-22T08:02:04.000Z</time>
      </trkpt>
      <trkpt lat="45.13991" lon="5.93925">
        <ele>2332.2</ele>
        <time>2022-07-22T08:02:14.000Z</time>
      </trkpt>
      <trkpt lat="45.13996" lon="5.93927">
        <ele>2332.3</ele>
        <time>2022-07-22T08:02:24.000Z</time>
      </trkpt>
      <trkpt lat="45.14002" lon="5.93932">
        <ele>2331.9</ele>
        <time>2022-07-22T08:02:34.000Z</time>
      </trkpt>
      <trkpt lat="45.14004" lon="5.93936">
        <ele>2370</ele>
        <time>2022-07-22T08:02:26.000Z</time>
      </trkpt>
      <trkpt lat="45.14009" lon="5.93943">
        <ele>2331.1</ele>
        <time>2022-07-22T08:02:36.000Z</time>
      </trkpt>
      <trkpt lat="45.14011" lon="5.93953">
        <ele>2328.8</ele>
        <time>2022-07-22T08:02:46.000Z</time>
      </trkpt>
      <trkpt lat="45.14012" lon="5.93963">
        <ele>2365</ele>
        <time>2022-07-22T08:02:58.000Z</time>
      </trkpt>
      <trkpt lat="45.14015" lon="5.93974">
        <ele>2324.2</ele>
        <time>2022-07-22T08:03:08.000Z</time>
      </trkpt>
      <trkpt lat="45.14017" lon="5.93976">
        <ele>2325</ele>
        <time>2022-07-22T08:03:18.000Z</time>
      </trkpt>
      <trkpt lat="45.14022" lon="5.93987">
        <ele>2360</ele>
        <time>2022-07-22T08:03:16.000Z</time>
      </trkpt>
      <trkpt lat="45.14026" lon="5.93998">
        <ele>2326.1</ele>
        <time>2022-07-22T08:03:26.000Z</time>
      </trkpt>
      <trkpt lat="45.14028" lon="5.94">
        <ele>2327.3</ele>
        <time>2022-07-22T08:03:36.000Z</time>
      </trkpt>
      <trkpt lat="45.14028" lon="5.94002">
        <ele>2327</ele>
        <time>2022-07-22T08:03:46.000Z</time>
      </trkpt>
      <trkpt lat="45.14026" lon="5.94009">
        <ele>2324.3</ele>
        <time>2022-07-22T08:03:56.000Z</time>
      </trkpt>
      <trkpt lat="45.14021" lon="5.9402">
        <ele>2336</ele>
        <time>2022-07-22T08:03:40.000Z</time>
      </trkpt>
      <trkpt lat="45.14021" lon="5.94023">
        <ele>2318.4</ele>
        <time>2022-07-22T08:03:50.000Z</time>
      </trkpt>
      <trkpt lat="45.14023" lon="5.94027">
        <ele>2319.3</ele>
        <time>2022-07-22T08:04:00.000Z</time>
      </trkpt>
      <trkpt lat="45.14023" lon="5.9403">
        <ele>2318.7</ele>
        <time>2022-07-22T08:04:10.000Z</time>
      </trkpt>
      <trkpt lat="45.14022" lon="5.94032">
        <ele>2317.4</ele>
        <time>2022-07-22T08:04:20.000Z</time>
      </trkpt>
      <trkpt lat="45.14023" lon="5.94049">
        <ele>2336</ele>
        <time>2022-07-22T08:04:17.000Z</time>
      </trkpt>
      <trkpt lat="45.14022" lon="5.94063">
        <ele>2312</ele>
        <time>2022-07-22T08:04:27.000Z</time>
      </trkpt>
      <trkpt lat="45.14023" lon="5.94067">
        <ele>2312.9</ele>
        <time>2022-07-22T08:04:37.000Z</time>
      </trkpt>
      <trkpt lat="45.14022" lon="5.9407">
        <ele>2312.1</ele>
        <time>2022-07-22T08:04:47.000Z</time>
      </trkpt>
      <trkpt lat="45.14021" lon="5.94079">
        <ele>2328</ele>
        <time>2022-07-22T08:04:43.000Z</time>
      </trkpt>
      <trkpt lat="45.14019" lon="5.94085">
        <ele>2309.4</ele>
        <time>2022-07-22T08:04:53.000Z</time>
      </trkpt>
      <trkpt lat="45.1402" lon="5.94092">
        <ele>2310.2</ele>
        <time>2022-07-22T08:05:03.000Z</time>
      </trkpt>
      <trkpt lat="45.14019" lon="5.941">
        <ele>2309.1</ele>
        <time>2022-07-22T08:05:13.000Z</time>
      </trkpt>
      <trkpt lat="45.14013" lon="5.94106">
        <ele>2318</ele>
        <time>2022-07-22T08:05:11.000Z</time>
      </trkpt>
      <trkpt lat="45.14007" lon="5.94124">
        <ele>2298.8</ele>
        <time>2022-07-22T08:05:21.000Z</time>
      </trkpt>
      <trkpt lat="45.14006" lon="5.94136">
        <ele>2309</ele>
        <time>2022-07-22T08:05:43.000Z</time>
      </trkpt>
      <trkpt lat="45.14002" lon="5.94143">
        <ele>2295.9</ele>
        <time>2022-07-22T08:05:53.000Z</time>
      </trkpt>
      <trkpt lat="45.14" lon="5.94156">
        <ele>2294.6</ele>
        <time>2022-07-22T08:06:03.000Z</time>
      </trkpt>
      <trkpt lat="45.14" lon="5.94167">
        <ele>2304</ele>
        <time>2022-07-22T08:06:09.000Z</time>
      </trkpt>
      <trkpt lat="45.13999" lon="5.94171">
        <ele>2293.6</ele>
        <time>2022-07-22T08:06:19.000Z</time>
      </trkpt>
      <trkpt lat="45.14" lon="5.94181">
        <ele>2293.5</ele>
        <time>2022-07-22T08:06:29.000Z</time>
      </trkpt>
      <trkpt lat="45.14" lon="5.9419">
        <ele>2292.5</ele>
        <time>2022-07-22T08:06:39.000Z</time>
      </trkpt>
      <trkpt lat="45.14001" lon="5.94194">
        <ele>2298</ele>
        <time>2022-07-22T08:06:26.000Z</time>
      </trkpt>
      <trkpt lat="45.14004" lon="5.94217">
        <ele>2290</ele>
        <time>2022-07-22T08:06:36.000Z</time>
      </trkpt>
      <trkpt lat="45.14006" lon="5.94218">
        <ele>2291.6</ele>
        <time>2022-07-22T08:06:46.000Z</time>
      </trkpt>
      <trkpt lat="45.1401" lon="5.94226">
        <ele>2295</ele>
        <time>2022-07-22T08:06:47.000Z</time>
      </trkpt>
      <trkpt lat="45.14009" lon="5.94234">
        <ele>2293.1</ele>
        <time>2022-07-22T08:06:57.000Z</time>
      </trkpt>
      <trkpt lat="45.14008" lon="5.94236">
        <ele>2292.1</ele>
        <time>2022-07-22T08:07:07.000Z</time>
      </trkpt>
      <trkpt lat="45.14007" lon="5.94245">
        <ele>2290.9</ele>
        <time>2022-07-22T08:07:17.000Z</time>
      </trkpt>
      <trkpt lat="45.14007" lon="5.94253">
        <ele>2289</ele>
        <time>2022-07-22T08:07:48.000Z</time>
      </trkpt>
      <trkpt lat="45.14008" lon="5.94268">
        <ele>2293.3</ele>
        <time>2022-07-22T08:07:58.000Z</time>
      </trkpt>
      <trkpt lat="45.14004" lon="5.9427">
        <ele>2289.8</ele>
        <time>2022-07-22T08:08:08.000Z</time>
      </trkpt>
      <trkpt lat="45.13999" lon="5.94281">
        <ele>2284</ele>
        <time>2022-07-22T08:08:15.000Z</time>
      </trkpt>
      <trkpt lat="45.13999" lon="5.94298">
        <ele>2287.5</ele>
        <time>2022-07-22T08:08:25.000Z</time>
      </trkpt>
      <trkpt lat="45.13994" lon="5.94312">
        <ele>2282</ele>
        <time>2022-07-22T08:08:45.000Z</time>
      </trkpt>
      <trkpt lat="45.13986" lon="5.9432">
        <ele>2277.4</ele>
        <time>2022-07-22T08:08:55.000Z</time>
      </trkpt>
      <trkpt lat="45.13984" lon="5.94321">
        <ele>2275.9</ele>
        <time>2022-07-22T08:09:05.000Z</time>
      </trkpt>
      <trkpt lat="45.13983" lon="5.94323">
        <ele>2275.2</ele>
        <time>2022-07-22T08:09:15.000Z</time>
      </trkpt>
      <trkpt lat="45.13983" lon="5.94325">
        <ele>2275.4</ele>
        <time>2022-07-22T08:09:25.000Z</time>
      </trkpt>
      <trkpt lat="45.1399" lon="5.94339">
        <ele>2281</ele>
        <time>2022-07-22T08:09:08.000Z</time>
      </trkpt>
      <trkpt lat="45.13993" lon="5.94353">
        <ele>2280.2</ele>
        <time>2022-07-22T08:09:18.000Z</time>
      </trkpt>
      <trkpt lat="45.13992" lon="5.94358">
        <ele>2278.5</ele>
        <time>2022-07-22T08:09:28.000Z</time>
      </trkpt>
      <trkpt lat="45.13994" lon="5.94367">
        <ele>2281</ele>
        <time>2022-07-22T08:09:38.000Z</time>
      </trkpt>
      <trkpt lat="45.13995" lon="5.94381">
        <ele>2277.6</ele>
        <time>2022-07-22T08:09:48.000Z</time>
      </trkpt>
      <trkpt lat="45.13993" lon="5.94384">
        <ele>2275.4</ele>
        <time>2022-07-22T08:09:58.000Z</time>
      </trkpt>
      <trkpt lat="45.13989" lon="5.94379">
        <ele>2272.7</ele>
        <time>2022-07-22T08:10:08.000Z</time>
      </trkpt>
      <trkpt lat="45.13983" lon="5.94375">
        <ele>2255</ele>
        <time>2022-07-22T08:10:26.000Z</time>
      </trkpt>
      <trkpt lat="45.13982" lon="5.94376">
        <ele>2267.4</ele>
        <time>2022-07-22T08:10:36.000Z</time>
      </trkpt>
      <trkpt lat="45.13978" lon="5.9437">
        <ele>2265.4</ele>
        <time>2022-07-22T08:10:46.000Z</time>
      </trkpt>
      <trkpt lat="45.13975" lon="5.9437">
        <ele>2263</ele>
        <time>2022-07-22T08:10:56.000Z</time>
      </trkpt>
      <trkpt lat="45.13973" lon="5.94372">
        <ele>2260.9</ele>
        <time>2022-07-22T08:11:06.000Z</time>
      </trkpt>
      <trkpt lat="45.13973" lon="5.94371">
        <ele>2261.1</ele>
        <time>2022-07-22T08:11:16.000Z</time>
      </trkpt>
      <trkpt lat="45.13971" lon="5.94378">
        <ele>2257.9</ele>
        <time>2022-07-22T08:11:26.000Z</time>
      </trkpt>
      <trkpt lat="45.13969" lon="5.94379">
        <ele>2255</ele>
        <time>2022-07-22T08:11:24.000Z</time>
      </trkpt>
      <trkpt lat="45.13967" lon="5.94374">
        <ele>2256.1</ele>
        <time>2022-07-22T08:11:34.000Z</time>
      </trkpt>
      <trkpt lat="45.1396" lon="5.94362">
        <ele>2254.4</ele>
        <time>2022-07-22T08:11:44.000Z</time>
      </trkpt>
      <trkpt lat="45.13953" lon="5.94354">
        <ele>2233</ele>
        <time>2022-07-22T08:11:55.000Z</time>
      </trkpt>
      <trkpt lat="45.13952" lon="5.94352">
        <ele>2250.8</ele>
        <time>2022-07-22T08:12:05.000Z</time>
      </trkpt>
      <trkpt lat="45.13953" lon="5.94358">
        <ele>2250.4</ele>
        <time>2022-07-22T08:12:15.000Z</time>
      </trkpt>
      <trkpt lat="45.13959" lon="5.94377">
        <ele>2233</ele>
        <time>2022-07-22T08:12:12.000Z</time>
      </trkpt>
      <trkpt lat="45.13961" lon="5.94386">
        <ele>2248.7</ele>
        <time>2022-07-22T08:12:22.000Z</time>
      </trkpt>
      <trkpt lat="45.13963" lon="5.94391">
        <ele>2249</ele>
        <time>2022-07-22T08:12:32.000Z</time>
      </trkpt>
      <trkpt lat="45.13966" lon="5.94417">
        <ele>2239</ele>
        <time>2022-07-22T08:12:37.000Z</time>
      </trkpt>
      <trkpt lat="45.13965" lon="5.94435">
        <ele>2244.1</ele>
        <time>2022-07-22T08:12:47.000Z</time>
      </trkpt>
      <trkpt lat="45.13965" lon="5.94455">
        <ele>2237</ele>
        <time>2022-07-22T08:13:12.000Z</time>
      </trkpt>
      <trkpt lat="45.13963" lon="5.94469">
        <ele>2237.2</ele>
        <time>2022-07-22T08:13:22.000Z</time>
      </trkpt>
      <trkpt lat="45.13963" lon="5.94474">
        <ele>2236.3</ele>
        <time>2022-07-22T08:13:32.000Z</time>
      </trkpt>
      <trkpt lat="45.13965" lon="5.94479">
        <ele>2236.9</ele>
        <time>2022-07-22T08:13:42.000Z</time>
      </trkpt>
      <trkpt lat="45.13966" lon="5.94493">
        <ele>2236</ele>
        <time>2022-07-22T08:13:30.000Z</time>
      </trkpt>
      <trkpt lat="45.13967" lon="5.94497">
        <ele>2234.7</ele>
        <time>2022-07-22T08:13:40.000Z</time>
      </trkpt>
      <trkpt lat="45.1397" lon="5.94504">
        <ele>2235.5</ele>
        <time>2022-07-22T08:13:50.000Z</time>
      </trkpt>
      <trkpt lat="45.13971" lon="5.94509">
        <ele>2235.1</ele>
        <time>2022-07-22T08:14:00.000Z</time>
      </trkpt>
      <trkpt lat="45.1397" lon="5.94511">
        <ele>2234</ele>
        <time>2022-07-22T08:14:10.000Z</time>
      </trkpt>
      <trkpt lat="45.13962" lon="5.9451">
        <ele>2236</ele>
        <time>2022-07-22T08:13:57.000Z</time>
      </trkpt>
      <trkpt lat="45.13957" lon="5.94508">
        <ele>2224.9</ele>
        <time>2022-07-22T08:14:07.000Z</time>
      </trkpt>
      <trkpt lat="45.13957" lon="5.94506">
        <ele>2225.3</ele>
        <time>2022-07-22T08:14:17.000Z</time>
      </trkpt>
      <trkpt lat="45.1396" lon="5.94518">
        <ele>2225.2</ele>
        <time>2022-07-22T08:14:27.000Z</time>
      </trkpt>
      <trkpt lat="45.1396" lon="5.94521">
        <ele>2224.6</ele>
        <time>2022-07-22T08:14:37.000Z</time>
      </trkpt>
      <trkpt lat="45.13956" lon="5.9452">
        <ele>2213</ele>
        <time>2022-07-22T08:14:40.000Z</time>
      </trkpt>
      <trkpt lat="45.13955" lon="5.94522">
        <ele>2220.7</ele>
        <time>2022-07-22T08:14:50.000Z</time>
      </trkpt>
      <trkpt lat="45.13955" lon="5.94525">
        <ele>2220.1</ele>
        <time>2022-07-22T08:15:00.000Z</time>
      </trkpt>
      <trkpt lat="45.13953" lon="5.9453">
        <ele>2217.5</ele>
        <time>2022-07-22T08:15:10.000Z</time>
      </trkpt>
      <trkpt lat="45.13951" lon="5.94531">
        <ele>2215.7</ele>
        <time>2022-07-22T08:15:20.000Z</time>
      </trkpt>
      <trkpt lat="45.13948" lon="5.9453">
        <ele>2213.9</ele>
        <time>2022-07-22T08:15:30.000Z</time>
      </trkpt>
      <trkpt lat="45.13945" lon="5.94532">
        <ele>2211</ele>
        <time>2022-07-22T08:15:40.000Z</time>
      </trkpt>
      <trkpt lat="45.13943" lon="5.94538">
        <ele>2213</ele>
        <time>2022-07-22T08:15:41.000Z</time>
      </trkpt>
      <trkpt lat="45.1394" lon="5.94538">
        <ele>2206</ele>
        <time>2022-07-22T08:15:51.000Z</time>
      </trkpt>
      <trkpt lat="45.13938" lon="5.94535">
        <ele>2205.6</ele>
        <time>2022-07-22T08:16:01.000Z</time>
      </trkpt>
      <trkpt lat="45.13938" lon="5.94538">
        <ele>2204.8</ele>
        <time>2022-07-22T08:16:11.000Z</time>
      </trkpt>
      <trkpt lat="45.13935" lon="5.9454">
        <ele>2202.5</ele>
        <time>2022-07-22T08:16:21.000Z</time>
      </trkpt>
      <trkpt lat="45.13936" lon="5.94542">
        <ele>2202.5</ele>
        <time>2022-07-22T08:16:31.000Z</time>
      </trkpt>
      <trkpt lat="45.13939" lon="5.94544">
        <ele>2203.7</ele>
        <time>2022-07-22T08:16:41.000Z</time>
      </trkpt>
      <trkpt lat="45.13947" lon="5.94554">
        <ele>2208</ele>
        <time>2022-07-22T08:16:01.000Z</time>
      </trkpt>
      <trkpt lat="45.13949" lon="5.9456">
        <ele>2204.6</ele>
        <time>2022-07-22T08:16:11.000Z</time>
      </trkpt>
      <trkpt lat="45.13952" lon="5.94577">
        <ele>2199.4</ele>
        <time>2022-07-22T08:16:21.000Z</time>
      </trkpt>
      <trkpt lat="45.1395" lon="5.94579">
        <ele>2199</ele>
        <time>2022-07-22T08:16:00.000Z</time>
      </trkpt>
      <trkpt lat="45.13945" lon="5.94569">
        <ele>2198.1</ele>
        <time>2022-07-22T08:16:10.000Z</time>
      </trkpt>
      <trkpt lat="45.13941" lon="5.94565">
        <ele>2197.6</ele>
        <time>2022-07-22T08:16:20.000Z</time>
      </trkpt>
      <trkpt lat="45.1393" lon="5.94558">
        <ele>2199</ele>
        <time>2022-07-22T08:16:33.000Z</time>
      </trkpt>
      <trkpt lat="45.13936" lon="5.94562">
        <ele>2196.4</ele>
        <time>2022-07-22T08:16:43.000Z</time>
      </trkpt>
      <trkpt lat="45.13943" lon="5.94571">
        <ele>2196.2</ele>
        <time>2022-07-22T08:16:53.000Z</time>
      </trkpt>
      <trkpt lat="45.13943" lon="5.94577">
        <ele>2199</ele>
        <time>2022-07-22T08:16:53.000Z</time>
      </trkpt>
      <trkpt lat="45.13947" lon="5.9459">
        <ele>2189.9</ele>
        <time>2022-07-22T08:17:03.000Z</time>
      </trkpt>
      <trkpt lat="45.13953" lon="5.946">
        <ele>2185</ele>
        <time>2022-07-22T08:17:09.000Z</time>
      </trkpt>
      <trkpt lat="45.13953" lon="5.94602">
        <ele>2185.3</ele>
        <time>2022-07-22T08:17:19.000Z</time>
      </trkpt>
      <trkpt lat="45.1395" lon="5.94602">
        <ele>2184.4</ele>
        <time>2022-07-22T08:17:29.000Z</time>
      </trkpt>
      <trkpt lat="45.13946" lon="5.94598">
        <ele>2185.2</ele>
        <time>2022-07-22T08:17:39.000Z</time>
      </trkpt>
      <trkpt lat="45.13947" lon="5.94602">
        <ele>2183.4</ele>
        <time>2022-07-22T08:17:49.000Z</time>
      </trkpt>
      <trkpt lat="45.13944" lon="5.94601">
        <ele>2182.9</ele>
        <time>2022-07-22T08:17:59.000Z</time>
      </trkpt>
      <trkpt lat="45.13939" lon="5.94594">
        <ele>2185</ele>
        <time>2022-07-22T08:17:46.000Z</time>
      </trkpt>
      <trkpt lat="45.13938" lon="5.9459">
        <ele>2185.3</ele>
        <time>2022-07-22T08:17:56.000Z</time>
      </trkpt>
      <trkpt lat="45.13937" lon="5.94591">
        <ele>2184.2</ele>
        <time>2022-07-22T08:18:06.000Z</time>
      </trkpt>
      <trkpt lat="45.13939" lon="5.94601">
        <ele>2180.1</ele>
        <time>2022-07-22T08:18:16.000Z</time>
      </trkpt>
      <trkpt lat="45.13944" lon="5.94615">
        <ele>2185</ele>
        <time>2022-07-22T08:17:54.000Z</time>
      </trkpt>
      <trkpt lat="45.13952" lon="5.94623">
        <ele>2171.3</ele>
        <time>2022-07-22T08:18:04.000Z</time>
      </trkpt>
      <trkpt lat="45.13955" lon="5.94623">
        <ele>2171.7</ele>
        <time>2022-07-22T08:18:14.000Z</time>
      </trkpt>
      <trkpt lat="45.13962" lon="5.94616">
        <ele>2193</ele>
        <time>2022-07-22T08:18:23.000Z</time>
      </trkpt>
      <trkpt lat="45.13964" lon="5.94616">
        <ele>2178</ele>
        <time>2022-07-22T08:18:33.000Z</time>
      </trkpt>
      <trkpt lat="45.13968" lon="5.94614">
        <ele>2180.1</ele>
        <time>2022-07-22T08:18:43.000Z</time>
      </trkpt>
      <trkpt lat="45.13983" lon="5.94625">
        <ele>2193</ele>
        <time>2022-07-22T08:18:34.000Z</time>
      </trkpt>
      <trkpt lat="45.13987" lon="5.94634">
        <ele>2173.5</ele>
        <time>2022-07-22T08:18:44.000Z</time>
      </trkpt>
      <trkpt lat="45.13988" lon="5.94641">
        <ele>2170.5</ele>
        <time>2022-07-22T08:18:54.000Z</time>
      </trkpt>
      <trkpt lat="45.13992" lon="5.94647">
        <ele>2171.2</ele>
        <time>2022-07-22T08:19:04.000Z</time>
      </trkpt>
      <trkpt lat="45.13998" lon="5.94668">
        <ele>2179</ele>
        <time>2022-07-22T08:19:37.000Z</time>
      </trkpt>
      <trkpt lat="45.14" lon="5.94673">
        <ele>2168.9</ele>
        <time>2022-07-22T08:19:47.000Z</time>
      </trkpt>
      <trkpt lat="45.14002" lon="5.94675">
        <ele>2169.5</ele>
        <time>2022-07-22T08:19:57.000Z</time>
      </trkpt>
      <trkpt lat="45.14006" lon="5.94688">
        <ele>2167.8</ele>
        <time>2022-07-22T08:20:07.000Z</time>
      </trkpt>
      <trkpt lat="45.14013" lon="5.94707">
        <ele>2167</ele>
        <time>2022-07-22T08:20:14.000Z</time>
      </trkpt>
      <trkpt lat="45.14013" lon="5.9472">
        <ele>2162.5</ele>
        <time>2022-07-22T08:20:24.000Z</time>
      </trkpt>
      <trkpt lat="45.14015" lon="5.94729">
        <ele>2161.7</ele>
        <time>2022-07-22T08:20:34.000Z</time>
      </trkpt>
      <trkpt lat="45.14016" lon="5.94732">
        <ele>2161.7</ele>
        <time>2022-07-22T08:20:44.000Z</time>
      </trkpt>
      <trkpt lat="45.14019" lon="5.94735">
        <ele>2167</ele>
        <time>2022-07-22T08:20:42.000Z</time>
      </trkpt>
      <trkpt lat="45.14021" lon="5.94742">
        <ele>2162.9</ele>
        <time>2022-07-22T08:20:52.000Z</time>
      </trkpt>
      <trkpt lat="45.14022" lon="5.94769">
        <ele>2159</ele>
        <time>2022-07-22T08:20:51.000Z</time>
      </trkpt>
      <trkpt lat="45.14024" lon="5.94786">
        <ele>2158.1</ele>
        <time>2022-07-22T08:21:01.000Z</time>
      </trkpt>
      <trkpt lat="45.14021" lon="5.94788">
        <ele>2155.6</ele>
        <time>2022-07-22T08:21:11.000Z</time>
      </trkpt>
      <trkpt lat="45.14027" lon="5.94812">
        <ele>2152</ele>
        <time>2022-07-22T08:21:37.000Z</time>
      </trkpt>
      <trkpt lat="45.14028" lon="5.9482">
        <ele>2155.6</ele>
        <time>2022-07-22T08:21:47.000Z</time>
      </trkpt>
      <trkpt lat="45.14031" lon="5.94821">
        <ele>2157.7</ele>
        <time>2022-07-22T08:21:57.000Z</time>
      </trkpt>
      <trkpt lat="45.14034" lon="5.94825">
        <ele>2159.2</ele>
        <time>2022-07-22T08:22:07.000Z</time>
      </trkpt>
      <trkpt lat="45.14036" lon="5.94833">
        <ele>2159.3</ele>
        <time>2022-07-22T08:22:17.000Z</time>
      </trkpt>
      <trkpt lat="45.14043" lon="5.94847">
        <ele>2148</ele>
        <time>2022-07-22T08:27:57.000Z</time>
      </trkpt>
      <trkpt lat="45.14044" lon="5.94868">
        <ele>2161.1</ele>
        <time>2022-07-22T08:28:07.000Z</time>
      </trkpt>
      <trkpt lat="45.14048" lon="5.94874">
        <ele>2148</ele>
        <time>2022-07-22T08:28:29.000Z</time>
      </trkpt>
      <trkpt lat="45.14056" lon="5.94894">
        <ele>2165.8</ele>
        <time>2022-07-22T08:28:39.000Z</time>
      </trkpt>
      <trkpt lat="45.14058" lon="5.94894">
        <ele>2167.2</ele>
        <time>2022-07-22T08:28:49.000Z</time>
      </trkpt>
      <trkpt lat="45.1406" lon="5.94897">
        <ele>2163</ele>
        <time>2022-07-22T08:29:31.000Z</time>
      </trkpt>
      <trkpt lat="45.14061" lon="5.94891">
        <ele>2169.7</ele>
        <time>2022-07-22T08:29:41.000Z</time>
      </trkpt>
      <trkpt lat="45.14062" lon="5.94893">
        <ele>2170.2</ele>
        <time>2022-07-22T08:29:51.000Z</time>
      </trkpt>
      <trkpt lat="45.14064" lon="5.94893">
        <ele>2171.7</ele>
        <time>2022-07-22T08:30:01.000Z</time>
      </trkpt>
      <trkpt lat="45.14066" lon="5.94889">
        <ele>2173.5</ele>
        <time>2022-07-22T08:30:11.000Z</time>
      </trkpt>
      <trkpt lat="45.1407" lon="5.94905">
        <ele>2171</ele>
        <time>2022-07-22T08:30:42.000Z</time>
      </trkpt>
      <trkpt lat="45.14069" lon="5.94909">
        <ele>2173.9</ele>
        <time>2022-07-22T08:30:52.000Z</time>
      </trkpt>
      <trkpt lat="45.14071" lon="5.94917">
        <ele>2174.6</ele>
        <time>2022-07-22T08:31:02.000Z</time>
      </trkpt>
      <trkpt lat="45.14074" lon="5.94922">
        <ele>2176.2</ele>
        <time>2022-07-22T08:31:12.000Z</time>
      </trkpt>
      <trkpt lat="45.14076" lon="5.94922">
        <ele>2177.7</ele>
        <time>2022-07-22T08:31:22.000Z</time>
      </trkpt>
      <trkpt lat="45.14078" lon="5.94927">
        <ele>2175</ele>
        <time>2022-07-22T08:31:09.000Z</time>
      </trkpt>
      <trkpt lat="45.14081" lon="5.9493">
        <ele>2180.4</ele>
        <time>2022-07-22T08:31:19.000Z</time>
      </trkpt>
      <trkpt lat="45.14082" lon="5.94936">
        <ele>2180.2</ele>
        <time>2022-07-22T08:31:29.000Z</time>
      </trkpt>
      <trkpt lat="45.14086" lon="5.94944">
        <ele>2182.2</ele>
        <time>2022-07-22T08:31:39.000Z</time>
      </trkpt>
      <trkpt lat="45.14088" lon="5.94956">
        <ele>2179</ele>
        <time>2022-07-22T08:32:27.000Z</time>
      </trkpt>
      <trkpt lat="45.1409" lon="5.94959">
        <ele>2184.2</ele>
        <time>2022-07-22T08:32:37.000Z</time>
      </trkpt>
      <trkpt lat="45.14092" lon="5.94966">
        <ele>2185.3</ele>
        <time>2022-07-22T08:32:47.000Z</time>
      </trkpt>
      <trkpt lat="45.14093" lon="5.94979">
        <ele>2185.6</ele>
        <time>2022-07-22T08:32:57.000Z</time>
      </trkpt>
      <trkpt lat="45.14092" lon="5.94981">
        <ele>2182</ele>
        <time>2022-07-22T08:32:49.000Z</time>
      </trkpt>
      <trkpt lat="45.14095" lon="5.94988">
        <ele>2187</ele>
        <time>2022-07-22T08:32:59.000Z</time>
      </trkpt>
      <trkpt lat="45.14101" lon="5.94994">
        <ele>2191.5</ele>
        <time>2022-07-22T08:33:09.000Z</time>
      </trkpt>
      <trkpt lat="45.141" lon="5.95004">
        <ele>2187</ele>
        <time>2022-07-22T08:33:26.000Z</time>
      </trkpt>
      <trkpt lat="45.14104" lon="5.95009">
        <ele>2193.6</ele>
        <time>2022-07-22T08:33:36.000Z</time>
      </trkpt>
      <trkpt lat="45.14104" lon="5.95011">
        <ele>2193.6</ele>
        <time>2022-07-22T08:33:46.000Z</time>
      </trkpt>
      <trkpt lat="45.14112" lon="5.95029">
        <ele>2202</ele>
        <time>2022-07-22T08:33:55.000Z</time>
      </trkpt>
      <trkpt lat="45.14116" lon="5.95046">
        <ele>2204.3</ele>
        <time>2022-07-22T08:34:05.000Z</time>
      </trkpt>
      <trkpt lat="45.14117" lon="5.95053">
        <ele>2205.3</ele>
        <time>2022-07-22T08:34:15.000Z</time>
      </trkpt>
      <trkpt lat="45.14115" lon="5.95061">
        <ele>2208</ele>
        <time>2022-07-22T08:34:26.000Z</time>
      </trkpt>
      <trkpt lat="45.14113" lon="5.95065">
        <ele>2203.4</ele>
        <time>2022-07-22T08:34:36.000Z</time>
      </trkpt>
      <trkpt lat="45.14111" lon="5.95075">
        <ele>2203</ele>
        <time>2022-07-22T08:34:46.000Z</time>
      </trkpt>
      <trkpt lat="45.14122" lon="5.95092">
        <ele>2220</ele>
        <time>2022-07-22T08:34:56.000Z</time>
      </trkpt>
      <trkpt lat="45.14132" lon="5.9515">
        <ele>2254</ele>
        <time>2022-07-22T08:35:06.000Z</time>
      </trkpt>
      <trkpt lat="45.14158" lon="5.95164">
        <ele>2265</ele>
        <time>2022-07-22T08:35:16.000Z</time>
      </trkpt>
      <trkpt lat="45.14196" lon="5.95185">
        <ele>2282</ele>
        <time>2022-07-22T08:35:26.000Z</time>
      </trkpt>
      <trkpt lat="45.14207" lon="5.95176">
        <ele>2283.4</ele>
        <time>2022-07-22T08:35:36.000Z</time>
      </trkpt>
      <trkpt lat="45.14225" lon="5.95151">
        <ele>2296</ele>
        <time>2022-07-22T08:35:46.000Z</time>
      </trkpt>
      <trkpt lat="45.14235" lon="5.95156">
        <ele>2302.1</ele>
        <time>2022-07-22T08:35:56.000Z</time>
      </trkpt>
      <trkpt lat="45.1425" lon="5.95145">
        <ele>2321</ele>
        <time>2022-07-22T08:36:06.000Z</time>
      </trkpt>
      <trkpt lat="45.14268" lon="5.95151">
        <ele>2332.6</ele>
        <time>2022-07-22T08:36:16.000Z</time>
      </trkpt>
      <trkpt lat="45.14276" lon="5.95159">
        <ele>2360</ele>
        <time>2022-07-22T08:36:26.000Z</time>
      </trkpt>
      <trkpt lat="45.1429" lon="5.95157">
        <ele>2351.9</ele>
        <time>2022-07-22T08:36:36.000Z</time>
      </trkpt>
      <trkpt lat="45.1431" lon="5.9515">
        <ele>2394</ele>
        <time>2022-07-22T08:36:46.000Z</time>
      </trkpt>
      <trkpt lat="45.14338" lon="5.9515">
        <ele>2416</ele>
        <time>2022-07-22T08:36:56.000Z</time>
      </trkpt>
      <trkpt lat="45.14345" lon="5.95162">
        <ele>2405.6</ele>
        <time>2022-07-22T08:37:06.000Z</time>
      </trkpt>
      <trkpt lat="45.14365" lon="5.95171">
        <ele>2432</ele>
        <time>2022-07-22T08:37:16.000Z</time>
      </trkpt>
      <trkpt lat="45.14357" lon="5.95194">
        <ele>2421.2</ele>
        <time>2022-07-22T08:37:26.000Z</time>
      </trkpt>
      <trkpt lat="45.14387" lon="5.95188">
        <ele>2436</ele>
        <time>2022-07-22T08:37:36.000Z</time>
      </trkpt>
      <trkpt lat="45.14387" lon="5.95191">
        <ele>2438.3</ele>
        <time>2022-07-22T08:37:46.000Z</time>
      </trkpt>
      <trkpt lat="45.14386" lon="5.95196">
        <ele>2437.8</ele>
        <time>2022-07-22T08:37:56.000Z</time>
      </trkpt>
      <trkpt lat="45.14392" lon="5.9522">
        <ele>2433</ele>
        <time>2022-07-22T08:38:06.000Z</time>
      </trkpt>
      <trkpt lat="45.14395" lon="5.95226">
        <ele>2440.3</ele>
        <time>2022-07-22T08:38:16.000Z</time>
      </trkpt>
      <trkpt lat="45.14396" lon="5.9523">
        <ele>2440.5</ele>
        <time>2022-07-22T08:38:26.000Z</time>
      </trkpt>
      <trkpt lat="45.14404" lon="5.9524">
        <ele>2437.8</ele>
        <time>2022-07-22T08:38:36.000Z</time>
      </trkpt>
      <trkpt lat="45.14413" lon="5.95237">
        <ele>2435</ele>
        <time>2022-07-22T08:38:46.000Z</time>
      </trkpt>
      <trkpt lat="45.14415" lon="5.95238">
        <ele>2430.8</ele>
        <time>2022-07-22T08:38:56.000Z</time>
      </trkpt>
      <trkpt lat="45.14422" lon="5.95236">
        <ele>2425.3</ele>
        <time>2022-07-22T08:39:06.000Z</time>
      </trkpt>
      <trkpt lat="45.14427" lon="5.95236">
        <ele>2421.3</ele>
        <time>2022-07-22T08:39:16.000Z</time>
      </trkpt>
      <trkpt lat="45.14431" lon="5.95238">
        <ele>2418.5</ele>
        <time>2022-07-22T08:39:26.000Z</time>
      </trkpt>
      <trkpt lat="45.14429" lon="5.95241">
        <ele>2428</ele>
        <time>2022-07-22T08:39:36.000Z</time>
      </trkpt>
      <trkpt lat="45.14432" lon="5.95242">
        <ele>2418.4</ele>
        <time>2022-07-22T08:39:46.000Z</time>
      </trkpt>
      <trkpt lat="45.14437" lon="5.95241">
        <ele>2414.3</ele>
        <time>2022-07-22T08:39:56.000Z</time>
      </trkpt>
      <trkpt lat="45.14448" lon="5.95243">
        <ele>2422</ele>
        <time>2022-07-22T08:40:06.000Z</time>
      </trkpt>
      <trkpt lat="45.14458" lon="5.95257">
        <ele>2400.1</ele>
        <time>2022-07-22T08:40:16.000Z</time>
      </trkpt>
      <trkpt lat="45.14461" lon="5.95263">
        <ele>2414</ele>
        <time>2022-07-22T08:40:26.000Z</time>
      </trkpt>
      <trkpt lat="45.14461" lon="5.95265">
        <ele>2400.1</ele>
        <time>2022-07-22T08:40:36.000Z</time>
      </trkpt>
      <trkpt lat="45.14465" lon="5.9527">
        <ele>2398.3</ele>
        <time>2022-07-22T08:40:46.000Z</time>
      </trkpt>
      <trkpt lat="45.14463" lon="5.9527">
        <ele>2400</ele>
        <time>2022-07-22T08:40:56.000Z</time>
      </trkpt>
      <trkpt lat="45.14466" lon="5.95276">
        <ele>2399.5</ele>
        <time>2022-07-22T08:41:06.000Z</time>
      </trkpt>
      <trkpt lat="45.14469" lon="5.95284">
        <ele>2407</ele>
        <time>2022-07-22T08:41:16.000Z</time>
      </trkpt>
      <trkpt lat="45.14472" lon="5.95289">
        <ele>2399.2</ele>
        <time>2022-07-22T08:41:26.000Z</time>
      </trkpt>
      <trkpt lat="45.14483" lon="5.95298">
        <ele>2394.1</ele>
        <time>2022-07-22T08:41:36.000Z</time>
      </trkpt>
      <trkpt lat="45.14485" lon="5.95298">
        <ele>2407</ele>
        <time>2022-07-22T08:41:46.000Z</time>
      </trkpt>
      <trkpt lat="45.14487" lon="5.95303">
        <ele>2392.9</ele>
        <time>2022-07-22T08:41:56.000Z</time>
      </trkpt>
      <trkpt lat="45.14485" lon="5.95298">
        <ele>2392.6</ele>
        <time>2022-07-22T08:42:06.000Z</time>
      </trkpt>
      <trkpt lat="45.14487" lon="5.953">
        <ele>2391.8</ele>
        <time>2022-07-22T08:42:16.000Z</time>
      </trkpt>
      <trkpt lat="45.14493" lon="5.95315">
        <ele>2411</ele>
        <time>2022-07-22T08:42:26.000Z</time>
      </trkpt>
      <trkpt lat="45.14495" lon="5.95316">
        <ele>2391.2</ele>
        <time>2022-07-22T08:42:36.000Z</time>
      </trkpt>
      <trkpt lat="45.14496" lon="5.95315">
        <ele>2390.1</ele>
        <time>2022-07-22T08:42:46.000Z</time>
      </trkpt>
      <trkpt lat="45.14497" lon="5.95318">
        <ele>2390.3</ele>
        <time>2022-07-22T08:42:56.000Z</time>
      </trkpt>
      <trkpt lat="45.145" lon="5.95323">
        <ele>2389.7</ele>
        <time>2022-07-22T08:43:06.000Z</time>
      </trkpt>
      <trkpt lat="45.14507" lon="5.95331">
        <ele>2415</ele>
        <time>2022-07-22T08:43:16.000Z</time>
      </trkpt>
      <trkpt lat="45.14509" lon="5.9533">
        <ele>2386.4</ele>
        <time>2022-07-22T08:43:26.000Z</time>
      </trkpt>
      <trkpt lat="45.14508" lon="5.95335">
        <ele>2388.7</ele>
        <time>2022-07-22T08:43:36.000Z</time>
      </trkpt>
      <trkpt lat="45.14517" lon="5.95341">
        <ele>2385.5</ele>
        <time>2022-07-22T08:43:46.000Z</time>
      </trkpt>
      <trkpt lat="45.1452" lon="5.95347">
        <ele>2415</ele>
        <time>2022-07-22T08:43:56.000Z</time>
      </trkpt>
      <trkpt lat="45.14524" lon="5.95351">
        <ele>2385.2</ele>
        <time>2022-07-22T08:44:06.000Z</time>
      </trkpt>
      <trkpt lat="45.14527" lon="5.95357">
        <ele>2385.8</ele>
        <time>2022-07-22T08:44:16.000Z</time>
      </trkpt>
      <trkpt lat="45.14538" lon="5.95364">
        <ele>2403</ele>
        <time>2022-07-22T08:44:26.000Z</time>
      </trkpt>
      <trkpt lat="45.1454" lon="5.95369">
        <ele>2385.5</ele>
        <time>2022-07-22T08:44:36.000Z</time>
      </trkpt>
      <trkpt lat="45.14542" lon="5.95371">
        <ele>2385.6</ele>
        <time>2022-07-22T08:44:46.000Z</time>
      </trkpt>
      <trkpt lat="45.14544" lon="5.95377">
        <ele>2387.5</ele>
        <time>2022-07-22T08:44:56.000Z</time>
      </trkpt>
      <trkpt lat="45.14546" lon="5.9538">
        <ele>2388.2</ele>
        <time>2022-07-22T08:45:06.000Z</time>
      </trkpt>
      <trkpt lat="45.14556" lon="5.95388">
        <ele>2400</ele>
        <time>2022-07-22T08:45:16.000Z</time>
      </trkpt>
      <trkpt lat="45.1456" lon="5.95389">
        <ele>2388.6</ele>
        <time>2022-07-22T08:45:26.000Z</time>
      </trkpt>
      <trkpt lat="45.14562" lon="5.95391">
        <ele>2389.4</ele>
        <time>2022-07-22T08:45:36.000Z</time>
      </trkpt>
      <trkpt lat="45.14564" lon="5.95391">
        <ele>2389.2</ele>
        <time>2022-07-22T08:45:46.000Z</time>
      </trkpt>
      <trkpt lat="45.14566" lon="5.95389">
        <ele>2387.9</ele>
        <time>2022-07-22T08:45:56.000Z</time>
      </trkpt>
      <trkpt lat="45.14572" lon="5.9539">
        <ele>2387.8</ele>
        <time>2022-07-22T08:46:06.000Z</time>
      </trkpt>
      <trkpt lat="45.14575" lon="5.95385">
        <ele>2391</ele>
        <time>2022-07-22T08:46:16.000Z</time>
      </trkpt>
      <trkpt lat="45.14577" lon="5.95386">
        <ele>2385.2</ele>
        <time>2022-07-22T08:46:26.000Z</time>
      </trkpt>
      <trkpt lat="45.1458" lon="5.95385">
        <ele>2384.3</ele>
        <time>2022-07-22T08:46:36.000Z</time>
      </trkpt>
      <trkpt lat="45.14586" lon="5.95381">
        <ele>2381.3</ele>
        <time>2022-07-22T08:46:46.000Z</time>
      </trkpt>
      <trkpt lat="45.14595" lon="5.95383">
        <ele>2391</ele>
        <time>2022-07-22T08:46:56.000Z</time>
      </trkpt>
      <trkpt lat="45.14604" lon="5.95382">
        <ele>2378.6</ele>
        <time>2022-07-22T08:47:06.000Z</time>
      </trkpt>
      <trkpt lat="45.14607" lon="5.95383">
        <ele>2378.6</ele>
        <time>2022-07-22T08:47:16.000Z</time>
      </trkpt>
      <trkpt lat="45.1461" lon="5.95387">
        <ele>2380.2</ele>
        <time>2022-07-22T08:47:26.000Z</time>
      </trkpt>
      <trkpt lat="45.14615" lon="5.95389">
        <ele>2392</ele>
        <time>2022-07-22T08:47:36.000Z</time>
      </trkpt>
      <trkpt lat="45.14616" lon="5.95391">
        <ele>2381</ele>
        <time>2022-07-22T08:47:46.000Z</time>
      </trkpt>
      <trkpt lat="45.14629" lon="5.95397">
        <ele>2381</ele>
        <time>2022-07-22T08:47:56.000Z</time>
      </trkpt>
      <trkpt lat="45.14637" lon="5.95394">
        <ele>2393</ele>
        <time>2022-07-22T08:48:06.000Z</time>
      </trkpt>
      <trkpt lat="45.14641" lon="5.95395">
        <ele>2376.8</ele>
        <time>2022-07-22T08:48:16.000Z</time>
      </trkpt>
      <trkpt lat="45.14647" lon="5.95395">
        <ele>2375.5</ele>
        <time>2022-07-22T08:48:26.000Z</time>
      </trkpt>
      <trkpt lat="45.14648" lon="5.95392">
        <ele>2373.7</ele>
        <time>2022-07-22T08:48:36.000Z</time>
      </trkpt>
      <trkpt lat="45.14656" lon="5.95394">
        <ele>2393</ele>
        <time>2022-07-22T08:48:46.000Z</time>
      </trkpt>
      <trkpt lat="45.14657" lon="5.95397">
        <ele>2374.3</ele>
        <time>2022-07-22T08:48:56.000Z</time>
      </trkpt>
      <trkpt lat="45.14665" lon="5.954">
        <ele>2374</ele>
        <time>2022-07-22T08:49:06.000Z</time>
      </trkpt>
      <trkpt lat="45.14676" lon="5.95401">
        <ele>2389</ele>
        <time>2022-07-22T08:49:16.000Z</time>
      </trkpt>
      <trkpt lat="45.14683" lon="5.95399">
        <ele>2373.8</ele>
        <time>2022-07-22T08:49:26.000Z</time>
      </trkpt>
      <trkpt lat="45.14688" lon="5.95394">
        <ele>2371.8</ele>
        <time>2022-07-22T08:49:36.000Z</time>
      </trkpt>
      <trkpt lat="45.14693" lon="5.95392">
        <ele>2371.3</ele>
        <time>2022-07-22T08:49:46.000Z</time>
      </trkpt>
      <trkpt lat="45.14702" lon="5.95393">
        <ele>2391</ele>
        <time>2022-07-22T08:49:56.000Z</time>
      </trkpt>
      <trkpt lat="45.14707" lon="5.95389">
        <ele>2373.7</ele>
        <time>2022-07-22T08:50:06.000Z</time>
      </trkpt>
      <trkpt lat="45.14709" lon="5.95386">
        <ele>2372.9</ele>
        <time>2022-07-22T08:50:16.000Z</time>
      </trkpt>
      <trkpt lat="45.14717" lon="5.95382">
        <ele>2373.7</ele>
        <time>2022-07-22T08:50:26.000Z</time>
      </trkpt>
      <trkpt lat="45.1472" lon="5.95381">
        <ele>2393</ele>
        <time>2022-07-22T08:50:36.000Z</time>
      </trkpt>
      <trkpt lat="45.14724" lon="5.95382">
        <ele>2376.2</ele>
        <time>2022-07-22T08:50:46.000Z</time>
      </trkpt>
      <trkpt lat="45.14727" lon="5.95381">
        <ele>2377.4</ele>
        <time>2022-07-22T08:50:56.000Z</time>
      </trkpt>
      <trkpt lat="45.14729" lon="5.95382">
        <ele>2378.9</ele>
        <time>2022-07-22T08:51:06.000Z</time>
      </trkpt>
      <trkpt lat="45.14733" lon="5.95378">
        <ele>2379.4</ele>
        <time>2022-07-22T08:51:16.000Z</time>
      </trkpt>
      <trkpt lat="45.14735" lon="5.95372">
        <ele>2377.9</ele>
        <time>2022-07-22T08:51:26.000Z</time>
      </trkpt>
      <trkpt lat="45.14741" lon="5.95363">
        <ele>2398</ele>
        <time>2022-07-22T08:51:36.000Z</time>
      </trkpt>
      <trkpt lat="45.14744" lon="5.95362">
        <ele>2378.4</ele>
        <time>2022-07-22T08:51:46.000Z</time>
      </trkpt>
      <trkpt lat="45.14747" lon="5.95358">
        <ele>2379</ele>
        <time>2022-07-22T08:51:56.000Z</time>
      </trkpt>
      <trkpt lat="45.14746" lon="5.95365">
        <ele>2380.6</ele>
        <time>2022-07-22T08:52:06.000Z</time>
      </trkpt>
      <trkpt lat="45.14747" lon="5.95367">
        <ele>2382</ele>
        <time>2022-07-22T08:52:16.000Z</time>
      </trkpt>
      <trkpt lat="45.1475" lon="5.95367">
        <ele>2383.5</ele>
        <time>2022-07-22T08:52:26.000Z</time>
      </trkpt>
      <trkpt lat="45.14752" lon="5.95366">
        <ele>2398</ele>
        <time>2022-07-22T08:52:36.000Z</time>
      </trkpt>
      <trkpt lat="45.14755" lon="5.95362">
        <ele>2384.3</ele>
        <time>2022-07-22T08:52:46.000Z</time>
      </trkpt>
      <trkpt lat="45.14757" lon="5.95363">
        <ele>2385.8</ele>
        <time>2022-07-22T08:52:56.000Z</time>
      </trkpt>
      <trkpt lat="45.14761" lon="5.95359">
        <ele>2386.9</ele>
        <time>2022-07-22T08:53:06.000Z</time>
      </trkpt>
      <trkpt lat="45.14765" lon="5.95349">
        <ele>2403</ele>
        <time>2022-07-22T08:53:16.000Z</time>
      </trkpt>
      <trkpt lat="45.14765" lon="5.95346">
        <ele>2385.7</ele>
        <time>2022-07-22T08:53:26.000Z</time>
      </trkpt>
      <trkpt lat="45.14767" lon="5.9534">
        <ele>2385</ele>
        <time>2022-07-22T08:53:36.000Z</time>
      </trkpt>
      <trkpt lat="45.14777" lon="5.95328">
        <ele>2409</ele>
        <time>2022-07-22T08:53:46.000Z</time>
      </trkpt>
      <trkpt lat="45.14779" lon="5.9533">
        <ele>2387.7</ele>
        <time>2022-07-22T08:53:56.000Z</time>
      </trkpt>
      <trkpt lat="45.14782" lon="5.9533">
        <ele>2389.3</ele>
        <time>2022-07-22T08:54:06.000Z</time>
      </trkpt>
      <trkpt lat="45.14786" lon="5.95328">
        <ele>2391.4</ele>
        <time>2022-07-22T08:54:16.000Z</time>
      </trkpt>
      <trkpt lat="45.14793" lon="5.95327">
        <ele>2395.1</ele>
        <time>2022-07-22T08:54:26.000Z</time>
      </trkpt>
      <trkpt lat="45.14795" lon="5.95322">
        <ele>2409</ele>
        <time>2022-07-22T08:54:36.000Z</time>
      </trkpt>
      <trkpt lat="45.14801" lon="5.95322">
        <ele>2399.2</ele>
        <time>2022-07-22T08:54:46.000Z</time>
      </trkpt>
      <trkpt lat="45.14805" lon="5.9532">
        <ele>2401.2</ele>
        <time>2022-07-22T08:54:56.000Z</time>
      </trkpt>
      <trkpt lat="45.14808" lon="5.9532">
        <ele>2402.5</ele>
        <time>2022-07-22T08:55:06.000Z</time>
      </trkpt>
      <trkpt lat="45.14812" lon="5.95316">
        <ele>2404.1</ele>
        <time>2022-07-22T08:55:16.000Z</time>
      </trkpt>
      <trkpt lat="45.14814" lon="5.95317">
        <ele>2425</ele>
        <time>2022-07-22T08:55:26.000Z</time>
      </trkpt>
      <trkpt lat="45.14818" lon="5.95315">
        <ele>2406.7</ele>
        <time>2022-07-22T08:55:36.000Z</time>
      </trkpt>
      <trkpt lat="45.1482" lon="5.95315">
        <ele>2407.6</ele>
        <time>2022-07-22T08:55:46.000Z</time>
      </trkpt>
      <trkpt lat="45.14822" lon="5.95318">
        <ele>2408.3</ele>
        <time>2022-07-22T08:55:56.000Z</time>
      </trkpt>
      <trkpt lat="45.14824" lon="5.95319">
        <ele>2409.2</ele>
        <time>2022-07-22T08:56:06.000Z</time>
      </trkpt>
      <trkpt lat="45.14826" lon="5.95319">
        <ele>2410</ele>
        <time>2022-07-22T08:56:16.000Z</time>
      </trkpt>
      <trkpt lat="45.14831" lon="5.95326">
        <ele>2437</ele>
        <time>2022-07-22T08:56:26.000Z</time>
      </trkpt>
      <trkpt lat="45.14833" lon="5.95327">
        <ele>2412.3</ele>
        <time>2022-07-22T08:56:36.000Z</time>
      </trkpt>
      <trkpt lat="45.14835" lon="5.95326">
        <ele>2413.3</ele>
        <time>2022-07-22T08:56:46.000Z</time>
      </trkpt>
      <trkpt lat="45.14837" lon="5.95327">
        <ele>2414.2</ele>
        <time>2022-07-22T08:56:56.000Z</time>
      </trkpt>
      <trkpt lat="45.1484" lon="5.9533">
        <ele>2415.4</ele>
        <time>2022-07-22T08:57:06.000Z</time>
      </trkpt>
      <trkpt lat="45.14842" lon="5.95327">
        <ele>2416.6</ele>
        <time>2022-07-22T08:57:16.000Z</time>
      </trkpt>
      <trkpt lat="45.14846" lon="5.95329">
        <ele>2418.3</ele>
        <time>2022-07-22T08:57:26.000Z</time>
      </trkpt>
      <trkpt lat="45.1485" lon="5.95328">
        <ele>2444</ele>
        <time>2022-07-22T08:57:36.000Z</time>
      </trkpt>
      <trkpt lat="45.14852" lon="5.9533">
        <ele>2421.1</ele>
        <time>2022-07-22T08:57:46.000Z</time>
      </trkpt>
      <trkpt lat="45.14856" lon="5.95328">
        <ele>2423.1</ele>
        <time>2022-07-22T08:57:56.000Z</time>
      </trkpt>
      <trkpt lat="45.1486" lon="5.95334">
        <ele>2424.6</ele>
        <time>2022-07-22T08:58:06.000Z</time>
      </trkpt>
      <trkpt lat="45.14864" lon="5.95335">
        <ele>2426.5</ele>
        <time>2022-07-22T08:58:16.000Z</time>
      </trkpt>
      <trkpt lat="45.14871" lon="5.9534">
        <ele>2444</ele>
        <time>2022-07-22T08:58:26.000Z</time>
      </trkpt>
      <trkpt lat="45.14876" lon="5.95339">
        <ele>2432</ele>
        <time>2022-07-22T08:58:36.000Z</time>
      </trkpt>
      <trkpt lat="45.1488" lon="5.95342">
        <ele>2434.1</ele>
        <time>2022-07-22T08:58:46.000Z</time>
      </trkpt>
      <trkpt lat="45.14892" lon="5.95343">
        <ele>2452</ele>
        <time>2022-07-22T08:58:56.000Z</time>
      </trkpt>
      <trkpt lat="45.14896" lon="5.95346">
        <ele>2440.4</ele>
        <time>2022-07-22T08:59:06.000Z</time>
      </trkpt>
      <trkpt lat="45.14897" lon="5.95348">
        <ele>2441</ele>
        <time>2022-07-22T08:59:16.000Z</time>
      </trkpt>
      <trkpt lat="45.149" lon="5.95348">
        <ele>2441.8</ele>
        <time>2022-07-22T08:59:26.000Z</time>
      </trkpt>
      <trkpt lat="45.14903" lon="5.9535">
        <ele>2443</ele>
        <time>2022-07-22T08:59:36.000Z</time>
      </trkpt>
      <trkpt lat="45.14905" lon="5.9535">
        <ele>2443.5</ele>
        <time>2022-07-22T08:59:46.000Z</time>
      </trkpt>
      <trkpt lat="45.14907" lon="5.95348">
        <ele>2443.8</ele>
        <time>2022-07-22T08:59:56.000Z</time>
      </trkpt>
      <trkpt lat="45.14913" lon="5.95346">
        <ele>2458</ele>
        <time>2022-07-22T09:00:06.000Z</time>
      </trkpt>
      <trkpt lat="45.14914" lon="5.95344">
        <ele>2445.4</ele>
        <time>2022-07-22T09:00:16.000Z</time>
      </trkpt>
      <trkpt lat="45.14921" lon="5.95344">
        <ele>2447.2</ele>
        <time>2022-07-22T09:00:26.000Z</time>
      </trkpt>
      <trkpt lat="45.14922" lon="5.95342">
        <ele>2447.3</ele>
        <time>2022-07-22T09:00:36.000Z</time>
      </trkpt>
      <trkpt lat="45.14926" lon="5.95344">
        <ele>2448.5</ele>
        <time>2022-07-22T09:00:46.000Z</time>
      </trkpt>
      <trkpt lat="45.14931" lon="5.95348">
        <ele>2458</ele>
        <time>2022-07-22T09:00:56.000Z</time>
      </trkpt>
      <trkpt lat="45.14934" lon="5.95353">
        <ele>2450.8</ele>
        <time>2022-07-22T09:01:06.000Z</time>
      </trkpt>
      <trkpt lat="45.14937" lon="5.95355">
        <ele>2451.5</ele>
        <time>2022-07-22T09:01:16.000Z</time>
      </trkpt>
      <trkpt lat="45.14941" lon="5.95361">
        <ele>2452.4</ele>
        <time>2022-07-22T09:01:26.000Z</time>
      </trkpt>
      <trkpt lat="45.14942" lon="5.95367">
        <ele>2453.7</ele>
        <time>2022-07-22T09:01:36.000Z</time>
      </trkpt>
      <trkpt lat="45.14944" lon="5.95373">
        <ele>2462</ele>
        <time>2022-07-22T09:01:46.000Z</time>
      </trkpt>
      <trkpt lat="45.14945" lon="5.95374">
        <ele>2455.4</ele>
        <time>2022-07-22T09:01:56.000Z</time>
      </trkpt>
      <trkpt lat="45.14952" lon="5.95374">
        <ele>2457</ele>
        <time>2022-07-22T09:02:06.000Z</time>
      </trkpt>
      <trkpt lat="45.14958" lon="5.95377">
        <ele>2458.6</ele>
        <time>2022-07-22T09:02:16.000Z</time>
      </trkpt>
      <trkpt lat="45.14966" lon="5.95379">
        <ele>2475</ele>
        <time>2022-07-22T09:02:26.000Z</time>
      </trkpt>
      <trkpt lat="45.14968" lon="5.9538">
        <ele>2460.6</ele>
        <time>2022-07-22T09:02:36.000Z</time>
      </trkpt>
      <trkpt lat="45.14968" lon="5.95383">
        <ele>2460.6</ele>
        <time>2022-07-22T09:02:46.000Z</time>
      </trkpt>
      <trkpt lat="45.14972" lon="5.95384">
        <ele>2461.1</ele>
        <time>2022-07-22T09:02:56.000Z</time>
      </trkpt>
      <trkpt lat="45.14974" lon="5.95386">
        <ele>2461.5</ele>
        <time>2022-07-22T09:03:06.000Z</time>
      </trkpt>
      <trkpt lat="45.14976" lon="5.9539">
        <ele>2462</ele>
        <time>2022-07-22T09:03:16.000Z</time>
      </trkpt>
      <trkpt lat="45.14978" lon="5.95396">
        <ele>2463.3</ele>
        <time>2022-07-22T09:03:26.000Z</time>
      </trkpt>
      <trkpt lat="45.1498" lon="5.95412">
        <ele>2480</ele>
        <time>2022-07-22T09:03:36.000Z</time>
      </trkpt>
      <trkpt lat="45.14983" lon="5.95424">
        <ele>2467.8</ele>
        <time>2022-07-22T09:03:46.000Z</time>
      </trkpt>
      <trkpt lat="45.14989" lon="5.95432">
        <ele>2469.1</ele>
        <time>2022-07-22T09:03:56.000Z</time>
      </trkpt>
      <trkpt lat="45.14991" lon="5.95438">
        <ele>2483</ele>
        <time>2022-07-22T09:04:06.000Z</time>
      </trkpt>
      <trkpt lat="45.14993" lon="5.95439">
        <ele>2470</ele>
        <time>2022-07-22T09:04:16.000Z</time>
      </trkpt>
      <trkpt lat="45.14998" lon="5.95445">
        <ele>2470.2</ele>
        <time>2022-07-22T09:04:26.000Z</time>
      </trkpt>
      <trkpt lat="45.14999" lon="5.95449">
        <ele>2470.3</ele>
        <time>2022-07-22T09:04:36.000Z</time>
      </trkpt>
      <trkpt lat="45.15001" lon="5.95452">
        <ele>2470.5</ele>
        <time>2022-07-22T09:04:46.000Z</time>
      </trkpt>
      <trkpt lat="45.15003" lon="5.95462">
        <ele>2484</ele>
        <time>2022-07-22T09:04:56.000Z</time>
      </trkpt>
      <trkpt lat="45.15007" lon="5.95472">
        <ele>2472</ele>
        <time>2022-07-22T09:05:06.000Z</time>
      </trkpt>
      <trkpt lat="45.15007" lon="5.95475">
        <ele>2471.7</ele>
        <time>2022-07-22T09:05:16.000Z</time>
      </trkpt>
      <trkpt lat="45.15012" lon="5.95483">
        <ele>2471.7</ele>
        <time>2022-07-22T09:05:26.000Z</time>
      </trkpt>
      <trkpt lat="45.15015" lon="5.95485">
        <ele>2484</ele>
        <time>2022-07-22T09:05:36.000Z</time>
      </trkpt>
      <trkpt lat="45.15021" lon="5.95485">
        <ele>2473</ele>
        <time>2022-07-22T09:05:46.000Z</time>
      </trkpt>
      <trkpt lat="45.1503" lon="5.9549">
        <ele>2474.1</ele>
        <time>2022-07-22T09:05:56.000Z</time>
      </trkpt>
      <trkpt lat="45.15044" lon="5.95491">
        <ele>2491</ele>
        <time>2022-07-22T09:06:06.000Z</time>
      </trkpt>
      <trkpt lat="45.15055" lon="5.95494">
        <ele>2478.3</ele>
        <time>2022-07-22T09:06:16.000Z</time>
      </trkpt>
      <trkpt lat="45.15062" lon="5.95497">
        <ele>2479.4</ele>
        <time>2022-07-22T09:06:26.000Z</time>
      </trkpt>
      <trkpt lat="45.15064" lon="5.95496">
        <ele>2499</ele>
        <time>2022-07-22T09:06:36.000Z</time>
      </trkpt>
      <trkpt lat="45.15069" lon="5.95497">
        <ele>2480.6</ele>
        <time>2022-07-22T09:06:46.000Z</time>
      </trkpt>
      <trkpt lat="45.15078" lon="5.95496">
        <ele>2482.3</ele>
        <time>2022-07-22T09:06:56.000Z</time>
      </trkpt>
      <trkpt lat="45.1508" lon="5.95497">
        <ele>2482.6</ele>
        <time>2022-07-22T09:07:06.000Z</time>
      </trkpt>
      <trkpt lat="45.15085" lon="5.95494">
        <ele>2508</ele>
        <time>2022-07-22T09:07:16.000Z</time>
      </trkpt>
      <trkpt lat="45.1509" lon="5.95492">
        <ele>2485.8</ele>
        <time>2022-07-22T09:07:26.000Z</time>
      </trkpt>
      <trkpt lat="45.15093" lon="5.95492">
        <ele>2486.8</ele>
        <time>2022-07-22T09:07:36.000Z</time>
      </trkpt>
      <trkpt lat="45.15095" lon="5.95491">
        <ele>2487.6</ele>
        <time>2022-07-22T09:07:46.000Z</time>
      </trkpt>
      <trkpt lat="45.15099" lon="5.9548">
        <ele>2510</ele>
        <time>2022-07-22T09:07:56.000Z</time>
      </trkpt>
      <trkpt lat="45.15101" lon="5.95478">
        <ele>2490.8</ele>
        <time>2022-07-22T09:08:06.000Z</time>
      </trkpt>
      <trkpt lat="45.15105" lon="5.95478">
        <ele>2492.2</ele>
        <time>2022-07-22T09:08:16.000Z</time>
      </trkpt>
      <trkpt lat="45.1511" lon="5.9548">
        <ele>2493.8</ele>
        <time>2022-07-22T09:08:26.000Z</time>
      </trkpt>
      <trkpt lat="45.15111" lon="5.95477">
        <ele>2494.4</ele>
        <time>2022-07-22T09:08:36.000Z</time>
      </trkpt>
      <trkpt lat="45.15114" lon="5.95474">
        <ele>2496.4</ele>
        <time>2022-07-22T09:08:46.000Z</time>
      </trkpt>
      <trkpt lat="45.1512" lon="5.95475">
        <ele>2518</ele>
        <time>2022-07-22T09:08:56.000Z</time>
      </trkpt>
      <trkpt lat="45.15121" lon="5.95477">
        <ele>2499.9</ele>
        <time>2022-07-22T09:09:06.000Z</time>
      </trkpt>
      <trkpt lat="45.15123" lon="5.95476">
        <ele>2501.1</ele>
        <time>2022-07-22T09:09:16.000Z</time>
      </trkpt>
      <trkpt lat="45.15127" lon="5.95465">
        <ele>2504.8</ele>
        <time>2022-07-22T09:09:26.000Z</time>
      </trkpt>
      <trkpt lat="45.15135" lon="5.95454">
        <ele>2532</ele>
        <time>2022-07-22T09:09:36.000Z</time>
      </trkpt>
      <trkpt lat="45.15135" lon="5.95445">
        <ele>2511.4</ele>
        <time>2022-07-22T09:09:46.000Z</time>
      </trkpt>
      <trkpt lat="45.15134" lon="5.95436">
        <ele>2512.7</ele>
        <time>2022-07-22T09:09:56.000Z</time>
      </trkpt>
      <trkpt lat="45.15136" lon="5.95435">
        <ele>2513.7</ele>
        <time>2022-07-22T09:10:06.000Z</time>
      </trkpt>
      <trkpt lat="45.1514" lon="5.95427">
        <ele>2534</ele>
        <time>2022-07-22T09:10:16.000Z</time>
      </trkpt>
      <trkpt lat="45.1514" lon="5.95424">
        <ele>2517.3</ele>
        <time>2022-07-22T09:10:26.000Z</time>
      </trkpt>
      <trkpt lat="45.15144" lon="5.95407">
        <ele>2521.3</ele>
        <time>2022-07-22T09:10:36.000Z</time>
      </trkpt>
      <trkpt lat="45.15148" lon="5.95401">
        <ele>2541</ele>
        <time>2022-07-22T09:10:46.000Z</time>
      </trkpt>
      <trkpt lat="45.1515" lon="5.954">
        <ele>2524.5</ele>
        <time>2022-07-22T09:10:56.000Z</time>
      </trkpt>
      <trkpt lat="45.15153" lon="5.95401">
        <ele>2525.7</ele>
        <time>2022-07-22T09:11:06.000Z</time>
      </trkpt>
      <trkpt lat="45.15157" lon="5.95396">
        <ele>2527.7</ele>
        <time>2022-07-22T09:11:16.000Z</time>
      </trkpt>
      <trkpt lat="45.1516" lon="5.95396">
        <ele>2529</ele>
        <time>2022-07-22T09:11:26.000Z</time>
      </trkpt>
      <trkpt lat="45.15166" lon="5.95392">
        <ele>2557</ele>
        <time>2022-07-22T09:11:36.000Z</time>
      </trkpt>
      <trkpt lat="45.15172" lon="5.9539">
        <ele>2533.7</ele>
        <time>2022-07-22T09:11:46.000Z</time>
      </trkpt>
      <trkpt lat="45.15174" lon="5.9539">
        <ele>2534.4</ele>
        <time>2022-07-22T09:11:56.000Z</time>
      </trkpt>
      <trkpt lat="45.1518" lon="5.95393">
        <ele>2536.5</ele>
        <time>2022-07-22T09:12:06.000Z</time>
      </trkpt>
      <trkpt lat="45.15186" lon="5.95394">
        <ele>2557</ele>
        <time>2022-07-22T09:12:16.000Z</time>
      </trkpt>
      <trkpt lat="45.15188" lon="5.95397">
        <ele>2539.7</ele>
        <time>2022-07-22T09:12:26.000Z</time>
      </trkpt>
      <trkpt lat="45.1519" lon="5.95397">
        <ele>2540.5</ele>
        <time>2022-07-22T09:12:36.000Z</time>
      </trkpt>
      <trkpt lat="45.15196" lon="5.95401">
        <ele>2542.9</ele>
        <time>2022-07-22T09:12:46.000Z</time>
      </trkpt>
      <trkpt lat="45.15201" lon="5.9541">
        <ele>2570</ele>
        <time>2022-07-22T09:12:56.000Z</time>
      </trkpt>
      <trkpt lat="45.15203" lon="5.95412">
        <ele>2546.2</ele>
        <time>2022-07-22T09:13:06.000Z</time>
      </trkpt>
      <trkpt lat="45.15207" lon="5.95413">
        <ele>2547.3</ele>
        <time>2022-07-22T09:13:16.000Z</time>
      </trkpt>
      <trkpt lat="45.15211" lon="5.95416">
        <ele>2549</ele>
        <time>2022-07-22T09:13:26.000Z</time>
      </trkpt>
      <trkpt lat="45.15215" lon="5.95422">
        <ele>2551</ele>
        <time>2022-07-22T09:13:36.000Z</time>
      </trkpt>
      <trkpt lat="45.15217" lon="5.95423">
        <ele>2551.7</ele>
        <time>2022-07-22T09:13:46.000Z</time>
      </trkpt>
      <trkpt lat="45.15218" lon="5.95425">
        <ele>2572</ele>
        <time>2022-07-22T09:13:56.000Z</time>
      </trkpt>
      <trkpt lat="45.15222" lon="5.95428">
        <ele>2554</ele>
        <time>2022-07-22T09:14:06.000Z</time>
      </trkpt>
      <trkpt lat="45.15224" lon="5.95437">
        <ele>2555.7</ele>
        <time>2022-07-22T09:14:16.000Z</time>
      </trkpt>
      <trkpt lat="45.15224" lon="5.9544">
        <ele>2556.2</ele>
        <time>2022-07-22T09:14:26.000Z</time>
      </trkpt>
      <trkpt lat="45.15228" lon="5.95449">
        <ele>2575</ele>
        <time>2022-07-22T09:14:36.000Z</time>
      </trkpt>
      <trkpt lat="45.15231" lon="5.95453">
        <ele>2558.1</ele>
        <time>2022-07-22T09:14:46.000Z</time>
      </trkpt>
      <trkpt lat="45.15236" lon="5.95455">
        <ele>2558.8</ele>
        <time>2022-07-22T09:14:56.000Z</time>
      </trkpt>
      <trkpt lat="45.15239" lon="5.95459">
        <ele>2559.7</ele>
        <time>2022-07-22T09:15:06.000Z</time>
      </trkpt>
      <trkpt lat="45.15247" lon="5.95461">
        <ele>2576</ele>
        <time>2022-07-22T09:15:16.000Z</time>
      </trkpt>
      <trkpt lat="45.15267" lon="5.95475">
        <ele>2576</ele>
        <time>2022-07-22T09:15:26.000Z</time>
      </trkpt>
      <trkpt lat="45.15272" lon="5.95476">
        <ele>2564.6</ele>
        <time>2022-07-22T09:15:36.000Z</time>
      </trkpt>
      <trkpt lat="45.15284" lon="5.95488">
        <ele>2574</ele>
        <time>2022-07-22T09:15:46.000Z</time>
      </trkpt>
      <trkpt lat="45.15285" lon="5.95494">
        <ele>2569.4</ele>
        <time>2022-07-22T09:15:56.000Z</time>
      </trkpt>
      <trkpt lat="45.1529" lon="5.95505">
        <ele>2572.2</ele>
        <time>2022-07-22T09:16:06.000Z</time>
      </trkpt>
      <trkpt lat="45.15295" lon="5.95512">
        <ele>2576</ele>
        <time>2022-07-22T09:16:16.000Z</time>
      </trkpt>
      <trkpt lat="45.15297" lon="5.95517">
        <ele>2575.3</ele>
        <time>2022-07-22T09:16:26.000Z</time>
      </trkpt>
      <trkpt lat="45.15302" lon="5.95523">
        <ele>2577.8</ele>
        <time>2022-07-22T09:16:36.000Z</time>
      </trkpt>
      <trkpt lat="45.15307" lon="5.95525">
        <ele>2579.7</ele>
        <time>2022-07-22T09:16:46.000Z</time>
      </trkpt>
      <trkpt lat="45.15314" lon="5.95532">
        <ele>2578</ele>
        <time>2022-07-22T09:16:56.000Z</time>
      </trkpt>
      <trkpt lat="45.15325" lon="5.95541">
        <ele>2585</ele>
        <time>2022-07-22T09:17:06.000Z</time>
      </trkpt>
      <trkpt lat="45.15327" lon="5.95544">
        <ele>2585.8</ele>
        <time>2022-07-22T09:17:16.000Z</time>
      </trkpt>
      <trkpt lat="45.15328" lon="5.95544">
        <ele>2586.2</ele>
        <time>2022-07-22T09:17:26.000Z</time>
      </trkpt>
      <trkpt lat="45.1533" lon="5.95546">
        <ele>2586</ele>
        <time>2022-07-22T09:17:36.000Z</time>
      </trkpt>
      <trkpt lat="45.15332" lon="5.95551">
        <ele>2588.1</ele>
        <time>2022-07-22T09:17:46.000Z</time>
      </trkpt>
      <trkpt lat="45.15334" lon="5.95553">
        <ele>2589.1</ele>
        <time>2022-07-22T09:17:56.000Z</time>
      </trkpt>
      <trkpt lat="45.15336" lon="5.95553">
        <ele>2589.9</ele>
        <time>2022-07-22T09:18:06.000Z</time>
      </trkpt>
      <trkpt lat="45.15338" lon="5.95558">
        <ele>2590.6</ele>
        <time>2022-07-22T09:18:16.000Z</time>
      </trkpt>
      <trkpt lat="45.15342" lon="5.95563">
        <ele>2591.7</ele>
        <time>2022-07-22T09:18:26.000Z</time>
      </trkpt>
      <trkpt lat="45.15346" lon="5.95565">
        <ele>2586</ele>
        <time>2022-07-22T09:18:36.000Z</time>
      </trkpt>
      <trkpt lat="45.15347" lon="5.95559">
        <ele>2594.5</ele>
        <time>2022-07-22T09:18:46.000Z</time>
      </trkpt>
      <trkpt lat="45.15353" lon="5.95561">
        <ele>2596.9</ele>
        <time>2022-07-22T09:18:56.000Z</time>
      </trkpt>
      <trkpt lat="45.15358" lon="5.95566">
        <ele>2598.8</ele>
        <time>2022-07-22T09:19:06.000Z</time>
      </trkpt>
      <trkpt lat="45.15364" lon="5.95568">
        <ele>2599</ele>
        <time>2022-07-22T09:19:16.000Z</time>
      </trkpt>
      <trkpt lat="45.15368" lon="5.95579">
        <ele>2602.2</ele>
        <time>2022-07-22T09:19:26.000Z</time>
      </trkpt>
      <trkpt lat="45.15374" lon="5.95583">
        <ele>2604.6</ele>
        <time>2022-07-22T09:19:36.000Z</time>
      </trkpt>
      <trkpt lat="45.15378" lon="5.95587">
        <ele>2606</ele>
        <time>2022-07-22T09:19:46.000Z</time>
      </trkpt>
      <trkpt lat="45.1538" lon="5.95588">
        <ele>2606.4</ele>
        <time>2022-07-22T09:19:56.000Z</time>
      </trkpt>
      <trkpt lat="45.15383" lon="5.95588">
        <ele>2607.7</ele>
        <time>2022-07-22T09:20:06.000Z</time>
      </trkpt>
      <trkpt lat="45.15384" lon="5.95587">
        <ele>2608.3</ele>
        <time>2022-07-22T09:20:16.000Z</time>
      </trkpt>
      <trkpt lat="45.1539" lon="5.95589">
        <ele>2610.5</ele>
        <time>2022-07-22T09:20:26.000Z</time>
      </trkpt>
      <trkpt lat="45.15398" lon="5.95595">
        <ele>2613</ele>
        <time>2022-07-22T09:20:36.000Z</time>
      </trkpt>
      <trkpt lat="45.15408" lon="5.95599">
        <ele>2614.6</ele>
        <time>2022-07-22T09:20:46.000Z</time>
      </trkpt>
      <trkpt lat="45.15414" lon="5.95605">
        <ele>2615.8</ele>
        <time>2022-07-22T09:20:56.000Z</time>
      </trkpt>
      <trkpt lat="45.15424" lon="5.95612">
        <ele>2629</ele>
        <time>2022-07-22T09:21:06.000Z</time>
      </trkpt>
      <trkpt lat="45.15429" lon="5.95614">
        <ele>2618.5</ele>
        <time>2022-07-22T09:21:16.000Z</time>
      </trkpt>
      <trkpt lat="45.15431" lon="5.95614">
        <ele>2619</ele>
        <time>2022-07-22T09:21:26.000Z</time>
      </trkpt>
      <trkpt lat="45.15433" lon="5.95612">
        <ele>2619.9</ele>
        <time>2022-07-22T09:21:36.000Z</time>
      </trkpt>
      <trkpt lat="45.15436" lon="5.95612">
        <ele>2620.7</ele>
        <time>2022-07-22T09:21:46.000Z</time>
      </trkpt>
      <trkpt lat="45.15442" lon="5.95618">
        <ele>2636</ele>
        <time>2022-07-22T09:21:56.000Z</time>
      </trkpt>
      <trkpt lat="45.15446" lon="5.95624">
        <ele>2621.2</ele>
        <time>2022-07-22T09:22:06.000Z</time>
      </trkpt>
      <trkpt lat="45.1545" lon="5.95628">
        <ele>2621.6</ele>
        <time>2022-07-22T09:22:16.000Z</time>
      </trkpt>
      <trkpt lat="45.15455" lon="5.95635">
        <ele>2621.8</ele>
        <time>2022-07-22T09:22:26.000Z</time>
      </trkpt>
      <trkpt lat="45.15456" lon="5.95638">
        <ele>2636</ele>
        <time>2022-07-22T09:22:36.000Z</time>
      </trkpt>
      <trkpt lat="45.15464" lon="5.95643">
        <ele>2622.6</ele>
        <time>2022-07-22T09:22:46.000Z</time>
      </trkpt>
      <trkpt lat="45.15468" lon="5.95644">
        <ele>2623.5</ele>
        <time>2022-07-22T09:22:56.000Z</time>
      </trkpt>
      <trkpt lat="45.15472" lon="5.95643">
        <ele>2624.9</ele>
        <time>2022-07-22T09:23:06.000Z</time>
      </trkpt>
      <trkpt lat="45.15476" lon="5.95646">
        <ele>2645</ele>
        <time>2022-07-22T09:23:16.000Z</time>
      </trkpt>
      <trkpt lat="45.15484" lon="5.9565">
        <ele>2628.1</ele>
        <time>2022-07-22T09:23:26.000Z</time>
      </trkpt>
      <trkpt lat="45.15489" lon="5.95659">
        <ele>2627.7</ele>
        <time>2022-07-22T09:23:36.000Z</time>
      </trkpt>
      <trkpt lat="45.15491" lon="5.95661">
        <ele>2652</ele>
        <time>2022-07-22T09:23:46.000Z</time>
      </trkpt>
      <trkpt lat="45.15493" lon="5.95662">
        <ele>2628.5</ele>
        <time>2022-07-22T09:23:56.000Z</time>
      </trkpt>
      <trkpt lat="45.15495" lon="5.95661">
        <ele>2629.6</ele>
        <time>2022-07-22T09:24:06.000Z</time>
      </trkpt>
      <trkpt lat="45.15501" lon="5.95668">
        <ele>2630.1</ele>
        <time>2022-07-22T09:24:16.000Z</time>
      </trkpt>
      <trkpt lat="45.15507" lon="5.95671">
        <ele>2632.2</ele>
        <time>2022-07-22T09:24:26.000Z</time>
      </trkpt>
      <trkpt lat="45.15515" lon="5.95678">
        <ele>2652</ele>
        <time>2022-07-22T09:24:36.000Z</time>
      </trkpt>
      <trkpt lat="45.15523" lon="5.95688">
        <ele>2633.5</ele>
        <time>2022-07-22T09:24:46.000Z</time>
      </trkpt>
      <trkpt lat="45.15527" lon="5.9569">
        <ele>2634.4</ele>
        <time>2022-07-22T09:24:56.000Z</time>
      </trkpt>
      <trkpt lat="45.15528" lon="5.95692">
        <ele>2634.1</ele>
        <time>2022-07-22T09:25:06.000Z</time>
      </trkpt>
      <trkpt lat="45.15531" lon="5.95693">
        <ele>2657</ele>
        <time>2022-07-22T09:25:16.000Z</time>
      </trkpt>
      <trkpt lat="45.15534" lon="5.95697">
        <ele>2635.6</ele>
        <time>2022-07-22T09:25:26.000Z</time>
      </trkpt>
      <trkpt lat="45.15536" lon="5.95696">
        <ele>2637.1</ele>
        <time>2022-07-22T09:25:36.000Z</time>
      </trkpt>
      <trkpt lat="45.1554" lon="5.95701">
        <ele>2637.5</ele>
        <time>2022-07-22T09:25:46.000Z</time>
      </trkpt>
      <trkpt lat="45.15543" lon="5.95704">
        <ele>2638</ele>
        <time>2022-07-22T09:25:56.000Z</time>
      </trkpt>
      <trkpt lat="45.15545" lon="5.95705">
        <ele>2638.6</ele>
        <time>2022-07-22T09:26:06.000Z</time>
      </trkpt>
      <trkpt lat="45.15548" lon="5.95709">
        <ele>2657</ele>
        <time>2022-07-22T09:26:16.000Z</time>
      </trkpt>
      <trkpt lat="45.15552" lon="5.9571">
        <ele>2640.4</ele>
        <time>2022-07-22T09:26:26.000Z</time>
      </trkpt>
      <trkpt lat="45.15555" lon="5.95712">
        <ele>2641.1</ele>
        <time>2022-07-22T09:26:36.000Z</time>
      </trkpt>
      <trkpt lat="45.15559" lon="5.9571">
        <ele>2644</ele>
        <time>2022-07-22T09:26:46.000Z</time>
      </trkpt>
      <trkpt lat="45.1556" lon="5.95713">
        <ele>2643.2</ele>
        <time>2022-07-22T09:26:56.000Z</time>
      </trkpt>
      <trkpt lat="45.15567" lon="5.95721">
        <ele>2674</ele>
        <time>2022-07-22T09:27:06.000Z</time>
      </trkpt>
      <trkpt lat="45.15568" lon="5.95725">
        <ele>2643.1</ele>
        <time>2022-07-22T09:27:16.000Z</time>
      </trkpt>
      <trkpt lat="45.1557" lon="5.95727">
        <ele>2643.7</ele>
        <time>2022-07-22T09:27:26.000Z</time>
      </trkpt>
      <trkpt lat="45.15572" lon="5.95734">
        <ele>2643.2</ele>
        <time>2022-07-22T09:27:36.000Z</time>
      </trkpt>
      <trkpt lat="45.15574" lon="5.95736">
        <ele>2644</ele>
        <time>2022-07-22T09:27:46.000Z</time>
      </trkpt>
      <trkpt lat="45.15576" lon="5.95745">
        <ele>2686</ele>
        <time>2022-07-22T09:27:56.000Z</time>
      </trkpt>
      <trkpt lat="45.15577" lon="5.95744">
        <ele>2644.1</ele>
        <time>2022-07-22T09:28:06.000Z</time>
      </trkpt>
      <trkpt lat="45.15581" lon="5.95748">
        <ele>2645.9</ele>
        <time>2022-07-22T09:28:16.000Z</time>
      </trkpt>
      <trkpt lat="45.15582" lon="5.95754">
        <ele>2645.8</ele>
        <time>2022-07-22T09:28:26.000Z</time>
      </trkpt>
      <trkpt lat="45.15593" lon="5.95768">
        <ele>2686</ele>
        <time>2022-07-22T09:28:36.000Z</time>
      </trkpt>
      <trkpt lat="45.15597" lon="5.95772">
        <ele>2650.2</ele>
        <time>2022-07-22T09:28:46.000Z</time>
      </trkpt>
      <trkpt lat="45.15597" lon="5.95783">
        <ele>2651</ele>
        <time>2022-07-22T09:28:56.000Z</time>
      </trkpt>
      <trkpt lat="45.15601" lon="5.95794">
        <ele>2686</ele>
        <time>2022-07-22T09:29:06.000Z</time>
      </trkpt>
      <trkpt lat="45.15601" lon="5.95813">
        <ele>2656.8</ele>
        <time>2022-07-22T09:29:16.000Z</time>
      </trkpt>
      <trkpt lat="45.156" lon="5.95816">
        <ele>2656.7</ele>
        <time>2022-07-22T09:29:26.000Z</time>
      </trkpt>
      <trkpt lat="45.156" lon="5.95822">
        <ele>2686</ele>
        <time>2022-07-22T09:29:36.000Z</time>
      </trkpt>
      <trkpt lat="45.15601" lon="5.95829">
        <ele>2659.4</ele>
        <time>2022-07-22T09:29:46.000Z</time>
      </trkpt>
      <trkpt lat="45.15601" lon="5.95839">
        <ele>2660.6</ele>
        <time>2022-07-22T09:29:56.000Z</time>
      </trkpt>
      <trkpt lat="45.15605" lon="5.95847">
        <ele>2664.2</ele>
        <time>2022-07-22T09:30:06.000Z</time>
      </trkpt>
      <trkpt lat="45.15605" lon="5.95859">
        <ele>2683</ele>
        <time>2022-07-22T09:30:16.000Z</time>
      </trkpt>
      <trkpt lat="45.15606" lon="5.95862">
        <ele>2666.3</ele>
        <time>2022-07-22T09:30:26.000Z</time>
      </trkpt>
      <trkpt lat="45.15605" lon="5.95868">
        <ele>2665.4</ele>
        <time>2022-07-22T09:30:36.000Z</time>
      </trkpt>
      <trkpt lat="45.15605" lon="5.95884">
        <ele>2664.8</ele>
        <time>2022-07-22T09:30:46.000Z</time>
      </trkpt>
      <trkpt lat="45.15608" lon="5.95889">
        <ele>2680</ele>
        <time>2022-07-22T09:30:56.000Z</time>
      </trkpt>
      <trkpt lat="45.15609" lon="5.95899">
        <ele>2665.7</ele>
        <time>2022-07-22T09:31:06.000Z</time>
      </trkpt>
      <trkpt lat="45.15611" lon="5.95901">
        <ele>2666.7</ele>
        <time>2022-07-22T09:31:16.000Z</time>
      </trkpt>
      <trkpt lat="45.15612" lon="5.95907">
        <ele>2666.3</ele>
        <time>2022-07-22T09:31:26.000Z</time>
      </trkpt>
      <trkpt lat="45.1562" lon="5.95914">
        <ele>2680</ele>
        <time>2022-07-22T09:31:36.000Z</time>
      </trkpt>
      <trkpt lat="45.15625" lon="5.95921">
        <ele>2672.5</ele>
        <time>2022-07-22T09:31:46.000Z</time>
      </trkpt>
      <trkpt lat="45.1563" lon="5.95925">
        <ele>2674.8</ele>
        <time>2022-07-22T09:31:56.000Z</time>
      </trkpt>
      <trkpt lat="45.15634" lon="5.9593">
        <ele>2676.1</ele>
        <time>2022-07-22T09:32:06.000Z</time>
      </trkpt>
      <trkpt lat="45.15643" lon="5.95944">
        <ele>2681</ele>
        <time>2022-07-22T09:32:16.000Z</time>
      </trkpt>
      <trkpt lat="45.15645" lon="5.95948">
        <ele>2677.6</ele>
        <time>2022-07-22T09:32:26.000Z</time>
      </trkpt>
      <trkpt lat="45.15656" lon="5.95962">
        <ele>2679.2</ele>
        <time>2022-07-22T09:32:36.000Z</time>
      </trkpt>
      <trkpt lat="45.15663" lon="5.95968">
        <ele>2686</ele>
        <time>2022-07-22T09:32:46.000Z</time>
      </trkpt>
      <trkpt lat="45.15688" lon="5.95978">
        <ele>2686</ele>
        <time>2022-07-22T09:32:56.000Z</time>
      </trkpt>
      <trkpt lat="45.15695" lon="5.95982">
        <ele>2694.1</ele>
        <time>2022-07-22T09:33:06.000Z</time>
      </trkpt>
      <trkpt lat="45.15696" lon="5.95985">
        <ele>2693.9</ele>
        <time>2022-07-22T09:33:16.000Z</time>
      </trkpt>
      <trkpt lat="45.157" lon="5.95989">
        <ele>2694.5</ele>
        <time>2022-07-22T09:33:26.000Z</time>
      </trkpt>
      <trkpt lat="45.15711" lon="5.95997">
        <ele>2694</ele>
        <time>2022-07-22T09:33:36.000Z</time>
      </trkpt>
      <trkpt lat="45.15712" lon="5.96">
        <ele>2696.3</ele>
        <time>2022-07-22T09:33:46.000Z</time>
      </trkpt>
      <trkpt lat="45.1572" lon="5.96007">
        <ele>2698.7</ele>
        <time>2022-07-22T09:33:56.000Z</time>
      </trkpt>
      <trkpt lat="45.15728" lon="5.9602">
        <ele>2697</ele>
        <time>2022-07-22T09:34:06.000Z</time>
      </trkpt>
      <trkpt lat="45.1573" lon="5.96021">
        <ele>2698.6</ele>
        <time>2022-07-22T09:34:16.000Z</time>
      </trkpt>
      <trkpt lat="45.15734" lon="5.96026">
        <ele>2698.2</ele>
        <time>2022-07-22T09:34:26.000Z</time>
      </trkpt>
      <trkpt lat="45.15736" lon="5.96033">
        <ele>2697.8</ele>
        <time>2022-07-22T09:34:36.000Z</time>
      </trkpt>
      <trkpt lat="45.15736" lon="5.9605">
        <ele>2700</ele>
        <time>2022-07-22T09:34:46.000Z</time>
      </trkpt>
      <trkpt lat="45.15734" lon="5.96056">
        <ele>2697</ele>
        <time>2022-07-22T09:34:56.000Z</time>
      </trkpt>
      <trkpt lat="45.15734" lon="5.96075">
        <ele>2698</ele>
        <time>2022-07-22T09:35:06.000Z</time>
      </trkpt>
      <trkpt lat="45.15736" lon="5.96088">
        <ele>2700</ele>
        <time>2022-07-22T09:35:16.000Z</time>
      </trkpt>
      <trkpt lat="45.15741" lon="5.96095">
        <ele>2699.7</ele>
        <time>2022-07-22T09:35:26.000Z</time>
      </trkpt>
      <trkpt lat="45.15742" lon="5.96098">
        <ele>2699.9</ele>
        <time>2022-07-22T09:35:36.000Z</time>
      </trkpt>
      <trkpt lat="45.15744" lon="5.961">
        <ele>2700.1</ele>
        <time>2022-07-22T09:35:46.000Z</time>
      </trkpt>
      <trkpt lat="45.15745" lon="5.96103">
        <ele>2700.4</ele>
        <time>2022-07-22T09:35:56.000Z</time>
      </trkpt>
      <trkpt lat="45.15745" lon="5.96106">
        <ele>2700.6</ele>
        <time>2022-07-22T09:36:06.000Z</time>
      </trkpt>
      <trkpt lat="45.15744" lon="5.96109">
        <ele>2700.8</ele>
        <time>2022-07-22T09:36:16.000Z</time>
      </trkpt>
      <trkpt lat="45.15746" lon="5.96111">
        <ele>2707</ele>
        <time>2022-07-22T09:36:26.000Z</time>
      </trkpt>
      <trkpt lat="45.15747" lon="5.96117">
        <ele>2701.3</ele>
        <time>2022-07-22T09:36:36.000Z</time>
      </trkpt>
      <trkpt lat="45.1575" lon="5.96127">
        <ele>2701.6</ele>
        <time>2022-07-22T09:36:46.000Z</time>
      </trkpt>
      <trkpt lat="45.15754" lon="5.96149">
        <ele>2707</ele>
        <time>2022-07-22T09:36:56.000Z</time>
      </trkpt>
      <trkpt lat="45.15758" lon="5.96163">
        <ele>2700.3</ele>
        <time>2022-07-22T09:37:06.000Z</time>
      </trkpt>
      <trkpt lat="45.15758" lon="5.96166">
        <ele>2700.3</ele>
        <time>2022-07-22T09:37:16.000Z</time>
      </trkpt>
      <trkpt lat="45.1576" lon="5.96173">
        <ele>2700.2</ele>
        <time>2022-07-22T09:37:26.000Z</time>
      </trkpt>
      <trkpt lat="45.15765" lon="5.96181">
        <ele>2705</ele>
        <time>2022-07-22T09:37:36.000Z</time>
      </trkpt>
      <trkpt lat="45.15768" lon="5.96188">
        <ele>2699.2</ele>
        <time>2022-07-22T09:37:46.000Z</time>
      </trkpt>
      <trkpt lat="45.1577" lon="5.96207">
        <ele>2707</ele>
        <time>2022-07-22T09:37:56.000Z</time>
      </trkpt>
      <trkpt lat="45.1577" lon="5.96215">
        <ele>2698</ele>
        <time>2022-07-22T09:38:06.000Z</time>
      </trkpt>
      <trkpt lat="45.15771" lon="5.96218">
        <ele>2697.7</ele>
        <time>2022-07-22T09:38:16.000Z</time>
      </trkpt>
      <trkpt lat="45.15771" lon="5.96222">
        <ele>2697.5</ele>
        <time>2022-07-22T09:38:26.000Z</time>
      </trkpt>
      <trkpt lat="45.15772" lon="5.96225">
        <ele>2697</ele>
        <time>2022-07-22T09:38:36.000Z</time>
      </trkpt>
      <trkpt lat="45.15774" lon="5.96228">
        <ele>2696.3</ele>
        <time>2022-07-22T09:38:46.000Z</time>
      </trkpt>
      <trkpt lat="45.15781" lon="5.96246">
        <ele>2710</ele>
        <time>2022-07-22T09:38:56.000Z</time>
      </trkpt>
      <trkpt lat="45.15789" lon="5.96258">
        <ele>2689.7</ele>
        <time>2022-07-22T09:39:06.000Z</time>
      </trkpt>
      <trkpt lat="45.15797" lon="5.96267">
        <ele>2710</ele>
        <time>2022-07-22T09:39:16.000Z</time>
      </trkpt>
      <trkpt lat="45.158" lon="5.96274">
        <ele>2685.6</ele>
        <time>2022-07-22T09:39:26.000Z</time>
      </trkpt>
      <trkpt lat="45.15803" lon="5.96279">
        <ele>2684.5</ele>
        <time>2022-07-22T09:39:36.000Z</time>
      </trkpt>
      <trkpt lat="45.15805" lon="5.96289">
        <ele>2683.3</ele>
        <time>2022-07-22T09:39:46.000Z</time>
      </trkpt>
      <trkpt lat="45.15809" lon="5.96303">
        <ele>2706</ele>
        <time>2022-07-22T09:39:56.000Z</time>
      </trkpt>
      <trkpt lat="45.15808" lon="5.96305">
        <ele>2681.2</ele>
        <time>2022-07-22T09:40:06.000Z</time>
      </trkpt>
      <trkpt lat="45.1581" lon="5.96315">
        <ele>2679.9</ele>
        <time>2022-07-22T09:40:16.000Z</time>
      </trkpt>
      <trkpt lat="45.15815" lon="5.96322">
        <ele>2678.2</ele>
        <time>2022-07-22T09:40:26.000Z</time>
      </trkpt>
      <trkpt lat="45.15815" lon="5.96325">
        <ele>2678.2</ele>
        <time>2022-07-22T09:40:36.000Z</time>
      </trkpt>
      <trkpt lat="45.15819" lon="5.9633">
        <ele>2707</ele>
        <time>2022-07-22T09:40:46.000Z</time>
      </trkpt>
      <trkpt lat="45.1582" lon="5.96334">
        <ele>2676.9</ele>
        <time>2022-07-22T09:40:56.000Z</time>
      </trkpt>
      <trkpt lat="45.15826" lon="5.96343">
        <ele>2675.8</ele>
        <time>2022-07-22T09:41:06.000Z</time>
      </trkpt>
      <trkpt lat="45.15828" lon="5.96343">
        <ele>2675.5</ele>
        <time>2022-07-22T09:41:16.000Z</time>
      </trkpt>
      <trkpt lat="45.15837" lon="5.96349">
        <ele>2703</ele>
        <time>2022-07-22T09:41:26.000Z</time>
      </trkpt>
      <trkpt lat="45.15848" lon="5.9636">
        <ele>2671.6</ele>
        <time>2022-07-22T09:41:36.000Z</time>
      </trkpt>
      <trkpt lat="45.15852" lon="5.96368">
        <ele>2703</ele>
        <time>2022-07-22T09:41:46.000Z</time>
      </trkpt>
      <trkpt lat="45.15856" lon="5.96374">
        <ele>2671.3</ele>
        <time>2022-07-22T09:41:56.000Z</time>
      </trkpt>
      <trkpt lat="45.15856" lon="5.96378">
        <ele>2671.8</ele>
        <time>2022-07-22T09:42:06.000Z</time>
      </trkpt>
      <trkpt lat="45.15857" lon="5.96381">
        <ele>2672.1</ele>
        <time>2022-07-22T09:42:16.000Z</time>
      </trkpt>
      <trkpt lat="45.15861" lon="5.96386">
        <ele>2672.5</ele>
        <time>2022-07-22T09:42:26.000Z</time>
      </trkpt>
      <trkpt lat="45.15861" lon="5.9639">
        <ele>2703</ele>
        <time>2022-07-22T09:42:36.000Z</time>
      </trkpt>
      <trkpt lat="45.15863" lon="5.96394">
        <ele>2672.6</ele>
        <time>2022-07-22T09:42:46.000Z</time>
      </trkpt>
      <trkpt lat="45.15864" lon="5.964">
        <ele>2672.7</ele>
        <time>2022-07-22T09:42:56.000Z</time>
      </trkpt>
      <trkpt lat="45.15865" lon="5.96402">
        <ele>2672.5</ele>
        <time>2022-07-22T09:43:06.000Z</time>
      </trkpt>
      <trkpt lat="45.15865" lon="5.96412">
        <ele>2673.5</ele>
        <time>2022-07-22T09:43:16.000Z</time>
      </trkpt>
      <trkpt lat="45.15866" lon="5.96426">
        <ele>2704</ele>
        <time>2022-07-22T09:43:26.000Z</time>
      </trkpt>
      <trkpt lat="45.15871" lon="5.96431">
        <ele>2673.1</ele>
        <time>2022-07-22T09:43:36.000Z</time>
      </trkpt>
      <trkpt lat="45.15873" lon="5.96436">
        <ele>2673.1</ele>
        <time>2022-07-22T09:43:46.000Z</time>
      </trkpt>
      <trkpt lat="45.15875" lon="5.96438">
        <ele>2673</ele>
        <time>2022-07-22T09:43:56.000Z</time>
      </trkpt>
      <trkpt lat="45.15878" lon="5.96443">
        <ele>2673.3</ele>
        <time>2022-07-22T09:44:06.000Z</time>
      </trkpt>
      <trkpt lat="45.15883" lon="5.96455">
        <ele>2701</ele>
        <time>2022-07-22T09:44:16.000Z</time>
      </trkpt>
      <trkpt lat="45.15885" lon="5.96466">
        <ele>2674.9</ele>
        <time>2022-07-22T09:44:26.000Z</time>
      </trkpt>
      <trkpt lat="45.15885" lon="5.96471">
        <ele>2675.3</ele>
        <time>2022-07-22T09:44:36.000Z</time>
      </trkpt>
      <trkpt lat="45.15887" lon="5.9648">
        <ele>2676</ele>
        <time>2022-07-22T09:44:46.000Z</time>
      </trkpt>
      <trkpt lat="45.15891" lon="5.96484">
        <ele>2701</ele>
        <time>2022-07-22T09:44:56.000Z</time>
      </trkpt>
      <trkpt lat="45.15896" lon="5.96493">
        <ele>2674.7</ele>
        <time>2022-07-22T09:45:06.000Z</time>
      </trkpt>
      <trkpt lat="45.15897" lon="5.96499">
        <ele>2674.9</ele>
        <time>2022-07-22T09:45:16.000Z</time>
      </trkpt>
      <trkpt lat="45.15901" lon="5.96503">
        <ele>2674</ele>
        <time>2022-07-22T09:45:26.000Z</time>
      </trkpt>
      <trkpt lat="45.15904" lon="5.96504">
        <ele>2702</ele>
        <time>2022-07-22T09:45:36.000Z</time>
      </trkpt>
      <trkpt lat="45.15906" lon="5.9651">
        <ele>2673</ele>
        <time>2022-07-22T09:45:46.000Z</time>
      </trkpt>
      <trkpt lat="45.1591" lon="5.96512">
        <ele>2672.2</ele>
        <time>2022-07-22T09:45:56.000Z</time>
      </trkpt>
      <trkpt lat="45.15912" lon="5.96522">
        <ele>2672.4</ele>
        <time>2022-07-22T09:46:06.000Z</time>
      </trkpt>
      <trkpt lat="45.1591" lon="5.96527">
        <ele>2700</ele>
        <time>2022-07-22T09:46:16.000Z</time>
      </trkpt>
      <trkpt lat="45.15909" lon="5.96525">
        <ele>2673</ele>
        <time>2022-07-22T09:46:26.000Z</time>
      </trkpt>
      <trkpt lat="45.15907" lon="5.96525">
        <ele>2673.3</ele>
        <time>2022-07-22T09:46:36.000Z</time>
      </trkpt>
      <trkpt lat="45.15906" lon="5.96531">
        <ele>2673.6</ele>
        <time>2022-07-22T09:46:46.000Z</time>
      </trkpt>
      <trkpt lat="45.15909" lon="5.96536">
        <ele>2673.4</ele>
        <time>2022-07-22T09:46:56.000Z</time>
      </trkpt>
      <trkpt lat="45.15909" lon="5.96544">
        <ele>2673.6</ele>
        <time>2022-07-22T09:47:06.000Z</time>
      </trkpt>
      <trkpt lat="45.15913" lon="5.96557">
        <ele>2698</ele>
        <time>2022-07-22T09:47:16.000Z</time>
      </trkpt>
      <trkpt lat="45.15911" lon="5.96556">
        <ele>2674</ele>
        <time>2022-07-22T09:47:26.000Z</time>
      </trkpt>
      <trkpt lat="45.15915" lon="5.96569">
        <ele>2673.8</ele>
        <time>2022-07-22T09:47:36.000Z</time>
      </trkpt>
      <trkpt lat="45.15921" lon="5.96582">
        <ele>2688</ele>
        <time>2022-07-22T09:47:46.000Z</time>
      </trkpt>
      <trkpt lat="45.15926" lon="5.96587">
        <ele>2670.7</ele>
        <time>2022-07-22T09:47:56.000Z</time>
      </trkpt>
      <trkpt lat="45.15927" lon="5.9659">
        <ele>2670.2</ele>
        <time>2022-07-22T09:48:06.000Z</time>
      </trkpt>
      <trkpt lat="45.15925" lon="5.9659">
        <ele>2670.8</ele>
        <time>2022-07-22T09:48:16.000Z</time>
      </trkpt>
      <trkpt lat="45.15923" lon="5.96593">
        <ele>2671</ele>
        <time>2022-07-22T09:48:26.000Z</time>
      </trkpt>
      <trkpt lat="45.15925" lon="5.96599">
        <ele>2670.1</ele>
        <time>2022-07-22T09:48:36.000Z</time>
      </trkpt>
      <trkpt lat="45.1593" lon="5.96606">
        <ele>2679</ele>
        <time>2022-07-22T09:48:46.000Z</time>
      </trkpt>
      <trkpt lat="45.15936" lon="5.96619">
        <ele>2665.6</ele>
        <time>2022-07-22T09:48:56.000Z</time>
      </trkpt>
      <trkpt lat="45.15944" lon="5.96631">
        <ele>2661</ele>
        <time>2022-07-22T09:49:06.000Z</time>
      </trkpt>
      <trkpt lat="45.15948" lon="5.96633">
        <ele>2659.7</ele>
        <time>2022-07-22T09:49:16.000Z</time>
      </trkpt>
      <trkpt lat="45.15952" lon="5.96633">
        <ele>2657.7</ele>
        <time>2022-07-22T09:49:26.000Z</time>
      </trkpt>
      <trkpt lat="45.15967" lon="5.9665">
        <ele>2659</ele>
        <time>2022-07-22T09:49:36.000Z</time>
      </trkpt>
      <trkpt lat="45.15968" lon="5.96652">
        <ele>2643.2</ele>
        <time>2022-07-22T09:49:46.000Z</time>
      </trkpt>
      <trkpt lat="45.15977" lon="5.9666">
        <ele>2636.5</ele>
        <time>2022-07-22T09:49:56.000Z</time>
      </trkpt>
      <trkpt lat="45.15978" lon="5.96662">
        <ele>2635.4</ele>
        <time>2022-07-22T09:50:06.000Z</time>
      </trkpt>
      <trkpt lat="45.15978" lon="5.96664">
        <ele>2634.8</ele>
        <time>2022-07-22T09:50:16.000Z</time>
      </trkpt>
      <trkpt lat="45.1598" lon="5.96667">
        <ele>2633.1</ele>
        <time>2022-07-22T09:50:26.000Z</time>
      </trkpt>
      <trkpt lat="45.15982" lon="5.96668">
        <ele>2651</ele>
        <time>2022-07-22T09:50:36.000Z</time>
      </trkpt>
      <trkpt lat="45.15986" lon="5.96672">
        <ele>2629.5</ele>
        <time>2022-07-22T09:50:46.000Z</time>
      </trkpt>
      <trkpt lat="45.15988" lon="5.96672">
        <ele>2628.9</ele>
        <time>2022-07-22T09:50:56.000Z</time>
      </trkpt>
      <trkpt lat="45.15992" lon="5.96675">
        <ele>2627.2</ele>
        <time>2022-07-22T09:51:06.000Z</time>
      </trkpt>
      <trkpt lat="45.15993" lon="5.96674">
        <ele>2627.2</ele>
        <time>2022-07-22T09:51:16.000Z</time>
      </trkpt>
      <trkpt lat="45.16" lon="5.96677">
        <ele>2649</ele>
        <time>2022-07-22T09:51:26.000Z</time>
      </trkpt>
      <trkpt lat="45.16001" lon="5.96679">
        <ele>2624.8</ele>
        <time>2022-07-22T09:51:36.000Z</time>
      </trkpt>
      <trkpt lat="45.16004" lon="5.9668">
        <ele>2623.9</ele>
        <time>2022-07-22T09:51:46.000Z</time>
      </trkpt>
      <trkpt lat="45.16012" lon="5.9669">
        <ele>2622</ele>
        <time>2022-07-22T09:51:56.000Z</time>
      </trkpt>
      <trkpt lat="45.16014" lon="5.96697">
        <ele>2642</ele>
        <time>2022-07-22T09:52:06.000Z</time>
      </trkpt>
      <trkpt lat="45.16014" lon="5.96706">
        <ele>2622.4</ele>
        <time>2022-07-22T09:52:16.000Z</time>
      </trkpt>
      <trkpt lat="45.16017" lon="5.9671">
        <ele>2622.5</ele>
        <time>2022-07-22T09:52:26.000Z</time>
      </trkpt>
      <trkpt lat="45.16018" lon="5.96713">
        <ele>2622.7</ele>
        <time>2022-07-22T09:52:36.000Z</time>
      </trkpt>
      <trkpt lat="45.16018" lon="5.9672">
        <ele>2623.1</ele>
        <time>2022-07-22T09:52:46.000Z</time>
      </trkpt>
      <trkpt lat="45.16019" lon="5.96722">
        <ele>2643</ele>
        <time>2022-07-22T09:52:56.000Z</time>
      </trkpt>
      <trkpt lat="45.16017" lon="5.96728">
        <ele>2623.8</ele>
        <time>2022-07-22T09:53:06.000Z</time>
      </trkpt>
      <trkpt lat="45.16018" lon="5.96731">
        <ele>2624.2</ele>
        <time>2022-07-22T09:53:16.000Z</time>
      </trkpt>
      <trkpt lat="45.16022" lon="5.96734">
        <ele>2625.2</ele>
        <time>2022-07-22T09:53:26.000Z</time>
      </trkpt>
      <trkpt lat="45.16022" lon="5.96736">
        <ele>2625.4</ele>
        <time>2022-07-22T09:53:36.000Z</time>
      </trkpt>
      <trkpt lat="45.16024" lon="5.9674">
        <ele>2626.4</ele>
        <time>2022-07-22T09:53:46.000Z</time>
      </trkpt>
      <trkpt lat="45.16035" lon="5.96756">
        <ele>2644</ele>
        <time>2022-07-22T09:53:56.000Z</time>
      </trkpt>
      <trkpt lat="45.1604" lon="5.96768">
        <ele>2630.5</ele>
        <time>2022-07-22T09:54:06.000Z</time>
      </trkpt>
      <trkpt lat="45.16047" lon="5.96777">
        <ele>2649</ele>
        <time>2022-07-22T09:54:16.000Z</time>
      </trkpt>
      <trkpt lat="45.16046" lon="5.9678">
        <ele>2633.1</ele>
        <time>2022-07-22T09:54:26.000Z</time>
      </trkpt>
      <trkpt lat="45.16049" lon="5.96792">
        <ele>2634.4</ele>
        <time>2022-07-22T09:54:36.000Z</time>
      </trkpt>
      <trkpt lat="45.16053" lon="5.96797">
        <ele>2636</ele>
        <time>2022-07-22T09:54:46.000Z</time>
      </trkpt>
      <trkpt lat="45.16053" lon="5.968">
        <ele>2636.3</ele>
        <time>2022-07-22T09:54:56.000Z</time>
      </trkpt>
      <trkpt lat="45.16059" lon="5.9681">
        <ele>2649</ele>
        <time>2022-07-22T09:55:06.000Z</time>
      </trkpt>
      <trkpt lat="45.16061" lon="5.96816">
        <ele>2639.4</ele>
        <time>2022-07-22T09:55:16.000Z</time>
      </trkpt>
      <trkpt lat="45.16063" lon="5.96818">
        <ele>2639.9</ele>
        <time>2022-07-22T09:55:26.000Z</time>
      </trkpt>
      <trkpt lat="45.16067" lon="5.9682">
        <ele>2641.1</ele>
        <time>2022-07-22T09:55:36.000Z</time>
      </trkpt>
      <trkpt lat="45.16077" lon="5.96832">
        <ele>2657</ele>
        <time>2022-07-22T09:55:46.000Z</time>
      </trkpt>
      <trkpt lat="45.16081" lon="5.96832">
        <ele>2647.8</ele>
        <time>2022-07-22T09:55:56.000Z</time>
      </trkpt>
      <trkpt lat="45.16082" lon="5.96835">
        <ele>2648.8</ele>
        <time>2022-07-22T09:56:06.000Z</time>
      </trkpt>
      <trkpt lat="45.16091" lon="5.96846">
        <ele>2651.8</ele>
        <time>2022-07-22T09:56:16.000Z</time>
      </trkpt>
      <trkpt lat="45.16092" lon="5.96852">
        <ele>2670</ele>
        <time>2022-07-22T09:56:26.000Z</time>
      </trkpt>
      <trkpt lat="45.16094" lon="5.96858">
        <ele>2655.1</ele>
        <time>2022-07-22T09:56:36.000Z</time>
      </trkpt>
      <trkpt lat="45.16098" lon="5.9686">
        <ele>2656.3</ele>
        <time>2022-07-22T09:56:46.000Z</time>
      </trkpt>
      <trkpt lat="45.16105" lon="5.96871">
        <ele>2673</ele>
        <time>2022-07-22T09:56:56.000Z</time>
      </trkpt>
      <trkpt lat="45.16105" lon="5.96874">
        <ele>2662</ele>
        <time>2022-07-22T09:57:06.000Z</time>
      </trkpt>
      <trkpt lat="45.16103" lon="5.96879">
        <ele>2663</ele>
        <time>2022-07-22T09:57:16.000Z</time>
      </trkpt>
      <trkpt lat="45.16104" lon="5.96886">
        <ele>2665.5</ele>
        <time>2022-07-22T09:57:26.000Z</time>
      </trkpt>
      <trkpt lat="45.16104" lon="5.96892">
        <ele>2667.6</ele>
        <time>2022-07-22T09:57:36.000Z</time>
      </trkpt>
      <trkpt lat="45.16105" lon="5.96894">
        <ele>2668.8</ele>
        <time>2022-07-22T09:57:46.000Z</time>
      </trkpt>
      <trkpt lat="45.16104" lon="5.96903">
        <ele>2680</ele>
        <time>2022-07-22T09:57:56.000Z</time>
      </trkpt>
      <trkpt lat="45.16104" lon="5.96906">
        <ele>2672.9</ele>
        <time>2022-07-22T09:58:06.000Z</time>
      </trkpt>
      <trkpt lat="45.16105" lon="5.96909">
        <ele>2674.5</ele>
        <time>2022-07-22T09:58:16.000Z</time>
      </trkpt>
      <trkpt lat="45.16105" lon="5.96912">
        <ele>2675.7</ele>
        <time>2022-07-22T09:58:26.000Z</time>
      </trkpt>
      <trkpt lat="45.16108" lon="5.96916">
        <ele>2678.9</ele>
        <time>2022-07-22T09:58:36.000Z</time>
      </trkpt>
      <trkpt lat="45.16109" lon="5.96919">
        <ele>2680.6</ele>
        <time>2022-07-22T09:58:46.000Z</time>
      </trkpt>
      <trkpt lat="45.16112" lon="5.96924">
        <ele>2683.6</ele>
        <time>2022-07-22T09:58:56.000Z</time>
      </trkpt>
      <trkpt lat="45.16113" lon="5.9693">
        <ele>2689</ele>
        <time>2022-07-22T09:59:06.000Z</time>
      </trkpt>
      <trkpt lat="45.1612" lon="5.96934">
        <ele>2687.7</ele>
        <time>2022-07-22T09:59:16.000Z</time>
      </trkpt>
      <trkpt lat="45.16119" lon="5.96937">
        <ele>2688.9</ele>
        <time>2022-07-22T09:59:26.000Z</time>
      </trkpt>
      <trkpt lat="45.16122" lon="5.96941">
        <ele>2691</ele>
        <time>2022-07-22T09:59:36.000Z</time>
      </trkpt>
      <trkpt lat="45.16123" lon="5.96944">
        <ele>2692.5</ele>
        <time>2022-07-22T09:59:46.000Z</time>
      </trkpt>
      <trkpt lat="45.16124" lon="5.96954">
        <ele>2697</ele>
        <time>2022-07-22T09:59:56.000Z</time>
      </trkpt>
      <trkpt lat="45.16122" lon="5.96956">
        <ele>2697</ele>
        <time>2022-07-22T10:00:06.000Z</time>
      </trkpt>
      <trkpt lat="45.16122" lon="5.96959">
        <ele>2698.2</ele>
        <time>2022-07-22T10:00:16.000Z</time>
      </trkpt>
      <trkpt lat="45.16125" lon="5.96963">
        <ele>2700.7</ele>
        <time>2022-07-22T10:00:26.000Z</time>
      </trkpt>
      <trkpt lat="45.16125" lon="5.96969">
        <ele>2703.2</ele>
        <time>2022-07-22T10:00:36.000Z</time>
      </trkpt>
      <trkpt lat="45.16127" lon="5.96969">
        <ele>2703.9</ele>
        <time>2022-07-22T10:00:46.000Z</time>
      </trkpt>
      <trkpt lat="45.16128" lon="5.96975">
        <ele>2706</ele>
        <time>2022-07-22T10:00:56.000Z</time>
      </trkpt>
      <trkpt lat="45.1613" lon="5.96978">
        <ele>2708.6</ele>
        <time>2022-07-22T10:01:06.000Z</time>
      </trkpt>
      <trkpt lat="45.16129" lon="5.9699">
        <ele>2712.4</ele>
        <time>2022-07-22T10:01:16.000Z</time>
      </trkpt>
      <trkpt lat="45.16131" lon="5.96992">
        <ele>2714.2</ele>
        <time>2022-07-22T10:01:26.000Z</time>
      </trkpt>
      <trkpt lat="45.16133" lon="5.96996">
        <ele>2716.9</ele>
        <time>2022-07-22T10:01:36.000Z</time>
      </trkpt>
      <trkpt lat="45.16133" lon="5.96999">
        <ele>2722</ele>
        <time>2022-07-22T10:01:46.000Z</time>
      </trkpt>
      <trkpt lat="45.16134" lon="5.97002">
        <ele>2719.8</ele>
        <time>2022-07-22T10:01:56.000Z</time>
      </trkpt>
      <trkpt lat="45.16143" lon="5.97012">
        <ele>2727.9</ele>
        <time>2022-07-22T10:02:06.000Z</time>
      </trkpt>
      <trkpt lat="45.16143" lon="5.97015">
        <ele>2729.1</ele>
        <time>2022-07-22T10:02:16.000Z</time>
      </trkpt>
      <trkpt lat="45.16144" lon="5.9702">
        <ele>2725</ele>
        <time>2022-07-22T10:02:26.000Z</time>
      </trkpt>
      <trkpt lat="45.16144" lon="5.97026">
        <ele>2734.1</ele>
        <time>2022-07-22T10:02:36.000Z</time>
      </trkpt>
      <trkpt lat="45.16155" lon="5.97042">
        <ele>2725</ele>
        <time>2022-07-22T10:02:46.000Z</time>
      </trkpt>
      <trkpt lat="45.1616" lon="5.97046">
        <ele>2750.2</ele>
        <time>2022-07-22T10:02:56.000Z</time>
      </trkpt>
      <trkpt lat="45.16168" lon="5.9705">
        <ele>2755.8</ele>
        <time>2022-07-22T10:03:06.000Z</time>
      </trkpt>
      <trkpt lat="45.16169" lon="5.97055">
        <ele>2758.7</ele>
        <time>2022-07-22T10:03:16.000Z</time>
      </trkpt>
      <trkpt lat="45.16169" lon="5.97059">
        <ele>2743</ele>
        <time>2022-07-22T10:03:26.000Z</time>
      </trkpt>
      <trkpt lat="45.16171" lon="5.97069">
        <ele>2763.9</ele>
        <time>2022-07-22T10:03:36.000Z</time>
      </trkpt>
      <trkpt lat="45.16171" lon="5.97072">
        <ele>2765</ele>
        <time>2022-07-22T10:03:46.000Z</time>
      </trkpt>
      <trkpt lat="45.16168" lon="5.97079">
        <ele>2767.5</ele>
        <time>2022-07-22T10:03:56.000Z</time>
      </trkpt>
      <trkpt lat="45.16172" lon="5.97091">
        <ele>2760</ele>
        <time>2022-07-22T10:04:06.000Z</time>
      </trkpt>
      <trkpt lat="45.16174" lon="5.97092">
        <ele>2769.2</ele>
        <time>2022-07-22T10:04:16.000Z</time>
      </trkpt>
      <trkpt lat="45.16182" lon="5.97099">
        <ele>2769.9</ele>
        <time>2022-07-22T10:04:26.000Z</time>
      </trkpt>
      <trkpt lat="45.16188" lon="5.97107">
        <ele>2760</ele>
        <time>2022-07-22T10:04:36.000Z</time>
      </trkpt>
      <trkpt lat="45.16192" lon="5.97109">
        <ele>2771.5</ele>
        <time>2022-07-22T10:04:46.000Z</time>
      </trkpt>
      <trkpt lat="45.16195" lon="5.97109">
        <ele>2771.7</ele>
        <time>2022-07-22T10:04:56.000Z</time>
      </trkpt>
      <trkpt lat="45.16201" lon="5.97114">
        <ele>2769.2</ele>
        <time>2022-07-22T10:05:06.000Z</time>
      </trkpt>
      <trkpt lat="45.16205" lon="5.97116">
        <ele>2767.5</ele>
        <time>2022-07-22T10:05:16.000Z</time>
      </trkpt>
      <trkpt lat="45.16207" lon="5.97118">
        <ele>2764</ele>
        <time>2022-07-22T10:05:26.000Z</time>
      </trkpt>
      <trkpt lat="45.16213" lon="5.97121">
        <ele>2764.2</ele>
        <time>2022-07-22T10:05:36.000Z</time>
      </trkpt>
      <trkpt lat="45.16218" lon="5.97125">
        <ele>2762.1</ele>
        <time>2022-07-22T10:05:46.000Z</time>
      </trkpt>
      <trkpt lat="45.16222" lon="5.97126">
        <ele>2760.9</ele>
        <time>2022-07-22T10:05:56.000Z</time>
      </trkpt>
      <trkpt lat="45.16221" lon="5.97139">
        <ele>2769</ele>
        <time>2022-07-22T10:06:06.000Z</time>
      </trkpt>
      <trkpt lat="45.16224" lon="5.97144">
        <ele>2755.6</ele>
        <time>2022-07-22T10:06:16.000Z</time>
      </trkpt>
      <trkpt lat="45.16225" lon="5.9715">
        <ele>2752.5</ele>
        <time>2022-07-22T10:06:26.000Z</time>
      </trkpt>
      <trkpt lat="45.16224" lon="5.97153">
        <ele>2752.1</ele>
        <time>2022-07-22T10:06:36.000Z</time>
      </trkpt>
      <trkpt lat="45.16222" lon="5.97155">
        <ele>2752.7</ele>
        <time>2022-07-22T10:06:46.000Z</time>
      </trkpt>
      <trkpt lat="45.16221" lon="5.97157">
        <ele>2752</ele>
        <time>2022-07-22T10:06:56.000Z</time>
      </trkpt>
      <trkpt lat="45.16217" lon="5.97158">
        <ele>2769</ele>
        <time>2022-07-22T10:07:06.000Z</time>
      </trkpt>
      <trkpt lat="45.16215" lon="5.9716">
        <ele>2751.6</ele>
        <time>2022-07-22T10:07:16.000Z</time>
      </trkpt>
      <trkpt lat="45.16218" lon="5.97166">
        <ele>2748.7</ele>
        <time>2022-07-22T10:07:26.000Z</time>
      </trkpt>
      <trkpt lat="45.16217" lon="5.97168">
        <ele>2747.9</ele>
        <time>2022-07-22T10:07:36.000Z</time>
      </trkpt>
      <trkpt lat="45.16222" lon="5.97174">
        <ele>2744.6</ele>
        <time>2022-07-22T10:07:46.000Z</time>
      </trkpt>
      <trkpt lat="45.16224" lon="5.97181">
        <ele>2768</ele>
        <time>2022-07-22T10:07:56.000Z</time>
      </trkpt>
      <trkpt lat="45.16222" lon="5.97183">
        <ele>2740.4</ele>
        <time>2022-07-22T10:08:06.000Z</time>
      </trkpt>
      <trkpt lat="45.16222" lon="5.97186">
        <ele>2739</ele>
        <time>2022-07-22T10:08:16.000Z</time>
      </trkpt>
      <trkpt lat="45.16221" lon="5.97188">
        <ele>2738</ele>
        <time>2022-07-22T10:08:26.000Z</time>
      </trkpt>
      <trkpt lat="45.16217" lon="5.97188">
        <ele>2738</ele>
        <time>2022-07-22T10:08:36.000Z</time>
      </trkpt>
      <trkpt lat="45.16216" lon="5.97193">
        <ele>2735.5</ele>
        <time>2022-07-22T10:08:46.000Z</time>
      </trkpt>
      <trkpt lat="45.16218" lon="5.97198">
        <ele>2733.2</ele>
        <time>2022-07-22T10:08:56.000Z</time>
      </trkpt>
      <trkpt lat="45.1622" lon="5.972">
        <ele>2758</ele>
        <time>2022-07-22T10:09:06.000Z</time>
      </trkpt>
      <trkpt lat="45.1622" lon="5.97203">
        <ele>2731.1</ele>
        <time>2022-07-22T10:09:16.000Z</time>
      </trkpt>
      <trkpt lat="45.16222" lon="5.97206">
        <ele>2730</ele>
        <time>2022-07-22T10:09:26.000Z</time>
      </trkpt>
      <trkpt lat="45.16222" lon="5.97208">
        <ele>2729.1</ele>
        <time>2022-07-22T10:09:36.000Z</time>
      </trkpt>
      <trkpt lat="45.16224" lon="5.97209">
        <ele>2727.8</ele>
        <time>2022-07-22T10:09:46.000Z</time>
      </trkpt>
      <trkpt lat="45.16228" lon="5.97214">
        <ele>2723.8</ele>
        <time>2022-07-22T10:09:56.000Z</time>
      </trkpt>
      <trkpt lat="45.16232" lon="5.97217">
        <ele>2720.8</ele>
        <time>2022-07-22T10:10:06.000Z</time>
      </trkpt>
      <trkpt lat="45.16236" lon="5.97224">
        <ele>2745</ele>
        <time>2022-07-22T10:10:16.000Z</time>
      </trkpt>
      <trkpt lat="45.1624" lon="5.97237">
        <ele>2710</ele>
        <time>2022-07-22T10:10:26.000Z</time>
      </trkpt>
      <trkpt lat="45.16242" lon="5.9724">
        <ele>2708.1</ele>
        <time>2022-07-22T10:10:36.000Z</time>
      </trkpt>
      <trkpt lat="45.16242" lon="5.97243">
        <ele>2707.1</ele>
        <time>2022-07-22T10:10:46.000Z</time>
      </trkpt>
      <trkpt lat="45.16241" lon="5.97249">
        <ele>2738</ele>
        <time>2022-07-22T10:10:56.000Z</time>
      </trkpt>
      <trkpt lat="45.16243" lon="5.97255">
        <ele>2702.6</ele>
        <time>2022-07-22T10:11:06.000Z</time>
      </trkpt>
      <trkpt lat="45.16242" lon="5.97257">
        <ele>2702.2</ele>
        <time>2022-07-22T10:11:16.000Z</time>
      </trkpt>
      <trkpt lat="45.16242" lon="5.9726">
        <ele>2701.2</ele>
        <time>2022-07-22T10:11:26.000Z</time>
      </trkpt>
      <trkpt lat="45.1624" lon="5.97261">
        <ele>2701.4</ele>
        <time>2022-07-22T10:11:36.000Z</time>
      </trkpt>
      <trkpt lat="45.16242" lon="5.97265">
        <ele>2699.5</ele>
        <time>2022-07-22T10:11:46.000Z</time>
      </trkpt>
      <trkpt lat="45.16243" lon="5.97269">
        <ele>2697.9</ele>
        <time>2022-07-22T10:11:56.000Z</time>
      </trkpt>
      <trkpt lat="45.1624" lon="5.9727">
        <ele>2730</ele>
        <time>2022-07-22T10:12:06.000Z</time>
      </trkpt>
      <trkpt lat="45.16237" lon="5.97282">
        <ele>2694.5</ele>
        <time>2022-07-22T10:12:16.000Z</time>
      </trkpt>
      <trkpt lat="45.16235" lon="5.97282">
        <ele>2694.8</ele>
        <time>2022-07-22T10:12:26.000Z</time>
      </trkpt>
      <trkpt lat="45.16234" lon="5.97284">
        <ele>2694.2</ele>
        <time>2022-07-22T10:12:36.000Z</time>
      </trkpt>
      <trkpt lat="45.16235" lon="5.9729">
        <ele>2692.1</ele>
        <time>2022-07-22T10:12:46.000Z</time>
      </trkpt>
      <trkpt lat="45.16236" lon="5.97292">
        <ele>2691.4</ele>
        <time>2022-07-22T10:12:56.000Z</time>
      </trkpt>
      <trkpt lat="45.1624" lon="5.97295">
        <ele>2730</ele>
        <time>2022-07-22T10:13:06.000Z</time>
      </trkpt>
      <trkpt lat="45.16241" lon="5.97297">
        <ele>2689.6</ele>
        <time>2022-07-22T10:13:16.000Z</time>
      </trkpt>
      <trkpt lat="45.16239" lon="5.97297">
        <ele>2689.6</ele>
        <time>2022-07-22T10:13:26.000Z</time>
      </trkpt>
      <trkpt lat="45.16237" lon="5.97295">
        <ele>2690.4</ele>
        <time>2022-07-22T10:13:36.000Z</time>
      </trkpt>
      <trkpt lat="45.16238" lon="5.97298">
        <ele>2689.4</ele>
        <time>2022-07-22T10:13:46.000Z</time>
      </trkpt>
      <trkpt lat="45.16242" lon="5.97304">
        <ele>2687.5</ele>
        <time>2022-07-22T10:13:56.000Z</time>
      </trkpt>
      <trkpt lat="45.16248" lon="5.9731">
        <ele>2726</ele>
        <time>2022-07-22T10:14:06.000Z</time>
      </trkpt>
      <trkpt lat="45.16247" lon="5.97312">
        <ele>2685.7</ele>
        <time>2022-07-22T10:14:16.000Z</time>
      </trkpt>
      <trkpt lat="45.16247" lon="5.97318">
        <ele>2684.6</ele>
        <time>2022-07-22T10:14:26.000Z</time>
      </trkpt>
      <trkpt lat="45.16245" lon="5.97319">
        <ele>2684.2</ele>
        <time>2022-07-22T10:14:36.000Z</time>
      </trkpt>
      <trkpt lat="45.16239" lon="5.97313">
        <ele>2685.2</ele>
        <time>2022-07-22T10:14:46.000Z</time>
      </trkpt>
      <trkpt lat="45.16234" lon="5.97311">
        <ele>2723</ele>
        <time>2022-07-22T10:14:56.000Z</time>
      </trkpt>
      <trkpt lat="45.16234" lon="5.97317">
        <ele>2684</ele>
        <time>2022-07-22T10:15:06.000Z</time>
      </trkpt>
      <trkpt lat="45.16236" lon="5.97327">
        <ele>2681.6</ele>
        <time>2022-07-22T10:15:16.000Z</time>
      </trkpt>
      <trkpt lat="45.16242" lon="5.97334">
        <ele>2718</ele>
        <time>2022-07-22T10:15:26.000Z</time>
      </trkpt>
      <trkpt lat="45.16243" lon="5.97336">
        <ele>2680.3</ele>
        <time>2022-07-22T10:15:36.000Z</time>
      </trkpt>
      <trkpt lat="45.16246" lon="5.97337">
        <ele>2680.5</ele>
        <time>2022-07-22T10:15:46.000Z</time>
      </trkpt>
      <trkpt lat="45.16248" lon="5.97339">
        <ele>2680.3</ele>
        <time>2022-07-22T10:15:56.000Z</time>
      </trkpt>
      <trkpt lat="45.1625" lon="5.97345">
        <ele>2679.1</ele>
        <time>2022-07-22T10:16:06.000Z</time>
      </trkpt>
      <trkpt lat="45.16253" lon="5.97347">
        <ele>2677.5</ele>
        <time>2022-07-22T10:16:16.000Z</time>
      </trkpt>
      <trkpt lat="45.16255" lon="5.97356">
        <ele>2709</ele>
        <time>2022-07-22T10:16:26.000Z</time>
      </trkpt>
      <trkpt lat="45.16256" lon="5.97358">
        <ele>2673.8</ele>
        <time>2022-07-22T10:16:36.000Z</time>
      </trkpt>
      <trkpt lat="45.16261" lon="5.97363">
        <ele>2671</ele>
        <time>2022-07-22T10:16:46.000Z</time>
      </trkpt>
      <trkpt lat="45.16264" lon="5.97367">
        <ele>2669.2</ele>
        <time>2022-07-22T10:16:56.000Z</time>
      </trkpt>
      <trkpt lat="45.16263" lon="5.9737">
        <ele>2668.8</ele>
        <time>2022-07-22T10:17:06.000Z</time>
      </trkpt>
      <trkpt lat="45.16263" lon="5.97373">
        <ele>2668.2</ele>
        <time>2022-07-22T10:17:16.000Z</time>
      </trkpt>
      <trkpt lat="45.16264" lon="5.97375">
        <ele>2667.5</ele>
        <time>2022-07-22T10:17:26.000Z</time>
      </trkpt>
      <trkpt lat="45.16262" lon="5.97377">
        <ele>2709</ele>
        <time>2022-07-22T10:17:36.000Z</time>
      </trkpt>
      <trkpt lat="45.16264" lon="5.97379">
        <ele>2666.6</ele>
        <time>2022-07-22T10:17:46.000Z</time>
      </trkpt>
      <trkpt lat="45.16263" lon="5.97383">
        <ele>2666</ele>
        <time>2022-07-22T10:17:56.000Z</time>
      </trkpt>
      <trkpt lat="45.16263" lon="5.97391">
        <ele>2664.5</ele>
        <time>2022-07-22T10:18:06.000Z</time>
      </trkpt>
      <trkpt lat="45.16262" lon="5.97396">
        <ele>2664</ele>
        <time>2022-07-22T10:18:16.000Z</time>
      </trkpt>
      <trkpt lat="45.16266" lon="5.97404">
        <ele>2699</ele>
        <time>2022-07-22T10:18:26.000Z</time>
      </trkpt>
      <trkpt lat="45.16268" lon="5.97406">
        <ele>2661.6</ele>
        <time>2022-07-22T10:18:36.000Z</time>
      </trkpt>
      <trkpt lat="45.16264" lon="5.97418">
        <ele>2660.9</ele>
        <time>2022-07-22T10:18:46.000Z</time>
      </trkpt>
      <trkpt lat="45.16267" lon="5.97421">
        <ele>2660.2</ele>
        <time>2022-07-22T10:18:56.000Z</time>
      </trkpt>
      <trkpt lat="45.16268" lon="5.97428">
        <ele>2689</ele>
        <time>2022-07-22T10:19:06.000Z</time>
      </trkpt>
      <trkpt lat="45.16272" lon="5.97438">
        <ele>2658.6</ele>
        <time>2022-07-22T10:19:16.000Z</time>
      </trkpt>
      <trkpt lat="45.16271" lon="5.9744">
        <ele>2658.5</ele>
        <time>2022-07-22T10:19:26.000Z</time>
      </trkpt>
      <trkpt lat="45.16273" lon="5.97443">
        <ele>2658.3</ele>
        <time>2022-07-22T10:19:36.000Z</time>
      </trkpt>
      <trkpt lat="45.16275" lon="5.97449">
        <ele>2657.7</ele>
        <time>2022-07-22T10:19:46.000Z</time>
      </trkpt>
      <trkpt lat="45.16279" lon="5.97456">
        <ele>2681</ele>
        <time>2022-07-22T10:19:56.000Z</time>
      </trkpt>
      <trkpt lat="45.16281" lon="5.97458">
        <ele>2656.8</ele>
        <time>2022-07-22T10:20:06.000Z</time>
      </trkpt>
      <trkpt lat="45.16284" lon="5.97466">
        <ele>2656.7</ele>
        <time>2022-07-22T10:20:16.000Z</time>
      </trkpt>
      <trkpt lat="45.16289" lon="5.97472">
        <ele>2657.6</ele>
        <time>2022-07-22T10:20:26.000Z</time>
      </trkpt>
      <trkpt lat="45.16291" lon="5.97471">
        <ele>2657.7</ele>
        <time>2022-07-22T10:20:36.000Z</time>
      </trkpt>
      <trkpt lat="45.16296" lon="5.97474">
        <ele>2684</ele>
        <time>2022-07-22T10:20:46.000Z</time>
      </trkpt>
      <trkpt lat="45.16297" lon="5.97476">
        <ele>2659.2</ele>
        <time>2022-07-22T10:20:56.000Z</time>
      </trkpt>
      <trkpt lat="45.16298" lon="5.97482">
        <ele>2660.3</ele>
        <time>2022-07-22T10:21:06.000Z</time>
      </trkpt>
      <trkpt lat="45.16304" lon="5.97486">
        <ele>2662.5</ele>
        <time>2022-07-22T10:21:16.000Z</time>
      </trkpt>
      <trkpt lat="45.16307" lon="5.97491">
        <ele>2663.7</ele>
        <time>2022-07-22T10:21:26.000Z</time>
      </trkpt>
      <trkpt lat="45.16309" lon="5.97491">
        <ele>2687</ele>
        <time>2022-07-22T10:21:36.000Z</time>
      </trkpt>
      <trkpt lat="45.16311" lon="5.97493">
        <ele>2663.4</ele>
        <time>2022-07-22T10:21:46.000Z</time>
      </trkpt>
      <trkpt lat="45.16312" lon="5.97496">
        <ele>2664</ele>
        <time>2022-07-22T10:21:56.000Z</time>
      </trkpt>
      <trkpt lat="45.16312" lon="5.97499">
        <ele>2664.8</ele>
        <time>2022-07-22T10:22:06.000Z</time>
      </trkpt>
      <trkpt lat="45.16314" lon="5.97507">
        <ele>2665.1</ele>
        <time>2022-07-22T10:22:16.000Z</time>
      </trkpt>
      <trkpt lat="45.16319" lon="5.97513">
        <ele>2687</ele>
        <time>2022-07-22T10:22:26.000Z</time>
      </trkpt>
      <trkpt lat="45.16321" lon="5.97518">
        <ele>2665.7</ele>
        <time>2022-07-22T10:22:36.000Z</time>
      </trkpt>
      <trkpt lat="45.16326" lon="5.97522">
        <ele>2666.3</ele>
        <time>2022-07-22T10:22:46.000Z</time>
      </trkpt>
      <trkpt lat="45.16326" lon="5.97525">
        <ele>2666.8</ele>
        <time>2022-07-22T10:22:56.000Z</time>
      </trkpt>
      <trkpt lat="45.16331" lon="5.97536">
        <ele>2687</ele>
        <time>2022-07-22T10:23:06.000Z</time>
      </trkpt>
      <trkpt lat="45.16332" lon="5.97543">
        <ele>2671</ele>
        <time>2022-07-22T10:23:16.000Z</time>
      </trkpt>
      <trkpt lat="45.16336" lon="5.97555">
        <ele>2673.3</ele>
        <time>2022-07-22T10:23:26.000Z</time>
      </trkpt>
      <trkpt lat="45.16337" lon="5.97561">
        <ele>2673.9</ele>
        <time>2022-07-22T10:23:36.000Z</time>
      </trkpt>
      <trkpt lat="45.16338" lon="5.97564">
        <ele>2687</ele>
        <time>2022-07-22T10:23:46.000Z</time>
      </trkpt>
      <trkpt lat="45.16347" lon="5.97577">
        <ele>2676.8</ele>
        <time>2022-07-22T10:23:56.000Z</time>
      </trkpt>
      <trkpt lat="45.16344" lon="5.9759">
        <ele>2692</ele>
        <time>2022-07-22T10:24:06.000Z</time>
      </trkpt>
      <trkpt lat="45.16346" lon="5.97595">
        <ele>2679.2</ele>
        <time>2022-07-22T10:24:16.000Z</time>
      </trkpt>
      <trkpt lat="45.16348" lon="5.97597">
        <ele>2679.9</ele>
        <time>2022-07-22T10:24:26.000Z</time>
      </trkpt>
      <trkpt lat="45.16349" lon="5.97603">
        <ele>2680.8</ele>
        <time>2022-07-22T10:24:36.000Z</time>
      </trkpt>
      <trkpt lat="45.16354" lon="5.97609">
        <ele>2683.2</ele>
        <time>2022-07-22T10:24:46.000Z</time>
      </trkpt>
      <trkpt lat="45.16355" lon="5.97612">
        <ele>2709</ele>
        <time>2022-07-22T10:24:56.000Z</time>
      </trkpt>
      <trkpt lat="45.16362" lon="5.97623">
        <ele>2686.4</ele>
        <time>2022-07-22T10:25:06.000Z</time>
      </trkpt>
      <trkpt lat="45.16368" lon="5.97627">
        <ele>2689.4</ele>
        <time>2022-07-22T10:25:16.000Z</time>
      </trkpt>
      <trkpt lat="45.16371" lon="5.97631">
        <ele>2716</ele>
        <time>2022-07-22T10:25:26.000Z</time>
      </trkpt>
      <trkpt lat="45.16376" lon="5.97641">
        <ele>2693.4</ele>
        <time>2022-07-22T10:25:36.000Z</time>
      </trkpt>
      <trkpt lat="45.16379" lon="5.97645">
        <ele>2694.6</ele>
        <time>2022-07-22T10:25:46.000Z</time>
      </trkpt>
      <trkpt lat="45.1638" lon="5.97648">
        <ele>2694.9</ele>
        <time>2022-07-22T10:25:56.000Z</time>
      </trkpt>
      <trkpt lat="45.16384" lon="5.97653">
        <ele>2724</ele>
        <time>2022-07-22T10:26:06.000Z</time>
      </trkpt>
      <trkpt lat="45.16385" lon="5.97658">
        <ele>2696.3</ele>
        <time>2022-07-22T10:26:16.000Z</time>
      </trkpt>
      <trkpt lat="45.16391" lon="5.9767">
        <ele>2697.8</ele>
        <time>2022-07-22T10:26:26.000Z</time>
      </trkpt>
      <trkpt lat="45.16393" lon="5.97671">
        <ele>2698.5</ele>
        <time>2022-07-22T10:26:36.000Z</time>
      </trkpt>
      <trkpt lat="45.16397" lon="5.97676">
        <ele>2731</ele>
        <time>2022-07-22T10:26:46.000Z</time>
      </trkpt>
      <trkpt lat="45.16403" lon="5.97681">
        <ele>2701.8</ele>
        <time>2022-07-22T10:26:56.000Z</time>
      </trkpt>
      <trkpt lat="45.16405" lon="5.97684">
        <ele>2702.4</ele>
        <time>2022-07-22T10:27:06.000Z</time>
      </trkpt>
      <trkpt lat="45.16405" lon="5.97688">
        <ele>2702.4</ele>
        <time>2022-07-22T10:27:16.000Z</time>
      </trkpt>
      <trkpt lat="45.16409" lon="5.97691">
        <ele>2703.6</ele>
        <time>2022-07-22T10:27:26.000Z</time>
      </trkpt>
      <trkpt lat="45.16409" lon="5.97694">
        <ele>2737</ele>
        <time>2022-07-22T10:27:36.000Z</time>
      </trkpt>
      <trkpt lat="45.16411" lon="5.97696">
        <ele>2704</ele>
        <time>2022-07-22T10:27:46.000Z</time>
      </trkpt>
      <trkpt lat="45.16415" lon="5.97712">
        <ele>2703.7</ele>
        <time>2022-07-22T10:27:56.000Z</time>
      </trkpt>
      <trkpt lat="45.16417" lon="5.97718">
        <ele>2745</ele>
        <time>2022-07-22T10:28:06.000Z</time>
      </trkpt>
      <trkpt lat="45.16424" lon="5.97733">
        <ele>2705.2</ele>
        <time>2022-07-22T10:28:16.000Z</time>
      </trkpt>
      <trkpt lat="45.16427" lon="5.97737">
        <ele>2706.2</ele>
        <time>2022-07-22T10:28:26.000Z</time>
      </trkpt>
      <trkpt lat="45.16428" lon="5.97744">
        <ele>2747</ele>
        <time>2022-07-22T10:28:36.000Z</time>
      </trkpt>
      <trkpt lat="45.16433" lon="5.97756">
        <ele>2708.3</ele>
        <time>2022-07-22T10:28:46.000Z</time>
      </trkpt>
      <trkpt lat="45.16437" lon="5.97759">
        <ele>2709.7</ele>
        <time>2022-07-22T10:28:56.000Z</time>
      </trkpt>
      <trkpt lat="45.16444" lon="5.97771">
        <ele>2747</ele>
        <time>2022-07-22T10:29:06.000Z</time>
      </trkpt>
      <trkpt lat="45.16447" lon="5.97773">
        <ele>2711.7</ele>
        <time>2022-07-22T10:29:16.000Z</time>
      </trkpt>
      <trkpt lat="45.16454" lon="5.97781">
        <ele>2711.9</ele>
        <time>2022-07-22T10:29:26.000Z</time>
      </trkpt>
      <trkpt lat="45.16456" lon="5.97781">
        <ele>2712.2</ele>
        <time>2022-07-22T10:29:36.000Z</time>
      </trkpt>
      <trkpt lat="45.16457" lon="5.97783">
        <ele>2712.1</ele>
        <time>2022-07-22T10:29:46.000Z</time>
      </trkpt>
      <trkpt lat="45.16461" lon="5.97786">
        <ele>2747</ele>
        <time>2022-07-22T10:29:56.000Z</time>
      </trkpt>
      <trkpt lat="45.16462" lon="5.97789">
        <ele>2712.3</ele>
        <time>2022-07-22T10:30:06.000Z</time>
      </trkpt>
      <trkpt lat="45.16469" lon="5.97795">
        <ele>2713.1</ele>
        <time>2022-07-22T10:30:16.000Z</time>
      </trkpt>
      <trkpt lat="45.16475" lon="5.97799">
        <ele>2713.8</ele>
        <time>2022-07-22T10:30:26.000Z</time>
      </trkpt>
      <trkpt lat="45.16479" lon="5.978">
        <ele>2745</ele>
        <time>2022-07-22T10:30:36.000Z</time>
      </trkpt>
      <trkpt lat="45.16481" lon="5.97802">
        <ele>2714.2</ele>
        <time>2022-07-22T10:30:46.000Z</time>
      </trkpt>
      <trkpt lat="45.16483" lon="5.97807">
        <ele>2714.1</ele>
        <time>2022-07-22T10:30:56.000Z</time>
      </trkpt>
      <trkpt lat="45.16485" lon="5.97808">
        <ele>2714.3</ele>
        <time>2022-07-22T10:31:06.000Z</time>
      </trkpt>
      <trkpt lat="45.16487" lon="5.97813">
        <ele>2714.3</ele>
        <time>2022-07-22T10:31:16.000Z</time>
      </trkpt>
      <trkpt lat="45.16487" lon="5.97825">
        <ele>2743</ele>
        <time>2022-07-22T10:31:26.000Z</time>
      </trkpt>
      <trkpt lat="45.16488" lon="5.97827">
        <ele>2713.9</ele>
        <time>2022-07-22T10:31:36.000Z</time>
      </trkpt>
      <trkpt lat="45.16488" lon="5.9783">
        <ele>2713.8</ele>
        <time>2022-07-22T10:31:46.000Z</time>
      </trkpt>
      <trkpt lat="45.16491" lon="5.97843">
        <ele>2713</ele>
        <time>2022-07-22T10:31:56.000Z</time>
      </trkpt>
      <trkpt lat="45.16493" lon="5.97845">
        <ele>2712.9</ele>
        <time>2022-07-22T10:32:06.000Z</time>
      </trkpt>
      <trkpt lat="45.16496" lon="5.97845">
        <ele>2713.1</ele>
        <time>2022-07-22T10:32:16.000Z</time>
      </trkpt>
      <trkpt lat="45.16498" lon="5.97846">
        <ele>2732</ele>
        <time>2022-07-22T10:32:26.000Z</time>
      </trkpt>
      <trkpt lat="45.16506" lon="5.97855">
        <ele>2711.9</ele>
        <time>2022-07-22T10:32:36.000Z</time>
      </trkpt>
      <trkpt lat="45.16511" lon="5.97863">
        <ele>2711.5</ele>
        <time>2022-07-22T10:32:46.000Z</time>
      </trkpt>
      <trkpt lat="45.1651" lon="5.97869">
        <ele>2732</ele>
        <time>2022-07-22T10:32:56.000Z</time>
      </trkpt>
      <trkpt lat="45.16514" lon="5.97872">
        <ele>2712.3</ele>
        <time>2022-07-22T10:33:06.000Z</time>
      </trkpt>
      <trkpt lat="45.16516" lon="5.97893">
        <ele>2733</ele>
        <time>2022-07-22T10:33:16.000Z</time>
      </trkpt>
      <trkpt lat="45.16518" lon="5.97896">
        <ele>2714.9</ele>
        <time>2022-07-22T10:33:26.000Z</time>
      </trkpt>
      <trkpt lat="45.16518" lon="5.979">
        <ele>2715.3</ele>
        <time>2022-07-22T10:33:36.000Z</time>
      </trkpt>
      <trkpt lat="45.1652" lon="5.97909">
        <ele>2716.5</ele>
        <time>2022-07-22T10:33:46.000Z</time>
      </trkpt>
      <trkpt lat="45.16519" lon="5.97918">
        <ele>2717.2</ele>
        <time>2022-07-22T10:33:56.000Z</time>
      </trkpt>
      <trkpt lat="45.16519" lon="5.97925">
        <ele>2733</ele>
        <time>2022-07-22T10:34:06.000Z</time>
      </trkpt>
      <trkpt lat="45.1652" lon="5.97928">
        <ele>2718.4</ele>
        <time>2022-07-22T10:34:16.000Z</time>
      </trkpt>
      <trkpt lat="45.1652" lon="5.97931">
        <ele>2718.7</ele>
        <time>2022-07-22T10:34:26.000Z</time>
      </trkpt>
      <trkpt lat="45.16519" lon="5.97935">
        <ele>2719</ele>
        <time>2022-07-22T10:34:36.000Z</time>
      </trkpt>
      <trkpt lat="45.16522" lon="5.97944">
        <ele>2720.3</ele>
        <time>2022-07-22T10:34:46.000Z</time>
      </trkpt>
      <trkpt lat="45.16523" lon="5.97953">
        <ele>2734</ele>
        <time>2022-07-22T10:34:56.000Z</time>
      </trkpt>
      <trkpt lat="45.16524" lon="5.97957">
        <ele>2720.3</ele>
        <time>2022-07-22T10:35:06.000Z</time>
      </trkpt>
      <trkpt lat="45.16526" lon="5.9796">
        <ele>2720.3</ele>
        <time>2022-07-22T10:35:16.000Z</time>
      </trkpt>
      <trkpt lat="45.16527" lon="5.97966">
        <ele>2720.2</ele>
        <time>2022-07-22T10:35:26.000Z</time>
      </trkpt>
      <trkpt lat="45.16529" lon="5.97967">
        <ele>2720.3</ele>
        <time>2022-07-22T10:35:36.000Z</time>
      </trkpt>
      <trkpt lat="45.16533" lon="5.97976">
        <ele>2738</ele>
        <time>2022-07-22T10:35:46.000Z</time>
      </trkpt>
      <trkpt lat="45.1654" lon="5.97987">
        <ele>2722.6</ele>
        <time>2022-07-22T10:35:56.000Z</time>
      </trkpt>
      <trkpt lat="45.16541" lon="5.9799">
        <ele>2723</ele>
        <time>2022-07-22T10:36:06.000Z</time>
      </trkpt>
      <trkpt lat="45.1654" lon="5.97993">
        <ele>2723.1</ele>
        <time>2022-07-22T10:36:16.000Z</time>
      </trkpt>
      <trkpt lat="45.16545" lon="5.98006">
        <ele>2744</ele>
        <time>2022-07-22T10:36:26.000Z</time>
      </trkpt>
      <trkpt lat="45.1655" lon="5.98009">
        <ele>2726.8</ele>
        <time>2022-07-22T10:36:36.000Z</time>
      </trkpt>
      <trkpt lat="45.16552" lon="5.98014">
        <ele>2728</ele>
        <time>2022-07-22T10:36:46.000Z</time>
      </trkpt>
      <trkpt lat="45.1655" lon="5.98021">
        <ele>2729</ele>
        <time>2022-07-22T10:36:56.000Z</time>
      </trkpt>
      <trkpt lat="45.1655" lon="5.9803">
        <ele>2746</ele>
        <time>2022-07-22T10:37:06.000Z</time>
      </trkpt>
      <trkpt lat="45.16548" lon="5.98037">
        <ele>2732</ele>
        <time>2022-07-22T10:37:16.000Z</time>
      </trkpt>
      <trkpt lat="45.16546" lon="5.98041">
        <ele>2732.6</ele>
        <time>2022-07-22T10:37:26.000Z</time>
      </trkpt>
      <trkpt lat="45.16545" lon="5.98051">
        <ele>2734.8</ele>
        <time>2022-07-22T10:37:36.000Z</time>
      </trkpt>
      <trkpt lat="45.16543" lon="5.98056">
        <ele>2757</ele>
        <time>2022-07-22T10:37:46.000Z</time>
      </trkpt>
      <trkpt lat="45.16542" lon="5.98062">
        <ele>2736.7</ele>
        <time>2022-07-22T10:37:56.000Z</time>
      </trkpt>
      <trkpt lat="45.1654" lon="5.98067">
        <ele>2737.4</ele>
        <time>2022-07-22T10:38:06.000Z</time>
      </trkpt>
      <trkpt lat="45.16541" lon="5.9807">
        <ele>2738</ele>
        <time>2022-07-22T10:38:16.000Z</time>
      </trkpt>
      <trkpt lat="45.16538" lon="5.98073">
        <ele>2738.2</ele>
        <time>2022-07-22T10:38:26.000Z</time>
      </trkpt>
      <trkpt lat="45.16539" lon="5.98075">
        <ele>2738.7</ele>
        <time>2022-07-22T10:38:36.000Z</time>
      </trkpt>
      <trkpt lat="45.16536" lon="5.98081">
        <ele>2761</ele>
        <time>2022-07-22T10:38:46.000Z</time>
      </trkpt>
      <trkpt lat="45.16537" lon="5.98084">
        <ele>2740.2</ele>
        <time>2022-07-22T10:38:56.000Z</time>
      </trkpt>
      <trkpt lat="45.16536" lon="5.98086">
        <ele>2740.7</ele>
        <time>2022-07-22T10:39:06.000Z</time>
      </trkpt>
      <trkpt lat="45.16541" lon="5.98093">
        <ele>2743.2</ele>
        <time>2022-07-22T10:39:16.000Z</time>
      </trkpt>
      <trkpt lat="45.16541" lon="5.98096">
        <ele>2744.1</ele>
        <time>2022-07-22T10:39:26.000Z</time>
      </trkpt>
      <trkpt lat="45.16537" lon="5.98104">
        <ele>2768</ele>
        <time>2022-07-22T10:39:36.000Z</time>
      </trkpt>
      <trkpt lat="45.16537" lon="5.98107">
        <ele>2746.8</ele>
        <time>2022-07-22T10:39:46.000Z</time>
      </trkpt>
      <trkpt lat="45.16536" lon="5.9811">
        <ele>2747.6</ele>
        <time>2022-07-22T10:39:56.000Z</time>
      </trkpt>
      <trkpt lat="45.16534" lon="5.98112">
        <ele>2747.9</ele>
        <time>2022-07-22T10:40:06.000Z</time>
      </trkpt>
      <trkpt lat="45.16533" lon="5.98117">
        <ele>2748.7</ele>
        <time>2022-07-22T10:40:16.000Z</time>
      </trkpt>
      <trkpt lat="45.1653" lon="5.98125">
        <ele>2749.9</ele>
        <time>2022-07-22T10:40:26.000Z</time>
      </trkpt>
      <trkpt lat="45.16527" lon="5.98128">
        <ele>2768</ele>
        <time>2022-07-22T10:40:36.000Z</time>
      </trkpt>
      <trkpt lat="45.16525" lon="5.98134">
        <ele>2751.7</ele>
        <time>2022-07-22T10:40:46.000Z</time>
      </trkpt>
      <trkpt lat="45.16525" lon="5.98138">
        <ele>2752.4</ele>
        <time>2022-07-22T10:40:56.000Z</time>
      </trkpt>
      <trkpt lat="45.16526" lon="5.98141">
        <ele>2752.8</ele>
        <time>2022-07-22T10:41:06.000Z</time>
      </trkpt>
      <trkpt lat="45.16526" lon="5.98144">
        <ele>2753.4</ele>
        <time>2022-07-22T10:41:16.000Z</time>
      </trkpt>
      <trkpt lat="45.16528" lon="5.98147">
        <ele>2753.8</ele>
        <time>2022-07-22T10:41:26.000Z</time>
      </trkpt>
      <trkpt lat="45.16528" lon="5.98156">
        <ele>2774</ele>
        <time>2022-07-22T10:41:36.000Z</time>
      </trkpt>
      <trkpt lat="45.16529" lon="5.98159">
        <ele>2756.5</ele>
        <time>2022-07-22T10:41:46.000Z</time>
      </trkpt>
      <trkpt lat="45.16531" lon="5.98161">
        <ele>2757.2</ele>
        <time>2022-07-22T10:41:56.000Z</time>
      </trkpt>
      <trkpt lat="45.16534" lon="5.98167">
        <ele>2758.7</ele>
        <time>2022-07-22T10:42:06.000Z</time>
      </trkpt>
      <trkpt lat="45.16534" lon="5.98171">
        <ele>2758.6</ele>
        <time>2022-07-22T10:42:16.000Z</time>
      </trkpt>
      <trkpt lat="45.16536" lon="5.98173">
        <ele>2758.8</ele>
        <time>2022-07-22T10:42:26.000Z</time>
      </trkpt>
      <trkpt lat="45.16536" lon="5.98176">
        <ele>2758.8</ele>
        <time>2022-07-22T10:42:36.000Z</time>
      </trkpt>
      <trkpt lat="45.16538" lon="5.98179">
        <ele>2775</ele>
        <time>2022-07-22T10:42:46.000Z</time>
      </trkpt>
      <trkpt lat="45.16539" lon="5.98183">
        <ele>2759.1</ele>
        <time>2022-07-22T10:42:56.000Z</time>
      </trkpt>
      <trkpt lat="45.16538" lon="5.98201">
        <ele>2759.2</ele>
        <time>2022-07-22T10:43:06.000Z</time>
      </trkpt>
      <trkpt lat="45.16536" lon="5.98216">
        <ele>2777</ele>
        <time>2022-07-22T10:43:16.000Z</time>
      </trkpt>
      <trkpt lat="45.16537" lon="5.98224">
        <ele>2760.7</ele>
        <time>2022-07-22T10:43:26.000Z</time>
      </trkpt>
      <trkpt lat="45.16537" lon="5.98228">
        <ele>2761.5</ele>
        <time>2022-07-22T10:43:36.000Z</time>
      </trkpt>
      <trkpt lat="45.16535" lon="5.98238">
        <ele>2763.3</ele>
        <time>2022-07-22T10:43:46.000Z</time>
      </trkpt>
      <trkpt lat="45.16535" lon="5.98242">
        <ele>2764.1</ele>
        <time>2022-07-22T10:43:56.000Z</time>
      </trkpt>
      <trkpt lat="45.16536" lon="5.98244">
        <ele>2779</ele>
        <time>2022-07-22T10:44:06.000Z</time>
      </trkpt>
      <trkpt lat="45.16536" lon="5.98257">
        <ele>2766.6</ele>
        <time>2022-07-22T10:44:16.000Z</time>
      </trkpt>
      <trkpt lat="45.16537" lon="5.98259">
        <ele>2766.9</ele>
        <time>2022-07-22T10:44:26.000Z</time>
      </trkpt>
      <trkpt lat="45.16537" lon="5.98262">
        <ele>2767.1</ele>
        <time>2022-07-22T10:44:36.000Z</time>
      </trkpt>
      <trkpt lat="45.16536" lon="5.98274">
        <ele>2786</ele>
        <time>2022-07-22T10:44:46.000Z</time>
      </trkpt>
      <trkpt lat="45.16534" lon="5.98283">
        <ele>2769.3</ele>
        <time>2022-07-22T10:44:56.000Z</time>
      </trkpt>
      <trkpt lat="45.16534" lon="5.98289">
        <ele>2770.2</ele>
        <time>2022-07-22T10:45:06.000Z</time>
      </trkpt>
      <trkpt lat="45.16535" lon="5.983">
        <ele>2771.9</ele>
        <time>2022-07-22T10:45:16.000Z</time>
      </trkpt>
      <trkpt lat="45.16536" lon="5.98303">
        <ele>2795</ele>
        <time>2022-07-22T10:45:26.000Z</time>
      </trkpt>
      <trkpt lat="45.16536" lon="5.98306">
        <ele>2772.8</ele>
        <time>2022-07-22T10:45:36.000Z</time>
      </trkpt>
      <trkpt lat="45.16538" lon="5.98312">
        <ele>2774</ele>
        <time>2022-07-22T10:45:46.000Z</time>
      </trkpt>
      <trkpt lat="45.16542" lon="5.98318">
        <ele>2774.7</ele>
        <time>2022-07-22T10:45:56.000Z</time>
      </trkpt>
      <trkpt lat="45.16542" lon="5.98321">
        <ele>2775.2</ele>
        <time>2022-07-22T10:46:06.000Z</time>
      </trkpt>
      <trkpt lat="45.16548" lon="5.98326">
        <ele>2795</ele>
        <time>2022-07-22T10:46:16.000Z</time>
      </trkpt>
      <trkpt lat="45.16549" lon="5.98333">
        <ele>2775.6</ele>
        <time>2022-07-22T10:46:26.000Z</time>
      </trkpt>
      <trkpt lat="45.1655" lon="5.98336">
        <ele>2775.8</ele>
        <time>2022-07-22T10:46:36.000Z</time>
      </trkpt>
      <trkpt lat="45.16558" lon="5.98344">
        <ele>2775.6</ele>
        <time>2022-07-22T10:46:46.000Z</time>
      </trkpt>
      <trkpt lat="45.16559" lon="5.9835">
        <ele>2796</ele>
        <time>2022-07-22T10:46:56.000Z</time>
      </trkpt>
      <trkpt lat="45.1656" lon="5.98352">
        <ele>2776.7</ele>
        <time>2022-07-22T10:47:06.000Z</time>
      </trkpt>
      <trkpt lat="45.1656" lon="5.98363">
        <ele>2778.3</ele>
        <time>2022-07-22T10:47:16.000Z</time>
      </trkpt>
      <trkpt lat="45.16561" lon="5.98366">
        <ele>2778.7</ele>
        <time>2022-07-22T10:47:26.000Z</time>
      </trkpt>
      <trkpt lat="45.16561" lon="5.98369">
        <ele>2779.1</ele>
        <time>2022-07-22T10:47:36.000Z</time>
      </trkpt>
      <trkpt lat="45.16562" lon="5.98375">
        <ele>2779.9</ele>
        <time>2022-07-22T10:47:46.000Z</time>
      </trkpt>
      <trkpt lat="45.16561" lon="5.98383">
        <ele>2796</ele>
        <time>2022-07-22T10:47:56.000Z</time>
      </trkpt>
      <trkpt lat="45.16561" lon="5.98394">
        <ele>2782.4</ele>
        <time>2022-07-22T10:48:06.000Z</time>
      </trkpt>
      <trkpt lat="45.16564" lon="5.98403">
        <ele>2783.4</ele>
        <time>2022-07-22T10:48:16.000Z</time>
      </trkpt>
      <trkpt lat="45.16564" lon="5.98409">
        <ele>2796</ele>
        <time>2022-07-22T10:48:26.000Z</time>
      </trkpt>
      <trkpt lat="45.16569" lon="5.98416">
        <ele>2784.9</ele>
        <time>2022-07-22T10:48:36.000Z</time>
      </trkpt>
      <trkpt lat="45.1657" lon="5.98422">
        <ele>2785.2</ele>
        <time>2022-07-22T10:48:46.000Z</time>
      </trkpt>
      <trkpt lat="45.16574" lon="5.98425">
        <ele>2785.3</ele>
        <time>2022-07-22T10:48:56.000Z</time>
      </trkpt>
      <trkpt lat="45.16576" lon="5.98424">
        <ele>2785.3</ele>
        <time>2022-07-22T10:49:06.000Z</time>
      </trkpt>
      <trkpt lat="45.16578" lon="5.98424">
        <ele>2787</ele>
        <time>2022-07-22T10:49:16.000Z</time>
      </trkpt>
      <trkpt lat="45.1658" lon="5.98426">
        <ele>2785.3</ele>
        <time>2022-07-22T10:49:26.000Z</time>
      </trkpt>
      <trkpt lat="45.16582" lon="5.98425">
        <ele>2785.3</ele>
        <time>2022-07-22T10:49:36.000Z</time>
      </trkpt>
      <trkpt lat="45.16584" lon="5.98426">
        <ele>2785.4</ele>
        <time>2022-07-22T10:49:46.000Z</time>
      </trkpt>
      <trkpt lat="45.16584" lon="5.9843">
        <ele>2785.5</ele>
        <time>2022-07-22T10:49:56.000Z</time>
      </trkpt>
      <trkpt lat="45.16585" lon="5.98433">
        <ele>2785.7</ele>
        <time>2022-07-22T10:50:06.000Z</time>
      </trkpt>
      <trkpt lat="45.16591" lon="5.98436">
        <ele>2786.4</ele>
        <time>2022-07-22T10:50:16.000Z</time>
      </trkpt>
      <trkpt lat="45.16592" lon="5.98439">
        <ele>2787</ele>
        <time>2022-07-22T10:50:26.000Z</time>
      </trkpt>
      <trkpt lat="45.16599" lon="5.98445">
        <ele>2787.7</ele>
        <time>2022-07-22T10:50:36.000Z</time>
      </trkpt>
      <trkpt lat="45.16602" lon="5.98446">
        <ele>2788.1</ele>
        <time>2022-07-22T10:50:46.000Z</time>
      </trkpt>
      <trkpt lat="45.16602" lon="5.98455">
        <ele>2788.8</ele>
        <time>2022-07-22T10:50:56.000Z</time>
      </trkpt>
      <trkpt lat="45.16603" lon="5.98458">
        <ele>2787</ele>
        <time>2022-07-22T10:51:06.000Z</time>
      </trkpt>
      <trkpt lat="45.16607" lon="5.98461">
        <ele>2790.1</ele>
        <time>2022-07-22T10:51:16.000Z</time>
      </trkpt>
      <trkpt lat="45.16611" lon="5.98461">
        <ele>2790.8</ele>
        <time>2022-07-22T10:51:26.000Z</time>
      </trkpt>
      <trkpt lat="45.16611" lon="5.98467">
        <ele>2791.4</ele>
        <time>2022-07-22T10:51:36.000Z</time>
      </trkpt>
      <trkpt lat="45.16612" lon="5.98465">
        <ele>2791.5</ele>
        <time>2022-07-22T10:51:46.000Z</time>
      </trkpt>
      <trkpt lat="45.16618" lon="5.98463">
        <ele>2787</ele>
        <time>2022-07-22T10:51:56.000Z</time>
      </trkpt>
      <trkpt lat="45.1662" lon="5.98464">
        <ele>2793.9</ele>
        <time>2022-07-22T10:52:06.000Z</time>
      </trkpt>
      <trkpt lat="45.16621" lon="5.98467">
        <ele>2794.6</ele>
        <time>2022-07-22T10:52:16.000Z</time>
      </trkpt>
      <trkpt lat="45.16623" lon="5.98469">
        <ele>2795.5</ele>
        <time>2022-07-22T10:52:26.000Z</time>
      </trkpt>
      <trkpt lat="45.1663" lon="5.98472">
        <ele>2798.1</ele>
        <time>2022-07-22T10:52:36.000Z</time>
      </trkpt>
      <trkpt lat="45.16629" lon="5.98483">
        <ele>2787</ele>
        <time>2022-07-22T10:52:46.000Z</time>
      </trkpt>
      <trkpt lat="45.16626" lon="5.98492">
        <ele>2800.1</ele>
        <time>2022-07-22T10:52:56.000Z</time>
      </trkpt>
      <trkpt lat="45.16626" lon="5.98498">
        <ele>2801.1</ele>
        <time>2022-07-22T10:53:06.000Z</time>
      </trkpt>
      <trkpt lat="45.16627" lon="5.98504">
        <ele>2802.6</ele>
        <time>2022-07-22T10:53:16.000Z</time>
      </trkpt>
      <trkpt lat="45.16629" lon="5.98506">
        <ele>2803.9</ele>
        <time>2022-07-22T10:53:26.000Z</time>
      </trkpt>
      <trkpt lat="45.16632" lon="5.98513">
        <ele>2805</ele>
        <time>2022-07-22T10:53:36.000Z</time>
      </trkpt>
      <trkpt lat="45.16635" lon="5.98515">
        <ele>2808.4</ele>
        <time>2022-07-22T10:53:46.000Z</time>
      </trkpt>
      <trkpt lat="45.16635" lon="5.98519">
        <ele>2809.2</ele>
        <time>2022-07-22T10:53:56.000Z</time>
      </trkpt>
      <trkpt lat="45.16632" lon="5.98527">
        <ele>2809.4</ele>
        <time>2022-07-22T10:54:06.000Z</time>
      </trkpt>
      <trkpt lat="45.16632" lon="5.98535">
        <ele>2810.9</ele>
        <time>2022-07-22T10:54:16.000Z</time>
      </trkpt>
      <trkpt lat="45.16634" lon="5.98541">
        <ele>2812</ele>
        <time>2022-07-22T10:54:26.000Z</time>
      </trkpt>
      <trkpt lat="45.16633" lon="5.98547">
        <ele>2813.7</ele>
        <time>2022-07-22T10:54:36.000Z</time>
      </trkpt>
      <trkpt lat="45.16634" lon="5.98556">
        <ele>2816</ele>
        <time>2022-07-22T10:54:46.000Z</time>
      </trkpt>
      <trkpt lat="45.16633" lon="5.98562">
        <ele>2815.8</ele>
        <time>2022-07-22T10:54:56.000Z</time>
      </trkpt>
      <trkpt lat="45.16634" lon="5.98573">
        <ele>2820</ele>
        <time>2022-07-22T10:55:06.000Z</time>
      </trkpt>
      <trkpt lat="45.16639" lon="5.98593">
        <ele>2822.8</ele>
        <time>2022-07-22T10:55:16.000Z</time>
      </trkpt>
      <trkpt lat="45.16639" lon="5.98599">
        <ele>2820</ele>
        <time>2022-07-22T10:55:26.000Z</time>
      </trkpt>
      <trkpt lat="45.16638" lon="5.98601">
        <ele>2823.5</ele>
        <time>2022-07-22T10:55:36.000Z</time>
      </trkpt>
      <trkpt lat="45.16637" lon="5.98608">
        <ele>2824</ele>
        <time>2022-07-22T10:55:46.000Z</time>
      </trkpt>
      <trkpt lat="45.16638" lon="5.98614">
        <ele>2825.6</ele>
        <time>2022-07-22T10:55:56.000Z</time>
      </trkpt>
      <trkpt lat="45.1664" lon="5.98613">
        <ele>2826.5</ele>
        <time>2022-07-22T10:56:06.000Z</time>
      </trkpt>
      <trkpt lat="45.16641" lon="5.98615">
        <ele>2827</ele>
        <time>2022-07-22T10:56:16.000Z</time>
      </trkpt>
      <trkpt lat="45.16641" lon="5.98619">
        <ele>2827.4</ele>
        <time>2022-07-22T10:56:26.000Z</time>
      </trkpt>
      <trkpt lat="45.16642" lon="5.98621">
        <ele>2832</ele>
        <time>2022-07-22T10:56:36.000Z</time>
      </trkpt>
      <trkpt lat="45.16644" lon="5.98621">
        <ele>2828.4</ele>
        <time>2022-07-22T10:56:46.000Z</time>
      </trkpt>
      <trkpt lat="45.16645" lon="5.98624">
        <ele>2829</ele>
        <time>2022-07-22T10:56:56.000Z</time>
      </trkpt>
      <trkpt lat="45.16644" lon="5.98627">
        <ele>2829.1</ele>
        <time>2022-07-22T10:57:06.000Z</time>
      </trkpt>
      <trkpt lat="45.16645" lon="5.98629">
        <ele>2829.6</ele>
        <time>2022-07-22T10:57:16.000Z</time>
      </trkpt>
      <trkpt lat="45.16647" lon="5.98631">
        <ele>2830.4</ele>
        <time>2022-07-22T10:57:26.000Z</time>
      </trkpt>
      <trkpt lat="45.16647" lon="5.98634">
        <ele>2830.8</ele>
        <time>2022-07-22T10:57:36.000Z</time>
      </trkpt>
      <trkpt lat="45.16651" lon="5.98638">
        <ele>2832.4</ele>
        <time>2022-07-22T10:57:46.000Z</time>
      </trkpt>
      <trkpt lat="45.16652" lon="5.98641">
        <ele>2837</ele>
        <time>2022-07-22T10:57:56.000Z</time>
      </trkpt>
      <trkpt lat="45.16652" lon="5.98649">
        <ele>2834.4</ele>
        <time>2022-07-22T10:58:06.000Z</time>
      </trkpt>
      <trkpt lat="45.16653" lon="5.98651">
        <ele>2835</ele>
        <time>2022-07-22T10:58:16.000Z</time>
      </trkpt>
      <trkpt lat="45.16653" lon="5.98657">
        <ele>2836</ele>
        <time>2022-07-22T10:58:26.000Z</time>
      </trkpt>
      <trkpt lat="45.16654" lon="5.98667">
        <ele>2838</ele>
        <time>2022-07-22T10:58:36.000Z</time>
      </trkpt>
      <trkpt lat="45.16656" lon="5.98672">
        <ele>2840</ele>
        <time>2022-07-22T10:58:46.000Z</time>
      </trkpt>
      <trkpt lat="45.16659" lon="5.98673">
        <ele>2840.1</ele>
        <time>2022-07-22T10:58:56.000Z</time>
      </trkpt>
      <trkpt lat="45.16663" lon="5.98677">
        <ele>2842.3</ele>
        <time>2022-07-22T10:59:06.000Z</time>
      </trkpt>
      <trkpt lat="45.16663" lon="5.9868">
        <ele>2842.5</ele>
        <time>2022-07-22T10:59:16.000Z</time>
      </trkpt>
      <trkpt lat="45.16665" lon="5.98683">
        <ele>2843.8</ele>
        <time>2022-07-22T10:59:26.000Z</time>
      </trkpt>
      <trkpt lat="45.1667" lon="5.98688">
        <ele>2852</ele>
        <time>2022-07-22T10:59:36.000Z</time>
      </trkpt>
      <trkpt lat="45.16672" lon="5.98693">
        <ele>2847.3</ele>
        <time>2022-07-22T10:59:46.000Z</time>
      </trkpt>
      <trkpt lat="45.16672" lon="5.98701">
        <ele>2846.6</ele>
        <time>2022-07-22T10:59:56.000Z</time>
      </trkpt>
      <trkpt lat="45.16673" lon="5.98703">
        <ele>2846.7</ele>
        <time>2022-07-22T11:00:06.000Z</time>
      </trkpt>
      <trkpt lat="45.16675" lon="5.98703">
        <ele>2847.4</ele>
        <time>2022-07-22T11:00:16.000Z</time>
      </trkpt>
      <trkpt lat="45.16677" lon="5.98705">
        <ele>2847.9</ele>
        <time>2022-07-22T11:00:26.000Z</time>
      </trkpt>
      <trkpt lat="45.16678" lon="5.98715">
        <ele>2855</ele>
        <time>2022-07-22T11:00:36.000Z</time>
      </trkpt>
      <trkpt lat="45.16679" lon="5.98717">
        <ele>2847.7</ele>
        <time>2022-07-22T11:00:46.000Z</time>
      </trkpt>
      <trkpt lat="45.16679" lon="5.9872">
        <ele>2847.4</ele>
        <time>2022-07-22T11:00:56.000Z</time>
      </trkpt>
      <trkpt lat="45.1668" lon="5.98723">
        <ele>2847.6</ele>
        <time>2022-07-22T11:01:06.000Z</time>
      </trkpt>
      <trkpt lat="45.16682" lon="5.98728">
        <ele>2848</ele>
        <time>2022-07-22T11:01:16.000Z</time>
      </trkpt>
      <trkpt lat="45.16684" lon="5.9873">
        <ele>2848.9</ele>
        <time>2022-07-22T11:01:26.000Z</time>
      </trkpt>
      <trkpt lat="45.16685" lon="5.98733">
        <ele>2849.1</ele>
        <time>2022-07-22T11:01:36.000Z</time>
      </trkpt>
      <trkpt lat="45.16687" lon="5.98734">
        <ele>2850.1</ele>
        <time>2022-07-22T11:01:46.000Z</time>
      </trkpt>
      <trkpt lat="45.16689" lon="5.98737">
        <ele>2855</ele>
        <time>2022-07-22T11:01:56.000Z</time>
      </trkpt>
      <trkpt lat="45.16688" lon="5.98743">
        <ele>2849.7</ele>
        <time>2022-07-22T11:02:06.000Z</time>
      </trkpt>
      <trkpt lat="45.16691" lon="5.98746">
        <ele>2851.2</ele>
        <time>2022-07-22T11:02:16.000Z</time>
      </trkpt>
      <trkpt lat="45.16692" lon="5.98749">
        <ele>2851.6</ele>
        <time>2022-07-22T11:02:26.000Z</time>
      </trkpt>
      <trkpt lat="45.16695" lon="5.98749">
        <ele>2853.3</ele>
        <time>2022-07-22T11:02:36.000Z</time>
      </trkpt>
      <trkpt lat="45.16697" lon="5.98753">
        <ele>2853.7</ele>
        <time>2022-07-22T11:02:46.000Z</time>
      </trkpt>
      <trkpt lat="45.16697" lon="5.98756">
        <ele>2853.2</ele>
        <time>2022-07-22T11:02:56.000Z</time>
      </trkpt>
      <trkpt lat="45.16701" lon="5.98758">
        <ele>2869</ele>
        <time>2022-07-22T11:03:06.000Z</time>
      </trkpt>
      <trkpt lat="45.16701" lon="5.98768">
        <ele>2853.4</ele>
        <time>2022-07-22T11:03:16.000Z</time>
      </trkpt>
      <trkpt lat="45.16705" lon="5.98771">
        <ele>2855.3</ele>
        <time>2022-07-22T11:03:26.000Z</time>
      </trkpt>
      <trkpt lat="45.16712" lon="5.98771">
        <ele>2859.3</ele>
        <time>2022-07-22T11:03:36.000Z</time>
      </trkpt>
      <trkpt lat="45.16719" lon="5.98772">
        <ele>2878</ele>
        <time>2022-07-22T11:03:46.000Z</time>
      </trkpt>
      <trkpt lat="45.16725" lon="5.98779">
        <ele>2865.9</ele>
        <time>2022-07-22T11:03:56.000Z</time>
      </trkpt>
      <trkpt lat="45.16728" lon="5.9878">
        <ele>2866.9</ele>
        <time>2022-07-22T11:04:06.000Z</time>
      </trkpt>
      <trkpt lat="45.16729" lon="5.98782">
        <ele>2866.8</ele>
        <time>2022-07-22T11:04:16.000Z</time>
      </trkpt>
      <trkpt lat="45.16734" lon="5.98783">
        <ele>2868.8</ele>
        <time>2022-07-22T11:04:26.000Z</time>
      </trkpt>
      <trkpt lat="45.16738" lon="5.98785">
        <ele>2878</ele>
        <time>2022-07-22T11:04:36.000Z</time>
      </trkpt>
      <trkpt lat="45.16746" lon="5.98786">
        <ele>2873.7</ele>
        <time>2022-07-22T11:04:46.000Z</time>
      </trkpt>
      <trkpt lat="45.1675" lon="5.98788">
        <ele>2875.2</ele>
        <time>2022-07-22T11:04:56.000Z</time>
      </trkpt>
      <trkpt lat="45.16756" lon="5.98793">
        <ele>2888</ele>
        <time>2022-07-22T11:05:06.000Z</time>
      </trkpt>
      <trkpt lat="45.16755" lon="5.98799">
        <ele>2875.2</ele>
        <time>2022-07-22T11:05:16.000Z</time>
      </trkpt>
      <trkpt lat="45.16757" lon="5.98801">
        <ele>2875.7</ele>
        <time>2022-07-22T11:05:26.000Z</time>
      </trkpt>
      <trkpt lat="45.16764" lon="5.98805">
        <ele>2878.1</ele>
        <time>2022-07-22T11:05:36.000Z</time>
      </trkpt>
      <trkpt lat="45.16768" lon="5.98804">
        <ele>2879.9</ele>
        <time>2022-07-22T11:05:46.000Z</time>
      </trkpt>
      <trkpt lat="45.16772" lon="5.98805">
        <ele>2899</ele>
        <time>2022-07-22T11:05:56.000Z</time>
      </trkpt>
      <trkpt lat="45.16778" lon="5.98805">
        <ele>2884.1</ele>
        <time>2022-07-22T11:06:06.000Z</time>
      </trkpt>
      <trkpt lat="45.1678" lon="5.98803">
        <ele>2884.7</ele>
        <time>2022-07-22T11:06:16.000Z</time>
      </trkpt>
      <trkpt lat="45.16786" lon="5.98794">
        <ele>2886.7</ele>
        <time>2022-07-22T11:06:26.000Z</time>
      </trkpt>
      <trkpt lat="45.16788" lon="5.98793">
        <ele>2902</ele>
        <time>2022-07-22T11:06:36.000Z</time>
      </trkpt>
      <trkpt lat="45.1679" lon="5.98793">
        <ele>2887.6</ele>
        <time>2022-07-22T11:06:46.000Z</time>
      </trkpt>
      <trkpt lat="45.16795" lon="5.98795">
        <ele>2888.6</ele>
        <time>2022-07-22T11:06:56.000Z</time>
      </trkpt>
      <trkpt lat="45.16798" lon="5.98794">
        <ele>2889.3</ele>
        <time>2022-07-22T11:07:06.000Z</time>
      </trkpt>
      <trkpt lat="45.16802" lon="5.98797">
        <ele>2890.2</ele>
        <time>2022-07-22T11:07:16.000Z</time>
      </trkpt>
      <trkpt lat="45.16808" lon="5.98804">
        <ele>2896</ele>
        <time>2022-07-22T11:07:26.000Z</time>
      </trkpt>
      <trkpt lat="45.16818" lon="5.98799">
        <ele>2890.4</ele>
        <time>2022-07-22T11:07:36.000Z</time>
      </trkpt>
      <trkpt lat="45.16826" lon="5.98798">
        <ele>2889.8</ele>
        <time>2022-07-22T11:07:46.000Z</time>
      </trkpt>
      <trkpt lat="45.16827" lon="5.988">
        <ele>2890</ele>
        <time>2022-07-22T11:07:56.000Z</time>
      </trkpt>
      <trkpt lat="45.16832" lon="5.98803">
        <ele>2890.5</ele>
        <time>2022-07-22T11:08:06.000Z</time>
      </trkpt>
      <trkpt lat="45.16834" lon="5.98805">
        <ele>2890.5</ele>
        <time>2022-07-22T11:08:16.000Z</time>
      </trkpt>
      <trkpt lat="45.16836" lon="5.9881">
        <ele>2888.5</ele>
        <time>2022-07-22T11:08:26.000Z</time>
      </trkpt>
      <trkpt lat="45.16838" lon="5.9881">
        <ele>2887.5</ele>
        <time>2022-07-22T11:08:36.000Z</time>
      </trkpt>
      <trkpt lat="45.1684" lon="5.98808">
        <ele>2886.8</ele>
        <time>2022-07-22T11:08:46.000Z</time>
      </trkpt>
      <trkpt lat="45.16842" lon="5.98809">
        <ele>2885.6</ele>
        <time>2022-07-22T11:08:56.000Z</time>
      </trkpt>
      <trkpt lat="45.1684" lon="5.98812">
        <ele>2890</ele>
        <time>2022-07-22T11:09:06.000Z</time>
      </trkpt>
      <trkpt lat="45.16837" lon="5.98807">
        <ele>2888.6</ele>
        <time>2022-07-22T11:09:16.000Z</time>
      </trkpt>
      <trkpt lat="45.16831" lon="5.98803">
        <ele>2890.5</ele>
        <time>2022-07-22T11:09:26.000Z</time>
      </trkpt>
      <trkpt lat="45.16825" lon="5.98804">
        <ele>2890.8</ele>
        <time>2022-07-22T11:09:36.000Z</time>
      </trkpt>
      <trkpt lat="45.1682" lon="5.98799">
        <ele>2898</ele>
        <time>2022-07-22T11:09:46.000Z</time>
      </trkpt>
      <trkpt lat="45.16814" lon="5.98798">
        <ele>2890.5</ele>
        <time>2022-07-22T11:09:56.000Z</time>
      </trkpt>
      <trkpt lat="45.16814" lon="5.98789">
        <ele>2889.9</ele>
        <time>2022-07-22T11:10:06.000Z</time>
      </trkpt>
      <trkpt lat="45.16812" lon="5.98787">
        <ele>2890.1</ele>
        <time>2022-07-22T11:10:16.000Z</time>
      </trkpt>
      <trkpt lat="45.16808" lon="5.98784">
        <ele>2901</ele>
        <time>2022-07-22T11:10:26.000Z</time>
      </trkpt>
      <trkpt lat="45.16805" lon="5.98784">
        <ele>2890.9</ele>
        <time>2022-07-22T11:10:36.000Z</time>
      </trkpt>
      <trkpt lat="45.16802" lon="5.98785">
        <ele>2890.3</ele>
        <time>2022-07-22T11:10:46.000Z</time>
      </trkpt>
      <trkpt lat="45.168" lon="5.98783">
        <ele>2889.9</ele>
        <time>2022-07-22T11:10:56.000Z</time>
      </trkpt>
      <trkpt lat="45.16798" lon="5.98783">
        <ele>2889.5</ele>
        <time>2022-07-22T11:11:06.000Z</time>
      </trkpt>
      <trkpt lat="45.16796" lon="5.98781">
        <ele>2889.2</ele>
        <time>2022-07-22T11:11:16.000Z</time>
      </trkpt>
      <trkpt lat="45.16798" lon="5.98782">
        <ele>2889.6</ele>
        <time>2022-07-22T11:11:26.000Z</time>
      </trkpt>
      <trkpt lat="45.16796" lon="5.9878">
        <ele>2889.2</ele>
        <time>2022-07-22T11:11:36.000Z</time>
      </trkpt>
      <trkpt lat="45.16795" lon="5.98777">
        <ele>2901</ele>
        <time>2022-07-22T11:11:46.000Z</time>
      </trkpt>
      <trkpt lat="45.16795" lon="5.98767">
        <ele>2886.1</ele>
        <time>2022-07-22T11:11:56.000Z</time>
      </trkpt>
      <trkpt lat="45.16789" lon="5.98761">
        <ele>2883.7</ele>
        <time>2022-07-22T11:12:06.000Z</time>
      </trkpt>
      <trkpt lat="45.16787" lon="5.98758">
        <ele>2882.7</ele>
        <time>2022-07-22T11:12:16.000Z</time>
      </trkpt>
      <trkpt lat="45.16783" lon="5.98758">
        <ele>2896</ele>
        <time>2022-07-22T11:12:26.000Z</time>
      </trkpt>
      <trkpt lat="45.16781" lon="5.98752">
        <ele>2880.7</ele>
        <time>2022-07-22T11:12:36.000Z</time>
      </trkpt>
      <trkpt lat="45.16781" lon="5.98749">
        <ele>2879.9</ele>
        <time>2022-07-22T11:12:46.000Z</time>
      </trkpt>
      <trkpt lat="45.16782" lon="5.98746">
        <ele>2878.9</ele>
        <time>2022-07-22T11:12:56.000Z</time>
      </trkpt>
      <trkpt lat="45.16782" lon="5.98743">
        <ele>2877.8</ele>
        <time>2022-07-22T11:13:06.000Z</time>
      </trkpt>
      <trkpt lat="45.16784" lon="5.9874">
        <ele>2876.8</ele>
        <time>2022-07-22T11:13:16.000Z</time>
      </trkpt>
      <trkpt lat="45.16784" lon="5.98733">
        <ele>2891</ele>
        <time>2022-07-22T11:13:26.000Z</time>
      </trkpt>
      <trkpt lat="45.16782" lon="5.98728">
        <ele>2872.6</ele>
        <time>2022-07-22T11:13:36.000Z</time>
      </trkpt>
      <trkpt lat="45.16782" lon="5.98725">
        <ele>2871.5</ele>
        <time>2022-07-22T11:13:46.000Z</time>
      </trkpt>
      <trkpt lat="45.16783" lon="5.9872">
        <ele>2869.6</ele>
        <time>2022-07-22T11:13:56.000Z</time>
      </trkpt>
      <trkpt lat="45.16782" lon="5.98716">
        <ele>2868.2</ele>
        <time>2022-07-22T11:14:06.000Z</time>
      </trkpt>
      <trkpt lat="45.1678" lon="5.98712">
        <ele>2867</ele>
        <time>2022-07-22T11:14:16.000Z</time>
      </trkpt>
      <trkpt lat="45.16775" lon="5.98707">
        <ele>2885</ele>
        <time>2022-07-22T11:14:26.000Z</time>
      </trkpt>
      <trkpt lat="45.16767" lon="5.98705">
        <ele>2864.7</ele>
        <time>2022-07-22T11:14:36.000Z</time>
      </trkpt>
      <trkpt lat="45.16766" lon="5.98702">
        <ele>2863.8</ele>
        <time>2022-07-22T11:14:46.000Z</time>
      </trkpt>
      <trkpt lat="45.16766" lon="5.98696">
        <ele>2861.9</ele>
        <time>2022-07-22T11:14:56.000Z</time>
      </trkpt>
      <trkpt lat="45.16765" lon="5.9869">
        <ele>2880</ele>
        <time>2022-07-22T11:15:06.000Z</time>
      </trkpt>
      <trkpt lat="45.16765" lon="5.98683">
        <ele>2857.3</ele>
        <time>2022-07-22T11:15:16.000Z</time>
      </trkpt>
      <trkpt lat="45.16758" lon="5.98681">
        <ele>2857.1</ele>
        <time>2022-07-22T11:15:26.000Z</time>
      </trkpt>
      <trkpt lat="45.16753" lon="5.98683">
        <ele>2858.1</ele>
        <time>2022-07-22T11:15:36.000Z</time>
      </trkpt>
      <trkpt lat="45.1675" lon="5.98679">
        <ele>2873</ele>
        <time>2022-07-22T11:15:46.000Z</time>
      </trkpt>
      <trkpt lat="45.1675" lon="5.98675">
        <ele>2855.7</ele>
        <time>2022-07-22T11:15:56.000Z</time>
      </trkpt>
      <trkpt lat="45.16745" lon="5.98675">
        <ele>2855.4</ele>
        <time>2022-07-22T11:16:06.000Z</time>
      </trkpt>
      <trkpt lat="45.16745" lon="5.98672">
        <ele>2854.5</ele>
        <time>2022-07-22T11:16:16.000Z</time>
      </trkpt>
      <trkpt lat="45.16743" lon="5.98674">
        <ele>2855</ele>
        <time>2022-07-22T11:16:26.000Z</time>
      </trkpt>
      <trkpt lat="45.16741" lon="5.98674">
        <ele>2854.9</ele>
        <time>2022-07-22T11:16:36.000Z</time>
      </trkpt>
      <trkpt lat="45.16739" lon="5.98675">
        <ele>2855.1</ele>
        <time>2022-07-22T11:16:46.000Z</time>
      </trkpt>
      <trkpt lat="45.16737" lon="5.98674">
        <ele>2854.7</ele>
        <time>2022-07-22T11:16:56.000Z</time>
      </trkpt>
      <trkpt lat="45.16735" lon="5.98672">
        <ele>2867</ele>
        <time>2022-07-22T11:17:06.000Z</time>
      </trkpt>
      <trkpt lat="45.16733" lon="5.98667">
        <ele>2852.5</ele>
        <time>2022-07-22T11:17:16.000Z</time>
      </trkpt>
      <trkpt lat="45.16729" lon="5.98664">
        <ele>2851.5</ele>
        <time>2022-07-22T11:17:26.000Z</time>
      </trkpt>
      <trkpt lat="45.16727" lon="5.98658">
        <ele>2849.6</ele>
        <time>2022-07-22T11:17:36.000Z</time>
      </trkpt>
      <trkpt lat="45.16725" lon="5.98656">
        <ele>2849</ele>
        <time>2022-07-22T11:17:46.000Z</time>
      </trkpt>
      <trkpt lat="45.16725" lon="5.98653">
        <ele>2848.1</ele>
        <time>2022-07-22T11:17:56.000Z</time>
      </trkpt>
      <trkpt lat="45.16721" lon="5.98651">
        <ele>2861</ele>
        <time>2022-07-22T11:18:06.000Z</time>
      </trkpt>
      <trkpt lat="45.16717" lon="5.98647">
        <ele>2845.5</ele>
        <time>2022-07-22T11:18:16.000Z</time>
      </trkpt>
      <trkpt lat="45.16715" lon="5.98641">
        <ele>2843.5</ele>
        <time>2022-07-22T11:18:26.000Z</time>
      </trkpt>
      <trkpt lat="45.16717" lon="5.98636">
        <ele>2842.6</ele>
        <time>2022-07-22T11:18:36.000Z</time>
      </trkpt>
      <trkpt lat="45.16716" lon="5.98633">
        <ele>2841.8</ele>
        <time>2022-07-22T11:18:46.000Z</time>
      </trkpt>
      <trkpt lat="45.16718" lon="5.98627">
        <ele>2850</ele>
        <time>2022-07-22T11:18:56.000Z</time>
      </trkpt>
      <trkpt lat="45.16719" lon="5.98616">
        <ele>2838.1</ele>
        <time>2022-07-22T11:19:06.000Z</time>
      </trkpt>
      <trkpt lat="45.16722" lon="5.98609">
        <ele>2836.4</ele>
        <time>2022-07-22T11:19:16.000Z</time>
      </trkpt>
      <trkpt lat="45.16721" lon="5.98605">
        <ele>2835.2</ele>
        <time>2022-07-22T11:19:26.000Z</time>
      </trkpt>
      <trkpt lat="45.16724" lon="5.98599">
        <ele>2844</ele>
        <time>2022-07-22T11:19:36.000Z</time>
      </trkpt>
      <trkpt lat="45.16724" lon="5.98592">
        <ele>2831.1</ele>
        <time>2022-07-22T11:19:46.000Z</time>
      </trkpt>
      <trkpt lat="45.16723" lon="5.9859">
        <ele>2830.7</ele>
        <time>2022-07-22T11:19:56.000Z</time>
      </trkpt>
      <trkpt lat="45.1672" lon="5.98578">
        <ele>2827.9</ele>
        <time>2022-07-22T11:20:06.000Z</time>
      </trkpt>
      <trkpt lat="45.16722" lon="5.98573">
        <ele>2844</ele>
        <time>2022-07-22T11:20:16.000Z</time>
      </trkpt>
      <trkpt lat="45.16723" lon="5.98567">
        <ele>2824.6</ele>
        <time>2022-07-22T11:20:26.000Z</time>
      </trkpt>
      <trkpt lat="45.1672" lon="5.98553">
        <ele>2821.9</ele>
        <time>2022-07-22T11:20:36.000Z</time>
      </trkpt>
      <trkpt lat="45.16721" lon="5.98547">
        <ele>2830</ele>
        <time>2022-07-22T11:20:46.000Z</time>
      </trkpt>
      <trkpt lat="45.1672" lon="5.98545">
        <ele>2820.5</ele>
        <time>2022-07-22T11:20:56.000Z</time>
      </trkpt>
      <trkpt lat="45.16719" lon="5.9854">
        <ele>2819.8</ele>
        <time>2022-07-22T11:21:06.000Z</time>
      </trkpt>
      <trkpt lat="45.16717" lon="5.98538">
        <ele>2819.8</ele>
        <time>2022-07-22T11:21:16.000Z</time>
      </trkpt>
      <trkpt lat="45.16714" lon="5.98533">
        <ele>2819.4</ele>
        <time>2022-07-22T11:21:26.000Z</time>
      </trkpt>
      <trkpt lat="45.16714" lon="5.9853">
        <ele>2818.9</ele>
        <time>2022-07-22T11:21:36.000Z</time>
      </trkpt>
      <trkpt lat="45.16716" lon="5.98527">
        <ele>2818</ele>
        <time>2022-07-22T11:21:46.000Z</time>
      </trkpt>
      <trkpt lat="45.16716" lon="5.98524">
        <ele>2830</ele>
        <time>2022-07-22T11:21:56.000Z</time>
      </trkpt>
      <trkpt lat="45.16711" lon="5.98509">
        <ele>2815.6</ele>
        <time>2022-07-22T11:22:06.000Z</time>
      </trkpt>
      <trkpt lat="45.16712" lon="5.98507">
        <ele>2815.1</ele>
        <time>2022-07-22T11:22:16.000Z</time>
      </trkpt>
      <trkpt lat="45.16711" lon="5.98497">
        <ele>2826</ele>
        <time>2022-07-22T11:22:26.000Z</time>
      </trkpt>
      <trkpt lat="45.16709" lon="5.98495">
        <ele>2812.9</ele>
        <time>2022-07-22T11:22:36.000Z</time>
      </trkpt>
      <trkpt lat="45.16705" lon="5.98484">
        <ele>2810.6</ele>
        <time>2022-07-22T11:22:46.000Z</time>
      </trkpt>
      <trkpt lat="45.16706" lon="5.98482">
        <ele>2809.8</ele>
        <time>2022-07-22T11:22:56.000Z</time>
      </trkpt>
      <trkpt lat="45.16706" lon="5.98478">
        <ele>2808.7</ele>
        <time>2022-07-22T11:23:06.000Z</time>
      </trkpt>
      <trkpt lat="45.16704" lon="5.98473">
        <ele>2814</ele>
        <time>2022-07-22T11:23:16.000Z</time>
      </trkpt>
      <trkpt lat="45.16703" lon="5.98466">
        <ele>2806.2</ele>
        <time>2022-07-22T11:23:26.000Z</time>
      </trkpt>
      <trkpt lat="45.16705" lon="5.98464">
        <ele>2805.2</ele>
        <time>2022-07-22T11:23:36.000Z</time>
      </trkpt>
      <trkpt lat="45.16709" lon="5.98465">
        <ele>2804.4</ele>
        <time>2022-07-22T11:23:46.000Z</time>
      </trkpt>
      <trkpt lat="45.16709" lon="5.98462">
        <ele>2803.6</ele>
        <time>2022-07-22T11:23:56.000Z</time>
      </trkpt>
      <trkpt lat="45.16705" lon="5.98453">
        <ele>2811</ele>
        <time>2022-07-22T11:24:06.000Z</time>
      </trkpt>
      <trkpt lat="45.16703" lon="5.98451">
        <ele>2802.3</ele>
        <time>2022-07-22T11:24:16.000Z</time>
      </trkpt>
      <trkpt lat="45.16703" lon="5.98447">
        <ele>2801.2</ele>
        <time>2022-07-22T11:24:26.000Z</time>
      </trkpt>
      <trkpt lat="45.16701" lon="5.98444">
        <ele>2801.1</ele>
        <time>2022-07-22T11:24:36.000Z</time>
      </trkpt>
      <trkpt lat="45.16701" lon="5.98434">
        <ele>2799.7</ele>
        <time>2022-07-22T11:24:46.000Z</time>
      </trkpt>
      <trkpt lat="45.16699" lon="5.98428">
        <ele>2810</ele>
        <time>2022-07-22T11:24:56.000Z</time>
      </trkpt>
      <trkpt lat="45.16696" lon="5.98423">
        <ele>2799.5</ele>
        <time>2022-07-22T11:25:06.000Z</time>
      </trkpt>
      <trkpt lat="45.16696" lon="5.9841">
        <ele>2797.9</ele>
        <time>2022-07-22T11:25:16.000Z</time>
      </trkpt>
      <trkpt lat="45.16694" lon="5.984">
        <ele>2810</ele>
        <time>2022-07-22T11:25:26.000Z</time>
      </trkpt>
      <trkpt lat="45.16691" lon="5.98389">
        <ele>2795.4</ele>
        <time>2022-07-22T11:25:36.000Z</time>
      </trkpt>
      <trkpt lat="45.1669" lon="5.98387">
        <ele>2795</ele>
        <time>2022-07-22T11:25:46.000Z</time>
      </trkpt>
      <trkpt lat="45.16687" lon="5.98365">
        <ele>2807</ele>
        <time>2022-07-22T11:25:56.000Z</time>
      </trkpt>
      <trkpt lat="45.16685" lon="5.98362">
        <ele>2790.4</ele>
        <time>2022-07-22T11:26:06.000Z</time>
      </trkpt>
      <trkpt lat="45.16681" lon="5.98358">
        <ele>2789.1</ele>
        <time>2022-07-22T11:26:16.000Z</time>
      </trkpt>
      <trkpt lat="45.16675" lon="5.98346">
        <ele>2787.5</ele>
        <time>2022-07-22T11:26:26.000Z</time>
      </trkpt>
      <trkpt lat="45.16673" lon="5.98343">
        <ele>2808</ele>
        <time>2022-07-22T11:26:36.000Z</time>
      </trkpt>
      <trkpt lat="45.16673" lon="5.9834">
        <ele>2787.1</ele>
        <time>2022-07-22T11:26:46.000Z</time>
      </trkpt>
      <trkpt lat="45.1667" lon="5.98336">
        <ele>2786.5</ele>
        <time>2022-07-22T11:26:56.000Z</time>
      </trkpt>
      <trkpt lat="45.16665" lon="5.98324">
        <ele>2785.9</ele>
        <time>2022-07-22T11:27:06.000Z</time>
      </trkpt>
      <trkpt lat="45.16664" lon="5.98321">
        <ele>2785.7</ele>
        <time>2022-07-22T11:27:16.000Z</time>
      </trkpt>
      <trkpt lat="45.16663" lon="5.98315">
        <ele>2804</ele>
        <time>2022-07-22T11:27:26.000Z</time>
      </trkpt>
      <trkpt lat="45.16661" lon="5.98313">
        <ele>2785.2</ele>
        <time>2022-07-22T11:27:36.000Z</time>
      </trkpt>
      <trkpt lat="45.16661" lon="5.98306">
        <ele>2785.4</ele>
        <time>2022-07-22T11:27:46.000Z</time>
      </trkpt>
      <trkpt lat="45.16657" lon="5.98302">
        <ele>2784.5</ele>
        <time>2022-07-22T11:27:56.000Z</time>
      </trkpt>
      <trkpt lat="45.16655" lon="5.98297">
        <ele>2784.3</ele>
        <time>2022-07-22T11:28:06.000Z</time>
      </trkpt>
      <trkpt lat="45.16656" lon="5.98294">
        <ele>2784.9</ele>
        <time>2022-07-22T11:28:16.000Z</time>
      </trkpt>
      <trkpt lat="45.16656" lon="5.98291">
        <ele>2805</ele>
        <time>2022-07-22T11:28:26.000Z</time>
      </trkpt>
      <trkpt lat="45.16655" lon="5.98288">
        <ele>2785</ele>
        <time>2022-07-22T11:28:36.000Z</time>
      </trkpt>
      <trkpt lat="45.16653" lon="5.98285">
        <ele>2784.6</ele>
        <time>2022-07-22T11:28:46.000Z</time>
      </trkpt>
      <trkpt lat="45.16653" lon="5.98283">
        <ele>2784.7</ele>
        <time>2022-07-22T11:28:56.000Z</time>
      </trkpt>
      <trkpt lat="45.1665" lon="5.98279">
        <ele>2783.9</ele>
        <time>2022-07-22T11:29:06.000Z</time>
      </trkpt>
      <trkpt lat="45.1665" lon="5.98276">
        <ele>2784.1</ele>
        <time>2022-07-22T11:29:16.000Z</time>
      </trkpt>
      <trkpt lat="45.16647" lon="5.98271">
        <ele>2783.2</ele>
        <time>2022-07-22T11:29:26.000Z</time>
      </trkpt>
      <trkpt lat="45.16643" lon="5.98255">
        <ele>2806</ele>
        <time>2022-07-22T11:29:36.000Z</time>
      </trkpt>
      <trkpt lat="45.16642" lon="5.98253">
        <ele>2782.1</ele>
        <time>2022-07-22T11:29:46.000Z</time>
      </trkpt>
      <trkpt lat="45.16641" lon="5.98247">
        <ele>2782.1</ele>
        <time>2022-07-22T11:29:56.000Z</time>
      </trkpt>
      <trkpt lat="45.16639" lon="5.98244">
        <ele>2781.7</ele>
        <time>2022-07-22T11:30:06.000Z</time>
      </trkpt>
      <trkpt lat="45.1664" lon="5.9824">
        <ele>2782.5</ele>
        <time>2022-07-22T11:30:16.000Z</time>
      </trkpt>
      <trkpt lat="45.16636" lon="5.98237">
        <ele>2781.7</ele>
        <time>2022-07-22T11:30:26.000Z</time>
      </trkpt>
      <trkpt lat="45.16632" lon="5.9823">
        <ele>2803</ele>
        <time>2022-07-22T11:30:36.000Z</time>
      </trkpt>
      <trkpt lat="45.1663" lon="5.98224">
        <ele>2781</ele>
        <time>2022-07-22T11:30:46.000Z</time>
      </trkpt>
      <trkpt lat="45.16627" lon="5.98223">
        <ele>2780.1</ele>
        <time>2022-07-22T11:30:56.000Z</time>
      </trkpt>
      <trkpt lat="45.16625" lon="5.9822">
        <ele>2779.6</ele>
        <time>2022-07-22T11:31:06.000Z</time>
      </trkpt>
      <trkpt lat="45.16616" lon="5.98203">
        <ele>2802</ele>
        <time>2022-07-22T11:31:16.000Z</time>
      </trkpt>
      <trkpt lat="45.16615" lon="5.982">
        <ele>2777.7</ele>
        <time>2022-07-22T11:31:26.000Z</time>
      </trkpt>
      <trkpt lat="45.16616" lon="5.98191">
        <ele>2778.5</ele>
        <time>2022-07-22T11:31:36.000Z</time>
      </trkpt>
      <trkpt lat="45.16618" lon="5.98185">
        <ele>2779.2</ele>
        <time>2022-07-22T11:31:46.000Z</time>
      </trkpt>
      <trkpt lat="45.16619" lon="5.98176">
        <ele>2801</ele>
        <time>2022-07-22T11:31:56.000Z</time>
      </trkpt>
      <trkpt lat="45.16618" lon="5.98172">
        <ele>2779.4</ele>
        <time>2022-07-22T11:32:06.000Z</time>
      </trkpt>
      <trkpt lat="45.16614" lon="5.98165">
        <ele>2778.3</ele>
        <time>2022-07-22T11:32:16.000Z</time>
      </trkpt>
      <trkpt lat="45.16612" lon="5.98159">
        <ele>2776.8</ele>
        <time>2022-07-22T11:32:26.000Z</time>
      </trkpt>
      <trkpt lat="45.1661" lon="5.98156">
        <ele>2775.8</ele>
        <time>2022-07-22T11:32:36.000Z</time>
      </trkpt>
      <trkpt lat="45.16604" lon="5.98156">
        <ele>2800</ele>
        <time>2022-07-22T11:32:46.000Z</time>
      </trkpt>
      <trkpt lat="45.16602" lon="5.98154">
        <ele>2773.6</ele>
        <time>2022-07-22T11:32:56.000Z</time>
      </trkpt>
      <trkpt lat="45.16601" lon="5.98152">
        <ele>2773</ele>
        <time>2022-07-22T11:33:06.000Z</time>
      </trkpt>
      <trkpt lat="45.16594" lon="5.98149">
        <ele>2770.7</ele>
        <time>2022-07-22T11:33:16.000Z</time>
      </trkpt>
      <trkpt lat="45.16594" lon="5.98146">
        <ele>2770.1</ele>
        <time>2022-07-22T11:33:26.000Z</time>
      </trkpt>
      <trkpt lat="45.16595" lon="5.98144">
        <ele>2770</ele>
        <time>2022-07-22T11:33:36.000Z</time>
      </trkpt>
      <trkpt lat="45.16594" lon="5.98141">
        <ele>2769.1</ele>
        <time>2022-07-22T11:33:46.000Z</time>
      </trkpt>
      <trkpt lat="45.16589" lon="5.9814">
        <ele>2783</ele>
        <time>2022-07-22T11:33:56.000Z</time>
      </trkpt>
      <trkpt lat="45.16588" lon="5.98138">
        <ele>2766.8</ele>
        <time>2022-07-22T11:34:06.000Z</time>
      </trkpt>
      <trkpt lat="45.1659" lon="5.98135">
        <ele>2766.2</ele>
        <time>2022-07-22T11:34:16.000Z</time>
      </trkpt>
      <trkpt lat="45.1659" lon="5.9813">
        <ele>2764.2</ele>
        <time>2022-07-22T11:34:26.000Z</time>
      </trkpt>
      <trkpt lat="45.16587" lon="5.98124">
        <ele>2760.8</ele>
        <time>2022-07-22T11:34:36.000Z</time>
      </trkpt>
      <trkpt lat="45.16584" lon="5.98125">
        <ele>2760.2</ele>
        <time>2022-07-22T11:34:46.000Z</time>
      </trkpt>
      <trkpt lat="45.16582" lon="5.98124">
        <ele>2759.3</ele>
        <time>2022-07-22T11:34:56.000Z</time>
      </trkpt>
      <trkpt lat="45.16582" lon="5.98121">
        <ele>2774</ele>
        <time>2022-07-22T11:35:06.000Z</time>
      </trkpt>
      <trkpt lat="45.1658" lon="5.98118">
        <ele>2756.4</ele>
        <time>2022-07-22T11:35:16.000Z</time>
      </trkpt>
      <trkpt lat="45.16576" lon="5.98115">
        <ele>2754.5</ele>
        <time>2022-07-22T11:35:26.000Z</time>
      </trkpt>
      <trkpt lat="45.16572" lon="5.98104">
        <ele>2750.9</ele>
        <time>2022-07-22T11:35:36.000Z</time>
      </trkpt>
      <trkpt lat="45.16572" lon="5.98101">
        <ele>2750.3</ele>
        <time>2022-07-22T11:35:46.000Z</time>
      </trkpt>
      <trkpt lat="45.16568" lon="5.98096">
        <ele>2759</ele>
        <time>2022-07-22T11:35:56.000Z</time>
      </trkpt>
      <trkpt lat="45.16564" lon="5.98093">
        <ele>2746.8</ele>
        <time>2022-07-22T11:36:06.000Z</time>
      </trkpt>
      <trkpt lat="45.16562" lon="5.98088">
        <ele>2745</ele>
        <time>2022-07-22T11:36:16.000Z</time>
      </trkpt>
      <trkpt lat="45.1656" lon="5.98087">
        <ele>2744.3</ele>
        <time>2022-07-22T11:36:26.000Z</time>
      </trkpt>
      <trkpt lat="45.1656" lon="5.98077">
        <ele>2742.2</ele>
        <time>2022-07-22T11:36:36.000Z</time>
      </trkpt>
      <trkpt lat="45.16557" lon="5.98075">
        <ele>2759</ele>
        <time>2022-07-22T11:36:46.000Z</time>
      </trkpt>
      <trkpt lat="45.16554" lon="5.98067">
        <ele>2738.9</ele>
        <time>2022-07-22T11:36:56.000Z</time>
      </trkpt>
      <trkpt lat="45.16557" lon="5.98057">
        <ele>2737.8</ele>
        <time>2022-07-22T11:37:06.000Z</time>
      </trkpt>
      <trkpt lat="45.1656" lon="5.98054">
        <ele>2738.3</ele>
        <time>2022-07-22T11:37:16.000Z</time>
      </trkpt>
      <trkpt lat="45.16554" lon="5.98047">
        <ele>2746</ele>
        <time>2022-07-22T11:37:26.000Z</time>
      </trkpt>
      <trkpt lat="45.16555" lon="5.98041">
        <ele>2733.8</ele>
        <time>2022-07-22T11:37:36.000Z</time>
      </trkpt>
      <trkpt lat="45.16552" lon="5.98028">
        <ele>2730.5</ele>
        <time>2022-07-22T11:37:46.000Z</time>
      </trkpt>
      <trkpt lat="45.1655" lon="5.98021">
        <ele>2746</ele>
        <time>2022-07-22T11:37:56.000Z</time>
      </trkpt>
      <trkpt lat="45.16548" lon="5.98018">
        <ele>2728.2</ele>
        <time>2022-07-22T11:38:06.000Z</time>
      </trkpt>
      <trkpt lat="45.16548" lon="5.98015">
        <ele>2727.6</ele>
        <time>2022-07-22T11:38:16.000Z</time>
      </trkpt>
      <trkpt lat="45.16545" lon="5.98014">
        <ele>2727</ele>
        <time>2022-07-22T11:38:26.000Z</time>
      </trkpt>
      <trkpt lat="45.16538" lon="5.97984">
        <ele>2738</ele>
        <time>2022-07-22T11:38:36.000Z</time>
      </trkpt>
      <trkpt lat="45.16536" lon="5.97978">
        <ele>2721.4</ele>
        <time>2022-07-22T11:38:46.000Z</time>
      </trkpt>
      <trkpt lat="45.16536" lon="5.97974">
        <ele>2721</ele>
        <time>2022-07-22T11:38:56.000Z</time>
      </trkpt>
      <trkpt lat="45.16538" lon="5.97963">
        <ele>2721.2</ele>
        <time>2022-07-22T11:39:06.000Z</time>
      </trkpt>
      <trkpt lat="45.16537" lon="5.97957">
        <ele>2734</ele>
        <time>2022-07-22T11:39:16.000Z</time>
      </trkpt>
      <trkpt lat="45.16536" lon="5.97942">
        <ele>2721.1</ele>
        <time>2022-07-22T11:39:26.000Z</time>
      </trkpt>
      <trkpt lat="45.16534" lon="5.97938">
        <ele>2720.7</ele>
        <time>2022-07-22T11:39:36.000Z</time>
      </trkpt>
      <trkpt lat="45.16534" lon="5.97936">
        <ele>2720.6</ele>
        <time>2022-07-22T11:39:46.000Z</time>
      </trkpt>
      <trkpt lat="45.1653" lon="5.97921">
        <ele>2731</ele>
        <time>2022-07-22T11:39:56.000Z</time>
      </trkpt>
      <trkpt lat="45.1653" lon="5.97917">
        <ele>2718.4</ele>
        <time>2022-07-22T11:40:06.000Z</time>
      </trkpt>
      <trkpt lat="45.16534" lon="5.97904">
        <ele>2718</ele>
        <time>2022-07-22T11:40:16.000Z</time>
      </trkpt>
      <trkpt lat="45.16534" lon="5.979">
        <ele>2717.7</ele>
        <time>2022-07-22T11:40:26.000Z</time>
      </trkpt>
      <trkpt lat="45.16535" lon="5.97896">
        <ele>2717.4</ele>
        <time>2022-07-22T11:40:36.000Z</time>
      </trkpt>
      <trkpt lat="45.16537" lon="5.97891">
        <ele>2730</ele>
        <time>2022-07-22T11:40:46.000Z</time>
      </trkpt>
      <trkpt lat="45.16539" lon="5.97889">
        <ele>2717.2</ele>
        <time>2022-07-22T11:40:56.000Z</time>
      </trkpt>
      <trkpt lat="45.16542" lon="5.9788">
        <ele>2716.1</ele>
        <time>2022-07-22T11:41:06.000Z</time>
      </trkpt>
      <trkpt lat="45.16542" lon="5.97877">
        <ele>2715.6</ele>
        <time>2022-07-22T11:41:16.000Z</time>
      </trkpt>
      <trkpt lat="45.16539" lon="5.97872">
        <ele>2714.5</ele>
        <time>2022-07-22T11:41:26.000Z</time>
      </trkpt>
      <trkpt lat="45.16538" lon="5.97866">
        <ele>2728</ele>
        <time>2022-07-22T11:41:36.000Z</time>
      </trkpt>
      <trkpt lat="45.16539" lon="5.97864">
        <ele>2713.3</ele>
        <time>2022-07-22T11:41:46.000Z</time>
      </trkpt>
      <trkpt lat="45.1654" lon="5.97855">
        <ele>2712.7</ele>
        <time>2022-07-22T11:41:56.000Z</time>
      </trkpt>
      <trkpt lat="45.16543" lon="5.97846">
        <ele>2712.5</ele>
        <time>2022-07-22T11:42:06.000Z</time>
      </trkpt>
      <trkpt lat="45.16547" lon="5.97837">
        <ele>2726</ele>
        <time>2022-07-22T11:42:16.000Z</time>
      </trkpt>
      <trkpt lat="45.16546" lon="5.9783">
        <ele>2712.1</ele>
        <time>2022-07-22T11:42:26.000Z</time>
      </trkpt>
      <trkpt lat="45.16547" lon="5.97822">
        <ele>2712.4</ele>
        <time>2022-07-22T11:42:36.000Z</time>
      </trkpt>
      <trkpt lat="45.16552" lon="5.97811">
        <ele>2726</ele>
        <time>2022-07-22T11:42:46.000Z</time>
      </trkpt>
      <trkpt lat="45.16552" lon="5.97802">
        <ele>2712.9</ele>
        <time>2022-07-22T11:42:56.000Z</time>
      </trkpt>
      <trkpt lat="45.1655" lon="5.97795">
        <ele>2712.8</ele>
        <time>2022-07-22T11:43:06.000Z</time>
      </trkpt>
      <trkpt lat="45.16552" lon="5.97779">
        <ele>2726</ele>
        <time>2022-07-22T11:43:16.000Z</time>
      </trkpt>
      <trkpt lat="45.16553" lon="5.97757">
        <ele>2707</ele>
        <time>2022-07-22T11:43:26.000Z</time>
      </trkpt>
      <trkpt lat="45.16551" lon="5.97725">
        <ele>2725</ele>
        <time>2022-07-22T11:43:36.000Z</time>
      </trkpt>
      <trkpt lat="45.16552" lon="5.97722">
        <ele>2695.2</ele>
        <time>2022-07-22T11:43:46.000Z</time>
      </trkpt>
      <trkpt lat="45.16552" lon="5.97719">
        <ele>2694.6</ele>
        <time>2022-07-22T11:43:56.000Z</time>
      </trkpt>
      <trkpt lat="45.16554" lon="5.97717">
        <ele>2694.1</ele>
        <time>2022-07-22T11:44:06.000Z</time>
      </trkpt>
      <trkpt lat="45.16554" lon="5.97714">
        <ele>2693.5</ele>
        <time>2022-07-22T11:44:16.000Z</time>
      </trkpt>
      <trkpt lat="45.1655" lon="5.97703">
        <ele>2691.2</ele>
        <time>2022-07-22T11:44:26.000Z</time>
      </trkpt>
      <trkpt lat="45.16543" lon="5.97693">
        <ele>2724</ele>
        <time>2022-07-22T11:44:36.000Z</time>
      </trkpt>
      <trkpt lat="45.16542" lon="5.97689">
        <ele>2687.1</ele>
        <time>2022-07-22T11:44:46.000Z</time>
      </trkpt>
      <trkpt lat="45.16543" lon="5.97686">
        <ele>2686.4</ele>
        <time>2022-07-22T11:44:56.000Z</time>
      </trkpt>
      <trkpt lat="45.16541" lon="5.97683">
        <ele>2685.3</ele>
        <time>2022-07-22T11:45:06.000Z</time>
      </trkpt>
      <trkpt lat="45.16537" lon="5.97673">
        <ele>2682.1</ele>
        <time>2022-07-22T11:45:16.000Z</time>
      </trkpt>
      <trkpt lat="45.16537" lon="5.97666">
        <ele>2714</ele>
        <time>2022-07-22T11:45:26.000Z</time>
      </trkpt>
      <trkpt lat="45.16534" lon="5.9766">
        <ele>2677.8</ele>
        <time>2022-07-22T11:45:36.000Z</time>
      </trkpt>
      <trkpt lat="45.16534" lon="5.97657">
        <ele>2676.9</ele>
        <time>2022-07-22T11:45:46.000Z</time>
      </trkpt>
      <trkpt lat="45.16531" lon="5.97652">
        <ele>2674.8</ele>
        <time>2022-07-22T11:45:56.000Z</time>
      </trkpt>
      <trkpt lat="45.16531" lon="5.97646">
        <ele>2672.9</ele>
        <time>2022-07-22T11:46:06.000Z</time>
      </trkpt>
      <trkpt lat="45.16539" lon="5.97643">
        <ele>2703</ele>
        <time>2022-07-22T11:46:16.000Z</time>
      </trkpt>
      <trkpt lat="45.1654" lon="5.97641">
        <ele>2673.3</ele>
        <time>2022-07-22T11:46:26.000Z</time>
      </trkpt>
      <trkpt lat="45.16544" lon="5.97625">
        <ele>2669.5</ele>
        <time>2022-07-22T11:46:36.000Z</time>
      </trkpt>
      <trkpt lat="45.16544" lon="5.97621">
        <ele>2668.3</ele>
        <time>2022-07-22T11:46:46.000Z</time>
      </trkpt>
      <trkpt lat="45.16545" lon="5.97618">
        <ele>2667.8</ele>
        <time>2022-07-22T11:46:56.000Z</time>
      </trkpt>
      <trkpt lat="45.16544" lon="5.97613">
        <ele>2688</ele>
        <time>2022-07-22T11:47:06.000Z</time>
      </trkpt>
      <trkpt lat="45.16544" lon="5.97609">
        <ele>2665</ele>
        <time>2022-07-22T11:47:16.000Z</time>
      </trkpt>
      <trkpt lat="45.16541" lon="5.97599">
        <ele>2661.3</ele>
        <time>2022-07-22T11:47:26.000Z</time>
      </trkpt>
      <trkpt lat="45.16537" lon="5.97595">
        <ele>2658.4</ele>
        <time>2022-07-22T11:47:36.000Z</time>
      </trkpt>
      <trkpt lat="45.16536" lon="5.97592">
        <ele>2657.1</ele>
        <time>2022-07-22T11:47:46.000Z</time>
      </trkpt>
      <trkpt lat="45.16532" lon="5.97588">
        <ele>2682</ele>
        <time>2022-07-22T11:47:56.000Z</time>
      </trkpt>
      <trkpt lat="45.16531" lon="5.97585">
        <ele>2652.4</ele>
        <time>2022-07-22T11:48:06.000Z</time>
      </trkpt>
      <trkpt lat="45.1653" lon="5.97578">
        <ele>2650.5</ele>
        <time>2022-07-22T11:48:16.000Z</time>
      </trkpt>
      <trkpt lat="45.16526" lon="5.97574">
        <ele>2648.7</ele>
        <time>2022-07-22T11:48:26.000Z</time>
      </trkpt>
      <trkpt lat="45.16525" lon="5.97566">
        <ele>2647.3</ele>
        <time>2022-07-22T11:48:36.000Z</time>
      </trkpt>
      <trkpt lat="45.16525" lon="5.97559">
        <ele>2680</ele>
        <time>2022-07-22T11:48:46.000Z</time>
      </trkpt>
      <trkpt lat="45.16524" lon="5.97553">
        <ele>2644.8</ele>
        <time>2022-07-22T11:48:56.000Z</time>
      </trkpt>
      <trkpt lat="45.16522" lon="5.9755">
        <ele>2643.8</ele>
        <time>2022-07-22T11:49:06.000Z</time>
      </trkpt>
      <trkpt lat="45.16522" lon="5.97546">
        <ele>2643.1</ele>
        <time>2022-07-22T11:49:16.000Z</time>
      </trkpt>
      <trkpt lat="45.16523" lon="5.97539">
        <ele>2642.2</ele>
        <time>2022-07-22T11:49:26.000Z</time>
      </trkpt>
      <trkpt lat="45.16522" lon="5.97535">
        <ele>2641.2</ele>
        <time>2022-07-22T11:49:36.000Z</time>
      </trkpt>
      <trkpt lat="45.16526" lon="5.97519">
        <ele>2655</ele>
        <time>2022-07-22T11:49:46.000Z</time>
      </trkpt>
      <trkpt lat="45.16529" lon="5.97514">
        <ele>2637.6</ele>
        <time>2022-07-22T11:49:56.000Z</time>
      </trkpt>
      <trkpt lat="45.16528" lon="5.97511">
        <ele>2636.6</ele>
        <time>2022-07-22T11:50:06.000Z</time>
      </trkpt>
      <trkpt lat="45.1653" lon="5.97512">
        <ele>2636.9</ele>
        <time>2022-07-22T11:50:16.000Z</time>
      </trkpt>
      <trkpt lat="45.16538" lon="5.97511">
        <ele>2636.5</ele>
        <time>2022-07-22T11:50:26.000Z</time>
      </trkpt>
      <trkpt lat="45.16542" lon="5.97509">
        <ele>2655</ele>
        <time>2022-07-22T11:50:36.000Z</time>
      </trkpt>
      <trkpt lat="45.16548" lon="5.97511">
        <ele>2636.4</ele>
        <time>2022-07-22T11:50:46.000Z</time>
      </trkpt>
      <trkpt lat="45.1655" lon="5.97513">
        <ele>2637.4</ele>
        <time>2022-07-22T11:50:56.000Z</time>
      </trkpt>
      <trkpt lat="45.16552" lon="5.97513">
        <ele>2637.5</ele>
        <time>2022-07-22T11:51:06.000Z</time>
      </trkpt>
      <trkpt lat="45.1656" lon="5.97516">
        <ele>2638.9</ele>
        <time>2022-07-22T11:51:16.000Z</time>
      </trkpt>
      <trkpt lat="45.1656" lon="5.97513">
        <ele>2646</ele>
        <time>2022-07-22T11:51:26.000Z</time>
      </trkpt>
      <trkpt lat="45.16582" lon="5.97516">
        <ele>2650</ele>
        <time>2022-07-22T11:51:36.000Z</time>
      </trkpt>
      <trkpt lat="45.16584" lon="5.97516">
        <ele>2637.1</ele>
        <time>2022-07-22T11:51:46.000Z</time>
      </trkpt>
      <trkpt lat="45.16586" lon="5.97515">
        <ele>2636.2</ele>
        <time>2022-07-22T11:51:56.000Z</time>
      </trkpt>
      <trkpt lat="45.16591" lon="5.97516">
        <ele>2635.8</ele>
        <time>2022-07-22T11:52:06.000Z</time>
      </trkpt>
      <trkpt lat="45.16595" lon="5.97519">
        <ele>2636.7</ele>
        <time>2022-07-22T11:52:16.000Z</time>
      </trkpt>
      <trkpt lat="45.16596" lon="5.97522">
        <ele>2638.1</ele>
        <time>2022-07-22T11:52:26.000Z</time>
      </trkpt>
      <trkpt lat="45.16603" lon="5.97526">
        <ele>2645</ele>
        <time>2022-07-22T11:52:36.000Z</time>
      </trkpt>
      <trkpt lat="45.16611" lon="5.97528">
        <ele>2638.2</ele>
        <time>2022-07-22T11:52:46.000Z</time>
      </trkpt>
      <trkpt lat="45.16615" lon="5.9753">
        <ele>2638</ele>
        <time>2022-07-22T11:52:56.000Z</time>
      </trkpt>
      <trkpt lat="45.16621" lon="5.97531">
        <ele>2636.4</ele>
        <time>2022-07-22T11:53:06.000Z</time>
      </trkpt>
      <trkpt lat="45.16631" lon="5.97538">
        <ele>2641</ele>
        <time>2022-07-22T11:53:16.000Z</time>
      </trkpt>
      <trkpt lat="45.16635" lon="5.97539">
        <ele>2636</ele>
        <time>2022-07-22T11:53:26.000Z</time>
      </trkpt>
      <trkpt lat="45.16643" lon="5.97544">
        <ele>2635.5</ele>
        <time>2022-07-22T11:53:36.000Z</time>
      </trkpt>
      <trkpt lat="45.16644" lon="5.97547">
        <ele>2636.7</ele>
        <time>2022-07-22T11:53:46.000Z</time>
      </trkpt>
      <trkpt lat="45.1666" lon="5.97559">
        <ele>2625</ele>
        <time>2022-07-22T11:53:56.000Z</time>
      </trkpt>
      <trkpt lat="45.16667" lon="5.97562">
        <ele>2633.6</ele>
        <time>2022-07-22T11:54:06.000Z</time>
      </trkpt>
      <trkpt lat="45.16671" lon="5.97562">
        <ele>2631.3</ele>
        <time>2022-07-22T11:54:16.000Z</time>
      </trkpt>
      <trkpt lat="45.16683" lon="5.97567">
        <ele>2625</ele>
        <time>2022-07-22T11:54:26.000Z</time>
      </trkpt>
      <trkpt lat="45.16688" lon="5.97574">
        <ele>2626.7</ele>
        <time>2022-07-22T11:54:36.000Z</time>
      </trkpt>
      <trkpt lat="45.16693" lon="5.97575">
        <ele>2624.2</ele>
        <time>2022-07-22T11:54:46.000Z</time>
      </trkpt>
      <trkpt lat="45.16699" lon="5.97582">
        <ele>2621</ele>
        <time>2022-07-22T11:54:56.000Z</time>
      </trkpt>
      <trkpt lat="45.16704" lon="5.97583">
        <ele>2620.6</ele>
        <time>2022-07-22T11:55:06.000Z</time>
      </trkpt>
      <trkpt lat="45.16707" lon="5.97588">
        <ele>2621</ele>
        <time>2022-07-22T11:55:16.000Z</time>
      </trkpt>
      <trkpt lat="45.16709" lon="5.97587">
        <ele>2619.3</ele>
        <time>2022-07-22T11:55:26.000Z</time>
      </trkpt>
      <trkpt lat="45.16711" lon="5.97588">
        <ele>2618.5</ele>
        <time>2022-07-22T11:55:36.000Z</time>
      </trkpt>
      <trkpt lat="45.16715" lon="5.97596">
        <ele>2637</ele>
        <time>2022-07-22T11:55:46.000Z</time>
      </trkpt>
      <trkpt lat="45.16717" lon="5.97598">
        <ele>2619.6</ele>
        <time>2022-07-22T11:55:56.000Z</time>
      </trkpt>
      <trkpt lat="45.1672" lon="5.97598">
        <ele>2617.7</ele>
        <time>2022-07-22T11:56:06.000Z</time>
      </trkpt>
      <trkpt lat="45.16723" lon="5.97602">
        <ele>2618.1</ele>
        <time>2022-07-22T11:56:16.000Z</time>
      </trkpt>
      <trkpt lat="45.16725" lon="5.97602">
        <ele>2617.2</ele>
        <time>2022-07-22T11:56:26.000Z</time>
      </trkpt>
      <trkpt lat="45.16728" lon="5.97606">
        <ele>2617.9</ele>
        <time>2022-07-22T11:56:36.000Z</time>
      </trkpt>
      <trkpt lat="45.16733" lon="5.97616">
        <ele>2640</ele>
        <time>2022-07-22T11:56:46.000Z</time>
      </trkpt>
      <trkpt lat="45.16737" lon="5.97618">
        <ele>2620.1</ele>
        <time>2022-07-22T11:56:56.000Z</time>
      </trkpt>
      <trkpt lat="45.16739" lon="5.97617">
        <ele>2618.7</ele>
        <time>2022-07-22T11:57:06.000Z</time>
      </trkpt>
      <trkpt lat="45.16745" lon="5.97618">
        <ele>2616.5</ele>
        <time>2022-07-22T11:57:16.000Z</time>
      </trkpt>
      <trkpt lat="45.16751" lon="5.9762">
        <ele>2614.8</ele>
        <time>2022-07-22T11:57:26.000Z</time>
      </trkpt>
      <trkpt lat="45.16755" lon="5.97627">
        <ele>2643</ele>
        <time>2022-07-22T11:57:36.000Z</time>
      </trkpt>
      <trkpt lat="45.16761" lon="5.97628">
        <ele>2615.3</ele>
        <time>2022-07-22T11:57:46.000Z</time>
      </trkpt>
      <trkpt lat="45.16766" lon="5.97631">
        <ele>2615.1</ele>
        <time>2022-07-22T11:57:56.000Z</time>
      </trkpt>
      <trkpt lat="45.16769" lon="5.97631">
        <ele>2614.2</ele>
        <time>2022-07-22T11:58:06.000Z</time>
      </trkpt>
      <trkpt lat="45.16774" lon="5.97634">
        <ele>2648</ele>
        <time>2022-07-22T11:58:16.000Z</time>
      </trkpt>
      <trkpt lat="45.16778" lon="5.97635">
        <ele>2613.1</ele>
        <time>2022-07-22T11:58:26.000Z</time>
      </trkpt>
      <trkpt lat="45.16781" lon="5.9764">
        <ele>2614.7</ele>
        <time>2022-07-22T11:58:36.000Z</time>
      </trkpt>
      <trkpt lat="45.16782" lon="5.97643">
        <ele>2616</ele>
        <time>2022-07-22T11:58:46.000Z</time>
      </trkpt>
      <trkpt lat="45.16786" lon="5.97643">
        <ele>2615</ele>
        <time>2022-07-22T11:58:56.000Z</time>
      </trkpt>
      <trkpt lat="45.1679" lon="5.97646">
        <ele>2648</ele>
        <time>2022-07-22T11:59:06.000Z</time>
      </trkpt>
      <trkpt lat="45.16798" lon="5.97646">
        <ele>2613.3</ele>
        <time>2022-07-22T11:59:16.000Z</time>
      </trkpt>
      <trkpt lat="45.16808" lon="5.97651">
        <ele>2613.5</ele>
        <time>2022-07-22T11:59:26.000Z</time>
      </trkpt>
      <trkpt lat="45.16811" lon="5.97656">
        <ele>2644</ele>
        <time>2022-07-22T11:59:36.000Z</time>
      </trkpt>
      <trkpt lat="45.1681" lon="5.97654">
        <ele>2614.8</ele>
        <time>2022-07-22T11:59:46.000Z</time>
      </trkpt>
      <trkpt lat="45.16814" lon="5.97656">
        <ele>2615.4</ele>
        <time>2022-07-22T11:59:56.000Z</time>
      </trkpt>
      <trkpt lat="45.16819" lon="5.9766">
        <ele>2616.9</ele>
        <time>2022-07-22T12:00:06.000Z</time>
      </trkpt>
      <trkpt lat="45.16824" lon="5.97662">
        <ele>2617.5</ele>
        <time>2022-07-22T12:00:16.000Z</time>
      </trkpt>
      <trkpt lat="45.16827" lon="5.97664">
        <ele>2641</ele>
        <time>2022-07-22T12:00:26.000Z</time>
      </trkpt>
      <trkpt lat="45.16828" lon="5.97667">
        <ele>2619.6</ele>
        <time>2022-07-22T12:00:36.000Z</time>
      </trkpt>
      <trkpt lat="45.1683" lon="5.97667">
        <ele>2619.4</ele>
        <time>2022-07-22T12:00:46.000Z</time>
      </trkpt>
      <trkpt lat="45.1683" lon="5.97664">
        <ele>2618</ele>
        <time>2022-07-22T12:00:56.000Z</time>
      </trkpt>
      <trkpt lat="45.16831" lon="5.97662">
        <ele>2617</ele>
        <time>2022-07-22T12:01:06.000Z</time>
      </trkpt>
      <trkpt lat="45.16834" lon="5.97663">
        <ele>2617.3</ele>
        <time>2022-07-22T12:01:16.000Z</time>
      </trkpt>
      <trkpt lat="45.16838" lon="5.97662">
        <ele>2617.2</ele>
        <time>2022-07-22T12:01:26.000Z</time>
      </trkpt>
      <trkpt lat="45.16841" lon="5.97666">
        <ele>2641</ele>
        <time>2022-07-22T12:01:36.000Z</time>
      </trkpt>
      <trkpt lat="45.16843" lon="5.97666">
        <ele>2619.4</ele>
        <time>2022-07-22T12:01:46.000Z</time>
      </trkpt>
      <trkpt lat="45.16846" lon="5.97669">
        <ele>2621.1</ele>
        <time>2022-07-22T12:01:56.000Z</time>
      </trkpt>
      <trkpt lat="45.1685" lon="5.97667">
        <ele>2620.4</ele>
        <time>2022-07-22T12:02:06.000Z</time>
      </trkpt>
      <trkpt lat="45.16856" lon="5.97669">
        <ele>2621.8</ele>
        <time>2022-07-22T12:02:16.000Z</time>
      </trkpt>
      <trkpt lat="45.16857" lon="5.97671">
        <ele>2622.9</ele>
        <time>2022-07-22T12:02:26.000Z</time>
      </trkpt>
      <trkpt lat="45.16862" lon="5.97669">
        <ele>2643</ele>
        <time>2022-07-22T12:02:36.000Z</time>
      </trkpt>
      <trkpt lat="45.16868" lon="5.97671">
        <ele>2625.2</ele>
        <time>2022-07-22T12:02:46.000Z</time>
      </trkpt>
      <trkpt lat="45.16871" lon="5.97673">
        <ele>2627</ele>
        <time>2022-07-22T12:02:56.000Z</time>
      </trkpt>
      <trkpt lat="45.16873" lon="5.97672">
        <ele>2627.1</ele>
        <time>2022-07-22T12:03:06.000Z</time>
      </trkpt>
      <trkpt lat="45.16875" lon="5.97673">
        <ele>2628.1</ele>
        <time>2022-07-22T12:03:16.000Z</time>
      </trkpt>
      <trkpt lat="45.16878" lon="5.97671">
        <ele>2628.2</ele>
        <time>2022-07-22T12:03:26.000Z</time>
      </trkpt>
      <trkpt lat="45.16875" lon="5.9767">
        <ele>2643</ele>
        <time>2022-07-22T12:03:36.000Z</time>
      </trkpt>
      <trkpt lat="45.16878" lon="5.97672">
        <ele>2628.6</ele>
        <time>2022-07-22T12:03:46.000Z</time>
      </trkpt>
      <trkpt lat="45.1688" lon="5.97671">
        <ele>2628.8</ele>
        <time>2022-07-22T12:03:56.000Z</time>
      </trkpt>
      <trkpt lat="45.16881" lon="5.97669">
        <ele>2628.3</ele>
        <time>2022-07-22T12:04:06.000Z</time>
      </trkpt>
      <trkpt lat="45.16881" lon="5.97666">
        <ele>2627.2</ele>
        <time>2022-07-22T12:04:16.000Z</time>
      </trkpt>
      <trkpt lat="45.16882" lon="5.97668">
        <ele>2628.3</ele>
        <time>2022-07-22T12:04:26.000Z</time>
      </trkpt>
      <trkpt lat="45.16884" lon="5.97667">
        <ele>2628.5</ele>
        <time>2022-07-22T12:04:36.000Z</time>
      </trkpt>
      <trkpt lat="45.16884" lon="5.97663">
        <ele>2627.3</ele>
        <time>2022-07-22T12:04:46.000Z</time>
      </trkpt>
      <trkpt lat="45.16888" lon="5.97669">
        <ele>2648</ele>
        <time>2022-07-22T12:04:56.000Z</time>
      </trkpt>
      <trkpt lat="45.1689" lon="5.9767">
        <ele>2631.3</ele>
        <time>2022-07-22T12:05:06.000Z</time>
      </trkpt>
      <trkpt lat="45.16895" lon="5.9767">
        <ele>2632.3</ele>
        <time>2022-07-22T12:05:16.000Z</time>
      </trkpt>
      <trkpt lat="45.16901" lon="5.97671">
        <ele>2633.8</ele>
        <time>2022-07-22T12:05:26.000Z</time>
      </trkpt>
      <trkpt lat="45.16904" lon="5.97667">
        <ele>2633.4</ele>
        <time>2022-07-22T12:05:36.000Z</time>
      </trkpt>
      <trkpt lat="45.16907" lon="5.97668">
        <ele>2648</ele>
        <time>2022-07-22T12:05:46.000Z</time>
      </trkpt>
      <trkpt lat="45.16909" lon="5.97674">
        <ele>2636.1</ele>
        <time>2022-07-22T12:05:56.000Z</time>
      </trkpt>
      <trkpt lat="45.16919" lon="5.97685">
        <ele>2640.3</ele>
        <time>2022-07-22T12:06:06.000Z</time>
      </trkpt>
      <trkpt lat="45.16921" lon="5.97689">
        <ele>2658</ele>
        <time>2022-07-22T12:06:16.000Z</time>
      </trkpt>
      <trkpt lat="45.16921" lon="5.97697">
        <ele>2642.6</ele>
        <time>2022-07-22T12:06:26.000Z</time>
      </trkpt>
      <trkpt lat="45.16923" lon="5.977">
        <ele>2643</ele>
        <time>2022-07-22T12:06:36.000Z</time>
      </trkpt>
      <trkpt lat="45.16924" lon="5.97703">
        <ele>2643.3</ele>
        <time>2022-07-22T12:06:46.000Z</time>
      </trkpt>
      <trkpt lat="45.1693" lon="5.97712">
        <ele>2663</ele>
        <time>2022-07-22T12:06:56.000Z</time>
      </trkpt>
      <trkpt lat="45.16933" lon="5.97714">
        <ele>2642.7</ele>
        <time>2022-07-22T12:07:06.000Z</time>
      </trkpt>
      <trkpt lat="45.16934" lon="5.97716">
        <ele>2642.4</ele>
        <time>2022-07-22T12:07:16.000Z</time>
      </trkpt>
      <trkpt lat="45.16937" lon="5.97719">
        <ele>2641.6</ele>
        <time>2022-07-22T12:07:26.000Z</time>
      </trkpt>
      <trkpt lat="45.16942" lon="5.97727">
        <ele>2640</ele>
        <time>2022-07-22T12:07:36.000Z</time>
      </trkpt>
      <trkpt lat="45.16944" lon="5.97732">
        <ele>2668</ele>
        <time>2022-07-22T12:07:46.000Z</time>
      </trkpt>
      <trkpt lat="45.16946" lon="5.97732">
        <ele>2639.8</ele>
        <time>2022-07-22T12:07:56.000Z</time>
      </trkpt>
      <trkpt lat="45.16946" lon="5.9775">
        <ele>2640.2</ele>
        <time>2022-07-22T12:08:06.000Z</time>
      </trkpt>
      <trkpt lat="45.16949" lon="5.9776">
        <ele>2669</ele>
        <time>2022-07-22T12:08:16.000Z</time>
      </trkpt>
      <trkpt lat="45.16949" lon="5.97769">
        <ele>2641.9</ele>
        <time>2022-07-22T12:08:26.000Z</time>
      </trkpt>
      <trkpt lat="45.16945" lon="5.97783">
        <ele>2643.3</ele>
        <time>2022-07-22T12:08:36.000Z</time>
      </trkpt>
      <trkpt lat="45.16945" lon="5.97793">
        <ele>2669</ele>
        <time>2022-07-22T12:08:46.000Z</time>
      </trkpt>
      <trkpt lat="45.16947" lon="5.97798">
        <ele>2644.1</ele>
        <time>2022-07-22T12:08:56.000Z</time>
      </trkpt>
      <trkpt lat="45.1695" lon="5.97802">
        <ele>2644</ele>
        <time>2022-07-22T12:09:06.000Z</time>
      </trkpt>
      <trkpt lat="45.16952" lon="5.97808">
        <ele>2643.6</ele>
        <time>2022-07-22T12:09:16.000Z</time>
      </trkpt>
      <trkpt lat="45.16956" lon="5.9781">
        <ele>2642.8</ele>
        <time>2022-07-22T12:09:26.000Z</time>
      </trkpt>
      <trkpt lat="45.16959" lon="5.97816">
        <ele>2667</ele>
        <time>2022-07-22T12:09:36.000Z</time>
      </trkpt>
      <trkpt lat="45.1696" lon="5.97822">
        <ele>2640.7</ele>
        <time>2022-07-22T12:09:46.000Z</time>
      </trkpt>
      <trkpt lat="45.16961" lon="5.97825">
        <ele>2640.2</ele>
        <time>2022-07-22T12:09:56.000Z</time>
      </trkpt>
      <trkpt lat="45.16972" lon="5.97839">
        <ele>2665</ele>
        <time>2022-07-22T12:10:06.000Z</time>
      </trkpt>
      <trkpt lat="45.16987" lon="5.97849">
        <ele>2634.7</ele>
        <time>2022-07-22T12:10:16.000Z</time>
      </trkpt>
      <trkpt lat="45.16989" lon="5.97852">
        <ele>2659</ele>
        <time>2022-07-22T12:10:26.000Z</time>
      </trkpt>
      <trkpt lat="45.16992" lon="5.97853">
        <ele>2634</ele>
        <time>2022-07-22T12:10:36.000Z</time>
      </trkpt>
      <trkpt lat="45.16995" lon="5.97857">
        <ele>2633.5</ele>
        <time>2022-07-22T12:10:46.000Z</time>
      </trkpt>
      <trkpt lat="45.17" lon="5.97858">
        <ele>2633.4</ele>
        <time>2022-07-22T12:10:56.000Z</time>
      </trkpt>
      <trkpt lat="45.17004" lon="5.97861">
        <ele>2632.9</ele>
        <time>2022-07-22T12:11:06.000Z</time>
      </trkpt>
      <trkpt lat="45.17006" lon="5.97863">
        <ele>2657</ele>
        <time>2022-07-22T12:11:16.000Z</time>
      </trkpt>
      <trkpt lat="45.17008" lon="5.97869">
        <ele>2630.2</ele>
        <time>2022-07-22T12:11:26.000Z</time>
      </trkpt>
      <trkpt lat="45.17012" lon="5.97874">
        <ele>2628.6</ele>
        <time>2022-07-22T12:11:36.000Z</time>
      </trkpt>
      <trkpt lat="45.17018" lon="5.97879">
        <ele>2627</ele>
        <time>2022-07-22T12:11:46.000Z</time>
      </trkpt>
      <trkpt lat="45.17028" lon="5.97883">
        <ele>2648</ele>
        <time>2022-07-22T12:11:56.000Z</time>
      </trkpt>
      <trkpt lat="45.17039" lon="5.97896">
        <ele>2617.4</ele>
        <time>2022-07-22T12:12:06.000Z</time>
      </trkpt>
      <trkpt lat="45.17042" lon="5.97897">
        <ele>2615.9</ele>
        <time>2022-07-22T12:12:16.000Z</time>
      </trkpt>
      <trkpt lat="45.17045" lon="5.97901">
        <ele>2648</ele>
        <time>2022-07-22T12:12:26.000Z</time>
      </trkpt>
      <trkpt lat="45.17045" lon="5.97914">
        <ele>2609.6</ele>
        <time>2022-07-22T12:12:36.000Z</time>
      </trkpt>
      <trkpt lat="45.17047" lon="5.97919">
        <ele>2607.6</ele>
        <time>2022-07-22T12:12:46.000Z</time>
      </trkpt>
      <trkpt lat="45.1705" lon="5.97919">
        <ele>2606.5</ele>
        <time>2022-07-22T12:12:56.000Z</time>
      </trkpt>
      <trkpt lat="45.17052" lon="5.97918">
        <ele>2606</ele>
        <time>2022-07-22T12:13:06.000Z</time>
      </trkpt>
      <trkpt lat="45.17056" lon="5.97914">
        <ele>2638</ele>
        <time>2022-07-22T12:13:16.000Z</time>
      </trkpt>
      <trkpt lat="45.1706" lon="5.97917">
        <ele>2602.2</ele>
        <time>2022-07-22T12:13:26.000Z</time>
      </trkpt>
      <trkpt lat="45.17061" lon="5.9792">
        <ele>2601</ele>
        <time>2022-07-22T12:13:36.000Z</time>
      </trkpt>
      <trkpt lat="45.17064" lon="5.9792">
        <ele>2599.2</ele>
        <time>2022-07-22T12:13:46.000Z</time>
      </trkpt>
      <trkpt lat="45.17065" lon="5.97917">
        <ele>2599.2</ele>
        <time>2022-07-22T12:13:56.000Z</time>
      </trkpt>
      <trkpt lat="45.17067" lon="5.97917">
        <ele>2597.9</ele>
        <time>2022-07-22T12:14:06.000Z</time>
      </trkpt>
      <trkpt lat="45.17069" lon="5.97918">
        <ele>2596.5</ele>
        <time>2022-07-22T12:14:16.000Z</time>
      </trkpt>
      <trkpt lat="45.17075" lon="5.97914">
        <ele>2632</ele>
        <time>2022-07-22T12:14:26.000Z</time>
      </trkpt>
      <trkpt lat="45.17081" lon="5.97914">
        <ele>2590.3</ele>
        <time>2022-07-22T12:14:36.000Z</time>
      </trkpt>
      <trkpt lat="45.17083" lon="5.97923">
        <ele>2586.6</ele>
        <time>2022-07-22T12:14:46.000Z</time>
      </trkpt>
      <trkpt lat="45.17087" lon="5.97931">
        <ele>2632</ele>
        <time>2022-07-22T12:14:56.000Z</time>
      </trkpt>
      <trkpt lat="45.17089" lon="5.97931">
        <ele>2580.9</ele>
        <time>2022-07-22T12:15:06.000Z</time>
      </trkpt>
      <trkpt lat="45.17091" lon="5.97934">
        <ele>2578.9</ele>
        <time>2022-07-22T12:15:16.000Z</time>
      </trkpt>
      <trkpt lat="45.17092" lon="5.97937">
        <ele>2577.4</ele>
        <time>2022-07-22T12:15:26.000Z</time>
      </trkpt>
      <trkpt lat="45.17094" lon="5.97938">
        <ele>2575.9</ele>
        <time>2022-07-22T12:15:36.000Z</time>
      </trkpt>
      <trkpt lat="45.17096" lon="5.97941">
        <ele>2573.8</ele>
        <time>2022-07-22T12:15:46.000Z</time>
      </trkpt>
      <trkpt lat="45.17097" lon="5.97939">
        <ele>2573.7</ele>
        <time>2022-07-22T12:15:56.000Z</time>
      </trkpt>
      <trkpt lat="45.171" lon="5.97939">
        <ele>2571.8</ele>
        <time>2022-07-22T12:16:06.000Z</time>
      </trkpt>
      <trkpt lat="45.17102" lon="5.97942">
        <ele>2596</ele>
        <time>2022-07-22T12:16:16.000Z</time>
      </trkpt>
      <trkpt lat="45.17102" lon="5.97945">
        <ele>2568.8</ele>
        <time>2022-07-22T12:16:26.000Z</time>
      </trkpt>
      <trkpt lat="45.17104" lon="5.97945">
        <ele>2567.5</ele>
        <time>2022-07-22T12:16:36.000Z</time>
      </trkpt>
      <trkpt lat="45.17109" lon="5.97962">
        <ele>2561.9</ele>
        <time>2022-07-22T12:16:46.000Z</time>
      </trkpt>
      <trkpt lat="45.17108" lon="5.97981">
        <ele>2589</ele>
        <time>2022-07-22T12:16:56.000Z</time>
      </trkpt>
      <trkpt lat="45.17113" lon="5.97989">
        <ele>2556</ele>
        <time>2022-07-22T12:17:06.000Z</time>
      </trkpt>
      <trkpt lat="45.17115" lon="5.97994">
        <ele>2554.3</ele>
        <time>2022-07-22T12:17:16.000Z</time>
      </trkpt>
      <trkpt lat="45.17117" lon="5.97994">
        <ele>2553</ele>
        <time>2022-07-22T12:17:26.000Z</time>
      </trkpt>
      <trkpt lat="45.17121" lon="5.97989">
        <ele>2551.1</ele>
        <time>2022-07-22T12:17:36.000Z</time>
      </trkpt>
      <trkpt lat="45.17126" lon="5.97987">
        <ele>2589</ele>
        <time>2022-07-22T12:17:46.000Z</time>
      </trkpt>
      <trkpt lat="45.17128" lon="5.97984">
        <ele>2547.4</ele>
        <time>2022-07-22T12:17:56.000Z</time>
      </trkpt>
      <trkpt lat="45.17128" lon="5.97979">
        <ele>2547.9</ele>
        <time>2022-07-22T12:18:06.000Z</time>
      </trkpt>
      <trkpt lat="45.1713" lon="5.97978">
        <ele>2546.8</ele>
        <time>2022-07-22T12:18:16.000Z</time>
      </trkpt>
      <trkpt lat="45.17132" lon="5.97979">
        <ele>2545.5</ele>
        <time>2022-07-22T12:18:26.000Z</time>
      </trkpt>
      <trkpt lat="45.17137" lon="5.97987">
        <ele>2541.6</ele>
        <time>2022-07-22T12:18:36.000Z</time>
      </trkpt>
      <trkpt lat="45.17138" lon="5.97985">
        <ele>2573</ele>
        <time>2022-07-22T12:18:46.000Z</time>
      </trkpt>
      <trkpt lat="45.17141" lon="5.97985">
        <ele>2539.5</ele>
        <time>2022-07-22T12:18:56.000Z</time>
      </trkpt>
      <trkpt lat="45.17146" lon="5.97983">
        <ele>2536.9</ele>
        <time>2022-07-22T12:19:06.000Z</time>
      </trkpt>
      <trkpt lat="45.17152" lon="5.97984">
        <ele>2533.6</ele>
        <time>2022-07-22T12:19:16.000Z</time>
      </trkpt>
      <trkpt lat="45.17154" lon="5.97983">
        <ele>2532.6</ele>
        <time>2022-07-22T12:19:26.000Z</time>
      </trkpt>
      <trkpt lat="45.1716" lon="5.9799">
        <ele>2558</ele>
        <time>2022-07-22T12:19:36.000Z</time>
      </trkpt>
      <trkpt lat="45.17171" lon="5.97993">
        <ele>2523.6</ele>
        <time>2022-07-22T12:19:46.000Z</time>
      </trkpt>
      <trkpt lat="45.17174" lon="5.97991">
        <ele>2522.5</ele>
        <time>2022-07-22T12:19:56.000Z</time>
      </trkpt>
      <trkpt lat="45.17181" lon="5.97995">
        <ele>2558</ele>
        <time>2022-07-22T12:20:06.000Z</time>
      </trkpt>
      <trkpt lat="45.17183" lon="5.97995">
        <ele>2518.8</ele>
        <time>2022-07-22T12:20:16.000Z</time>
      </trkpt>
      <trkpt lat="45.17184" lon="5.97992">
        <ele>2518.6</ele>
        <time>2022-07-22T12:20:26.000Z</time>
      </trkpt>
      <trkpt lat="45.17191" lon="5.97991">
        <ele>2516</ele>
        <time>2022-07-22T12:20:36.000Z</time>
      </trkpt>
      <trkpt lat="45.172" lon="5.97991">
        <ele>2538</ele>
        <time>2022-07-22T12:20:46.000Z</time>
      </trkpt>
      <trkpt lat="45.17203" lon="5.97992">
        <ele>2512</ele>
        <time>2022-07-22T12:20:56.000Z</time>
      </trkpt>
      <trkpt lat="45.17208" lon="5.97992">
        <ele>2510.5</ele>
        <time>2022-07-22T12:21:06.000Z</time>
      </trkpt>
      <trkpt lat="45.17215" lon="5.97995">
        <ele>2508.3</ele>
        <time>2022-07-22T12:21:16.000Z</time>
      </trkpt>
      <trkpt lat="45.17221" lon="5.97994">
        <ele>2525</ele>
        <time>2022-07-22T12:21:26.000Z</time>
      </trkpt>
      <trkpt lat="45.17227" lon="5.97995">
        <ele>2503.3</ele>
        <time>2022-07-22T12:21:36.000Z</time>
      </trkpt>
      <trkpt lat="45.17232" lon="5.97998">
        <ele>2500.1</ele>
        <time>2022-07-22T12:21:46.000Z</time>
      </trkpt>
      <trkpt lat="45.17234" lon="5.97997">
        <ele>2498.9</ele>
        <time>2022-07-22T12:21:56.000Z</time>
      </trkpt>
      <trkpt lat="45.17238" lon="5.98">
        <ele>2496.3</ele>
        <time>2022-07-22T12:22:06.000Z</time>
      </trkpt>
      <trkpt lat="45.1724" lon="5.97999">
        <ele>2511</ele>
        <time>2022-07-22T12:22:16.000Z</time>
      </trkpt>
      <trkpt lat="45.17241" lon="5.97996">
        <ele>2494.7</ele>
        <time>2022-07-22T12:22:26.000Z</time>
      </trkpt>
      <trkpt lat="45.17244" lon="5.97996">
        <ele>2492.9</ele>
        <time>2022-07-22T12:22:36.000Z</time>
      </trkpt>
      <trkpt lat="45.17248" lon="5.98002">
        <ele>2490.3</ele>
        <time>2022-07-22T12:22:46.000Z</time>
      </trkpt>
      <trkpt lat="45.17249" lon="5.98002">
        <ele>2489.7</ele>
        <time>2022-07-22T12:22:56.000Z</time>
      </trkpt>
      <trkpt lat="45.17251" lon="5.98005">
        <ele>2488.5</ele>
        <time>2022-07-22T12:23:06.000Z</time>
      </trkpt>
      <trkpt lat="45.17252" lon="5.98008">
        <ele>2487.9</ele>
        <time>2022-07-22T12:23:16.000Z</time>
      </trkpt>
      <trkpt lat="45.17256" lon="5.98006">
        <ele>2511</ele>
        <time>2022-07-22T12:23:26.000Z</time>
      </trkpt>
      <trkpt lat="45.1726" lon="5.98001">
        <ele>2482.2</ele>
        <time>2022-07-22T12:23:36.000Z</time>
      </trkpt>
      <trkpt lat="45.17263" lon="5.98">
        <ele>2480.1</ele>
        <time>2022-07-22T12:23:46.000Z</time>
      </trkpt>
      <trkpt lat="45.17264" lon="5.98001">
        <ele>2479.5</ele>
        <time>2022-07-22T12:23:56.000Z</time>
      </trkpt>
      <trkpt lat="45.17271" lon="5.9799">
        <ele>2493</ele>
        <time>2022-07-22T12:24:06.000Z</time>
      </trkpt>
      <trkpt lat="45.17279" lon="5.97984">
        <ele>2470.3</ele>
        <time>2022-07-22T12:24:16.000Z</time>
      </trkpt>
      <trkpt lat="45.1728" lon="5.97982">
        <ele>2469.8</ele>
        <time>2022-07-22T12:24:26.000Z</time>
      </trkpt>
      <trkpt lat="45.17288" lon="5.97985">
        <ele>2493</ele>
        <time>2022-07-22T12:24:36.000Z</time>
      </trkpt>
      <trkpt lat="45.17289" lon="5.97988">
        <ele>2463.4</ele>
        <time>2022-07-22T12:24:46.000Z</time>
      </trkpt>
      <trkpt lat="45.17291" lon="5.97988">
        <ele>2462</ele>
        <time>2022-07-22T12:24:56.000Z</time>
      </trkpt>
      <trkpt lat="45.17293" lon="5.97986">
        <ele>2460.9</ele>
        <time>2022-07-22T12:25:06.000Z</time>
      </trkpt>
      <trkpt lat="45.17298" lon="5.97984">
        <ele>2457.7</ele>
        <time>2022-07-22T12:25:16.000Z</time>
      </trkpt>
      <trkpt lat="45.17303" lon="5.97979">
        <ele>2454.9</ele>
        <time>2022-07-22T12:25:26.000Z</time>
      </trkpt>
      <trkpt lat="45.17305" lon="5.9798">
        <ele>2470</ele>
        <time>2022-07-22T12:25:36.000Z</time>
      </trkpt>
      <trkpt lat="45.17307" lon="5.97987">
        <ele>2451.6</ele>
        <time>2022-07-22T12:25:46.000Z</time>
      </trkpt>
      <trkpt lat="45.1731" lon="5.97991">
        <ele>2449.4</ele>
        <time>2022-07-22T12:25:56.000Z</time>
      </trkpt>
      <trkpt lat="45.17316" lon="5.97988">
        <ele>2446.3</ele>
        <time>2022-07-22T12:26:06.000Z</time>
      </trkpt>
      <trkpt lat="45.17319" lon="5.97992">
        <ele>2467</ele>
        <time>2022-07-22T12:26:16.000Z</time>
      </trkpt>
      <trkpt lat="45.1732" lon="5.97995">
        <ele>2443.2</ele>
        <time>2022-07-22T12:26:26.000Z</time>
      </trkpt>
      <trkpt lat="45.1732" lon="5.98006">
        <ele>2442.8</ele>
        <time>2022-07-22T12:26:36.000Z</time>
      </trkpt>
      <trkpt lat="45.17322" lon="5.98008">
        <ele>2441.6</ele>
        <time>2022-07-22T12:26:46.000Z</time>
      </trkpt>
      <trkpt lat="45.17325" lon="5.98006">
        <ele>2439.9</ele>
        <time>2022-07-22T12:26:56.000Z</time>
      </trkpt>
      <trkpt lat="45.17327" lon="5.98006">
        <ele>2438.7</ele>
        <time>2022-07-22T12:27:06.000Z</time>
      </trkpt>
      <trkpt lat="45.17329" lon="5.98007">
        <ele>2452</ele>
        <time>2022-07-22T12:27:16.000Z</time>
      </trkpt>
      <trkpt lat="45.17333" lon="5.98011">
        <ele>2435.2</ele>
        <time>2022-07-22T12:27:26.000Z</time>
      </trkpt>
      <trkpt lat="45.17339" lon="5.98021">
        <ele>2432.7</ele>
        <time>2022-07-22T12:27:36.000Z</time>
      </trkpt>
      <trkpt lat="45.17344" lon="5.98021">
        <ele>2447</ele>
        <time>2022-07-22T12:27:46.000Z</time>
      </trkpt>
      <trkpt lat="45.17348" lon="5.98024">
        <ele>2428.9</ele>
        <time>2022-07-22T12:27:56.000Z</time>
      </trkpt>
      <trkpt lat="45.17348" lon="5.98028">
        <ele>2428.6</ele>
        <time>2022-07-22T12:28:06.000Z</time>
      </trkpt>
      <trkpt lat="45.17347" lon="5.98031">
        <ele>2428.7</ele>
        <time>2022-07-22T12:28:16.000Z</time>
      </trkpt>
      <trkpt lat="45.17351" lon="5.98035">
        <ele>2426.4</ele>
        <time>2022-07-22T12:28:26.000Z</time>
      </trkpt>
      <trkpt lat="45.17353" lon="5.98038">
        <ele>2425</ele>
        <time>2022-07-22T12:28:36.000Z</time>
      </trkpt>
      <trkpt lat="45.17361" lon="5.98042">
        <ele>2437</ele>
        <time>2022-07-22T12:28:46.000Z</time>
      </trkpt>
      <trkpt lat="45.17363" lon="5.98046">
        <ele>2418.9</ele>
        <time>2022-07-22T12:28:56.000Z</time>
      </trkpt>
      <trkpt lat="45.17371" lon="5.98055">
        <ele>2413.1</ele>
        <time>2022-07-22T12:29:06.000Z</time>
      </trkpt>
      <trkpt lat="45.17371" lon="5.98059">
        <ele>2412</ele>
        <time>2022-07-22T12:29:16.000Z</time>
      </trkpt>
      <trkpt lat="45.17369" lon="5.98062">
        <ele>2437</ele>
        <time>2022-07-22T12:29:26.000Z</time>
      </trkpt>
      <trkpt lat="45.1737" lon="5.98064">
        <ele>2411.1</ele>
        <time>2022-07-22T12:29:36.000Z</time>
      </trkpt>
      <trkpt lat="45.17378" lon="5.9807">
        <ele>2404.9</ele>
        <time>2022-07-22T12:29:46.000Z</time>
      </trkpt>
      <trkpt lat="45.1738" lon="5.98067">
        <ele>2404.8</ele>
        <time>2022-07-22T12:29:56.000Z</time>
      </trkpt>
      <trkpt lat="45.17382" lon="5.98069">
        <ele>2403</ele>
        <time>2022-07-22T12:30:06.000Z</time>
      </trkpt>
      <trkpt lat="45.17382" lon="5.98073">
        <ele>2401.7</ele>
        <time>2022-07-22T12:30:16.000Z</time>
      </trkpt>
      <trkpt lat="45.17384" lon="5.98075">
        <ele>2431</ele>
        <time>2022-07-22T12:30:26.000Z</time>
      </trkpt>
      <trkpt lat="45.17384" lon="5.98072">
        <ele>2400.9</ele>
        <time>2022-07-22T12:30:36.000Z</time>
      </trkpt>
      <trkpt lat="45.17387" lon="5.98071">
        <ele>2399.5</ele>
        <time>2022-07-22T12:30:46.000Z</time>
      </trkpt>
      <trkpt lat="45.17389" lon="5.98075">
        <ele>2396.9</ele>
        <time>2022-07-22T12:30:56.000Z</time>
      </trkpt>
      <trkpt lat="45.17403" lon="5.98062">
        <ele>2425</ele>
        <time>2022-07-22T12:31:06.000Z</time>
      </trkpt>
      <trkpt lat="45.17407" lon="5.9806">
        <ele>2391.8</ele>
        <time>2022-07-22T12:31:16.000Z</time>
      </trkpt>
      <trkpt lat="45.17406" lon="5.98058">
        <ele>2393.2</ele>
        <time>2022-07-22T12:31:26.000Z</time>
      </trkpt>
      <trkpt lat="45.17404" lon="5.98058">
        <ele>2394.3</ele>
        <time>2022-07-22T12:31:36.000Z</time>
      </trkpt>
      <trkpt lat="45.17407" lon="5.98059">
        <ele>2392.2</ele>
        <time>2022-07-22T12:31:46.000Z</time>
      </trkpt>
      <trkpt lat="45.17422" lon="5.98061">
        <ele>2405</ele>
        <time>2022-07-22T12:31:56.000Z</time>
      </trkpt>
      <trkpt lat="45.17426" lon="5.9806">
        <ele>2379.9</ele>
        <time>2022-07-22T12:32:06.000Z</time>
      </trkpt>
      <trkpt lat="45.17428" lon="5.98061">
        <ele>2378.1</ele>
        <time>2022-07-22T12:32:16.000Z</time>
      </trkpt>
      <trkpt lat="45.17428" lon="5.98064">
        <ele>2377</ele>
        <time>2022-07-22T12:32:26.000Z</time>
      </trkpt>
      <trkpt lat="45.17432" lon="5.98066">
        <ele>2373.6</ele>
        <time>2022-07-22T12:32:36.000Z</time>
      </trkpt>
      <trkpt lat="45.17436" lon="5.98065">
        <ele>2371.4</ele>
        <time>2022-07-22T12:32:46.000Z</time>
      </trkpt>
      <trkpt lat="45.17437" lon="5.98063">
        <ele>2371.5</ele>
        <time>2022-07-22T12:32:56.000Z</time>
      </trkpt>
      <trkpt lat="45.17444" lon="5.98059">
        <ele>2399</ele>
        <time>2022-07-22T12:33:06.000Z</time>
      </trkpt>
      <trkpt lat="45.17444" lon="5.98057">
        <ele>2368.8</ele>
        <time>2022-07-22T12:33:16.000Z</time>
      </trkpt>
      <trkpt lat="45.17447" lon="5.98053">
        <ele>2368.3</ele>
        <time>2022-07-22T12:33:26.000Z</time>
      </trkpt>
      <trkpt lat="45.17448" lon="5.98049">
        <ele>2369</ele>
        <time>2022-07-22T12:33:36.000Z</time>
      </trkpt>
      <trkpt lat="45.17454" lon="5.98046">
        <ele>2365.2</ele>
        <time>2022-07-22T12:33:46.000Z</time>
      </trkpt>
      <trkpt lat="45.17459" lon="5.98042">
        <ele>2394</ele>
        <time>2022-07-22T12:33:56.000Z</time>
      </trkpt>
      <trkpt lat="45.1746" lon="5.9804">
        <ele>2361.3</ele>
        <time>2022-07-22T12:34:06.000Z</time>
      </trkpt>
      <trkpt lat="45.17465" lon="5.98037">
        <ele>2357</ele>
        <time>2022-07-22T12:34:16.000Z</time>
      </trkpt>
      <trkpt lat="45.17469" lon="5.98033">
        <ele>2353.3</ele>
        <time>2022-07-22T12:34:26.000Z</time>
      </trkpt>
      <trkpt lat="45.17471" lon="5.98034">
        <ele>2351.2</ele>
        <time>2022-07-22T12:34:36.000Z</time>
      </trkpt>
      <trkpt lat="45.17472" lon="5.98037">
        <ele>2350.2</ele>
        <time>2022-07-22T12:34:46.000Z</time>
      </trkpt>
      <trkpt lat="45.17477" lon="5.98039">
        <ele>2375</ele>
        <time>2022-07-22T12:34:56.000Z</time>
      </trkpt>
      <trkpt lat="45.17481" lon="5.98034">
        <ele>2345</ele>
        <time>2022-07-22T12:35:06.000Z</time>
      </trkpt>
      <trkpt lat="45.17481" lon="5.98031">
        <ele>2345</ele>
        <time>2022-07-22T12:35:16.000Z</time>
      </trkpt>
      <trkpt lat="45.17483" lon="5.9803">
        <ele>2343.8</ele>
        <time>2022-07-22T12:35:26.000Z</time>
      </trkpt>
      <trkpt lat="45.17487" lon="5.9803">
        <ele>2341.5</ele>
        <time>2022-07-22T12:35:36.000Z</time>
      </trkpt>
      <trkpt lat="45.17489" lon="5.98034">
        <ele>2340.5</ele>
        <time>2022-07-22T12:35:46.000Z</time>
      </trkpt>
      <trkpt lat="45.17492" lon="5.98037">
        <ele>2363</ele>
        <time>2022-07-22T12:35:56.000Z</time>
      </trkpt>
      <trkpt lat="45.17492" lon="5.9803">
        <ele>2338.7</ele>
        <time>2022-07-22T12:36:06.000Z</time>
      </trkpt>
      <trkpt lat="45.17493" lon="5.98027">
        <ele>2337.9</ele>
        <time>2022-07-22T12:36:16.000Z</time>
      </trkpt>
      <trkpt lat="45.17492" lon="5.98024">
        <ele>2338.1</ele>
        <time>2022-07-22T12:36:26.000Z</time>
      </trkpt>
      <trkpt lat="45.17492" lon="5.98016">
        <ele>2336.9</ele>
        <time>2022-07-22T12:36:36.000Z</time>
      </trkpt>
      <trkpt lat="45.17493" lon="5.98013">
        <ele>2335.9</ele>
        <time>2022-07-22T12:36:46.000Z</time>
      </trkpt>
      <trkpt lat="45.17497" lon="5.98014">
        <ele>2351</ele>
        <time>2022-07-22T12:36:56.000Z</time>
      </trkpt>
      <trkpt lat="45.17499" lon="5.98013">
        <ele>2332.4</ele>
        <time>2022-07-22T12:37:06.000Z</time>
      </trkpt>
      <trkpt lat="45.17501" lon="5.9801">
        <ele>2331.1</ele>
        <time>2022-07-22T12:37:16.000Z</time>
      </trkpt>
      <trkpt lat="45.17505" lon="5.98007">
        <ele>2329.1</ele>
        <time>2022-07-22T12:37:26.000Z</time>
      </trkpt>
      <trkpt lat="45.17513" lon="5.98008">
        <ele>2326.2</ele>
        <time>2022-07-22T12:37:36.000Z</time>
      </trkpt>
      <trkpt lat="45.17518" lon="5.98004">
        <ele>2351</ele>
        <time>2022-07-22T12:37:46.000Z</time>
      </trkpt>
      <trkpt lat="45.17521" lon="5.97998">
        <ele>2322.2</ele>
        <time>2022-07-22T12:37:56.000Z</time>
      </trkpt>
      <trkpt lat="45.17523" lon="5.97997">
        <ele>2321.3</ele>
        <time>2022-07-22T12:38:06.000Z</time>
      </trkpt>
      <trkpt lat="45.17525" lon="5.97994">
        <ele>2320</ele>
        <time>2022-07-22T12:38:16.000Z</time>
      </trkpt>
      <trkpt lat="45.17526" lon="5.9799">
        <ele>2318.9</ele>
        <time>2022-07-22T12:38:26.000Z</time>
      </trkpt>
      <trkpt lat="45.17532" lon="5.97979">
        <ele>2325</ele>
        <time>2022-07-22T12:38:36.000Z</time>
      </trkpt>
      <trkpt lat="45.17532" lon="5.97976">
        <ele>2314.1</ele>
        <time>2022-07-22T12:38:46.000Z</time>
      </trkpt>
      <trkpt lat="45.17533" lon="5.97974">
        <ele>2313.4</ele>
        <time>2022-07-22T12:38:56.000Z</time>
      </trkpt>
      <trkpt lat="45.17535" lon="5.97971">
        <ele>2312.4</ele>
        <time>2022-07-22T12:39:06.000Z</time>
      </trkpt>
      <trkpt lat="45.17538" lon="5.97971">
        <ele>2311.3</ele>
        <time>2022-07-22T12:39:16.000Z</time>
      </trkpt>
      <trkpt lat="45.17545" lon="5.97958">
        <ele>2313</ele>
        <time>2022-07-22T12:39:26.000Z</time>
      </trkpt>
      <trkpt lat="45.17547" lon="5.97959">
        <ele>2307.9</ele>
        <time>2022-07-22T12:39:36.000Z</time>
      </trkpt>
      <trkpt lat="45.17549" lon="5.97957">
        <ele>2307.1</ele>
        <time>2022-07-22T12:39:46.000Z</time>
      </trkpt>
      <trkpt lat="45.17555" lon="5.97946">
        <ele>2304.3</ele>
        <time>2022-07-22T12:39:56.000Z</time>
      </trkpt>
      <trkpt lat="45.17557" lon="5.97945">
        <ele>2303.7</ele>
        <time>2022-07-22T12:40:06.000Z</time>
      </trkpt>
      <trkpt lat="45.17561" lon="5.97947">
        <ele>2300</ele>
        <time>2022-07-22T12:40:16.000Z</time>
      </trkpt>
      <trkpt lat="45.17565" lon="5.97944">
        <ele>2301.6</ele>
        <time>2022-07-22T12:40:26.000Z</time>
      </trkpt>
      <trkpt lat="45.17567" lon="5.97944">
        <ele>2301.1</ele>
        <time>2022-07-22T12:40:36.000Z</time>
      </trkpt>
      <trkpt lat="45.17572" lon="5.9794">
        <ele>2299.5</ele>
        <time>2022-07-22T12:40:46.000Z</time>
      </trkpt>
      <trkpt lat="45.17574" lon="5.97937">
        <ele>2298.7</ele>
        <time>2022-07-22T12:40:56.000Z</time>
      </trkpt>
      <trkpt lat="45.17578" lon="5.97927">
        <ele>2290</ele>
        <time>2022-07-22T12:41:06.000Z</time>
      </trkpt>
      <trkpt lat="45.17585" lon="5.97918">
        <ele>2293.8</ele>
        <time>2022-07-22T12:41:16.000Z</time>
      </trkpt>
      <trkpt lat="45.17592" lon="5.97916">
        <ele>2292</ele>
        <time>2022-07-22T12:41:26.000Z</time>
      </trkpt>
      <trkpt lat="45.17596" lon="5.97916">
        <ele>2290</ele>
        <time>2022-07-22T12:41:36.000Z</time>
      </trkpt>
      <trkpt lat="45.17598" lon="5.97915">
        <ele>2290.6</ele>
        <time>2022-07-22T12:41:46.000Z</time>
      </trkpt>
      <trkpt lat="45.17606" lon="5.97915">
        <ele>2288.9</ele>
        <time>2022-07-22T12:41:56.000Z</time>
      </trkpt>
      <trkpt lat="45.1761" lon="5.97913">
        <ele>2287.8</ele>
        <time>2022-07-22T12:42:06.000Z</time>
      </trkpt>
      <trkpt lat="45.1761" lon="5.9791">
        <ele>2287.5</ele>
        <time>2022-07-22T12:42:16.000Z</time>
      </trkpt>
      <trkpt lat="45.17611" lon="5.97908">
        <ele>2287.1</ele>
        <time>2022-07-22T12:42:26.000Z</time>
      </trkpt>
      <trkpt lat="45.17619" lon="5.97906">
        <ele>2285</ele>
        <time>2022-07-22T12:42:36.000Z</time>
      </trkpt>
      <trkpt lat="45.17621" lon="5.97904">
        <ele>2284.5</ele>
        <time>2022-07-22T12:42:46.000Z</time>
      </trkpt>
      <trkpt lat="45.17625" lon="5.97906">
        <ele>2284</ele>
        <time>2022-07-22T12:42:56.000Z</time>
      </trkpt>
      <trkpt lat="45.1763" lon="5.97904">
        <ele>2282.6</ele>
        <time>2022-07-22T12:43:06.000Z</time>
      </trkpt>
      <trkpt lat="45.1763" lon="5.979">
        <ele>2282</ele>
        <time>2022-07-22T12:43:16.000Z</time>
      </trkpt>
      <trkpt lat="45.17633" lon="5.97898">
        <ele>2281</ele>
        <time>2022-07-22T12:43:26.000Z</time>
      </trkpt>
      <trkpt lat="45.17636" lon="5.97893">
        <ele>2284</ele>
        <time>2022-07-22T12:43:36.000Z</time>
      </trkpt>
      <trkpt lat="45.17638" lon="5.97891">
        <ele>2278.6</ele>
        <time>2022-07-22T12:43:46.000Z</time>
      </trkpt>
      <trkpt lat="45.1764" lon="5.97887">
        <ele>2277.7</ele>
        <time>2022-07-22T12:43:56.000Z</time>
      </trkpt>
      <trkpt lat="45.17642" lon="5.97885">
        <ele>2277.4</ele>
        <time>2022-07-22T12:44:06.000Z</time>
      </trkpt>
      <trkpt lat="45.17648" lon="5.97882">
        <ele>2276.4</ele>
        <time>2022-07-22T12:44:16.000Z</time>
      </trkpt>
      <trkpt lat="45.17653" lon="5.97869">
        <ele>2284</ele>
        <time>2022-07-22T12:44:26.000Z</time>
      </trkpt>
      <trkpt lat="45.17654" lon="5.9786">
        <ele>2273.7</ele>
        <time>2022-07-22T12:44:36.000Z</time>
      </trkpt>
      <trkpt lat="45.17655" lon="5.97857">
        <ele>2273.4</ele>
        <time>2022-07-22T12:44:46.000Z</time>
      </trkpt>
      <trkpt lat="45.1766" lon="5.97848">
        <ele>2271.8</ele>
        <time>2022-07-22T12:44:56.000Z</time>
      </trkpt>
      <trkpt lat="45.17665" lon="5.97856">
        <ele>2279</ele>
        <time>2022-07-22T12:45:06.000Z</time>
      </trkpt>
      <trkpt lat="45.17667" lon="5.97857">
        <ele>2271.5</ele>
        <time>2022-07-22T12:45:16.000Z</time>
      </trkpt>
      <trkpt lat="45.17672" lon="5.97856">
        <ele>2271.3</ele>
        <time>2022-07-22T12:45:26.000Z</time>
      </trkpt>
      <trkpt lat="45.17673" lon="5.97858">
        <ele>2271.4</ele>
        <time>2022-07-22T12:45:36.000Z</time>
      </trkpt>
      <trkpt lat="45.17677" lon="5.97858">
        <ele>2271.3</ele>
        <time>2022-07-22T12:45:46.000Z</time>
      </trkpt>
      <trkpt lat="45.17678" lon="5.97854">
        <ele>2270.8</ele>
        <time>2022-07-22T12:45:56.000Z</time>
      </trkpt>
      <trkpt lat="45.17676" lon="5.97852">
        <ele>2270.7</ele>
        <time>2022-07-22T12:46:06.000Z</time>
      </trkpt>
      <trkpt lat="45.17689" lon="5.97851">
        <ele>2279</ele>
        <time>2022-07-22T12:46:16.000Z</time>
      </trkpt>
      <trkpt lat="45.17695" lon="5.97846">
        <ele>2269.3</ele>
        <time>2022-07-22T12:46:26.000Z</time>
      </trkpt>
      <trkpt lat="45.177" lon="5.9784">
        <ele>2268.4</ele>
        <time>2022-07-22T12:46:36.000Z</time>
      </trkpt>
      <trkpt lat="45.17705" lon="5.97827">
        <ele>2275</ele>
        <time>2022-07-22T12:46:46.000Z</time>
      </trkpt>
      <trkpt lat="45.17707" lon="5.97825">
        <ele>2265.9</ele>
        <time>2022-07-22T12:46:56.000Z</time>
      </trkpt>
      <trkpt lat="45.17708" lon="5.97823">
        <ele>2265.5</ele>
        <time>2022-07-22T12:47:06.000Z</time>
      </trkpt>
      <trkpt lat="45.17712" lon="5.97821">
        <ele>2265</ele>
        <time>2022-07-22T12:47:16.000Z</time>
      </trkpt>
      <trkpt lat="45.17717" lon="5.9782">
        <ele>2264.5</ele>
        <time>2022-07-22T12:47:26.000Z</time>
      </trkpt>
      <trkpt lat="45.17721" lon="5.97817">
        <ele>2263.7</ele>
        <time>2022-07-22T12:47:36.000Z</time>
      </trkpt>
      <trkpt lat="45.17723" lon="5.97818">
        <ele>2276</ele>
        <time>2022-07-22T12:47:46.000Z</time>
      </trkpt>
      <trkpt lat="45.17736" lon="5.97813">
        <ele>2263.2</ele>
        <time>2022-07-22T12:47:56.000Z</time>
      </trkpt>
      <trkpt lat="45.17738" lon="5.97811">
        <ele>2263</ele>
        <time>2022-07-22T12:48:06.000Z</time>
      </trkpt>
      <trkpt lat="45.17739" lon="5.97808">
        <ele>2262.8</ele>
        <time>2022-07-22T12:48:16.000Z</time>
      </trkpt>
      <trkpt lat="45.17742" lon="5.97805">
        <ele>2278</ele>
        <time>2022-07-22T12:48:26.000Z</time>
      </trkpt>
      <trkpt lat="45.17753" lon="5.97803">
        <ele>2262</ele>
        <time>2022-07-22T12:48:36.000Z</time>
      </trkpt>
      <trkpt lat="45.17755" lon="5.97805">
        <ele>2262.3</ele>
        <time>2022-07-22T12:48:46.000Z</time>
      </trkpt>
      <trkpt lat="45.17759" lon="5.97805">
        <ele>2261.8</ele>
        <time>2022-07-22T12:48:56.000Z</time>
      </trkpt>
      <trkpt lat="45.17761" lon="5.97806">
        <ele>2278</ele>
        <time>2022-07-22T12:49:06.000Z</time>
      </trkpt>
      <trkpt lat="45.1777" lon="5.97807">
        <ele>2261.1</ele>
        <time>2022-07-22T12:49:16.000Z</time>
      </trkpt>
      <trkpt lat="45.17774" lon="5.97805">
        <ele>2260.2</ele>
        <time>2022-07-22T12:49:26.000Z</time>
      </trkpt>
      <trkpt lat="45.17778" lon="5.97808">
        <ele>2260.6</ele>
        <time>2022-07-22T12:49:36.000Z</time>
      </trkpt>
      <trkpt lat="45.17785" lon="5.97809">
        <ele>2276</ele>
        <time>2022-07-22T12:49:46.000Z</time>
      </trkpt>
      <trkpt lat="45.17791" lon="5.97805">
        <ele>2257.8</ele>
        <time>2022-07-22T12:49:56.000Z</time>
      </trkpt>
      <trkpt lat="45.17795" lon="5.97806">
        <ele>2257.7</ele>
        <time>2022-07-22T12:50:06.000Z</time>
      </trkpt>
      <trkpt lat="45.17807" lon="5.97798">
        <ele>2253</ele>
        <time>2022-07-22T12:50:16.000Z</time>
      </trkpt>
      <trkpt lat="45.17811" lon="5.97801">
        <ele>2252.5</ele>
        <time>2022-07-22T12:50:26.000Z</time>
      </trkpt>
      <trkpt lat="45.17813" lon="5.978">
        <ele>2251.6</ele>
        <time>2022-07-22T12:50:36.000Z</time>
      </trkpt>
      <trkpt lat="45.1782" lon="5.97803">
        <ele>2251.7</ele>
        <time>2022-07-22T12:50:46.000Z</time>
      </trkpt>
      <trkpt lat="45.17822" lon="5.97802">
        <ele>2250.8</ele>
        <time>2022-07-22T12:50:56.000Z</time>
      </trkpt>
      <trkpt lat="45.17824" lon="5.97799">
        <ele>2249.1</ele>
        <time>2022-07-22T12:51:06.000Z</time>
      </trkpt>
      <trkpt lat="45.17826" lon="5.97798">
        <ele>2250</ele>
        <time>2022-07-22T12:51:16.000Z</time>
      </trkpt>
      <trkpt lat="45.17832" lon="5.97798">
        <ele>2247.2</ele>
        <time>2022-07-22T12:51:26.000Z</time>
      </trkpt>
      <trkpt lat="45.17839" lon="5.97795">
        <ele>2246.4</ele>
        <time>2022-07-22T12:51:36.000Z</time>
      </trkpt>
      <trkpt lat="45.17851" lon="5.97785">
        <ele>2247</ele>
        <time>2022-07-22T12:51:46.000Z</time>
      </trkpt>
      <trkpt lat="45.17853" lon="5.97785">
        <ele>2244</ele>
        <time>2022-07-22T12:51:56.000Z</time>
      </trkpt>
      <trkpt lat="45.1786" lon="5.97781">
        <ele>2243.2</ele>
        <time>2022-07-22T12:52:06.000Z</time>
      </trkpt>
      <trkpt lat="45.17865" lon="5.97783">
        <ele>2244.5</ele>
        <time>2022-07-22T12:52:16.000Z</time>
      </trkpt>
      <trkpt lat="45.17871" lon="5.97783">
        <ele>2247</ele>
        <time>2022-07-22T12:52:26.000Z</time>
      </trkpt>
      <trkpt lat="45.17872" lon="5.97781">
        <ele>2244.5</ele>
        <time>2022-07-22T12:52:36.000Z</time>
      </trkpt>
      <trkpt lat="45.17879" lon="5.97778">
        <ele>2244</ele>
        <time>2022-07-22T12:52:46.000Z</time>
      </trkpt>
      <trkpt lat="45.17882" lon="5.97774">
        <ele>2242.8</ele>
        <time>2022-07-22T12:52:56.000Z</time>
      </trkpt>
      <trkpt lat="45.17885" lon="5.97774">
        <ele>2243.2</ele>
        <time>2022-07-22T12:53:06.000Z</time>
      </trkpt>
      <trkpt lat="45.17894" lon="5.97768">
        <ele>2239</ele>
        <time>2022-07-22T12:53:16.000Z</time>
      </trkpt>
      <trkpt lat="45.17895" lon="5.97766">
        <ele>2241.1</ele>
        <time>2022-07-22T12:53:26.000Z</time>
      </trkpt>
      <trkpt lat="45.179" lon="5.97762">
        <ele>2240.2</ele>
        <time>2022-07-22T12:53:36.000Z</time>
      </trkpt>
      <trkpt lat="45.17904" lon="5.97756">
        <ele>2238.9</ele>
        <time>2022-07-22T12:53:46.000Z</time>
      </trkpt>
      <trkpt lat="45.17909" lon="5.97746">
        <ele>2239</ele>
        <time>2022-07-22T12:53:56.000Z</time>
      </trkpt>
      <trkpt lat="45.17912" lon="5.97742">
        <ele>2236.2</ele>
        <time>2022-07-22T12:54:06.000Z</time>
      </trkpt>
      <trkpt lat="45.17918" lon="5.97739">
        <ele>2236.1</ele>
        <time>2022-07-22T12:54:16.000Z</time>
      </trkpt>
      <trkpt lat="45.1792" lon="5.97736">
        <ele>2235.1</ele>
        <time>2022-07-22T12:54:26.000Z</time>
      </trkpt>
      <trkpt lat="45.17923" lon="5.97733">
        <ele>2234.1</ele>
        <time>2022-07-22T12:54:36.000Z</time>
      </trkpt>
      <trkpt lat="45.17924" lon="5.9773">
        <ele>2239</ele>
        <time>2022-07-22T12:54:46.000Z</time>
      </trkpt>
      <trkpt lat="45.17924" lon="5.97727">
        <ele>2232.8</ele>
        <time>2022-07-22T12:54:56.000Z</time>
      </trkpt>
      <trkpt lat="45.17923" lon="5.97724">
        <ele>2232.2</ele>
        <time>2022-07-22T12:55:06.000Z</time>
      </trkpt>
      <trkpt lat="45.17925" lon="5.97719">
        <ele>2231.1</ele>
        <time>2022-07-22T12:55:16.000Z</time>
      </trkpt>
      <trkpt lat="45.17928" lon="5.97714">
        <ele>2230.2</ele>
        <time>2022-07-22T12:55:26.000Z</time>
      </trkpt>
      <trkpt lat="45.17931" lon="5.9771">
        <ele>2229.5</ele>
        <time>2022-07-22T12:55:36.000Z</time>
      </trkpt>
      <trkpt lat="45.17936" lon="5.97705">
        <ele>2235</ele>
        <time>2022-07-22T12:55:46.000Z</time>
      </trkpt>
      <trkpt lat="45.17942" lon="5.97696">
        <ele>2228</ele>
        <time>2022-07-22T12:55:56.000Z</time>
      </trkpt>
      <trkpt lat="45.17943" lon="5.97692">
        <ele>2227.5</ele>
        <time>2022-07-22T12:56:06.000Z</time>
      </trkpt>
      <trkpt lat="45.17943" lon="5.97686">
        <ele>2226.4</ele>
        <time>2022-07-22T12:56:16.000Z</time>
      </trkpt>
      <trkpt lat="45.17944" lon="5.97682">
        <ele>2225.7</ele>
        <time>2022-07-22T12:56:26.000Z</time>
      </trkpt>
      <trkpt lat="45.17946" lon="5.9768">
        <ele>2231</ele>
        <time>2022-07-22T12:56:36.000Z</time>
      </trkpt>
      <trkpt lat="45.17948" lon="5.97681">
        <ele>2224.7</ele>
        <time>2022-07-22T12:56:46.000Z</time>
      </trkpt>
      <trkpt lat="45.17948" lon="5.97678">
        <ele>2224.2</ele>
        <time>2022-07-22T12:56:56.000Z</time>
      </trkpt>
      <trkpt lat="45.17952" lon="5.97677">
        <ele>2223.1</ele>
        <time>2022-07-22T12:57:06.000Z</time>
      </trkpt>
      <trkpt lat="45.17954" lon="5.97678">
        <ele>2222.8</ele>
        <time>2022-07-22T12:57:16.000Z</time>
      </trkpt>
      <trkpt lat="45.1796" lon="5.97677">
        <ele>2221.3</ele>
        <time>2022-07-22T12:57:26.000Z</time>
      </trkpt>
      <trkpt lat="45.17961" lon="5.97674">
        <ele>2220.6</ele>
        <time>2022-07-22T12:57:36.000Z</time>
      </trkpt>
      <trkpt lat="45.17966" lon="5.97673">
        <ele>2227</ele>
        <time>2022-07-22T12:57:46.000Z</time>
      </trkpt>
      <trkpt lat="45.17971" lon="5.97669">
        <ele>2217.6</ele>
        <time>2022-07-22T12:57:56.000Z</time>
      </trkpt>
      <trkpt lat="45.17982" lon="5.97665">
        <ele>2214.9</ele>
        <time>2022-07-22T12:58:06.000Z</time>
      </trkpt>
      <trkpt lat="45.17983" lon="5.97663">
        <ele>2214.4</ele>
        <time>2022-07-22T12:58:16.000Z</time>
      </trkpt>
      <trkpt lat="45.17988" lon="5.97662">
        <ele>2227</ele>
        <time>2022-07-22T12:58:26.000Z</time>
      </trkpt>
      <trkpt lat="45.17992" lon="5.97659">
        <ele>2212.2</ele>
        <time>2022-07-22T12:58:36.000Z</time>
      </trkpt>
      <trkpt lat="45.17992" lon="5.97656">
        <ele>2211.7</ele>
        <time>2022-07-22T12:58:46.000Z</time>
      </trkpt>
      <trkpt lat="45.17993" lon="5.97654">
        <ele>2211.2</ele>
        <time>2022-07-22T12:58:56.000Z</time>
      </trkpt>
      <trkpt lat="45.17995" lon="5.97653">
        <ele>2210.8</ele>
        <time>2022-07-22T12:59:06.000Z</time>
      </trkpt>
      <trkpt lat="45.17999" lon="5.97649">
        <ele>2209.6</ele>
        <time>2022-07-22T12:59:16.000Z</time>
      </trkpt>
      <trkpt lat="45.18003" lon="5.9765">
        <ele>2219</ele>
        <time>2022-07-22T12:59:26.000Z</time>
      </trkpt>
      <trkpt lat="45.18005" lon="5.97648">
        <ele>2208.3</ele>
        <time>2022-07-22T12:59:36.000Z</time>
      </trkpt>
      <trkpt lat="45.1801" lon="5.97641">
        <ele>2206.4</ele>
        <time>2022-07-22T12:59:46.000Z</time>
      </trkpt>
      <trkpt lat="45.18011" lon="5.97638">
        <ele>2205.9</ele>
        <time>2022-07-22T12:59:56.000Z</time>
      </trkpt>
      <trkpt lat="45.18013" lon="5.97637">
        <ele>2205.4</ele>
        <time>2022-07-22T13:00:06.000Z</time>
      </trkpt>
      <trkpt lat="45.18015" lon="5.97639">
        <ele>2205.3</ele>
        <time>2022-07-22T13:00:16.000Z</time>
      </trkpt>
      <trkpt lat="45.18019" lon="5.97638">
        <ele>2219</ele>
        <time>2022-07-22T13:00:26.000Z</time>
      </trkpt>
      <trkpt lat="45.18022" lon="5.97633">
        <ele>2203.6</ele>
        <time>2022-07-22T13:00:36.000Z</time>
      </trkpt>
      <trkpt lat="45.18024" lon="5.97631">
        <ele>2203.2</ele>
        <time>2022-07-22T13:00:46.000Z</time>
      </trkpt>
      <trkpt lat="45.18025" lon="5.97628">
        <ele>2202.9</ele>
        <time>2022-07-22T13:00:56.000Z</time>
      </trkpt>
      <trkpt lat="45.18026" lon="5.97621">
        <ele>2202.5</ele>
        <time>2022-07-22T13:01:06.000Z</time>
      </trkpt>
      <trkpt lat="45.18029" lon="5.97616">
        <ele>2218</ele>
        <time>2022-07-22T13:01:16.000Z</time>
      </trkpt>
      <trkpt lat="45.18029" lon="5.97609">
        <ele>2202.1</ele>
        <time>2022-07-22T13:01:26.000Z</time>
      </trkpt>
      <trkpt lat="45.18031" lon="5.97603">
        <ele>2202.3</ele>
        <time>2022-07-22T13:01:36.000Z</time>
      </trkpt>
      <trkpt lat="45.18032" lon="5.97594">
        <ele>2201.9</ele>
        <time>2022-07-22T13:01:46.000Z</time>
      </trkpt>
      <trkpt lat="45.18034" lon="5.97587">
        <ele>2218</ele>
        <time>2022-07-22T13:01:56.000Z</time>
      </trkpt>
      <trkpt lat="45.18033" lon="5.97584">
        <ele>2201.7</ele>
        <time>2022-07-22T13:02:06.000Z</time>
      </trkpt>
      <trkpt lat="45.18033" lon="5.9758">
        <ele>2201.4</ele>
        <time>2022-07-22T13:02:16.000Z</time>
      </trkpt>
      <trkpt lat="45.18035" lon="5.97574">
        <ele>2202.1</ele>
        <time>2022-07-22T13:02:26.000Z</time>
      </trkpt>
      <trkpt lat="45.18036" lon="5.97568">
        <ele>2202.4</ele>
        <time>2022-07-22T13:02:36.000Z</time>
      </trkpt>
      <trkpt lat="45.18037" lon="5.97565">
        <ele>2202.8</ele>
        <time>2022-07-22T13:02:46.000Z</time>
      </trkpt>
      <trkpt lat="45.18037" lon="5.97557">
        <ele>2214</ele>
        <time>2022-07-22T13:02:56.000Z</time>
      </trkpt>
      <trkpt lat="45.18039" lon="5.97552">
        <ele>2203</ele>
        <time>2022-07-22T13:03:06.000Z</time>
      </trkpt>
      <trkpt lat="45.18039" lon="5.97549">
        <ele>2202.6</ele>
        <time>2022-07-22T13:03:16.000Z</time>
      </trkpt>
      <trkpt lat="45.18041" lon="5.97546">
        <ele>2203.4</ele>
        <time>2022-07-22T13:03:26.000Z</time>
      </trkpt>
      <trkpt lat="45.18042" lon="5.9754">
        <ele>2203.2</ele>
        <time>2022-07-22T13:03:36.000Z</time>
      </trkpt>
      <trkpt lat="45.18044" lon="5.97534">
        <ele>2203.7</ele>
        <time>2022-07-22T13:03:46.000Z</time>
      </trkpt>
      <trkpt lat="45.18046" lon="5.97513">
        <ele>2217</ele>
        <time>2022-07-22T13:03:56.000Z</time>
      </trkpt>
      <trkpt lat="45.18051" lon="5.97499">
        <ele>2204.5</ele>
        <time>2022-07-22T13:04:06.000Z</time>
      </trkpt>
      <trkpt lat="45.1805" lon="5.97494">
        <ele>2204</ele>
        <time>2022-07-22T13:04:16.000Z</time>
      </trkpt>
      <trkpt lat="45.18051" lon="5.97488">
        <ele>2211</ele>
        <time>2022-07-22T13:04:26.000Z</time>
      </trkpt>
      <trkpt lat="45.18045" lon="5.97467">
        <ele>2202.4</ele>
        <time>2022-07-22T13:04:36.000Z</time>
      </trkpt>
      <trkpt lat="45.18043" lon="5.97465">
        <ele>2201.6</ele>
        <time>2022-07-22T13:04:46.000Z</time>
      </trkpt>
      <trkpt lat="45.18043" lon="5.97459">
        <ele>2205</ele>
        <time>2022-07-22T13:04:56.000Z</time>
      </trkpt>
      <trkpt lat="45.18041" lon="5.97454">
        <ele>2201.9</ele>
        <time>2022-07-22T13:05:06.000Z</time>
      </trkpt>
      <trkpt lat="45.18034" lon="5.97441">
        <ele>2199.2</ele>
        <time>2022-07-22T13:05:16.000Z</time>
      </trkpt>
      <trkpt lat="45.18034" lon="5.97439">
        <ele>2199.4</ele>
        <time>2022-07-22T13:05:26.000Z</time>
      </trkpt>
      <trkpt lat="45.18032" lon="5.97433">
        <ele>2205</ele>
        <time>2022-07-22T13:05:36.000Z</time>
      </trkpt>
      <trkpt lat="45.18032" lon="5.9742">
        <ele>2200.1</ele>
        <time>2022-07-22T13:05:46.000Z</time>
      </trkpt>
      <trkpt lat="45.18031" lon="5.97408">
        <ele>2200.8</ele>
        <time>2022-07-22T13:05:56.000Z</time>
      </trkpt>
      <trkpt lat="45.18027" lon="5.97391">
        <ele>2202</ele>
        <time>2022-07-22T13:06:06.000Z</time>
      </trkpt>
      <trkpt lat="45.18024" lon="5.97382">
        <ele>2198.6</ele>
        <time>2022-07-22T13:06:16.000Z</time>
      </trkpt>
      <trkpt lat="45.1802" lon="5.97361">
        <ele>2204</ele>
        <time>2022-07-22T13:06:26.000Z</time>
      </trkpt>
      <trkpt lat="45.1802" lon="5.97352">
        <ele>2196.8</ele>
        <time>2022-07-22T13:06:36.000Z</time>
      </trkpt>
      <trkpt lat="45.18021" lon="5.97349">
        <ele>2197.4</ele>
        <time>2022-07-22T13:06:46.000Z</time>
      </trkpt>
      <trkpt lat="45.18021" lon="5.97346">
        <ele>2197.3</ele>
        <time>2022-07-22T13:06:56.000Z</time>
      </trkpt>
      <trkpt lat="45.18022" lon="5.97342">
        <ele>2198</ele>
        <time>2022-07-22T13:07:06.000Z</time>
      </trkpt>
      <trkpt lat="45.18022" lon="5.97336">
        <ele>2197.9</ele>
        <time>2022-07-22T13:07:16.000Z</time>
      </trkpt>
      <trkpt lat="45.18025" lon="5.97327">
        <ele>2207</ele>
        <time>2022-07-22T13:07:26.000Z</time>
      </trkpt>
      <trkpt lat="45.18024" lon="5.97321">
        <ele>2199.6</ele>
        <time>2022-07-22T13:07:36.000Z</time>
      </trkpt>
      <trkpt lat="45.18024" lon="5.97318">
        <ele>2199.7</ele>
        <time>2022-07-22T13:07:46.000Z</time>
      </trkpt>
      <trkpt lat="45.18025" lon="5.97315">
        <ele>2200.5</ele>
        <time>2022-07-22T13:07:56.000Z</time>
      </trkpt>
      <trkpt lat="45.18025" lon="5.97312">
        <ele>2200.6</ele>
        <time>2022-07-22T13:08:06.000Z</time>
      </trkpt>
      <trkpt lat="45.18024" lon="5.97309">
        <ele>2199.9</ele>
        <time>2022-07-22T13:08:16.000Z</time>
      </trkpt>
      <trkpt lat="45.18024" lon="5.97306">
        <ele>2200</ele>
        <time>2022-07-22T13:08:26.000Z</time>
      </trkpt>
      <trkpt lat="45.18029" lon="5.97299">
        <ele>2214</ele>
        <time>2022-07-22T13:08:36.000Z</time>
      </trkpt>
      <trkpt lat="45.1803" lon="5.97296">
        <ele>2203.3</ele>
        <time>2022-07-22T13:08:46.000Z</time>
      </trkpt>
      <trkpt lat="45.1803" lon="5.97287">
        <ele>2202.4</ele>
        <time>2022-07-22T13:08:56.000Z</time>
      </trkpt>
      <trkpt lat="45.18034" lon="5.97281">
        <ele>2204.5</ele>
        <time>2022-07-22T13:09:06.000Z</time>
      </trkpt>
      <trkpt lat="45.18034" lon="5.97279">
        <ele>2204.4</ele>
        <time>2022-07-22T13:09:16.000Z</time>
      </trkpt>
      <trkpt lat="45.18035" lon="5.97276">
        <ele>2205</ele>
        <time>2022-07-22T13:09:26.000Z</time>
      </trkpt>
      <trkpt lat="45.18033" lon="5.97273">
        <ele>2214</ele>
        <time>2022-07-22T13:09:36.000Z</time>
      </trkpt>
      <trkpt lat="45.18034" lon="5.9727">
        <ele>2204.5</ele>
        <time>2022-07-22T13:09:46.000Z</time>
      </trkpt>
      <trkpt lat="45.18033" lon="5.97259">
        <ele>2204.1</ele>
        <time>2022-07-22T13:09:56.000Z</time>
      </trkpt>
      <trkpt lat="45.18033" lon="5.97253">
        <ele>2204.3</ele>
        <time>2022-07-22T13:10:06.000Z</time>
      </trkpt>
      <trkpt lat="45.18031" lon="5.97248">
        <ele>2203.5</ele>
        <time>2022-07-22T13:10:16.000Z</time>
      </trkpt>
      <trkpt lat="45.18031" lon="5.97242">
        <ele>2214</ele>
        <time>2022-07-22T13:10:26.000Z</time>
      </trkpt>
      <trkpt lat="45.1803" lon="5.97239">
        <ele>2205</ele>
        <time>2022-07-22T13:10:36.000Z</time>
      </trkpt>
      <trkpt lat="45.1803" lon="5.97223">
        <ele>2208.8</ele>
        <time>2022-07-22T13:10:46.000Z</time>
      </trkpt>
      <trkpt lat="45.18031" lon="5.9722">
        <ele>2209.7</ele>
        <time>2022-07-22T13:10:56.000Z</time>
      </trkpt>
      <trkpt lat="45.18033" lon="5.9722">
        <ele>2210.5</ele>
        <time>2022-07-22T13:11:06.000Z</time>
      </trkpt>
      <trkpt lat="45.18037" lon="5.97222">
        <ele>2214</ele>
        <time>2022-07-22T13:11:16.000Z</time>
      </trkpt>
      <trkpt lat="45.18039" lon="5.9722">
        <ele>2213</ele>
        <time>2022-07-22T13:11:26.000Z</time>
      </trkpt>
      <trkpt lat="45.18041" lon="5.97215">
        <ele>2214.1</ele>
        <time>2022-07-22T13:11:36.000Z</time>
      </trkpt>
      <trkpt lat="45.18043" lon="5.97213">
        <ele>2215</ele>
        <time>2022-07-22T13:11:46.000Z</time>
      </trkpt>
      <trkpt lat="45.18044" lon="5.97207">
        <ele>2215.6</ele>
        <time>2022-07-22T13:11:56.000Z</time>
      </trkpt>
      <trkpt lat="45.18052" lon="5.97206">
        <ele>2233</ele>
        <time>2022-07-22T13:12:06.000Z</time>
      </trkpt>
      <trkpt lat="45.18067" lon="5.97207">
        <ele>2222.1</ele>
        <time>2022-07-22T13:12:16.000Z</time>
      </trkpt>
      <trkpt lat="45.18069" lon="5.97205">
        <ele>2222.5</ele>
        <time>2022-07-22T13:12:26.000Z</time>
      </trkpt>
      <trkpt lat="45.18074" lon="5.97205">
        <ele>2240</ele>
        <time>2022-07-22T13:12:36.000Z</time>
      </trkpt>
      <trkpt lat="45.18076" lon="5.97204">
        <ele>2224</ele>
        <time>2022-07-22T13:12:46.000Z</time>
      </trkpt>
      <trkpt lat="45.18085" lon="5.97207">
        <ele>2226.2</ele>
        <time>2022-07-22T13:12:56.000Z</time>
      </trkpt>
      <trkpt lat="45.18091" lon="5.97207">
        <ele>2227.1</ele>
        <time>2022-07-22T13:13:06.000Z</time>
      </trkpt>
      <trkpt lat="45.18093" lon="5.97205">
        <ele>2240</ele>
        <time>2022-07-22T13:13:16.000Z</time>
      </trkpt>
      <trkpt lat="45.18095" lon="5.97197">
        <ele>2226.9</ele>
        <time>2022-07-22T13:13:26.000Z</time>
      </trkpt>
      <trkpt lat="45.18095" lon="5.97183">
        <ele>2225.6</ele>
        <time>2022-07-22T13:13:36.000Z</time>
      </trkpt>
      <trkpt lat="45.18098" lon="5.97172">
        <ele>2237</ele>
        <time>2022-07-22T13:13:46.000Z</time>
      </trkpt>
      <trkpt lat="45.18101" lon="5.97164">
        <ele>2223.3</ele>
        <time>2022-07-22T13:13:56.000Z</time>
      </trkpt>
      <trkpt lat="45.18107" lon="5.97165">
        <ele>2223.5</ele>
        <time>2022-07-22T13:14:06.000Z</time>
      </trkpt>
      <trkpt lat="45.18109" lon="5.97164">
        <ele>2223.2</ele>
        <time>2022-07-22T13:14:16.000Z</time>
      </trkpt>
      <trkpt lat="45.18114" lon="5.97156">
        <ele>2226</ele>
        <time>2022-07-22T13:14:26.000Z</time>
      </trkpt>
      <trkpt lat="45.18117" lon="5.97154">
        <ele>2219.2</ele>
        <time>2022-07-22T13:14:36.000Z</time>
      </trkpt>
      <trkpt lat="45.1812" lon="5.97149">
        <ele>2217</ele>
        <time>2022-07-22T13:14:46.000Z</time>
      </trkpt>
      <trkpt lat="45.18128" lon="5.97142">
        <ele>2213.2</ele>
        <time>2022-07-22T13:14:56.000Z</time>
      </trkpt>
      <trkpt lat="45.18135" lon="5.97142">
        <ele>2220</ele>
        <time>2022-07-22T13:15:06.000Z</time>
      </trkpt>
      <trkpt lat="45.18136" lon="5.97145">
        <ele>2213.1</ele>
        <time>2022-07-22T13:15:16.000Z</time>
      </trkpt>
      <trkpt lat="45.18138" lon="5.97146">
        <ele>2213.2</ele>
        <time>2022-07-22T13:15:26.000Z</time>
      </trkpt>
      <trkpt lat="45.18139" lon="5.97148">
        <ele>2213.9</ele>
        <time>2022-07-22T13:15:36.000Z</time>
      </trkpt>
      <trkpt lat="45.18153" lon="5.97149">
        <ele>2220</ele>
        <time>2022-07-22T13:15:46.000Z</time>
      </trkpt>
      <trkpt lat="45.18171" lon="5.97149">
        <ele>2206</ele>
        <time>2022-07-22T13:15:56.000Z</time>
      </trkpt>
      <trkpt lat="45.18175" lon="5.97146">
        <ele>2213</ele>
        <time>2022-07-22T13:16:06.000Z</time>
      </trkpt>
      <trkpt lat="45.18181" lon="5.97147">
        <ele>2202.5</ele>
        <time>2022-07-22T13:16:16.000Z</time>
      </trkpt>
      <trkpt lat="45.18192" lon="5.97144">
        <ele>2198.2</ele>
        <time>2022-07-22T13:16:26.000Z</time>
      </trkpt>
      <trkpt lat="45.18196" lon="5.97142">
        <ele>2202</ele>
        <time>2022-07-22T13:16:36.000Z</time>
      </trkpt>
      <trkpt lat="45.18198" lon="5.97139">
        <ele>2194.2</ele>
        <time>2022-07-22T13:16:46.000Z</time>
      </trkpt>
      <trkpt lat="45.18204" lon="5.97136">
        <ele>2191.3</ele>
        <time>2022-07-22T13:16:56.000Z</time>
      </trkpt>
      <trkpt lat="45.18206" lon="5.97137">
        <ele>2191.3</ele>
        <time>2022-07-22T13:17:06.000Z</time>
      </trkpt>
      <trkpt lat="45.1821" lon="5.97134">
        <ele>2189</ele>
        <time>2022-07-22T13:17:16.000Z</time>
      </trkpt>
      <trkpt lat="45.18214" lon="5.97132">
        <ele>2199</ele>
        <time>2022-07-22T13:17:26.000Z</time>
      </trkpt>
      <trkpt lat="45.18217" lon="5.97128">
        <ele>2184.9</ele>
        <time>2022-07-22T13:17:36.000Z</time>
      </trkpt>
      <trkpt lat="45.18219" lon="5.97128">
        <ele>2184.4</ele>
        <time>2022-07-22T13:17:46.000Z</time>
      </trkpt>
      <trkpt lat="45.18227" lon="5.97122">
        <ele>2180.9</ele>
        <time>2022-07-22T13:17:56.000Z</time>
      </trkpt>
      <trkpt lat="45.18232" lon="5.97122">
        <ele>2196</ele>
        <time>2022-07-22T13:18:06.000Z</time>
      </trkpt>
      <trkpt lat="45.18235" lon="5.97121">
        <ele>2179.8</ele>
        <time>2022-07-22T13:18:16.000Z</time>
      </trkpt>
      <trkpt lat="45.18237" lon="5.97119">
        <ele>2179</ele>
        <time>2022-07-22T13:18:26.000Z</time>
      </trkpt>
      <trkpt lat="45.18238" lon="5.97116">
        <ele>2178</ele>
        <time>2022-07-22T13:18:36.000Z</time>
      </trkpt>
      <trkpt lat="45.18243" lon="5.9711">
        <ele>2176</ele>
        <time>2022-07-22T13:18:46.000Z</time>
      </trkpt>
      <trkpt lat="45.18243" lon="5.97103">
        <ele>2194</ele>
        <time>2022-07-22T13:18:56.000Z</time>
      </trkpt>
      <trkpt lat="45.18247" lon="5.97099">
        <ele>2173.4</ele>
        <time>2022-07-22T13:19:06.000Z</time>
      </trkpt>
      <trkpt lat="45.18251" lon="5.97086">
        <ele>2170.7</ele>
        <time>2022-07-22T13:19:16.000Z</time>
      </trkpt>
      <trkpt lat="45.18257" lon="5.97075">
        <ele>2185</ele>
        <time>2022-07-22T13:19:26.000Z</time>
      </trkpt>
      <trkpt lat="45.1826" lon="5.97076">
        <ele>2169.2</ele>
        <time>2022-07-22T13:19:36.000Z</time>
      </trkpt>
      <trkpt lat="45.18261" lon="5.97069">
        <ele>2167.6</ele>
        <time>2022-07-22T13:19:46.000Z</time>
      </trkpt>
      <trkpt lat="45.18262" lon="5.97067">
        <ele>2167.2</ele>
        <time>2022-07-22T13:19:56.000Z</time>
      </trkpt>
      <trkpt lat="45.18265" lon="5.97065">
        <ele>2167</ele>
        <time>2022-07-22T13:20:06.000Z</time>
      </trkpt>
      <trkpt lat="45.18267" lon="5.97066">
        <ele>2167.5</ele>
        <time>2022-07-22T13:20:16.000Z</time>
      </trkpt>
      <trkpt lat="45.18271" lon="5.97063">
        <ele>2185</ele>
        <time>2022-07-22T13:20:26.000Z</time>
      </trkpt>
      <trkpt lat="45.18273" lon="5.97064">
        <ele>2167.6</ele>
        <time>2022-07-22T13:20:36.000Z</time>
      </trkpt>
      <trkpt lat="45.18274" lon="5.97066">
        <ele>2168.2</ele>
        <time>2022-07-22T13:20:46.000Z</time>
      </trkpt>
      <trkpt lat="45.18277" lon="5.97067">
        <ele>2168.8</ele>
        <time>2022-07-22T13:20:56.000Z</time>
      </trkpt>
      <trkpt lat="45.1828" lon="5.97071">
        <ele>2170.7</ele>
        <time>2022-07-22T13:21:06.000Z</time>
      </trkpt>
      <trkpt lat="45.18284" lon="5.97074">
        <ele>2173</ele>
        <time>2022-07-22T13:21:16.000Z</time>
      </trkpt>
      <trkpt lat="45.18285" lon="5.97076">
        <ele>2174</ele>
        <time>2022-07-22T13:21:26.000Z</time>
      </trkpt>
      <trkpt lat="45.1829" lon="5.97076">
        <ele>2185</ele>
        <time>2022-07-22T13:21:36.000Z</time>
      </trkpt>
      <trkpt lat="45.18301" lon="5.97065">
        <ele>2176.2</ele>
        <time>2022-07-22T13:21:46.000Z</time>
      </trkpt>
      <trkpt lat="45.18302" lon="5.97061">
        <ele>2175</ele>
        <time>2022-07-22T13:21:56.000Z</time>
      </trkpt>
      <trkpt lat="45.18305" lon="5.97057">
        <ele>2185</ele>
        <time>2022-07-22T13:22:06.000Z</time>
      </trkpt>
      <trkpt lat="45.18312" lon="5.97056">
        <ele>2177.9</ele>
        <time>2022-07-22T13:22:16.000Z</time>
      </trkpt>
      <trkpt lat="45.18319" lon="5.97049">
        <ele>2177.7</ele>
        <time>2022-07-22T13:22:26.000Z</time>
      </trkpt>
      <trkpt lat="45.18322" lon="5.9705">
        <ele>2180</ele>
        <time>2022-07-22T13:22:36.000Z</time>
      </trkpt>
      <trkpt lat="45.18324" lon="5.97049">
        <ele>2185</ele>
        <time>2022-07-22T13:22:46.000Z</time>
      </trkpt>
      <trkpt lat="45.18327" lon="5.97045">
        <ele>2179.5</ele>
        <time>2022-07-22T13:22:56.000Z</time>
      </trkpt>
      <trkpt lat="45.18328" lon="5.97039">
        <ele>2176.1</ele>
        <time>2022-07-22T13:23:06.000Z</time>
      </trkpt>
      <trkpt lat="45.18329" lon="5.97036">
        <ele>2174.6</ele>
        <time>2022-07-22T13:23:16.000Z</time>
      </trkpt>
      <trkpt lat="45.18331" lon="5.97035">
        <ele>2174.8</ele>
        <time>2022-07-22T13:23:26.000Z</time>
      </trkpt>
      <trkpt lat="45.18334" lon="5.97027">
        <ele>2185</ele>
        <time>2022-07-22T13:23:36.000Z</time>
      </trkpt>
      <trkpt lat="45.18335" lon="5.97029">
        <ele>2172.2</ele>
        <time>2022-07-22T13:23:46.000Z</time>
      </trkpt>
      <trkpt lat="45.18335" lon="5.97035">
        <ele>2176.4</ele>
        <time>2022-07-22T13:23:56.000Z</time>
      </trkpt>
      <trkpt lat="45.18336" lon="5.97032">
        <ele>2174.5</ele>
        <time>2022-07-22T13:24:06.000Z</time>
      </trkpt>
      <trkpt lat="45.18338" lon="5.97036">
        <ele>2177.9</ele>
        <time>2022-07-22T13:24:16.000Z</time>
      </trkpt>
      <trkpt lat="45.18336" lon="5.97033">
        <ele>2175.2</ele>
        <time>2022-07-22T13:24:26.000Z</time>
      </trkpt>
      <trkpt lat="45.18338" lon="5.97027">
        <ele>2185</ele>
        <time>2022-07-22T13:24:36.000Z</time>
      </trkpt>
      <trkpt lat="45.18342" lon="5.97021">
        <ele>2166</ele>
        <time>2022-07-22T13:24:46.000Z</time>
      </trkpt>
      <trkpt lat="45.18344" lon="5.97021">
        <ele>2166.3</ele>
        <time>2022-07-22T13:24:56.000Z</time>
      </trkpt>
      <trkpt lat="45.18346" lon="5.97023">
        <ele>2168.5</ele>
        <time>2022-07-22T13:25:06.000Z</time>
      </trkpt>
      <trkpt lat="45.18347" lon="5.97021">
        <ele>2166.6</ele>
        <time>2022-07-22T13:25:16.000Z</time>
      </trkpt>
      <trkpt lat="45.18352" lon="5.97019">
        <ele>2165.2</ele>
        <time>2022-07-22T13:25:26.000Z</time>
      </trkpt>
      <trkpt lat="45.18351" lon="5.97017">
        <ele>2163</ele>
        <time>2022-07-22T13:25:36.000Z</time>
      </trkpt>
      <trkpt lat="45.18351" lon="5.97014">
        <ele>2159</ele>
        <time>2022-07-22T13:25:46.000Z</time>
      </trkpt>
      <trkpt lat="45.1835" lon="5.97016">
        <ele>2161.9</ele>
        <time>2022-07-22T13:25:56.000Z</time>
      </trkpt>
      <trkpt lat="45.18353" lon="5.97023">
        <ele>2169.5</ele>
        <time>2022-07-22T13:26:06.000Z</time>
      </trkpt>
      <trkpt lat="45.18356" lon="5.97023">
        <ele>2169.9</ele>
        <time>2022-07-22T13:26:16.000Z</time>
      </trkpt>
      <trkpt lat="45.18359" lon="5.97019">
        <ele>2166</ele>
        <time>2022-07-22T13:26:26.000Z</time>
      </trkpt>
      <trkpt lat="45.1836" lon="5.97016">
        <ele>2162.8</ele>
        <time>2022-07-22T13:26:36.000Z</time>
      </trkpt>
      <trkpt lat="45.18359" lon="5.97014">
        <ele>2160.5</ele>
        <time>2022-07-22T13:26:46.000Z</time>
      </trkpt>
      <trkpt lat="45.18359" lon="5.97007">
        <ele>2159</ele>
        <time>2022-07-22T13:26:56.000Z</time>
      </trkpt>
      <trkpt lat="45.1836" lon="5.97005">
        <ele>2150.6</ele>
        <time>2022-07-22T13:27:06.000Z</time>
      </trkpt>
      <trkpt lat="45.1836" lon="5.97002">
        <ele>2147.3</ele>
        <time>2022-07-22T13:27:16.000Z</time>
      </trkpt>
      <trkpt lat="45.18361" lon="5.97">
        <ele>2145</ele>
        <time>2022-07-22T13:27:26.000Z</time>
      </trkpt>
      <trkpt lat="45.18364" lon="5.96999">
        <ele>2143</ele>
        <time>2022-07-22T13:27:36.000Z</time>
      </trkpt>
      <trkpt lat="45.18368" lon="5.96995">
        <ele>2137.4</ele>
        <time>2022-07-22T13:27:46.000Z</time>
      </trkpt>
      <trkpt lat="45.18373" lon="5.97001">
        <ele>2159</ele>
        <time>2022-07-22T13:27:56.000Z</time>
      </trkpt>
      <trkpt lat="45.18377" lon="5.97002">
        <ele>2142.1</ele>
        <time>2022-07-22T13:28:06.000Z</time>
      </trkpt>
      <trkpt lat="45.18381" lon="5.97005">
        <ele>2144.3</ele>
        <time>2022-07-22T13:28:16.000Z</time>
      </trkpt>
      <trkpt lat="45.18382" lon="5.97007">
        <ele>2146.2</ele>
        <time>2022-07-22T13:28:26.000Z</time>
      </trkpt>
      <trkpt lat="45.18384" lon="5.97016">
        <ele>2155.9</ele>
        <time>2022-07-22T13:28:36.000Z</time>
      </trkpt>
      <trkpt lat="45.18383" lon="5.97018">
        <ele>2158.5</ele>
        <time>2022-07-22T13:28:46.000Z</time>
      </trkpt>
      <trkpt lat="45.18385" lon="5.97024">
        <ele>2184</ele>
        <time>2022-07-22T13:28:56.000Z</time>
      </trkpt>
      <trkpt lat="45.18388" lon="5.97029">
        <ele>2169.7</ele>
        <time>2022-07-22T13:29:06.000Z</time>
      </trkpt>
      <trkpt lat="45.1839" lon="5.97029">
        <ele>2169</ele>
        <time>2022-07-22T13:29:16.000Z</time>
      </trkpt>
      <trkpt lat="45.1839" lon="5.97033">
        <ele>2173.6</ele>
        <time>2022-07-22T13:29:26.000Z</time>
      </trkpt>
      <trkpt lat="45.18394" lon="5.9704">
        <ele>2179.9</ele>
        <time>2022-07-22T13:29:36.000Z</time>
      </trkpt>
      <trkpt lat="45.18393" lon="5.97042">
        <ele>2182.6</ele>
        <time>2022-07-22T13:29:46.000Z</time>
      </trkpt>
      <trkpt lat="45.18396" lon="5.97037">
        <ele>2184</ele>
        <time>2022-07-22T13:29:56.000Z</time>
      </trkpt>
      <trkpt lat="45.18403" lon="5.97036">
        <ele>2172</ele>
        <time>2022-07-22T13:30:06.000Z</time>
      </trkpt>
      <trkpt lat="45.18405" lon="5.97037">
        <ele>2172.2</ele>
        <time>2022-07-22T13:30:16.000Z</time>
      </trkpt>
      <trkpt lat="45.18406" lon="5.97039">
        <ele>2173.9</ele>
        <time>2022-07-22T13:30:26.000Z</time>
      </trkpt>
      <trkpt lat="45.18406" lon="5.97042">
        <ele>2176.9</ele>
        <time>2022-07-22T13:30:36.000Z</time>
      </trkpt>
      <trkpt lat="45.18407" lon="5.97045">
        <ele>2179.5</ele>
        <time>2022-07-22T13:30:46.000Z</time>
      </trkpt>
      <trkpt lat="45.18409" lon="5.97044">
        <ele>2177.6</ele>
        <time>2022-07-22T13:30:56.000Z</time>
      </trkpt>
      <trkpt lat="45.18411" lon="5.97049">
        <ele>2188</ele>
        <time>2022-07-22T13:31:06.000Z</time>
      </trkpt>
      <trkpt lat="45.18411" lon="5.97052">
        <ele>2184.6</ele>
        <time>2022-07-22T13:31:16.000Z</time>
      </trkpt>
      <trkpt lat="45.18412" lon="5.97055">
        <ele>2187</ele>
        <time>2022-07-22T13:31:26.000Z</time>
      </trkpt>
      <trkpt lat="45.18416" lon="5.97059">
        <ele>2188.6</ele>
        <time>2022-07-22T13:31:36.000Z</time>
      </trkpt>
      <trkpt lat="45.18417" lon="5.97062">
        <ele>2190.9</ele>
        <time>2022-07-22T13:31:46.000Z</time>
      </trkpt>
      <trkpt lat="45.18419" lon="5.97064">
        <ele>2192</ele>
        <time>2022-07-22T13:31:56.000Z</time>
      </trkpt>
      <trkpt lat="45.1843" lon="5.97068">
        <ele>2206</ele>
        <time>2022-07-22T13:32:06.000Z</time>
      </trkpt>
      <trkpt lat="45.18437" lon="5.97069">
        <ele>2188.9</ele>
        <time>2022-07-22T13:32:16.000Z</time>
      </trkpt>
      <trkpt lat="45.18444" lon="5.97078">
        <ele>2191.8</ele>
        <time>2022-07-22T13:32:26.000Z</time>
      </trkpt>
      <trkpt lat="45.18448" lon="5.97081">
        <ele>2225</ele>
        <time>2022-07-22T13:32:36.000Z</time>
      </trkpt>
      <trkpt lat="45.18452" lon="5.97077">
        <ele>2190.9</ele>
        <time>2022-07-22T13:32:46.000Z</time>
      </trkpt>
      <trkpt lat="45.18454" lon="5.97078">
        <ele>2191.5</ele>
        <time>2022-07-22T13:32:56.000Z</time>
      </trkpt>
      <trkpt lat="45.18454" lon="5.97081">
        <ele>2193.1</ele>
        <time>2022-07-22T13:33:06.000Z</time>
      </trkpt>
      <trkpt lat="45.18455" lon="5.97084">
        <ele>2194.7</ele>
        <time>2022-07-22T13:33:16.000Z</time>
      </trkpt>
      <trkpt lat="45.18462" lon="5.97086">
        <ele>2195.1</ele>
        <time>2022-07-22T13:33:26.000Z</time>
      </trkpt>
      <trkpt lat="45.18466" lon="5.97086">
        <ele>2218</ele>
        <time>2022-07-22T13:33:36.000Z</time>
      </trkpt>
      <trkpt lat="45.18474" lon="5.9708">
        <ele>2192.5</ele>
        <time>2022-07-22T13:33:46.000Z</time>
      </trkpt>
      <trkpt lat="45.18482" lon="5.97077">
        <ele>2194.1</ele>
        <time>2022-07-22T13:33:56.000Z</time>
      </trkpt>
      <trkpt lat="45.18492" lon="5.97065">
        <ele>2212</ele>
        <time>2022-07-22T13:34:06.000Z</time>
      </trkpt>
      <trkpt lat="45.18496" lon="5.97054">
        <ele>2193.9</ele>
        <time>2022-07-22T13:34:16.000Z</time>
      </trkpt>
      <trkpt lat="45.18496" lon="5.97039">
        <ele>2209</ele>
        <time>2022-07-22T13:34:26.000Z</time>
      </trkpt>
      <trkpt lat="45.185" lon="5.97032">
        <ele>2190.9</ele>
        <time>2022-07-22T13:34:36.000Z</time>
      </trkpt>
      <trkpt lat="45.185" lon="5.97023">
        <ele>2188.1</ele>
        <time>2022-07-22T13:34:46.000Z</time>
      </trkpt>
      <trkpt lat="45.18503" lon="5.97018">
        <ele>2187.2</ele>
        <time>2022-07-22T13:34:56.000Z</time>
      </trkpt>
      <trkpt lat="45.18512" lon="5.97012">
        <ele>2208</ele>
        <time>2022-07-22T13:35:06.000Z</time>
      </trkpt>
      <trkpt lat="45.18513" lon="5.97009">
        <ele>2186.3</ele>
        <time>2022-07-22T13:35:16.000Z</time>
      </trkpt>
      <trkpt lat="45.18517" lon="5.97003">
        <ele>2184.3</ele>
        <time>2022-07-22T13:35:26.000Z</time>
      </trkpt>
      <trkpt lat="45.1852" lon="5.97001">
        <ele>2183.9</ele>
        <time>2022-07-22T13:35:36.000Z</time>
      </trkpt>
      <trkpt lat="45.18522" lon="5.96998">
        <ele>2182.4</ele>
        <time>2022-07-22T13:35:46.000Z</time>
      </trkpt>
      <trkpt lat="45.18524" lon="5.96999">
        <ele>2183.5</ele>
        <time>2022-07-22T13:35:56.000Z</time>
      </trkpt>
      <trkpt lat="45.18525" lon="5.97002">
        <ele>2185.6</ele>
        <time>2022-07-22T13:36:06.000Z</time>
      </trkpt>
      <trkpt lat="45.18527" lon="5.97003">
        <ele>2207</ele>
        <time>2022-07-22T13:36:16.000Z</time>
      </trkpt>
      <trkpt lat="45.18529" lon="5.97003">
        <ele>2186.6</ele>
        <time>2022-07-22T13:36:26.000Z</time>
      </trkpt>
      <trkpt lat="45.18531" lon="5.97005">
        <ele>2187.4</ele>
        <time>2022-07-22T13:36:36.000Z</time>
      </trkpt>
      <trkpt lat="45.18535" lon="5.97003">
        <ele>2185.3</ele>
        <time>2022-07-22T13:36:46.000Z</time>
      </trkpt>
      <trkpt lat="45.18547" lon="5.97013">
        <ele>2207</ele>
        <time>2022-07-22T13:36:56.000Z</time>
      </trkpt>
      <trkpt lat="45.18552" lon="5.97013">
        <ele>2188.5</ele>
        <time>2022-07-22T13:37:06.000Z</time>
      </trkpt>
      <trkpt lat="45.18556" lon="5.9702">
        <ele>2192.5</ele>
        <time>2022-07-22T13:37:16.000Z</time>
      </trkpt>
      <trkpt lat="45.18556" lon="5.97023">
        <ele>2194.6</ele>
        <time>2022-07-22T13:37:26.000Z</time>
      </trkpt>
      <trkpt lat="45.18558" lon="5.97026">
        <ele>2195.9</ele>
        <time>2022-07-22T13:37:36.000Z</time>
      </trkpt>
      <trkpt lat="45.18565" lon="5.9703">
        <ele>2205</ele>
        <time>2022-07-22T13:37:46.000Z</time>
      </trkpt>
      <trkpt lat="45.1857" lon="5.97032">
        <ele>2195.1</ele>
        <time>2022-07-22T13:37:56.000Z</time>
      </trkpt>
      <trkpt lat="45.18575" lon="5.97031">
        <ele>2192.8</ele>
        <time>2022-07-22T13:38:06.000Z</time>
      </trkpt>
      <trkpt lat="45.18578" lon="5.97032">
        <ele>2192.3</ele>
        <time>2022-07-22T13:38:16.000Z</time>
      </trkpt>
      <trkpt lat="45.18585" lon="5.9703">
        <ele>2189</ele>
        <time>2022-07-22T13:38:26.000Z</time>
      </trkpt>
      <trkpt lat="45.18589" lon="5.97027">
        <ele>2185.7</ele>
        <time>2022-07-22T13:38:36.000Z</time>
      </trkpt>
      <trkpt lat="45.18592" lon="5.97029">
        <ele>2185.9</ele>
        <time>2022-07-22T13:38:46.000Z</time>
      </trkpt>
      <trkpt lat="45.18594" lon="5.97032">
        <ele>2186.9</ele>
        <time>2022-07-22T13:38:56.000Z</time>
      </trkpt>
      <trkpt lat="45.186" lon="5.97034">
        <ele>2186</ele>
        <time>2022-07-22T13:39:06.000Z</time>
      </trkpt>
      <trkpt lat="45.18607" lon="5.97038">
        <ele>2186</ele>
        <time>2022-07-22T13:39:16.000Z</time>
      </trkpt>
      <trkpt lat="45.18607" lon="5.97041">
        <ele>2187.5</ele>
        <time>2022-07-22T13:39:26.000Z</time>
      </trkpt>
      <trkpt lat="45.18608" lon="5.97043">
        <ele>2188.3</ele>
        <time>2022-07-22T13:39:36.000Z</time>
      </trkpt>
      <trkpt lat="45.18611" lon="5.97044">
        <ele>2187.8</ele>
        <time>2022-07-22T13:39:46.000Z</time>
      </trkpt>
      <trkpt lat="45.18615" lon="5.97047">
        <ele>2187.4</ele>
        <time>2022-07-22T13:39:56.000Z</time>
      </trkpt>
      <trkpt lat="45.18623" lon="5.97046">
        <ele>2186</ele>
        <time>2022-07-22T13:40:06.000Z</time>
      </trkpt>
      <trkpt lat="45.18629" lon="5.97041">
        <ele>2177.5</ele>
        <time>2022-07-22T13:40:16.000Z</time>
      </trkpt>
      <trkpt lat="45.18631" lon="5.97036">
        <ele>2174.2</ele>
        <time>2022-07-22T13:40:26.000Z</time>
      </trkpt>
      <trkpt lat="45.18635" lon="5.97034">
        <ele>2171.5</ele>
        <time>2022-07-22T13:40:36.000Z</time>
      </trkpt>
      <trkpt lat="45.18636" lon="5.97032">
        <ele>2170.1</ele>
        <time>2022-07-22T13:40:46.000Z</time>
      </trkpt>
      <trkpt lat="45.18643" lon="5.97027">
        <ele>2190</ele>
        <time>2022-07-22T13:40:56.000Z</time>
      </trkpt>
      <trkpt lat="45.18648" lon="5.97026">
        <ele>2160.5</ele>
        <time>2022-07-22T13:41:06.000Z</time>
      </trkpt>
      <trkpt lat="45.1865" lon="5.97027">
        <ele>2159.8</ele>
        <time>2022-07-22T13:41:16.000Z</time>
      </trkpt>
      <trkpt lat="45.18651" lon="5.97029">
        <ele>2160.1</ele>
        <time>2022-07-22T13:41:26.000Z</time>
      </trkpt>
      <trkpt lat="45.18651" lon="5.97032">
        <ele>2161.3</ele>
        <time>2022-07-22T13:41:36.000Z</time>
      </trkpt>
      <trkpt lat="45.18655" lon="5.97035">
        <ele>2160</ele>
        <time>2022-07-22T13:41:46.000Z</time>
      </trkpt>
      <trkpt lat="45.18656" lon="5.97038">
        <ele>2160.5</ele>
        <time>2022-07-22T13:41:56.000Z</time>
      </trkpt>
      <trkpt lat="45.18659" lon="5.97051">
        <ele>2202</ele>
        <time>2022-07-22T13:42:06.000Z</time>
      </trkpt>
      <trkpt lat="45.18659" lon="5.9706">
        <ele>2167</ele>
        <time>2022-07-22T13:42:16.000Z</time>
      </trkpt>
      <trkpt lat="45.18661" lon="5.97064">
        <ele>2167.1</ele>
        <time>2022-07-22T13:42:26.000Z</time>
      </trkpt>
      <trkpt lat="45.18663" lon="5.97072">
        <ele>2168.7</ele>
        <time>2022-07-22T13:42:36.000Z</time>
      </trkpt>
      <trkpt lat="45.18665" lon="5.97074">
        <ele>2167.9</ele>
        <time>2022-07-22T13:42:46.000Z</time>
      </trkpt>
      <trkpt lat="45.18668" lon="5.97074">
        <ele>2209</ele>
        <time>2022-07-22T13:42:56.000Z</time>
      </trkpt>
      <trkpt lat="45.18672" lon="5.97079">
        <ele>2164</ele>
        <time>2022-07-22T13:43:06.000Z</time>
      </trkpt>
      <trkpt lat="45.18675" lon="5.97086">
        <ele>2164.1</ele>
        <time>2022-07-22T13:43:16.000Z</time>
      </trkpt>
      <trkpt lat="45.18678" lon="5.97089">
        <ele>2162.7</ele>
        <time>2022-07-22T13:43:26.000Z</time>
      </trkpt>
      <trkpt lat="45.1868" lon="5.97089">
        <ele>2161.1</ele>
        <time>2022-07-22T13:43:36.000Z</time>
      </trkpt>
      <trkpt lat="45.18681" lon="5.97093">
        <ele>2209</ele>
        <time>2022-07-22T13:43:46.000Z</time>
      </trkpt>
      <trkpt lat="45.18685" lon="5.97095">
        <ele>2159.3</ele>
        <time>2022-07-22T13:43:56.000Z</time>
      </trkpt>
      <trkpt lat="45.18687" lon="5.971">
        <ele>2159.6</ele>
        <time>2022-07-22T13:44:06.000Z</time>
      </trkpt>
      <trkpt lat="45.18693" lon="5.97103">
        <ele>2155.9</ele>
        <time>2022-07-22T13:44:16.000Z</time>
      </trkpt>
      <trkpt lat="45.18694" lon="5.97105">
        <ele>2155.9</ele>
        <time>2022-07-22T13:44:26.000Z</time>
      </trkpt>
      <trkpt lat="45.18693" lon="5.97108">
        <ele>2157.9</ele>
        <time>2022-07-22T13:44:36.000Z</time>
      </trkpt>
      <trkpt lat="45.1869" lon="5.9711">
        <ele>2212</ele>
        <time>2022-07-22T13:44:46.000Z</time>
      </trkpt>
      <trkpt lat="45.18691" lon="5.97113">
        <ele>2161.5</ele>
        <time>2022-07-22T13:44:56.000Z</time>
      </trkpt>
      <trkpt lat="45.18696" lon="5.97118">
        <ele>2159.7</ele>
        <time>2022-07-22T13:45:06.000Z</time>
      </trkpt>
      <trkpt lat="45.18702" lon="5.97117">
        <ele>2155.4</ele>
        <time>2022-07-22T13:45:16.000Z</time>
      </trkpt>
      <trkpt lat="45.18706" lon="5.9712">
        <ele>2205</ele>
        <time>2022-07-22T13:45:26.000Z</time>
      </trkpt>
      <trkpt lat="45.1871" lon="5.9712">
        <ele>2151.4</ele>
        <time>2022-07-22T13:45:36.000Z</time>
      </trkpt>
      <trkpt lat="45.18719" lon="5.97122">
        <ele>2146.4</ele>
        <time>2022-07-22T13:45:46.000Z</time>
      </trkpt>
      <trkpt lat="45.18722" lon="5.97123">
        <ele>2144.9</ele>
        <time>2022-07-22T13:45:56.000Z</time>
      </trkpt>
      <trkpt lat="45.18725" lon="5.97127">
        <ele>2202</ele>
        <time>2022-07-22T13:46:06.000Z</time>
      </trkpt>
      <trkpt lat="45.18728" lon="5.97127">
        <ele>2143.8</ele>
        <time>2022-07-22T13:46:16.000Z</time>
      </trkpt>
      <trkpt lat="45.18732" lon="5.97125">
        <ele>2141.3</ele>
        <time>2022-07-22T13:46:26.000Z</time>
      </trkpt>
      <trkpt lat="45.18734" lon="5.97127">
        <ele>2141.3</ele>
        <time>2022-07-22T13:46:36.000Z</time>
      </trkpt>
      <trkpt lat="45.18735" lon="5.9713">
        <ele>2142.1</ele>
        <time>2022-07-22T13:46:46.000Z</time>
      </trkpt>
      <trkpt lat="45.18744" lon="5.9713">
        <ele>2200</ele>
        <time>2022-07-22T13:46:56.000Z</time>
      </trkpt>
      <trkpt lat="45.18749" lon="5.97133">
        <ele>2137.7</ele>
        <time>2022-07-22T13:47:06.000Z</time>
      </trkpt>
      <trkpt lat="45.18749" lon="5.97135">
        <ele>2138.6</ele>
        <time>2022-07-22T13:47:16.000Z</time>
      </trkpt>
      <trkpt lat="45.1875" lon="5.97137">
        <ele>2139.1</ele>
        <time>2022-07-22T13:47:26.000Z</time>
      </trkpt>
      <trkpt lat="45.18754" lon="5.97137">
        <ele>2135.7</ele>
        <time>2022-07-22T13:47:36.000Z</time>
      </trkpt>
      <trkpt lat="45.18756" lon="5.97136">
        <ele>2133.6</ele>
        <time>2022-07-22T13:47:46.000Z</time>
      </trkpt>
      <trkpt lat="45.18763" lon="5.97137">
        <ele>2200</ele>
        <time>2022-07-22T13:47:56.000Z</time>
      </trkpt>
      <trkpt lat="45.18767" lon="5.97139">
        <ele>2125.4</ele>
        <time>2022-07-22T13:48:06.000Z</time>
      </trkpt>
      <trkpt lat="45.18768" lon="5.97142">
        <ele>2125.6</ele>
        <time>2022-07-22T13:48:16.000Z</time>
      </trkpt>
      <trkpt lat="45.1877" lon="5.97144">
        <ele>2124.7</ele>
        <time>2022-07-22T13:48:26.000Z</time>
      </trkpt>
      <trkpt lat="45.1877" lon="5.97147">
        <ele>2125.8</ele>
        <time>2022-07-22T13:48:36.000Z</time>
      </trkpt>
      <trkpt lat="45.18775" lon="5.97151">
        <ele>2122.8</ele>
        <time>2022-07-22T13:48:46.000Z</time>
      </trkpt>
      <trkpt lat="45.18778" lon="5.97155">
        <ele>2194</ele>
        <time>2022-07-22T13:48:56.000Z</time>
      </trkpt>
      <trkpt lat="45.1878" lon="5.97155">
        <ele>2120.4</ele>
        <time>2022-07-22T13:49:06.000Z</time>
      </trkpt>
      <trkpt lat="45.18782" lon="5.97158">
        <ele>2120.2</ele>
        <time>2022-07-22T13:49:16.000Z</time>
      </trkpt>
      <trkpt lat="45.18782" lon="5.97161">
        <ele>2121.3</ele>
        <time>2022-07-22T13:49:26.000Z</time>
      </trkpt>
      <trkpt lat="45.18783" lon="5.97163">
        <ele>2121.4</ele>
        <time>2022-07-22T13:49:36.000Z</time>
      </trkpt>
      <trkpt lat="45.18785" lon="5.97164">
        <ele>2120.6</ele>
        <time>2022-07-22T13:49:46.000Z</time>
      </trkpt>
      <trkpt lat="45.18788" lon="5.97168">
        <ele>2120.3</ele>
        <time>2022-07-22T13:49:56.000Z</time>
      </trkpt>
      <trkpt lat="45.18794" lon="5.97172">
        <ele>2188</ele>
        <time>2022-07-22T13:50:06.000Z</time>
      </trkpt>
      <trkpt lat="45.18796" lon="5.97177">
        <ele>2118.8</ele>
        <time>2022-07-22T13:50:16.000Z</time>
      </trkpt>
      <trkpt lat="45.18799" lon="5.97177">
        <ele>2116.9</ele>
        <time>2022-07-22T13:50:26.000Z</time>
      </trkpt>
      <trkpt lat="45.18802" lon="5.97181">
        <ele>2116.5</ele>
        <time>2022-07-22T13:50:36.000Z</time>
      </trkpt>
      <trkpt lat="45.18807" lon="5.97183">
        <ele>2113.9</ele>
        <time>2022-07-22T13:50:46.000Z</time>
      </trkpt>
      <trkpt lat="45.18808" lon="5.97185">
        <ele>2113.9</ele>
        <time>2022-07-22T13:50:56.000Z</time>
      </trkpt>
      <trkpt lat="45.18812" lon="5.97188">
        <ele>2154</ele>
        <time>2022-07-22T13:51:06.000Z</time>
      </trkpt>
      <trkpt lat="45.18818" lon="5.972">
        <ele>2111.5</ele>
        <time>2022-07-22T13:51:16.000Z</time>
      </trkpt>
      <trkpt lat="45.18822" lon="5.97202">
        <ele>2109.2</ele>
        <time>2022-07-22T13:51:26.000Z</time>
      </trkpt>
      <trkpt lat="45.18824" lon="5.97205">
        <ele>2108.7</ele>
        <time>2022-07-22T13:51:36.000Z</time>
      </trkpt>
      <trkpt lat="45.18824" lon="5.97207">
        <ele>2109.4</ele>
        <time>2022-07-22T13:51:46.000Z</time>
      </trkpt>
      <trkpt lat="45.18826" lon="5.97209">
        <ele>2151</ele>
        <time>2022-07-22T13:51:56.000Z</time>
      </trkpt>
      <trkpt lat="45.18826" lon="5.97213">
        <ele>2110</ele>
        <time>2022-07-22T13:52:06.000Z</time>
      </trkpt>
      <trkpt lat="45.18828" lon="5.97216">
        <ele>2109.6</ele>
        <time>2022-07-22T13:52:16.000Z</time>
      </trkpt>
      <trkpt lat="45.18828" lon="5.97218">
        <ele>2110.3</ele>
        <time>2022-07-22T13:52:26.000Z</time>
      </trkpt>
      <trkpt lat="45.18831" lon="5.97223">
        <ele>2110</ele>
        <time>2022-07-22T13:52:36.000Z</time>
      </trkpt>
      <trkpt lat="45.18841" lon="5.97234">
        <ele>2149</ele>
        <time>2022-07-22T13:52:46.000Z</time>
      </trkpt>
      <trkpt lat="45.18849" lon="5.97237">
        <ele>2102.8</ele>
        <time>2022-07-22T13:52:56.000Z</time>
      </trkpt>
      <trkpt lat="45.18859" lon="5.97247">
        <ele>2127</ele>
        <time>2022-07-22T13:53:06.000Z</time>
      </trkpt>
      <trkpt lat="45.18865" lon="5.9725">
        <ele>2097</ele>
        <time>2022-07-22T13:53:16.000Z</time>
      </trkpt>
      <trkpt lat="45.1887" lon="5.97256">
        <ele>2097.1</ele>
        <time>2022-07-22T13:53:26.000Z</time>
      </trkpt>
      <trkpt lat="45.18874" lon="5.97259">
        <ele>2096.4</ele>
        <time>2022-07-22T13:53:36.000Z</time>
      </trkpt>
      <trkpt lat="45.18877" lon="5.97266">
        <ele>2127</ele>
        <time>2022-07-22T13:53:46.000Z</time>
      </trkpt>
      <trkpt lat="45.18889" lon="5.97262">
        <ele>2090.1</ele>
        <time>2022-07-22T13:53:56.000Z</time>
      </trkpt>
      <trkpt lat="45.18891" lon="5.97263">
        <ele>2089.8</ele>
        <time>2022-07-22T13:54:06.000Z</time>
      </trkpt>
      <trkpt lat="45.18893" lon="5.97267">
        <ele>2090.7</ele>
        <time>2022-07-22T13:54:16.000Z</time>
      </trkpt>
      <trkpt lat="45.18895" lon="5.97266">
        <ele>2118</ele>
        <time>2022-07-22T13:54:26.000Z</time>
      </trkpt>
      <trkpt lat="45.189" lon="5.97266">
        <ele>2087.5</ele>
        <time>2022-07-22T13:54:36.000Z</time>
      </trkpt>
      <trkpt lat="45.18904" lon="5.97269">
        <ele>2087</ele>
        <time>2022-07-22T13:54:46.000Z</time>
      </trkpt>
      <trkpt lat="45.18908" lon="5.9727">
        <ele>2085.8</ele>
        <time>2022-07-22T13:54:56.000Z</time>
      </trkpt>
      <trkpt lat="45.18914" lon="5.97277">
        <ele>2109</ele>
        <time>2022-07-22T13:55:06.000Z</time>
      </trkpt>
      <trkpt lat="45.18919" lon="5.97277">
        <ele>2084.3</ele>
        <time>2022-07-22T13:55:16.000Z</time>
      </trkpt>
      <trkpt lat="45.18923" lon="5.9728">
        <ele>2084.7</ele>
        <time>2022-07-22T13:55:26.000Z</time>
      </trkpt>
      <trkpt lat="45.18933" lon="5.97277">
        <ele>2109</ele>
        <time>2022-07-22T13:55:36.000Z</time>
      </trkpt>
      <trkpt lat="45.18935" lon="5.97277">
        <ele>2081.4</ele>
        <time>2022-07-22T13:55:46.000Z</time>
      </trkpt>
      <trkpt lat="45.18939" lon="5.97272">
        <ele>2078.7</ele>
        <time>2022-07-22T13:55:56.000Z</time>
      </trkpt>
      <trkpt lat="45.18945" lon="5.97268">
        <ele>2076</ele>
        <time>2022-07-22T13:56:06.000Z</time>
      </trkpt>
      <trkpt lat="45.18947" lon="5.97268">
        <ele>2075.8</ele>
        <time>2022-07-22T13:56:16.000Z</time>
      </trkpt>
      <trkpt lat="45.18948" lon="5.97267">
        <ele>2075.2</ele>
        <time>2022-07-22T13:56:26.000Z</time>
      </trkpt>
      <trkpt lat="45.18949" lon="5.9726">
        <ele>2095</ele>
        <time>2022-07-22T13:56:36.000Z</time>
      </trkpt>
      <trkpt lat="45.18951" lon="5.97258">
        <ele>2071.2</ele>
        <time>2022-07-22T13:56:46.000Z</time>
      </trkpt>
      <trkpt lat="45.18953" lon="5.97259">
        <ele>2071.3</ele>
        <time>2022-07-22T13:56:56.000Z</time>
      </trkpt>
      <trkpt lat="45.18957" lon="5.97258">
        <ele>2070.4</ele>
        <time>2022-07-22T13:57:06.000Z</time>
      </trkpt>
      <trkpt lat="45.18967" lon="5.97254">
        <ele>2081</ele>
        <time>2022-07-22T13:57:16.000Z</time>
      </trkpt>
      <trkpt lat="45.18968" lon="5.97252">
        <ele>2066.4</ele>
        <time>2022-07-22T13:57:26.000Z</time>
      </trkpt>
      <trkpt lat="45.18972" lon="5.97251">
        <ele>2065.4</ele>
        <time>2022-07-22T13:57:36.000Z</time>
      </trkpt>
      <trkpt lat="45.18975" lon="5.97247">
        <ele>2063.7</ele>
        <time>2022-07-22T13:57:46.000Z</time>
      </trkpt>
      <trkpt lat="45.1898" lon="5.97247">
        <ele>2063.4</ele>
        <time>2022-07-22T13:57:56.000Z</time>
      </trkpt>
      <trkpt lat="45.18982" lon="5.97246">
        <ele>2062.9</ele>
        <time>2022-07-22T13:58:06.000Z</time>
      </trkpt>
      <trkpt lat="45.18986" lon="5.9724">
        <ele>2081</ele>
        <time>2022-07-22T13:58:16.000Z</time>
      </trkpt>
      <trkpt lat="45.18988" lon="5.97238">
        <ele>2059.5</ele>
        <time>2022-07-22T13:58:26.000Z</time>
      </trkpt>
      <trkpt lat="45.18991" lon="5.97237">
        <ele>2059</ele>
        <time>2022-07-22T13:58:36.000Z</time>
      </trkpt>
      <trkpt lat="45.18999" lon="5.97238">
        <ele>2058.8</ele>
        <time>2022-07-22T13:58:46.000Z</time>
      </trkpt>
      <trkpt lat="45.19003" lon="5.97236">
        <ele>2057.5</ele>
        <time>2022-07-22T13:58:56.000Z</time>
      </trkpt>
      <trkpt lat="45.19012" lon="5.97234">
        <ele>2068</ele>
        <time>2022-07-22T13:59:06.000Z</time>
      </trkpt>
      <trkpt lat="45.19018" lon="5.97234">
        <ele>2054.4</ele>
        <time>2022-07-22T13:59:16.000Z</time>
      </trkpt>
      <trkpt lat="45.1902" lon="5.97232">
        <ele>2053.4</ele>
        <time>2022-07-22T13:59:26.000Z</time>
      </trkpt>
      <trkpt lat="45.19022" lon="5.97231">
        <ele>2052.7</ele>
        <time>2022-07-22T13:59:36.000Z</time>
      </trkpt>
      <trkpt lat="45.19024" lon="5.97231">
        <ele>2052.4</ele>
        <time>2022-07-22T13:59:46.000Z</time>
      </trkpt>
      <trkpt lat="45.19028" lon="5.97228">
        <ele>2050.8</ele>
        <time>2022-07-22T13:59:56.000Z</time>
      </trkpt>
      <trkpt lat="45.19033" lon="5.97222">
        <ele>2057</ele>
        <time>2022-07-22T14:00:06.000Z</time>
      </trkpt>
      <trkpt lat="45.1904" lon="5.97219">
        <ele>2046.8</ele>
        <time>2022-07-22T14:00:16.000Z</time>
      </trkpt>
      <trkpt lat="45.19046" lon="5.9722">
        <ele>2046.4</ele>
        <time>2022-07-22T14:00:26.000Z</time>
      </trkpt>
      <trkpt lat="45.1905" lon="5.97219">
        <ele>2045.8</ele>
        <time>2022-07-22T14:00:36.000Z</time>
      </trkpt>
      <trkpt lat="45.19052" lon="5.97217">
        <ele>2053</ele>
        <time>2022-07-22T14:00:46.000Z</time>
      </trkpt>
      <trkpt lat="45.19057" lon="5.97216">
        <ele>2044.3</ele>
        <time>2022-07-22T14:00:56.000Z</time>
      </trkpt>
      <trkpt lat="45.19059" lon="5.97211">
        <ele>2043</ele>
        <time>2022-07-22T14:01:06.000Z</time>
      </trkpt>
      <trkpt lat="45.1907" lon="5.97212">
        <ele>2053</ele>
        <time>2022-07-22T14:01:16.000Z</time>
      </trkpt>
      <trkpt lat="45.19076" lon="5.97209">
        <ele>2041.5</ele>
        <time>2022-07-22T14:01:26.000Z</time>
      </trkpt>
      <trkpt lat="45.1908" lon="5.97212">
        <ele>2042</ele>
        <time>2022-07-22T14:01:36.000Z</time>
      </trkpt>
      <trkpt lat="45.19082" lon="5.97208">
        <ele>2041</ele>
        <time>2022-07-22T14:01:46.000Z</time>
      </trkpt>
      <trkpt lat="45.19084" lon="5.97207">
        <ele>2040.6</ele>
        <time>2022-07-22T14:01:56.000Z</time>
      </trkpt>
      <trkpt lat="45.19087" lon="5.97204">
        <ele>2045</ele>
        <time>2022-07-22T14:02:06.000Z</time>
      </trkpt>
      <trkpt lat="45.19088" lon="5.97202">
        <ele>2038.5</ele>
        <time>2022-07-22T14:02:16.000Z</time>
      </trkpt>
      <trkpt lat="45.19088" lon="5.97199">
        <ele>2037.8</ele>
        <time>2022-07-22T14:02:26.000Z</time>
      </trkpt>
      <trkpt lat="45.19089" lon="5.97196">
        <ele>2036.9</ele>
        <time>2022-07-22T14:02:36.000Z</time>
      </trkpt>
      <trkpt lat="45.19087" lon="5.9719">
        <ele>2036.1</ele>
        <time>2022-07-22T14:02:46.000Z</time>
      </trkpt>
      <trkpt lat="45.19088" lon="5.97182">
        <ele>2034.1</ele>
        <time>2022-07-22T14:02:56.000Z</time>
      </trkpt>
      <trkpt lat="45.19086" lon="5.97179">
        <ele>2040</ele>
        <time>2022-07-22T14:03:06.000Z</time>
      </trkpt>
      <trkpt lat="45.19085" lon="5.97176">
        <ele>2033.6</ele>
        <time>2022-07-22T14:03:16.000Z</time>
      </trkpt>
      <trkpt lat="45.19087" lon="5.97171">
        <ele>2031.9</ele>
        <time>2022-07-22T14:03:26.000Z</time>
      </trkpt>
      <trkpt lat="45.19087" lon="5.97167">
        <ele>2031</ele>
        <time>2022-07-22T14:03:36.000Z</time>
      </trkpt>
      <trkpt lat="45.19088" lon="5.97165">
        <ele>2030.4</ele>
        <time>2022-07-22T14:03:46.000Z</time>
      </trkpt>
      <trkpt lat="45.19088" lon="5.97163">
        <ele>2030.2</ele>
        <time>2022-07-22T14:03:56.000Z</time>
      </trkpt>
      <trkpt lat="45.1909" lon="5.9716">
        <ele>2029.1</ele>
        <time>2022-07-22T14:04:06.000Z</time>
      </trkpt>
      <trkpt lat="45.19091" lon="5.97159">
        <ele>2028.7</ele>
        <time>2022-07-22T14:04:16.000Z</time>
      </trkpt>
      <trkpt lat="45.19096" lon="5.97166">
        <ele>2040</ele>
        <time>2022-07-22T14:04:26.000Z</time>
      </trkpt>
      <trkpt lat="45.19106" lon="5.97175">
        <ele>2027.5</ele>
        <time>2022-07-22T14:04:36.000Z</time>
      </trkpt>
      <trkpt lat="45.19109" lon="5.97175">
        <ele>2026.7</ele>
        <time>2022-07-22T14:04:46.000Z</time>
      </trkpt>
      <trkpt lat="45.19117" lon="5.97169">
        <ele>2037</ele>
        <time>2022-07-22T14:04:56.000Z</time>
      </trkpt>
      <trkpt lat="45.1912" lon="5.97164">
        <ele>2025.9</ele>
        <time>2022-07-22T14:05:06.000Z</time>
      </trkpt>
      <trkpt lat="45.19121" lon="5.97158">
        <ele>2024.9</ele>
        <time>2022-07-22T14:05:16.000Z</time>
      </trkpt>
      <trkpt lat="45.19123" lon="5.97156">
        <ele>2025.1</ele>
        <time>2022-07-22T14:05:26.000Z</time>
      </trkpt>
      <trkpt lat="45.19126" lon="5.97147">
        <ele>2024.1</ele>
        <time>2022-07-22T14:05:36.000Z</time>
      </trkpt>
      <trkpt lat="45.19126" lon="5.97145">
        <ele>2035</ele>
        <time>2022-07-22T14:05:46.000Z</time>
      </trkpt>
      <trkpt lat="45.19128" lon="5.97143">
        <ele>2023.9</ele>
        <time>2022-07-22T14:05:56.000Z</time>
      </trkpt>
      <trkpt lat="45.19129" lon="5.97136">
        <ele>2023</ele>
        <time>2022-07-22T14:06:06.000Z</time>
      </trkpt>
      <trkpt lat="45.19131" lon="5.9713">
        <ele>2022.9</ele>
        <time>2022-07-22T14:06:16.000Z</time>
      </trkpt>
      <trkpt lat="45.19131" lon="5.9712">
        <ele>2032</ele>
        <time>2022-07-22T14:06:26.000Z</time>
      </trkpt>
      <trkpt lat="45.19132" lon="5.97117">
        <ele>2021.4</ele>
        <time>2022-07-22T14:06:36.000Z</time>
      </trkpt>
      <trkpt lat="45.19135" lon="5.97112">
        <ele>2021.7</ele>
        <time>2022-07-22T14:06:46.000Z</time>
      </trkpt>
      <trkpt lat="45.19136" lon="5.97106">
        <ele>2021.5</ele>
        <time>2022-07-22T14:06:56.000Z</time>
      </trkpt>
      <trkpt lat="45.19137" lon="5.97103">
        <ele>2021.7</ele>
        <time>2022-07-22T14:07:06.000Z</time>
      </trkpt>
      <trkpt lat="45.19137" lon="5.9709">
        <ele>2029</ele>
        <time>2022-07-22T14:07:16.000Z</time>
      </trkpt>
      <trkpt lat="45.19138" lon="5.97087">
        <ele>2020.8</ele>
        <time>2022-07-22T14:07:26.000Z</time>
      </trkpt>
      <trkpt lat="45.19138" lon="5.97075">
        <ele>2019.6</ele>
        <time>2022-07-22T14:07:36.000Z</time>
      </trkpt>
      <trkpt lat="45.19137" lon="5.97069">
        <ele>2018.5</ele>
        <time>2022-07-22T14:07:46.000Z</time>
      </trkpt>
      <trkpt lat="45.19137" lon="5.97066">
        <ele>2018.1</ele>
        <time>2022-07-22T14:07:56.000Z</time>
      </trkpt>
      <trkpt lat="45.19139" lon="5.97063">
        <ele>2027</ele>
        <time>2022-07-22T14:08:06.000Z</time>
      </trkpt>
      <trkpt lat="45.19141" lon="5.97057">
        <ele>2018.5</ele>
        <time>2022-07-22T14:08:16.000Z</time>
      </trkpt>
      <trkpt lat="45.19145" lon="5.97051">
        <ele>2018.1</ele>
        <time>2022-07-22T14:08:26.000Z</time>
      </trkpt>
      <trkpt lat="45.19147" lon="5.97046">
        <ele>2017.3</ele>
        <time>2022-07-22T14:08:36.000Z</time>
      </trkpt>
      <trkpt lat="45.19153" lon="5.97042">
        <ele>2026</ele>
        <time>2022-07-22T14:08:46.000Z</time>
      </trkpt>
      <trkpt lat="45.19158" lon="5.97036">
        <ele>2016.7</ele>
        <time>2022-07-22T14:08:56.000Z</time>
      </trkpt>
      <trkpt lat="45.19158" lon="5.97033">
        <ele>2016</ele>
        <time>2022-07-22T14:09:06.000Z</time>
      </trkpt>
      <trkpt lat="45.19159" lon="5.97029">
        <ele>2015.2</ele>
        <time>2022-07-22T14:09:16.000Z</time>
      </trkpt>
      <trkpt lat="45.19166" lon="5.97027">
        <ele>2015.7</ele>
        <time>2022-07-22T14:09:26.000Z</time>
      </trkpt>
      <trkpt lat="45.19171" lon="5.97028">
        <ele>2024</ele>
        <time>2022-07-22T14:09:36.000Z</time>
      </trkpt>
      <trkpt lat="45.19182" lon="5.97026">
        <ele>2013.3</ele>
        <time>2022-07-22T14:09:46.000Z</time>
      </trkpt>
      <trkpt lat="45.19185" lon="5.97027">
        <ele>2013.1</ele>
        <time>2022-07-22T14:09:56.000Z</time>
      </trkpt>
      <trkpt lat="45.19187" lon="5.97026">
        <ele>2012.6</ele>
        <time>2022-07-22T14:10:06.000Z</time>
      </trkpt>
      <trkpt lat="45.19198" lon="5.97028">
        <ele>2024</ele>
        <time>2022-07-22T14:10:16.000Z</time>
      </trkpt>
      <trkpt lat="45.19204" lon="5.97028">
        <ele>2011.7</ele>
        <time>2022-07-22T14:10:26.000Z</time>
      </trkpt>
      <trkpt lat="45.19209" lon="5.97027">
        <ele>2011.3</ele>
        <time>2022-07-22T14:10:36.000Z</time>
      </trkpt>
      <trkpt lat="45.19215" lon="5.97024">
        <ele>2010.4</ele>
        <time>2022-07-22T14:10:46.000Z</time>
      </trkpt>
      <trkpt lat="45.19215" lon="5.97022">
        <ele>2010</ele>
        <time>2022-07-22T14:10:56.000Z</time>
      </trkpt>
      <trkpt lat="45.19217" lon="5.9702">
        <ele>2019</ele>
        <time>2022-07-22T14:11:06.000Z</time>
      </trkpt>
      <trkpt lat="45.19221" lon="5.97012">
        <ele>2007.6</ele>
        <time>2022-07-22T14:11:16.000Z</time>
      </trkpt>
      <trkpt lat="45.19219" lon="5.97009">
        <ele>2007</ele>
        <time>2022-07-22T14:11:26.000Z</time>
      </trkpt>
      <trkpt lat="45.19214" lon="5.9701">
        <ele>2007.3</ele>
        <time>2022-07-22T14:11:36.000Z</time>
      </trkpt>
      <trkpt lat="45.19195" lon="5.97">
        <ele>2015</ele>
        <time>2022-07-22T14:11:46.000Z</time>
      </trkpt>
      <trkpt lat="45.1919" lon="5.96995">
        <ele>2003.7</ele>
        <time>2022-07-22T14:11:56.000Z</time>
      </trkpt>
      <trkpt lat="45.19188" lon="5.96995">
        <ele>2003.8</ele>
        <time>2022-07-22T14:12:06.000Z</time>
      </trkpt>
      <trkpt lat="45.19173" lon="5.96976">
        <ele>2014</ele>
        <time>2022-07-22T14:12:16.000Z</time>
      </trkpt>
      <trkpt lat="45.1917" lon="5.96974">
        <ele>1998.3</ele>
        <time>2022-07-22T14:12:26.000Z</time>
      </trkpt>
      <trkpt lat="45.19164" lon="5.96973">
        <ele>1998.1</ele>
        <time>2022-07-22T14:12:36.000Z</time>
      </trkpt>
      <trkpt lat="45.19163" lon="5.96971">
        <ele>1997.2</ele>
        <time>2022-07-22T14:12:46.000Z</time>
      </trkpt>
      <trkpt lat="45.19155" lon="5.96975">
        <ele>2008</ele>
        <time>2022-07-22T14:12:56.000Z</time>
      </trkpt>
      <trkpt lat="45.19149" lon="5.96975">
        <ele>1997.6</ele>
        <time>2022-07-22T14:13:06.000Z</time>
      </trkpt>
      <trkpt lat="45.19141" lon="5.96971">
        <ele>1995.6</ele>
        <time>2022-07-22T14:13:16.000Z</time>
      </trkpt>
      <trkpt lat="45.19134" lon="5.9697">
        <ele>2008</ele>
        <time>2022-07-22T14:13:26.000Z</time>
      </trkpt>
      <trkpt lat="45.19127" lon="5.96965">
        <ele>1989.3</ele>
        <time>2022-07-22T14:13:36.000Z</time>
      </trkpt>
      <trkpt lat="45.19122" lon="5.96966">
        <ele>1988.1</ele>
        <time>2022-07-22T14:13:46.000Z</time>
      </trkpt>
      <trkpt lat="45.1911" lon="5.9698">
        <ele>2008</ele>
        <time>2022-07-22T14:13:56.000Z</time>
      </trkpt>
      <trkpt lat="45.19109" lon="5.96983">
        <ele>1989.2</ele>
        <time>2022-07-22T14:14:06.000Z</time>
      </trkpt>
      <trkpt lat="45.19109" lon="5.96987">
        <ele>1990.2</ele>
        <time>2022-07-22T14:14:16.000Z</time>
      </trkpt>
      <trkpt lat="45.19106" lon="5.96994">
        <ele>1991.9</ele>
        <time>2022-07-22T14:14:26.000Z</time>
      </trkpt>
      <trkpt lat="45.19103" lon="5.96996">
        <ele>1992.5</ele>
        <time>2022-07-22T14:14:36.000Z</time>
      </trkpt>
      <trkpt lat="45.191" lon="5.96997">
        <ele>1992.9</ele>
        <time>2022-07-22T14:14:46.000Z</time>
      </trkpt>
      <trkpt lat="45.19098" lon="5.96995">
        <ele>2008</ele>
        <time>2022-07-22T14:14:56.000Z</time>
      </trkpt>
      <trkpt lat="45.19106" lon="5.96961">
        <ele>2000</ele>
        <time>2022-07-22T14:15:06.000Z</time>
      </trkpt>
      <trkpt lat="45.1911" lon="5.96954">
        <ele>1980.2</ele>
        <time>2022-07-22T14:15:16.000Z</time>
      </trkpt>
      <trkpt lat="45.19116" lon="5.96941">
        <ele>1976.7</ele>
        <time>2022-07-22T14:15:26.000Z</time>
      </trkpt>
      <trkpt lat="45.1912" lon="5.96935">
        <ele>1993</ele>
        <time>2022-07-22T14:15:36.000Z</time>
      </trkpt>
      <trkpt lat="45.19112" lon="5.96946">
        <ele>1977.8</ele>
        <time>2022-07-22T14:15:46.000Z</time>
      </trkpt>
      <trkpt lat="45.19106" lon="5.9695">
        <ele>1978</ele>
        <time>2022-07-22T14:15:56.000Z</time>
      </trkpt>
      <trkpt lat="45.19104" lon="5.96954">
        <ele>1987</ele>
        <time>2022-07-22T14:16:06.000Z</time>
      </trkpt>
      <trkpt lat="45.19102" lon="5.96953">
        <ele>1978.4</ele>
        <time>2022-07-22T14:16:16.000Z</time>
      </trkpt>
      <trkpt lat="45.19098" lon="5.96955">
        <ele>1978.5</ele>
        <time>2022-07-22T14:16:26.000Z</time>
      </trkpt>
      <trkpt lat="45.19096" lon="5.96953">
        <ele>1977.3</ele>
        <time>2022-07-22T14:16:36.000Z</time>
      </trkpt>
      <trkpt lat="45.19097" lon="5.96949">
        <ele>1975.8</ele>
        <time>2022-07-22T14:16:46.000Z</time>
      </trkpt>
      <trkpt lat="45.19099" lon="5.96947">
        <ele>1975.4</ele>
        <time>2022-07-22T14:16:56.000Z</time>
      </trkpt>
      <trkpt lat="45.191" lon="5.96942">
        <ele>1973.5</ele>
        <time>2022-07-22T14:17:06.000Z</time>
      </trkpt>
      <trkpt lat="45.19103" lon="5.96937">
        <ele>1972</ele>
        <time>2022-07-22T14:17:16.000Z</time>
      </trkpt>
      <trkpt lat="45.19107" lon="5.96932">
        <ele>1970.6</ele>
        <time>2022-07-22T14:17:26.000Z</time>
      </trkpt>
      <trkpt lat="45.19114" lon="5.96927">
        <ele>1970.2</ele>
        <time>2022-07-22T14:17:36.000Z</time>
      </trkpt>
      <trkpt lat="45.19121" lon="5.96917">
        <ele>1972</ele>
        <time>2022-07-22T14:17:46.000Z</time>
      </trkpt>
      <trkpt lat="45.19117" lon="5.96919">
        <ele>1967.5</ele>
        <time>2022-07-22T14:17:56.000Z</time>
      </trkpt>
      <trkpt lat="45.19114" lon="5.96919">
        <ele>1966.7</ele>
        <time>2022-07-22T14:18:06.000Z</time>
      </trkpt>
      <trkpt lat="45.19108" lon="5.96922">
        <ele>1966.5</ele>
        <time>2022-07-22T14:18:16.000Z</time>
      </trkpt>
      <trkpt lat="45.19096" lon="5.96932">
        <ele>1969</ele>
        <time>2022-07-22T14:18:26.000Z</time>
      </trkpt>
      <trkpt lat="45.19092" lon="5.96933">
        <ele>1967.4</ele>
        <time>2022-07-22T14:18:36.000Z</time>
      </trkpt>
      <trkpt lat="45.19089" lon="5.96932">
        <ele>1966.1</ele>
        <time>2022-07-22T14:18:46.000Z</time>
      </trkpt>
      <trkpt lat="45.19088" lon="5.96933">
        <ele>1966.4</ele>
        <time>2022-07-22T14:18:56.000Z</time>
      </trkpt>
      <trkpt lat="45.19086" lon="5.96932">
        <ele>1965.4</ele>
        <time>2022-07-22T14:19:06.000Z</time>
      </trkpt>
      <trkpt lat="45.19087" lon="5.9693">
        <ele>1964.6</ele>
        <time>2022-07-22T14:19:16.000Z</time>
      </trkpt>
      <trkpt lat="45.19089" lon="5.96928">
        <ele>1964.2</ele>
        <time>2022-07-22T14:19:26.000Z</time>
      </trkpt>
      <trkpt lat="45.1909" lon="5.96925">
        <ele>1963</ele>
        <time>2022-07-22T14:19:36.000Z</time>
      </trkpt>
      <trkpt lat="45.19093" lon="5.96923">
        <ele>1969</ele>
        <time>2022-07-22T14:19:46.000Z</time>
      </trkpt>
      <trkpt lat="45.19096" lon="5.96922">
        <ele>1963.2</ele>
        <time>2022-07-22T14:19:56.000Z</time>
      </trkpt>
      <trkpt lat="45.19098" lon="5.96917">
        <ele>1961.4</ele>
        <time>2022-07-22T14:20:06.000Z</time>
      </trkpt>
      <trkpt lat="45.19101" lon="5.96915">
        <ele>1961.2</ele>
        <time>2022-07-22T14:20:16.000Z</time>
      </trkpt>
      <trkpt lat="45.19106" lon="5.96906">
        <ele>1957.8</ele>
        <time>2022-07-22T14:20:26.000Z</time>
      </trkpt>
      <trkpt lat="45.19108" lon="5.96904">
        <ele>1959</ele>
        <time>2022-07-22T14:20:36.000Z</time>
      </trkpt>
      <trkpt lat="45.19113" lon="5.96902">
        <ele>1957.6</ele>
        <time>2022-07-22T14:20:46.000Z</time>
      </trkpt>
      <trkpt lat="45.19116" lon="5.969">
        <ele>1957.3</ele>
        <time>2022-07-22T14:20:56.000Z</time>
      </trkpt>
      <trkpt lat="45.1912" lon="5.96889">
        <ele>1952.6</ele>
        <time>2022-07-22T14:21:06.000Z</time>
      </trkpt>
      <trkpt lat="45.19127" lon="5.96884">
        <ele>1959</ele>
        <time>2022-07-22T14:21:16.000Z</time>
      </trkpt>
      <trkpt lat="45.19129" lon="5.9688">
        <ele>1950.5</ele>
        <time>2022-07-22T14:21:26.000Z</time>
      </trkpt>
      <trkpt lat="45.19157" lon="5.96864">
        <ele>1953</ele>
        <time>2022-07-22T14:21:36.000Z</time>
      </trkpt>
      <trkpt lat="45.19165" lon="5.96857">
        <ele>1945.5</ele>
        <time>2022-07-22T14:21:46.000Z</time>
      </trkpt>
      <trkpt lat="45.19172" lon="5.96849">
        <ele>1941.7</ele>
        <time>2022-07-22T14:21:56.000Z</time>
      </trkpt>
      <trkpt lat="45.19179" lon="5.96846">
        <ele>1959</ele>
        <time>2022-07-22T14:22:06.000Z</time>
      </trkpt>
      <trkpt lat="45.19184" lon="5.96847">
        <ele>1941</ele>
        <time>2022-07-22T14:22:16.000Z</time>
      </trkpt>
      <trkpt lat="45.19189" lon="5.96846">
        <ele>1940.6</ele>
        <time>2022-07-22T14:22:26.000Z</time>
      </trkpt>
      <trkpt lat="45.19191" lon="5.96848">
        <ele>1941.8</ele>
        <time>2022-07-22T14:22:36.000Z</time>
      </trkpt>
      <trkpt lat="45.19196" lon="5.96849">
        <ele>1942.9</ele>
        <time>2022-07-22T14:22:46.000Z</time>
      </trkpt>
      <trkpt lat="45.19209" lon="5.96844">
        <ele>1966</ele>
        <time>2022-07-22T14:22:56.000Z</time>
      </trkpt>
      <trkpt lat="45.19211" lon="5.96844">
        <ele>1943</ele>
        <time>2022-07-22T14:23:06.000Z</time>
      </trkpt>
      <trkpt lat="45.19213" lon="5.96842">
        <ele>1942.4</ele>
        <time>2022-07-22T14:23:16.000Z</time>
      </trkpt>
      <trkpt lat="45.19215" lon="5.96842">
        <ele>1942.8</ele>
        <time>2022-07-22T14:23:26.000Z</time>
      </trkpt>
      <trkpt lat="45.19218" lon="5.96837">
        <ele>1940.8</ele>
        <time>2022-07-22T14:23:36.000Z</time>
      </trkpt>
      <trkpt lat="45.1922" lon="5.96836">
        <ele>1940.8</ele>
        <time>2022-07-22T14:23:46.000Z</time>
      </trkpt>
      <trkpt lat="45.19221" lon="5.96833">
        <ele>1939.6</ele>
        <time>2022-07-22T14:23:56.000Z</time>
      </trkpt>
      <trkpt lat="45.19227" lon="5.96831">
        <ele>1960</ele>
        <time>2022-07-22T14:24:06.000Z</time>
      </trkpt>
      <trkpt lat="45.19231" lon="5.96826">
        <ele>1943.8</ele>
        <time>2022-07-22T14:24:16.000Z</time>
      </trkpt>
      <trkpt lat="45.19232" lon="5.96819">
        <ele>1943.8</ele>
        <time>2022-07-22T14:24:26.000Z</time>
      </trkpt>
      <trkpt lat="45.19232" lon="5.96815">
        <ele>1943.4</ele>
        <time>2022-07-22T14:24:36.000Z</time>
      </trkpt>
      <trkpt lat="45.19228" lon="5.96798">
        <ele>1954</ele>
        <time>2022-07-22T14:24:46.000Z</time>
      </trkpt>
      <trkpt lat="45.19229" lon="5.96795">
        <ele>1940.4</ele>
        <time>2022-07-22T14:24:56.000Z</time>
      </trkpt>
      <trkpt lat="45.19228" lon="5.96791">
        <ele>1939.6</ele>
        <time>2022-07-22T14:25:06.000Z</time>
      </trkpt>
      <trkpt lat="45.19228" lon="5.96781">
        <ele>1939.4</ele>
        <time>2022-07-22T14:25:16.000Z</time>
      </trkpt>
      <trkpt lat="45.19231" lon="5.96766">
        <ele>1941</ele>
        <time>2022-07-22T14:25:26.000Z</time>
      </trkpt>
      <trkpt lat="45.19236" lon="5.9675">
        <ele>1938.9</ele>
        <time>2022-07-22T14:25:36.000Z</time>
      </trkpt>
      <trkpt lat="45.19238" lon="5.96748">
        <ele>1939.4</ele>
        <time>2022-07-22T14:25:46.000Z</time>
      </trkpt>
      <trkpt lat="45.1924" lon="5.96736">
        <ele>1947</ele>
        <time>2022-07-22T14:25:56.000Z</time>
      </trkpt>
      <trkpt lat="45.19242" lon="5.96736">
        <ele>1938.1</ele>
        <time>2022-07-22T14:26:06.000Z</time>
      </trkpt>
      <trkpt lat="45.19225" lon="5.9678">
        <ele>1954</ele>
        <time>2022-07-22T14:26:16.000Z</time>
      </trkpt>
      <trkpt lat="45.19224" lon="5.96831">
        <ele>1959</ele>
        <time>2022-07-22T14:26:26.000Z</time>
      </trkpt>
      <trkpt lat="45.1921" lon="5.96845">
        <ele>1943.4</ele>
        <time>2022-07-22T14:26:36.000Z</time>
      </trkpt>
      <trkpt lat="45.19169" lon="5.96851">
        <ele>1956</ele>
        <time>2022-07-22T14:26:46.000Z</time>
      </trkpt>
      <trkpt lat="45.19142" lon="5.96875">
        <ele>1957</ele>
        <time>2022-07-22T14:26:56.000Z</time>
      </trkpt>
      <trkpt lat="45.19114" lon="5.96899">
        <ele>1959</ele>
        <time>2022-07-22T14:27:06.000Z</time>
      </trkpt>
      <trkpt lat="45.19084" lon="5.96925">
        <ele>1969</ele>
        <time>2022-07-22T14:27:16.000Z</time>
      </trkpt>
      <trkpt lat="45.19111" lon="5.96922">
        <ele>1972</ele>
        <time>2022-07-22T14:27:26.000Z</time>
      </trkpt>
      <trkpt lat="45.19093" lon="5.96949">
        <ele>1985</ele>
        <time>2022-07-22T14:27:36.000Z</time>
      </trkpt>
      <trkpt lat="45.19116" lon="5.96942">
        <ele>1987</ele>
        <time>2022-07-22T14:27:46.000Z</time>
      </trkpt>
      <trkpt lat="45.19096" lon="5.96993">
        <ele>1993</ele>
        <time>2022-07-22T14:27:56.000Z</time>
      </trkpt>
      <trkpt lat="45.19117" lon="5.96971">
        <ele>2000</ele>
        <time>2022-07-22T14:28:06.000Z</time>
      </trkpt>
      <trkpt lat="45.19129" lon="5.96967">
        <ele>1990.7</ele>
        <time>2022-07-22T14:28:16.000Z</time>
      </trkpt>
      <trkpt lat="45.19171" lon="5.96977">
        <ele>2014</ele>
        <time>2022-07-22T14:28:26.000Z</time>
      </trkpt>
      <trkpt lat="45.19191" lon="5.97">
        <ele>2015</ele>
        <time>2022-07-22T14:28:36.000Z</time>
      </trkpt>
      <trkpt lat="45.19214" lon="5.97013">
        <ele>2017</ele>
        <time>2022-07-22T14:28:46.000Z</time>
      </trkpt>
      <trkpt lat="45.19214" lon="5.97025">
        <ele>2010.7</ele>
        <time>2022-07-22T14:28:56.000Z</time>
      </trkpt>
      <trkpt lat="45.19156" lon="5.97037">
        <ele>2021</ele>
        <time>2022-07-22T14:29:06.000Z</time>
      </trkpt>
      <trkpt lat="45.19136" lon="5.97068">
        <ele>2025</ele>
        <time>2022-07-22T14:29:16.000Z</time>
      </trkpt>
      <trkpt lat="45.19149" lon="5.97132">
        <ele>2038</ele>
        <time>2022-07-22T14:29:26.000Z</time>
      </trkpt>
      <trkpt lat="45.19148" lon="5.97166">
        <ele>2040</ele>
        <time>2022-07-22T14:29:36.000Z</time>
      </trkpt>
      <trkpt lat="45.19158" lon="5.972">
        <ele>2048</ele>
        <time>2022-07-22T14:29:46.000Z</time>
      </trkpt>
      <trkpt lat="45.19169" lon="5.97242">
        <ele>2067</ele>
        <time>2022-07-22T14:29:56.000Z</time>
      </trkpt>
      <trkpt lat="45.19203" lon="5.97285">
        <ele>2081</ele>
        <time>2022-07-22T14:30:06.000Z</time>
      </trkpt>
      <trkpt lat="45.19219" lon="5.97338">
        <ele>2082</ele>
        <time>2022-07-22T14:30:16.000Z</time>
      </trkpt>
      <trkpt lat="45.19251" lon="5.97386">
        <ele>2087</ele>
        <time>2022-07-22T14:30:26.000Z</time>
      </trkpt>
      <trkpt lat="45.19279" lon="5.97409">
        <ele>2088</ele>
        <time>2022-07-22T14:30:36.000Z</time>
      </trkpt>
      <trkpt lat="45.19306" lon="5.97433">
        <ele>2089</ele>
        <time>2022-07-22T14:30:46.000Z</time>
      </trkpt>
      <trkpt lat="45.19323" lon="5.97462">
        <ele>2091</ele>
        <time>2022-07-22T14:30:56.000Z</time>
      </trkpt>
      <trkpt lat="45.19353" lon="5.97491">
        <ele>2106</ele>
        <time>2022-07-22T14:31:06.000Z</time>
      </trkpt>
      <trkpt lat="45.19374" lon="5.97516">
        <ele>2106</ele>
        <time>2022-07-22T14:31:16.000Z</time>
      </trkpt>
      <trkpt lat="45.1939" lon="5.97554">
        <ele>2124</ele>
        <time>2022-07-22T14:31:26.000Z</time>
      </trkpt>
      <trkpt lat="45.19419" lon="5.97578">
        <ele>2132</ele>
        <time>2022-07-22T14:31:36.000Z</time>
      </trkpt>
      <trkpt lat="45.19459" lon="5.97593">
        <ele>2132</ele>
        <time>2022-07-22T14:31:46.000Z</time>
      </trkpt>
      <trkpt lat="45.19468" lon="5.97623">
        <ele>2143</ele>
        <time>2022-07-22T14:31:56.000Z</time>
      </trkpt>
      <trkpt lat="45.19472" lon="5.97655">
        <ele>2149</ele>
        <time>2022-07-22T14:32:06.000Z</time>
      </trkpt>
      <trkpt lat="45.19474" lon="5.9768">
        <ele>2136.1</ele>
        <time>2022-07-22T14:32:16.000Z</time>
      </trkpt>
      <trkpt lat="45.19476" lon="5.97724">
        <ele>2150</ele>
        <time>2022-07-22T14:32:26.000Z</time>
      </trkpt>
      <trkpt lat="45.19466" lon="5.97763">
        <ele>2150</ele>
        <time>2022-07-22T14:32:36.000Z</time>
      </trkpt>
      <trkpt lat="45.19469" lon="5.97797">
        <ele>2150</ele>
        <time>2022-07-22T14:32:46.000Z</time>
      </trkpt>
      <trkpt lat="45.19473" lon="5.97834">
        <ele>2150</ele>
        <time>2022-07-22T14:32:56.000Z</time>
      </trkpt>
      <trkpt lat="45.19482" lon="5.97858">
        <ele>2155</ele>
        <time>2022-07-22T14:33:06.000Z</time>
      </trkpt>
      <trkpt lat="45.19482" lon="5.97899">
        <ele>2159</ele>
        <time>2022-07-22T14:33:16.000Z</time>
      </trkpt>
      <trkpt lat="45.19503" lon="5.97919">
        <ele>2159</ele>
        <time>2022-07-22T14:33:26.000Z</time>
      </trkpt>
      <trkpt lat="45.19509" lon="5.97942">
        <ele>2151.9</ele>
        <time>2022-07-22T14:33:36.000Z</time>
      </trkpt>
      <trkpt lat="45.19532" lon="5.97976">
        <ele>2168</ele>
        <time>2022-07-22T14:33:46.000Z</time>
      </trkpt>
      <trkpt lat="45.1955" lon="5.97976">
        <ele>2160.5</ele>
        <time>2022-07-22T14:33:56.000Z</time>
      </trkpt>
      <trkpt lat="45.1957" lon="5.97992">
        <ele>2176</ele>
        <time>2022-07-22T14:34:06.000Z</time>
      </trkpt>
      <trkpt lat="45.19581" lon="5.98035">
        <ele>2194</ele>
        <time>2022-07-22T14:34:16.000Z</time>
      </trkpt>
      <trkpt lat="45.19593" lon="5.98051">
        <ele>2183.5</ele>
        <time>2022-07-22T14:34:26.000Z</time>
      </trkpt>
      <trkpt lat="45.19598" lon="5.98078">
        <ele>2195</ele>
        <time>2022-07-22T14:34:36.000Z</time>
      </trkpt>
      <trkpt lat="45.1959" lon="5.98121">
        <ele>2198</ele>
        <time>2022-07-22T14:34:46.000Z</time>
      </trkpt>
      <trkpt lat="45.19574" lon="5.98203">
        <ele>2214</ele>
        <time>2022-07-22T14:34:56.000Z</time>
      </trkpt>
      <trkpt lat="45.19571" lon="5.98254">
        <ele>2229</ele>
        <time>2022-07-22T14:35:06.000Z</time>
      </trkpt>
      <trkpt lat="45.19577" lon="5.98282">
        <ele>2229</ele>
        <time>2022-07-22T14:35:16.000Z</time>
      </trkpt>
      <trkpt lat="45.19566" lon="5.98313">
        <ele>2229</ele>
        <time>2022-07-22T14:35:26.000Z</time>
      </trkpt>
      <trkpt lat="45.1955" lon="5.98326">
        <ele>2224.2</ele>
        <time>2022-07-22T14:35:36.000Z</time>
      </trkpt>
      <trkpt lat="45.19541" lon="5.98386">
        <ele>2248</ele>
        <time>2022-07-22T14:35:46.000Z</time>
      </trkpt>
      <trkpt lat="45.19526" lon="5.98447">
        <ele>2260</ele>
        <time>2022-07-22T14:35:56.000Z</time>
      </trkpt>
      <trkpt lat="45.1956" lon="5.98465">
        <ele>2283</ele>
        <time>2022-07-22T14:36:06.000Z</time>
      </trkpt>
      <trkpt lat="45.19578" lon="5.98487">
        <ele>2300</ele>
        <time>2022-07-22T14:36:16.000Z</time>
      </trkpt>
      <trkpt lat="45.19573" lon="5.98496">
        <ele>2291.1</ele>
        <time>2022-07-22T14:36:26.000Z</time>
      </trkpt>
      <trkpt lat="45.19557" lon="5.98563">
        <ele>2310</ele>
        <time>2022-07-22T14:36:36.000Z</time>
      </trkpt>
      <trkpt lat="45.19561" lon="5.98585">
        <ele>2314.2</ele>
        <time>2022-07-22T14:36:46.000Z</time>
      </trkpt>
      <trkpt lat="45.19573" lon="5.98617">
        <ele>2335</ele>
        <time>2022-07-22T14:36:56.000Z</time>
      </trkpt>
      <trkpt lat="45.19585" lon="5.98647">
        <ele>2342</ele>
        <time>2022-07-22T14:37:06.000Z</time>
      </trkpt>
      <trkpt lat="45.19592" lon="5.9868">
        <ele>2343</ele>
        <time>2022-07-22T14:37:16.000Z</time>
      </trkpt>
      <trkpt lat="45.196" lon="5.98713">
        <ele>2364</ele>
        <time>2022-07-22T14:37:26.000Z</time>
      </trkpt>
      <trkpt lat="45.19606" lon="5.98746">
        <ele>2365</ele>
        <time>2022-07-22T14:37:36.000Z</time>
      </trkpt>
      <trkpt lat="45.19625" lon="5.98749">
        <ele>2365</ele>
        <time>2022-07-22T14:37:46.000Z</time>
      </trkpt>
      <trkpt lat="45.19651" lon="5.98743">
        <ele>2377</ele>
        <time>2022-07-22T14:37:56.000Z</time>
      </trkpt>
      <trkpt lat="45.19688" lon="5.98755">
        <ele>2394</ele>
        <time>2022-07-22T14:38:06.000Z</time>
      </trkpt>
      <trkpt lat="45.19722" lon="5.98801">
        <ele>2408</ele>
        <time>2022-07-22T14:38:16.000Z</time>
      </trkpt>
      <trkpt lat="45.19739" lon="5.98831">
        <ele>2423</ele>
        <time>2022-07-22T14:38:26.000Z</time>
      </trkpt>
      <trkpt lat="45.19745" lon="5.98865">
        <ele>2423</ele>
        <time>2022-07-22T14:38:36.000Z</time>
      </trkpt>
      <trkpt lat="45.19752" lon="5.98899">
        <ele>2422</ele>
        <time>2022-07-22T14:38:46.000Z</time>
      </trkpt>
      <trkpt lat="45.19756" lon="5.9895">
        <ele>2422</ele>
        <time>2022-07-22T14:38:56.000Z</time>
      </trkpt>
      <trkpt lat="45.19756" lon="5.98977">
        <ele>2417</ele>
        <time>2022-07-22T14:39:06.000Z</time>
      </trkpt>
      <trkpt lat="45.19757" lon="5.99002">
        <ele>2392.3</ele>
        <time>2022-07-22T14:39:16.000Z</time>
      </trkpt>
      <trkpt lat="45.19774" lon="5.9905">
        <ele>2418</ele>
        <time>2022-07-22T14:39:26.000Z</time>
      </trkpt>
      <trkpt lat="45.19777" lon="5.99075">
        <ele>2387.4</ele>
        <time>2022-07-22T14:39:36.000Z</time>
      </trkpt>
      <trkpt lat="45.19797" lon="5.99119">
        <ele>2406</ele>
        <time>2022-07-22T14:39:46.000Z</time>
      </trkpt>
      <trkpt lat="45.19822" lon="5.99128">
        <ele>2404</ele>
        <time>2022-07-22T14:39:56.000Z</time>
      </trkpt>
      <trkpt lat="45.1985" lon="5.99139">
        <ele>2402</ele>
        <time>2022-07-22T14:40:06.000Z</time>
      </trkpt>
      <trkpt lat="45.19874" lon="5.99191">
        <ele>2395</ele>
        <time>2022-07-22T14:40:16.000Z</time>
      </trkpt>
      <trkpt lat="45.19868" lon="5.99234">
        <ele>2390</ele>
        <time>2022-07-22T14:40:26.000Z</time>
      </trkpt>
      <trkpt lat="45.19852" lon="5.99252">
        <ele>2389</ele>
        <time>2022-07-22T14:40:36.000Z</time>
      </trkpt>
      <trkpt lat="45.19855" lon="5.99289">
        <ele>2385</ele>
        <time>2022-07-22T14:40:46.000Z</time>
      </trkpt>
      <trkpt lat="45.19859" lon="5.99333">
        <ele>2378</ele>
        <time>2022-07-22T14:40:56.000Z</time>
      </trkpt>
      <trkpt lat="45.19855" lon="5.99347">
        <ele>2349.6</ele>
        <time>2022-07-22T14:41:06.000Z</time>
      </trkpt>
      <trkpt lat="45.1986" lon="5.99359">
        <ele>2378</ele>
        <time>2022-07-22T14:41:16.000Z</time>
      </trkpt>
      <trkpt lat="45.19857" lon="5.99374">
        <ele>2346.4</ele>
        <time>2022-07-22T14:41:26.000Z</time>
      </trkpt>
      <trkpt lat="45.19879" lon="5.99438">
        <ele>2378</ele>
        <time>2022-07-22T14:41:36.000Z</time>
      </trkpt>
      <trkpt lat="45.19879" lon="5.99463">
        <ele>2341</ele>
        <time>2022-07-22T14:41:46.000Z</time>
      </trkpt>
      <trkpt lat="45.199" lon="5.99456">
        <ele>2378</ele>
        <time>2022-07-22T14:41:56.000Z</time>
      </trkpt>
      <trkpt lat="45.19921" lon="5.99436">
        <ele>2354</ele>
        <time>2022-07-22T14:42:06.000Z</time>
      </trkpt>
      <trkpt lat="45.19946" lon="5.99414">
        <ele>2360</ele>
        <time>2022-07-22T14:42:16.000Z</time>
      </trkpt>
      <trkpt lat="45.19962" lon="5.99424">
        <ele>2324</ele>
        <time>2022-07-22T14:42:26.000Z</time>
      </trkpt>
      <trkpt lat="45.1996" lon="5.99449">
        <ele>2362</ele>
        <time>2022-07-22T14:42:36.000Z</time>
      </trkpt>
      <trkpt lat="45.19972" lon="5.99485">
        <ele>2365</ele>
        <time>2022-07-22T14:42:46.000Z</time>
      </trkpt>
      <trkpt lat="45.19989" lon="5.99537">
        <ele>2384</ele>
        <time>2022-07-22T14:42:56.000Z</time>
      </trkpt>
      <trkpt lat="45.20009" lon="5.99559">
        <ele>2406</ele>
        <time>2022-07-22T14:43:06.000Z</time>
      </trkpt>
      <trkpt lat="45.20004" lon="5.9957">
        <ele>2393.9</ele>
        <time>2022-07-22T14:43:16.000Z</time>
      </trkpt>
      <trkpt lat="45.2001" lon="5.99581">
        <ele>2406</ele>
        <time>2022-07-22T14:43:26.000Z</time>
      </trkpt>
      <trkpt lat="45.2004" lon="5.99604">
        <ele>2429</ele>
        <time>2022-07-22T14:43:36.000Z</time>
      </trkpt>
      <trkpt lat="45.20053" lon="5.99645">
        <ele>2430</ele>
        <time>2022-07-22T14:43:46.000Z</time>
      </trkpt>
      <trkpt lat="45.20067" lon="5.99686">
        <ele>2431</ele>
        <time>2022-07-22T14:43:56.000Z</time>
      </trkpt>
      <trkpt lat="45.20081" lon="5.9973">
        <ele>2440</ele>
        <time>2022-07-22T14:44:06.000Z</time>
      </trkpt>
      <trkpt lat="45.20109" lon="5.99765">
        <ele>2450</ele>
        <time>2022-07-22T14:44:16.000Z</time>
      </trkpt>
      <trkpt lat="45.20124" lon="5.99793">
        <ele>2460</ele>
        <time>2022-07-22T14:44:26.000Z</time>
      </trkpt>
      <trkpt lat="45.2013" lon="5.99819">
        <ele>2475</ele>
        <time>2022-07-22T14:44:36.000Z</time>
      </trkpt>
      <trkpt lat="45.20131" lon="5.99857">
        <ele>2481</ele>
        <time>2022-07-22T14:44:46.000Z</time>
      </trkpt>
      <trkpt lat="45.20134" lon="5.99894">
        <ele>2484</ele>
        <time>2022-07-22T14:44:56.000Z</time>
      </trkpt>
      <trkpt lat="45.2014" lon="5.99939">
        <ele>2488</ele>
        <time>2022-07-22T14:45:06.000Z</time>
      </trkpt>
      <trkpt lat="45.20148" lon="5.99978">
        <ele>2481</ele>
        <time>2022-07-22T14:45:16.000Z</time>
      </trkpt>
      <trkpt lat="45.20164" lon="6.00021">
        <ele>2474</ele>
        <time>2022-07-22T14:45:26.000Z</time>
      </trkpt>
      <trkpt lat="45.20175" lon="6.00058">
        <ele>2462</ele>
        <time>2022-07-22T14:45:36.000Z</time>
      </trkpt>
      <trkpt lat="45.20186" lon="6.00092">
        <ele>2453</ele>
        <time>2022-07-22T14:45:46.000Z</time>
      </trkpt>
      <trkpt lat="45.202" lon="6.00134">
        <ele>2424</ele>
        <time>2022-07-22T14:45:56.000Z</time>
      </trkpt>
      <trkpt lat="45.20221" lon="6.00173">
        <ele>2404</ele>
        <time>2022-07-22T14:46:06.000Z</time>
      </trkpt>
      <trkpt lat="45.20227" lon="6.00198">
        <ele>2378.9</ele>
        <time>2022-07-22T14:46:16.000Z</time>
      </trkpt>
      <trkpt lat="45.20243" lon="6.00228">
        <ele>2385</ele>
        <time>2022-07-22T14:46:26.000Z</time>
      </trkpt>
      <trkpt lat="45.20257" lon="6.00249">
        <ele>2377</ele>
        <time>2022-07-22T14:46:36.000Z</time>
      </trkpt>
      <trkpt lat="45.2028" lon="6.00299">
        <ele>2358</ele>
        <time>2022-07-22T14:46:46.000Z</time>
      </trkpt>
      <trkpt lat="45.20297" lon="6.0034">
        <ele>2341</ele>
        <time>2022-07-22T14:46:56.000Z</time>
      </trkpt>
      <trkpt lat="45.20286" lon="6.00385">
        <ele>2321</ele>
        <time>2022-07-22T14:47:06.000Z</time>
      </trkpt>
      <trkpt lat="45.20299" lon="6.00392">
        <ele>2294.6</ele>
        <time>2022-07-22T14:47:16.000Z</time>
      </trkpt>
      <trkpt lat="45.20295" lon="6.00417">
        <ele>2310</ele>
        <time>2022-07-22T14:47:26.000Z</time>
      </trkpt>
      <trkpt lat="45.20303" lon="6.00447">
        <ele>2295</ele>
        <time>2022-07-22T14:47:36.000Z</time>
      </trkpt>
      <trkpt lat="45.20295" lon="6.00484">
        <ele>2294</ele>
        <time>2022-07-22T14:47:46.000Z</time>
      </trkpt>
      <trkpt lat="45.20285" lon="6.00534">
        <ele>2278</ele>
        <time>2022-07-22T14:47:56.000Z</time>
      </trkpt>
      <trkpt lat="45.20286" lon="6.00573">
        <ele>2262</ele>
        <time>2022-07-22T14:48:06.000Z</time>
      </trkpt>
      <trkpt lat="45.20283" lon="6.00597">
        <ele>2247.6</ele>
        <time>2022-07-22T14:48:16.000Z</time>
      </trkpt>
      <trkpt lat="45.20277" lon="6.00617">
        <ele>2255</ele>
        <time>2022-07-22T14:48:26.000Z</time>
      </trkpt>
      <trkpt lat="45.20267" lon="6.00657">
        <ele>2247</ele>
        <time>2022-07-22T14:48:36.000Z</time>
      </trkpt>
      <trkpt lat="45.20278" lon="6.00695">
        <ele>2240</ele>
        <time>2022-07-22T14:48:46.000Z</time>
      </trkpt>
      <trkpt lat="45.20297" lon="6.00742">
        <ele>2229</ele>
        <time>2022-07-22T14:48:56.000Z</time>
      </trkpt>
      <trkpt lat="45.20303" lon="6.00788">
        <ele>2228</ele>
        <time>2022-07-22T14:49:06.000Z</time>
      </trkpt>
      <trkpt lat="45.20305" lon="6.00831">
        <ele>2226</ele>
        <time>2022-07-22T14:49:16.000Z</time>
      </trkpt>
      <trkpt lat="45.20328" lon="6.00849">
        <ele>2224</ele>
        <time>2022-07-22T14:49:26.000Z</time>
      </trkpt>
      <trkpt lat="45.20347" lon="6.00835">
        <ele>2224</ele>
        <time>2022-07-22T14:49:36.000Z</time>
      </trkpt>
      <trkpt lat="45.20364" lon="6.00857">
        <ele>2212</ele>
        <time>2022-07-22T14:49:46.000Z</time>
      </trkpt>
      <trkpt lat="45.20357" lon="6.009">
        <ele>2198</ele>
        <time>2022-07-22T14:49:56.000Z</time>
      </trkpt>
      <trkpt lat="45.20375" lon="6.0095">
        <ele>2176</ele>
        <time>2022-07-22T14:50:06.000Z</time>
      </trkpt>
      <trkpt lat="45.20386" lon="6.00977">
        <ele>2171</ele>
        <time>2022-07-22T14:50:16.000Z</time>
      </trkpt>
      <trkpt lat="45.20388" lon="6.01013">
        <ele>2168</ele>
        <time>2022-07-22T14:50:26.000Z</time>
      </trkpt>
      <trkpt lat="45.2039" lon="6.01056">
        <ele>2161</ele>
        <time>2022-07-22T14:50:36.000Z</time>
      </trkpt>
      <trkpt lat="45.20393" lon="6.01098">
        <ele>2156</ele>
        <time>2022-07-22T14:50:46.000Z</time>
      </trkpt>
      <trkpt lat="45.20398" lon="6.01134">
        <ele>2144</ele>
        <time>2022-07-22T14:50:56.000Z</time>
      </trkpt>
      <trkpt lat="45.20403" lon="6.01176">
        <ele>2137</ele>
        <time>2022-07-22T14:51:06.000Z</time>
      </trkpt>
      <trkpt lat="45.20401" lon="6.01214">
        <ele>2117</ele>
        <time>2022-07-22T14:51:16.000Z</time>
      </trkpt>
      <trkpt lat="45.20402" lon="6.01243">
        <ele>2114</ele>
        <time>2022-07-22T14:51:26.000Z</time>
      </trkpt>
      <trkpt lat="45.20414" lon="6.01266">
        <ele>2111</ele>
        <time>2022-07-22T14:51:36.000Z</time>
      </trkpt>
      <trkpt lat="45.20428" lon="6.01322">
        <ele>2092</ele>
        <time>2022-07-22T14:51:46.000Z</time>
      </trkpt>
      <trkpt lat="45.20432" lon="6.01358">
        <ele>2088</ele>
        <time>2022-07-22T14:51:56.000Z</time>
      </trkpt>
      <trkpt lat="45.20437" lon="6.01403">
        <ele>2086</ele>
        <time>2022-07-22T14:52:06.000Z</time>
      </trkpt>
      <trkpt lat="45.20443" lon="6.01451">
        <ele>2072</ele>
        <time>2022-07-22T14:52:16.000Z</time>
      </trkpt>
      <trkpt lat="45.20457" lon="6.01464">
        <ele>2052</ele>
        <time>2022-07-22T14:52:26.000Z</time>
      </trkpt>
      <trkpt lat="45.20524" lon="6.0148">
        <ele>2064</ele>
        <time>2022-07-22T14:52:36.000Z</time>
      </trkpt>
      <trkpt lat="45.20535" lon="6.01471">
        <ele>2055.6</ele>
        <time>2022-07-22T14:52:46.000Z</time>
      </trkpt>
      <trkpt lat="45.20548" lon="6.01466">
        <ele>2064</ele>
        <time>2022-07-22T14:52:56.000Z</time>
      </trkpt>
      <trkpt lat="45.20572" lon="6.01472">
        <ele>2069</ele>
        <time>2022-07-22T14:53:06.000Z</time>
      </trkpt>
      <trkpt lat="45.20598" lon="6.0148">
        <ele>2069</ele>
        <time>2022-07-22T14:53:16.000Z</time>
      </trkpt>
      <trkpt lat="45.20609" lon="6.01498">
        <ele>2059.6</ele>
        <time>2022-07-22T14:53:26.000Z</time>
      </trkpt>
      <trkpt lat="45.20613" lon="6.01521">
        <ele>2066</ele>
        <time>2022-07-22T14:53:36.000Z</time>
      </trkpt>
      <trkpt lat="45.20604" lon="6.01569">
        <ele>2068</ele>
        <time>2022-07-22T14:53:46.000Z</time>
      </trkpt>
      <trkpt lat="45.20609" lon="6.01609">
        <ele>2071</ele>
        <time>2022-07-22T14:53:56.000Z</time>
      </trkpt>
      <trkpt lat="45.20617" lon="6.01671">
        <ele>2077</ele>
        <time>2022-07-22T14:54:06.000Z</time>
      </trkpt>
      <trkpt lat="45.20632" lon="6.01687">
        <ele>2083.3</ele>
        <time>2022-07-22T14:54:16.000Z</time>
      </trkpt>
      <trkpt lat="45.20641" lon="6.01723">
        <ele>2083</ele>
        <time>2022-07-22T14:54:26.000Z</time>
      </trkpt>
      <trkpt lat="45.20656" lon="6.01741">
        <ele>2084</ele>
        <time>2022-07-22T14:54:36.000Z</time>
      </trkpt>
      <trkpt lat="45.20667" lon="6.01776">
        <ele>2091</ele>
        <time>2022-07-22T14:54:46.000Z</time>
      </trkpt>
      <trkpt lat="45.20687" lon="6.01791">
        <ele>2091</ele>
        <time>2022-07-22T14:54:56.000Z</time>
      </trkpt>
      <trkpt lat="45.20708" lon="6.01819">
        <ele>2096</ele>
        <time>2022-07-22T14:55:06.000Z</time>
      </trkpt>
      <trkpt lat="45.2074" lon="6.0186">
        <ele>2109</ele>
        <time>2022-07-22T14:55:16.000Z</time>
      </trkpt>
      <trkpt lat="45.20764" lon="6.01871">
        <ele>2109</ele>
        <time>2022-07-22T14:55:26.000Z</time>
      </trkpt>
      <trkpt lat="45.20795" lon="6.01884">
        <ele>2106</ele>
        <time>2022-07-22T14:55:36.000Z</time>
      </trkpt>
      <trkpt lat="45.20823" lon="6.01905">
        <ele>2103</ele>
        <time>2022-07-22T14:55:46.000Z</time>
      </trkpt>
      <trkpt lat="45.20858" lon="6.01883">
        <ele>2100</ele>
        <time>2022-07-22T14:55:56.000Z</time>
      </trkpt>
      <trkpt lat="45.20888" lon="6.01913">
        <ele>2087</ele>
        <time>2022-07-22T14:56:06.000Z</time>
      </trkpt>
      <trkpt lat="45.20906" lon="6.01916">
        <ele>2065.6</ele>
        <time>2022-07-22T14:56:16.000Z</time>
      </trkpt>
      <trkpt lat="45.20925" lon="6.01917">
        <ele>2083</ele>
        <time>2022-07-22T14:56:26.000Z</time>
      </trkpt>
      <trkpt lat="45.20953" lon="6.01933">
        <ele>2074</ele>
        <time>2022-07-22T14:56:36.000Z</time>
      </trkpt>
      <trkpt lat="45.20978" lon="6.01944">
        <ele>2073</ele>
        <time>2022-07-22T14:56:46.000Z</time>
      </trkpt>
      <trkpt lat="45.21002" lon="6.01936">
        <ele>2072</ele>
        <time>2022-07-22T14:56:56.000Z</time>
      </trkpt>
      <trkpt lat="45.21027" lon="6.01943">
        <ele>2061</ele>
        <time>2022-07-22T14:57:06.000Z</time>
      </trkpt>
      <trkpt lat="45.21042" lon="6.01991">
        <ele>2032</ele>
        <time>2022-07-22T14:57:16.000Z</time>
      </trkpt>
      <trkpt lat="45.21059" lon="6.02028">
        <ele>2029</ele>
        <time>2022-07-22T14:57:26.000Z</time>
      </trkpt>
      <trkpt lat="45.21072" lon="6.02068">
        <ele>2028</ele>
        <time>2022-07-22T14:57:36.000Z</time>
      </trkpt>
      <trkpt lat="45.21097" lon="6.02142">
        <ele>2028</ele>
        <time>2022-07-22T14:57:46.000Z</time>
      </trkpt>
      <trkpt lat="45.21116" lon="6.02166">
        <ele>2028</ele>
        <time>2022-07-22T14:57:56.000Z</time>
      </trkpt>
      <trkpt lat="45.21138" lon="6.02195">
        <ele>2033</ele>
        <time>2022-07-22T14:58:06.000Z</time>
      </trkpt>
      <trkpt lat="45.21157" lon="6.02206">
        <ele>2033</ele>
        <time>2022-07-22T14:58:16.000Z</time>
      </trkpt>
      <trkpt lat="45.21167" lon="6.02205">
        <ele>2038.6</ele>
        <time>2022-07-22T14:58:26.000Z</time>
      </trkpt>
      <trkpt lat="45.21174" lon="6.02209">
        <ele>2041.2</ele>
        <time>2022-07-22T14:58:36.000Z</time>
      </trkpt>
      <trkpt lat="45.21186" lon="6.02214">
        <ele>2034</ele>
        <time>2022-07-22T14:58:46.000Z</time>
      </trkpt>
      <trkpt lat="45.2121" lon="6.02231">
        <ele>2049</ele>
        <time>2022-07-22T14:58:56.000Z</time>
      </trkpt>
      <trkpt lat="45.21225" lon="6.02267">
        <ele>2063</ele>
        <time>2022-07-22T14:59:06.000Z</time>
      </trkpt>
      <trkpt lat="45.2125" lon="6.02329">
        <ele>2064</ele>
        <time>2022-07-22T14:59:16.000Z</time>
      </trkpt>
      <trkpt lat="45.21257" lon="6.02363">
        <ele>2064</ele>
        <time>2022-07-22T14:59:26.000Z</time>
      </trkpt>
      <trkpt lat="45.21263" lon="6.02396">
        <ele>2064</ele>
        <time>2022-07-22T14:59:36.000Z</time>
      </trkpt>
      <trkpt lat="45.21282" lon="6.02426">
        <ele>2078</ele>
        <time>2022-07-22T14:59:46.000Z</time>
      </trkpt>
      <trkpt lat="45.21311" lon="6.02471">
        <ele>2090</ele>
        <time>2022-07-22T14:59:56.000Z</time>
      </trkpt>
      <trkpt lat="45.21331" lon="6.0249">
        <ele>2106</ele>
        <time>2022-07-22T15:00:06.000Z</time>
      </trkpt>
      <trkpt lat="45.21353" lon="6.0251">
        <ele>2106</ele>
        <time>2022-07-22T15:00:16.000Z</time>
      </trkpt>
      <trkpt lat="45.21361" lon="6.02506">
        <ele>2099.7</ele>
        <time>2022-07-22T15:00:26.000Z</time>
      </trkpt>
      <trkpt lat="45.21373" lon="6.02529">
        <ele>2107</ele>
        <time>2022-07-22T15:00:36.000Z</time>
      </trkpt>
      <trkpt lat="45.21368" lon="6.02537">
        <ele>2094</ele>
        <time>2022-07-22T15:00:46.000Z</time>
      </trkpt>
      <trkpt lat="45.21387" lon="6.02563">
        <ele>2106</ele>
        <time>2022-07-22T15:00:56.000Z</time>
      </trkpt>
      <trkpt lat="45.2143" lon="6.02576">
        <ele>2107</ele>
        <time>2022-07-22T15:01:06.000Z</time>
      </trkpt>
      <trkpt lat="45.21456" lon="6.02576">
        <ele>2109</ele>
        <time>2022-07-22T15:01:16.000Z</time>
      </trkpt>
      <trkpt lat="45.21472" lon="6.02597">
        <ele>2110</ele>
        <time>2022-07-22T15:01:26.000Z</time>
      </trkpt>
      <trkpt lat="45.21506" lon="6.02615">
        <ele>2110</ele>
        <time>2022-07-22T15:01:36.000Z</time>
      </trkpt>
      <trkpt lat="45.21519" lon="6.02666">
        <ele>2101</ele>
        <time>2022-07-22T15:01:46.000Z</time>
      </trkpt>
      <trkpt lat="45.21554" lon="6.02705">
        <ele>2096</ele>
        <time>2022-07-22T15:01:56.000Z</time>
      </trkpt>
      <trkpt lat="45.21546" lon="6.02717">
        <ele>2063.7</ele>
        <time>2022-07-22T15:02:06.000Z</time>
      </trkpt>
      <trkpt lat="45.2155" lon="6.02742">
        <ele>2074</ele>
        <time>2022-07-22T15:02:16.000Z</time>
      </trkpt>
      <trkpt lat="45.21556" lon="6.02741">
        <ele>2054.2</ele>
        <time>2022-07-22T15:02:26.000Z</time>
      </trkpt>
      <trkpt lat="45.2156" lon="6.02752">
        <ele>2050.7</ele>
        <time>2022-07-22T15:02:36.000Z</time>
      </trkpt>
      <trkpt lat="45.21567" lon="6.02747">
        <ele>2074</ele>
        <time>2022-07-22T15:02:46.000Z</time>
      </trkpt>
      <trkpt lat="45.21567" lon="6.02763">
        <ele>2046.7</ele>
        <time>2022-07-22T15:02:56.000Z</time>
      </trkpt>
      <trkpt lat="45.21581" lon="6.02766">
        <ele>2073</ele>
        <time>2022-07-22T15:03:06.000Z</time>
      </trkpt>
      <trkpt lat="45.21593" lon="6.02796">
        <ele>2062</ele>
        <time>2022-07-22T15:03:16.000Z</time>
      </trkpt>
      <trkpt lat="45.21607" lon="6.02829">
        <ele>2040</ele>
        <time>2022-07-22T15:03:26.000Z</time>
      </trkpt>
      <trkpt lat="45.21636" lon="6.02864">
        <ele>2034</ele>
        <time>2022-07-22T15:03:36.000Z</time>
      </trkpt>
      <trkpt lat="45.2166" lon="6.02866">
        <ele>2034</ele>
        <time>2022-07-22T15:03:46.000Z</time>
      </trkpt>
      <trkpt lat="45.21686" lon="6.02867">
        <ele>2034</ele>
        <time>2022-07-22T15:03:56.000Z</time>
      </trkpt>
      <trkpt lat="45.21712" lon="6.02885">
        <ele>2014</ele>
        <time>2022-07-22T15:04:06.000Z</time>
      </trkpt>
      <trkpt lat="45.21731" lon="6.02911">
        <ele>2010</ele>
        <time>2022-07-22T15:04:16.000Z</time>
      </trkpt>
      <trkpt lat="45.21756" lon="6.02943">
        <ele>2002</ele>
        <time>2022-07-22T15:04:26.000Z</time>
      </trkpt>
      <trkpt lat="45.2176" lon="6.02933">
        <ele>1985.5</ele>
        <time>2022-07-22T15:04:36.000Z</time>
      </trkpt>
      <trkpt lat="45.21776" lon="6.02939">
        <ele>2000</ele>
        <time>2022-07-22T15:04:46.000Z</time>
      </trkpt>
      <trkpt lat="45.21801" lon="6.02887">
        <ele>1999</ele>
        <time>2022-07-22T15:04:56.000Z</time>
      </trkpt>
      <trkpt lat="45.21797" lon="6.02867">
        <ele>1976</ele>
        <time>2022-07-22T15:05:06.000Z</time>
      </trkpt>
      <trkpt lat="45.21798" lon="6.02848">
        <ele>1993</ele>
        <time>2022-07-22T15:05:16.000Z</time>
      </trkpt>
      <trkpt lat="45.21807" lon="6.02818">
        <ele>1989</ele>
        <time>2022-07-22T15:05:26.000Z</time>
      </trkpt>
      <trkpt lat="45.21811" lon="6.02786">
        <ele>1986</ele>
        <time>2022-07-22T15:05:36.000Z</time>
      </trkpt>
      <trkpt lat="45.21823" lon="6.02773">
        <ele>1965.8</ele>
        <time>2022-07-22T15:05:46.000Z</time>
      </trkpt>
      <trkpt lat="45.21817" lon="6.02736">
        <ele>1977</ele>
        <time>2022-07-22T15:05:56.000Z</time>
      </trkpt>
      <trkpt lat="45.21826" lon="6.02696">
        <ele>1971</ele>
        <time>2022-07-22T15:06:06.000Z</time>
      </trkpt>
      <trkpt lat="45.21834" lon="6.02672">
        <ele>1951.8</ele>
        <time>2022-07-22T15:06:16.000Z</time>
      </trkpt>
      <trkpt lat="45.2184" lon="6.02659">
        <ele>1972</ele>
        <time>2022-07-22T15:06:26.000Z</time>
      </trkpt>
      <trkpt lat="45.2184" lon="6.02641">
        <ele>1954.4</ele>
        <time>2022-07-22T15:06:36.000Z</time>
      </trkpt>
      <trkpt lat="45.21841" lon="6.02624">
        <ele>1973</ele>
        <time>2022-07-22T15:06:46.000Z</time>
      </trkpt>
      <trkpt lat="45.21843" lon="6.02601">
        <ele>1953.2</ele>
        <time>2022-07-22T15:06:56.000Z</time>
      </trkpt>
      <trkpt lat="45.21845" lon="6.02585">
        <ele>1975</ele>
        <time>2022-07-22T15:07:06.000Z</time>
      </trkpt>
      <trkpt lat="45.21843" lon="6.02562">
        <ele>1948.3</ele>
        <time>2022-07-22T15:07:16.000Z</time>
      </trkpt>
      <trkpt lat="45.21841" lon="6.02548">
        <ele>1981</ele>
        <time>2022-07-22T15:07:26.000Z</time>
      </trkpt>
      <trkpt lat="45.21848" lon="6.0255">
        <ele>1941.7</ele>
        <time>2022-07-22T15:07:36.000Z</time>
      </trkpt>
      <trkpt lat="45.21846" lon="6.02536">
        <ele>1940.9</ele>
        <time>2022-07-22T15:07:46.000Z</time>
      </trkpt>
      <trkpt lat="45.21846" lon="6.02524">
        <ele>1981</ele>
        <time>2022-07-22T15:07:56.000Z</time>
      </trkpt>
      <trkpt lat="45.2185" lon="6.02518">
        <ele>1932.7</ele>
        <time>2022-07-22T15:08:06.000Z</time>
      </trkpt>
      <trkpt lat="45.21848" lon="6.02501">
        <ele>1930.9</ele>
        <time>2022-07-22T15:08:16.000Z</time>
      </trkpt>
      <trkpt lat="45.21848" lon="6.02483">
        <ele>1979</ele>
        <time>2022-07-22T15:08:26.000Z</time>
      </trkpt>
      <trkpt lat="45.21863" lon="6.0249">
        <ele>1912</ele>
        <time>2022-07-22T15:08:36.000Z</time>
      </trkpt>
      <trkpt lat="45.21875" lon="6.02502">
        <ele>1964</ele>
        <time>2022-07-22T15:08:46.000Z</time>
      </trkpt>
      <trkpt lat="45.21886" lon="6.0251">
        <ele>1903.9</ele>
        <time>2022-07-22T15:08:56.000Z</time>
      </trkpt>
      <trkpt lat="45.21901" lon="6.02529">
        <ele>1941</ele>
        <time>2022-07-22T15:09:06.000Z</time>
      </trkpt>
      <trkpt lat="45.21917" lon="6.02545">
        <ele>1937</ele>
        <time>2022-07-22T15:09:16.000Z</time>
      </trkpt>
      <trkpt lat="45.21914" lon="6.02532">
        <ele>1895.4</ele>
        <time>2022-07-22T15:09:26.000Z</time>
      </trkpt>
      <trkpt lat="45.2191" lon="6.02525">
        <ele>1895.4</ele>
        <time>2022-07-22T15:09:36.000Z</time>
      </trkpt>
      <trkpt lat="45.21904" lon="6.02492">
        <ele>1933</ele>
        <time>2022-07-22T15:09:46.000Z</time>
      </trkpt>
      <trkpt lat="45.21904" lon="6.02483">
        <ele>1886.6</ele>
        <time>2022-07-22T15:09:56.000Z</time>
      </trkpt>
      <trkpt lat="45.21899" lon="6.02461">
        <ele>1920</ele>
        <time>2022-07-22T15:10:06.000Z</time>
      </trkpt>
      <trkpt lat="45.21892" lon="6.02456">
        <ele>1882.7</ele>
        <time>2022-07-22T15:10:16.000Z</time>
      </trkpt>
      <trkpt lat="45.21883" lon="6.02439">
        <ele>1897</ele>
        <time>2022-07-22T15:10:26.000Z</time>
      </trkpt>
      <trkpt lat="45.21876" lon="6.02418">
        <ele>1878.9</ele>
        <time>2022-07-22T15:10:36.000Z</time>
      </trkpt>
      <trkpt lat="45.21882" lon="6.02409">
        <ele>1895</ele>
        <time>2022-07-22T15:10:46.000Z</time>
      </trkpt>
      <trkpt lat="45.21893" lon="6.02415">
        <ele>1868.6</ele>
        <time>2022-07-22T15:10:56.000Z</time>
      </trkpt>
      <trkpt lat="45.21912" lon="6.02436">
        <ele>1884</ele>
        <time>2022-07-22T15:11:06.000Z</time>
      </trkpt>
      <trkpt lat="45.21935" lon="6.02448">
        <ele>1873</ele>
        <time>2022-07-22T15:11:16.000Z</time>
      </trkpt>
      <trkpt lat="45.2195" lon="6.02459">
        <ele>1851.2</ele>
        <time>2022-07-22T15:11:26.000Z</time>
      </trkpt>
      <trkpt lat="45.21966" lon="6.02472">
        <ele>1860</ele>
        <time>2022-07-22T15:11:36.000Z</time>
      </trkpt>
      <trkpt lat="45.21989" lon="6.02488">
        <ele>1860</ele>
        <time>2022-07-22T15:11:46.000Z</time>
      </trkpt>
      <trkpt lat="45.22011" lon="6.02498">
        <ele>1854</ele>
        <time>2022-07-22T15:11:56.000Z</time>
      </trkpt>
      <trkpt lat="45.22012" lon="6.02488">
        <ele>1832.7</ele>
        <time>2022-07-22T15:12:06.000Z</time>
      </trkpt>
      <trkpt lat="45.22005" lon="6.02458">
        <ele>1838</ele>
        <time>2022-07-22T15:12:16.000Z</time>
      </trkpt>
      <trkpt lat="45.22015" lon="6.02452">
        <ele>1824.6</ele>
        <time>2022-07-22T15:12:26.000Z</time>
      </trkpt>
      <trkpt lat="45.22023" lon="6.02453">
        <ele>1822.4</ele>
        <time>2022-07-22T15:12:36.000Z</time>
      </trkpt>
      <trkpt lat="45.22036" lon="6.02472">
        <ele>1833</ele>
        <time>2022-07-22T15:12:46.000Z</time>
      </trkpt>
      <trkpt lat="45.2206" lon="6.02483">
        <ele>1825</ele>
        <time>2022-07-22T15:12:56.000Z</time>
      </trkpt>
      <trkpt lat="45.22075" lon="6.02496">
        <ele>1815.5</ele>
        <time>2022-07-22T15:13:06.000Z</time>
      </trkpt>
      <trkpt lat="45.22087" lon="6.02499">
        <ele>1822</ele>
        <time>2022-07-22T15:13:16.000Z</time>
      </trkpt>
      <trkpt lat="45.221" lon="6.02499">
        <ele>1807.7</ele>
        <time>2022-07-22T15:13:26.000Z</time>
      </trkpt>
      <trkpt lat="45.22086" lon="6.02463">
        <ele>1816</ele>
        <time>2022-07-22T15:13:36.000Z</time>
      </trkpt>
      <trkpt lat="45.22074" lon="6.02435">
        <ele>1801</ele>
        <time>2022-07-22T15:13:46.000Z</time>
      </trkpt>
      <trkpt lat="45.22077" lon="6.02425">
        <ele>1792.2</ele>
        <time>2022-07-22T15:13:56.000Z</time>
      </trkpt>
      <trkpt lat="45.22092" lon="6.02423">
        <ele>1801</ele>
        <time>2022-07-22T15:14:06.000Z</time>
      </trkpt>
      <trkpt lat="45.22102" lon="6.02424">
        <ele>1784.7</ele>
        <time>2022-07-22T15:14:16.000Z</time>
      </trkpt>
      <trkpt lat="45.221" lon="6.0239">
        <ele>1777</ele>
        <time>2022-07-22T15:14:26.000Z</time>
      </trkpt>
      <trkpt lat="45.22113" lon="6.02373">
        <ele>1772.9</ele>
        <time>2022-07-22T15:14:36.000Z</time>
      </trkpt>
      <trkpt lat="45.2213" lon="6.02355">
        <ele>1777</ele>
        <time>2022-07-22T15:14:46.000Z</time>
      </trkpt>
      <trkpt lat="45.22148" lon="6.02332">
        <ele>1766</ele>
        <time>2022-07-22T15:14:56.000Z</time>
      </trkpt>
      <trkpt lat="45.22165" lon="6.02316">
        <ele>1755</ele>
        <time>2022-07-22T15:15:06.000Z</time>
      </trkpt>
      <trkpt lat="45.22178" lon="6.02301">
        <ele>1747</ele>
        <time>2022-07-22T15:15:16.000Z</time>
      </trkpt>
      <trkpt lat="45.22191" lon="6.02281">
        <ele>1745</ele>
        <time>2022-07-22T15:15:26.000Z</time>
      </trkpt>
      <trkpt lat="45.22201" lon="6.02251">
        <ele>1745</ele>
        <time>2022-07-22T15:15:36.000Z</time>
      </trkpt>
      <trkpt lat="45.22208" lon="6.0222">
        <ele>1740</ele>
        <time>2022-07-22T15:15:46.000Z</time>
      </trkpt>
      <trkpt lat="45.22214" lon="6.02185">
        <ele>1725</ele>
        <time>2022-07-22T15:15:56.000Z</time>
      </trkpt>
      <trkpt lat="45.22233" lon="6.02173">
        <ele>1725</ele>
        <time>2022-07-22T15:16:06.000Z</time>
      </trkpt>
      <trkpt lat="45.22244" lon="6.02161">
        <ele>1725.1</ele>
        <time>2022-07-22T15:16:16.000Z</time>
      </trkpt>
      <trkpt lat="45.22262" lon="6.02173">
        <ele>1728</ele>
        <time>2022-07-22T15:16:26.000Z</time>
      </trkpt>
      <trkpt lat="45.22287" lon="6.02171">
        <ele>1734</ele>
        <time>2022-07-22T15:16:36.000Z</time>
      </trkpt>
      <trkpt lat="45.223" lon="6.02167">
        <ele>1732.5</ele>
        <time>2022-07-22T15:16:46.000Z</time>
      </trkpt>
      <trkpt lat="45.22322" lon="6.02158">
        <ele>1744</ele>
        <time>2022-07-22T15:16:56.000Z</time>
      </trkpt>
      <trkpt lat="45.2233" lon="6.0214">
        <ele>1730.8</ele>
        <time>2022-07-22T15:17:06.000Z</time>
      </trkpt>
      <trkpt lat="45.22338" lon="6.0212">
        <ele>1744</ele>
        <time>2022-07-22T15:17:16.000Z</time>
      </trkpt>
      <trkpt lat="45.22352" lon="6.02095">
        <ele>1747</ele>
        <time>2022-07-22T15:17:26.000Z</time>
      </trkpt>
      <trkpt lat="45.22363" lon="6.02104">
        <ele>1737.6</ele>
        <time>2022-07-22T15:17:36.000Z</time>
      </trkpt>
      <trkpt lat="45.22371" lon="6.02115">
        <ele>1750</ele>
        <time>2022-07-22T15:17:46.000Z</time>
      </trkpt>
      <trkpt lat="45.2238" lon="6.02143">
        <ele>1758</ele>
        <time>2022-07-22T15:17:56.000Z</time>
      </trkpt>
      <trkpt lat="45.22384" lon="6.0219">
        <ele>1759</ele>
        <time>2022-07-22T15:18:06.000Z</time>
      </trkpt>
      <trkpt lat="45.22394" lon="6.02249">
        <ele>1773</ele>
        <time>2022-07-22T15:18:16.000Z</time>
      </trkpt>
      <trkpt lat="45.22396" lon="6.02278">
        <ele>1776</ele>
        <time>2022-07-22T15:18:26.000Z</time>
      </trkpt>
      <trkpt lat="45.22408" lon="6.02316">
        <ele>1783</ele>
        <time>2022-07-22T15:18:36.000Z</time>
      </trkpt>
      <trkpt lat="45.22421" lon="6.02353">
        <ele>1800</ele>
        <time>2022-07-22T15:18:46.000Z</time>
      </trkpt>
      <trkpt lat="45.22443" lon="6.02379">
        <ele>1816</ele>
        <time>2022-07-22T15:18:56.000Z</time>
      </trkpt>
      <trkpt lat="45.22463" lon="6.0241">
        <ele>1834</ele>
        <time>2022-07-22T15:19:06.000Z</time>
      </trkpt>
      <trkpt lat="45.22496" lon="6.02434">
        <ele>1842</ele>
        <time>2022-07-22T15:19:16.000Z</time>
      </trkpt>
      <trkpt lat="45.2252" lon="6.02453">
        <ele>1850</ele>
        <time>2022-07-22T15:19:26.000Z</time>
      </trkpt>
      <trkpt lat="45.22554" lon="6.02475">
        <ele>1851</ele>
        <time>2022-07-22T15:19:36.000Z</time>
      </trkpt>
      <trkpt lat="45.22588" lon="6.02478">
        <ele>1856</ele>
        <time>2022-07-22T15:19:46.000Z</time>
      </trkpt>
      <trkpt lat="45.22622" lon="6.02489">
        <ele>1864</ele>
        <time>2022-07-22T15:19:56.000Z</time>
      </trkpt>
      <trkpt lat="45.2266" lon="6.02506">
        <ele>1868</ele>
        <time>2022-07-22T15:20:06.000Z</time>
      </trkpt>
      <trkpt lat="45.22685" lon="6.02505">
        <ele>1880</ele>
        <time>2022-07-22T15:20:16.000Z</time>
      </trkpt>
      <trkpt lat="45.2271" lon="6.02505">
        <ele>1892</ele>
        <time>2022-07-22T15:20:26.000Z</time>
      </trkpt>
      <trkpt lat="45.22728" lon="6.02512">
        <ele>1894.8</ele>
        <time>2022-07-22T15:20:36.000Z</time>
      </trkpt>
      <trkpt lat="45.22739" lon="6.02509">
        <ele>1905</ele>
        <time>2022-07-22T15:20:46.000Z</time>
      </trkpt>
      <trkpt lat="45.22765" lon="6.02524">
        <ele>1919</ele>
        <time>2022-07-22T15:20:56.000Z</time>
      </trkpt>
      <trkpt lat="45.22795" lon="6.02559">
        <ele>1925</ele>
        <time>2022-07-22T15:21:06.000Z</time>
      </trkpt>
      <trkpt lat="45.22821" lon="6.02602">
        <ele>1930</ele>
        <time>2022-07-22T15:21:16.000Z</time>
      </trkpt>
      <trkpt lat="45.22829" lon="6.0261">
        <ele>1919.3</ele>
        <time>2022-07-22T15:21:26.000Z</time>
      </trkpt>
      <trkpt lat="45.2284" lon="6.02616">
        <ele>1930</ele>
        <time>2022-07-22T15:21:36.000Z</time>
      </trkpt>
      <trkpt lat="45.22849" lon="6.02637">
        <ele>1926.4</ele>
        <time>2022-07-22T15:21:46.000Z</time>
      </trkpt>
      <trkpt lat="45.22848" lon="6.0265">
        <ele>1933</ele>
        <time>2022-07-22T15:21:56.000Z</time>
      </trkpt>
      <trkpt lat="45.22848" lon="6.02672">
        <ele>1931.4</ele>
        <time>2022-07-22T15:22:06.000Z</time>
      </trkpt>
      <trkpt lat="45.22845" lon="6.02696">
        <ele>1937</ele>
        <time>2022-07-22T15:22:16.000Z</time>
      </trkpt>
      <trkpt lat="45.22856" lon="6.02699">
        <ele>1943.7</ele>
        <time>2022-07-22T15:22:26.000Z</time>
      </trkpt>
      <trkpt lat="45.22846" lon="6.02727">
        <ele>1946</ele>
        <time>2022-07-22T15:22:36.000Z</time>
      </trkpt>
      <trkpt lat="45.22848" lon="6.02729">
        <ele>1951.4</ele>
        <time>2022-07-22T15:22:46.000Z</time>
      </trkpt>
      <trkpt lat="45.22848" lon="6.02738">
        <ele>1954</ele>
        <time>2022-07-22T15:22:56.000Z</time>
      </trkpt>
      <trkpt lat="45.22864" lon="6.02734">
        <ele>1957</ele>
        <time>2022-07-22T15:23:06.000Z</time>
      </trkpt>
      <trkpt lat="45.22884" lon="6.02726">
        <ele>1969</ele>
        <time>2022-07-22T15:23:16.000Z</time>
      </trkpt>
      <trkpt lat="45.22897" lon="6.02725">
        <ele>1970.4</ele>
        <time>2022-07-22T15:23:26.000Z</time>
      </trkpt>
      <trkpt lat="45.22911" lon="6.02719">
        <ele>1978</ele>
        <time>2022-07-22T15:23:36.000Z</time>
      </trkpt>
      <trkpt lat="45.22938" lon="6.02726">
        <ele>1978</ele>
        <time>2022-07-22T15:23:46.000Z</time>
      </trkpt>
      <trkpt lat="45.2295" lon="6.02721">
        <ele>1986.2</ele>
        <time>2022-07-22T15:23:56.000Z</time>
      </trkpt>
      <trkpt lat="45.22952" lon="6.02715">
        <ele>1985.3</ele>
        <time>2022-07-22T15:24:06.000Z</time>
      </trkpt>
      <trkpt lat="45.22964" lon="6.02705">
        <ele>1990</ele>
        <time>2022-07-22T15:24:16.000Z</time>
      </trkpt>
      <trkpt lat="45.22967" lon="6.02698">
        <ele>1987.4</ele>
        <time>2022-07-22T15:24:26.000Z</time>
      </trkpt>
      <trkpt lat="45.22972" lon="6.02691">
        <ele>1988.4</ele>
        <time>2022-07-22T15:24:36.000Z</time>
      </trkpt>
      <trkpt lat="45.22986" lon="6.02678">
        <ele>1990</ele>
        <time>2022-07-22T15:24:46.000Z</time>
      </trkpt>
      <trkpt lat="45.22987" lon="6.02669">
        <ele>1994.8</ele>
        <time>2022-07-22T15:24:56.000Z</time>
      </trkpt>
      <trkpt lat="45.22984" lon="6.02648">
        <ele>1996</ele>
        <time>2022-07-22T15:25:06.000Z</time>
      </trkpt>
      <trkpt lat="45.22977" lon="6.02628">
        <ele>1996.2</ele>
        <time>2022-07-22T15:25:16.000Z</time>
      </trkpt>
      <trkpt lat="45.22984" lon="6.02629">
        <ele>1999</ele>
        <time>2022-07-22T15:25:26.000Z</time>
      </trkpt>
      <trkpt lat="45.23" lon="6.02654">
        <ele>2007</ele>
        <time>2022-07-22T15:25:36.000Z</time>
      </trkpt>
      <trkpt lat="45.23002" lon="6.02662">
        <ele>2005.2</ele>
        <time>2022-07-22T15:25:46.000Z</time>
      </trkpt>
      <trkpt lat="45.23007" lon="6.02675">
        <ele>2007.4</ele>
        <time>2022-07-22T15:25:56.000Z</time>
      </trkpt>
      <trkpt lat="45.2301" lon="6.02681">
        <ele>2009</ele>
        <time>2022-07-22T15:26:06.000Z</time>
      </trkpt>
      <trkpt lat="45.23011" lon="6.02696">
        <ele>2009.9</ele>
        <time>2022-07-22T15:26:16.000Z</time>
      </trkpt>
      <trkpt lat="45.23018" lon="6.02683">
        <ele>2009</ele>
        <time>2022-07-22T15:26:26.000Z</time>
      </trkpt>
      <trkpt lat="45.23018" lon="6.02656">
        <ele>2011</ele>
        <time>2022-07-22T15:26:36.000Z</time>
      </trkpt>
      <trkpt lat="45.23012" lon="6.02629">
        <ele>2013</ele>
        <time>2022-07-22T15:26:46.000Z</time>
      </trkpt>
      <trkpt lat="45.23018" lon="6.02621">
        <ele>2020.5</ele>
        <time>2022-07-22T15:26:56.000Z</time>
      </trkpt>
      <trkpt lat="45.23022" lon="6.02605">
        <ele>2020</ele>
        <time>2022-07-22T15:27:06.000Z</time>
      </trkpt>
      <trkpt lat="45.23037" lon="6.0262">
        <ele>2030</ele>
        <time>2022-07-22T15:27:16.000Z</time>
      </trkpt>
      <trkpt lat="45.2304" lon="6.02632">
        <ele>2027</ele>
        <time>2022-07-22T15:27:26.000Z</time>
      </trkpt>
      <trkpt lat="45.2305" lon="6.02659">
        <ele>2027</ele>
        <time>2022-07-22T15:27:36.000Z</time>
      </trkpt>
      <trkpt lat="45.2306" lon="6.02657">
        <ele>2038.4</ele>
        <time>2022-07-22T15:27:46.000Z</time>
      </trkpt>
      <trkpt lat="45.23071" lon="6.0266">
        <ele>2052</ele>
        <time>2022-07-22T15:27:56.000Z</time>
      </trkpt>
      <trkpt lat="45.23076" lon="6.02689">
        <ele>2052</ele>
        <time>2022-07-22T15:28:06.000Z</time>
      </trkpt>
      <trkpt lat="45.23078" lon="6.02696">
        <ele>2045.4</ele>
        <time>2022-07-22T15:28:16.000Z</time>
      </trkpt>
      <trkpt lat="45.23079" lon="6.02712">
        <ele>2048.4</ele>
        <time>2022-07-22T15:28:26.000Z</time>
      </trkpt>
      <trkpt lat="45.23059" lon="6.02752">
        <ele>2054</ele>
        <time>2022-07-22T15:28:36.000Z</time>
      </trkpt>
      <trkpt lat="45.23065" lon="6.0275">
        <ele>2052.8</ele>
        <time>2022-07-22T15:28:46.000Z</time>
      </trkpt>
      <trkpt lat="45.23072" lon="6.02745">
        <ele>2054.6</ele>
        <time>2022-07-22T15:28:56.000Z</time>
      </trkpt>
      <trkpt lat="45.23089" lon="6.02727">
        <ele>2056</ele>
        <time>2022-07-22T15:29:06.000Z</time>
      </trkpt>
      <trkpt lat="45.23096" lon="6.02725">
        <ele>2059.8</ele>
        <time>2022-07-22T15:29:16.000Z</time>
      </trkpt>
      <trkpt lat="45.23097" lon="6.02729">
        <ele>2061.8</ele>
        <time>2022-07-22T15:29:26.000Z</time>
      </trkpt>
      <trkpt lat="45.23071" lon="6.02789">
        <ele>2071</ele>
        <time>2022-07-22T15:29:36.000Z</time>
      </trkpt>
      <trkpt lat="45.23064" lon="6.02802">
        <ele>2072.2</ele>
        <time>2022-07-22T15:29:46.000Z</time>
      </trkpt>
      <trkpt lat="45.23069" lon="6.02801">
        <ele>2074.5</ele>
        <time>2022-07-22T15:29:56.000Z</time>
      </trkpt>
      <trkpt lat="45.23061" lon="6.02823">
        <ele>2075</ele>
        <time>2022-07-22T15:30:06.000Z</time>
      </trkpt>
      <trkpt lat="45.23071" lon="6.02813">
        <ele>2080</ele>
        <time>2022-07-22T15:30:16.000Z</time>
      </trkpt>
      <trkpt lat="45.23059" lon="6.0284">
        <ele>2075</ele>
        <time>2022-07-22T15:30:26.000Z</time>
      </trkpt>
      <trkpt lat="45.23052" lon="6.02866">
        <ele>2084</ele>
        <time>2022-07-22T15:30:36.000Z</time>
      </trkpt>
      <trkpt lat="45.23052" lon="6.02874">
        <ele>2085.4</ele>
        <time>2022-07-22T15:30:46.000Z</time>
      </trkpt>
      <trkpt lat="45.23067" lon="6.02869">
        <ele>2084</ele>
        <time>2022-07-22T15:30:56.000Z</time>
      </trkpt>
      <trkpt lat="45.23081" lon="6.02869">
        <ele>2093.5</ele>
        <time>2022-07-22T15:31:06.000Z</time>
      </trkpt>
      <trkpt lat="45.23096" lon="6.02871">
        <ele>2092</ele>
        <time>2022-07-22T15:31:16.000Z</time>
      </trkpt>
      <trkpt lat="45.23112" lon="6.02878">
        <ele>2101.4</ele>
        <time>2022-07-22T15:31:26.000Z</time>
      </trkpt>
      <trkpt lat="45.23128" lon="6.02884">
        <ele>2107</ele>
        <time>2022-07-22T15:31:36.000Z</time>
      </trkpt>
      <trkpt lat="45.23169" lon="6.02879">
        <ele>2118</ele>
        <time>2022-07-22T15:31:46.000Z</time>
      </trkpt>
      <trkpt lat="45.23186" lon="6.02873">
        <ele>2123.6</ele>
        <time>2022-07-22T15:31:56.000Z</time>
      </trkpt>
      <trkpt lat="45.23204" lon="6.02865">
        <ele>2116</ele>
        <time>2022-07-22T15:32:06.000Z</time>
      </trkpt>
      <trkpt lat="45.23202" lon="6.02857">
        <ele>2132.9</ele>
        <time>2022-07-22T15:32:16.000Z</time>
      </trkpt>
      <trkpt lat="45.23196" lon="6.02847">
        <ele>2134.4</ele>
        <time>2022-07-22T15:32:26.000Z</time>
      </trkpt>
      <trkpt lat="45.2319" lon="6.02839">
        <ele>2127</ele>
        <time>2022-07-22T15:32:36.000Z</time>
      </trkpt>
      <trkpt lat="45.2322" lon="6.02834">
        <ele>2138</ele>
        <time>2022-07-22T15:32:46.000Z</time>
      </trkpt>
      <trkpt lat="45.23238" lon="6.02843">
        <ele>2138</ele>
        <time>2022-07-22T15:32:56.000Z</time>
      </trkpt>
      <trkpt lat="45.23256" lon="6.0285">
        <ele>2149.3</ele>
        <time>2022-07-22T15:33:06.000Z</time>
      </trkpt>
      <trkpt lat="45.23266" lon="6.0286">
        <ele>2153</ele>
        <time>2022-07-22T15:33:16.000Z</time>
      </trkpt>
      <trkpt lat="45.23281" lon="6.02863">
        <ele>2152.9</ele>
        <time>2022-07-22T15:33:26.000Z</time>
      </trkpt>
      <trkpt lat="45.23295" lon="6.02873">
        <ele>2166</ele>
        <time>2022-07-22T15:33:36.000Z</time>
      </trkpt>
      <trkpt lat="45.23309" lon="6.02885">
        <ele>2155</ele>
        <time>2022-07-22T15:33:46.000Z</time>
      </trkpt>
      <trkpt lat="45.23326" lon="6.02895">
        <ele>2173</ele>
        <time>2022-07-22T15:33:56.000Z</time>
      </trkpt>
      <trkpt lat="45.23355" lon="6.02868">
        <ele>2179</ele>
        <time>2022-07-22T15:34:06.000Z</time>
      </trkpt>
      <trkpt lat="45.23358" lon="6.02851">
        <ele>2158.4</ele>
        <time>2022-07-22T15:34:16.000Z</time>
      </trkpt>
      <trkpt lat="45.23371" lon="6.0285">
        <ele>2179</ele>
        <time>2022-07-22T15:34:26.000Z</time>
      </trkpt>
      <trkpt lat="45.23387" lon="6.02856">
        <ele>2158.8</ele>
        <time>2022-07-22T15:34:36.000Z</time>
      </trkpt>
      <trkpt lat="45.23401" lon="6.02866">
        <ele>2173</ele>
        <time>2022-07-22T15:34:46.000Z</time>
      </trkpt>
      <trkpt lat="45.23417" lon="6.02865">
        <ele>2154</ele>
        <time>2022-07-22T15:34:56.000Z</time>
      </trkpt>
      <trkpt lat="45.23432" lon="6.02868">
        <ele>2171</ele>
        <time>2022-07-22T15:35:06.000Z</time>
      </trkpt>
      <trkpt lat="45.23441" lon="6.02876">
        <ele>2156.6</ele>
        <time>2022-07-22T15:35:16.000Z</time>
      </trkpt>
      <trkpt lat="45.23441" lon="6.02885">
        <ele>2156</ele>
        <time>2022-07-22T15:35:26.000Z</time>
      </trkpt>
      <trkpt lat="45.23428" lon="6.02912">
        <ele>2172</ele>
        <time>2022-07-22T15:35:36.000Z</time>
      </trkpt>
      <trkpt lat="45.23429" lon="6.02921">
        <ele>2158.2</ele>
        <time>2022-07-22T15:35:46.000Z</time>
      </trkpt>
      <trkpt lat="45.23436" lon="6.02925">
        <ele>2159.8</ele>
        <time>2022-07-22T15:35:56.000Z</time>
      </trkpt>
      <trkpt lat="45.23468" lon="6.02925">
        <ele>2173</ele>
        <time>2022-07-22T15:36:06.000Z</time>
      </trkpt>
      <trkpt lat="45.23483" lon="6.02936">
        <ele>2168.6</ele>
        <time>2022-07-22T15:36:16.000Z</time>
      </trkpt>
      <trkpt lat="45.23499" lon="6.02951">
        <ele>2183</ele>
        <time>2022-07-22T15:36:26.000Z</time>
      </trkpt>
      <trkpt lat="45.23518" lon="6.02963">
        <ele>2182</ele>
        <time>2022-07-22T15:36:36.000Z</time>
      </trkpt>
      <trkpt lat="45.23538" lon="6.02972">
        <ele>2182</ele>
        <time>2022-07-22T15:36:46.000Z</time>
      </trkpt>
      <trkpt lat="45.23558" lon="6.02985">
        <ele>2186</ele>
        <time>2022-07-22T15:36:56.000Z</time>
      </trkpt>
      <trkpt lat="45.23576" lon="6.03003">
        <ele>2193</ele>
        <time>2022-07-22T15:37:06.000Z</time>
      </trkpt>
      <trkpt lat="45.23616" lon="6.0302">
        <ele>2199</ele>
        <time>2022-07-22T15:37:16.000Z</time>
      </trkpt>
      <trkpt lat="45.23643" lon="6.03028">
        <ele>2212</ele>
        <time>2022-07-22T15:37:26.000Z</time>
      </trkpt>
      <trkpt lat="45.23683" lon="6.03039">
        <ele>2222</ele>
        <time>2022-07-22T15:37:36.000Z</time>
      </trkpt>
      <trkpt lat="45.237" lon="6.03036">
        <ele>2214.3</ele>
        <time>2022-07-22T15:37:46.000Z</time>
      </trkpt>
      <trkpt lat="45.23712" lon="6.0304">
        <ele>2234</ele>
        <time>2022-07-22T15:37:56.000Z</time>
      </trkpt>
      <trkpt lat="45.2371" lon="6.03031">
        <ele>2220.1</ele>
        <time>2022-07-22T15:38:06.000Z</time>
      </trkpt>
      <trkpt lat="45.23729" lon="6.03003">
        <ele>2238</ele>
        <time>2022-07-22T15:38:16.000Z</time>
      </trkpt>
      <trkpt lat="45.23746" lon="6.03026">
        <ele>2246</ele>
        <time>2022-07-22T15:38:26.000Z</time>
      </trkpt>
      <trkpt lat="45.23748" lon="6.02974">
        <ele>2265</ele>
        <time>2022-07-22T15:38:36.000Z</time>
      </trkpt>
      <trkpt lat="45.23758" lon="6.02972">
        <ele>2262.1</ele>
        <time>2022-07-22T15:38:46.000Z</time>
      </trkpt>
      <trkpt lat="45.23761" lon="6.02978">
        <ele>2262.3</ele>
        <time>2022-07-22T15:38:56.000Z</time>
      </trkpt>
      <trkpt lat="45.23758" lon="6.02963">
        <ele>2265</ele>
        <time>2022-07-22T15:39:06.000Z</time>
      </trkpt>
      <trkpt lat="45.23761" lon="6.02956">
        <ele>2268.2</ele>
        <time>2022-07-22T15:39:16.000Z</time>
      </trkpt>
      <trkpt lat="45.2378" lon="6.02969">
        <ele>2282</ele>
        <time>2022-07-22T15:39:26.000Z</time>
      </trkpt>
      <trkpt lat="45.23789" lon="6.02976">
        <ele>2278.3</ele>
        <time>2022-07-22T15:39:36.000Z</time>
      </trkpt>
      <trkpt lat="45.23791" lon="6.02967">
        <ele>2281.5</ele>
        <time>2022-07-22T15:39:46.000Z</time>
      </trkpt>
      <trkpt lat="45.23792" lon="6.02953">
        <ele>2291</ele>
        <time>2022-07-22T15:39:56.000Z</time>
      </trkpt>
      <trkpt lat="45.23799" lon="6.02955">
        <ele>2289.5</ele>
        <time>2022-07-22T15:40:06.000Z</time>
      </trkpt>
      <trkpt lat="45.23802" lon="6.02955">
        <ele>2291.2</ele>
        <time>2022-07-22T15:40:16.000Z</time>
      </trkpt>
      <trkpt lat="45.238" lon="6.0295">
        <ele>2291.4</ele>
        <time>2022-07-22T15:40:26.000Z</time>
      </trkpt>
      <trkpt lat="45.23799" lon="6.02939">
        <ele>2300</ele>
        <time>2022-07-22T15:40:36.000Z</time>
      </trkpt>
      <trkpt lat="45.23812" lon="6.02944">
        <ele>2300.1</ele>
        <time>2022-07-22T15:40:46.000Z</time>
      </trkpt>
      <trkpt lat="45.23816" lon="6.02938">
        <ele>2316</ele>
        <time>2022-07-22T15:40:56.000Z</time>
      </trkpt>
      <trkpt lat="45.23816" lon="6.02908">
        <ele>2323</ele>
        <time>2022-07-22T15:41:06.000Z</time>
      </trkpt>
      <trkpt lat="45.23831" lon="6.02906">
        <ele>2321.3</ele>
        <time>2022-07-22T15:41:16.000Z</time>
      </trkpt>
      <trkpt lat="45.23846" lon="6.02892">
        <ele>2345</ele>
        <time>2022-07-22T15:41:26.000Z</time>
      </trkpt>
      <trkpt lat="45.23837" lon="6.02881">
        <ele>2332.8</ele>
        <time>2022-07-22T15:41:36.000Z</time>
      </trkpt>
      <trkpt lat="45.2383" lon="6.02864">
        <ele>2356</ele>
        <time>2022-07-22T15:41:46.000Z</time>
      </trkpt>
      <trkpt lat="45.23826" lon="6.02848">
        <ele>2340.6</ele>
        <time>2022-07-22T15:41:56.000Z</time>
      </trkpt>
      <trkpt lat="45.23834" lon="6.02846">
        <ele>2368</ele>
        <time>2022-07-22T15:42:06.000Z</time>
      </trkpt>
      <trkpt lat="45.23853" lon="6.02854">
        <ele>2373</ele>
        <time>2022-07-22T15:42:16.000Z</time>
      </trkpt>
      <trkpt lat="45.23863" lon="6.02857">
        <ele>2351.5</ele>
        <time>2022-07-22T15:42:26.000Z</time>
      </trkpt>
      <trkpt lat="45.23869" lon="6.02855">
        <ele>2355.4</ele>
        <time>2022-07-22T15:42:36.000Z</time>
      </trkpt>
      <trkpt lat="45.23867" lon="6.02842">
        <ele>2382</ele>
        <time>2022-07-22T15:42:46.000Z</time>
      </trkpt>
      <trkpt lat="45.23874" lon="6.02841">
        <ele>2361.6</ele>
        <time>2022-07-22T15:42:56.000Z</time>
      </trkpt>
      <trkpt lat="45.2388" lon="6.02835">
        <ele>2365.4</ele>
        <time>2022-07-22T15:43:06.000Z</time>
      </trkpt>
      <trkpt lat="45.23887" lon="6.02835">
        <ele>2390</ele>
        <time>2022-07-22T15:43:16.000Z</time>
      </trkpt>
      <trkpt lat="45.23895" lon="6.02838">
        <ele>2370</ele>
        <time>2022-07-22T15:43:26.000Z</time>
      </trkpt>
      <trkpt lat="45.23896" lon="6.02829">
        <ele>2371.1</ele>
        <time>2022-07-22T15:43:36.000Z</time>
      </trkpt>
      <trkpt lat="45.239" lon="6.02826">
        <ele>2390</ele>
        <time>2022-07-22T15:43:46.000Z</time>
      </trkpt>
      <trkpt lat="45.23907" lon="6.02841">
        <ele>2373.6</ele>
        <time>2022-07-22T15:43:56.000Z</time>
      </trkpt>
      <trkpt lat="45.23908" lon="6.02866">
        <ele>2395</ele>
        <time>2022-07-22T15:44:06.000Z</time>
      </trkpt>
      <trkpt lat="45.23928" lon="6.02898">
        <ele>2401</ele>
        <time>2022-07-22T15:44:16.000Z</time>
      </trkpt>
      <trkpt lat="45.23945" lon="6.0292">
        <ele>2405</ele>
        <time>2022-07-22T15:44:26.000Z</time>
      </trkpt>
      <trkpt lat="45.23952" lon="6.02942">
        <ele>2396.1</ele>
        <time>2022-07-22T15:44:36.000Z</time>
      </trkpt>
      <trkpt lat="45.23952" lon="6.02967">
        <ele>2416</ele>
        <time>2022-07-22T15:44:46.000Z</time>
      </trkpt>
      <trkpt lat="45.23965" lon="6.0299">
        <ele>2420</ele>
        <time>2022-07-22T15:44:56.000Z</time>
      </trkpt>
      <trkpt lat="45.2397" lon="6.03008">
        <ele>2409</ele>
        <time>2022-07-22T15:45:06.000Z</time>
      </trkpt>
      <trkpt lat="45.23976" lon="6.03025">
        <ele>2426</ele>
        <time>2022-07-22T15:45:16.000Z</time>
      </trkpt>
      <trkpt lat="45.23985" lon="6.03043">
        <ele>2411.6</ele>
        <time>2022-07-22T15:45:26.000Z</time>
      </trkpt>
      <trkpt lat="45.23998" lon="6.03079">
        <ele>2436</ele>
        <time>2022-07-22T15:45:36.000Z</time>
      </trkpt>
      <trkpt lat="45.24006" lon="6.03095">
        <ele>2420.5</ele>
        <time>2022-07-22T15:45:46.000Z</time>
      </trkpt>
      <trkpt lat="45.24018" lon="6.03111">
        <ele>2437</ele>
        <time>2022-07-22T15:45:56.000Z</time>
      </trkpt>
      <trkpt lat="45.24049" lon="6.03144">
        <ele>2448</ele>
        <time>2022-07-22T15:46:06.000Z</time>
      </trkpt>
      <trkpt lat="45.24062" lon="6.03165">
        <ele>2453</ele>
        <time>2022-07-22T15:46:16.000Z</time>
      </trkpt>
      <trkpt lat="45.24074" lon="6.03192">
        <ele>2453</ele>
        <time>2022-07-22T15:46:26.000Z</time>
      </trkpt>
      <trkpt lat="45.24087" lon="6.03214">
        <ele>2460</ele>
        <time>2022-07-22T15:46:36.000Z</time>
      </trkpt>
      <trkpt lat="45.24101" lon="6.03234">
        <ele>2460</ele>
        <time>2022-07-22T15:46:46.000Z</time>
      </trkpt>
      <trkpt lat="45.2412" lon="6.03254">
        <ele>2461</ele>
        <time>2022-07-22T15:46:56.000Z</time>
      </trkpt>
      <trkpt lat="45.24142" lon="6.03279">
        <ele>2467</ele>
        <time>2022-07-22T15:47:06.000Z</time>
      </trkpt>
      <trkpt lat="45.24154" lon="6.03306">
        <ele>2471</ele>
        <time>2022-07-22T15:47:16.000Z</time>
      </trkpt>
      <trkpt lat="45.24131" lon="6.03337">
        <ele>2469</ele>
        <time>2022-07-22T15:47:26.000Z</time>
      </trkpt>
      <trkpt lat="45.24111" lon="6.03367">
        <ele>2468</ele>
        <time>2022-07-22T15:47:36.000Z</time>
      </trkpt>
      <trkpt lat="45.24107" lon="6.03385">
        <ele>2459.9</ele>
        <time>2022-07-22T15:47:46.000Z</time>
      </trkpt>
      <trkpt lat="45.24086" lon="6.0342">
        <ele>2465</ele>
        <time>2022-07-22T15:47:56.000Z</time>
      </trkpt>
      <trkpt lat="45.24082" lon="6.03463">
        <ele>2464</ele>
        <time>2022-07-22T15:48:06.000Z</time>
      </trkpt>
      <trkpt lat="45.24072" lon="6.03496">
        <ele>2463</ele>
        <time>2022-07-22T15:48:16.000Z</time>
      </trkpt>
      <trkpt lat="45.2406" lon="6.03533">
        <ele>2460</ele>
        <time>2022-07-22T15:48:26.000Z</time>
      </trkpt>
      <trkpt lat="45.24042" lon="6.03546">
        <ele>2471</ele>
        <time>2022-07-22T15:48:36.000Z</time>
      </trkpt>
      <trkpt lat="45.24035" lon="6.03571">
        <ele>2471.1</ele>
        <time>2022-07-22T15:48:46.000Z</time>
      </trkpt>
      <trkpt lat="45.24027" lon="6.03618">
        <ele>2482</ele>
        <time>2022-07-22T15:48:56.000Z</time>
      </trkpt>
      <trkpt lat="45.24014" lon="6.0366">
        <ele>2505</ele>
        <time>2022-07-22T15:49:06.000Z</time>
      </trkpt>
      <trkpt lat="45.23995" lon="6.0369">
        <ele>2522</ele>
        <time>2022-07-22T15:49:16.000Z</time>
      </trkpt>
      <trkpt lat="45.23985" lon="6.03712">
        <ele>2530.8</ele>
        <time>2022-07-22T15:49:26.000Z</time>
      </trkpt>
      <trkpt lat="45.23979" lon="6.03736">
        <ele>2527</ele>
        <time>2022-07-22T15:49:36.000Z</time>
      </trkpt>
      <trkpt lat="45.23971" lon="6.03786">
        <ele>2531</ele>
        <time>2022-07-22T15:49:46.000Z</time>
      </trkpt>
      <trkpt lat="45.23955" lon="6.03845">
        <ele>2535</ele>
        <time>2022-07-22T15:49:56.000Z</time>
      </trkpt>
      <trkpt lat="45.23947" lon="6.03882">
        <ele>2550</ele>
        <time>2022-07-22T15:50:06.000Z</time>
      </trkpt>
      <trkpt lat="45.23938" lon="6.03912">
        <ele>2550</ele>
        <time>2022-07-22T15:50:16.000Z</time>
      </trkpt>
      <trkpt lat="45.23923" lon="6.0395">
        <ele>2561</ele>
        <time>2022-07-22T15:50:26.000Z</time>
      </trkpt>
      <trkpt lat="45.23921" lon="6.03961">
        <ele>2564.3</ele>
        <time>2022-07-22T15:50:36.000Z</time>
      </trkpt>
      <trkpt lat="45.23912" lon="6.03986">
        <ele>2580</ele>
        <time>2022-07-22T15:50:46.000Z</time>
      </trkpt>
      <trkpt lat="45.23894" lon="6.04011">
        <ele>2593</ele>
        <time>2022-07-22T15:50:56.000Z</time>
      </trkpt>
      <trkpt lat="45.2388" lon="6.04036">
        <ele>2606</ele>
        <time>2022-07-22T15:51:06.000Z</time>
      </trkpt>
      <trkpt lat="45.23873" lon="6.04047">
        <ele>2603.3</ele>
        <time>2022-07-22T15:51:16.000Z</time>
      </trkpt>
      <trkpt lat="45.23863" lon="6.04069">
        <ele>2606</ele>
        <time>2022-07-22T15:51:26.000Z</time>
      </trkpt>
      <trkpt lat="45.23886" lon="6.04087">
        <ele>2613</ele>
        <time>2022-07-22T15:51:36.000Z</time>
      </trkpt>
      <trkpt lat="45.23896" lon="6.0412">
        <ele>2613</ele>
        <time>2022-07-22T15:51:46.000Z</time>
      </trkpt>
      <trkpt lat="45.23907" lon="6.04156">
        <ele>2606</ele>
        <time>2022-07-22T15:51:56.000Z</time>
      </trkpt>
      <trkpt lat="45.23902" lon="6.04183">
        <ele>2601</ele>
        <time>2022-07-22T15:52:06.000Z</time>
      </trkpt>
      <trkpt lat="45.23907" lon="6.04221">
        <ele>2591</ele>
        <time>2022-07-22T15:52:16.000Z</time>
      </trkpt>
      <trkpt lat="45.23901" lon="6.04286">
        <ele>2590</ele>
        <time>2022-07-22T15:52:26.000Z</time>
      </trkpt>
      <trkpt lat="45.23893" lon="6.04345">
        <ele>2581</ele>
        <time>2022-07-22T15:52:36.000Z</time>
      </trkpt>
      <trkpt lat="45.23887" lon="6.04384">
        <ele>2572</ele>
        <time>2022-07-22T15:52:46.000Z</time>
      </trkpt>
      <trkpt lat="45.23878" lon="6.04435">
        <ele>2551</ele>
        <time>2022-07-22T15:52:56.000Z</time>
      </trkpt>
      <trkpt lat="45.23858" lon="6.04463">
        <ele>2539</ele>
        <time>2022-07-22T15:53:06.000Z</time>
      </trkpt>
      <trkpt lat="45.23845" lon="6.04497">
        <ele>2536</ele>
        <time>2022-07-22T15:53:16.000Z</time>
      </trkpt>
      <trkpt lat="45.23839" lon="6.04532">
        <ele>2534</ele>
        <time>2022-07-22T15:53:26.000Z</time>
      </trkpt>
      <trkpt lat="45.23833" lon="6.0457">
        <ele>2534</ele>
        <time>2022-07-22T15:53:36.000Z</time>
      </trkpt>
      <trkpt lat="45.23821" lon="6.04605">
        <ele>2538</ele>
        <time>2022-07-22T15:53:46.000Z</time>
      </trkpt>
      <trkpt lat="45.23793" lon="6.04645">
        <ele>2540</ele>
        <time>2022-07-22T15:53:56.000Z</time>
      </trkpt>
      <trkpt lat="45.23779" lon="6.04679">
        <ele>2562</ele>
        <time>2022-07-22T15:54:06.000Z</time>
      </trkpt>
      <trkpt lat="45.23757" lon="6.04703">
        <ele>2587</ele>
        <time>2022-07-22T15:54:16.000Z</time>
      </trkpt>
      <trkpt lat="45.23732" lon="6.04741">
        <ele>2612</ele>
        <time>2022-07-22T15:54:26.000Z</time>
      </trkpt>
      <trkpt lat="45.23712" lon="6.04786">
        <ele>2625</ele>
        <time>2022-07-22T15:54:36.000Z</time>
      </trkpt>
      <trkpt lat="45.23696" lon="6.04833">
        <ele>2636</ele>
        <time>2022-07-22T15:54:46.000Z</time>
      </trkpt>
      <trkpt lat="45.23682" lon="6.04887">
        <ele>2658</ele>
        <time>2022-07-22T15:54:56.000Z</time>
      </trkpt>
      <trkpt lat="45.2367" lon="6.04946">
        <ele>2671</ele>
        <time>2022-07-22T15:55:06.000Z</time>
      </trkpt>
      <trkpt lat="45.23669" lon="6.05002">
        <ele>2683</ele>
        <time>2022-07-22T15:55:16.000Z</time>
      </trkpt>
      <trkpt lat="45.2367" lon="6.0506">
        <ele>2686</ele>
        <time>2022-07-22T15:55:26.000Z</time>
      </trkpt>
      <trkpt lat="45.23675" lon="6.05116">
        <ele>2686</ele>
        <time>2022-07-22T15:55:36.000Z</time>
      </trkpt>
      <trkpt lat="45.23683" lon="6.05179">
        <ele>2681</ele>
        <time>2022-07-22T15:55:46.000Z</time>
      </trkpt>
      <trkpt lat="45.23686" lon="6.05215">
        <ele>2679</ele>
        <time>2022-07-22T15:55:56.000Z</time>
      </trkpt>
      <trkpt lat="45.2369" lon="6.05257">
        <ele>2689</ele>
        <time>2022-07-22T15:56:06.000Z</time>
      </trkpt>
      <trkpt lat="45.23699" lon="6.0532">
        <ele>2699</ele>
        <time>2022-07-22T15:56:16.000Z</time>
      </trkpt>
      <trkpt lat="45.23696" lon="6.05358">
        <ele>2699</ele>
        <time>2022-07-22T15:56:26.000Z</time>
      </trkpt>
      <trkpt lat="45.23692" lon="6.05406">
        <ele>2699</ele>
        <time>2022-07-22T15:56:36.000Z</time>
      </trkpt>
      <trkpt lat="45.23711" lon="6.05444">
        <ele>2695</ele>
        <time>2022-07-22T15:56:46.000Z</time>
      </trkpt>
      <trkpt lat="45.23717" lon="6.05482">
        <ele>2691</ele>
        <time>2022-07-22T15:56:56.000Z</time>
      </trkpt>
      <trkpt lat="45.23725" lon="6.05521">
        <ele>2654</ele>
        <time>2022-07-22T15:57:06.000Z</time>
      </trkpt>
      <trkpt lat="45.23736" lon="6.05578">
        <ele>2623</ele>
        <time>2022-07-22T15:57:16.000Z</time>
      </trkpt>
      <trkpt lat="45.23754" lon="6.05632">
        <ele>2605</ele>
        <time>2022-07-22T15:57:26.000Z</time>
      </trkpt>
      <trkpt lat="45.23759" lon="6.0565">
        <ele>2590.8</ele>
        <time>2022-07-22T15:57:36.000Z</time>
      </trkpt>
      <trkpt lat="45.23759" lon="6.05706">
        <ele>2587</ele>
        <time>2022-07-22T15:57:46.000Z</time>
      </trkpt>
      <trkpt lat="45.23753" lon="6.0576">
        <ele>2570</ele>
        <time>2022-07-22T15:57:56.000Z</time>
      </trkpt>
      <trkpt lat="45.23743" lon="6.05805">
        <ele>2553</ele>
        <time>2022-07-22T15:58:06.000Z</time>
      </trkpt>
      <trkpt lat="45.23722" lon="6.05843">
        <ele>2536</ele>
        <time>2022-07-22T15:58:16.000Z</time>
      </trkpt>
      <trkpt lat="45.23706" lon="6.05863">
        <ele>2529</ele>
        <time>2022-07-22T15:58:26.000Z</time>
      </trkpt>
      <trkpt lat="45.23697" lon="6.05886">
        <ele>2511</ele>
        <time>2022-07-22T15:58:36.000Z</time>
      </trkpt>
      <trkpt lat="45.23706" lon="6.0591">
        <ele>2519</ele>
        <time>2022-07-22T15:58:46.000Z</time>
      </trkpt>
      <trkpt lat="45.23716" lon="6.05933">
        <ele>2518</ele>
        <time>2022-07-22T15:58:56.000Z</time>
      </trkpt>
      <trkpt lat="45.23711" lon="6.0597">
        <ele>2513</ele>
        <time>2022-07-22T15:59:06.000Z</time>
      </trkpt>
      <trkpt lat="45.23711" lon="6.06017">
        <ele>2509</ele>
        <time>2022-07-22T15:59:16.000Z</time>
      </trkpt>
      <trkpt lat="45.23712" lon="6.06032">
        <ele>2490.4</ele>
        <time>2022-07-22T15:59:26.000Z</time>
      </trkpt>
      <trkpt lat="45.23723" lon="6.06104">
        <ele>2479</ele>
        <time>2022-07-22T15:59:36.000Z</time>
      </trkpt>
      <trkpt lat="45.23723" lon="6.06113">
        <ele>2462.2</ele>
        <time>2022-07-22T15:59:46.000Z</time>
      </trkpt>
      <trkpt lat="45.23731" lon="6.06172">
        <ele>2457</ele>
        <time>2022-07-22T15:59:56.000Z</time>
      </trkpt>
      <trkpt lat="45.2373" lon="6.062">
        <ele>2449</ele>
        <time>2022-07-22T16:00:06.000Z</time>
      </trkpt>
      <trkpt lat="45.23734" lon="6.06217">
        <ele>2430.9</ele>
        <time>2022-07-22T16:00:16.000Z</time>
      </trkpt>
      <trkpt lat="45.23742" lon="6.06233">
        <ele>2447</ele>
        <time>2022-07-22T16:00:26.000Z</time>
      </trkpt>
      <trkpt lat="45.23748" lon="6.06251">
        <ele>2428.9</ele>
        <time>2022-07-22T16:00:36.000Z</time>
      </trkpt>
      <trkpt lat="45.23755" lon="6.06268">
        <ele>2444</ele>
        <time>2022-07-22T16:00:46.000Z</time>
      </trkpt>
      <trkpt lat="45.23765" lon="6.06284">
        <ele>2431.5</ele>
        <time>2022-07-22T16:00:56.000Z</time>
      </trkpt>
      <trkpt lat="45.23775" lon="6.06298">
        <ele>2444</ele>
        <time>2022-07-22T16:01:06.000Z</time>
      </trkpt>
      <trkpt lat="45.23787" lon="6.06311">
        <ele>2437.7</ele>
        <time>2022-07-22T16:01:16.000Z</time>
      </trkpt>
      <trkpt lat="45.238" lon="6.06332">
        <ele>2451</ele>
        <time>2022-07-22T16:01:26.000Z</time>
      </trkpt>
      <trkpt lat="45.23822" lon="6.06364">
        <ele>2453</ele>
        <time>2022-07-22T16:01:36.000Z</time>
      </trkpt>
      <trkpt lat="45.23838" lon="6.06378">
        <ele>2447.5</ele>
        <time>2022-07-22T16:01:46.000Z</time>
      </trkpt>
      <trkpt lat="45.23861" lon="6.06413">
        <ele>2456</ele>
        <time>2022-07-22T16:01:56.000Z</time>
      </trkpt>
      <trkpt lat="45.23896" lon="6.06452">
        <ele>2457</ele>
        <time>2022-07-22T16:02:06.000Z</time>
      </trkpt>
      <trkpt lat="45.23924" lon="6.0649">
        <ele>2459</ele>
        <time>2022-07-22T16:02:16.000Z</time>
      </trkpt>
      <trkpt lat="45.23942" lon="6.06526">
        <ele>2463</ele>
        <time>2022-07-22T16:02:26.000Z</time>
      </trkpt>
      <trkpt lat="45.23962" lon="6.06549">
        <ele>2468</ele>
        <time>2022-07-22T16:02:36.000Z</time>
      </trkpt>
      <trkpt lat="45.23975" lon="6.06585">
        <ele>2473</ele>
        <time>2022-07-22T16:02:46.000Z</time>
      </trkpt>
      <trkpt lat="45.23998" lon="6.06605">
        <ele>2478</ele>
        <time>2022-07-22T16:02:56.000Z</time>
      </trkpt>
      <trkpt lat="45.2401" lon="6.06634">
        <ele>2483</ele>
        <time>2022-07-22T16:03:06.000Z</time>
      </trkpt>
      <trkpt lat="45.24041" lon="6.06675">
        <ele>2493</ele>
        <time>2022-07-22T16:03:16.000Z</time>
      </trkpt>
      <trkpt lat="45.2406" lon="6.06725">
        <ele>2494</ele>
        <time>2022-07-22T16:03:26.000Z</time>
      </trkpt>
      <trkpt lat="45.24082" lon="6.06756">
        <ele>2500</ele>
        <time>2022-07-22T16:03:36.000Z</time>
      </trkpt>
      <trkpt lat="45.24098" lon="6.06763">
        <ele>2494.6</ele>
        <time>2022-07-22T16:03:46.000Z</time>
      </trkpt>
      <trkpt lat="45.24112" lon="6.06775">
        <ele>2506</ele>
        <time>2022-07-22T16:03:56.000Z</time>
      </trkpt>
      <trkpt lat="45.24112" lon="6.06812">
        <ele>2507</ele>
        <time>2022-07-22T16:04:06.000Z</time>
      </trkpt>
      <trkpt lat="45.24124" lon="6.06823">
        <ele>2486.3</ele>
        <time>2022-07-22T16:04:16.000Z</time>
      </trkpt>
      <trkpt lat="45.24134" lon="6.0683">
        <ele>2506</ele>
        <time>2022-07-22T16:04:26.000Z</time>
      </trkpt>
      <trkpt lat="45.24157" lon="6.06859">
        <ele>2505</ele>
        <time>2022-07-22T16:04:36.000Z</time>
      </trkpt>
      <trkpt lat="45.24176" lon="6.06891">
        <ele>2498</ele>
        <time>2022-07-22T16:04:46.000Z</time>
      </trkpt>
      <trkpt lat="45.24188" lon="6.06916">
        <ele>2490</ele>
        <time>2022-07-22T16:04:56.000Z</time>
      </trkpt>
      <trkpt lat="45.24202" lon="6.06929">
        <ele>2441.2</ele>
        <time>2022-07-22T16:05:06.000Z</time>
      </trkpt>
      <trkpt lat="45.24225" lon="6.06967">
        <ele>2448</ele>
        <time>2022-07-22T16:05:16.000Z</time>
      </trkpt>
      <trkpt lat="45.24239" lon="6.07018">
        <ele>2443</ele>
        <time>2022-07-22T16:05:26.000Z</time>
      </trkpt>
      <trkpt lat="45.24257" lon="6.07061">
        <ele>2428</ele>
        <time>2022-07-22T16:05:36.000Z</time>
      </trkpt>
      <trkpt lat="45.24258" lon="6.07093">
        <ele>2426</ele>
        <time>2022-07-22T16:05:46.000Z</time>
      </trkpt>
      <trkpt lat="45.24276" lon="6.0712">
        <ele>2410</ele>
        <time>2022-07-22T16:05:56.000Z</time>
      </trkpt>
      <trkpt lat="45.243" lon="6.07155">
        <ele>2405</ele>
        <time>2022-07-22T16:06:06.000Z</time>
      </trkpt>
      <trkpt lat="45.24325" lon="6.0721">
        <ele>2390</ele>
        <time>2022-07-22T16:06:16.000Z</time>
      </trkpt>
      <trkpt lat="45.24349" lon="6.07257">
        <ele>2390</ele>
        <time>2022-07-22T16:06:26.000Z</time>
      </trkpt>
      <trkpt lat="45.24376" lon="6.07304">
        <ele>2377</ele>
        <time>2022-07-22T16:06:36.000Z</time>
      </trkpt>
      <trkpt lat="45.24371" lon="6.0734">
        <ele>2372</ele>
        <time>2022-07-22T16:06:46.000Z</time>
      </trkpt>
      <trkpt lat="45.24385" lon="6.07361">
        <ele>2360</ele>
        <time>2022-07-22T16:06:56.000Z</time>
      </trkpt>
      <trkpt lat="45.24391" lon="6.07372">
        <ele>2326.4</ele>
        <time>2022-07-22T16:07:06.000Z</time>
      </trkpt>
      <trkpt lat="45.24395" lon="6.07385">
        <ele>2353</ele>
        <time>2022-07-22T16:07:16.000Z</time>
      </trkpt>
      <trkpt lat="45.24409" lon="6.07418">
        <ele>2346</ele>
        <time>2022-07-22T16:07:26.000Z</time>
      </trkpt>
      <trkpt lat="45.24418" lon="6.07445">
        <ele>2336</ele>
        <time>2022-07-22T16:07:36.000Z</time>
      </trkpt>
      <trkpt lat="45.24448" lon="6.0745">
        <ele>2324</ele>
        <time>2022-07-22T16:07:46.000Z</time>
      </trkpt>
      <trkpt lat="45.24468" lon="6.07467">
        <ele>2306</ele>
        <time>2022-07-22T16:07:56.000Z</time>
      </trkpt>
      <trkpt lat="45.24482" lon="6.07482">
        <ele>2258.6</ele>
        <time>2022-07-22T16:08:06.000Z</time>
      </trkpt>
      <trkpt lat="45.24492" lon="6.07506">
        <ele>2283</ele>
        <time>2022-07-22T16:08:16.000Z</time>
      </trkpt>
      <trkpt lat="45.24511" lon="6.07521">
        <ele>2268</ele>
        <time>2022-07-22T16:08:26.000Z</time>
      </trkpt>
      <trkpt lat="45.24536" lon="6.0755">
        <ele>2243</ele>
        <time>2022-07-22T16:08:36.000Z</time>
      </trkpt>
      <trkpt lat="45.24565" lon="6.07578">
        <ele>2226</ele>
        <time>2022-07-22T16:08:46.000Z</time>
      </trkpt>
      <trkpt lat="45.2459" lon="6.07606">
        <ele>2212</ele>
        <time>2022-07-22T16:08:56.000Z</time>
      </trkpt>
      <trkpt lat="45.24598" lon="6.07608">
        <ele>2185.1</ele>
        <time>2022-07-22T16:09:06.000Z</time>
      </trkpt>
      <trkpt lat="45.2461" lon="6.07608">
        <ele>2203</ele>
        <time>2022-07-22T16:09:16.000Z</time>
      </trkpt>
      <trkpt lat="45.24621" lon="6.07609">
        <ele>2184.1</ele>
        <time>2022-07-22T16:09:26.000Z</time>
      </trkpt>
      <trkpt lat="45.24634" lon="6.07605">
        <ele>2197</ele>
        <time>2022-07-22T16:09:36.000Z</time>
      </trkpt>
      <trkpt lat="45.24653" lon="6.07623">
        <ele>2197</ele>
        <time>2022-07-22T16:09:46.000Z</time>
      </trkpt>
      <trkpt lat="45.24685" lon="6.07632">
        <ele>2183</ele>
        <time>2022-07-22T16:09:56.000Z</time>
      </trkpt>
      <trkpt lat="45.24711" lon="6.07647">
        <ele>2168</ele>
        <time>2022-07-22T16:10:06.000Z</time>
      </trkpt>
      <trkpt lat="45.24738" lon="6.0768">
        <ele>2165</ele>
        <time>2022-07-22T16:10:16.000Z</time>
      </trkpt>
      <trkpt lat="45.24773" lon="6.07699">
        <ele>2163</ele>
        <time>2022-07-22T16:10:26.000Z</time>
      </trkpt>
      <trkpt lat="45.24795" lon="6.07751">
        <ele>2158</ele>
        <time>2022-07-22T16:10:36.000Z</time>
      </trkpt>
      <trkpt lat="45.24812" lon="6.07777">
        <ele>2154</ele>
        <time>2022-07-22T16:10:46.000Z</time>
      </trkpt>
      <trkpt lat="45.24829" lon="6.07801">
        <ele>2148</ele>
        <time>2022-07-22T16:10:56.000Z</time>
      </trkpt>
      <trkpt lat="45.24848" lon="6.07823">
        <ele>2148</ele>
        <time>2022-07-22T16:11:06.000Z</time>
      </trkpt>
      <trkpt lat="45.2487" lon="6.07847">
        <ele>2148</ele>
        <time>2022-07-22T16:11:16.000Z</time>
      </trkpt>
      <trkpt lat="45.24888" lon="6.07853">
        <ele>2136.9</ele>
        <time>2022-07-22T16:11:26.000Z</time>
      </trkpt>
      <trkpt lat="45.24895" lon="6.07856">
        <ele>2145</ele>
        <time>2022-07-22T16:11:36.000Z</time>
      </trkpt>
      <trkpt lat="45.24902" lon="6.07861">
        <ele>2137.5</ele>
        <time>2022-07-22T16:11:46.000Z</time>
      </trkpt>
      <trkpt lat="45.24915" lon="6.07866">
        <ele>2145</ele>
        <time>2022-07-22T16:11:56.000Z</time>
      </trkpt>
      <trkpt lat="45.24916" lon="6.07869">
        <ele>2136.8</ele>
        <time>2022-07-22T16:12:06.000Z</time>
      </trkpt>
      <trkpt lat="45.24923" lon="6.0788">
        <ele>2135.7</ele>
        <time>2022-07-22T16:12:16.000Z</time>
      </trkpt>
      <trkpt lat="45.2493" lon="6.07885">
        <ele>2144</ele>
        <time>2022-07-22T16:12:26.000Z</time>
      </trkpt>
      <trkpt lat="45.24952" lon="6.07913">
        <ele>2144</ele>
        <time>2022-07-22T16:12:36.000Z</time>
      </trkpt>
      <trkpt lat="45.24988" lon="6.07959">
        <ele>2139</ele>
        <time>2022-07-22T16:12:46.000Z</time>
      </trkpt>
      <trkpt lat="45.25001" lon="6.07989">
        <ele>2138</ele>
        <time>2022-07-22T16:12:56.000Z</time>
      </trkpt>
      <trkpt lat="45.25015" lon="6.08023">
        <ele>2138</ele>
        <time>2022-07-22T16:13:06.000Z</time>
      </trkpt>
      <trkpt lat="45.25003" lon="6.08061">
        <ele>2139</ele>
        <time>2022-07-22T16:13:16.000Z</time>
      </trkpt>
      <trkpt lat="45.24993" lon="6.08095">
        <ele>2138</ele>
        <time>2022-07-22T16:13:26.000Z</time>
      </trkpt>
      <trkpt lat="45.24985" lon="6.08131">
        <ele>2138</ele>
        <time>2022-07-22T16:13:36.000Z</time>
      </trkpt>
      <trkpt lat="45.24975" lon="6.08177">
        <ele>2139</ele>
        <time>2022-07-22T16:13:46.000Z</time>
      </trkpt>
      <trkpt lat="45.24937" lon="6.0821">
        <ele>2147</ele>
        <time>2022-07-22T16:13:56.000Z</time>
      </trkpt>
      <trkpt lat="45.2491" lon="6.08208">
        <ele>2147</ele>
        <time>2022-07-22T16:14:06.000Z</time>
      </trkpt>
      <trkpt lat="45.24875" lon="6.08205">
        <ele>2146</ele>
        <time>2022-07-22T16:14:16.000Z</time>
      </trkpt>
      <trkpt lat="45.24836" lon="6.08214">
        <ele>2145</ele>
        <time>2022-07-22T16:14:26.000Z</time>
      </trkpt>
      <trkpt lat="45.24803" lon="6.0826">
        <ele>2145</ele>
        <time>2022-07-22T16:14:36.000Z</time>
      </trkpt>
      <trkpt lat="45.24788" lon="6.08316">
        <ele>2161</ele>
        <time>2022-07-22T16:14:46.000Z</time>
      </trkpt>
      <trkpt lat="45.24792" lon="6.08345">
        <ele>2168</ele>
        <time>2022-07-22T16:14:56.000Z</time>
      </trkpt>
      <trkpt lat="45.24772" lon="6.08365">
        <ele>2174</ele>
        <time>2022-07-22T16:15:06.000Z</time>
      </trkpt>
      <trkpt lat="45.24751" lon="6.08386">
        <ele>2179</ele>
        <time>2022-07-22T16:15:16.000Z</time>
      </trkpt>
      <trkpt lat="45.24724" lon="6.08421">
        <ele>2184</ele>
        <time>2022-07-22T16:15:26.000Z</time>
      </trkpt>
      <trkpt lat="45.24704" lon="6.08448">
        <ele>2195</ele>
        <time>2022-07-22T16:15:36.000Z</time>
      </trkpt>
      <trkpt lat="45.2469" lon="6.0851">
        <ele>2213</ele>
        <time>2022-07-22T16:15:46.000Z</time>
      </trkpt>
      <trkpt lat="45.24696" lon="6.08565">
        <ele>2213</ele>
        <time>2022-07-22T16:15:56.000Z</time>
      </trkpt>
      <trkpt lat="45.24685" lon="6.08607">
        <ele>2235</ele>
        <time>2022-07-22T16:16:06.000Z</time>
      </trkpt>
      <trkpt lat="45.24654" lon="6.08613">
        <ele>2243</ele>
        <time>2022-07-22T16:16:16.000Z</time>
      </trkpt>
      <trkpt lat="45.24621" lon="6.08647">
        <ele>2252</ele>
        <time>2022-07-22T16:16:26.000Z</time>
      </trkpt>
      <trkpt lat="45.24605" lon="6.08676">
        <ele>2254</ele>
        <time>2022-07-22T16:16:36.000Z</time>
      </trkpt>
      <trkpt lat="45.24588" lon="6.08735">
        <ele>2252</ele>
        <time>2022-07-22T16:16:46.000Z</time>
      </trkpt>
      <trkpt lat="45.24562" lon="6.08791">
        <ele>2251</ele>
        <time>2022-07-22T16:16:56.000Z</time>
      </trkpt>
      <trkpt lat="45.2454" lon="6.0881">
        <ele>2252</ele>
        <time>2022-07-22T16:17:06.000Z</time>
      </trkpt>
      <trkpt lat="45.24513" lon="6.08833">
        <ele>2253</ele>
        <time>2022-07-22T16:17:16.000Z</time>
      </trkpt>
      <trkpt lat="45.24493" lon="6.08857">
        <ele>2261</ele>
        <time>2022-07-22T16:17:26.000Z</time>
      </trkpt>
      <trkpt lat="45.24468" lon="6.08887">
        <ele>2266</ele>
        <time>2022-07-22T16:17:36.000Z</time>
      </trkpt>
      <trkpt lat="45.24432" lon="6.08925">
        <ele>2264</ele>
        <time>2022-07-22T16:17:46.000Z</time>
      </trkpt>
      <trkpt lat="45.2441" lon="6.08963">
        <ele>2263</ele>
        <time>2022-07-22T16:17:56.000Z</time>
      </trkpt>
      <trkpt lat="45.24392" lon="6.08992">
        <ele>2262</ele>
        <time>2022-07-22T16:18:06.000Z</time>
      </trkpt>
      <trkpt lat="45.24381" lon="6.09023">
        <ele>2262</ele>
        <time>2022-07-22T16:18:16.000Z</time>
      </trkpt>
      <trkpt lat="45.24369" lon="6.09056">
        <ele>2262</ele>
        <time>2022-07-22T16:18:26.000Z</time>
      </trkpt>
      <trkpt lat="45.24355" lon="6.09086">
        <ele>2262</ele>
        <time>2022-07-22T16:18:36.000Z</time>
      </trkpt>
      <trkpt lat="45.24339" lon="6.09119">
        <ele>2262</ele>
        <time>2022-07-22T16:18:46.000Z</time>
      </trkpt>
      <trkpt lat="45.24315" lon="6.09163">
        <ele>2263</ele>
        <time>2022-07-22T16:18:56.000Z</time>
      </trkpt>
      <trkpt lat="45.24289" lon="6.09196">
        <ele>2268</ele>
        <time>2022-07-22T16:19:06.000Z</time>
      </trkpt>
      <trkpt lat="45.24267" lon="6.09202">
        <ele>2274</ele>
        <time>2022-07-22T16:19:16.000Z</time>
      </trkpt>
      <trkpt lat="45.24238" lon="6.09191">
        <ele>2274</ele>
        <time>2022-07-22T16:19:26.000Z</time>
      </trkpt>
      <trkpt lat="45.24189" lon="6.09173">
        <ele>2284</ele>
        <time>2022-07-22T16:19:36.000Z</time>
      </trkpt>
      <trkpt lat="45.24162" lon="6.09181">
        <ele>2284</ele>
        <time>2022-07-22T16:19:46.000Z</time>
      </trkpt>
      <trkpt lat="45.24163" lon="6.09234">
        <ele>2294</ele>
        <time>2022-07-22T16:19:56.000Z</time>
      </trkpt>
      <trkpt lat="45.24137" lon="6.09244">
        <ele>2305</ele>
        <time>2022-07-22T16:20:06.000Z</time>
      </trkpt>
      <trkpt lat="45.24123" lon="6.09272">
        <ele>2315</ele>
        <time>2022-07-22T16:20:16.000Z</time>
      </trkpt>
      <trkpt lat="45.24106" lon="6.09299">
        <ele>2315</ele>
        <time>2022-07-22T16:20:26.000Z</time>
      </trkpt>
      <trkpt lat="45.24107" lon="6.09346">
        <ele>2326</ele>
        <time>2022-07-22T16:20:36.000Z</time>
      </trkpt>
      <trkpt lat="45.24095" lon="6.09378">
        <ele>2334</ele>
        <time>2022-07-22T16:20:46.000Z</time>
      </trkpt>
      <trkpt lat="45.24077" lon="6.0939">
        <ele>2344</ele>
        <time>2022-07-22T16:20:56.000Z</time>
      </trkpt>
      <trkpt lat="45.24064" lon="6.09419">
        <ele>2359</ele>
        <time>2022-07-22T16:21:06.000Z</time>
      </trkpt>
      <trkpt lat="45.24043" lon="6.09457">
        <ele>2375</ele>
        <time>2022-07-22T16:21:16.000Z</time>
      </trkpt>
      <trkpt lat="45.24029" lon="6.09473">
        <ele>2390.1</ele>
        <time>2022-07-22T16:21:26.000Z</time>
      </trkpt>
      <trkpt lat="45.24016" lon="6.09513">
        <ele>2396</ele>
        <time>2022-07-22T16:21:36.000Z</time>
      </trkpt>
      <trkpt lat="45.24034" lon="6.09563">
        <ele>2407</ele>
        <time>2022-07-22T16:21:46.000Z</time>
      </trkpt>
      <trkpt lat="45.24048" lon="6.09594">
        <ele>2413</ele>
        <time>2022-07-22T16:21:56.000Z</time>
      </trkpt>
      <trkpt lat="45.24043" lon="6.09647">
        <ele>2429</ele>
        <time>2022-07-22T16:22:06.000Z</time>
      </trkpt>
      <trkpt lat="45.24031" lon="6.09663">
        <ele>2436.9</ele>
        <time>2022-07-22T16:22:16.000Z</time>
      </trkpt>
      <trkpt lat="45.24027" lon="6.09691">
        <ele>2450</ele>
        <time>2022-07-22T16:22:26.000Z</time>
      </trkpt>
      <trkpt lat="45.24021" lon="6.09745">
        <ele>2473</ele>
        <time>2022-07-22T16:22:36.000Z</time>
      </trkpt>
      <trkpt lat="45.24028" lon="6.09759">
        <ele>2470</ele>
        <time>2022-07-22T16:22:46.000Z</time>
      </trkpt>
      <trkpt lat="45.24025" lon="6.09791">
        <ele>2484</ele>
        <time>2022-07-22T16:22:56.000Z</time>
      </trkpt>
      <trkpt lat="45.24035" lon="6.09813">
        <ele>2491.5</ele>
        <time>2022-07-22T16:23:06.000Z</time>
      </trkpt>
      <trkpt lat="45.24055" lon="6.09838">
        <ele>2509</ele>
        <time>2022-07-22T16:23:16.000Z</time>
      </trkpt>
      <trkpt lat="45.24062" lon="6.0987">
        <ele>2524</ele>
        <time>2022-07-22T16:23:26.000Z</time>
      </trkpt>
      <trkpt lat="45.24042" lon="6.09924">
        <ele>2550</ele>
        <time>2022-07-22T16:23:36.000Z</time>
      </trkpt>
      <trkpt lat="45.24029" lon="6.09957">
        <ele>2556</ele>
        <time>2022-07-22T16:23:46.000Z</time>
      </trkpt>
      <trkpt lat="45.24013" lon="6.09999">
        <ele>2562</ele>
        <time>2022-07-22T16:23:56.000Z</time>
      </trkpt>
      <trkpt lat="45.23993" lon="6.1002">
        <ele>2562</ele>
        <time>2022-07-22T16:24:06.000Z</time>
      </trkpt>
      <trkpt lat="45.23971" lon="6.10043">
        <ele>2565</ele>
        <time>2022-07-22T16:24:16.000Z</time>
      </trkpt>
      <trkpt lat="45.23945" lon="6.10075">
        <ele>2580</ele>
        <time>2022-07-22T16:24:26.000Z</time>
      </trkpt>
      <trkpt lat="45.23942" lon="6.10121">
        <ele>2583</ele>
        <time>2022-07-22T16:24:36.000Z</time>
      </trkpt>
      <trkpt lat="45.23949" lon="6.10168">
        <ele>2592</ele>
        <time>2022-07-22T16:24:46.000Z</time>
      </trkpt>
      <trkpt lat="45.23944" lon="6.10199">
        <ele>2598</ele>
        <time>2022-07-22T16:24:56.000Z</time>
      </trkpt>
      <trkpt lat="45.23943" lon="6.10232">
        <ele>2604</ele>
        <time>2022-07-22T16:25:06.000Z</time>
      </trkpt>
      <trkpt lat="45.23962" lon="6.10274">
        <ele>2630</ele>
        <time>2022-07-22T16:25:16.000Z</time>
      </trkpt>
      <trkpt lat="45.23951" lon="6.10321">
        <ele>2631</ele>
        <time>2022-07-22T16:25:26.000Z</time>
      </trkpt>
      <trkpt lat="45.23955" lon="6.10382">
        <ele>2646</ele>
        <time>2022-07-22T16:25:36.000Z</time>
      </trkpt>
      <trkpt lat="45.23957" lon="6.10392">
        <ele>2646.8</ele>
        <time>2022-07-22T16:25:46.000Z</time>
      </trkpt>
      <trkpt lat="45.23944" lon="6.10459">
        <ele>2669</ele>
        <time>2022-07-22T16:25:56.000Z</time>
      </trkpt>
      <trkpt lat="45.23949" lon="6.10497">
        <ele>2686</ele>
        <time>2022-07-22T16:26:06.000Z</time>
      </trkpt>
      <trkpt lat="45.23944" lon="6.10543">
        <ele>2690</ele>
        <time>2022-07-22T16:26:16.000Z</time>
      </trkpt>
      <trkpt lat="45.2394" lon="6.10565">
        <ele>2690.9</ele>
        <time>2022-07-22T16:26:26.000Z</time>
      </trkpt>
      <trkpt lat="45.23937" lon="6.10593">
        <ele>2701</ele>
        <time>2022-07-22T16:26:36.000Z</time>
      </trkpt>
      <trkpt lat="45.23935" lon="6.1062">
        <ele>2713</ele>
        <time>2022-07-22T16:26:46.000Z</time>
      </trkpt>
      <trkpt lat="45.23938" lon="6.1064">
        <ele>2713.4</ele>
        <time>2022-07-22T16:26:56.000Z</time>
      </trkpt>
      <trkpt lat="45.23942" lon="6.10678">
        <ele>2732</ele>
        <time>2022-07-22T16:27:06.000Z</time>
      </trkpt>
      <trkpt lat="45.23924" lon="6.10702">
        <ele>2752</ele>
        <time>2022-07-22T16:27:16.000Z</time>
      </trkpt>
      <trkpt lat="45.23905" lon="6.10729">
        <ele>2762</ele>
        <time>2022-07-22T16:27:26.000Z</time>
      </trkpt>
      <trkpt lat="45.23881" lon="6.10748">
        <ele>2774</ele>
        <time>2022-07-22T16:27:36.000Z</time>
      </trkpt>
      <trkpt lat="45.23847" lon="6.10776">
        <ele>2785</ele>
        <time>2022-07-22T16:27:46.000Z</time>
      </trkpt>
      <trkpt lat="45.23844" lon="6.10785">
        <ele>2800.2</ele>
        <time>2022-07-22T16:27:56.000Z</time>
      </trkpt>
      <trkpt lat="45.23869" lon="6.10788">
        <ele>2786</ele>
        <time>2022-07-22T16:28:06.000Z</time>
      </trkpt>
      <trkpt lat="45.23897" lon="6.10785">
        <ele>2784</ele>
        <time>2022-07-22T16:28:16.000Z</time>
      </trkpt>
      <trkpt lat="45.23936" lon="6.10781">
        <ele>2791</ele>
        <time>2022-07-22T16:28:26.000Z</time>
      </trkpt>
      <trkpt lat="45.23952" lon="6.10775">
        <ele>2812</ele>
        <time>2022-07-22T16:28:36.000Z</time>
      </trkpt>
      <trkpt lat="45.23981" lon="6.10776">
        <ele>2798</ele>
        <time>2022-07-22T16:28:46.000Z</time>
      </trkpt>
      <trkpt lat="45.24013" lon="6.10755">
        <ele>2801</ele>
        <time>2022-07-22T16:28:56.000Z</time>
      </trkpt>
      <trkpt lat="45.24037" lon="6.10744">
        <ele>2815</ele>
        <time>2022-07-22T16:29:06.000Z</time>
      </trkpt>
      <trkpt lat="45.24054" lon="6.10729">
        <ele>2821</ele>
        <time>2022-07-22T16:29:16.000Z</time>
      </trkpt>
      <trkpt lat="45.24066" lon="6.10731">
        <ele>2864.5</ele>
        <time>2022-07-22T16:29:26.000Z</time>
      </trkpt>
      <trkpt lat="45.24085" lon="6.10739">
        <ele>2848</ele>
        <time>2022-07-22T16:29:36.000Z</time>
      </trkpt>
      <trkpt lat="45.24101" lon="6.10733">
        <ele>2895</ele>
        <time>2022-07-22T16:29:46.000Z</time>
      </trkpt>
      <trkpt lat="45.24119" lon="6.10734">
        <ele>2892</ele>
        <time>2022-07-22T16:29:56.000Z</time>
      </trkpt>
      <trkpt lat="45.24136" lon="6.10758">
        <ele>2907</ele>
        <time>2022-07-22T16:30:06.000Z</time>
      </trkpt>
      <trkpt lat="45.2415" lon="6.10757">
        <ele>2917.7</ele>
        <time>2022-07-22T16:30:16.000Z</time>
      </trkpt>
      <trkpt lat="45.24188" lon="6.10848">
        <ele>2898</ele>
        <time>2022-07-22T16:30:26.000Z</time>
      </trkpt>
      <trkpt lat="45.242" lon="6.10893">
        <ele>2889</ele>
        <time>2022-07-22T16:30:36.000Z</time>
      </trkpt>
      <trkpt lat="45.24205" lon="6.1093">
        <ele>2876</ele>
        <time>2022-07-22T16:30:46.000Z</time>
      </trkpt>
      <trkpt lat="45.24227" lon="6.10979">
        <ele>2856</ele>
        <time>2022-07-22T16:30:56.000Z</time>
      </trkpt>
      <trkpt lat="45.24255" lon="6.11026">
        <ele>2844</ele>
        <time>2022-07-22T16:31:06.000Z</time>
      </trkpt>
      <trkpt lat="45.2427" lon="6.11056">
        <ele>2837</ele>
        <time>2022-07-22T16:31:16.000Z</time>
      </trkpt>
      <trkpt lat="45.24288" lon="6.11092">
        <ele>2828</ele>
        <time>2022-07-22T16:31:26.000Z</time>
      </trkpt>
      <trkpt lat="45.24297" lon="6.11126">
        <ele>2824</ele>
        <time>2022-07-22T16:31:36.000Z</time>
      </trkpt>
      <trkpt lat="45.24307" lon="6.11166">
        <ele>2813</ele>
        <time>2022-07-22T16:31:46.000Z</time>
      </trkpt>
      <trkpt lat="45.2432" lon="6.11207">
        <ele>2809</ele>
        <time>2022-07-22T16:31:56.000Z</time>
      </trkpt>
      <trkpt lat="45.24345" lon="6.11286">
        <ele>2780</ele>
        <time>2022-07-22T16:32:06.000Z</time>
      </trkpt>
      <trkpt lat="45.24374" lon="6.11324">
        <ele>2749</ele>
        <time>2022-07-22T16:32:16.000Z</time>
      </trkpt>
      <trkpt lat="45.2441" lon="6.11367">
        <ele>2726</ele>
        <time>2022-07-22T16:32:26.000Z</time>
      </trkpt>
      <trkpt lat="45.24434" lon="6.11421">
        <ele>2716</ele>
        <time>2022-07-22T16:32:36.000Z</time>
      </trkpt>
      <trkpt lat="45.24427" lon="6.11479">
        <ele>2713</ele>
        <time>2022-07-22T16:32:46.000Z</time>
      </trkpt>
      <trkpt lat="45.24434" lon="6.11513">
        <ele>2709</ele>
        <time>2022-07-22T16:32:56.000Z</time>
      </trkpt>
      <trkpt lat="45.2444" lon="6.11546">
        <ele>2707</ele>
        <time>2022-07-22T16:33:06.000Z</time>
      </trkpt>
      <trkpt lat="45.2445" lon="6.11583">
        <ele>2705</ele>
        <time>2022-07-22T16:33:16.000Z</time>
      </trkpt>
      <trkpt lat="45.2444" lon="6.11638">
        <ele>2704</ele>
        <time>2022-07-22T16:33:26.000Z</time>
      </trkpt>
      <trkpt lat="45.24462" lon="6.11663">
        <ele>2679</ele>
        <time>2022-07-22T16:33:36.000Z</time>
      </trkpt>
      <trkpt lat="45.2448" lon="6.11686">
        <ele>2679</ele>
        <time>2022-07-22T16:33:46.000Z</time>
      </trkpt>
      <trkpt lat="45.245" lon="6.11711">
        <ele>2661</ele>
        <time>2022-07-22T16:33:56.000Z</time>
      </trkpt>
      <trkpt lat="45.24526" lon="6.11763">
        <ele>2656</ele>
        <time>2022-07-22T16:34:06.000Z</time>
      </trkpt>
      <trkpt lat="45.24539" lon="6.11804">
        <ele>2651</ele>
        <time>2022-07-22T16:34:16.000Z</time>
      </trkpt>
      <trkpt lat="45.24557" lon="6.1183">
        <ele>2642</ele>
        <time>2022-07-22T16:34:26.000Z</time>
      </trkpt>
      <trkpt lat="45.24579" lon="6.11861">
        <ele>2639</ele>
        <time>2022-07-22T16:34:36.000Z</time>
      </trkpt>
      <trkpt lat="45.24597" lon="6.11898">
        <ele>2636</ele>
        <time>2022-07-22T16:34:46.000Z</time>
      </trkpt>
      <trkpt lat="45.24623" lon="6.119">
        <ele>2625</ele>
        <time>2022-07-22T16:34:56.000Z</time>
      </trkpt>
      <trkpt lat="45.24653" lon="6.11903">
        <ele>2614</ele>
        <time>2022-07-22T16:35:06.000Z</time>
      </trkpt>
      <trkpt lat="45.24677" lon="6.1194">
        <ele>2599</ele>
        <time>2022-07-22T16:35:16.000Z</time>
      </trkpt>
      <trkpt lat="45.24712" lon="6.11977">
        <ele>2580</ele>
        <time>2022-07-22T16:35:26.000Z</time>
      </trkpt>
      <trkpt lat="45.24748" lon="6.11994">
        <ele>2558</ele>
        <time>2022-07-22T16:35:36.000Z</time>
      </trkpt>
      <trkpt lat="45.24768" lon="6.12046">
        <ele>2547</ele>
        <time>2022-07-22T16:35:46.000Z</time>
      </trkpt>
      <trkpt lat="45.24803" lon="6.12088">
        <ele>2514</ele>
        <time>2022-07-22T16:35:56.000Z</time>
      </trkpt>
      <trkpt lat="45.24826" lon="6.12117">
        <ele>2500</ele>
        <time>2022-07-22T16:36:06.000Z</time>
      </trkpt>
      <trkpt lat="45.24871" lon="6.12174">
        <ele>2486</ele>
        <time>2022-07-22T16:36:16.000Z</time>
      </trkpt>
      <trkpt lat="45.24897" lon="6.12206">
        <ele>2474</ele>
        <time>2022-07-22T16:36:26.000Z</time>
      </trkpt>
      <trkpt lat="45.24904" lon="6.1224">
        <ele>2467</ele>
        <time>2022-07-22T16:36:36.000Z</time>
      </trkpt>
      <trkpt lat="45.24912" lon="6.12278">
        <ele>2462</ele>
        <time>2022-07-22T16:36:46.000Z</time>
      </trkpt>
      <trkpt lat="45.24923" lon="6.12309">
        <ele>2459</ele>
        <time>2022-07-22T16:36:56.000Z</time>
      </trkpt>
      <trkpt lat="45.24936" lon="6.12344">
        <ele>2458</ele>
        <time>2022-07-22T16:37:06.000Z</time>
      </trkpt>
      <trkpt lat="45.24945" lon="6.12375">
        <ele>2447</ele>
        <time>2022-07-22T16:37:16.000Z</time>
      </trkpt>
      <trkpt lat="45.24955" lon="6.12406">
        <ele>2442</ele>
        <time>2022-07-22T16:37:26.000Z</time>
      </trkpt>
      <trkpt lat="45.24978" lon="6.12424">
        <ele>2429</ele>
        <time>2022-07-22T16:37:36.000Z</time>
      </trkpt>
      <trkpt lat="45.25007" lon="6.12447">
        <ele>2418</ele>
        <time>2022-07-22T16:37:46.000Z</time>
      </trkpt>
      <trkpt lat="45.2503" lon="6.12463">
        <ele>2416</ele>
        <time>2022-07-22T16:37:56.000Z</time>
      </trkpt>
      <trkpt lat="45.25057" lon="6.12482">
        <ele>2413</ele>
        <time>2022-07-22T16:38:06.000Z</time>
      </trkpt>
      <trkpt lat="45.25075" lon="6.12529">
        <ele>2405</ele>
        <time>2022-07-22T16:38:16.000Z</time>
      </trkpt>
      <trkpt lat="45.2511" lon="6.12571">
        <ele>2402</ele>
        <time>2022-07-22T16:38:26.000Z</time>
      </trkpt>
      <trkpt lat="45.25127" lon="6.12614">
        <ele>2396</ele>
        <time>2022-07-22T16:38:36.000Z</time>
      </trkpt>
      <trkpt lat="45.25144" lon="6.12641">
        <ele>2387</ele>
        <time>2022-07-22T16:38:46.000Z</time>
      </trkpt>
      <trkpt lat="45.25164" lon="6.12672">
        <ele>2372</ele>
        <time>2022-07-22T16:38:56.000Z</time>
      </trkpt>
      <trkpt lat="45.25188" lon="6.127">
        <ele>2362</ele>
        <time>2022-07-22T16:39:06.000Z</time>
      </trkpt>
      <trkpt lat="45.25236" lon="6.12755">
        <ele>2333</ele>
        <time>2022-07-22T16:39:16.000Z</time>
      </trkpt>
      <trkpt lat="45.25257" lon="6.1278">
        <ele>2328</ele>
        <time>2022-07-22T16:39:26.000Z</time>
      </trkpt>
      <trkpt lat="45.25277" lon="6.12802">
        <ele>2317</ele>
        <time>2022-07-22T16:39:36.000Z</time>
      </trkpt>
      <trkpt lat="45.25299" lon="6.12828">
        <ele>2308</ele>
        <time>2022-07-22T16:39:46.000Z</time>
      </trkpt>
      <trkpt lat="45.25319" lon="6.1285">
        <ele>2292</ele>
        <time>2022-07-22T16:39:56.000Z</time>
      </trkpt>
      <trkpt lat="45.25349" lon="6.12886">
        <ele>2263</ele>
        <time>2022-07-22T16:40:06.000Z</time>
      </trkpt>
      <trkpt lat="45.25373" lon="6.12894">
        <ele>2254</ele>
        <time>2022-07-22T16:40:16.000Z</time>
      </trkpt>
      <trkpt lat="45.25402" lon="6.12896">
        <ele>2245</ele>
        <time>2022-07-22T16:40:26.000Z</time>
      </trkpt>
      <trkpt lat="45.2545" lon="6.12899">
        <ele>2230</ele>
        <time>2022-07-22T16:40:36.000Z</time>
      </trkpt>
      <trkpt lat="45.25496" lon="6.12911">
        <ele>2210</ele>
        <time>2022-07-22T16:40:46.000Z</time>
      </trkpt>
      <trkpt lat="45.2553" lon="6.12933">
        <ele>2202</ele>
        <time>2022-07-22T16:40:56.000Z</time>
      </trkpt>
      <trkpt lat="45.25552" lon="6.12941">
        <ele>2198</ele>
        <time>2022-07-22T16:41:06.000Z</time>
      </trkpt>
      <trkpt lat="45.25578" lon="6.12931">
        <ele>2184</ele>
        <time>2022-07-22T16:41:16.000Z</time>
      </trkpt>
      <trkpt lat="45.25614" lon="6.12917">
        <ele>2186</ele>
        <time>2022-07-22T16:41:26.000Z</time>
      </trkpt>
      <trkpt lat="45.25641" lon="6.1291">
        <ele>2185</ele>
        <time>2022-07-22T16:41:36.000Z</time>
      </trkpt>
      <trkpt lat="45.25679" lon="6.129">
        <ele>2184</ele>
        <time>2022-07-22T16:41:46.000Z</time>
      </trkpt>
      <trkpt lat="45.25703" lon="6.12911">
        <ele>2164</ele>
        <time>2022-07-22T16:41:56.000Z</time>
      </trkpt>
      <trkpt lat="45.25744" lon="6.12922">
        <ele>2145</ele>
        <time>2022-07-22T16:42:06.000Z</time>
      </trkpt>
      <trkpt lat="45.2577" lon="6.12926">
        <ele>2133</ele>
        <time>2022-07-22T16:42:16.000Z</time>
      </trkpt>
      <trkpt lat="45.25802" lon="6.12931">
        <ele>2127</ele>
        <time>2022-07-22T16:42:26.000Z</time>
      </trkpt>
      <trkpt lat="45.25829" lon="6.12939">
        <ele>2125</ele>
        <time>2022-07-22T16:42:36.000Z</time>
      </trkpt>
      <trkpt lat="45.25869" lon="6.1295">
        <ele>2123</ele>
        <time>2022-07-22T16:42:46.000Z</time>
      </trkpt>
      <trkpt lat="45.25912" lon="6.12948">
        <ele>2120</ele>
        <time>2022-07-22T16:42:56.000Z</time>
      </trkpt>
      <trkpt lat="45.25933" lon="6.12923">
        <ele>2121</ele>
        <time>2022-07-22T16:43:06.000Z</time>
      </trkpt>
      <trkpt lat="45.25963" lon="6.12887">
        <ele>2111</ele>
        <time>2022-07-22T16:43:16.000Z</time>
      </trkpt>
      <trkpt lat="45.25976" lon="6.12849">
        <ele>2108</ele>
        <time>2022-07-22T16:43:26.000Z</time>
      </trkpt>
      <trkpt lat="45.25998" lon="6.12785">
        <ele>2107</ele>
        <time>2022-07-22T16:43:36.000Z</time>
      </trkpt>
      <trkpt lat="45.26" lon="6.12744">
        <ele>2107</ele>
        <time>2022-07-22T16:43:46.000Z</time>
      </trkpt>
      <trkpt lat="45.26004" lon="6.12678">
        <ele>2070</ele>
        <time>2022-07-22T16:43:56.000Z</time>
      </trkpt>
      <trkpt lat="45.26003" lon="6.12622">
        <ele>2056</ele>
        <time>2022-07-22T16:44:06.000Z</time>
      </trkpt>
      <trkpt lat="45.2601" lon="6.12578">
        <ele>2050</ele>
        <time>2022-07-22T16:44:16.000Z</time>
      </trkpt>
      <trkpt lat="45.26017" lon="6.12533">
        <ele>2038</ele>
        <time>2022-07-22T16:44:26.000Z</time>
      </trkpt>
      <trkpt lat="45.26025" lon="6.12485">
        <ele>2029</ele>
        <time>2022-07-22T16:44:36.000Z</time>
      </trkpt>
      <trkpt lat="45.26032" lon="6.12436">
        <ele>2019</ele>
        <time>2022-07-22T16:44:46.000Z</time>
      </trkpt>
      <trkpt lat="45.26053" lon="6.12402">
        <ele>2011</ele>
        <time>2022-07-22T16:44:56.000Z</time>
      </trkpt>
      <trkpt lat="45.26069" lon="6.12374">
        <ele>2010</ele>
        <time>2022-07-22T16:45:06.000Z</time>
      </trkpt>
      <trkpt lat="45.26093" lon="6.12356">
        <ele>2009</ele>
        <time>2022-07-22T16:45:16.000Z</time>
      </trkpt>
      <trkpt lat="45.26127" lon="6.12331">
        <ele>2005</ele>
        <time>2022-07-22T16:45:26.000Z</time>
      </trkpt>
      <trkpt lat="45.26157" lon="6.1231">
        <ele>1996</ele>
        <time>2022-07-22T16:45:36.000Z</time>
      </trkpt>
      <trkpt lat="45.26186" lon="6.12289">
        <ele>1988</ele>
        <time>2022-07-22T16:45:46.000Z</time>
      </trkpt>
      <trkpt lat="45.26226" lon="6.12261">
        <ele>1986</ele>
        <time>2022-07-22T16:45:56.000Z</time>
      </trkpt>
      <trkpt lat="45.26248" lon="6.1224">
        <ele>1989</ele>
        <time>2022-07-22T16:46:06.000Z</time>
      </trkpt>
      <trkpt lat="45.26278" lon="6.12212">
        <ele>1984</ele>
        <time>2022-07-22T16:46:16.000Z</time>
      </trkpt>
      <trkpt lat="45.2629" lon="6.12178">
        <ele>1980</ele>
        <time>2022-07-22T16:46:26.000Z</time>
      </trkpt>
      <trkpt lat="45.263" lon="6.12146">
        <ele>1979</ele>
        <time>2022-07-22T16:46:36.000Z</time>
      </trkpt>
      <trkpt lat="45.26317" lon="6.12122">
        <ele>1967</ele>
        <time>2022-07-22T16:46:46.000Z</time>
      </trkpt>
      <trkpt lat="45.26336" lon="6.12096">
        <ele>1962</ele>
        <time>2022-07-22T16:46:56.000Z</time>
      </trkpt>
      <trkpt lat="45.26326" lon="6.1207">
        <ele>1954</ele>
        <time>2022-07-22T16:47:06.000Z</time>
      </trkpt>
      <trkpt lat="45.26345" lon="6.12041">
        <ele>1944</ele>
        <time>2022-07-22T16:47:16.000Z</time>
      </trkpt>
      <trkpt lat="45.26372" lon="6.11998">
        <ele>1941</ele>
        <time>2022-07-22T16:47:26.000Z</time>
      </trkpt>
      <trkpt lat="45.26386" lon="6.11956">
        <ele>1931</ele>
        <time>2022-07-22T16:47:36.000Z</time>
      </trkpt>
      <trkpt lat="45.26355" lon="6.11961">
        <ele>1922</ele>
        <time>2022-07-22T16:47:46.000Z</time>
      </trkpt>
      <trkpt lat="45.26292" lon="6.1197">
        <ele>1904</ele>
        <time>2022-07-22T16:47:56.000Z</time>
      </trkpt>
      <trkpt lat="45.26259" lon="6.11976">
        <ele>1898</ele>
        <time>2022-07-22T16:48:06.000Z</time>
      </trkpt>
      <trkpt lat="45.26213" lon="6.11983">
        <ele>1895</ele>
        <time>2022-07-22T16:48:16.000Z</time>
      </trkpt>
      <trkpt lat="45.2619" lon="6.11977">
        <ele>1886</ele>
        <time>2022-07-22T16:48:26.000Z</time>
      </trkpt>
      <trkpt lat="45.26205" lon="6.11943">
        <ele>1878</ele>
        <time>2022-07-22T16:48:36.000Z</time>
      </trkpt>
      <trkpt lat="45.26226" lon="6.11894">
        <ele>1867</ele>
        <time>2022-07-22T16:48:46.000Z</time>
      </trkpt>
      <trkpt lat="45.26246" lon="6.11858">
        <ele>1856</ele>
        <time>2022-07-22T16:48:56.000Z</time>
      </trkpt>
      <trkpt lat="45.26264" lon="6.11828">
        <ele>1852</ele>
        <time>2022-07-22T16:49:06.000Z</time>
      </trkpt>
      <trkpt lat="45.26287" lon="6.11789">
        <ele>1833</ele>
        <time>2022-07-22T16:49:16.000Z</time>
      </trkpt>
      <trkpt lat="45.26288" lon="6.11747">
        <ele>1827</ele>
        <time>2022-07-22T16:49:26.000Z</time>
      </trkpt>
      <trkpt lat="45.2629" lon="6.11677">
        <ele>1808</ele>
        <time>2022-07-22T16:49:36.000Z</time>
      </trkpt>
      <trkpt lat="45.26305" lon="6.1165">
        <ele>1806</ele>
        <time>2022-07-22T16:49:46.000Z</time>
      </trkpt>
      <trkpt lat="45.26322" lon="6.11621">
        <ele>1799</ele>
        <time>2022-07-22T16:49:56.000Z</time>
      </trkpt>
      <trkpt lat="45.26345" lon="6.11585">
        <ele>1793</ele>
        <time>2022-07-22T16:50:06.000Z</time>
      </trkpt>
      <trkpt lat="45.26366" lon="6.11549">
        <ele>1793</ele>
        <time>2022-07-22T16:50:16.000Z</time>
      </trkpt>
      <trkpt lat="45.26391" lon="6.11524">
        <ele>1791</ele>
        <time>2022-07-22T16:50:26.000Z</time>
      </trkpt>
      <trkpt lat="45.26434" lon="6.11481">
        <ele>1791</ele>
        <time>2022-07-22T16:50:36.000Z</time>
      </trkpt>
      <trkpt lat="45.26461" lon="6.11453">
        <ele>1791</ele>
        <time>2022-07-22T16:50:46.000Z</time>
      </trkpt>
      <trkpt lat="45.26468" lon="6.11403">
        <ele>1782</ele>
        <time>2022-07-22T16:50:56.000Z</time>
      </trkpt>
      <trkpt lat="45.26489" lon="6.11396">
        <ele>1782</ele>
        <time>2022-07-22T16:51:06.000Z</time>
      </trkpt>
      <trkpt lat="45.26518" lon="6.11392">
        <ele>1790</ele>
        <time>2022-07-22T16:51:16.000Z</time>
      </trkpt>
      <trkpt lat="45.26566" lon="6.11385">
        <ele>1803</ele>
        <time>2022-07-22T16:51:26.000Z</time>
      </trkpt>
      <trkpt lat="45.26591" lon="6.11408">
        <ele>1811</ele>
        <time>2022-07-22T16:51:36.000Z</time>
      </trkpt>
      <trkpt lat="45.26623" lon="6.11412">
        <ele>1827</ele>
        <time>2022-07-22T16:51:46.000Z</time>
      </trkpt>
      <trkpt lat="45.26652" lon="6.11413">
        <ele>1833</ele>
        <time>2022-07-22T16:51:56.000Z</time>
      </trkpt>
      <trkpt lat="45.26681" lon="6.1142">
        <ele>1847</ele>
        <time>2022-07-22T16:52:06.000Z</time>
      </trkpt>
      <trkpt lat="45.26694" lon="6.11435">
        <ele>1856.2</ele>
        <time>2022-07-22T16:52:16.000Z</time>
      </trkpt>
      <trkpt lat="45.26717" lon="6.11429">
        <ele>1864</ele>
        <time>2022-07-22T16:52:26.000Z</time>
      </trkpt>
      <trkpt lat="45.2673" lon="6.11437">
        <ele>1869.3</ele>
        <time>2022-07-22T16:52:36.000Z</time>
      </trkpt>
      <trkpt lat="45.26747" lon="6.11444">
        <ele>1878</ele>
        <time>2022-07-22T16:52:46.000Z</time>
      </trkpt>
      <trkpt lat="45.2676" lon="6.11466">
        <ele>1887</ele>
        <time>2022-07-22T16:52:56.000Z</time>
      </trkpt>
      <trkpt lat="45.26777" lon="6.1146">
        <ele>1898.5</ele>
        <time>2022-07-22T16:53:06.000Z</time>
      </trkpt>
      <trkpt lat="45.26785" lon="6.11476">
        <ele>1908</ele>
        <time>2022-07-22T16:53:16.000Z</time>
      </trkpt>
      <trkpt lat="45.268" lon="6.11493">
        <ele>1934</ele>
        <time>2022-07-22T16:53:26.000Z</time>
      </trkpt>
      <trkpt lat="45.26808" lon="6.11514">
        <ele>1929.7</ele>
        <time>2022-07-22T16:53:36.000Z</time>
      </trkpt>
      <trkpt lat="45.2683" lon="6.11537">
        <ele>1954</ele>
        <time>2022-07-22T16:53:46.000Z</time>
      </trkpt>
      <trkpt lat="45.26854" lon="6.11577">
        <ele>1983</ele>
        <time>2022-07-22T16:53:56.000Z</time>
      </trkpt>
      <trkpt lat="45.26881" lon="6.11607">
        <ele>2006</ele>
        <time>2022-07-22T16:54:06.000Z</time>
      </trkpt>
      <trkpt lat="45.26892" lon="6.11617">
        <ele>2003.2</ele>
        <time>2022-07-22T16:54:16.000Z</time>
      </trkpt>
      <trkpt lat="45.26899" lon="6.11632">
        <ele>2013</ele>
        <time>2022-07-22T16:54:26.000Z</time>
      </trkpt>
      <trkpt lat="45.26912" lon="6.11638">
        <ele>2020.1</ele>
        <time>2022-07-22T16:54:36.000Z</time>
      </trkpt>
      <trkpt lat="45.26933" lon="6.11651">
        <ele>2026</ele>
        <time>2022-07-22T16:54:46.000Z</time>
      </trkpt>
      <trkpt lat="45.26932" lon="6.11687">
        <ele>2043</ele>
        <time>2022-07-22T16:54:56.000Z</time>
      </trkpt>
      <trkpt lat="45.26929" lon="6.11723">
        <ele>2052</ele>
        <time>2022-07-22T16:55:06.000Z</time>
      </trkpt>
      <trkpt lat="45.26925" lon="6.11766">
        <ele>2049</ele>
        <time>2022-07-22T16:55:16.000Z</time>
      </trkpt>
      <trkpt lat="45.26905" lon="6.11797">
        <ele>2063</ele>
        <time>2022-07-22T16:55:26.000Z</time>
      </trkpt>
      <trkpt lat="45.26908" lon="6.11815">
        <ele>2068.9</ele>
        <time>2022-07-22T16:55:36.000Z</time>
      </trkpt>
      <trkpt lat="45.2693" lon="6.11821">
        <ele>2077</ele>
        <time>2022-07-22T16:55:46.000Z</time>
      </trkpt>
      <trkpt lat="45.26948" lon="6.11829">
        <ele>2091.6</ele>
        <time>2022-07-22T16:55:56.000Z</time>
      </trkpt>
      <trkpt lat="45.26973" lon="6.11834">
        <ele>2118</ele>
        <time>2022-07-22T16:56:06.000Z</time>
      </trkpt>
      <trkpt lat="45.26993" lon="6.1182">
        <ele>2117</ele>
        <time>2022-07-22T16:56:16.000Z</time>
      </trkpt>
      <trkpt lat="45.27011" lon="6.11793">
        <ele>2126</ele>
        <time>2022-07-22T16:56:26.000Z</time>
      </trkpt>
      <trkpt lat="45.27025" lon="6.11796">
        <ele>2130.2</ele>
        <time>2022-07-22T16:56:36.000Z</time>
      </trkpt>
      <trkpt lat="45.27042" lon="6.11817">
        <ele>2136</ele>
        <time>2022-07-22T16:56:46.000Z</time>
      </trkpt>
      <trkpt lat="45.27054" lon="6.11823">
        <ele>2155</ele>
        <time>2022-07-22T16:56:56.000Z</time>
      </trkpt>
      <trkpt lat="45.27057" lon="6.11844">
        <ele>2164</ele>
        <time>2022-07-22T16:57:06.000Z</time>
      </trkpt>
      <trkpt lat="45.27053" lon="6.11897">
        <ele>2172</ele>
        <time>2022-07-22T16:57:16.000Z</time>
      </trkpt>
      <trkpt lat="45.27076" lon="6.1193">
        <ele>2197</ele>
        <time>2022-07-22T16:57:26.000Z</time>
      </trkpt>
      <trkpt lat="45.27079" lon="6.11962">
        <ele>2197</ele>
        <time>2022-07-22T16:57:36.000Z</time>
      </trkpt>
      <trkpt lat="45.27097" lon="6.11937">
        <ele>2197</ele>
        <time>2022-07-22T16:57:46.000Z</time>
      </trkpt>
      <trkpt lat="45.27097" lon="6.11961">
        <ele>2203.9</ele>
        <time>2022-07-22T16:57:56.000Z</time>
      </trkpt>
      <trkpt lat="45.27109" lon="6.11991">
        <ele>2222</ele>
        <time>2022-07-22T16:58:06.000Z</time>
      </trkpt>
      <trkpt lat="45.27118" lon="6.12022">
        <ele>2229</ele>
        <time>2022-07-22T16:58:16.000Z</time>
      </trkpt>
      <trkpt lat="45.27132" lon="6.12058">
        <ele>2237</ele>
        <time>2022-07-22T16:58:26.000Z</time>
      </trkpt>
      <trkpt lat="45.27129" lon="6.12073">
        <ele>2246.6</ele>
        <time>2022-07-22T16:58:36.000Z</time>
      </trkpt>
      <trkpt lat="45.27118" lon="6.12081">
        <ele>2245</ele>
        <time>2022-07-22T16:58:46.000Z</time>
      </trkpt>
      <trkpt lat="45.27126" lon="6.12097">
        <ele>2249.8</ele>
        <time>2022-07-22T16:58:56.000Z</time>
      </trkpt>
      <trkpt lat="45.27138" lon="6.12107">
        <ele>2260</ele>
        <time>2022-07-22T16:59:06.000Z</time>
      </trkpt>
      <trkpt lat="45.2717" lon="6.12114">
        <ele>2273</ele>
        <time>2022-07-22T16:59:16.000Z</time>
      </trkpt>
      <trkpt lat="45.27205" lon="6.12155">
        <ele>2294</ele>
        <time>2022-07-22T16:59:26.000Z</time>
      </trkpt>
      <trkpt lat="45.27202" lon="6.12181">
        <ele>2293.7</ele>
        <time>2022-07-22T16:59:36.000Z</time>
      </trkpt>
      <trkpt lat="45.27214" lon="6.12205">
        <ele>2309</ele>
        <time>2022-07-22T16:59:46.000Z</time>
      </trkpt>
      <trkpt lat="45.27227" lon="6.12266">
        <ele>2316</ele>
        <time>2022-07-22T16:59:56.000Z</time>
      </trkpt>
      <trkpt lat="45.27247" lon="6.12247">
        <ele>2321</ele>
        <time>2022-07-22T17:00:06.000Z</time>
      </trkpt>
      <trkpt lat="45.27246" lon="6.12284">
        <ele>2326</ele>
        <time>2022-07-22T17:00:16.000Z</time>
      </trkpt>
      <trkpt lat="45.27245" lon="6.12327">
        <ele>2327</ele>
        <time>2022-07-22T17:00:26.000Z</time>
      </trkpt>
      <trkpt lat="45.27257" lon="6.1235">
        <ele>2331</ele>
        <time>2022-07-22T17:00:36.000Z</time>
      </trkpt>
      <trkpt lat="45.27246" lon="6.12385">
        <ele>2339</ele>
        <time>2022-07-22T17:00:46.000Z</time>
      </trkpt>
      <trkpt lat="45.27264" lon="6.12391">
        <ele>2347.2</ele>
        <time>2022-07-22T17:00:56.000Z</time>
      </trkpt>
      <trkpt lat="45.27278" lon="6.12408">
        <ele>2358</ele>
        <time>2022-07-22T17:01:06.000Z</time>
      </trkpt>
      <trkpt lat="45.27267" lon="6.12446">
        <ele>2365</ele>
        <time>2022-07-22T17:01:16.000Z</time>
      </trkpt>
      <trkpt lat="45.27273" lon="6.12468">
        <ele>2373.4</ele>
        <time>2022-07-22T17:01:26.000Z</time>
      </trkpt>
      <trkpt lat="45.27297" lon="6.12466">
        <ele>2393</ele>
        <time>2022-07-22T17:01:36.000Z</time>
      </trkpt>
      <trkpt lat="45.27299" lon="6.12485">
        <ele>2390.9</ele>
        <time>2022-07-22T17:01:46.000Z</time>
      </trkpt>
      <trkpt lat="45.27292" lon="6.12506">
        <ele>2412</ele>
        <time>2022-07-22T17:01:56.000Z</time>
      </trkpt>
      <trkpt lat="45.27302" lon="6.12529">
        <ele>2445</ele>
        <time>2022-07-22T17:02:06.000Z</time>
      </trkpt>
      <trkpt lat="45.27315" lon="6.12525">
        <ele>2411.9</ele>
        <time>2022-07-22T17:02:16.000Z</time>
      </trkpt>
      <trkpt lat="45.27322" lon="6.12548">
        <ele>2450</ele>
        <time>2022-07-22T17:02:26.000Z</time>
      </trkpt>
      <trkpt lat="45.27339" lon="6.12568">
        <ele>2464</ele>
        <time>2022-07-22T17:02:36.000Z</time>
      </trkpt>
      <trkpt lat="45.27351" lon="6.12587">
        <ele>2456</ele>
        <time>2022-07-22T17:02:46.000Z</time>
      </trkpt>
      <trkpt lat="45.27368" lon="6.12601">
        <ele>2483</ele>
        <time>2022-07-22T17:02:56.000Z</time>
      </trkpt>
      <trkpt lat="45.27381" lon="6.12609">
        <ele>2481.1</ele>
        <time>2022-07-22T17:03:06.000Z</time>
      </trkpt>
      <trkpt lat="45.27383" lon="6.12624">
        <ele>2495</ele>
        <time>2022-07-22T17:03:16.000Z</time>
      </trkpt>
      <trkpt lat="45.27392" lon="6.12643">
        <ele>2500.5</ele>
        <time>2022-07-22T17:03:26.000Z</time>
      </trkpt>
      <trkpt lat="45.27384" lon="6.12654">
        <ele>2505</ele>
        <time>2022-07-22T17:03:36.000Z</time>
      </trkpt>
      <trkpt lat="45.2738" lon="6.12679">
        <ele>2510.2</ele>
        <time>2022-07-22T17:03:46.000Z</time>
      </trkpt>
      <trkpt lat="45.27397" lon="6.12694">
        <ele>2526</ele>
        <time>2022-07-22T17:03:56.000Z</time>
      </trkpt>
      <trkpt lat="45.27418" lon="6.12718">
        <ele>2537</ele>
        <time>2022-07-22T17:04:06.000Z</time>
      </trkpt>
      <trkpt lat="45.27438" lon="6.12739">
        <ele>2537</ele>
        <time>2022-07-22T17:04:16.000Z</time>
      </trkpt>
      <trkpt lat="45.27441" lon="6.12753">
        <ele>2522.7</ele>
        <time>2022-07-22T17:04:26.000Z</time>
      </trkpt>
      <trkpt lat="45.27478" lon="6.12803">
        <ele>2542</ele>
        <time>2022-07-22T17:04:36.000Z</time>
      </trkpt>
      <trkpt lat="45.27493" lon="6.12832">
        <ele>2551</ele>
        <time>2022-07-22T17:04:46.000Z</time>
      </trkpt>
      <trkpt lat="45.27506" lon="6.12873">
        <ele>2555</ele>
        <time>2022-07-22T17:04:56.000Z</time>
      </trkpt>
      <trkpt lat="45.27521" lon="6.12889">
        <ele>2562.8</ele>
        <time>2022-07-22T17:05:06.000Z</time>
      </trkpt>
      <trkpt lat="45.2753" lon="6.12907">
        <ele>2573</ele>
        <time>2022-07-22T17:05:16.000Z</time>
      </trkpt>
      <trkpt lat="45.27544" lon="6.12927">
        <ele>2579</ele>
        <time>2022-07-22T17:05:26.000Z</time>
      </trkpt>
      <trkpt lat="45.2756" lon="6.12958">
        <ele>2598</ele>
        <time>2022-07-22T17:05:36.000Z</time>
      </trkpt>
      <trkpt lat="45.2756" lon="6.12977">
        <ele>2596.3</ele>
        <time>2022-07-22T17:05:46.000Z</time>
      </trkpt>
      <trkpt lat="45.27585" lon="6.1301">
        <ele>2616</ele>
        <time>2022-07-22T17:05:56.000Z</time>
      </trkpt>
      <trkpt lat="45.276" lon="6.13036">
        <ele>2631</ele>
        <time>2022-07-22T17:06:06.000Z</time>
      </trkpt>
      <trkpt lat="45.27631" lon="6.13083">
        <ele>2667</ele>
        <time>2022-07-22T17:06:16.000Z</time>
      </trkpt>
      <trkpt lat="45.27639" lon="6.13106">
        <ele>2645.6</ele>
        <time>2022-07-22T17:06:26.000Z</time>
      </trkpt>
      <trkpt lat="45.27664" lon="6.13115">
        <ele>2667</ele>
        <time>2022-07-22T17:06:36.000Z</time>
      </trkpt>
      <trkpt lat="45.27703" lon="6.13133">
        <ele>2673</ele>
        <time>2022-07-22T17:06:46.000Z</time>
      </trkpt>
      <trkpt lat="45.27735" lon="6.13138">
        <ele>2676</ele>
        <time>2022-07-22T17:06:56.000Z</time>
      </trkpt>
      <trkpt lat="45.27758" lon="6.13139">
        <ele>2683</ele>
        <time>2022-07-22T17:07:06.000Z</time>
      </trkpt>
      <trkpt lat="45.27788" lon="6.13099">
        <ele>2716</ele>
        <time>2022-07-22T17:07:16.000Z</time>
      </trkpt>
      <trkpt lat="45.27798" lon="6.13077">
        <ele>2715.1</ele>
        <time>2022-07-22T17:07:26.000Z</time>
      </trkpt>
      <trkpt lat="45.27817" lon="6.13052">
        <ele>2741</ele>
        <time>2022-07-22T17:07:36.000Z</time>
      </trkpt>
      <trkpt lat="45.27808" lon="6.13036">
        <ele>2737.2</ele>
        <time>2022-07-22T17:07:46.000Z</time>
      </trkpt>
      <trkpt lat="45.2781" lon="6.13024">
        <ele>2744</ele>
        <time>2022-07-22T17:07:56.000Z</time>
      </trkpt>
      <trkpt lat="45.27824" lon="6.13015">
        <ele>2741.9</ele>
        <time>2022-07-22T17:08:06.000Z</time>
      </trkpt>
      <trkpt lat="45.2783" lon="6.13015">
        <ele>2743</ele>
        <time>2022-07-22T17:08:16.000Z</time>
      </trkpt>
      <trkpt lat="45.27835" lon="6.12999">
        <ele>2735.1</ele>
        <time>2022-07-22T17:08:26.000Z</time>
      </trkpt>
      <trkpt lat="45.27844" lon="6.12977">
        <ele>2742</ele>
        <time>2022-07-22T17:08:36.000Z</time>
      </trkpt>
      <trkpt lat="45.27856" lon="6.12961">
        <ele>2711.1</ele>
        <time>2022-07-22T17:08:46.000Z</time>
      </trkpt>
      <trkpt lat="45.27864" lon="6.12934">
        <ele>2726</ele>
        <time>2022-07-22T17:08:56.000Z</time>
      </trkpt>
      <trkpt lat="45.27868" lon="6.12908">
        <ele>2682</ele>
        <time>2022-07-22T17:09:06.000Z</time>
      </trkpt>
      <trkpt lat="45.27862" lon="6.12897">
        <ele>2725</ele>
        <time>2022-07-22T17:09:16.000Z</time>
      </trkpt>
      <trkpt lat="45.27863" lon="6.12868">
        <ele>2725</ele>
        <time>2022-07-22T17:09:26.000Z</time>
      </trkpt>
      <trkpt lat="45.27872" lon="6.12858">
        <ele>2666.1</ele>
        <time>2022-07-22T17:09:36.000Z</time>
      </trkpt>
      <trkpt lat="45.27879" lon="6.12811">
        <ele>2721</ele>
        <time>2022-07-22T17:09:46.000Z</time>
      </trkpt>
      <trkpt lat="45.27896" lon="6.12798">
        <ele>2717</ele>
        <time>2022-07-22T17:09:56.000Z</time>
      </trkpt>
      <trkpt lat="45.27908" lon="6.12779">
        <ele>2622.3</ele>
        <time>2022-07-22T17:10:06.000Z</time>
      </trkpt>
      <trkpt lat="45.2792" lon="6.12774">
        <ele>2706</ele>
        <time>2022-07-22T17:10:16.000Z</time>
      </trkpt>
      <trkpt lat="45.27931" lon="6.12742">
        <ele>2695</ele>
        <time>2022-07-22T17:10:26.000Z</time>
      </trkpt>
      <trkpt lat="45.27944" lon="6.12706">
        <ele>2650</ele>
        <time>2022-07-22T17:10:36.000Z</time>
      </trkpt>
      <trkpt lat="45.27959" lon="6.1266">
        <ele>2636</ele>
        <time>2022-07-22T17:10:46.000Z</time>
      </trkpt>
      <trkpt lat="45.27974" lon="6.12626">
        <ele>2629</ele>
        <time>2022-07-22T17:10:56.000Z</time>
      </trkpt>
      <trkpt lat="45.28013" lon="6.12599">
        <ele>2590</ele>
        <time>2022-07-22T17:11:06.000Z</time>
      </trkpt>
      <trkpt lat="45.28027" lon="6.1259">
        <ele>2497.6</ele>
        <time>2022-07-22T17:11:16.000Z</time>
      </trkpt>
      <trkpt lat="45.28039" lon="6.12568">
        <ele>2556</ele>
        <time>2022-07-22T17:11:26.000Z</time>
      </trkpt>
      <trkpt lat="45.28048" lon="6.12543">
        <ele>2546</ele>
        <time>2022-07-22T17:11:36.000Z</time>
      </trkpt>
      <trkpt lat="45.28083" lon="6.12502">
        <ele>2478</ele>
        <time>2022-07-22T17:11:46.000Z</time>
      </trkpt>
      <trkpt lat="45.28106" lon="6.1248">
        <ele>2446</ele>
        <time>2022-07-22T17:11:56.000Z</time>
      </trkpt>
      <trkpt lat="45.28123" lon="6.12473">
        <ele>2425</ele>
        <time>2022-07-22T17:12:06.000Z</time>
      </trkpt>
      <trkpt lat="45.28156" lon="6.12455">
        <ele>2434</ele>
        <time>2022-07-22T17:12:16.000Z</time>
      </trkpt>
      <trkpt lat="45.28182" lon="6.12431">
        <ele>2408</ele>
        <time>2022-07-22T17:12:26.000Z</time>
      </trkpt>
      <trkpt lat="45.2821" lon="6.12394">
        <ele>2395</ele>
        <time>2022-07-22T17:12:36.000Z</time>
      </trkpt>
      <trkpt lat="45.2824" lon="6.12371">
        <ele>2382</ele>
        <time>2022-07-22T17:12:46.000Z</time>
      </trkpt>
      <trkpt lat="45.28247" lon="6.12353">
        <ele>2359</ele>
        <time>2022-07-22T17:12:56.000Z</time>
      </trkpt>
      <trkpt lat="45.28272" lon="6.12334">
        <ele>2370</ele>
        <time>2022-07-22T17:13:06.000Z</time>
      </trkpt>
      <trkpt lat="45.28297" lon="6.12293">
        <ele>2359</ele>
        <time>2022-07-22T17:13:16.000Z</time>
      </trkpt>
      <trkpt lat="45.28325" lon="6.12291">
        <ele>2333</ele>
        <time>2022-07-22T17:13:26.000Z</time>
      </trkpt>
      <trkpt lat="45.28363" lon="6.12289">
        <ele>2321</ele>
        <time>2022-07-22T17:13:36.000Z</time>
      </trkpt>
      <trkpt lat="45.2838" lon="6.12253">
        <ele>2321</ele>
        <time>2022-07-22T17:13:46.000Z</time>
      </trkpt>
      <trkpt lat="45.28378" lon="6.12216">
        <ele>2321</ele>
        <time>2022-07-22T17:13:56.000Z</time>
      </trkpt>
      <trkpt lat="45.284" lon="6.12176">
        <ele>2315</ele>
        <time>2022-07-22T17:14:06.000Z</time>
      </trkpt>
      <trkpt lat="45.28428" lon="6.1217">
        <ele>2312</ele>
        <time>2022-07-22T17:14:16.000Z</time>
      </trkpt>
      <trkpt lat="45.28467" lon="6.12138">
        <ele>2305</ele>
        <time>2022-07-22T17:14:26.000Z</time>
      </trkpt>
      <trkpt lat="45.2848" lon="6.12135">
        <ele>2302.8</ele>
        <time>2022-07-22T17:14:36.000Z</time>
      </trkpt>
      <trkpt lat="45.28508" lon="6.1211">
        <ele>2283</ele>
        <time>2022-07-22T17:14:46.000Z</time>
      </trkpt>
      <trkpt lat="45.28517" lon="6.121">
        <ele>2268.8</ele>
        <time>2022-07-22T17:14:56.000Z</time>
      </trkpt>
      <trkpt lat="45.2853" lon="6.12076">
        <ele>2256</ele>
        <time>2022-07-22T17:15:06.000Z</time>
      </trkpt>
      <trkpt lat="45.28554" lon="6.12058">
        <ele>2225</ele>
        <time>2022-07-22T17:15:16.000Z</time>
      </trkpt>
      <trkpt lat="45.28587" lon="6.12034">
        <ele>2202</ele>
        <time>2022-07-22T17:15:26.000Z</time>
      </trkpt>
      <trkpt lat="45.28614" lon="6.12006">
        <ele>2186</ele>
        <time>2022-07-22T17:15:36.000Z</time>
      </trkpt>
      <trkpt lat="45.28641" lon="6.11988">
        <ele>2160</ele>
        <time>2022-07-22T17:15:46.000Z</time>
      </trkpt>
      <trkpt lat="45.28649" lon="6.11978">
        <ele>2156</ele>
        <time>2022-07-22T17:15:56.000Z</time>
      </trkpt>
      <trkpt lat="45.28666" lon="6.11954">
        <ele>2145</ele>
        <time>2022-07-22T17:16:06.000Z</time>
      </trkpt>
      <trkpt lat="45.28671" lon="6.11924">
        <ele>2138</ele>
        <time>2022-07-22T17:16:16.000Z</time>
      </trkpt>
      <trkpt lat="45.28688" lon="6.11893">
        <ele>2135</ele>
        <time>2022-07-22T17:16:26.000Z</time>
      </trkpt>
      <trkpt lat="45.2872" lon="6.11852">
        <ele>2134</ele>
        <time>2022-07-22T17:16:36.000Z</time>
      </trkpt>
      <trkpt lat="45.28749" lon="6.11856">
        <ele>2134</ele>
        <time>2022-07-22T17:16:46.000Z</time>
      </trkpt>
      <trkpt lat="45.28793" lon="6.11862">
        <ele>2136</ele>
        <time>2022-07-22T17:16:56.000Z</time>
      </trkpt>
      <trkpt lat="45.28806" lon="6.11891">
        <ele>2145</ele>
        <time>2022-07-22T17:17:06.000Z</time>
      </trkpt>
      <trkpt lat="45.2882" lon="6.11921">
        <ele>2149</ele>
        <time>2022-07-22T17:17:16.000Z</time>
      </trkpt>
      <trkpt lat="45.28821" lon="6.11959">
        <ele>2153</ele>
        <time>2022-07-22T17:17:26.000Z</time>
      </trkpt>
      <trkpt lat="45.28822" lon="6.12008">
        <ele>2158</ele>
        <time>2022-07-22T17:17:36.000Z</time>
      </trkpt>
      <trkpt lat="45.28843" lon="6.1203">
        <ele>2162</ele>
        <time>2022-07-22T17:17:46.000Z</time>
      </trkpt>
      <trkpt lat="45.28872" lon="6.12042">
        <ele>2165</ele>
        <time>2022-07-22T17:17:56.000Z</time>
      </trkpt>
      <trkpt lat="45.28896" lon="6.12047">
        <ele>2170</ele>
        <time>2022-07-22T17:18:06.000Z</time>
      </trkpt>
      <trkpt lat="45.2892" lon="6.12052">
        <ele>2188</ele>
        <time>2022-07-22T17:18:16.000Z</time>
      </trkpt>
      <trkpt lat="45.28937" lon="6.12077">
        <ele>2189</ele>
        <time>2022-07-22T17:18:26.000Z</time>
      </trkpt>
      <trkpt lat="45.28957" lon="6.12106">
        <ele>2214</ele>
        <time>2022-07-22T17:18:36.000Z</time>
      </trkpt>
      <trkpt lat="45.28968" lon="6.12139">
        <ele>2215</ele>
        <time>2022-07-22T17:18:46.000Z</time>
      </trkpt>
      <trkpt lat="45.2899" lon="6.12171">
        <ele>2217</ele>
        <time>2022-07-22T17:18:56.000Z</time>
      </trkpt>
      <trkpt lat="45.29007" lon="6.12208">
        <ele>2220</ele>
        <time>2022-07-22T17:19:06.000Z</time>
      </trkpt>
      <trkpt lat="45.29004" lon="6.12238">
        <ele>2223</ele>
        <time>2022-07-22T17:19:16.000Z</time>
      </trkpt>
      <trkpt lat="45.29028" lon="6.12276">
        <ele>2239</ele>
        <time>2022-07-22T17:19:26.000Z</time>
      </trkpt>
      <trkpt lat="45.29033" lon="6.12294">
        <ele>2242.4</ele>
        <time>2022-07-22T17:19:36.000Z</time>
      </trkpt>
      <trkpt lat="45.29047" lon="6.12323">
        <ele>2258</ele>
        <time>2022-07-22T17:19:46.000Z</time>
      </trkpt>
      <trkpt lat="45.29035" lon="6.1234">
        <ele>2261</ele>
        <time>2022-07-22T17:19:56.000Z</time>
      </trkpt>
      <trkpt lat="45.29073" lon="6.12393">
        <ele>2272</ele>
        <time>2022-07-22T17:20:06.000Z</time>
      </trkpt>
      <trkpt lat="45.29079" lon="6.1245">
        <ele>2287</ele>
        <time>2022-07-22T17:20:16.000Z</time>
      </trkpt>
      <trkpt lat="45.29094" lon="6.12479">
        <ele>2289</ele>
        <time>2022-07-22T17:20:26.000Z</time>
      </trkpt>
      <trkpt lat="45.29111" lon="6.12511">
        <ele>2297</ele>
        <time>2022-07-22T17:20:36.000Z</time>
      </trkpt>
      <trkpt lat="45.29144" lon="6.12539">
        <ele>2305</ele>
        <time>2022-07-22T17:20:46.000Z</time>
      </trkpt>
      <trkpt lat="45.29178" lon="6.1256">
        <ele>2316</ele>
        <time>2022-07-22T17:20:56.000Z</time>
      </trkpt>
      <trkpt lat="45.29199" lon="6.12574">
        <ele>2328</ele>
        <time>2022-07-22T17:21:06.000Z</time>
      </trkpt>
      <trkpt lat="45.29221" lon="6.12589">
        <ele>2338</ele>
        <time>2022-07-22T17:21:16.000Z</time>
      </trkpt>
      <trkpt lat="45.2922" lon="6.12614">
        <ele>2319.8</ele>
        <time>2022-07-22T17:21:26.000Z</time>
      </trkpt>
      <trkpt lat="45.29217" lon="6.12643">
        <ele>2341</ele>
        <time>2022-07-22T17:21:36.000Z</time>
      </trkpt>
      <trkpt lat="45.29218" lon="6.12662">
        <ele>2331.2</ele>
        <time>2022-07-22T17:21:46.000Z</time>
      </trkpt>
      <trkpt lat="45.29232" lon="6.12695">
        <ele>2348</ele>
        <time>2022-07-22T17:21:56.000Z</time>
      </trkpt>
      <trkpt lat="45.29244" lon="6.12725">
        <ele>2356</ele>
        <time>2022-07-22T17:22:06.000Z</time>
      </trkpt>
      <trkpt lat="45.29243" lon="6.12773">
        <ele>2361</ele>
        <time>2022-07-22T17:22:16.000Z</time>
      </trkpt>
      <trkpt lat="45.29249" lon="6.12796">
        <ele>2355.1</ele>
        <time>2022-07-22T17:22:26.000Z</time>
      </trkpt>
      <trkpt lat="45.29257" lon="6.12823">
        <ele>2371</ele>
        <time>2022-07-22T17:22:36.000Z</time>
      </trkpt>
      <trkpt lat="45.29257" lon="6.12839">
        <ele>2370.6</ele>
        <time>2022-07-22T17:22:46.000Z</time>
      </trkpt>
      <trkpt lat="45.29272" lon="6.1287">
        <ele>2386</ele>
        <time>2022-07-22T17:22:56.000Z</time>
      </trkpt>
      <trkpt lat="45.29276" lon="6.12902">
        <ele>2401</ele>
        <time>2022-07-22T17:23:06.000Z</time>
      </trkpt>
      <trkpt lat="45.2928" lon="6.12923">
        <ele>2405.9</ele>
        <time>2022-07-22T17:23:16.000Z</time>
      </trkpt>
      <trkpt lat="45.29261" lon="6.12959">
        <ele>2407</ele>
        <time>2022-07-22T17:23:26.000Z</time>
      </trkpt>
      <trkpt lat="45.29251" lon="6.12997">
        <ele>2423</ele>
        <time>2022-07-22T17:23:36.000Z</time>
      </trkpt>
      <trkpt lat="45.29259" lon="6.13023">
        <ele>2432</ele>
        <time>2022-07-22T17:23:46.000Z</time>
      </trkpt>
      <trkpt lat="45.29249" lon="6.1305">
        <ele>2432</ele>
        <time>2022-07-22T17:23:56.000Z</time>
      </trkpt>
      <trkpt lat="45.2925" lon="6.13093">
        <ele>2451</ele>
        <time>2022-07-22T17:24:06.000Z</time>
      </trkpt>
      <trkpt lat="45.29256" lon="6.13127">
        <ele>2459</ele>
        <time>2022-07-22T17:24:16.000Z</time>
      </trkpt>
      <trkpt lat="45.29264" lon="6.13145">
        <ele>2452.2</ele>
        <time>2022-07-22T17:24:26.000Z</time>
      </trkpt>
      <trkpt lat="45.29309" lon="6.13184">
        <ele>2474</ele>
        <time>2022-07-22T17:24:36.000Z</time>
      </trkpt>
      <trkpt lat="45.29322" lon="6.13234">
        <ele>2476</ele>
        <time>2022-07-22T17:24:46.000Z</time>
      </trkpt>
      <trkpt lat="45.29347" lon="6.13268">
        <ele>2479</ele>
        <time>2022-07-22T17:24:56.000Z</time>
      </trkpt>
      <trkpt lat="45.29349" lon="6.13291">
        <ele>2462.5</ele>
        <time>2022-07-22T17:25:06.000Z</time>
      </trkpt>
      <trkpt lat="45.29373" lon="6.13336">
        <ele>2481</ele>
        <time>2022-07-22T17:25:16.000Z</time>
      </trkpt>
      <trkpt lat="45.29385" lon="6.13384">
        <ele>2481</ele>
        <time>2022-07-22T17:25:26.000Z</time>
      </trkpt>
      <trkpt lat="45.29383" lon="6.13427">
        <ele>2482</ele>
        <time>2022-07-22T17:25:36.000Z</time>
      </trkpt>
      <trkpt lat="45.2939" lon="6.13468">
        <ele>2484</ele>
        <time>2022-07-22T17:25:46.000Z</time>
      </trkpt>
      <trkpt lat="45.29402" lon="6.13493">
        <ele>2489</ele>
        <time>2022-07-22T17:25:56.000Z</time>
      </trkpt>
      <trkpt lat="45.29423" lon="6.1351">
        <ele>2493</ele>
        <time>2022-07-22T17:26:06.000Z</time>
      </trkpt>
      <trkpt lat="45.29436" lon="6.13535">
        <ele>2498</ele>
        <time>2022-07-22T17:26:16.000Z</time>
      </trkpt>
      <trkpt lat="45.2945" lon="6.13552">
        <ele>2515.8</ele>
        <time>2022-07-22T17:26:26.000Z</time>
      </trkpt>
      <trkpt lat="45.29464" lon="6.13599">
        <ele>2536</ele>
        <time>2022-07-22T17:26:36.000Z</time>
      </trkpt>
      <trkpt lat="45.2949" lon="6.1361">
        <ele>2541</ele>
        <time>2022-07-22T17:26:46.000Z</time>
      </trkpt>
      <trkpt lat="45.29496" lon="6.13641">
        <ele>2549</ele>
        <time>2022-07-22T17:26:56.000Z</time>
      </trkpt>
      <trkpt lat="45.29511" lon="6.13673">
        <ele>2557</ele>
        <time>2022-07-22T17:27:06.000Z</time>
      </trkpt>
      <trkpt lat="45.29514" lon="6.13699">
        <ele>2561.5</ele>
        <time>2022-07-22T17:27:16.000Z</time>
      </trkpt>
      <trkpt lat="45.29513" lon="6.13723">
        <ele>2566</ele>
        <time>2022-07-22T17:27:26.000Z</time>
      </trkpt>
      <trkpt lat="45.29521" lon="6.13745">
        <ele>2578.4</ele>
        <time>2022-07-22T17:27:36.000Z</time>
      </trkpt>
      <trkpt lat="45.29529" lon="6.13772">
        <ele>2593</ele>
        <time>2022-07-22T17:27:46.000Z</time>
      </trkpt>
      <trkpt lat="45.29539" lon="6.1379">
        <ele>2601.6</ele>
        <time>2022-07-22T17:27:56.000Z</time>
      </trkpt>
      <trkpt lat="45.29532" lon="6.13811">
        <ele>2602</ele>
        <time>2022-07-22T17:28:06.000Z</time>
      </trkpt>
      <trkpt lat="45.29539" lon="6.13841">
        <ele>2617</ele>
        <time>2022-07-22T17:28:16.000Z</time>
      </trkpt>
      <trkpt lat="45.29541" lon="6.13895">
        <ele>2629</ele>
        <time>2022-07-22T17:28:26.000Z</time>
      </trkpt>
      <trkpt lat="45.29563" lon="6.13913">
        <ele>2635</ele>
        <time>2022-07-22T17:28:36.000Z</time>
      </trkpt>
      <trkpt lat="45.29569" lon="6.13937">
        <ele>2630.2</ele>
        <time>2022-07-22T17:28:46.000Z</time>
      </trkpt>
      <trkpt lat="45.29582" lon="6.14008">
        <ele>2652</ele>
        <time>2022-07-22T17:28:56.000Z</time>
      </trkpt>
      <trkpt lat="45.29582" lon="6.14039">
        <ele>2654</ele>
        <time>2022-07-22T17:29:06.000Z</time>
      </trkpt>
      <trkpt lat="45.29608" lon="6.14059">
        <ele>2668</ele>
        <time>2022-07-22T17:29:16.000Z</time>
      </trkpt>
      <trkpt lat="45.29614" lon="6.14091">
        <ele>2671</ele>
        <time>2022-07-22T17:29:26.000Z</time>
      </trkpt>
      <trkpt lat="45.29625" lon="6.14109">
        <ele>2681.9</ele>
        <time>2022-07-22T17:29:36.000Z</time>
      </trkpt>
      <trkpt lat="45.29629" lon="6.14134">
        <ele>2686</ele>
        <time>2022-07-22T17:29:46.000Z</time>
      </trkpt>
      <trkpt lat="45.29654" lon="6.14153">
        <ele>2701</ele>
        <time>2022-07-22T17:29:56.000Z</time>
      </trkpt>
      <trkpt lat="45.2968" lon="6.14182">
        <ele>2729</ele>
        <time>2022-07-22T17:30:06.000Z</time>
      </trkpt>
      <trkpt lat="45.29682" lon="6.14197">
        <ele>2723.4</ele>
        <time>2022-07-22T17:30:16.000Z</time>
      </trkpt>
      <trkpt lat="45.29697" lon="6.14229">
        <ele>2742</ele>
        <time>2022-07-22T17:30:26.000Z</time>
      </trkpt>
      <trkpt lat="45.29721" lon="6.14244">
        <ele>2740</ele>
        <time>2022-07-22T17:30:36.000Z</time>
      </trkpt>
      <trkpt lat="45.29726" lon="6.14269">
        <ele>2751.1</ele>
        <time>2022-07-22T17:30:46.000Z</time>
      </trkpt>
      <trkpt lat="45.29754" lon="6.14303">
        <ele>2739</ele>
        <time>2022-07-22T17:30:56.000Z</time>
      </trkpt>
      <trkpt lat="45.29764" lon="6.14326">
        <ele>2721</ele>
        <time>2022-07-22T17:31:06.000Z</time>
      </trkpt>
      <trkpt lat="45.29789" lon="6.14361">
        <ele>2715</ele>
        <time>2022-07-22T17:31:16.000Z</time>
      </trkpt>
      <trkpt lat="45.2981" lon="6.14381">
        <ele>2714</ele>
        <time>2022-07-22T17:31:26.000Z</time>
      </trkpt>
      <trkpt lat="45.29832" lon="6.14402">
        <ele>2713</ele>
        <time>2022-07-22T17:31:36.000Z</time>
      </trkpt>
      <trkpt lat="45.29857" lon="6.14436">
        <ele>2709</ele>
        <time>2022-07-22T17:31:46.000Z</time>
      </trkpt>
      <trkpt lat="45.29875" lon="6.1448">
        <ele>2684</ele>
        <time>2022-07-22T17:31:56.000Z</time>
      </trkpt>
      <trkpt lat="45.29882" lon="6.14516">
        <ele>2672</ele>
        <time>2022-07-22T17:32:06.000Z</time>
      </trkpt>
      <trkpt lat="45.29891" lon="6.14562">
        <ele>2661</ele>
        <time>2022-07-22T17:32:16.000Z</time>
      </trkpt>
      <trkpt lat="45.29886" lon="6.14608">
        <ele>2660</ele>
        <time>2022-07-22T17:32:26.000Z</time>
      </trkpt>
      <trkpt lat="45.2987" lon="6.14667">
        <ele>2644</ele>
        <time>2022-07-22T17:32:36.000Z</time>
      </trkpt>
      <trkpt lat="45.29878" lon="6.14726">
        <ele>2627</ele>
        <time>2022-07-22T17:32:46.000Z</time>
      </trkpt>
      <trkpt lat="45.29856" lon="6.14764">
        <ele>2618</ele>
        <time>2022-07-22T17:32:56.000Z</time>
      </trkpt>
      <trkpt lat="45.29874" lon="6.14824">
        <ele>2590</ele>
        <time>2022-07-22T17:33:06.000Z</time>
      </trkpt>
      <trkpt lat="45.29857" lon="6.14863">
        <ele>2588</ele>
        <time>2022-07-22T17:33:16.000Z</time>
      </trkpt>
      <trkpt lat="45.29844" lon="6.14889">
        <ele>2575</ele>
        <time>2022-07-22T17:33:26.000Z</time>
      </trkpt>
      <trkpt lat="45.29849" lon="6.14906">
        <ele>2586.1</ele>
        <time>2022-07-22T17:33:36.000Z</time>
      </trkpt>
      <trkpt lat="45.2983" lon="6.14964">
        <ele>2570</ele>
        <time>2022-07-22T17:33:46.000Z</time>
      </trkpt>
      <trkpt lat="45.29812" lon="6.15026">
        <ele>2557</ele>
        <time>2022-07-22T17:33:56.000Z</time>
      </trkpt>
      <trkpt lat="45.29802" lon="6.15065">
        <ele>2554</ele>
        <time>2022-07-22T17:34:06.000Z</time>
      </trkpt>
      <trkpt lat="45.29828" lon="6.15117">
        <ele>2553</ele>
        <time>2022-07-22T17:34:16.000Z</time>
      </trkpt>
      <trkpt lat="45.29811" lon="6.15165">
        <ele>2520</ele>
        <time>2022-07-22T17:34:26.000Z</time>
      </trkpt>
      <trkpt lat="45.2981" lon="6.15203">
        <ele>2517</ele>
        <time>2022-07-22T17:34:36.000Z</time>
      </trkpt>
      <trkpt lat="45.29789" lon="6.1526">
        <ele>2496</ele>
        <time>2022-07-22T17:34:46.000Z</time>
      </trkpt>
      <trkpt lat="45.2979" lon="6.15325">
        <ele>2489</ele>
        <time>2022-07-22T17:34:56.000Z</time>
      </trkpt>
      <trkpt lat="45.29778" lon="6.15372">
        <ele>2481</ele>
        <time>2022-07-22T17:35:06.000Z</time>
      </trkpt>
      <trkpt lat="45.2977" lon="6.15409">
        <ele>2483</ele>
        <time>2022-07-22T17:35:16.000Z</time>
      </trkpt>
      <trkpt lat="45.29784" lon="6.1546">
        <ele>2475</ele>
        <time>2022-07-22T17:35:26.000Z</time>
      </trkpt>
      <trkpt lat="45.2977" lon="6.15495">
        <ele>2478</ele>
        <time>2022-07-22T17:35:36.000Z</time>
      </trkpt>
      <trkpt lat="45.29775" lon="6.15539">
        <ele>2473</ele>
        <time>2022-07-22T17:35:46.000Z</time>
      </trkpt>
      <trkpt lat="45.29782" lon="6.15574">
        <ele>2469</ele>
        <time>2022-07-22T17:35:56.000Z</time>
      </trkpt>
      <trkpt lat="45.29773" lon="6.1561">
        <ele>2462</ele>
        <time>2022-07-22T17:36:06.000Z</time>
      </trkpt>
      <trkpt lat="45.2977" lon="6.15643">
        <ele>2456</ele>
        <time>2022-07-22T17:36:16.000Z</time>
      </trkpt>
      <trkpt lat="45.29768" lon="6.15677">
        <ele>2449</ele>
        <time>2022-07-22T17:36:26.000Z</time>
      </trkpt>
      <trkpt lat="45.29756" lon="6.1571">
        <ele>2434</ele>
        <time>2022-07-22T17:36:36.000Z</time>
      </trkpt>
      <trkpt lat="45.29741" lon="6.1577">
        <ele>2421</ele>
        <time>2022-07-22T17:36:46.000Z</time>
      </trkpt>
      <trkpt lat="45.2973" lon="6.15809">
        <ele>2417</ele>
        <time>2022-07-22T17:36:56.000Z</time>
      </trkpt>
      <trkpt lat="45.29709" lon="6.15831">
        <ele>2413</ele>
        <time>2022-07-22T17:37:06.000Z</time>
      </trkpt>
      <trkpt lat="45.29682" lon="6.15859">
        <ele>2402</ele>
        <time>2022-07-22T17:37:16.000Z</time>
      </trkpt>
      <trkpt lat="45.29677" lon="6.15899">
        <ele>2392</ele>
        <time>2022-07-22T17:37:26.000Z</time>
      </trkpt>
      <trkpt lat="45.2967" lon="6.15959">
        <ele>2383</ele>
        <time>2022-07-22T17:37:36.000Z</time>
      </trkpt>
      <trkpt lat="45.29663" lon="6.16012">
        <ele>2378</ele>
        <time>2022-07-22T17:37:46.000Z</time>
      </trkpt>
      <trkpt lat="45.29657" lon="6.16065">
        <ele>2369</ele>
        <time>2022-07-22T17:37:56.000Z</time>
      </trkpt>
      <trkpt lat="45.2965" lon="6.16117">
        <ele>2359</ele>
        <time>2022-07-22T17:38:06.000Z</time>
      </trkpt>
      <trkpt lat="45.29656" lon="6.16159">
        <ele>2355</ele>
        <time>2022-07-22T17:38:16.000Z</time>
      </trkpt>
      <trkpt lat="45.2966" lon="6.16193">
        <ele>2347</ele>
        <time>2022-07-22T17:38:26.000Z</time>
      </trkpt>
      <trkpt lat="45.29665" lon="6.16229">
        <ele>2339</ele>
        <time>2022-07-22T17:38:36.000Z</time>
      </trkpt>
      <trkpt lat="45.29689" lon="6.16266">
        <ele>2329</ele>
        <time>2022-07-22T17:38:46.000Z</time>
      </trkpt>
      <trkpt lat="45.29694" lon="6.16278">
        <ele>2332.8</ele>
        <time>2022-07-22T17:38:56.000Z</time>
      </trkpt>
      <trkpt lat="45.29728" lon="6.16294">
        <ele>2325</ele>
        <time>2022-07-22T17:39:06.000Z</time>
      </trkpt>
      <trkpt lat="45.29738" lon="6.16327">
        <ele>2310</ele>
        <time>2022-07-22T17:39:16.000Z</time>
      </trkpt>
      <trkpt lat="45.2974" lon="6.16346">
        <ele>2301.3</ele>
        <time>2022-07-22T17:39:26.000Z</time>
      </trkpt>
      <trkpt lat="45.29737" lon="6.16453">
        <ele>2286</ele>
        <time>2022-07-22T17:39:36.000Z</time>
      </trkpt>
      <trkpt lat="45.29732" lon="6.16506">
        <ele>2277</ele>
        <time>2022-07-22T17:39:46.000Z</time>
      </trkpt>
      <trkpt lat="45.29739" lon="6.16569">
        <ele>2273</ele>
        <time>2022-07-22T17:39:56.000Z</time>
      </trkpt>
      <trkpt lat="45.29747" lon="6.16604">
        <ele>2267</ele>
        <time>2022-07-22T17:40:06.000Z</time>
      </trkpt>
      <trkpt lat="45.29751" lon="6.1664">
        <ele>2260</ele>
        <time>2022-07-22T17:40:16.000Z</time>
      </trkpt>
      <trkpt lat="45.29776" lon="6.16696">
        <ele>2235</ele>
        <time>2022-07-22T17:40:26.000Z</time>
      </trkpt>
      <trkpt lat="45.2979" lon="6.16724">
        <ele>2231</ele>
        <time>2022-07-22T17:40:36.000Z</time>
      </trkpt>
      <trkpt lat="45.29804" lon="6.16755">
        <ele>2211</ele>
        <time>2022-07-22T17:40:46.000Z</time>
      </trkpt>
      <trkpt lat="45.2982" lon="6.16792">
        <ele>2189</ele>
        <time>2022-07-22T17:40:56.000Z</time>
      </trkpt>
      <trkpt lat="45.2984" lon="6.16828">
        <ele>2177</ele>
        <time>2022-07-22T17:41:06.000Z</time>
      </trkpt>
      <trkpt lat="45.29858" lon="6.16859">
        <ele>2152</ele>
        <time>2022-07-22T17:41:16.000Z</time>
      </trkpt>
      <trkpt lat="45.29885" lon="6.16906">
        <ele>2133</ele>
        <time>2022-07-22T17:41:26.000Z</time>
      </trkpt>
      <trkpt lat="45.29897" lon="6.16937">
        <ele>2130</ele>
        <time>2022-07-22T17:41:36.000Z</time>
      </trkpt>
      <trkpt lat="45.29908" lon="6.16969">
        <ele>2108</ele>
        <time>2022-07-22T17:41:46.000Z</time>
      </trkpt>
      <trkpt lat="45.29924" lon="6.17009">
        <ele>2089</ele>
        <time>2022-07-22T17:41:56.000Z</time>
      </trkpt>
      <trkpt lat="45.29939" lon="6.17036">
        <ele>2075</ele>
        <time>2022-07-22T17:42:06.000Z</time>
      </trkpt>
      <trkpt lat="45.29954" lon="6.17064">
        <ele>2049</ele>
        <time>2022-07-22T17:42:16.000Z</time>
      </trkpt>
      <trkpt lat="45.2997" lon="6.17088">
        <ele>2030</ele>
        <time>2022-07-22T17:42:26.000Z</time>
      </trkpt>
      <trkpt lat="45.29991" lon="6.17118">
        <ele>2009</ele>
        <time>2022-07-22T17:42:36.000Z</time>
      </trkpt>
      <trkpt lat="45.30008" lon="6.17158">
        <ele>2001</ele>
        <time>2022-07-22T17:42:46.000Z</time>
      </trkpt>
      <trkpt lat="45.3003" lon="6.1719">
        <ele>1975</ele>
        <time>2022-07-22T17:42:56.000Z</time>
      </trkpt>
      <trkpt lat="45.30049" lon="6.17226">
        <ele>1969</ele>
        <time>2022-07-22T17:43:06.000Z</time>
      </trkpt>
      <trkpt lat="45.30057" lon="6.17266">
        <ele>1955</ele>
        <time>2022-07-22T17:43:16.000Z</time>
      </trkpt>
      <trkpt lat="45.30055" lon="6.17307">
        <ele>1935</ele>
        <time>2022-07-22T17:43:26.000Z</time>
      </trkpt>
      <trkpt lat="45.30085" lon="6.17351">
        <ele>1910</ele>
        <time>2022-07-22T17:43:36.000Z</time>
      </trkpt>
      <trkpt lat="45.30072" lon="6.17378">
        <ele>1910</ele>
        <time>2022-07-22T17:43:46.000Z</time>
      </trkpt>
      <trkpt lat="45.30108" lon="6.174">
        <ele>1898</ele>
        <time>2022-07-22T17:43:56.000Z</time>
      </trkpt>
      <trkpt lat="45.30112" lon="6.17438">
        <ele>1886</ele>
        <time>2022-07-22T17:44:06.000Z</time>
      </trkpt>
      <trkpt lat="45.30117" lon="6.17489">
        <ele>1861</ele>
        <time>2022-07-22T17:44:16.000Z</time>
      </trkpt>
      <trkpt lat="45.3011" lon="6.17543">
        <ele>1850</ele>
        <time>2022-07-22T17:44:26.000Z</time>
      </trkpt>
      <trkpt lat="45.3013" lon="6.17592">
        <ele>1837</ele>
        <time>2022-07-22T17:44:36.000Z</time>
      </trkpt>
      <trkpt lat="45.30143" lon="6.17639">
        <ele>1831</ele>
        <time>2022-07-22T17:44:46.000Z</time>
      </trkpt>
      <trkpt lat="45.30159" lon="6.17669">
        <ele>1819</ele>
        <time>2022-07-22T17:44:56.000Z</time>
      </trkpt>
      <trkpt lat="45.30178" lon="6.17705">
        <ele>1803</ele>
        <time>2022-07-22T17:45:06.000Z</time>
      </trkpt>
      <trkpt lat="45.30198" lon="6.17744">
        <ele>1791</ele>
        <time>2022-07-22T17:45:16.000Z</time>
      </trkpt>
      <trkpt lat="45.30211" lon="6.17795">
        <ele>1786</ele>
        <time>2022-07-22T17:45:26.000Z</time>
      </trkpt>
      <trkpt lat="45.30227" lon="6.17824">
        <ele>1773</ele>
        <time>2022-07-22T17:45:36.000Z</time>
      </trkpt>
      <trkpt lat="45.30244" lon="6.17864">
        <ele>1773</ele>
        <time>2022-07-22T17:45:46.000Z</time>
      </trkpt>
      <trkpt lat="45.30245" lon="6.17914">
        <ele>1771</ele>
        <time>2022-07-22T17:45:56.000Z</time>
      </trkpt>
      <trkpt lat="45.30252" lon="6.17936">
        <ele>1759.9</ele>
        <time>2022-07-22T17:46:06.000Z</time>
      </trkpt>
      <trkpt lat="45.30297" lon="6.18002">
        <ele>1782</ele>
        <time>2022-07-22T17:46:16.000Z</time>
      </trkpt>
      <trkpt lat="45.30311" lon="6.17952">
        <ele>1794</ele>
        <time>2022-07-22T17:46:26.000Z</time>
      </trkpt>
      <trkpt lat="45.30326" lon="6.1798">
        <ele>1801</ele>
        <time>2022-07-22T17:46:36.000Z</time>
      </trkpt>
      <trkpt lat="45.30331" lon="6.17942">
        <ele>1806</ele>
        <time>2022-07-22T17:46:46.000Z</time>
      </trkpt>
      <trkpt lat="45.30338" lon="6.17893">
        <ele>1812</ele>
        <time>2022-07-22T17:46:56.000Z</time>
      </trkpt>
      <trkpt lat="45.3037" lon="6.17901">
        <ele>1819</ele>
        <time>2022-07-22T17:47:06.000Z</time>
      </trkpt>
      <trkpt lat="45.30397" lon="6.1789">
        <ele>1826</ele>
        <time>2022-07-22T17:47:16.000Z</time>
      </trkpt>
      <trkpt lat="45.30416" lon="6.1787">
        <ele>1844</ele>
        <time>2022-07-22T17:47:26.000Z</time>
      </trkpt>
      <trkpt lat="45.30444" lon="6.17869">
        <ele>1858</ele>
        <time>2022-07-22T17:47:36.000Z</time>
      </trkpt>
      <trkpt lat="45.30456" lon="6.1789">
        <ele>1858</ele>
        <time>2022-07-22T17:47:46.000Z</time>
      </trkpt>
      <trkpt lat="45.30465" lon="6.1787">
        <ele>1868.6</ele>
        <time>2022-07-22T17:47:56.000Z</time>
      </trkpt>
      <trkpt lat="45.30476" lon="6.17859">
        <ele>1872</ele>
        <time>2022-07-22T17:48:06.000Z</time>
      </trkpt>
      <trkpt lat="45.30499" lon="6.17845">
        <ele>1884</ele>
        <time>2022-07-22T17:48:16.000Z</time>
      </trkpt>
      <trkpt lat="45.30506" lon="6.17833">
        <ele>1893.8</ele>
        <time>2022-07-22T17:48:26.000Z</time>
      </trkpt>
      <trkpt lat="45.30546" lon="6.17842">
        <ele>1895</ele>
        <time>2022-07-22T17:48:36.000Z</time>
      </trkpt>
      <trkpt lat="45.30576" lon="6.17836">
        <ele>1938</ele>
        <time>2022-07-22T17:48:46.000Z</time>
      </trkpt>
      <trkpt lat="45.30589" lon="6.17823">
        <ele>1939.3</ele>
        <time>2022-07-22T17:48:56.000Z</time>
      </trkpt>
      <trkpt lat="45.30629" lon="6.17849">
        <ele>1958</ele>
        <time>2022-07-22T17:49:06.000Z</time>
      </trkpt>
      <trkpt lat="45.30635" lon="6.17856">
        <ele>1970.9</ele>
        <time>2022-07-22T17:49:16.000Z</time>
      </trkpt>
      <trkpt lat="45.30655" lon="6.17894">
        <ele>1983</ele>
        <time>2022-07-22T17:49:26.000Z</time>
      </trkpt>
      <trkpt lat="45.3068" lon="6.17884">
        <ele>2005</ele>
        <time>2022-07-22T17:49:36.000Z</time>
      </trkpt>
      <trkpt lat="45.30683" lon="6.17898">
        <ele>2006.4</ele>
        <time>2022-07-22T17:49:46.000Z</time>
      </trkpt>
      <trkpt lat="45.30723" lon="6.17936">
        <ele>2033</ele>
        <time>2022-07-22T17:49:56.000Z</time>
      </trkpt>
      <trkpt lat="45.30731" lon="6.17948">
        <ele>2032.1</ele>
        <time>2022-07-22T17:50:06.000Z</time>
      </trkpt>
      <trkpt lat="45.30714" lon="6.17987">
        <ele>2035</ele>
        <time>2022-07-22T17:50:16.000Z</time>
      </trkpt>
      <trkpt lat="45.30705" lon="6.18023">
        <ele>2038</ele>
        <time>2022-07-22T17:50:26.000Z</time>
      </trkpt>
      <trkpt lat="45.30694" lon="6.18072">
        <ele>2033</ele>
        <time>2022-07-22T17:50:36.000Z</time>
      </trkpt>
      <trkpt lat="45.30683" lon="6.18114">
        <ele>2031</ele>
        <time>2022-07-22T17:50:46.000Z</time>
      </trkpt>
      <trkpt lat="45.30687" lon="6.18149">
        <ele>2036</ele>
        <time>2022-07-22T17:50:56.000Z</time>
      </trkpt>
      <trkpt lat="45.30692" lon="6.18188">
        <ele>2034</ele>
        <time>2022-07-22T17:51:06.000Z</time>
      </trkpt>
      <trkpt lat="45.30672" lon="6.1822">
        <ele>2035</ele>
        <time>2022-07-22T17:51:16.000Z</time>
      </trkpt>
      <trkpt lat="45.30656" lon="6.18247">
        <ele>2036</ele>
        <time>2022-07-22T17:51:26.000Z</time>
      </trkpt>
      <trkpt lat="45.30638" lon="6.18277">
        <ele>2032</ele>
        <time>2022-07-22T17:51:36.000Z</time>
      </trkpt>
      <trkpt lat="45.30628" lon="6.1831">
        <ele>2028</ele>
        <time>2022-07-22T17:51:46.000Z</time>
      </trkpt>
      <trkpt lat="45.30617" lon="6.18346">
        <ele>2021</ele>
        <time>2022-07-22T17:51:56.000Z</time>
      </trkpt>
      <trkpt lat="45.30617" lon="6.18389">
        <ele>2016</ele>
        <time>2022-07-22T17:52:06.000Z</time>
      </trkpt>
      <trkpt lat="45.30617" lon="6.18462">
        <ele>2012</ele>
        <time>2022-07-22T17:52:16.000Z</time>
      </trkpt>
      <trkpt lat="45.30618" lon="6.18507">
        <ele>2011</ele>
        <time>2022-07-22T17:52:26.000Z</time>
      </trkpt>
      <trkpt lat="45.3062" lon="6.18544">
        <ele>2011</ele>
        <time>2022-07-22T17:52:36.000Z</time>
      </trkpt>
      <trkpt lat="45.30622" lon="6.186">
        <ele>2014</ele>
        <time>2022-07-22T17:52:46.000Z</time>
      </trkpt>
      <trkpt lat="45.30624" lon="6.18639">
        <ele>2014</ele>
        <time>2022-07-22T17:52:56.000Z</time>
      </trkpt>
      <trkpt lat="45.30617" lon="6.1869">
        <ele>2014</ele>
        <time>2022-07-22T17:53:06.000Z</time>
      </trkpt>
      <trkpt lat="45.30623" lon="6.18745">
        <ele>2020</ele>
        <time>2022-07-22T17:53:16.000Z</time>
      </trkpt>
      <trkpt lat="45.30629" lon="6.18785">
        <ele>2021</ele>
        <time>2022-07-22T17:53:26.000Z</time>
      </trkpt>
      <trkpt lat="45.3063" lon="6.18821">
        <ele>2027</ele>
        <time>2022-07-22T17:53:36.000Z</time>
      </trkpt>
      <trkpt lat="45.30631" lon="6.18861">
        <ele>2030</ele>
        <time>2022-07-22T17:53:46.000Z</time>
      </trkpt>
      <trkpt lat="45.3063" lon="6.18902">
        <ele>2033</ele>
        <time>2022-07-22T17:53:56.000Z</time>
      </trkpt>
      <trkpt lat="45.30627" lon="6.18944">
        <ele>2045</ele>
        <time>2022-07-22T17:54:06.000Z</time>
      </trkpt>
      <trkpt lat="45.30639" lon="6.18991">
        <ele>2064</ele>
        <time>2022-07-22T17:54:16.000Z</time>
      </trkpt>
      <trkpt lat="45.30653" lon="6.19033">
        <ele>2068</ele>
        <time>2022-07-22T17:54:26.000Z</time>
      </trkpt>
      <trkpt lat="45.30652" lon="6.19078">
        <ele>2070</ele>
        <time>2022-07-22T17:54:36.000Z</time>
      </trkpt>
      <trkpt lat="45.30671" lon="6.19131">
        <ele>2077</ele>
        <time>2022-07-22T17:54:46.000Z</time>
      </trkpt>
      <trkpt lat="45.30704" lon="6.19171">
        <ele>2086</ele>
        <time>2022-07-22T17:54:56.000Z</time>
      </trkpt>
      <trkpt lat="45.30713" lon="6.19178">
        <ele>2096.4</ele>
        <time>2022-07-22T17:55:06.000Z</time>
      </trkpt>
      <trkpt lat="45.30756" lon="6.19187">
        <ele>2114</ele>
        <time>2022-07-22T17:55:16.000Z</time>
      </trkpt>
      <trkpt lat="45.30774" lon="6.1921">
        <ele>2121</ele>
        <time>2022-07-22T17:55:26.000Z</time>
      </trkpt>
      <trkpt lat="45.30793" lon="6.19234">
        <ele>2121</ele>
        <time>2022-07-22T17:55:36.000Z</time>
      </trkpt>
      <trkpt lat="45.30829" lon="6.19258">
        <ele>2130</ele>
        <time>2022-07-22T17:55:46.000Z</time>
      </trkpt>
      <trkpt lat="45.30863" lon="6.19276">
        <ele>2135</ele>
        <time>2022-07-22T17:55:56.000Z</time>
      </trkpt>
      <trkpt lat="45.30888" lon="6.193">
        <ele>2142</ele>
        <time>2022-07-22T17:56:06.000Z</time>
      </trkpt>
      <trkpt lat="45.30918" lon="6.19326">
        <ele>2173</ele>
        <time>2022-07-22T17:56:16.000Z</time>
      </trkpt>
      <trkpt lat="45.30948" lon="6.19337">
        <ele>2178</ele>
        <time>2022-07-22T17:56:26.000Z</time>
      </trkpt>
      <trkpt lat="45.31006" lon="6.19357">
        <ele>2185</ele>
        <time>2022-07-22T17:56:36.000Z</time>
      </trkpt>
      <trkpt lat="45.31014" lon="6.19342">
        <ele>2177.4</ele>
        <time>2022-07-22T17:56:46.000Z</time>
      </trkpt>
      <trkpt lat="45.31056" lon="6.19354">
        <ele>2196</ele>
        <time>2022-07-22T17:56:56.000Z</time>
      </trkpt>
      <trkpt lat="45.31079" lon="6.19362">
        <ele>2210</ele>
        <time>2022-07-22T17:57:06.000Z</time>
      </trkpt>
      <trkpt lat="45.31096" lon="6.19384">
        <ele>2215</ele>
        <time>2022-07-22T17:57:16.000Z</time>
      </trkpt>
      <trkpt lat="45.3111" lon="6.19393">
        <ele>2210.3</ele>
        <time>2022-07-22T17:57:26.000Z</time>
      </trkpt>
      <trkpt lat="45.31132" lon="6.19389">
        <ele>2259</ele>
        <time>2022-07-22T17:57:36.000Z</time>
      </trkpt>
      <trkpt lat="45.31152" lon="6.19398">
        <ele>2259</ele>
        <time>2022-07-22T17:57:46.000Z</time>
      </trkpt>
      <trkpt lat="45.31192" lon="6.19414">
        <ele>2276</ele>
        <time>2022-07-22T17:57:56.000Z</time>
      </trkpt>
      <trkpt lat="45.31204" lon="6.19406">
        <ele>2272.3</ele>
        <time>2022-07-22T17:58:06.000Z</time>
      </trkpt>
      <trkpt lat="45.31238" lon="6.19436">
        <ele>2293</ele>
        <time>2022-07-22T17:58:16.000Z</time>
      </trkpt>
      <trkpt lat="45.31269" lon="6.19455">
        <ele>2309</ele>
        <time>2022-07-22T17:58:26.000Z</time>
      </trkpt>
      <trkpt lat="45.31299" lon="6.19474">
        <ele>2328</ele>
        <time>2022-07-22T17:58:36.000Z</time>
      </trkpt>
      <trkpt lat="45.31343" lon="6.19501">
        <ele>2352</ele>
        <time>2022-07-22T17:58:46.000Z</time>
      </trkpt>
      <trkpt lat="45.31351" lon="6.19518">
        <ele>2341.8</ele>
        <time>2022-07-22T17:58:56.000Z</time>
      </trkpt>
      <trkpt lat="45.31379" lon="6.19532">
        <ele>2376</ele>
        <time>2022-07-22T17:59:06.000Z</time>
      </trkpt>
      <trkpt lat="45.31397" lon="6.1955">
        <ele>2377</ele>
        <time>2022-07-22T17:59:16.000Z</time>
      </trkpt>
      <trkpt lat="45.31421" lon="6.19563">
        <ele>2378</ele>
        <time>2022-07-22T17:59:26.000Z</time>
      </trkpt>
      <trkpt lat="45.31449" lon="6.19582">
        <ele>2383</ele>
        <time>2022-07-22T17:59:36.000Z</time>
      </trkpt>
      <trkpt lat="45.31476" lon="6.19616">
        <ele>2387</ele>
        <time>2022-07-22T17:59:46.000Z</time>
      </trkpt>
      <trkpt lat="45.31463" lon="6.19637">
        <ele>2393</ele>
        <time>2022-07-22T17:59:56.000Z</time>
      </trkpt>
      <trkpt lat="45.31467" lon="6.1966">
        <ele>2399.2</ele>
        <time>2022-07-22T18:00:06.000Z</time>
      </trkpt>
      <trkpt lat="45.31445" lon="6.1968">
        <ele>2406</ele>
        <time>2022-07-22T18:00:16.000Z</time>
      </trkpt>
      <trkpt lat="45.31427" lon="6.1967">
        <ele>2410</ele>
        <time>2022-07-22T18:00:26.000Z</time>
      </trkpt>
      <trkpt lat="45.31404" lon="6.19674">
        <ele>2416</ele>
        <time>2022-07-22T18:00:36.000Z</time>
      </trkpt>
      <trkpt lat="45.31376" lon="6.19684">
        <ele>2417</ele>
        <time>2022-07-22T18:00:46.000Z</time>
      </trkpt>
      <trkpt lat="45.31409" lon="6.19704">
        <ele>2431</ele>
        <time>2022-07-22T18:00:56.000Z</time>
      </trkpt>
      <trkpt lat="45.31436" lon="6.19712">
        <ele>2426</ele>
        <time>2022-07-22T18:01:06.000Z</time>
      </trkpt>
      <trkpt lat="45.31471" lon="6.19722">
        <ele>2421</ele>
        <time>2022-07-22T18:01:16.000Z</time>
      </trkpt>
      <trkpt lat="45.31507" lon="6.19717">
        <ele>2422</ele>
        <time>2022-07-22T18:01:26.000Z</time>
      </trkpt>
      <trkpt lat="45.31534" lon="6.19712">
        <ele>2424</ele>
        <time>2022-07-22T18:01:36.000Z</time>
      </trkpt>
      <trkpt lat="45.31557" lon="6.19702">
        <ele>2436</ele>
        <time>2022-07-22T18:01:46.000Z</time>
      </trkpt>
      <trkpt lat="45.3158" lon="6.19691">
        <ele>2443</ele>
        <time>2022-07-22T18:01:56.000Z</time>
      </trkpt>
      <trkpt lat="45.31612" lon="6.19648">
        <ele>2442</ele>
        <time>2022-07-22T18:02:06.000Z</time>
      </trkpt>
      <trkpt lat="45.31628" lon="6.19623">
        <ele>2441</ele>
        <time>2022-07-22T18:02:16.000Z</time>
      </trkpt>
      <trkpt lat="45.31644" lon="6.19597">
        <ele>2436</ele>
        <time>2022-07-22T18:02:26.000Z</time>
      </trkpt>
      <trkpt lat="45.31664" lon="6.19577">
        <ele>2436</ele>
        <time>2022-07-22T18:02:36.000Z</time>
      </trkpt>
      <trkpt lat="45.31684" lon="6.19556">
        <ele>2435</ele>
        <time>2022-07-22T18:02:46.000Z</time>
      </trkpt>
      <trkpt lat="45.31706" lon="6.19538">
        <ele>2435</ele>
        <time>2022-07-22T18:02:56.000Z</time>
      </trkpt>
      <trkpt lat="45.31731" lon="6.19518">
        <ele>2439</ele>
        <time>2022-07-22T18:03:06.000Z</time>
      </trkpt>
      <trkpt lat="45.31748" lon="6.19489">
        <ele>2444</ele>
        <time>2022-07-22T18:03:16.000Z</time>
      </trkpt>
      <trkpt lat="45.31769" lon="6.19453">
        <ele>2449</ele>
        <time>2022-07-22T18:03:26.000Z</time>
      </trkpt>
      <trkpt lat="45.3181" lon="6.19474">
        <ele>2447</ele>
        <time>2022-07-22T18:03:36.000Z</time>
      </trkpt>
      <trkpt lat="45.31814" lon="6.19475">
        <ele>2441.8</ele>
        <time>2022-07-22T18:03:46.000Z</time>
      </trkpt>
      <trkpt lat="45.31819" lon="6.1948">
        <ele>2439.3</ele>
        <time>2022-07-22T18:03:56.000Z</time>
      </trkpt>
      <trkpt lat="45.31824" lon="6.19481">
        <ele>2436.2</ele>
        <time>2022-07-22T18:04:06.000Z</time>
      </trkpt>
      <trkpt lat="45.3183" lon="6.19481">
        <ele>2446</ele>
        <time>2022-07-22T18:04:16.000Z</time>
      </trkpt>
      <trkpt lat="45.31833" lon="6.19484">
        <ele>2430.8</ele>
        <time>2022-07-22T18:04:26.000Z</time>
      </trkpt>
      <trkpt lat="45.31835" lon="6.19485">
        <ele>2429.8</ele>
        <time>2022-07-22T18:04:36.000Z</time>
      </trkpt>
      <trkpt lat="45.31842" lon="6.19484">
        <ele>2425.5</ele>
        <time>2022-07-22T18:04:46.000Z</time>
      </trkpt>
      <trkpt lat="45.31847" lon="6.19487">
        <ele>2423.4</ele>
        <time>2022-07-22T18:04:56.000Z</time>
      </trkpt>
      <trkpt lat="45.31851" lon="6.19488">
        <ele>2430</ele>
        <time>2022-07-22T18:05:06.000Z</time>
      </trkpt>
      <trkpt lat="45.31861" lon="6.19486">
        <ele>2415</ele>
        <time>2022-07-22T18:05:16.000Z</time>
      </trkpt>
      <trkpt lat="45.31889" lon="6.19488">
        <ele>2415</ele>
        <time>2022-07-22T18:05:26.000Z</time>
      </trkpt>
      <trkpt lat="45.31894" lon="6.19489">
        <ele>2401.6</ele>
        <time>2022-07-22T18:05:36.000Z</time>
      </trkpt>
      <trkpt lat="45.319" lon="6.19489">
        <ele>2399</ele>
        <time>2022-07-22T18:05:46.000Z</time>
      </trkpt>
      <trkpt lat="45.31914" lon="6.19491">
        <ele>2397</ele>
        <time>2022-07-22T18:05:56.000Z</time>
      </trkpt>
      <trkpt lat="45.31918" lon="6.19494">
        <ele>2392.7</ele>
        <time>2022-07-22T18:06:06.000Z</time>
      </trkpt>
      <trkpt lat="45.31923" lon="6.19495">
        <ele>2390.7</ele>
        <time>2022-07-22T18:06:16.000Z</time>
      </trkpt>
      <trkpt lat="45.31926" lon="6.19497">
        <ele>2389.9</ele>
        <time>2022-07-22T18:06:26.000Z</time>
      </trkpt>
      <trkpt lat="45.3193" lon="6.19498">
        <ele>2388.3</ele>
        <time>2022-07-22T18:06:36.000Z</time>
      </trkpt>
      <trkpt lat="45.31932" lon="6.19497">
        <ele>2397</ele>
        <time>2022-07-22T18:06:46.000Z</time>
      </trkpt>
      <trkpt lat="45.31942" lon="6.195">
        <ele>2383.1</ele>
        <time>2022-07-22T18:06:56.000Z</time>
      </trkpt>
      <trkpt lat="45.31951" lon="6.19501">
        <ele>2380</ele>
        <time>2022-07-22T18:07:06.000Z</time>
      </trkpt>
      <trkpt lat="45.31955" lon="6.19502">
        <ele>2377.3</ele>
        <time>2022-07-22T18:07:16.000Z</time>
      </trkpt>
      <trkpt lat="45.3196" lon="6.19505">
        <ele>2375.6</ele>
        <time>2022-07-22T18:07:26.000Z</time>
      </trkpt>
      <trkpt lat="45.31966" lon="6.195">
        <ele>2371.1</ele>
        <time>2022-07-22T18:07:36.000Z</time>
      </trkpt>
      <trkpt lat="45.31972" lon="6.195">
        <ele>2367</ele>
        <time>2022-07-22T18:07:46.000Z</time>
      </trkpt>
      <trkpt lat="45.31974" lon="6.19498">
        <ele>2366.7</ele>
        <time>2022-07-22T18:07:56.000Z</time>
      </trkpt>
      <trkpt lat="45.31978" lon="6.19497">
        <ele>2364.5</ele>
        <time>2022-07-22T18:08:06.000Z</time>
      </trkpt>
      <trkpt lat="45.31978" lon="6.19491">
        <ele>2363.4</ele>
        <time>2022-07-22T18:08:16.000Z</time>
      </trkpt>
      <trkpt lat="45.31981" lon="6.19486">
        <ele>2360.9</ele>
        <time>2022-07-22T18:08:26.000Z</time>
      </trkpt>
      <trkpt lat="45.31984" lon="6.19483">
        <ele>2364</ele>
        <time>2022-07-22T18:08:36.000Z</time>
      </trkpt>
      <trkpt lat="45.31988" lon="6.19484">
        <ele>2356.8</ele>
        <time>2022-07-22T18:08:46.000Z</time>
      </trkpt>
      <trkpt lat="45.31996" lon="6.19483">
        <ele>2352.4</ele>
        <time>2022-07-22T18:08:56.000Z</time>
      </trkpt>
      <trkpt lat="45.32003" lon="6.19491">
        <ele>2354</ele>
        <time>2022-07-22T18:09:06.000Z</time>
      </trkpt>
      <trkpt lat="45.32005" lon="6.19492">
        <ele>2350.7</ele>
        <time>2022-07-22T18:09:16.000Z</time>
      </trkpt>
      <trkpt lat="45.32011" lon="6.19491">
        <ele>2348.5</ele>
        <time>2022-07-22T18:09:26.000Z</time>
      </trkpt>
      <trkpt lat="45.32015" lon="6.19488">
        <ele>2346.4</ele>
        <time>2022-07-22T18:09:36.000Z</time>
      </trkpt>
      <trkpt lat="45.32021" lon="6.19489">
        <ele>2344.7</ele>
        <time>2022-07-22T18:09:46.000Z</time>
      </trkpt>
      <trkpt lat="45.32024" lon="6.19488">
        <ele>2343</ele>
        <time>2022-07-22T18:09:56.000Z</time>
      </trkpt>
      <trkpt lat="45.32024" lon="6.19485">
        <ele>2342.4</ele>
        <time>2022-07-22T18:10:06.000Z</time>
      </trkpt>
      <trkpt lat="45.32026" lon="6.19486">
        <ele>2342.1</ele>
        <time>2022-07-22T18:10:16.000Z</time>
      </trkpt>
      <trkpt lat="45.32028" lon="6.19484">
        <ele>2340.7</ele>
        <time>2022-07-22T18:10:26.000Z</time>
      </trkpt>
      <trkpt lat="45.32033" lon="6.19484">
        <ele>2339.1</ele>
        <time>2022-07-22T18:10:36.000Z</time>
      </trkpt>
      <trkpt lat="45.32036" lon="6.19485">
        <ele>2338.4</ele>
        <time>2022-07-22T18:10:46.000Z</time>
      </trkpt>
      <trkpt lat="45.3204" lon="6.19489">
        <ele>2343</ele>
        <time>2022-07-22T18:10:56.000Z</time>
      </trkpt>
      <trkpt lat="45.3204" lon="6.19483">
        <ele>2336.5</ele>
        <time>2022-07-22T18:11:06.000Z</time>
      </trkpt>
      <trkpt lat="45.32041" lon="6.19482">
        <ele>2335.9</ele>
        <time>2022-07-22T18:11:16.000Z</time>
      </trkpt>
      <trkpt lat="45.32042" lon="6.19472">
        <ele>2332.9</ele>
        <time>2022-07-22T18:11:26.000Z</time>
      </trkpt>
      <trkpt lat="45.32044" lon="6.1947">
        <ele>2331.8</ele>
        <time>2022-07-22T18:11:36.000Z</time>
      </trkpt>
      <trkpt lat="45.32046" lon="6.19466">
        <ele>2330.4</ele>
        <time>2022-07-22T18:11:46.000Z</time>
      </trkpt>
      <trkpt lat="45.32046" lon="6.19457">
        <ele>2341</ele>
        <time>2022-07-22T18:11:56.000Z</time>
      </trkpt>
      <trkpt lat="45.32048" lon="6.19451">
        <ele>2326.6</ele>
        <time>2022-07-22T18:12:06.000Z</time>
      </trkpt>
      <trkpt lat="45.32053" lon="6.19447">
        <ele>2324.3</ele>
        <time>2022-07-22T18:12:16.000Z</time>
      </trkpt>
      <trkpt lat="45.32059" lon="6.19444">
        <ele>2322</ele>
        <time>2022-07-22T18:12:26.000Z</time>
      </trkpt>
      <trkpt lat="45.32062" lon="6.19444">
        <ele>2335</ele>
        <time>2022-07-22T18:12:36.000Z</time>
      </trkpt>
      <trkpt lat="45.32066" lon="6.19441">
        <ele>2320.3</ele>
        <time>2022-07-22T18:12:46.000Z</time>
      </trkpt>
      <trkpt lat="45.32074" lon="6.19442">
        <ele>2318</ele>
        <time>2022-07-22T18:12:56.000Z</time>
      </trkpt>
      <trkpt lat="45.32076" lon="6.1944">
        <ele>2317.8</ele>
        <time>2022-07-22T18:13:06.000Z</time>
      </trkpt>
      <trkpt lat="45.3208" lon="6.1944">
        <ele>2332</ele>
        <time>2022-07-22T18:13:16.000Z</time>
      </trkpt>
      <trkpt lat="45.32085" lon="6.19437">
        <ele>2316.1</ele>
        <time>2022-07-22T18:13:26.000Z</time>
      </trkpt>
      <trkpt lat="45.32087" lon="6.19437">
        <ele>2315.6</ele>
        <time>2022-07-22T18:13:36.000Z</time>
      </trkpt>
      <trkpt lat="45.32091" lon="6.19433">
        <ele>2315.6</ele>
        <time>2022-07-22T18:13:46.000Z</time>
      </trkpt>
      <trkpt lat="45.32093" lon="6.19432">
        <ele>2315.3</ele>
        <time>2022-07-22T18:13:56.000Z</time>
      </trkpt>
      <trkpt lat="45.32096" lon="6.19433">
        <ele>2314.3</ele>
        <time>2022-07-22T18:14:06.000Z</time>
      </trkpt>
      <trkpt lat="45.32101" lon="6.19436">
        <ele>2331</ele>
        <time>2022-07-22T18:14:16.000Z</time>
      </trkpt>
      <trkpt lat="45.32103" lon="6.19435">
        <ele>2311.9</ele>
        <time>2022-07-22T18:14:26.000Z</time>
      </trkpt>
      <trkpt lat="45.32106" lon="6.19436">
        <ele>2310.7</ele>
        <time>2022-07-22T18:14:36.000Z</time>
      </trkpt>
      <trkpt lat="45.3211" lon="6.1944">
        <ele>2308.1</ele>
        <time>2022-07-22T18:14:46.000Z</time>
      </trkpt>
      <trkpt lat="45.32119" lon="6.1944">
        <ele>2325</ele>
        <time>2022-07-22T18:14:56.000Z</time>
      </trkpt>
      <trkpt lat="45.32123" lon="6.19443">
        <ele>2301.4</ele>
        <time>2022-07-22T18:15:06.000Z</time>
      </trkpt>
      <trkpt lat="45.32128" lon="6.1944">
        <ele>2300.3</ele>
        <time>2022-07-22T18:15:16.000Z</time>
      </trkpt>
      <trkpt lat="45.32129" lon="6.1944">
        <ele>2299.8</ele>
        <time>2022-07-22T18:15:26.000Z</time>
      </trkpt>
      <trkpt lat="45.32131" lon="6.19442">
        <ele>2298.2</ele>
        <time>2022-07-22T18:15:36.000Z</time>
      </trkpt>
      <trkpt lat="45.32133" lon="6.19442">
        <ele>2297.4</ele>
        <time>2022-07-22T18:15:46.000Z</time>
      </trkpt>
      <trkpt lat="45.32135" lon="6.19441">
        <ele>2296.8</ele>
        <time>2022-07-22T18:15:56.000Z</time>
      </trkpt>
      <trkpt lat="45.32144" lon="6.19441">
        <ele>2324</ele>
        <time>2022-07-22T18:16:06.000Z</time>
      </trkpt>
      <trkpt lat="45.32153" lon="6.19448">
        <ele>2288</ele>
        <time>2022-07-22T18:16:16.000Z</time>
      </trkpt>
      <trkpt lat="45.32157" lon="6.19446">
        <ele>2285.8</ele>
        <time>2022-07-22T18:16:26.000Z</time>
      </trkpt>
      <trkpt lat="45.32159" lon="6.19446">
        <ele>2284.9</ele>
        <time>2022-07-22T18:16:36.000Z</time>
      </trkpt>
      <trkpt lat="45.32161" lon="6.19445">
        <ele>2283.8</ele>
        <time>2022-07-22T18:16:46.000Z</time>
      </trkpt>
      <trkpt lat="45.32165" lon="6.1944">
        <ele>2324</ele>
        <time>2022-07-22T18:16:56.000Z</time>
      </trkpt>
      <trkpt lat="45.3217" lon="6.19438">
        <ele>2280.1</ele>
        <time>2022-07-22T18:17:06.000Z</time>
      </trkpt>
      <trkpt lat="45.32175" lon="6.19439">
        <ele>2277.6</ele>
        <time>2022-07-22T18:17:16.000Z</time>
      </trkpt>
      <trkpt lat="45.32178" lon="6.19442">
        <ele>2276.2</ele>
        <time>2022-07-22T18:17:26.000Z</time>
      </trkpt>
      <trkpt lat="45.32179" lon="6.19439">
        <ele>2275.7</ele>
        <time>2022-07-22T18:17:36.000Z</time>
      </trkpt>
      <trkpt lat="45.32183" lon="6.19436">
        <ele>2325</ele>
        <time>2022-07-22T18:17:46.000Z</time>
      </trkpt>
      <trkpt lat="45.32192" lon="6.19432">
        <ele>2268.9</ele>
        <time>2022-07-22T18:17:56.000Z</time>
      </trkpt>
      <trkpt lat="45.32194" lon="6.1943">
        <ele>2267.7</ele>
        <time>2022-07-22T18:18:06.000Z</time>
      </trkpt>
      <trkpt lat="45.32195" lon="6.19428">
        <ele>2267</ele>
        <time>2022-07-22T18:18:16.000Z</time>
      </trkpt>
      <trkpt lat="45.32201" lon="6.19423">
        <ele>2315</ele>
        <time>2022-07-22T18:18:26.000Z</time>
      </trkpt>
      <trkpt lat="45.32203" lon="6.19424">
        <ele>2263.2</ele>
        <time>2022-07-22T18:18:36.000Z</time>
      </trkpt>
      <trkpt lat="45.32206" lon="6.19424">
        <ele>2261.9</ele>
        <time>2022-07-22T18:18:46.000Z</time>
      </trkpt>
      <trkpt lat="45.32208" lon="6.19423">
        <ele>2260.9</ele>
        <time>2022-07-22T18:18:56.000Z</time>
      </trkpt>
      <trkpt lat="45.3221" lon="6.19419">
        <ele>2259.2</ele>
        <time>2022-07-22T18:19:06.000Z</time>
      </trkpt>
      <trkpt lat="45.3221" lon="6.19416">
        <ele>2258.8</ele>
        <time>2022-07-22T18:19:16.000Z</time>
      </trkpt>
      <trkpt lat="45.32213" lon="6.1941">
        <ele>2257.9</ele>
        <time>2022-07-22T18:19:26.000Z</time>
      </trkpt>
      <trkpt lat="45.32215" lon="6.1941">
        <ele>2320</ele>
        <time>2022-07-22T18:19:36.000Z</time>
      </trkpt>
      <trkpt lat="45.32224" lon="6.19405">
        <ele>2253.6</ele>
        <time>2022-07-22T18:19:46.000Z</time>
      </trkpt>
      <trkpt lat="45.32229" lon="6.19403">
        <ele>2251.9</ele>
        <time>2022-07-22T18:19:56.000Z</time>
      </trkpt>
      <trkpt lat="45.32232" lon="6.19403">
        <ele>2250.8</ele>
        <time>2022-07-22T18:20:06.000Z</time>
      </trkpt>
      <trkpt lat="45.32233" lon="6.19397">
        <ele>2295</ele>
        <time>2022-07-22T18:20:16.000Z</time>
      </trkpt>
      <trkpt lat="45.32235" lon="6.19395">
        <ele>2249.9</ele>
        <time>2022-07-22T18:20:26.000Z</time>
      </trkpt>
      <trkpt lat="45.32237" lon="6.19396">
        <ele>2249</ele>
        <time>2022-07-22T18:20:36.000Z</time>
      </trkpt>
      <trkpt lat="45.32238" lon="6.19394">
        <ele>2248.6</ele>
        <time>2022-07-22T18:20:46.000Z</time>
      </trkpt>
      <trkpt lat="45.32244" lon="6.19394">
        <ele>2246</ele>
        <time>2022-07-22T18:20:56.000Z</time>
      </trkpt>
      <trkpt lat="45.32252" lon="6.19398">
        <ele>2271</ele>
        <time>2022-07-22T18:21:06.000Z</time>
      </trkpt>
      <trkpt lat="45.32256" lon="6.19392">
        <ele>2240.7</ele>
        <time>2022-07-22T18:21:16.000Z</time>
      </trkpt>
      <trkpt lat="45.32259" lon="6.19393">
        <ele>2239.6</ele>
        <time>2022-07-22T18:21:26.000Z</time>
      </trkpt>
      <trkpt lat="45.32261" lon="6.19392">
        <ele>2238.6</ele>
        <time>2022-07-22T18:21:36.000Z</time>
      </trkpt>
      <trkpt lat="45.32263" lon="6.19388">
        <ele>2237.6</ele>
        <time>2022-07-22T18:21:46.000Z</time>
      </trkpt>
      <trkpt lat="45.32267" lon="6.19385">
        <ele>2271</ele>
        <time>2022-07-22T18:21:56.000Z</time>
      </trkpt>
      <trkpt lat="45.3227" lon="6.19387">
        <ele>2234.7</ele>
        <time>2022-07-22T18:22:06.000Z</time>
      </trkpt>
      <trkpt lat="45.32276" lon="6.19386">
        <ele>2232.2</ele>
        <time>2022-07-22T18:22:16.000Z</time>
      </trkpt>
      <trkpt lat="45.32278" lon="6.19388">
        <ele>2231</ele>
        <time>2022-07-22T18:22:26.000Z</time>
      </trkpt>
      <trkpt lat="45.32279" lon="6.1939">
        <ele>2230.6</ele>
        <time>2022-07-22T18:22:36.000Z</time>
      </trkpt>
      <trkpt lat="45.3229" lon="6.19385">
        <ele>2248</ele>
        <time>2022-07-22T18:22:46.000Z</time>
      </trkpt>
      <trkpt lat="45.323" lon="6.19385">
        <ele>2220.1</ele>
        <time>2022-07-22T18:22:56.000Z</time>
      </trkpt>
      <trkpt lat="45.32302" lon="6.19378">
        <ele>2219.7</ele>
        <time>2022-07-22T18:23:06.000Z</time>
      </trkpt>
      <trkpt lat="45.32304" lon="6.19375">
        <ele>2218.8</ele>
        <time>2022-07-22T18:23:16.000Z</time>
      </trkpt>
      <trkpt lat="45.32313" lon="6.19349">
        <ele>2233</ele>
        <time>2022-07-22T18:23:26.000Z</time>
      </trkpt>
      <trkpt lat="45.3232" lon="6.19334">
        <ele>2216.1</ele>
        <time>2022-07-22T18:23:36.000Z</time>
      </trkpt>
      <trkpt lat="45.32322" lon="6.19327">
        <ele>2216.4</ele>
        <time>2022-07-22T18:23:46.000Z</time>
      </trkpt>
      <trkpt lat="45.32322" lon="6.19324">
        <ele>2229</ele>
        <time>2022-07-22T18:23:56.000Z</time>
      </trkpt>
      <trkpt lat="45.32326" lon="6.1931">
        <ele>2217.8</ele>
        <time>2022-07-22T18:24:06.000Z</time>
      </trkpt>
      <trkpt lat="45.32331" lon="6.19311">
        <ele>2215</ele>
        <time>2022-07-22T18:24:16.000Z</time>
      </trkpt>
      <trkpt lat="45.32332" lon="6.19307">
        <ele>2215.4</ele>
        <time>2022-07-22T18:24:26.000Z</time>
      </trkpt>
      <trkpt lat="45.32334" lon="6.19305">
        <ele>2231</ele>
        <time>2022-07-22T18:24:36.000Z</time>
      </trkpt>
      <trkpt lat="45.32337" lon="6.19297">
        <ele>2216</ele>
        <time>2022-07-22T18:24:46.000Z</time>
      </trkpt>
      <trkpt lat="45.32343" lon="6.19291">
        <ele>2215.2</ele>
        <time>2022-07-22T18:24:56.000Z</time>
      </trkpt>
      <trkpt lat="45.32345" lon="6.19286">
        <ele>2215.7</ele>
        <time>2022-07-22T18:25:06.000Z</time>
      </trkpt>
      <trkpt lat="45.32347" lon="6.19283">
        <ele>2226</ele>
        <time>2022-07-22T18:25:16.000Z</time>
      </trkpt>
      <trkpt lat="45.32347" lon="6.1928">
        <ele>2216.5</ele>
        <time>2022-07-22T18:25:26.000Z</time>
      </trkpt>
      <trkpt lat="45.32349" lon="6.19278">
        <ele>2216.2</ele>
        <time>2022-07-22T18:25:36.000Z</time>
      </trkpt>
      <trkpt lat="45.3235" lon="6.19275">
        <ele>2216.6</ele>
        <time>2022-07-22T18:25:46.000Z</time>
      </trkpt>
      <trkpt lat="45.32361" lon="6.1926">
        <ele>2228</ele>
        <time>2022-07-22T18:25:56.000Z</time>
      </trkpt>
      <trkpt lat="45.32361" lon="6.19258">
        <ele>2216.7</ele>
        <time>2022-07-22T18:26:06.000Z</time>
      </trkpt>
      <trkpt lat="45.32367" lon="6.19251">
        <ele>2216.2</ele>
        <time>2022-07-22T18:26:16.000Z</time>
      </trkpt>
      <trkpt lat="45.32368" lon="6.19248">
        <ele>2216.6</ele>
        <time>2022-07-22T18:26:26.000Z</time>
      </trkpt>
      <trkpt lat="45.32373" lon="6.19242">
        <ele>2216.2</ele>
        <time>2022-07-22T18:26:36.000Z</time>
      </trkpt>
      <trkpt lat="45.32377" lon="6.19232">
        <ele>2226</ele>
        <time>2022-07-22T18:26:46.000Z</time>
      </trkpt>
      <trkpt lat="45.32379" lon="6.1923">
        <ele>2216.8</ele>
        <time>2022-07-22T18:26:56.000Z</time>
      </trkpt>
      <trkpt lat="45.32382" lon="6.19229">
        <ele>2215.6</ele>
        <time>2022-07-22T18:27:06.000Z</time>
      </trkpt>
      <trkpt lat="45.32382" lon="6.19226">
        <ele>2216.5</ele>
        <time>2022-07-22T18:27:16.000Z</time>
      </trkpt>
      <trkpt lat="45.32385" lon="6.19219">
        <ele>2216.9</ele>
        <time>2022-07-22T18:27:26.000Z</time>
      </trkpt>
      <trkpt lat="45.32391" lon="6.19212">
        <ele>2228</ele>
        <time>2022-07-22T18:27:36.000Z</time>
      </trkpt>
      <trkpt lat="45.3239" lon="6.19214">
        <ele>2215.9</ele>
        <time>2022-07-22T18:27:46.000Z</time>
      </trkpt>
      <trkpt lat="45.32397" lon="6.19202">
        <ele>2216.3</ele>
        <time>2022-07-22T18:27:56.000Z</time>
      </trkpt>
      <trkpt lat="45.32404" lon="6.19193">
        <ele>2223</ele>
        <time>2022-07-22T18:28:06.000Z</time>
      </trkpt>
      <trkpt lat="45.32407" lon="6.19186">
        <ele>2216.4</ele>
        <time>2022-07-22T18:28:16.000Z</time>
      </trkpt>
      <trkpt lat="45.32411" lon="6.19173">
        <ele>2218</ele>
        <time>2022-07-22T18:28:26.000Z</time>
      </trkpt>
      <trkpt lat="45.32414" lon="6.19169">
        <ele>2225</ele>
        <time>2022-07-22T18:28:36.000Z</time>
      </trkpt>
      <trkpt lat="45.32416" lon="6.19163">
        <ele>2218.2</ele>
        <time>2022-07-22T18:28:46.000Z</time>
      </trkpt>
      <trkpt lat="45.3242" lon="6.19155">
        <ele>2218.3</ele>
        <time>2022-07-22T18:28:56.000Z</time>
      </trkpt>
      <trkpt lat="45.32423" lon="6.19153">
        <ele>2217.3</ele>
        <time>2022-07-22T18:29:06.000Z</time>
      </trkpt>
      <trkpt lat="45.32423" lon="6.1915">
        <ele>2218</ele>
        <time>2022-07-22T18:29:16.000Z</time>
      </trkpt>
      <trkpt lat="45.32427" lon="6.19145">
        <ele>2228</ele>
        <time>2022-07-22T18:29:26.000Z</time>
      </trkpt>
      <trkpt lat="45.32429" lon="6.1913">
        <ele>2219.4</ele>
        <time>2022-07-22T18:29:36.000Z</time>
      </trkpt>
      <trkpt lat="45.32433" lon="6.19126">
        <ele>2218.2</ele>
        <time>2022-07-22T18:29:46.000Z</time>
      </trkpt>
      <trkpt lat="45.32433" lon="6.19123">
        <ele>2218.8</ele>
        <time>2022-07-22T18:29:56.000Z</time>
      </trkpt>
      <trkpt lat="45.32437" lon="6.19119">
        <ele>2233</ele>
        <time>2022-07-22T18:30:06.000Z</time>
      </trkpt>
      <trkpt lat="45.32437" lon="6.19116">
        <ele>2218.2</ele>
        <time>2022-07-22T18:30:16.000Z</time>
      </trkpt>
      <trkpt lat="45.32439" lon="6.19114">
        <ele>2217.5</ele>
        <time>2022-07-22T18:30:26.000Z</time>
      </trkpt>
      <trkpt lat="45.32442" lon="6.19109">
        <ele>2217</ele>
        <time>2022-07-22T18:30:36.000Z</time>
      </trkpt>
      <trkpt lat="45.32444" lon="6.19104">
        <ele>2217.3</ele>
        <time>2022-07-22T18:30:46.000Z</time>
      </trkpt>
      <trkpt lat="45.32447" lon="6.19102">
        <ele>2216.5</ele>
        <time>2022-07-22T18:30:56.000Z</time>
      </trkpt>
      <trkpt lat="45.3245" lon="6.19096">
        <ele>2229</ele>
        <time>2022-07-22T18:31:06.000Z</time>
      </trkpt>
      <trkpt lat="45.32451" lon="6.1909">
        <ele>2217.8</ele>
        <time>2022-07-22T18:31:16.000Z</time>
      </trkpt>
      <trkpt lat="45.32455" lon="6.19084">
        <ele>2217.1</ele>
        <time>2022-07-22T18:31:26.000Z</time>
      </trkpt>
      <trkpt lat="45.32455" lon="6.19081">
        <ele>2217.9</ele>
        <time>2022-07-22T18:31:36.000Z</time>
      </trkpt>
      <trkpt lat="45.32457" lon="6.19075">
        <ele>2218.3</ele>
        <time>2022-07-22T18:31:46.000Z</time>
      </trkpt>
      <trkpt lat="45.32462" lon="6.19068">
        <ele>2228</ele>
        <time>2022-07-22T18:31:56.000Z</time>
      </trkpt>
      <trkpt lat="45.32466" lon="6.19055">
        <ele>2218.5</ele>
        <time>2022-07-22T18:32:06.000Z</time>
      </trkpt>
      <trkpt lat="45.32472" lon="6.19047">
        <ele>2217</ele>
        <time>2022-07-22T18:32:16.000Z</time>
      </trkpt>
      <trkpt lat="45.32472" lon="6.19044">
        <ele>2228</ele>
        <time>2022-07-22T18:32:26.000Z</time>
      </trkpt>
      <trkpt lat="45.32473" lon="6.19042">
        <ele>2217.7</ele>
        <time>2022-07-22T18:32:36.000Z</time>
      </trkpt>
      <trkpt lat="45.3248" lon="6.19036">
        <ele>2217.5</ele>
        <time>2022-07-22T18:32:46.000Z</time>
      </trkpt>
      <trkpt lat="45.32483" lon="6.19032">
        <ele>2217.7</ele>
        <time>2022-07-22T18:32:56.000Z</time>
      </trkpt>
      <trkpt lat="45.32485" lon="6.19027">
        <ele>2218.4</ele>
        <time>2022-07-22T18:33:06.000Z</time>
      </trkpt>
      <trkpt lat="45.32489" lon="6.19024">
        <ele>2228</ele>
        <time>2022-07-22T18:33:16.000Z</time>
      </trkpt>
      <trkpt lat="45.3249" lon="6.1902">
        <ele>2218.4</ele>
        <time>2022-07-22T18:33:26.000Z</time>
      </trkpt>
      <trkpt lat="45.32493" lon="6.1902">
        <ele>2217.7</ele>
        <time>2022-07-22T18:33:36.000Z</time>
      </trkpt>
      <trkpt lat="45.32495" lon="6.19019">
        <ele>2217.4</ele>
        <time>2022-07-22T18:33:46.000Z</time>
      </trkpt>
      <trkpt lat="45.32496" lon="6.19017">
        <ele>2217.5</ele>
        <time>2022-07-22T18:33:56.000Z</time>
      </trkpt>
      <trkpt lat="45.325" lon="6.19015">
        <ele>2216.8</ele>
        <time>2022-07-22T18:34:06.000Z</time>
      </trkpt>
      <trkpt lat="45.32501" lon="6.19012">
        <ele>2217.2</ele>
        <time>2022-07-22T18:34:16.000Z</time>
      </trkpt>
      <trkpt lat="45.32501" lon="6.19004">
        <ele>2227</ele>
        <time>2022-07-22T18:34:26.000Z</time>
      </trkpt>
      <trkpt lat="45.32503" lon="6.18998">
        <ele>2219.4</ele>
        <time>2022-07-22T18:34:36.000Z</time>
      </trkpt>
      <trkpt lat="45.32499" lon="6.18994">
        <ele>2220.1</ele>
        <time>2022-07-22T18:34:46.000Z</time>
      </trkpt>
      <trkpt lat="45.32504" lon="6.1899">
        <ele>2220.6</ele>
        <time>2022-07-22T18:34:56.000Z</time>
      </trkpt>
      <trkpt lat="45.32505" lon="6.18986">
        <ele>2221.2</ele>
        <time>2022-07-22T18:35:06.000Z</time>
      </trkpt>
      <trkpt lat="45.32509" lon="6.18983">
        <ele>2227</ele>
        <time>2022-07-22T18:35:16.000Z</time>
      </trkpt>
      <trkpt lat="45.32512" lon="6.18983">
        <ele>2221.9</ele>
        <time>2022-07-22T18:35:26.000Z</time>
      </trkpt>
      <trkpt lat="45.32512" lon="6.18971">
        <ele>2223.7</ele>
        <time>2022-07-22T18:35:36.000Z</time>
      </trkpt>
      <trkpt lat="45.32513" lon="6.18964">
        <ele>2225.3</ele>
        <time>2022-07-22T18:35:46.000Z</time>
      </trkpt>
      <trkpt lat="45.32515" lon="6.18962">
        <ele>2225.7</ele>
        <time>2022-07-22T18:35:56.000Z</time>
      </trkpt>
      <trkpt lat="45.32518" lon="6.18957">
        <ele>2232</ele>
        <time>2022-07-22T18:36:06.000Z</time>
      </trkpt>
      <trkpt lat="45.32519" lon="6.18954">
        <ele>2227.1</ele>
        <time>2022-07-22T18:36:16.000Z</time>
      </trkpt>
      <trkpt lat="45.32518" lon="6.18948">
        <ele>2228.4</ele>
        <time>2022-07-22T18:36:26.000Z</time>
      </trkpt>
      <trkpt lat="45.32516" lon="6.18943">
        <ele>2229.5</ele>
        <time>2022-07-22T18:36:36.000Z</time>
      </trkpt>
      <trkpt lat="45.32518" lon="6.18942">
        <ele>2229.4</ele>
        <time>2022-07-22T18:36:46.000Z</time>
      </trkpt>
      <trkpt lat="45.32518" lon="6.18937">
        <ele>2230.2</ele>
        <time>2022-07-22T18:36:56.000Z</time>
      </trkpt>
      <trkpt lat="45.3252" lon="6.18934">
        <ele>2236</ele>
        <time>2022-07-22T18:37:06.000Z</time>
      </trkpt>
      <trkpt lat="45.32521" lon="6.18925">
        <ele>2231.2</ele>
        <time>2022-07-22T18:37:16.000Z</time>
      </trkpt>
      <trkpt lat="45.32523" lon="6.18923">
        <ele>2230.9</ele>
        <time>2022-07-22T18:37:26.000Z</time>
      </trkpt>
      <trkpt lat="45.32527" lon="6.18916">
        <ele>2230.3</ele>
        <time>2022-07-22T18:37:36.000Z</time>
      </trkpt>
      <trkpt lat="45.32528" lon="6.18911">
        <ele>2230.9</ele>
        <time>2022-07-22T18:37:46.000Z</time>
      </trkpt>
      <trkpt lat="45.32536" lon="6.189">
        <ele>2237</ele>
        <time>2022-07-22T18:37:56.000Z</time>
      </trkpt>
      <trkpt lat="45.32536" lon="6.18894">
        <ele>2234.1</ele>
        <time>2022-07-22T18:38:06.000Z</time>
      </trkpt>
      <trkpt lat="45.3254" lon="6.1889">
        <ele>2234.4</ele>
        <time>2022-07-22T18:38:16.000Z</time>
      </trkpt>
      <trkpt lat="45.32541" lon="6.18887">
        <ele>2235</ele>
        <time>2022-07-22T18:38:26.000Z</time>
      </trkpt>
      <trkpt lat="45.32546" lon="6.18884">
        <ele>2235.7</ele>
        <time>2022-07-22T18:38:36.000Z</time>
      </trkpt>
      <trkpt lat="45.3255" lon="6.18877">
        <ele>2247</ele>
        <time>2022-07-22T18:38:46.000Z</time>
      </trkpt>
      <trkpt lat="45.32552" lon="6.18872">
        <ele>2237.8</ele>
        <time>2022-07-22T18:38:56.000Z</time>
      </trkpt>
      <trkpt lat="45.32552" lon="6.18869">
        <ele>2238.3</ele>
        <time>2022-07-22T18:39:06.000Z</time>
      </trkpt>
      <trkpt lat="45.32553" lon="6.18864">
        <ele>2239</ele>
        <time>2022-07-22T18:39:16.000Z</time>
      </trkpt>
      <trkpt lat="45.32552" lon="6.18861">
        <ele>2239.7</ele>
        <time>2022-07-22T18:39:26.000Z</time>
      </trkpt>
      <trkpt lat="45.32556" lon="6.18852">
        <ele>2247</ele>
        <time>2022-07-22T18:39:36.000Z</time>
      </trkpt>
      <trkpt lat="45.32559" lon="6.18849">
        <ele>2241.8</ele>
        <time>2022-07-22T18:39:46.000Z</time>
      </trkpt>
      <trkpt lat="45.3256" lon="6.18846">
        <ele>2242.4</ele>
        <time>2022-07-22T18:39:56.000Z</time>
      </trkpt>
      <trkpt lat="45.32562" lon="6.18844">
        <ele>2242.8</ele>
        <time>2022-07-22T18:40:06.000Z</time>
      </trkpt>
      <trkpt lat="45.32564" lon="6.18839">
        <ele>2243.7</ele>
        <time>2022-07-22T18:40:16.000Z</time>
      </trkpt>
      <trkpt lat="45.32567" lon="6.18825">
        <ele>2251</ele>
        <time>2022-07-22T18:40:26.000Z</time>
      </trkpt>
      <trkpt lat="45.32566" lon="6.18816">
        <ele>2248.1</ele>
        <time>2022-07-22T18:40:36.000Z</time>
      </trkpt>
      <trkpt lat="45.32568" lon="6.18815">
        <ele>2248.2</ele>
        <time>2022-07-22T18:40:46.000Z</time>
      </trkpt>
      <trkpt lat="45.32571" lon="6.18811">
        <ele>2248.8</ele>
        <time>2022-07-22T18:40:56.000Z</time>
      </trkpt>
      <trkpt lat="45.32574" lon="6.18801">
        <ele>2260</ele>
        <time>2022-07-22T18:41:06.000Z</time>
      </trkpt>
      <trkpt lat="45.3257" lon="6.18796">
        <ele>2252.6</ele>
        <time>2022-07-22T18:41:16.000Z</time>
      </trkpt>
      <trkpt lat="45.32569" lon="6.1879">
        <ele>2254.2</ele>
        <time>2022-07-22T18:41:26.000Z</time>
      </trkpt>
      <trkpt lat="45.32566" lon="6.18778">
        <ele>2257.3</ele>
        <time>2022-07-22T18:41:36.000Z</time>
      </trkpt>
      <trkpt lat="45.32566" lon="6.18772">
        <ele>2270</ele>
        <time>2022-07-22T18:41:46.000Z</time>
      </trkpt>
      <trkpt lat="45.32567" lon="6.18761">
        <ele>2263.2</ele>
        <time>2022-07-22T18:41:56.000Z</time>
      </trkpt>
      <trkpt lat="45.32569" lon="6.1876">
        <ele>2263.6</ele>
        <time>2022-07-22T18:42:06.000Z</time>
      </trkpt>
      <trkpt lat="45.32573" lon="6.18756">
        <ele>2265</ele>
        <time>2022-07-22T18:42:16.000Z</time>
      </trkpt>
      <trkpt lat="45.32572" lon="6.1875">
        <ele>2283</ele>
        <time>2022-07-22T18:42:26.000Z</time>
      </trkpt>
      <trkpt lat="45.32573" lon="6.18747">
        <ele>2268.3</ele>
        <time>2022-07-22T18:42:36.000Z</time>
      </trkpt>
      <trkpt lat="45.32572" lon="6.18744">
        <ele>2269.6</ele>
        <time>2022-07-22T18:42:46.000Z</time>
      </trkpt>
      <trkpt lat="45.32572" lon="6.18742">
        <ele>2270.4</ele>
        <time>2022-07-22T18:42:56.000Z</time>
      </trkpt>
      <trkpt lat="45.32574" lon="6.18736">
        <ele>2272.9</ele>
        <time>2022-07-22T18:43:06.000Z</time>
      </trkpt>
      <trkpt lat="45.32573" lon="6.1873">
        <ele>2275.5</ele>
        <time>2022-07-22T18:43:16.000Z</time>
      </trkpt>
      <trkpt lat="45.32574" lon="6.18727">
        <ele>2276.7</ele>
        <time>2022-07-22T18:43:26.000Z</time>
      </trkpt>
      <trkpt lat="45.32573" lon="6.18724">
        <ele>2293</ele>
        <time>2022-07-22T18:43:36.000Z</time>
      </trkpt>
      <trkpt lat="45.32571" lon="6.18721">
        <ele>2279.3</ele>
        <time>2022-07-22T18:43:46.000Z</time>
      </trkpt>
      <trkpt lat="45.32572" lon="6.18717">
        <ele>2280.7</ele>
        <time>2022-07-22T18:43:56.000Z</time>
      </trkpt>
      <trkpt lat="45.32575" lon="6.18713">
        <ele>2281.8</ele>
        <time>2022-07-22T18:44:06.000Z</time>
      </trkpt>
      <trkpt lat="45.32576" lon="6.1871">
        <ele>2282.7</ele>
        <time>2022-07-22T18:44:16.000Z</time>
      </trkpt>
      <trkpt lat="45.32576" lon="6.18696">
        <ele>2302</ele>
        <time>2022-07-22T18:44:26.000Z</time>
      </trkpt>
      <trkpt lat="45.32577" lon="6.18693">
        <ele>2288.4</ele>
        <time>2022-07-22T18:44:36.000Z</time>
      </trkpt>
      <trkpt lat="45.32577" lon="6.18691">
        <ele>2289.2</ele>
        <time>2022-07-22T18:44:46.000Z</time>
      </trkpt>
      <trkpt lat="45.32576" lon="6.18688">
        <ele>2290.4</ele>
        <time>2022-07-22T18:44:56.000Z</time>
      </trkpt>
      <trkpt lat="45.32584" lon="6.18669">
        <ele>2330</ele>
        <time>2022-07-22T18:45:06.000Z</time>
      </trkpt>
      <trkpt lat="45.32584" lon="6.18663">
        <ele>2298.9</ele>
        <time>2022-07-22T18:45:16.000Z</time>
      </trkpt>
      <trkpt lat="45.32585" lon="6.18661">
        <ele>2300.3</ele>
        <time>2022-07-22T18:45:26.000Z</time>
      </trkpt>
      <trkpt lat="45.32584" lon="6.18655">
        <ele>2302.4</ele>
        <time>2022-07-22T18:45:36.000Z</time>
      </trkpt>
      <trkpt lat="45.32588" lon="6.18649">
        <ele>2306.9</ele>
        <time>2022-07-22T18:45:46.000Z</time>
      </trkpt>
      <trkpt lat="45.32588" lon="6.18643">
        <ele>2339</ele>
        <time>2022-07-22T18:45:56.000Z</time>
      </trkpt>
      <trkpt lat="45.32592" lon="6.18637">
        <ele>2313.9</ele>
        <time>2022-07-22T18:46:06.000Z</time>
      </trkpt>
      <trkpt lat="45.32592" lon="6.18633">
        <ele>2315.8</ele>
        <time>2022-07-22T18:46:16.000Z</time>
      </trkpt>
      <trkpt lat="45.32595" lon="6.18628">
        <ele>2319.5</ele>
        <time>2022-07-22T18:46:26.000Z</time>
      </trkpt>
      <trkpt lat="45.32595" lon="6.18625">
        <ele>2320.8</ele>
        <time>2022-07-22T18:46:36.000Z</time>
      </trkpt>
      <trkpt lat="45.32594" lon="6.1862">
        <ele>2352</ele>
        <time>2022-07-22T18:46:46.000Z</time>
      </trkpt>
      <trkpt lat="45.32592" lon="6.18619">
        <ele>2322.4</ele>
        <time>2022-07-22T18:46:56.000Z</time>
      </trkpt>
      <trkpt lat="45.32594" lon="6.18616">
        <ele>2324.6</ele>
        <time>2022-07-22T18:47:06.000Z</time>
      </trkpt>
      <trkpt lat="45.32594" lon="6.1861">
        <ele>2327.4</ele>
        <time>2022-07-22T18:47:16.000Z</time>
      </trkpt>
      <trkpt lat="45.32598" lon="6.18587">
        <ele>2358</ele>
        <time>2022-07-22T18:47:26.000Z</time>
      </trkpt>
      <trkpt lat="45.32598" lon="6.18579">
        <ele>2344.9</ele>
        <time>2022-07-22T18:47:36.000Z</time>
      </trkpt>
      <trkpt lat="45.32602" lon="6.18575">
        <ele>2348</ele>
        <time>2022-07-22T18:47:46.000Z</time>
      </trkpt>
      <trkpt lat="45.32597" lon="6.1857">
        <ele>2349.2</ele>
        <time>2022-07-22T18:47:56.000Z</time>
      </trkpt>
      <trkpt lat="45.32605" lon="6.18565">
        <ele>2371</ele>
        <time>2022-07-22T18:48:06.000Z</time>
      </trkpt>
      <trkpt lat="45.32607" lon="6.18566">
        <ele>2353.5</ele>
        <time>2022-07-22T18:48:16.000Z</time>
      </trkpt>
      <trkpt lat="45.32607" lon="6.18563">
        <ele>2354.9</ele>
        <time>2022-07-22T18:48:26.000Z</time>
      </trkpt>
      <trkpt lat="45.32604" lon="6.18558">
        <ele>2356.6</ele>
        <time>2022-07-22T18:48:36.000Z</time>
      </trkpt>
      <trkpt lat="45.32604" lon="6.18552">
        <ele>2360.2</ele>
        <time>2022-07-22T18:48:46.000Z</time>
      </trkpt>
      <trkpt lat="45.32608" lon="6.1855">
        <ele>2362.1</ele>
        <time>2022-07-22T18:48:56.000Z</time>
      </trkpt>
      <trkpt lat="45.32608" lon="6.18548">
        <ele>2363.4</ele>
        <time>2022-07-22T18:49:06.000Z</time>
      </trkpt>
      <trkpt lat="45.32612" lon="6.18544">
        <ele>2379</ele>
        <time>2022-07-22T18:49:16.000Z</time>
      </trkpt>
      <trkpt lat="45.32612" lon="6.18541">
        <ele>2368.4</ele>
        <time>2022-07-22T18:49:26.000Z</time>
      </trkpt>
      <trkpt lat="45.32614" lon="6.18539">
        <ele>2370.8</ele>
        <time>2022-07-22T18:49:36.000Z</time>
      </trkpt>
      <trkpt lat="45.32614" lon="6.18536">
        <ele>2372.5</ele>
        <time>2022-07-22T18:49:46.000Z</time>
      </trkpt>
      <trkpt lat="45.32617" lon="6.18529">
        <ele>2377.9</ele>
        <time>2022-07-22T18:49:56.000Z</time>
      </trkpt>
      <trkpt lat="45.32616" lon="6.18526">
        <ele>2379.2</ele>
        <time>2022-07-22T18:50:06.000Z</time>
      </trkpt>
      <trkpt lat="45.32618" lon="6.18521">
        <ele>2382.9</ele>
        <time>2022-07-22T18:50:16.000Z</time>
      </trkpt>
      <trkpt lat="45.3262" lon="6.18519">
        <ele>2381</ele>
        <time>2022-07-22T18:50:26.000Z</time>
      </trkpt>
      <trkpt lat="45.32627" lon="6.18497">
        <ele>2395.9</ele>
        <time>2022-07-22T18:50:36.000Z</time>
      </trkpt>
      <trkpt lat="45.3264" lon="6.18491">
        <ele>2381</ele>
        <time>2022-07-22T18:50:46.000Z</time>
      </trkpt>
      <trkpt lat="45.32651" lon="6.18499">
        <ele>2399.5</ele>
        <time>2022-07-22T18:50:56.000Z</time>
      </trkpt>
      <trkpt lat="45.32657" lon="6.18502">
        <ele>2400.3</ele>
        <time>2022-07-22T18:51:06.000Z</time>
      </trkpt>
      <trkpt lat="45.32667" lon="6.18513">
        <ele>2382</ele>
        <time>2022-07-22T18:51:16.000Z</time>
      </trkpt>
      <trkpt lat="45.32672" lon="6.18513">
        <ele>2403</ele>
        <time>2022-07-22T18:51:26.000Z</time>
      </trkpt>
      <trkpt lat="45.32674" lon="6.18514">
        <ele>2403.6</ele>
        <time>2022-07-22T18:51:36.000Z</time>
      </trkpt>
      <trkpt lat="45.32678" lon="6.18518">
        <ele>2404.9</ele>
        <time>2022-07-22T18:51:46.000Z</time>
      </trkpt>
      <trkpt lat="45.32687" lon="6.18516">
        <ele>2382</ele>
        <time>2022-07-22T18:51:56.000Z</time>
      </trkpt>
      <trkpt lat="45.32689" lon="6.18521">
        <ele>2408.9</ele>
        <time>2022-07-22T18:52:06.000Z</time>
      </trkpt>
      <trkpt lat="45.32693" lon="6.18524">
        <ele>2410.4</ele>
        <time>2022-07-22T18:52:16.000Z</time>
      </trkpt>
      <trkpt lat="45.32699" lon="6.18526">
        <ele>2413.9</ele>
        <time>2022-07-22T18:52:26.000Z</time>
      </trkpt>
      <trkpt lat="45.32706" lon="6.18525">
        <ele>2403</ele>
        <time>2022-07-22T18:52:36.000Z</time>
      </trkpt>
      <trkpt lat="45.32712" lon="6.18517">
        <ele>2421.9</ele>
        <time>2022-07-22T18:52:46.000Z</time>
      </trkpt>
      <trkpt lat="45.32716" lon="6.18513">
        <ele>2424.1</ele>
        <time>2022-07-22T18:52:56.000Z</time>
      </trkpt>
      <trkpt lat="45.32718" lon="6.18513">
        <ele>2425.4</ele>
        <time>2022-07-22T18:53:06.000Z</time>
      </trkpt>
      <trkpt lat="45.32722" lon="6.18515">
        <ele>2418</ele>
        <time>2022-07-22T18:53:16.000Z</time>
      </trkpt>
      <trkpt lat="45.32728" lon="6.18523">
        <ele>2433</ele>
        <time>2022-07-22T18:53:26.000Z</time>
      </trkpt>
      <trkpt lat="45.3273" lon="6.18523">
        <ele>2434.5</ele>
        <time>2022-07-22T18:53:36.000Z</time>
      </trkpt>
      <trkpt lat="45.32732" lon="6.18525">
        <ele>2436.2</ele>
        <time>2022-07-22T18:53:46.000Z</time>
      </trkpt>
      <trkpt lat="45.32737" lon="6.18525">
        <ele>2439.9</ele>
        <time>2022-07-22T18:53:56.000Z</time>
      </trkpt>
      <trkpt lat="45.32741" lon="6.18513">
        <ele>2433</ele>
        <time>2022-07-22T18:54:06.000Z</time>
      </trkpt>
      <trkpt lat="45.32743" lon="6.18512">
        <ele>2443.1</ele>
        <time>2022-07-22T18:54:16.000Z</time>
      </trkpt>
      <trkpt lat="45.32744" lon="6.1851">
        <ele>2443.7</ele>
        <time>2022-07-22T18:54:26.000Z</time>
      </trkpt>
      <trkpt lat="45.32746" lon="6.18508">
        <ele>2444.9</ele>
        <time>2022-07-22T18:54:36.000Z</time>
      </trkpt>
      <trkpt lat="45.3275" lon="6.18508">
        <ele>2447.9</ele>
        <time>2022-07-22T18:54:46.000Z</time>
      </trkpt>
      <trkpt lat="45.32754" lon="6.18506">
        <ele>2446.3</ele>
        <time>2022-07-22T18:54:56.000Z</time>
      </trkpt>
      <trkpt lat="45.32755" lon="6.18504">
        <ele>2445.9</ele>
        <time>2022-07-22T18:55:06.000Z</time>
      </trkpt>
      <trkpt lat="45.32757" lon="6.18504">
        <ele>2445.3</ele>
        <time>2022-07-22T18:55:16.000Z</time>
      </trkpt>
      <trkpt lat="45.32765" lon="6.18494">
        <ele>2433</ele>
        <time>2022-07-22T18:55:26.000Z</time>
      </trkpt>
      <trkpt lat="45.3277" lon="6.1849">
        <ele>2442.6</ele>
        <time>2022-07-22T18:55:36.000Z</time>
      </trkpt>
      <trkpt lat="45.32773" lon="6.1848">
        <ele>2443.3</ele>
        <time>2022-07-22T18:55:46.000Z</time>
      </trkpt>
      <trkpt lat="45.3278" lon="6.18473">
        <ele>2433</ele>
        <time>2022-07-22T18:55:56.000Z</time>
      </trkpt>
      <trkpt lat="45.32784" lon="6.18464">
        <ele>2445.5</ele>
        <time>2022-07-22T18:56:06.000Z</time>
      </trkpt>
      <trkpt lat="45.32784" lon="6.1846">
        <ele>2445.3</ele>
        <time>2022-07-22T18:56:16.000Z</time>
      </trkpt>
      <trkpt lat="45.32786" lon="6.18459">
        <ele>2445.6</ele>
        <time>2022-07-22T18:56:26.000Z</time>
      </trkpt>
      <trkpt lat="45.3279" lon="6.18454">
        <ele>2446.7</ele>
        <time>2022-07-22T18:56:36.000Z</time>
      </trkpt>
      <trkpt lat="45.32793" lon="6.18452">
        <ele>2433</ele>
        <time>2022-07-22T18:56:46.000Z</time>
      </trkpt>
      <trkpt lat="45.32803" lon="6.18448">
        <ele>2451.9</ele>
        <time>2022-07-22T18:56:56.000Z</time>
      </trkpt>
      <trkpt lat="45.32807" lon="6.18447">
        <ele>2453.5</ele>
        <time>2022-07-22T18:57:06.000Z</time>
      </trkpt>
      <trkpt lat="45.32809" lon="6.18448">
        <ele>2453.5</ele>
        <time>2022-07-22T18:57:16.000Z</time>
      </trkpt>
      <trkpt lat="45.32809" lon="6.18445">
        <ele>2454.6</ele>
        <time>2022-07-22T18:57:26.000Z</time>
      </trkpt>
      <trkpt lat="45.32811" lon="6.18443">
        <ele>2447</ele>
        <time>2022-07-22T18:57:36.000Z</time>
      </trkpt>
      <trkpt lat="45.3282" lon="6.18442">
        <ele>2456.4</ele>
        <time>2022-07-22T18:57:46.000Z</time>
      </trkpt>
      <trkpt lat="45.3283" lon="6.18442">
        <ele>2454</ele>
        <time>2022-07-22T18:57:56.000Z</time>
      </trkpt>
      <trkpt lat="45.32832" lon="6.18441">
        <ele>2459.4</ele>
        <time>2022-07-22T18:58:06.000Z</time>
      </trkpt>
      <trkpt lat="45.32836" lon="6.18435">
        <ele>2458.5</ele>
        <time>2022-07-22T18:58:16.000Z</time>
      </trkpt>
      <trkpt lat="45.32838" lon="6.18433">
        <ele>2457.8</ele>
        <time>2022-07-22T18:58:26.000Z</time>
      </trkpt>
      <trkpt lat="45.32841" lon="6.18422">
        <ele>2456.5</ele>
        <time>2022-07-22T18:58:36.000Z</time>
      </trkpt>
      <trkpt lat="45.32841" lon="6.18411">
        <ele>2449</ele>
        <time>2022-07-22T18:58:46.000Z</time>
      </trkpt>
      <trkpt lat="45.32845" lon="6.18402">
        <ele>2454.4</ele>
        <time>2022-07-22T18:58:56.000Z</time>
      </trkpt>
      <trkpt lat="45.32847" lon="6.18399">
        <ele>2454.1</ele>
        <time>2022-07-22T18:59:06.000Z</time>
      </trkpt>
      <trkpt lat="45.32847" lon="6.18393">
        <ele>2453.7</ele>
        <time>2022-07-22T18:59:16.000Z</time>
      </trkpt>
      <trkpt lat="45.32845" lon="6.18392">
        <ele>2453.7</ele>
        <time>2022-07-22T18:59:26.000Z</time>
      </trkpt>
      <trkpt lat="45.32844" lon="6.1839">
        <ele>2453.5</ele>
        <time>2022-07-22T18:59:36.000Z</time>
      </trkpt>
      <trkpt lat="45.32843" lon="6.18392">
        <ele>2444</ele>
        <time>2022-07-22T18:59:46.000Z</time>
      </trkpt>
      <trkpt lat="45.32841" lon="6.18391">
        <ele>2453.5</ele>
        <time>2022-07-22T18:59:56.000Z</time>
      </trkpt>
      <trkpt lat="45.3284" lon="6.18385">
        <ele>2451.8</ele>
        <time>2022-07-22T19:00:06.000Z</time>
      </trkpt>
      <trkpt lat="45.32841" lon="6.18376">
        <ele>2448.2</ele>
        <time>2022-07-22T19:00:16.000Z</time>
      </trkpt>
      <trkpt lat="45.32841" lon="6.18371">
        <ele>2446.3</ele>
        <time>2022-07-22T19:00:26.000Z</time>
      </trkpt>
      <trkpt lat="45.32842" lon="6.18367">
        <ele>2441</ele>
        <time>2022-07-22T19:00:36.000Z</time>
      </trkpt>
      <trkpt lat="45.32842" lon="6.18356">
        <ele>2439.9</ele>
        <time>2022-07-22T19:00:46.000Z</time>
      </trkpt>
      <trkpt lat="45.32839" lon="6.18358">
        <ele>2441.9</ele>
        <time>2022-07-22T19:00:56.000Z</time>
      </trkpt>
      <trkpt lat="45.32835" lon="6.18356">
        <ele>2442.6</ele>
        <time>2022-07-22T19:01:06.000Z</time>
      </trkpt>
      <trkpt lat="45.32831" lon="6.18348">
        <ele>2434</ele>
        <time>2022-07-22T19:01:16.000Z</time>
      </trkpt>
      <trkpt lat="45.32832" lon="6.18345">
        <ele>2436.2</ele>
        <time>2022-07-22T19:01:26.000Z</time>
      </trkpt>
      <trkpt lat="45.32832" lon="6.18339">
        <ele>2433</ele>
        <time>2022-07-22T19:01:36.000Z</time>
      </trkpt>
      <trkpt lat="45.32835" lon="6.18334">
        <ele>2431.3</ele>
        <time>2022-07-22T19:01:46.000Z</time>
      </trkpt>
      <trkpt lat="45.32837" lon="6.18319">
        <ele>2429</ele>
        <time>2022-07-22T19:01:56.000Z</time>
      </trkpt>
      <trkpt lat="45.32838" lon="6.18317">
        <ele>2429</ele>
        <time>2022-07-22T19:02:06.000Z</time>
      </trkpt>
      <trkpt lat="45.32839" lon="6.18308">
        <ele>2428.1</ele>
        <time>2022-07-22T19:02:16.000Z</time>
      </trkpt>
      <trkpt lat="45.32838" lon="6.18304">
        <ele>2427.3</ele>
        <time>2022-07-22T19:02:26.000Z</time>
      </trkpt>
      <trkpt lat="45.32843" lon="6.18272">
        <ele>2423</ele>
        <time>2022-07-22T19:02:36.000Z</time>
      </trkpt>
      <trkpt lat="45.32844" lon="6.1827">
        <ele>2423.3</ele>
        <time>2022-07-22T19:02:46.000Z</time>
      </trkpt>
      <trkpt lat="45.32845" lon="6.18261">
        <ele>2423</ele>
        <time>2022-07-22T19:02:56.000Z</time>
      </trkpt>
      <trkpt lat="45.32846" lon="6.18259">
        <ele>2423.2</ele>
        <time>2022-07-22T19:03:06.000Z</time>
      </trkpt>
      <trkpt lat="45.32846" lon="6.18256">
        <ele>2423</ele>
        <time>2022-07-22T19:03:16.000Z</time>
      </trkpt>
      <trkpt lat="45.32848" lon="6.18255">
        <ele>2423.6</ele>
        <time>2022-07-22T19:03:26.000Z</time>
      </trkpt>
      <trkpt lat="45.32849" lon="6.18257">
        <ele>2424.1</ele>
        <time>2022-07-22T19:03:36.000Z</time>
      </trkpt>
      <trkpt lat="45.32852" lon="6.18257">
        <ele>2425.2</ele>
        <time>2022-07-22T19:03:46.000Z</time>
      </trkpt>
      <trkpt lat="45.32856" lon="6.18256">
        <ele>2417</ele>
        <time>2022-07-22T19:03:56.000Z</time>
      </trkpt>
      <trkpt lat="45.32861" lon="6.18253">
        <ele>2428.2</ele>
        <time>2022-07-22T19:04:06.000Z</time>
      </trkpt>
      <trkpt lat="45.32863" lon="6.18254">
        <ele>2426.8</ele>
        <time>2022-07-22T19:04:16.000Z</time>
      </trkpt>
      <trkpt lat="45.32865" lon="6.18254">
        <ele>2425.3</ele>
        <time>2022-07-22T19:04:26.000Z</time>
      </trkpt>
      <trkpt lat="45.32867" lon="6.18249">
        <ele>2423.5</ele>
        <time>2022-07-22T19:04:36.000Z</time>
      </trkpt>
      <trkpt lat="45.32869" lon="6.18247">
        <ele>2421.7</ele>
        <time>2022-07-22T19:04:46.000Z</time>
      </trkpt>
      <trkpt lat="45.32872" lon="6.18247">
        <ele>2417</ele>
        <time>2022-07-22T19:04:56.000Z</time>
      </trkpt>
      <trkpt lat="45.32877" lon="6.1824">
        <ele>2415.6</ele>
        <time>2022-07-22T19:05:06.000Z</time>
      </trkpt>
      <trkpt lat="45.32879" lon="6.18243">
        <ele>2414.6</ele>
        <time>2022-07-22T19:05:16.000Z</time>
      </trkpt>
      <trkpt lat="45.32881" lon="6.18243">
        <ele>2413.4</ele>
        <time>2022-07-22T19:05:26.000Z</time>
      </trkpt>
      <trkpt lat="45.32885" lon="6.18246">
        <ele>2410.9</ele>
        <time>2022-07-22T19:05:36.000Z</time>
      </trkpt>
      <trkpt lat="45.32888" lon="6.18244">
        <ele>2417</ele>
        <time>2022-07-22T19:05:46.000Z</time>
      </trkpt>
      <trkpt lat="45.32892" lon="6.18249">
        <ele>2405.6</ele>
        <time>2022-07-22T19:05:56.000Z</time>
      </trkpt>
      <trkpt lat="45.32892" lon="6.18267">
        <ele>2401.6</ele>
        <time>2022-07-22T19:06:06.000Z</time>
      </trkpt>
      <trkpt lat="45.32889" lon="6.18273">
        <ele>2417</ele>
        <time>2022-07-22T19:06:16.000Z</time>
      </trkpt>
      <trkpt lat="45.32886" lon="6.18277">
        <ele>2404.2</ele>
        <time>2022-07-22T19:06:26.000Z</time>
      </trkpt>
      <trkpt lat="45.32886" lon="6.18292">
        <ele>2400.4</ele>
        <time>2022-07-22T19:06:36.000Z</time>
      </trkpt>
      <trkpt lat="45.32887" lon="6.18295">
        <ele>2398.4</ele>
        <time>2022-07-22T19:06:46.000Z</time>
      </trkpt>
      <trkpt lat="45.32888" lon="6.18301">
        <ele>2418</ele>
        <time>2022-07-22T19:06:56.000Z</time>
      </trkpt>
      <trkpt lat="45.32889" lon="6.18303">
        <ele>2393.7</ele>
        <time>2022-07-22T19:07:06.000Z</time>
      </trkpt>
      <trkpt lat="45.32889" lon="6.18307">
        <ele>2393.1</ele>
        <time>2022-07-22T19:07:16.000Z</time>
      </trkpt>
      <trkpt lat="45.3289" lon="6.18309">
        <ele>2392.5</ele>
        <time>2022-07-22T19:07:26.000Z</time>
      </trkpt>
      <trkpt lat="45.3289" lon="6.18312">
        <ele>2392.8</ele>
        <time>2022-07-22T19:07:36.000Z</time>
      </trkpt>
      <trkpt lat="45.32889" lon="6.18314">
        <ele>2393.8</ele>
        <time>2022-07-22T19:07:46.000Z</time>
      </trkpt>
      <trkpt lat="45.32898" lon="6.1832">
        <ele>2418</ele>
        <time>2022-07-22T19:07:56.000Z</time>
      </trkpt>
      <trkpt lat="45.329" lon="6.18326">
        <ele>2385.1</ele>
        <time>2022-07-22T19:08:06.000Z</time>
      </trkpt>
      <trkpt lat="45.32898" lon="6.18335">
        <ele>2387.3</ele>
        <time>2022-07-22T19:08:16.000Z</time>
      </trkpt>
      <trkpt lat="45.32899" lon="6.18338">
        <ele>2386.5</ele>
        <time>2022-07-22T19:08:26.000Z</time>
      </trkpt>
      <trkpt lat="45.32897" lon="6.18339">
        <ele>2388.5</ele>
        <time>2022-07-22T19:08:36.000Z</time>
      </trkpt>
      <trkpt lat="45.32898" lon="6.18342">
        <ele>2387.8</ele>
        <time>2022-07-22T19:08:46.000Z</time>
      </trkpt>
      <trkpt lat="45.32898" lon="6.18345">
        <ele>2406</ele>
        <time>2022-07-22T19:08:56.000Z</time>
      </trkpt>
      <trkpt lat="45.32901" lon="6.18357">
        <ele>2385.9</ele>
        <time>2022-07-22T19:09:06.000Z</time>
      </trkpt>
      <trkpt lat="45.32901" lon="6.1836">
        <ele>2386.1</ele>
        <time>2022-07-22T19:09:16.000Z</time>
      </trkpt>
      <trkpt lat="45.32902" lon="6.18363">
        <ele>2385.7</ele>
        <time>2022-07-22T19:09:26.000Z</time>
      </trkpt>
      <trkpt lat="45.32904" lon="6.18366">
        <ele>2384.4</ele>
        <time>2022-07-22T19:09:36.000Z</time>
      </trkpt>
      <trkpt lat="45.32905" lon="6.18366">
        <ele>2383.4</ele>
        <time>2022-07-22T19:09:46.000Z</time>
      </trkpt>
      <trkpt lat="45.32915" lon="6.18375">
        <ele>2406</ele>
        <time>2022-07-22T19:09:56.000Z</time>
      </trkpt>
      <trkpt lat="45.32922" lon="6.18388">
        <ele>2373.4</ele>
        <time>2022-07-22T19:10:06.000Z</time>
      </trkpt>
      <trkpt lat="45.32927" lon="6.18392">
        <ele>2371</ele>
        <time>2022-07-22T19:10:16.000Z</time>
      </trkpt>
      <trkpt lat="45.32931" lon="6.18398">
        <ele>2406</ele>
        <time>2022-07-22T19:10:26.000Z</time>
      </trkpt>
      <trkpt lat="45.32934" lon="6.18399">
        <ele>2367.8</ele>
        <time>2022-07-22T19:10:36.000Z</time>
      </trkpt>
      <trkpt lat="45.32938" lon="6.18403">
        <ele>2365.5</ele>
        <time>2022-07-22T19:10:46.000Z</time>
      </trkpt>
      <trkpt lat="45.32947" lon="6.18416">
        <ele>2378</ele>
        <time>2022-07-22T19:10:56.000Z</time>
      </trkpt>
      <trkpt lat="45.3295" lon="6.18416">
        <ele>2359</ele>
        <time>2022-07-22T19:11:06.000Z</time>
      </trkpt>
      <trkpt lat="45.32945" lon="6.18407">
        <ele>2359.8</ele>
        <time>2022-07-22T19:11:16.000Z</time>
      </trkpt>
      <trkpt lat="45.32947" lon="6.18405">
        <ele>2357.8</ele>
        <time>2022-07-22T19:11:26.000Z</time>
      </trkpt>
      <trkpt lat="45.3295" lon="6.18399">
        <ele>2353.9</ele>
        <time>2022-07-22T19:11:36.000Z</time>
      </trkpt>
      <trkpt lat="45.32952" lon="6.18401">
        <ele>2374</ele>
        <time>2022-07-22T19:11:46.000Z</time>
      </trkpt>
      <trkpt lat="45.32957" lon="6.18414">
        <ele>2353.6</ele>
        <time>2022-07-22T19:11:56.000Z</time>
      </trkpt>
      <trkpt lat="45.32959" lon="6.18417">
        <ele>2353.2</ele>
        <time>2022-07-22T19:12:06.000Z</time>
      </trkpt>
      <trkpt lat="45.32961" lon="6.18417">
        <ele>2351.8</ele>
        <time>2022-07-22T19:12:16.000Z</time>
      </trkpt>
      <trkpt lat="45.32962" lon="6.1842">
        <ele>2352</ele>
        <time>2022-07-22T19:12:26.000Z</time>
      </trkpt>
      <trkpt lat="45.32964" lon="6.18421">
        <ele>2368</ele>
        <time>2022-07-22T19:12:36.000Z</time>
      </trkpt>
      <trkpt lat="45.32968" lon="6.18425">
        <ele>2349.4</ele>
        <time>2022-07-22T19:12:46.000Z</time>
      </trkpt>
      <trkpt lat="45.32969" lon="6.18428">
        <ele>2349.6</ele>
        <time>2022-07-22T19:12:56.000Z</time>
      </trkpt>
      <trkpt lat="45.3297" lon="6.18434">
        <ele>2350.6</ele>
        <time>2022-07-22T19:13:06.000Z</time>
      </trkpt>
      <trkpt lat="45.32971" lon="6.18444">
        <ele>2352.8</ele>
        <time>2022-07-22T19:13:16.000Z</time>
      </trkpt>
      <trkpt lat="45.32973" lon="6.18446">
        <ele>2367</ele>
        <time>2022-07-22T19:13:26.000Z</time>
      </trkpt>
      <trkpt lat="45.32973" lon="6.18458">
        <ele>2355.7</ele>
        <time>2022-07-22T19:13:36.000Z</time>
      </trkpt>
      <trkpt lat="45.32976" lon="6.18462">
        <ele>2356.4</ele>
        <time>2022-07-22T19:13:46.000Z</time>
      </trkpt>
      <trkpt lat="45.32978" lon="6.18462">
        <ele>2356</ele>
        <time>2022-07-22T19:13:56.000Z</time>
      </trkpt>
      <trkpt lat="45.32986" lon="6.18469">
        <ele>2366</ele>
        <time>2022-07-22T19:14:06.000Z</time>
      </trkpt>
      <trkpt lat="45.32992" lon="6.18468">
        <ele>2356.5</ele>
        <time>2022-07-22T19:14:16.000Z</time>
      </trkpt>
      <trkpt lat="45.32994" lon="6.18473">
        <ele>2358.9</ele>
        <time>2022-07-22T19:14:26.000Z</time>
      </trkpt>
      <trkpt lat="45.33001" lon="6.18475">
        <ele>2359.8</ele>
        <time>2022-07-22T19:14:36.000Z</time>
      </trkpt>
      <trkpt lat="45.33002" lon="6.18473">
        <ele>2355</ele>
        <time>2022-07-22T19:14:46.000Z</time>
      </trkpt>
      <trkpt lat="45.33004" lon="6.18473">
        <ele>2359.1</ele>
        <time>2022-07-22T19:14:56.000Z</time>
      </trkpt>
      <trkpt lat="45.33012" lon="6.18479">
        <ele>2363.5</ele>
        <time>2022-07-22T19:15:06.000Z</time>
      </trkpt>
      <trkpt lat="45.33012" lon="6.18481">
        <ele>2364.5</ele>
        <time>2022-07-22T19:15:16.000Z</time>
      </trkpt>
      <trkpt lat="45.33011" lon="6.18484">
        <ele>2365.9</ele>
        <time>2022-07-22T19:15:26.000Z</time>
      </trkpt>
      <trkpt lat="45.33009" lon="6.18486">
        <ele>2366.8</ele>
        <time>2022-07-22T19:15:36.000Z</time>
      </trkpt>
      <trkpt lat="45.33009" lon="6.18489">
        <ele>2355</ele>
        <time>2022-07-22T19:15:46.000Z</time>
      </trkpt>
      <trkpt lat="45.33003" lon="6.18493">
        <ele>2370.1</ele>
        <time>2022-07-22T19:15:56.000Z</time>
      </trkpt>
      <trkpt lat="45.33004" lon="6.18495">
        <ele>2371.2</ele>
        <time>2022-07-22T19:16:06.000Z</time>
      </trkpt>
      <trkpt lat="45.33004" lon="6.18502">
        <ele>2372.9</ele>
        <time>2022-07-22T19:16:16.000Z</time>
      </trkpt>
      <trkpt lat="45.33011" lon="6.18506">
        <ele>2357</ele>
        <time>2022-07-22T19:16:26.000Z</time>
      </trkpt>
      <trkpt lat="45.33017" lon="6.18506">
        <ele>2370.8</ele>
        <time>2022-07-22T19:16:36.000Z</time>
      </trkpt>
      <trkpt lat="45.33027" lon="6.18509">
        <ele>2369.4</ele>
        <time>2022-07-22T19:16:46.000Z</time>
      </trkpt>
      <trkpt lat="45.33032" lon="6.18515">
        <ele>2357</ele>
        <time>2022-07-22T19:16:56.000Z</time>
      </trkpt>
      <trkpt lat="45.33031" lon="6.18518">
        <ele>2363.5</ele>
        <time>2022-07-22T19:17:06.000Z</time>
      </trkpt>
      <trkpt lat="45.33033" lon="6.18522">
        <ele>2361</ele>
        <time>2022-07-22T19:17:16.000Z</time>
      </trkpt>
      <trkpt lat="45.33037" lon="6.18522">
        <ele>2359.5</ele>
        <time>2022-07-22T19:17:26.000Z</time>
      </trkpt>
      <trkpt lat="45.33043" lon="6.18526">
        <ele>2356.5</ele>
        <time>2022-07-22T19:17:36.000Z</time>
      </trkpt>
      <trkpt lat="45.33044" lon="6.18529">
        <ele>2355.3</ele>
        <time>2022-07-22T19:17:46.000Z</time>
      </trkpt>
      <trkpt lat="45.33061" lon="6.18541">
        <ele>2358</ele>
        <time>2022-07-22T19:17:56.000Z</time>
      </trkpt>
      <trkpt lat="45.33064" lon="6.18537">
        <ele>2345.3</ele>
        <time>2022-07-22T19:18:06.000Z</time>
      </trkpt>
      <trkpt lat="45.33069" lon="6.18542">
        <ele>2341.7</ele>
        <time>2022-07-22T19:18:16.000Z</time>
      </trkpt>
      <trkpt lat="45.33076" lon="6.18547">
        <ele>2337.8</ele>
        <time>2022-07-22T19:18:26.000Z</time>
      </trkpt>
      <trkpt lat="45.33079" lon="6.18556">
        <ele>2359</ele>
        <time>2022-07-22T19:18:36.000Z</time>
      </trkpt>
      <trkpt lat="45.3308" lon="6.18553">
        <ele>2336.1</ele>
        <time>2022-07-22T19:18:46.000Z</time>
      </trkpt>
      <trkpt lat="45.3308" lon="6.18555">
        <ele>2336.2</ele>
        <time>2022-07-22T19:18:56.000Z</time>
      </trkpt>
      <trkpt lat="45.33088" lon="6.18559">
        <ele>2331.4</ele>
        <time>2022-07-22T19:19:06.000Z</time>
      </trkpt>
      <trkpt lat="45.33096" lon="6.18566">
        <ele>2359</ele>
        <time>2022-07-22T19:19:16.000Z</time>
      </trkpt>
      <trkpt lat="45.33099" lon="6.1857">
        <ele>2328.4</ele>
        <time>2022-07-22T19:19:26.000Z</time>
      </trkpt>
      <trkpt lat="45.33102" lon="6.18569">
        <ele>2327.1</ele>
        <time>2022-07-22T19:19:36.000Z</time>
      </trkpt>
      <trkpt lat="45.33106" lon="6.18574">
        <ele>2329</ele>
        <time>2022-07-22T19:19:46.000Z</time>
      </trkpt>
      <trkpt lat="45.33106" lon="6.18586">
        <ele>2352</ele>
        <time>2022-07-22T19:19:56.000Z</time>
      </trkpt>
      <trkpt lat="45.33107" lon="6.18589">
        <ele>2335.3</ele>
        <time>2022-07-22T19:20:06.000Z</time>
      </trkpt>
      <trkpt lat="45.33108" lon="6.18595">
        <ele>2335.9</ele>
        <time>2022-07-22T19:20:16.000Z</time>
      </trkpt>
      <trkpt lat="45.33111" lon="6.18597">
        <ele>2337.4</ele>
        <time>2022-07-22T19:20:26.000Z</time>
      </trkpt>
      <trkpt lat="45.33112" lon="6.18599">
        <ele>2337</ele>
        <time>2022-07-22T19:20:36.000Z</time>
      </trkpt>
      <trkpt lat="45.33111" lon="6.18602">
        <ele>2337.9</ele>
        <time>2022-07-22T19:20:46.000Z</time>
      </trkpt>
      <trkpt lat="45.33112" lon="6.18606">
        <ele>2337.9</ele>
        <time>2022-07-22T19:20:56.000Z</time>
      </trkpt>
      <trkpt lat="45.33122" lon="6.18617">
        <ele>2341</ele>
        <time>2022-07-22T19:21:06.000Z</time>
      </trkpt>
      <trkpt lat="45.33127" lon="6.18625">
        <ele>2332.9</ele>
        <time>2022-07-22T19:21:16.000Z</time>
      </trkpt>
      <trkpt lat="45.33134" lon="6.18632">
        <ele>2337.9</ele>
        <time>2022-07-22T19:21:26.000Z</time>
      </trkpt>
      <trkpt lat="45.33135" lon="6.18634">
        <ele>2339.6</ele>
        <time>2022-07-22T19:21:36.000Z</time>
      </trkpt>
      <trkpt lat="45.3314" lon="6.18639">
        <ele>2333</ele>
        <time>2022-07-22T19:21:46.000Z</time>
      </trkpt>
      <trkpt lat="45.33141" lon="6.18641">
        <ele>2343.4</ele>
        <time>2022-07-22T19:21:56.000Z</time>
      </trkpt>
      <trkpt lat="45.33143" lon="6.18642">
        <ele>2341.4</ele>
        <time>2022-07-22T19:22:06.000Z</time>
      </trkpt>
      <trkpt lat="45.33145" lon="6.18642">
        <ele>2339.6</ele>
        <time>2022-07-22T19:22:16.000Z</time>
      </trkpt>
      <trkpt lat="45.33146" lon="6.1865">
        <ele>2337.1</ele>
        <time>2022-07-22T19:22:26.000Z</time>
      </trkpt>
      <trkpt lat="45.33148" lon="6.18652">
        <ele>2335.2</ele>
        <time>2022-07-22T19:22:36.000Z</time>
      </trkpt>
      <trkpt lat="45.33152" lon="6.18654">
        <ele>2332.2</ele>
        <time>2022-07-22T19:22:46.000Z</time>
      </trkpt>
      <trkpt lat="45.33155" lon="6.18654">
        <ele>2333</ele>
        <time>2022-07-22T19:22:56.000Z</time>
      </trkpt>
      <trkpt lat="45.33157" lon="6.18657">
        <ele>2328.7</ele>
        <time>2022-07-22T19:23:06.000Z</time>
      </trkpt>
      <trkpt lat="45.33165" lon="6.18662">
        <ele>2324.2</ele>
        <time>2022-07-22T19:23:16.000Z</time>
      </trkpt>
      <trkpt lat="45.33168" lon="6.1866">
        <ele>2322.1</ele>
        <time>2022-07-22T19:23:26.000Z</time>
      </trkpt>
      <trkpt lat="45.33171" lon="6.1866">
        <ele>2319.9</ele>
        <time>2022-07-22T19:23:36.000Z</time>
      </trkpt>
      <trkpt lat="45.33171" lon="6.18663">
        <ele>2322</ele>
        <time>2022-07-22T19:23:46.000Z</time>
      </trkpt>
      <trkpt lat="45.33173" lon="6.18663">
        <ele>2319.2</ele>
        <time>2022-07-22T19:23:56.000Z</time>
      </trkpt>
      <trkpt lat="45.33178" lon="6.18671">
        <ele>2316.2</ele>
        <time>2022-07-22T19:24:06.000Z</time>
      </trkpt>
      <trkpt lat="45.33179" lon="6.18677">
        <ele>2314.8</ele>
        <time>2022-07-22T19:24:16.000Z</time>
      </trkpt>
      <trkpt lat="45.33185" lon="6.18683">
        <ele>2322</ele>
        <time>2022-07-22T19:24:26.000Z</time>
      </trkpt>
      <trkpt lat="45.33189" lon="6.18685">
        <ele>2313.6</ele>
        <time>2022-07-22T19:24:36.000Z</time>
      </trkpt>
      <trkpt lat="45.33193" lon="6.18684">
        <ele>2313.3</ele>
        <time>2022-07-22T19:24:46.000Z</time>
      </trkpt>
      <trkpt lat="45.33198" lon="6.18684">
        <ele>2312.7</ele>
        <time>2022-07-22T19:24:56.000Z</time>
      </trkpt>
      <trkpt lat="45.33203" lon="6.18686">
        <ele>2312.8</ele>
        <time>2022-07-22T19:25:06.000Z</time>
      </trkpt>
      <trkpt lat="45.33209" lon="6.18685">
        <ele>2316</ele>
        <time>2022-07-22T19:25:16.000Z</time>
      </trkpt>
      <trkpt lat="45.33216" lon="6.18688">
        <ele>2312.3</ele>
        <time>2022-07-22T19:25:26.000Z</time>
      </trkpt>
      <trkpt lat="45.33219" lon="6.18688">
        <ele>2312</ele>
        <time>2022-07-22T19:25:36.000Z</time>
      </trkpt>
      <trkpt lat="45.33229" lon="6.18692">
        <ele>2309</ele>
        <time>2022-07-22T19:25:46.000Z</time>
      </trkpt>
      <trkpt lat="45.33231" lon="6.18691">
        <ele>2309.6</ele>
        <time>2022-07-22T19:25:56.000Z</time>
      </trkpt>
      <trkpt lat="45.33235" lon="6.18692">
        <ele>2308.5</ele>
        <time>2022-07-22T19:26:06.000Z</time>
      </trkpt>
      <trkpt lat="45.33239" lon="6.18695">
        <ele>2308.7</ele>
        <time>2022-07-22T19:26:16.000Z</time>
      </trkpt>
      <trkpt lat="45.33245" lon="6.18698">
        <ele>2306.5</ele>
        <time>2022-07-22T19:26:26.000Z</time>
      </trkpt>
      <trkpt lat="45.33255" lon="6.18708">
        <ele>2307</ele>
        <time>2022-07-22T19:26:36.000Z</time>
      </trkpt>
      <trkpt lat="45.33259" lon="6.18715">
        <ele>2302.5</ele>
        <time>2022-07-22T19:26:46.000Z</time>
      </trkpt>
      <trkpt lat="45.33264" lon="6.1872">
        <ele>2301</ele>
        <time>2022-07-22T19:26:56.000Z</time>
      </trkpt>
      <trkpt lat="45.3327" lon="6.18731">
        <ele>2306</ele>
        <time>2022-07-22T19:27:06.000Z</time>
      </trkpt>
      <trkpt lat="45.33272" lon="6.18736">
        <ele>2297.3</ele>
        <time>2022-07-22T19:27:16.000Z</time>
      </trkpt>
      <trkpt lat="45.33273" lon="6.18741">
        <ele>2297.2</ele>
        <time>2022-07-22T19:27:26.000Z</time>
      </trkpt>
      <trkpt lat="45.3328" lon="6.18747">
        <ele>2295.5</ele>
        <time>2022-07-22T19:27:36.000Z</time>
      </trkpt>
      <trkpt lat="45.33286" lon="6.18751">
        <ele>2297</ele>
        <time>2022-07-22T19:27:46.000Z</time>
      </trkpt>
      <trkpt lat="45.33291" lon="6.18758">
        <ele>2289.2</ele>
        <time>2022-07-22T19:27:56.000Z</time>
      </trkpt>
      <trkpt lat="45.33293" lon="6.18758">
        <ele>2288.6</ele>
        <time>2022-07-22T19:28:06.000Z</time>
      </trkpt>
      <trkpt lat="45.33297" lon="6.18762">
        <ele>2286.8</ele>
        <time>2022-07-22T19:28:16.000Z</time>
      </trkpt>
      <trkpt lat="45.33302" lon="6.18765">
        <ele>2283</ele>
        <time>2022-07-22T19:28:26.000Z</time>
      </trkpt>
      <trkpt lat="45.33304" lon="6.18764">
        <ele>2285.3</ele>
        <time>2022-07-22T19:28:36.000Z</time>
      </trkpt>
      <trkpt lat="45.33307" lon="6.18769">
        <ele>2285</ele>
        <time>2022-07-22T19:28:46.000Z</time>
      </trkpt>
      <trkpt lat="45.33313" lon="6.1877">
        <ele>2285.1</ele>
        <time>2022-07-22T19:28:56.000Z</time>
      </trkpt>
      <trkpt lat="45.3332" lon="6.1877">
        <ele>2275</ele>
        <time>2022-07-22T19:29:06.000Z</time>
      </trkpt>
      <trkpt lat="45.33322" lon="6.18772">
        <ele>2285.7</ele>
        <time>2022-07-22T19:29:16.000Z</time>
      </trkpt>
      <trkpt lat="45.33324" lon="6.18772">
        <ele>2285.7</ele>
        <time>2022-07-22T19:29:26.000Z</time>
      </trkpt>
      <trkpt lat="45.33326" lon="6.18774">
        <ele>2286.3</ele>
        <time>2022-07-22T19:29:36.000Z</time>
      </trkpt>
      <trkpt lat="45.33329" lon="6.18774">
        <ele>2286.5</ele>
        <time>2022-07-22T19:29:46.000Z</time>
      </trkpt>
      <trkpt lat="45.33326" lon="6.18771">
        <ele>2285.6</ele>
        <time>2022-07-22T19:29:56.000Z</time>
      </trkpt>
      <trkpt lat="45.33324" lon="6.18764">
        <ele>2284</ele>
        <time>2022-07-22T19:30:06.000Z</time>
      </trkpt>
      <trkpt lat="45.33321" lon="6.18763">
        <ele>2271</ele>
        <time>2022-07-22T19:30:16.000Z</time>
      </trkpt>
      <trkpt lat="45.33326" lon="6.18757">
        <ele>2282.3</ele>
        <time>2022-07-22T19:30:26.000Z</time>
      </trkpt>
      <trkpt lat="45.33327" lon="6.18755">
        <ele>2281.6</ele>
        <time>2022-07-22T19:30:36.000Z</time>
      </trkpt>
      <trkpt lat="45.33325" lon="6.18755">
        <ele>2281.9</ele>
        <time>2022-07-22T19:30:46.000Z</time>
      </trkpt>
      <trkpt lat="45.33323" lon="6.18754">
        <ele>2282</ele>
        <time>2022-07-22T19:30:56.000Z</time>
      </trkpt>
      <trkpt lat="45.33327" lon="6.1875">
        <ele>2280.4</ele>
        <time>2022-07-22T19:31:06.000Z</time>
      </trkpt>
      <trkpt lat="45.33327" lon="6.18747">
        <ele>2271</ele>
        <time>2022-07-22T19:31:16.000Z</time>
      </trkpt>
      <trkpt lat="45.33326" lon="6.18744">
        <ele>2277.7</ele>
        <time>2022-07-22T19:31:26.000Z</time>
      </trkpt>
      <trkpt lat="45.33327" lon="6.18741">
        <ele>2276.1</ele>
        <time>2022-07-22T19:31:36.000Z</time>
      </trkpt>
      <trkpt lat="45.33326" lon="6.18737">
        <ele>2274.4</ele>
        <time>2022-07-22T19:31:46.000Z</time>
      </trkpt>
      <trkpt lat="45.33326" lon="6.18735">
        <ele>2273.5</ele>
        <time>2022-07-22T19:31:56.000Z</time>
      </trkpt>
      <trkpt lat="45.3333" lon="6.18732">
        <ele>2270.9</ele>
        <time>2022-07-22T19:32:06.000Z</time>
      </trkpt>
      <trkpt lat="45.33333" lon="6.18732">
        <ele>2270</ele>
        <time>2022-07-22T19:32:16.000Z</time>
      </trkpt>
      <trkpt lat="45.33339" lon="6.1873">
        <ele>2264</ele>
        <time>2022-07-22T19:32:26.000Z</time>
      </trkpt>
      <trkpt lat="45.33342" lon="6.18727">
        <ele>2269.6</ele>
        <time>2022-07-22T19:32:36.000Z</time>
      </trkpt>
      <trkpt lat="45.33343" lon="6.18724">
        <ele>2268.4</ele>
        <time>2022-07-22T19:32:46.000Z</time>
      </trkpt>
      <trkpt lat="45.33346" lon="6.18719">
        <ele>2266.7</ele>
        <time>2022-07-22T19:32:56.000Z</time>
      </trkpt>
      <trkpt lat="45.33348" lon="6.18717">
        <ele>2266.4</ele>
        <time>2022-07-22T19:33:06.000Z</time>
      </trkpt>
      <trkpt lat="45.33352" lon="6.18708">
        <ele>2258</ele>
        <time>2022-07-22T19:33:16.000Z</time>
      </trkpt>
      <trkpt lat="45.33358" lon="6.187">
        <ele>2261.5</ele>
        <time>2022-07-22T19:33:26.000Z</time>
      </trkpt>
      <trkpt lat="45.33362" lon="6.18691">
        <ele>2259</ele>
        <time>2022-07-22T19:33:36.000Z</time>
      </trkpt>
      <trkpt lat="45.33365" lon="6.18687">
        <ele>2249</ele>
        <time>2022-07-22T19:33:46.000Z</time>
      </trkpt>
      <trkpt lat="45.33368" lon="6.18685">
        <ele>2257.3</ele>
        <time>2022-07-22T19:33:56.000Z</time>
      </trkpt>
      <trkpt lat="45.3337" lon="6.18681">
        <ele>2255.7</ele>
        <time>2022-07-22T19:34:06.000Z</time>
      </trkpt>
      <trkpt lat="45.33367" lon="6.18671">
        <ele>2251.8</ele>
        <time>2022-07-22T19:34:16.000Z</time>
      </trkpt>
      <trkpt lat="45.33365" lon="6.18669">
        <ele>2251.3</ele>
        <time>2022-07-22T19:34:26.000Z</time>
      </trkpt>
      <trkpt lat="45.33362" lon="6.18668">
        <ele>2249</ele>
        <time>2022-07-22T19:34:36.000Z</time>
      </trkpt>
      <trkpt lat="45.33361" lon="6.18666">
        <ele>2250.7</ele>
        <time>2022-07-22T19:34:46.000Z</time>
      </trkpt>
      <trkpt lat="45.33362" lon="6.18662">
        <ele>2249</ele>
        <time>2022-07-22T19:34:56.000Z</time>
      </trkpt>
      <trkpt lat="45.33364" lon="6.18661">
        <ele>2248.3</ele>
        <time>2022-07-22T19:35:06.000Z</time>
      </trkpt>
      <trkpt lat="45.33365" lon="6.18659">
        <ele>2247.2</ele>
        <time>2022-07-22T19:35:16.000Z</time>
      </trkpt>
      <trkpt lat="45.33369" lon="6.18657">
        <ele>2245.6</ele>
        <time>2022-07-22T19:35:26.000Z</time>
      </trkpt>
      <trkpt lat="45.33373" lon="6.18658">
        <ele>2245.3</ele>
        <time>2022-07-22T19:35:36.000Z</time>
      </trkpt>
      <trkpt lat="45.33373" lon="6.18655">
        <ele>2238</ele>
        <time>2022-07-22T19:35:46.000Z</time>
      </trkpt>
      <trkpt lat="45.33369" lon="6.1865">
        <ele>2242.6</ele>
        <time>2022-07-22T19:35:56.000Z</time>
      </trkpt>
      <trkpt lat="45.33368" lon="6.18647">
        <ele>2241.5</ele>
        <time>2022-07-22T19:36:06.000Z</time>
      </trkpt>
      <trkpt lat="45.33369" lon="6.18645">
        <ele>2240.4</ele>
        <time>2022-07-22T19:36:16.000Z</time>
      </trkpt>
      <trkpt lat="45.33369" lon="6.18642">
        <ele>2239.1</ele>
        <time>2022-07-22T19:36:26.000Z</time>
      </trkpt>
      <trkpt lat="45.33361" lon="6.18634">
        <ele>2238</ele>
        <time>2022-07-22T19:36:36.000Z</time>
      </trkpt>
      <trkpt lat="45.33359" lon="6.18629">
        <ele>2235.2</ele>
        <time>2022-07-22T19:36:46.000Z</time>
      </trkpt>
      <trkpt lat="45.33359" lon="6.18626">
        <ele>2233.9</ele>
        <time>2022-07-22T19:36:56.000Z</time>
      </trkpt>
      <trkpt lat="45.33358" lon="6.18624">
        <ele>2232.8</ele>
        <time>2022-07-22T19:37:06.000Z</time>
      </trkpt>
      <trkpt lat="45.33356" lon="6.18622">
        <ele>2231.5</ele>
        <time>2022-07-22T19:37:16.000Z</time>
      </trkpt>
      <trkpt lat="45.33352" lon="6.18624">
        <ele>2231.4</ele>
        <time>2022-07-22T19:37:26.000Z</time>
      </trkpt>
      <trkpt lat="45.3335" lon="6.18624">
        <ele>2231</ele>
        <time>2022-07-22T19:37:36.000Z</time>
      </trkpt>
      <trkpt lat="45.3335" lon="6.1862">
        <ele>2234</ele>
        <time>2022-07-22T19:37:46.000Z</time>
      </trkpt>
      <trkpt lat="45.33349" lon="6.18618">
        <ele>2228</ele>
        <time>2022-07-22T19:37:56.000Z</time>
      </trkpt>
      <trkpt lat="45.33345" lon="6.18615">
        <ele>2225.7</ele>
        <time>2022-07-22T19:38:06.000Z</time>
      </trkpt>
      <trkpt lat="45.3334" lon="6.18615">
        <ele>2224.5</ele>
        <time>2022-07-22T19:38:16.000Z</time>
      </trkpt>
      <trkpt lat="45.33327" lon="6.18617">
        <ele>2231</ele>
        <time>2022-07-22T19:38:26.000Z</time>
      </trkpt>
      <trkpt lat="45.33325" lon="6.18619">
        <ele>2223.9</ele>
        <time>2022-07-22T19:38:36.000Z</time>
      </trkpt>
      <trkpt lat="45.33323" lon="6.18619">
        <ele>2223.7</ele>
        <time>2022-07-22T19:38:46.000Z</time>
      </trkpt>
      <trkpt lat="45.33323" lon="6.18616">
        <ele>2222.2</ele>
        <time>2022-07-22T19:38:56.000Z</time>
      </trkpt>
      <trkpt lat="45.33327" lon="6.18607">
        <ele>2219</ele>
        <time>2022-07-22T19:39:06.000Z</time>
      </trkpt>
      <trkpt lat="45.33327" lon="6.186">
        <ele>2231</ele>
        <time>2022-07-22T19:39:16.000Z</time>
      </trkpt>
      <trkpt lat="45.33328" lon="6.18597">
        <ele>2215.8</ele>
        <time>2022-07-22T19:39:26.000Z</time>
      </trkpt>
      <trkpt lat="45.33328" lon="6.18586">
        <ele>2212.1</ele>
        <time>2022-07-22T19:39:36.000Z</time>
      </trkpt>
      <trkpt lat="45.33329" lon="6.1858">
        <ele>2210.3</ele>
        <time>2022-07-22T19:39:46.000Z</time>
      </trkpt>
      <trkpt lat="45.33329" lon="6.18576">
        <ele>2209</ele>
        <time>2022-07-22T19:39:56.000Z</time>
      </trkpt>
      <trkpt lat="45.3333" lon="6.18574">
        <ele>2208.4</ele>
        <time>2022-07-22T19:40:06.000Z</time>
      </trkpt>
      <trkpt lat="45.33336" lon="6.18568">
        <ele>2211</ele>
        <time>2022-07-22T19:40:16.000Z</time>
      </trkpt>
      <trkpt lat="45.33335" lon="6.18566">
        <ele>2205.6</ele>
        <time>2022-07-22T19:40:26.000Z</time>
      </trkpt>
      <trkpt lat="45.33331" lon="6.18564">
        <ele>2205.1</ele>
        <time>2022-07-22T19:40:36.000Z</time>
      </trkpt>
      <trkpt lat="45.33332" lon="6.1856">
        <ele>2203.6</ele>
        <time>2022-07-22T19:40:46.000Z</time>
      </trkpt>
      <trkpt lat="45.33335" lon="6.18557">
        <ele>2202.2</ele>
        <time>2022-07-22T19:40:56.000Z</time>
      </trkpt>
      <trkpt lat="45.33344" lon="6.18555">
        <ele>2211</ele>
        <time>2022-07-22T19:41:06.000Z</time>
      </trkpt>
      <trkpt lat="45.33353" lon="6.18558">
        <ele>2199.8</ele>
        <time>2022-07-22T19:41:16.000Z</time>
      </trkpt>
      <trkpt lat="45.33355" lon="6.18557">
        <ele>2198.9</ele>
        <time>2022-07-22T19:41:26.000Z</time>
      </trkpt>
      <trkpt lat="45.33356" lon="6.18555">
        <ele>2197.6</ele>
        <time>2022-07-22T19:41:36.000Z</time>
      </trkpt>
      <trkpt lat="45.33354" lon="6.18552">
        <ele>2196.5</ele>
        <time>2022-07-22T19:41:46.000Z</time>
      </trkpt>
      <trkpt lat="45.33348" lon="6.18549">
        <ele>2200</ele>
        <time>2022-07-22T19:41:56.000Z</time>
      </trkpt>
      <trkpt lat="45.33346" lon="6.18543">
        <ele>2193.7</ele>
        <time>2022-07-22T19:42:06.000Z</time>
      </trkpt>
      <trkpt lat="45.33344" lon="6.18541">
        <ele>2193.2</ele>
        <time>2022-07-22T19:42:16.000Z</time>
      </trkpt>
      <trkpt lat="45.33343" lon="6.18539">
        <ele>2192.5</ele>
        <time>2022-07-22T19:42:26.000Z</time>
      </trkpt>
      <trkpt lat="45.33343" lon="6.18536">
        <ele>2191.1</ele>
        <time>2022-07-22T19:42:36.000Z</time>
      </trkpt>
      <trkpt lat="45.33344" lon="6.18533">
        <ele>2189.4</ele>
        <time>2022-07-22T19:42:46.000Z</time>
      </trkpt>
      <trkpt lat="45.33346" lon="6.18533">
        <ele>2188.9</ele>
        <time>2022-07-22T19:42:56.000Z</time>
      </trkpt>
      <trkpt lat="45.3335" lon="6.18529">
        <ele>2190</ele>
        <time>2022-07-22T19:43:06.000Z</time>
      </trkpt>
      <trkpt lat="45.33348" lon="6.18527">
        <ele>2185.5</ele>
        <time>2022-07-22T19:43:16.000Z</time>
      </trkpt>
      <trkpt lat="45.33347" lon="6.18523">
        <ele>2184.1</ele>
        <time>2022-07-22T19:43:26.000Z</time>
      </trkpt>
      <trkpt lat="45.33347" lon="6.18518">
        <ele>2182</ele>
        <time>2022-07-22T19:43:36.000Z</time>
      </trkpt>
      <trkpt lat="45.33349" lon="6.18515">
        <ele>2180.3</ele>
        <time>2022-07-22T19:43:46.000Z</time>
      </trkpt>
      <trkpt lat="45.33356" lon="6.18517">
        <ele>2183</ele>
        <time>2022-07-22T19:43:56.000Z</time>
      </trkpt>
      <trkpt lat="45.33359" lon="6.18517">
        <ele>2179</ele>
        <time>2022-07-22T19:44:06.000Z</time>
      </trkpt>
      <trkpt lat="45.33359" lon="6.18514">
        <ele>2178</ele>
        <time>2022-07-22T19:44:16.000Z</time>
      </trkpt>
      <trkpt lat="45.33357" lon="6.18513">
        <ele>2178</ele>
        <time>2022-07-22T19:44:26.000Z</time>
      </trkpt>
      <trkpt lat="45.33356" lon="6.1851">
        <ele>2177.1</ele>
        <time>2022-07-22T19:44:36.000Z</time>
      </trkpt>
      <trkpt lat="45.33354" lon="6.18508">
        <ele>2176.7</ele>
        <time>2022-07-22T19:44:46.000Z</time>
      </trkpt>
      <trkpt lat="45.33358" lon="6.18503">
        <ele>2174.4</ele>
        <time>2022-07-22T19:44:56.000Z</time>
      </trkpt>
      <trkpt lat="45.33359" lon="6.185">
        <ele>2183</ele>
        <time>2022-07-22T19:45:06.000Z</time>
      </trkpt>
      <trkpt lat="45.33364" lon="6.18498">
        <ele>2172.7</ele>
        <time>2022-07-22T19:45:16.000Z</time>
      </trkpt>
      <trkpt lat="45.33366" lon="6.18494">
        <ele>2171.9</ele>
        <time>2022-07-22T19:45:26.000Z</time>
      </trkpt>
      <trkpt lat="45.33366" lon="6.18486">
        <ele>2169.7</ele>
        <time>2022-07-22T19:45:36.000Z</time>
      </trkpt>
      <trkpt lat="45.33368" lon="6.18482">
        <ele>2169.2</ele>
        <time>2022-07-22T19:45:46.000Z</time>
      </trkpt>
      <trkpt lat="45.33368" lon="6.18459">
        <ele>2172</ele>
        <time>2022-07-22T19:45:56.000Z</time>
      </trkpt>
      <trkpt lat="45.33364" lon="6.18449">
        <ele>2160.8</ele>
        <time>2022-07-22T19:46:06.000Z</time>
      </trkpt>
      <trkpt lat="45.33365" lon="6.18445">
        <ele>2160.4</ele>
        <time>2022-07-22T19:46:16.000Z</time>
      </trkpt>
      <trkpt lat="45.33364" lon="6.18439">
        <ele>2159.7</ele>
        <time>2022-07-22T19:46:26.000Z</time>
      </trkpt>
      <trkpt lat="45.33359" lon="6.18429">
        <ele>2164</ele>
        <time>2022-07-22T19:46:36.000Z</time>
      </trkpt>
      <trkpt lat="45.33355" lon="6.18416">
        <ele>2157.5</ele>
        <time>2022-07-22T19:46:46.000Z</time>
      </trkpt>
      <trkpt lat="45.33356" lon="6.18413">
        <ele>2157.2</ele>
        <time>2022-07-22T19:46:56.000Z</time>
      </trkpt>
      <trkpt lat="45.33352" lon="6.18409">
        <ele>2156.5</ele>
        <time>2022-07-22T19:47:06.000Z</time>
      </trkpt>
      <trkpt lat="45.33348" lon="6.18396">
        <ele>2156</ele>
        <time>2022-07-22T19:47:16.000Z</time>
      </trkpt>
      <trkpt lat="45.33349" lon="6.18388">
        <ele>2154.1</ele>
        <time>2022-07-22T19:47:26.000Z</time>
      </trkpt>
      <trkpt lat="45.33347" lon="6.18379">
        <ele>2153.1</ele>
        <time>2022-07-22T19:47:36.000Z</time>
      </trkpt>
      <trkpt lat="45.33347" lon="6.18369">
        <ele>2153</ele>
        <time>2022-07-22T19:47:46.000Z</time>
      </trkpt>
      <trkpt lat="45.33348" lon="6.18365">
        <ele>2151.9</ele>
        <time>2022-07-22T19:47:56.000Z</time>
      </trkpt>
      <trkpt lat="45.33352" lon="6.1836">
        <ele>2151.9</ele>
        <time>2022-07-22T19:48:06.000Z</time>
      </trkpt>
      <trkpt lat="45.33353" lon="6.18357">
        <ele>2151.5</ele>
        <time>2022-07-22T19:48:16.000Z</time>
      </trkpt>
      <trkpt lat="45.33359" lon="6.18353">
        <ele>2151.6</ele>
        <time>2022-07-22T19:48:26.000Z</time>
      </trkpt>
      <trkpt lat="45.33368" lon="6.1833">
        <ele>2149</ele>
        <time>2022-07-22T19:48:36.000Z</time>
      </trkpt>
      <trkpt lat="45.33371" lon="6.18326">
        <ele>2150.8</ele>
        <time>2022-07-22T19:48:46.000Z</time>
      </trkpt>
      <trkpt lat="45.33373" lon="6.18321">
        <ele>2151.1</ele>
        <time>2022-07-22T19:48:56.000Z</time>
      </trkpt>
      <trkpt lat="45.33374" lon="6.18315">
        <ele>2151.3</ele>
        <time>2022-07-22T19:49:06.000Z</time>
      </trkpt>
      <trkpt lat="45.33377" lon="6.18308">
        <ele>2151.9</ele>
        <time>2022-07-22T19:49:16.000Z</time>
      </trkpt>
      <trkpt lat="45.3338" lon="6.18304">
        <ele>2148</ele>
        <time>2022-07-22T19:49:26.000Z</time>
      </trkpt>
      <trkpt lat="45.33386" lon="6.18301">
        <ele>2153.3</ele>
        <time>2022-07-22T19:49:36.000Z</time>
      </trkpt>
      <trkpt lat="45.3339" lon="6.18296">
        <ele>2153.8</ele>
        <time>2022-07-22T19:49:46.000Z</time>
      </trkpt>
      <trkpt lat="45.33393" lon="6.1829">
        <ele>2153.8</ele>
        <time>2022-07-22T19:49:56.000Z</time>
      </trkpt>
      <trkpt lat="45.334" lon="6.1829">
        <ele>2151</ele>
        <time>2022-07-22T19:50:06.000Z</time>
      </trkpt>
      <trkpt lat="45.33404" lon="6.18289">
        <ele>2154.7</ele>
        <time>2022-07-22T19:50:16.000Z</time>
      </trkpt>
      <trkpt lat="45.33411" lon="6.18283">
        <ele>2154.9</ele>
        <time>2022-07-22T19:50:26.000Z</time>
      </trkpt>
      <trkpt lat="45.33415" lon="6.18272">
        <ele>2150</ele>
        <time>2022-07-22T19:50:36.000Z</time>
      </trkpt>
      <trkpt lat="45.33415" lon="6.18269">
        <ele>2153.3</ele>
        <time>2022-07-22T19:50:46.000Z</time>
      </trkpt>
      <trkpt lat="45.33416" lon="6.18266">
        <ele>2152.8</ele>
        <time>2022-07-22T19:50:56.000Z</time>
      </trkpt>
      <trkpt lat="45.33428" lon="6.18252">
        <ele>2149</ele>
        <time>2022-07-22T19:51:06.000Z</time>
      </trkpt>
      <trkpt lat="45.3343" lon="6.18244">
        <ele>2150.1</ele>
        <time>2022-07-22T19:51:16.000Z</time>
      </trkpt>
      <trkpt lat="45.33434" lon="6.18233">
        <ele>2149</ele>
        <time>2022-07-22T19:51:26.000Z</time>
      </trkpt>
      <trkpt lat="45.33433" lon="6.18229">
        <ele>2148.3</ele>
        <time>2022-07-22T19:51:36.000Z</time>
      </trkpt>
      <trkpt lat="45.33434" lon="6.18224">
        <ele>2142</ele>
        <time>2022-07-22T19:51:46.000Z</time>
      </trkpt>
      <trkpt lat="45.33436" lon="6.18223">
        <ele>2147.9</ele>
        <time>2022-07-22T19:51:56.000Z</time>
      </trkpt>
      <trkpt lat="45.33438" lon="6.18216">
        <ele>2146.5</ele>
        <time>2022-07-22T19:52:06.000Z</time>
      </trkpt>
      <trkpt lat="45.33438" lon="6.18213">
        <ele>2145.7</ele>
        <time>2022-07-22T19:52:16.000Z</time>
      </trkpt>
      <trkpt lat="45.33436" lon="6.18207">
        <ele>2143.8</ele>
        <time>2022-07-22T19:52:26.000Z</time>
      </trkpt>
      <trkpt lat="45.33437" lon="6.18204">
        <ele>2143.2</ele>
        <time>2022-07-22T19:52:36.000Z</time>
      </trkpt>
      <trkpt lat="45.33439" lon="6.18202">
        <ele>2135</ele>
        <time>2022-07-22T19:52:46.000Z</time>
      </trkpt>
      <trkpt lat="45.33442" lon="6.18196">
        <ele>2142</ele>
        <time>2022-07-22T19:52:56.000Z</time>
      </trkpt>
      <trkpt lat="45.33441" lon="6.18191">
        <ele>2140.8</ele>
        <time>2022-07-22T19:53:06.000Z</time>
      </trkpt>
      <trkpt lat="45.33441" lon="6.18187">
        <ele>2140</ele>
        <time>2022-07-22T19:53:16.000Z</time>
      </trkpt>
      <trkpt lat="45.33445" lon="6.18179">
        <ele>2139</ele>
        <time>2022-07-22T19:53:26.000Z</time>
      </trkpt>
      <trkpt lat="45.33445" lon="6.18177">
        <ele>2130</ele>
        <time>2022-07-22T19:53:36.000Z</time>
      </trkpt>
      <trkpt lat="45.33447" lon="6.18173">
        <ele>2137.2</ele>
        <time>2022-07-22T19:53:46.000Z</time>
      </trkpt>
      <trkpt lat="45.33447" lon="6.1817">
        <ele>2136.7</ele>
        <time>2022-07-22T19:53:56.000Z</time>
      </trkpt>
      <trkpt lat="45.33448" lon="6.18164">
        <ele>2135.2</ele>
        <time>2022-07-22T19:54:06.000Z</time>
      </trkpt>
      <trkpt lat="45.33447" lon="6.18161">
        <ele>2135</ele>
        <time>2022-07-22T19:54:16.000Z</time>
      </trkpt>
      <trkpt lat="45.33448" lon="6.1815">
        <ele>2125</ele>
        <time>2022-07-22T19:54:26.000Z</time>
      </trkpt>
      <trkpt lat="45.33448" lon="6.18138">
        <ele>2130.4</ele>
        <time>2022-07-22T19:54:36.000Z</time>
      </trkpt>
      <trkpt lat="45.33446" lon="6.18135">
        <ele>2130.5</ele>
        <time>2022-07-22T19:54:46.000Z</time>
      </trkpt>
      <trkpt lat="45.33446" lon="6.18132">
        <ele>2129.9</ele>
        <time>2022-07-22T19:54:56.000Z</time>
      </trkpt>
      <trkpt lat="45.33448" lon="6.18128">
        <ele>2128.1</ele>
        <time>2022-07-22T19:55:06.000Z</time>
      </trkpt>
      <trkpt lat="45.3345" lon="6.1813">
        <ele>2125</ele>
        <time>2022-07-22T19:55:16.000Z</time>
      </trkpt>
      <trkpt lat="45.33453" lon="6.18135">
        <ele>2127.7</ele>
        <time>2022-07-22T19:55:26.000Z</time>
      </trkpt>
      <trkpt lat="45.33459" lon="6.18139">
        <ele>2126.3</ele>
        <time>2022-07-22T19:55:36.000Z</time>
      </trkpt>
      <trkpt lat="45.33463" lon="6.18143">
        <ele>2125.5</ele>
        <time>2022-07-22T19:55:46.000Z</time>
      </trkpt>
      <trkpt lat="45.33464" lon="6.18147">
        <ele>2122</ele>
        <time>2022-07-22T19:55:56.000Z</time>
      </trkpt>
      <trkpt lat="45.33466" lon="6.18151">
        <ele>2126</ele>
        <time>2022-07-22T19:56:06.000Z</time>
      </trkpt>
      <trkpt lat="45.3347" lon="6.18154">
        <ele>2125.1</ele>
        <time>2022-07-22T19:56:16.000Z</time>
      </trkpt>
      <trkpt lat="45.33475" lon="6.18148">
        <ele>2122.5</ele>
        <time>2022-07-22T19:56:26.000Z</time>
      </trkpt>
      <trkpt lat="45.33477" lon="6.18143">
        <ele>2121.2</ele>
        <time>2022-07-22T19:56:36.000Z</time>
      </trkpt>
      <trkpt lat="45.33479" lon="6.18141">
        <ele>2122</ele>
        <time>2022-07-22T19:56:46.000Z</time>
      </trkpt>
      <trkpt lat="45.33481" lon="6.1814">
        <ele>2120</ele>
        <time>2022-07-22T19:56:56.000Z</time>
      </trkpt>
      <trkpt lat="45.33484" lon="6.1814">
        <ele>2119.5</ele>
        <time>2022-07-22T19:57:06.000Z</time>
      </trkpt>
      <trkpt lat="45.33488" lon="6.18137">
        <ele>2118.2</ele>
        <time>2022-07-22T19:57:16.000Z</time>
      </trkpt>
      <trkpt lat="45.33492" lon="6.18136">
        <ele>2117.4</ele>
        <time>2022-07-22T19:57:26.000Z</time>
      </trkpt>
      <trkpt lat="45.33497" lon="6.18138">
        <ele>2117.2</ele>
        <time>2022-07-22T19:57:36.000Z</time>
      </trkpt>
      <trkpt lat="45.33499" lon="6.18138">
        <ele>2119</ele>
        <time>2022-07-22T19:57:46.000Z</time>
      </trkpt>
      <trkpt lat="45.33505" lon="6.18133">
        <ele>2114.4</ele>
        <time>2022-07-22T19:57:56.000Z</time>
      </trkpt>
      <trkpt lat="45.3351" lon="6.18133">
        <ele>2113.3</ele>
        <time>2022-07-22T19:58:06.000Z</time>
      </trkpt>
      <trkpt lat="45.3351" lon="6.1813">
        <ele>2112.5</ele>
        <time>2022-07-22T19:58:16.000Z</time>
      </trkpt>
      <trkpt lat="45.33509" lon="6.18126">
        <ele>2111.7</ele>
        <time>2022-07-22T19:58:26.000Z</time>
      </trkpt>
      <trkpt lat="45.33507" lon="6.18124">
        <ele>2113</ele>
        <time>2022-07-22T19:58:36.000Z</time>
      </trkpt>
      <trkpt lat="45.33504" lon="6.18115">
        <ele>2110</ele>
        <time>2022-07-22T19:58:46.000Z</time>
      </trkpt>
      <trkpt lat="45.33507" lon="6.18111">
        <ele>2108.2</ele>
        <time>2022-07-22T19:58:56.000Z</time>
      </trkpt>
      <trkpt lat="45.33506" lon="6.18108">
        <ele>2107.6</ele>
        <time>2022-07-22T19:59:06.000Z</time>
      </trkpt>
      <trkpt lat="45.33506" lon="6.18104">
        <ele>2106.6</ele>
        <time>2022-07-22T19:59:16.000Z</time>
      </trkpt>
      <trkpt lat="45.33505" lon="6.18099">
        <ele>2107</ele>
        <time>2022-07-22T19:59:26.000Z</time>
      </trkpt>
      <trkpt lat="45.33506" lon="6.18096">
        <ele>2104.4</ele>
        <time>2022-07-22T19:59:36.000Z</time>
      </trkpt>
      <trkpt lat="45.33505" lon="6.18091">
        <ele>2103.2</ele>
        <time>2022-07-22T19:59:46.000Z</time>
      </trkpt>
      <trkpt lat="45.33507" lon="6.18089">
        <ele>2102.3</ele>
        <time>2022-07-22T19:59:56.000Z</time>
      </trkpt>
      <trkpt lat="45.33509" lon="6.18089">
        <ele>2101.9</ele>
        <time>2022-07-22T20:00:06.000Z</time>
      </trkpt>
      <trkpt lat="45.33511" lon="6.18087">
        <ele>2101</ele>
        <time>2022-07-22T20:00:16.000Z</time>
      </trkpt>
      <trkpt lat="45.3351" lon="6.18074">
        <ele>2107</ele>
        <time>2022-07-22T20:00:26.000Z</time>
      </trkpt>
      <trkpt lat="45.33513" lon="6.18068">
        <ele>2096.1</ele>
        <time>2022-07-22T20:00:36.000Z</time>
      </trkpt>
      <trkpt lat="45.33517" lon="6.18064">
        <ele>2094.5</ele>
        <time>2022-07-22T20:00:46.000Z</time>
      </trkpt>
      <trkpt lat="45.33517" lon="6.1806">
        <ele>2093.6</ele>
        <time>2022-07-22T20:00:56.000Z</time>
      </trkpt>
      <trkpt lat="45.33519" lon="6.18058">
        <ele>2092.8</ele>
        <time>2022-07-22T20:01:06.000Z</time>
      </trkpt>
      <trkpt lat="45.33521" lon="6.18047">
        <ele>2087</ele>
        <time>2022-07-22T20:01:16.000Z</time>
      </trkpt>
      <trkpt lat="45.33521" lon="6.18038">
        <ele>2088.8</ele>
        <time>2022-07-22T20:01:26.000Z</time>
      </trkpt>
      <trkpt lat="45.33524" lon="6.18031">
        <ele>2087.1</ele>
        <time>2022-07-22T20:01:36.000Z</time>
      </trkpt>
      <trkpt lat="45.33525" lon="6.18025">
        <ele>2086.1</ele>
        <time>2022-07-22T20:01:46.000Z</time>
      </trkpt>
      <trkpt lat="45.33523" lon="6.18013">
        <ele>2084</ele>
        <time>2022-07-22T20:01:56.000Z</time>
      </trkpt>
      <trkpt lat="45.33525" lon="6.18004">
        <ele>2083.8</ele>
        <time>2022-07-22T20:02:06.000Z</time>
      </trkpt>
      <trkpt lat="45.33524" lon="6.17997">
        <ele>2083.2</ele>
        <time>2022-07-22T20:02:16.000Z</time>
      </trkpt>
      <trkpt lat="45.33525" lon="6.17991">
        <ele>2082.4</ele>
        <time>2022-07-22T20:02:26.000Z</time>
      </trkpt>
      <trkpt lat="45.33521" lon="6.17976">
        <ele>2083</ele>
        <time>2022-07-22T20:02:36.000Z</time>
      </trkpt>
      <trkpt lat="45.33523" lon="6.17968">
        <ele>2080.1</ele>
        <time>2022-07-22T20:02:46.000Z</time>
      </trkpt>
      <trkpt lat="45.33519" lon="6.17955">
        <ele>2079.1</ele>
        <time>2022-07-22T20:02:56.000Z</time>
      </trkpt>
      <trkpt lat="45.33519" lon="6.17948">
        <ele>2079</ele>
        <time>2022-07-22T20:03:06.000Z</time>
      </trkpt>
      <trkpt lat="45.33518" lon="6.17945">
        <ele>2078.1</ele>
        <time>2022-07-22T20:03:16.000Z</time>
      </trkpt>
      <trkpt lat="45.33518" lon="6.17942">
        <ele>2077.8</ele>
        <time>2022-07-22T20:03:26.000Z</time>
      </trkpt>
      <trkpt lat="45.33515" lon="6.1793">
        <ele>2076.5</ele>
        <time>2022-07-22T20:03:36.000Z</time>
      </trkpt>
      <trkpt lat="45.33513" lon="6.17928">
        <ele>2076.2</ele>
        <time>2022-07-22T20:03:46.000Z</time>
      </trkpt>
      <trkpt lat="45.33512" lon="6.17925">
        <ele>2075.8</ele>
        <time>2022-07-22T20:03:56.000Z</time>
      </trkpt>
      <trkpt lat="45.33511" lon="6.17915">
        <ele>2076</ele>
        <time>2022-07-22T20:04:06.000Z</time>
      </trkpt>
      <trkpt lat="45.33508" lon="6.17906">
        <ele>2073.9</ele>
        <time>2022-07-22T20:04:16.000Z</time>
      </trkpt>
      <trkpt lat="45.33507" lon="6.17897">
        <ele>2073.3</ele>
        <time>2022-07-22T20:04:26.000Z</time>
      </trkpt>
      <trkpt lat="45.33506" lon="6.17894">
        <ele>2073</ele>
        <time>2022-07-22T20:04:36.000Z</time>
      </trkpt>
      <trkpt lat="45.33504" lon="6.17892">
        <ele>2072.6</ele>
        <time>2022-07-22T20:04:46.000Z</time>
      </trkpt>
      <trkpt lat="45.33504" lon="6.17876">
        <ele>2070</ele>
        <time>2022-07-22T20:04:56.000Z</time>
      </trkpt>
      <trkpt lat="45.33497" lon="6.1786">
        <ele>2067.8</ele>
        <time>2022-07-22T20:05:06.000Z</time>
      </trkpt>
      <trkpt lat="45.33487" lon="6.1785">
        <ele>2066</ele>
        <time>2022-07-22T20:05:16.000Z</time>
      </trkpt>
      <trkpt lat="45.33486" lon="6.17847">
        <ele>2064.9</ele>
        <time>2022-07-22T20:05:26.000Z</time>
      </trkpt>
      <trkpt lat="45.33481" lon="6.17845">
        <ele>2064.3</ele>
        <time>2022-07-22T20:05:36.000Z</time>
      </trkpt>
      <trkpt lat="45.3348" lon="6.17843">
        <ele>2063.8</ele>
        <time>2022-07-22T20:05:46.000Z</time>
      </trkpt>
      <trkpt lat="45.3348" lon="6.17839">
        <ele>2062.9</ele>
        <time>2022-07-22T20:05:56.000Z</time>
      </trkpt>
      <trkpt lat="45.33483" lon="6.1783">
        <ele>2058</ele>
        <time>2022-07-22T20:06:06.000Z</time>
      </trkpt>
      <trkpt lat="45.33489" lon="6.17821">
        <ele>2059.3</ele>
        <time>2022-07-22T20:06:16.000Z</time>
      </trkpt>
      <trkpt lat="45.33495" lon="6.17815">
        <ele>2058.9</ele>
        <time>2022-07-22T20:06:26.000Z</time>
      </trkpt>
      <trkpt lat="45.33496" lon="6.17813">
        <ele>2058.6</ele>
        <time>2022-07-22T20:06:36.000Z</time>
      </trkpt>
      <trkpt lat="45.33499" lon="6.17803">
        <ele>2056</ele>
        <time>2022-07-22T20:06:46.000Z</time>
      </trkpt>
      <trkpt lat="45.33499" lon="6.17799">
        <ele>2056.4</ele>
        <time>2022-07-22T20:06:56.000Z</time>
      </trkpt>
      <trkpt lat="45.33501" lon="6.17792">
        <ele>2055.4</ele>
        <time>2022-07-22T20:07:06.000Z</time>
      </trkpt>
      <trkpt lat="45.33502" lon="6.17782">
        <ele>2053.5</ele>
        <time>2022-07-22T20:07:16.000Z</time>
      </trkpt>
      <trkpt lat="45.33505" lon="6.17771">
        <ele>2049</ele>
        <time>2022-07-22T20:07:26.000Z</time>
      </trkpt>
      <trkpt lat="45.33507" lon="6.1776">
        <ele>2050.9</ele>
        <time>2022-07-22T20:07:36.000Z</time>
      </trkpt>
      <trkpt lat="45.33509" lon="6.17757">
        <ele>2051.2</ele>
        <time>2022-07-22T20:07:46.000Z</time>
      </trkpt>
      <trkpt lat="45.33511" lon="6.17748">
        <ele>2050.4</ele>
        <time>2022-07-22T20:07:56.000Z</time>
      </trkpt>
      <trkpt lat="45.33515" lon="6.17743">
        <ele>2041</ele>
        <time>2022-07-22T20:08:06.000Z</time>
      </trkpt>
      <trkpt lat="45.33516" lon="6.17737">
        <ele>2050.6</ele>
        <time>2022-07-22T20:08:16.000Z</time>
      </trkpt>
      <trkpt lat="45.33517" lon="6.17735">
        <ele>2050.6</ele>
        <time>2022-07-22T20:08:26.000Z</time>
      </trkpt>
      <trkpt lat="45.33516" lon="6.17727">
        <ele>2048.8</ele>
        <time>2022-07-22T20:08:36.000Z</time>
      </trkpt>
      <trkpt lat="45.33517" lon="6.17716">
        <ele>2037</ele>
        <time>2022-07-22T20:08:46.000Z</time>
      </trkpt>
      <trkpt lat="45.33518" lon="6.17712">
        <ele>2047.2</ele>
        <time>2022-07-22T20:08:56.000Z</time>
      </trkpt>
      <trkpt lat="45.33517" lon="6.17709">
        <ele>2046.3</ele>
        <time>2022-07-22T20:09:06.000Z</time>
      </trkpt>
      <trkpt lat="45.33519" lon="6.17707">
        <ele>2046.8</ele>
        <time>2022-07-22T20:09:16.000Z</time>
      </trkpt>
      <trkpt lat="45.3352" lon="6.17701">
        <ele>2046.4</ele>
        <time>2022-07-22T20:09:26.000Z</time>
      </trkpt>
      <trkpt lat="45.33516" lon="6.17691">
        <ele>2037</ele>
        <time>2022-07-22T20:09:36.000Z</time>
      </trkpt>
      <trkpt lat="45.33516" lon="6.17688">
        <ele>2042.1</ele>
        <time>2022-07-22T20:09:46.000Z</time>
      </trkpt>
      <trkpt lat="45.33521" lon="6.17675">
        <ele>2041.6</ele>
        <time>2022-07-22T20:09:56.000Z</time>
      </trkpt>
      <trkpt lat="45.33526" lon="6.17658">
        <ele>2038</ele>
        <time>2022-07-22T20:10:06.000Z</time>
      </trkpt>
      <trkpt lat="45.33524" lon="6.17649">
        <ele>2037.5</ele>
        <time>2022-07-22T20:10:16.000Z</time>
      </trkpt>
      <trkpt lat="45.33525" lon="6.17644">
        <ele>2036.9</ele>
        <time>2022-07-22T20:10:26.000Z</time>
      </trkpt>
      <trkpt lat="45.33524" lon="6.17642">
        <ele>2036</ele>
        <time>2022-07-22T20:10:36.000Z</time>
      </trkpt>
      <trkpt lat="45.33524" lon="6.17639">
        <ele>2035.4</ele>
        <time>2022-07-22T20:10:46.000Z</time>
      </trkpt>
      <trkpt lat="45.33529" lon="6.17631">
        <ele>2038</ele>
        <time>2022-07-22T20:10:56.000Z</time>
      </trkpt>
      <trkpt lat="45.33531" lon="6.17626">
        <ele>2035.7</ele>
        <time>2022-07-22T20:11:06.000Z</time>
      </trkpt>
      <trkpt lat="45.33531" lon="6.1762">
        <ele>2034.4</ele>
        <time>2022-07-22T20:11:16.000Z</time>
      </trkpt>
      <trkpt lat="45.33529" lon="6.17615">
        <ele>2032.4</ele>
        <time>2022-07-22T20:11:26.000Z</time>
      </trkpt>
      <trkpt lat="45.33531" lon="6.17603">
        <ele>2030</ele>
        <time>2022-07-22T20:11:36.000Z</time>
      </trkpt>
      <trkpt lat="45.33532" lon="6.17591">
        <ele>2028.5</ele>
        <time>2022-07-22T20:11:46.000Z</time>
      </trkpt>
      <trkpt lat="45.33531" lon="6.17587">
        <ele>2027.2</ele>
        <time>2022-07-22T20:11:56.000Z</time>
      </trkpt>
      <trkpt lat="45.3353" lon="6.17577">
        <ele>2025</ele>
        <time>2022-07-22T20:12:06.000Z</time>
      </trkpt>
      <trkpt lat="45.33531" lon="6.17575">
        <ele>2025</ele>
        <time>2022-07-22T20:12:16.000Z</time>
      </trkpt>
      <trkpt lat="45.33531" lon="6.17565">
        <ele>2023.6</ele>
        <time>2022-07-22T20:12:26.000Z</time>
      </trkpt>
      <trkpt lat="45.33534" lon="6.17552">
        <ele>2023</ele>
        <time>2022-07-22T20:12:36.000Z</time>
      </trkpt>
      <trkpt lat="45.33532" lon="6.17543">
        <ele>2023</ele>
        <time>2022-07-22T20:12:46.000Z</time>
      </trkpt>
      <trkpt lat="45.33532" lon="6.1754">
        <ele>2021.3</ele>
        <time>2022-07-22T20:12:56.000Z</time>
      </trkpt>
      <trkpt lat="45.33531" lon="6.17538">
        <ele>2020.8</ele>
        <time>2022-07-22T20:13:06.000Z</time>
      </trkpt>
      <trkpt lat="45.3353" lon="6.17532">
        <ele>2020</ele>
        <time>2022-07-22T20:13:16.000Z</time>
      </trkpt>
      <trkpt lat="45.33527" lon="6.17528">
        <ele>2018.8</ele>
        <time>2022-07-22T20:13:26.000Z</time>
      </trkpt>
      <trkpt lat="45.33527" lon="6.17525">
        <ele>2018.7</ele>
        <time>2022-07-22T20:13:36.000Z</time>
      </trkpt>
      <trkpt lat="45.33529" lon="6.1752">
        <ele>2019.1</ele>
        <time>2022-07-22T20:13:46.000Z</time>
      </trkpt>
      <trkpt lat="45.33532" lon="6.17516">
        <ele>2022</ele>
        <time>2022-07-22T20:13:56.000Z</time>
      </trkpt>
      <trkpt lat="45.33533" lon="6.17513">
        <ele>2020.1</ele>
        <time>2022-07-22T20:14:06.000Z</time>
      </trkpt>
      <trkpt lat="45.33541" lon="6.17504">
        <ele>2022</ele>
        <time>2022-07-22T20:14:16.000Z</time>
      </trkpt>
      <trkpt lat="45.33539" lon="6.17495">
        <ele>2022</ele>
        <time>2022-07-22T20:14:26.000Z</time>
      </trkpt>
      <trkpt lat="45.33541" lon="6.17489">
        <ele>2021.6</ele>
        <time>2022-07-22T20:14:36.000Z</time>
      </trkpt>
      <trkpt lat="45.33541" lon="6.17482">
        <ele>2021.5</ele>
        <time>2022-07-22T20:14:46.000Z</time>
      </trkpt>
      <trkpt lat="45.33539" lon="6.1748">
        <ele>2020.9</ele>
        <time>2022-07-22T20:14:56.000Z</time>
      </trkpt>
      <trkpt lat="45.33536" lon="6.17474">
        <ele>2020.1</ele>
        <time>2022-07-22T20:15:06.000Z</time>
      </trkpt>
      <trkpt lat="45.33536" lon="6.1747">
        <ele>2020</ele>
        <time>2022-07-22T20:15:16.000Z</time>
      </trkpt>
      <trkpt lat="45.33537" lon="6.17464">
        <ele>2020</ele>
        <time>2022-07-22T20:15:26.000Z</time>
      </trkpt>
      <trkpt lat="45.33537" lon="6.17461">
        <ele>2019.9</ele>
        <time>2022-07-22T20:15:36.000Z</time>
      </trkpt>
      <trkpt lat="45.33539" lon="6.17459">
        <ele>2020.4</ele>
        <time>2022-07-22T20:15:46.000Z</time>
      </trkpt>
      <trkpt lat="45.3354" lon="6.17456">
        <ele>2020.5</ele>
        <time>2022-07-22T20:15:56.000Z</time>
      </trkpt>
      <trkpt lat="45.33539" lon="6.17438">
        <ele>2015</ele>
        <time>2022-07-22T20:16:06.000Z</time>
      </trkpt>
      <trkpt lat="45.3354" lon="6.17435">
        <ele>2018.7</ele>
        <time>2022-07-22T20:16:16.000Z</time>
      </trkpt>
      <trkpt lat="45.33541" lon="6.17423">
        <ele>2017.2</ele>
        <time>2022-07-22T20:16:26.000Z</time>
      </trkpt>
      <trkpt lat="45.33544" lon="6.17417">
        <ele>2017.3</ele>
        <time>2022-07-22T20:16:36.000Z</time>
      </trkpt>
      <trkpt lat="45.33545" lon="6.17405">
        <ele>2010</ele>
        <time>2022-07-22T20:16:46.000Z</time>
      </trkpt>
      <trkpt lat="45.33544" lon="6.17396">
        <ele>2014.4</ele>
        <time>2022-07-22T20:16:56.000Z</time>
      </trkpt>
      <trkpt lat="45.33541" lon="6.17388">
        <ele>2012.1</ele>
        <time>2022-07-22T20:17:06.000Z</time>
      </trkpt>
      <trkpt lat="45.3354" lon="6.17381">
        <ele>2010.5</ele>
        <time>2022-07-22T20:17:16.000Z</time>
      </trkpt>
      <trkpt lat="45.3354" lon="6.17376">
        <ele>2008</ele>
        <time>2022-07-22T20:17:26.000Z</time>
      </trkpt>
      <trkpt lat="45.33545" lon="6.17361">
        <ele>2009.4</ele>
        <time>2022-07-22T20:17:36.000Z</time>
      </trkpt>
      <trkpt lat="45.33545" lon="6.17351">
        <ele>2008.2</ele>
        <time>2022-07-22T20:17:46.000Z</time>
      </trkpt>
      <trkpt lat="45.33544" lon="6.17347">
        <ele>2003</ele>
        <time>2022-07-22T20:17:56.000Z</time>
      </trkpt>
      <trkpt lat="45.33544" lon="6.17326">
        <ele>2004.4</ele>
        <time>2022-07-22T20:18:06.000Z</time>
      </trkpt>
      <trkpt lat="45.33543" lon="6.17322">
        <ele>2003.3</ele>
        <time>2022-07-22T20:18:16.000Z</time>
      </trkpt>
      <trkpt lat="45.33541" lon="6.17319">
        <ele>1994</ele>
        <time>2022-07-22T20:18:26.000Z</time>
      </trkpt>
      <trkpt lat="45.33541" lon="6.17295">
        <ele>1998.2</ele>
        <time>2022-07-22T20:18:36.000Z</time>
      </trkpt>
      <trkpt lat="45.3354" lon="6.17291">
        <ele>1990</ele>
        <time>2022-07-22T20:18:46.000Z</time>
      </trkpt>
      <trkpt lat="45.3354" lon="6.17287">
        <ele>1996.7</ele>
        <time>2022-07-22T20:18:56.000Z</time>
      </trkpt>
      <trkpt lat="45.33536" lon="6.17275">
        <ele>1993.6</ele>
        <time>2022-07-22T20:19:06.000Z</time>
      </trkpt>
      <trkpt lat="45.33533" lon="6.17272">
        <ele>1992</ele>
        <time>2022-07-22T20:19:16.000Z</time>
      </trkpt>
      <trkpt lat="45.33532" lon="6.17269">
        <ele>1991.3</ele>
        <time>2022-07-22T20:19:26.000Z</time>
      </trkpt>
      <trkpt lat="45.33529" lon="6.17264">
        <ele>1984</ele>
        <time>2022-07-22T20:19:36.000Z</time>
      </trkpt>
      <trkpt lat="45.33527" lon="6.17249">
        <ele>1986.5</ele>
        <time>2022-07-22T20:19:46.000Z</time>
      </trkpt>
      <trkpt lat="45.33524" lon="6.17239">
        <ele>1983.7</ele>
        <time>2022-07-22T20:19:56.000Z</time>
      </trkpt>
      <trkpt lat="45.33523" lon="6.17229">
        <ele>1978</ele>
        <time>2022-07-22T20:20:06.000Z</time>
      </trkpt>
      <trkpt lat="45.3352" lon="6.17216">
        <ele>1978.6</ele>
        <time>2022-07-22T20:20:16.000Z</time>
      </trkpt>
      <trkpt lat="45.33521" lon="6.17213">
        <ele>1978.8</ele>
        <time>2022-07-22T20:20:26.000Z</time>
      </trkpt>
      <trkpt lat="45.33519" lon="6.17211">
        <ele>1977.6</ele>
        <time>2022-07-22T20:20:36.000Z</time>
      </trkpt>
      <trkpt lat="45.33513" lon="6.17217">
        <ele>1967</ele>
        <time>2022-07-22T20:20:46.000Z</time>
      </trkpt>
      <trkpt lat="45.33512" lon="6.1721">
        <ele>1974</ele>
        <time>2022-07-22T20:20:56.000Z</time>
      </trkpt>
      <trkpt lat="45.33507" lon="6.17202">
        <ele>1970.5</ele>
        <time>2022-07-22T20:21:06.000Z</time>
      </trkpt>
      <trkpt lat="45.33509" lon="6.17198">
        <ele>1971</ele>
        <time>2022-07-22T20:21:16.000Z</time>
      </trkpt>
      <trkpt lat="45.33505" lon="6.17184">
        <ele>1963</ele>
        <time>2022-07-22T20:21:26.000Z</time>
      </trkpt>
      <trkpt lat="45.33504" lon="6.17178">
        <ele>1965.6</ele>
        <time>2022-07-22T20:21:36.000Z</time>
      </trkpt>
      <trkpt lat="45.33501" lon="6.17171">
        <ele>1963.1</ele>
        <time>2022-07-22T20:21:46.000Z</time>
      </trkpt>
      <trkpt lat="45.33501" lon="6.17165">
        <ele>1962.2</ele>
        <time>2022-07-22T20:21:56.000Z</time>
      </trkpt>
      <trkpt lat="45.335" lon="6.17162">
        <ele>1961.2</ele>
        <time>2022-07-22T20:22:06.000Z</time>
      </trkpt>
      <trkpt lat="45.335" lon="6.17149">
        <ele>1961</ele>
        <time>2022-07-22T20:22:16.000Z</time>
      </trkpt>
      <trkpt lat="45.33497" lon="6.17141">
        <ele>1956.6</ele>
        <time>2022-07-22T20:22:26.000Z</time>
      </trkpt>
      <trkpt lat="45.33497" lon="6.17135">
        <ele>1955.7</ele>
        <time>2022-07-22T20:22:36.000Z</time>
      </trkpt>
      <trkpt lat="45.33499" lon="6.17129">
        <ele>1955.3</ele>
        <time>2022-07-22T20:22:46.000Z</time>
      </trkpt>
      <trkpt lat="45.33502" lon="6.17116">
        <ele>1957</ele>
        <time>2022-07-22T20:22:56.000Z</time>
      </trkpt>
      <trkpt lat="45.33503" lon="6.17104">
        <ele>1953.1</ele>
        <time>2022-07-22T20:23:06.000Z</time>
      </trkpt>
      <trkpt lat="45.33502" lon="6.17094">
        <ele>1951.3</ele>
        <time>2022-07-22T20:23:16.000Z</time>
      </trkpt>
      <trkpt lat="45.33501" lon="6.17091">
        <ele>1950.5</ele>
        <time>2022-07-22T20:23:26.000Z</time>
      </trkpt>
      <trkpt lat="45.33502" lon="6.17081">
        <ele>1952</ele>
        <time>2022-07-22T20:23:36.000Z</time>
      </trkpt>
      <trkpt lat="45.33503" lon="6.17078">
        <ele>1949.5</ele>
        <time>2022-07-22T20:23:46.000Z</time>
      </trkpt>
      <trkpt lat="45.33503" lon="6.17074">
        <ele>1949</ele>
        <time>2022-07-22T20:23:56.000Z</time>
      </trkpt>
      <trkpt lat="45.33501" lon="6.17067">
        <ele>1947.6</ele>
        <time>2022-07-22T20:24:06.000Z</time>
      </trkpt>
      <trkpt lat="45.335" lon="6.17061">
        <ele>1946.6</ele>
        <time>2022-07-22T20:24:16.000Z</time>
      </trkpt>
      <trkpt lat="45.33497" lon="6.17052">
        <ele>1949</ele>
        <time>2022-07-22T20:24:26.000Z</time>
      </trkpt>
      <trkpt lat="45.33495" lon="6.17044">
        <ele>1944.9</ele>
        <time>2022-07-22T20:24:36.000Z</time>
      </trkpt>
      <trkpt lat="45.33489" lon="6.17037">
        <ele>1943.7</ele>
        <time>2022-07-22T20:24:46.000Z</time>
      </trkpt>
      <trkpt lat="45.33482" lon="6.17034">
        <ele>1941</ele>
        <time>2022-07-22T20:24:56.000Z</time>
      </trkpt>
      <trkpt lat="45.3348" lon="6.17037">
        <ele>1942.5</ele>
        <time>2022-07-22T20:25:06.000Z</time>
      </trkpt>
      <trkpt lat="45.3348" lon="6.17039">
        <ele>1942.5</ele>
        <time>2022-07-22T20:25:16.000Z</time>
      </trkpt>
      <trkpt lat="45.33478" lon="6.1704">
        <ele>1942.3</ele>
        <time>2022-07-22T20:25:26.000Z</time>
      </trkpt>
      <trkpt lat="45.33474" lon="6.17028">
        <ele>1941.3</ele>
        <time>2022-07-22T20:25:36.000Z</time>
      </trkpt>
      <trkpt lat="45.3347" lon="6.17022">
        <ele>1941</ele>
        <time>2022-07-22T20:25:46.000Z</time>
      </trkpt>
      <trkpt lat="45.33462" lon="6.17004">
        <ele>1939</ele>
        <time>2022-07-22T20:25:56.000Z</time>
      </trkpt>
      <trkpt lat="45.33459" lon="6.16993">
        <ele>1943</ele>
        <time>2022-07-22T20:26:06.000Z</time>
      </trkpt>
      <trkpt lat="45.3346" lon="6.1699">
        <ele>1939.2</ele>
        <time>2022-07-22T20:26:16.000Z</time>
      </trkpt>
      <trkpt lat="45.3346" lon="6.16986">
        <ele>1939.4</ele>
        <time>2022-07-22T20:26:26.000Z</time>
      </trkpt>
      <trkpt lat="45.33463" lon="6.16975">
        <ele>1940.2</ele>
        <time>2022-07-22T20:26:36.000Z</time>
      </trkpt>
      <trkpt lat="45.33463" lon="6.16971">
        <ele>1940.2</ele>
        <time>2022-07-22T20:26:46.000Z</time>
      </trkpt>
      <trkpt lat="45.33468" lon="6.16958">
        <ele>1945</ele>
        <time>2022-07-22T20:26:56.000Z</time>
      </trkpt>
      <trkpt lat="45.33472" lon="6.16954">
        <ele>1940.3</ele>
        <time>2022-07-22T20:27:06.000Z</time>
      </trkpt>
      <trkpt lat="45.33475" lon="6.1694">
        <ele>1940.2</ele>
        <time>2022-07-22T20:27:16.000Z</time>
      </trkpt>
      <trkpt lat="45.33475" lon="6.16937">
        <ele>1940</ele>
        <time>2022-07-22T20:27:26.000Z</time>
      </trkpt>
      <trkpt lat="45.33476" lon="6.16931">
        <ele>1945</ele>
        <time>2022-07-22T20:27:36.000Z</time>
      </trkpt>
      <trkpt lat="45.33476" lon="6.16925">
        <ele>1939.5</ele>
        <time>2022-07-22T20:27:46.000Z</time>
      </trkpt>
      <trkpt lat="45.33481" lon="6.16917">
        <ele>1940.2</ele>
        <time>2022-07-22T20:27:56.000Z</time>
      </trkpt>
      <trkpt lat="45.33482" lon="6.16914">
        <ele>1940.1</ele>
        <time>2022-07-22T20:28:06.000Z</time>
      </trkpt>
      <trkpt lat="45.33491" lon="6.16902">
        <ele>1945</ele>
        <time>2022-07-22T20:28:16.000Z</time>
      </trkpt>
      <trkpt lat="45.33493" lon="6.16901">
        <ele>1941.1</ele>
        <time>2022-07-22T20:28:26.000Z</time>
      </trkpt>
      <trkpt lat="45.33497" lon="6.16895">
        <ele>1941.2</ele>
        <time>2022-07-22T20:28:36.000Z</time>
      </trkpt>
      <trkpt lat="45.33497" lon="6.16886">
        <ele>1940.2</ele>
        <time>2022-07-22T20:28:46.000Z</time>
      </trkpt>
      <trkpt lat="45.33499" lon="6.16872">
        <ele>1940</ele>
        <time>2022-07-22T20:28:56.000Z</time>
      </trkpt>
      <trkpt lat="45.335" lon="6.16869">
        <ele>1939.6</ele>
        <time>2022-07-22T20:29:06.000Z</time>
      </trkpt>
      <trkpt lat="45.335" lon="6.16864">
        <ele>1939.2</ele>
        <time>2022-07-22T20:29:16.000Z</time>
      </trkpt>
      <trkpt lat="45.33505" lon="6.16854">
        <ele>1939.3</ele>
        <time>2022-07-22T20:29:26.000Z</time>
      </trkpt>
      <trkpt lat="45.33506" lon="6.16845">
        <ele>1933</ele>
        <time>2022-07-22T20:29:36.000Z</time>
      </trkpt>
      <trkpt lat="45.33509" lon="6.16837">
        <ele>1938.3</ele>
        <time>2022-07-22T20:29:46.000Z</time>
      </trkpt>
      <trkpt lat="45.33511" lon="6.16825">
        <ele>1937.4</ele>
        <time>2022-07-22T20:29:56.000Z</time>
      </trkpt>
      <trkpt lat="45.33511" lon="6.16821">
        <ele>1937</ele>
        <time>2022-07-22T20:30:06.000Z</time>
      </trkpt>
      <trkpt lat="45.33512" lon="6.16815">
        <ele>1930</ele>
        <time>2022-07-22T20:30:16.000Z</time>
      </trkpt>
      <trkpt lat="45.33515" lon="6.16809">
        <ele>1936.5</ele>
        <time>2022-07-22T20:30:26.000Z</time>
      </trkpt>
      <trkpt lat="45.33516" lon="6.16805">
        <ele>1936.3</ele>
        <time>2022-07-22T20:30:36.000Z</time>
      </trkpt>
      <trkpt lat="45.33519" lon="6.16801">
        <ele>1936.5</ele>
        <time>2022-07-22T20:30:46.000Z</time>
      </trkpt>
      <trkpt lat="45.3352" lon="6.16798">
        <ele>1936.5</ele>
        <time>2022-07-22T20:30:56.000Z</time>
      </trkpt>
      <trkpt lat="45.33522" lon="6.16801">
        <ele>1936.9</ele>
        <time>2022-07-22T20:31:06.000Z</time>
      </trkpt>
      <trkpt lat="45.33526" lon="6.16783">
        <ele>1928</ele>
        <time>2022-07-22T20:31:16.000Z</time>
      </trkpt>
      <trkpt lat="45.33527" lon="6.16769">
        <ele>1935.9</ele>
        <time>2022-07-22T20:31:26.000Z</time>
      </trkpt>
      <trkpt lat="45.33523" lon="6.16741">
        <ele>1925</ele>
        <time>2022-07-22T20:31:36.000Z</time>
      </trkpt>
      <trkpt lat="45.33522" lon="6.16737">
        <ele>1930.4</ele>
        <time>2022-07-22T20:31:46.000Z</time>
      </trkpt>
      <trkpt lat="45.33522" lon="6.16731">
        <ele>1929.6</ele>
        <time>2022-07-22T20:31:56.000Z</time>
      </trkpt>
      <trkpt lat="45.33524" lon="6.16725">
        <ele>1929.7</ele>
        <time>2022-07-22T20:32:06.000Z</time>
      </trkpt>
      <trkpt lat="45.33525" lon="6.16718">
        <ele>1929</ele>
        <time>2022-07-22T20:32:16.000Z</time>
      </trkpt>
      <trkpt lat="45.33531" lon="6.16704">
        <ele>1923</ele>
        <time>2022-07-22T20:32:26.000Z</time>
      </trkpt>
      <trkpt lat="45.33535" lon="6.16697">
        <ele>1928.2</ele>
        <time>2022-07-22T20:32:36.000Z</time>
      </trkpt>
      <trkpt lat="45.33537" lon="6.16689">
        <ele>1927.5</ele>
        <time>2022-07-22T20:32:46.000Z</time>
      </trkpt>
      <trkpt lat="45.33537" lon="6.16672">
        <ele>1918</ele>
        <time>2022-07-22T20:32:56.000Z</time>
      </trkpt>
      <trkpt lat="45.3354" lon="6.16666">
        <ele>1925.3</ele>
        <time>2022-07-22T20:33:06.000Z</time>
      </trkpt>
      <trkpt lat="45.3354" lon="6.1666">
        <ele>1924</ele>
        <time>2022-07-22T20:33:16.000Z</time>
      </trkpt>
      <trkpt lat="45.33544" lon="6.16644">
        <ele>1920</ele>
        <time>2022-07-22T20:33:26.000Z</time>
      </trkpt>
      <trkpt lat="45.33544" lon="6.1664">
        <ele>1922</ele>
        <time>2022-07-22T20:33:36.000Z</time>
      </trkpt>
      <trkpt lat="45.33545" lon="6.16636">
        <ele>1921.7</ele>
        <time>2022-07-22T20:33:46.000Z</time>
      </trkpt>
      <trkpt lat="45.33547" lon="6.1663">
        <ele>1921.7</ele>
        <time>2022-07-22T20:33:56.000Z</time>
      </trkpt>
      <trkpt lat="45.33549" lon="6.16628">
        <ele>1922.5</ele>
        <time>2022-07-22T20:34:06.000Z</time>
      </trkpt>
      <trkpt lat="45.3355" lon="6.16623">
        <ele>1922.3</ele>
        <time>2022-07-22T20:34:16.000Z</time>
      </trkpt>
      <trkpt lat="45.33552" lon="6.16609">
        <ele>1920</ele>
        <time>2022-07-22T20:34:26.000Z</time>
      </trkpt>
      <trkpt lat="45.33552" lon="6.16605">
        <ele>1920</ele>
        <time>2022-07-22T20:34:36.000Z</time>
      </trkpt>
      <trkpt lat="45.33551" lon="6.16602">
        <ele>1918.5</ele>
        <time>2022-07-22T20:34:46.000Z</time>
      </trkpt>
      <trkpt lat="45.33552" lon="6.16593">
        <ele>1916.9</ele>
        <time>2022-07-22T20:34:56.000Z</time>
      </trkpt>
      <trkpt lat="45.33554" lon="6.16586">
        <ele>1916.6</ele>
        <time>2022-07-22T20:35:06.000Z</time>
      </trkpt>
      <trkpt lat="45.33555" lon="6.16578">
        <ele>1913</ele>
        <time>2022-07-22T20:35:16.000Z</time>
      </trkpt>
      <trkpt lat="45.33558" lon="6.16571">
        <ele>1914.9</ele>
        <time>2022-07-22T20:35:26.000Z</time>
      </trkpt>
      <trkpt lat="45.33559" lon="6.16558">
        <ele>1911.7</ele>
        <time>2022-07-22T20:35:36.000Z</time>
      </trkpt>
      <trkpt lat="45.33564" lon="6.16546">
        <ele>1907</ele>
        <time>2022-07-22T20:35:46.000Z</time>
      </trkpt>
      <trkpt lat="45.33565" lon="6.1654">
        <ele>1910.5</ele>
        <time>2022-07-22T20:35:56.000Z</time>
      </trkpt>
      <trkpt lat="45.3357" lon="6.1653">
        <ele>1910.4</ele>
        <time>2022-07-22T20:36:06.000Z</time>
      </trkpt>
      <trkpt lat="45.33575" lon="6.16515">
        <ele>1904</ele>
        <time>2022-07-22T20:36:16.000Z</time>
      </trkpt>
      <trkpt lat="45.33576" lon="6.16507">
        <ele>1907.7</ele>
        <time>2022-07-22T20:36:26.000Z</time>
      </trkpt>
      <trkpt lat="45.33577" lon="6.16505">
        <ele>1907.7</ele>
        <time>2022-07-22T20:36:36.000Z</time>
      </trkpt>
      <trkpt lat="45.33576" lon="6.16508">
        <ele>1908</ele>
        <time>2022-07-22T20:36:46.000Z</time>
      </trkpt>
      <trkpt lat="45.33573" lon="6.16512">
        <ele>1907.6</ele>
        <time>2022-07-22T20:36:56.000Z</time>
      </trkpt>
      <trkpt lat="45.33569" lon="6.16515">
        <ele>1906.5</ele>
        <time>2022-07-22T20:37:06.000Z</time>
      </trkpt>
      <trkpt lat="45.33568" lon="6.16519">
        <ele>1905</ele>
        <time>2022-07-22T20:37:16.000Z</time>
      </trkpt>
      <trkpt lat="45.33565" lon="6.16524">
        <ele>1906.6</ele>
        <time>2022-07-22T20:37:26.000Z</time>
      </trkpt>
      <trkpt lat="45.33565" lon="6.16526">
        <ele>1907.1</ele>
        <time>2022-07-22T20:37:36.000Z</time>
      </trkpt>
      <trkpt lat="45.33562" lon="6.1654">
        <ele>1909</ele>
        <time>2022-07-22T20:37:46.000Z</time>
      </trkpt>
      <trkpt lat="45.33561" lon="6.16542">
        <ele>1908.9</ele>
        <time>2022-07-22T20:37:56.000Z</time>
      </trkpt>
      <trkpt lat="45.3356" lon="6.1654">
        <ele>1902</ele>
        <time>2022-07-22T20:38:06.000Z</time>
      </trkpt>
      <trkpt lat="45.33561" lon="6.1653">
        <ele>1906.1</ele>
        <time>2022-07-22T20:38:16.000Z</time>
      </trkpt>
      <trkpt lat="45.33566" lon="6.16506">
        <ele>1899</ele>
        <time>2022-07-22T20:38:26.000Z</time>
      </trkpt>
      <trkpt lat="45.33568" lon="6.16507">
        <ele>1904.4</ele>
        <time>2022-07-22T20:38:36.000Z</time>
      </trkpt>
      <trkpt lat="45.33572" lon="6.1649">
        <ele>1901.9</ele>
        <time>2022-07-22T20:38:46.000Z</time>
      </trkpt>
      <trkpt lat="45.33572" lon="6.16487">
        <ele>1901.1</ele>
        <time>2022-07-22T20:38:56.000Z</time>
      </trkpt>
      <trkpt lat="45.33573" lon="6.16484">
        <ele>1896</ele>
        <time>2022-07-22T20:39:06.000Z</time>
      </trkpt>
      <trkpt lat="45.33578" lon="6.16479">
        <ele>1901.1</ele>
        <time>2022-07-22T20:39:16.000Z</time>
      </trkpt>
      <trkpt lat="45.3358" lon="6.16472">
        <ele>1899.9</ele>
        <time>2022-07-22T20:39:26.000Z</time>
      </trkpt>
      <trkpt lat="45.33585" lon="6.16468">
        <ele>1900.5</ele>
        <time>2022-07-22T20:39:36.000Z</time>
      </trkpt>
      <trkpt lat="45.33585" lon="6.16459">
        <ele>1888</ele>
        <time>2022-07-22T20:39:46.000Z</time>
      </trkpt>
      <trkpt lat="45.33587" lon="6.16453">
        <ele>1897.8</ele>
        <time>2022-07-22T20:39:56.000Z</time>
      </trkpt>
      <trkpt lat="45.33586" lon="6.16446">
        <ele>1896.4</ele>
        <time>2022-07-22T20:40:06.000Z</time>
      </trkpt>
      <trkpt lat="45.33587" lon="6.1644">
        <ele>1894.9</ele>
        <time>2022-07-22T20:40:16.000Z</time>
      </trkpt>
      <trkpt lat="45.33588" lon="6.16437">
        <ele>1894.1</ele>
        <time>2022-07-22T20:40:26.000Z</time>
      </trkpt>
      <trkpt lat="45.33592" lon="6.16433">
        <ele>1878</ele>
        <time>2022-07-22T20:40:36.000Z</time>
      </trkpt>
      <trkpt lat="45.33595" lon="6.16428">
        <ele>1891.9</ele>
        <time>2022-07-22T20:40:46.000Z</time>
      </trkpt>
      <trkpt lat="45.33595" lon="6.16423">
        <ele>1890.6</ele>
        <time>2022-07-22T20:40:56.000Z</time>
      </trkpt>
      <trkpt lat="45.33597" lon="6.1642">
        <ele>1889.9</ele>
        <time>2022-07-22T20:41:06.000Z</time>
      </trkpt>
      <trkpt lat="45.33602" lon="6.16415">
        <ele>1888.9</ele>
        <time>2022-07-22T20:41:16.000Z</time>
      </trkpt>
      <trkpt lat="45.33607" lon="6.16407">
        <ele>1872</ele>
        <time>2022-07-22T20:41:26.000Z</time>
      </trkpt>
      <trkpt lat="45.3361" lon="6.16401">
        <ele>1887</ele>
        <time>2022-07-22T20:41:36.000Z</time>
      </trkpt>
      <trkpt lat="45.33616" lon="6.16386">
        <ele>1883.6</ele>
        <time>2022-07-22T20:41:46.000Z</time>
      </trkpt>
      <trkpt lat="45.33618" lon="6.16384">
        <ele>1872</ele>
        <time>2022-07-22T20:41:56.000Z</time>
      </trkpt>
      <trkpt lat="45.33622" lon="6.16371">
        <ele>1879.5</ele>
        <time>2022-07-22T20:42:06.000Z</time>
      </trkpt>
      <trkpt lat="45.33633" lon="6.16357">
        <ele>1861</ele>
        <time>2022-07-22T20:42:16.000Z</time>
      </trkpt>
      <trkpt lat="45.33638" lon="6.16348">
        <ele>1876</ele>
        <time>2022-07-22T20:42:26.000Z</time>
      </trkpt>
      <trkpt lat="45.33638" lon="6.16346">
        <ele>1875.7</ele>
        <time>2022-07-22T20:42:36.000Z</time>
      </trkpt>
      <trkpt lat="45.3364" lon="6.16344">
        <ele>1875.2</ele>
        <time>2022-07-22T20:42:46.000Z</time>
      </trkpt>
      <trkpt lat="45.3364" lon="6.16341">
        <ele>1874.8</ele>
        <time>2022-07-22T20:42:56.000Z</time>
      </trkpt>
      <trkpt lat="45.33646" lon="6.16334">
        <ele>1860</ele>
        <time>2022-07-22T20:43:06.000Z</time>
      </trkpt>
      <trkpt lat="45.33651" lon="6.16323">
        <ele>1867.5</ele>
        <time>2022-07-22T20:43:16.000Z</time>
      </trkpt>
      <trkpt lat="45.33652" lon="6.16317">
        <ele>1865.8</ele>
        <time>2022-07-22T20:43:26.000Z</time>
      </trkpt>
      <trkpt lat="45.33654" lon="6.16315">
        <ele>1865</ele>
        <time>2022-07-22T20:43:36.000Z</time>
      </trkpt>
      <trkpt lat="45.33655" lon="6.16311">
        <ele>1855</ele>
        <time>2022-07-22T20:43:46.000Z</time>
      </trkpt>
      <trkpt lat="45.33658" lon="6.16307">
        <ele>1862.5</ele>
        <time>2022-07-22T20:43:56.000Z</time>
      </trkpt>
      <trkpt lat="45.33659" lon="6.16304">
        <ele>1861.7</ele>
        <time>2022-07-22T20:44:06.000Z</time>
      </trkpt>
      <trkpt lat="45.33665" lon="6.16296">
        <ele>1859.1</ele>
        <time>2022-07-22T20:44:16.000Z</time>
      </trkpt>
      <trkpt lat="45.33663" lon="6.16287">
        <ele>1843</ele>
        <time>2022-07-22T20:44:26.000Z</time>
      </trkpt>
      <trkpt lat="45.33663" lon="6.1628">
        <ele>1855.4</ele>
        <time>2022-07-22T20:44:36.000Z</time>
      </trkpt>
      <trkpt lat="45.33662" lon="6.16272">
        <ele>1852.8</ele>
        <time>2022-07-22T20:44:46.000Z</time>
      </trkpt>
      <trkpt lat="45.33661" lon="6.16269">
        <ele>1851.6</ele>
        <time>2022-07-22T20:44:56.000Z</time>
      </trkpt>
      <trkpt lat="45.33663" lon="6.16269">
        <ele>1851.7</ele>
        <time>2022-07-22T20:45:06.000Z</time>
      </trkpt>
      <trkpt lat="45.33666" lon="6.16266">
        <ele>1850.7</ele>
        <time>2022-07-22T20:45:16.000Z</time>
      </trkpt>
      <trkpt lat="45.33668" lon="6.16261">
        <ele>1843</ele>
        <time>2022-07-22T20:45:26.000Z</time>
      </trkpt>
      <trkpt lat="45.33668" lon="6.16254">
        <ele>1846</ele>
        <time>2022-07-22T20:45:36.000Z</time>
      </trkpt>
      <trkpt lat="45.3367" lon="6.16253">
        <ele>1845</ele>
        <time>2022-07-22T20:45:46.000Z</time>
      </trkpt>
      <trkpt lat="45.33673" lon="6.16246">
        <ele>1841.8</ele>
        <time>2022-07-22T20:45:56.000Z</time>
      </trkpt>
      <trkpt lat="45.33676" lon="6.16242">
        <ele>1839.7</ele>
        <time>2022-07-22T20:46:06.000Z</time>
      </trkpt>
      <trkpt lat="45.3368" lon="6.16233">
        <ele>1842</ele>
        <time>2022-07-22T20:46:16.000Z</time>
      </trkpt>
      <trkpt lat="45.3368" lon="6.1623">
        <ele>1835.3</ele>
        <time>2022-07-22T20:46:26.000Z</time>
      </trkpt>
      <trkpt lat="45.33683" lon="6.16227">
        <ele>1834.1</ele>
        <time>2022-07-22T20:46:36.000Z</time>
      </trkpt>
      <trkpt lat="45.33686" lon="6.16218">
        <ele>1831.7</ele>
        <time>2022-07-22T20:46:46.000Z</time>
      </trkpt>
      <trkpt lat="45.33684" lon="6.16211">
        <ele>1830.1</ele>
        <time>2022-07-22T20:46:56.000Z</time>
      </trkpt>
      <trkpt lat="45.33684" lon="6.16207">
        <ele>1837</ele>
        <time>2022-07-22T20:47:06.000Z</time>
      </trkpt>
      <trkpt lat="45.33686" lon="6.16204">
        <ele>1828.5</ele>
        <time>2022-07-22T20:47:16.000Z</time>
      </trkpt>
      <trkpt lat="45.33686" lon="6.16198">
        <ele>1827.2</ele>
        <time>2022-07-22T20:47:26.000Z</time>
      </trkpt>
      <trkpt lat="45.33685" lon="6.16195">
        <ele>1826.4</ele>
        <time>2022-07-22T20:47:36.000Z</time>
      </trkpt>
      <trkpt lat="45.33685" lon="6.16192">
        <ele>1825.6</ele>
        <time>2022-07-22T20:47:46.000Z</time>
      </trkpt>
      <trkpt lat="45.33682" lon="6.16185">
        <ele>1823.5</ele>
        <time>2022-07-22T20:47:56.000Z</time>
      </trkpt>
      <trkpt lat="45.33683" lon="6.16178">
        <ele>1828</ele>
        <time>2022-07-22T20:48:06.000Z</time>
      </trkpt>
      <trkpt lat="45.33682" lon="6.16171">
        <ele>1819.7</ele>
        <time>2022-07-22T20:48:16.000Z</time>
      </trkpt>
      <trkpt lat="45.33683" lon="6.16168">
        <ele>1819</ele>
        <time>2022-07-22T20:48:26.000Z</time>
      </trkpt>
      <trkpt lat="45.33681" lon="6.16163">
        <ele>1817.6</ele>
        <time>2022-07-22T20:48:36.000Z</time>
      </trkpt>
      <trkpt lat="45.33678" lon="6.16158">
        <ele>1816.3</ele>
        <time>2022-07-22T20:48:46.000Z</time>
      </trkpt>
      <trkpt lat="45.33678" lon="6.16156">
        <ele>1815.8</ele>
        <time>2022-07-22T20:48:56.000Z</time>
      </trkpt>
      <trkpt lat="45.3368" lon="6.16153">
        <ele>1820</ele>
        <time>2022-07-22T20:49:06.000Z</time>
      </trkpt>
      <trkpt lat="45.33681" lon="6.16147">
        <ele>1813.5</ele>
        <time>2022-07-22T20:49:16.000Z</time>
      </trkpt>
      <trkpt lat="45.33681" lon="6.16141">
        <ele>1812</ele>
        <time>2022-07-22T20:49:26.000Z</time>
      </trkpt>
      <trkpt lat="45.3368" lon="6.16135">
        <ele>1811.1</ele>
        <time>2022-07-22T20:49:36.000Z</time>
      </trkpt>
      <trkpt lat="45.33674" lon="6.16126">
        <ele>1820</ele>
        <time>2022-07-22T20:49:46.000Z</time>
      </trkpt>
      <trkpt lat="45.3367" lon="6.16124">
        <ele>1810.3</ele>
        <time>2022-07-22T20:49:56.000Z</time>
      </trkpt>
      <trkpt lat="45.33667" lon="6.16121">
        <ele>1810.1</ele>
        <time>2022-07-22T20:50:06.000Z</time>
      </trkpt>
      <trkpt lat="45.33659" lon="6.16117">
        <ele>1810.1</ele>
        <time>2022-07-22T20:50:16.000Z</time>
      </trkpt>
      <trkpt lat="45.33655" lon="6.16113">
        <ele>1820</ele>
        <time>2022-07-22T20:50:26.000Z</time>
      </trkpt>
      <trkpt lat="45.33644" lon="6.16107">
        <ele>1810.5</ele>
        <time>2022-07-22T20:50:36.000Z</time>
      </trkpt>
      <trkpt lat="45.3364" lon="6.16104">
        <ele>1810.7</ele>
        <time>2022-07-22T20:50:46.000Z</time>
      </trkpt>
      <trkpt lat="45.33637" lon="6.161">
        <ele>1819</ele>
        <time>2022-07-22T20:50:56.000Z</time>
      </trkpt>
      <trkpt lat="45.33636" lon="6.16097">
        <ele>1810.6</ele>
        <time>2022-07-22T20:51:06.000Z</time>
      </trkpt>
      <trkpt lat="45.33629" lon="6.16088">
        <ele>1810.5</ele>
        <time>2022-07-22T20:51:16.000Z</time>
      </trkpt>
      <trkpt lat="45.33628" lon="6.16085">
        <ele>1810.5</ele>
        <time>2022-07-22T20:51:26.000Z</time>
      </trkpt>
      <trkpt lat="45.33625" lon="6.1608">
        <ele>1810.3</ele>
        <time>2022-07-22T20:51:36.000Z</time>
      </trkpt>
      <trkpt lat="45.33623" lon="6.16073">
        <ele>1818</ele>
        <time>2022-07-22T20:51:46.000Z</time>
      </trkpt>
      <trkpt lat="45.33623" lon="6.16064">
        <ele>1809.6</ele>
        <time>2022-07-22T20:51:56.000Z</time>
      </trkpt>
      <trkpt lat="45.33621" lon="6.16053">
        <ele>1809.3</ele>
        <time>2022-07-22T20:52:06.000Z</time>
      </trkpt>
      <trkpt lat="45.33621" lon="6.16032">
        <ele>1810</ele>
        <time>2022-07-22T20:52:16.000Z</time>
      </trkpt>
      <trkpt lat="45.3362" lon="6.16025">
        <ele>1808.8</ele>
        <time>2022-07-22T20:52:26.000Z</time>
      </trkpt>
      <trkpt lat="45.3362" lon="6.16018">
        <ele>1808.2</ele>
        <time>2022-07-22T20:52:36.000Z</time>
      </trkpt>
      <trkpt lat="45.33618" lon="6.16013">
        <ele>1807.8</ele>
        <time>2022-07-22T20:52:46.000Z</time>
      </trkpt>
      <trkpt lat="45.33618" lon="6.16005">
        <ele>1811</ele>
        <time>2022-07-22T20:52:56.000Z</time>
      </trkpt>
      <trkpt lat="45.33622" lon="6.15987">
        <ele>1806.4</ele>
        <time>2022-07-22T20:53:06.000Z</time>
      </trkpt>
      <trkpt lat="45.33623" lon="6.15985">
        <ele>1806.3</ele>
        <time>2022-07-22T20:53:16.000Z</time>
      </trkpt>
      <trkpt lat="45.33626" lon="6.15983">
        <ele>1806.1</ele>
        <time>2022-07-22T20:53:26.000Z</time>
      </trkpt>
      <trkpt lat="45.33627" lon="6.1598">
        <ele>1813</ele>
        <time>2022-07-22T20:53:36.000Z</time>
      </trkpt>
      <trkpt lat="45.33627" lon="6.15974">
        <ele>1805.9</ele>
        <time>2022-07-22T20:53:46.000Z</time>
      </trkpt>
      <trkpt lat="45.33626" lon="6.15971">
        <ele>1806</ele>
        <time>2022-07-22T20:53:56.000Z</time>
      </trkpt>
      <trkpt lat="45.33626" lon="6.15964">
        <ele>1806.2</ele>
        <time>2022-07-22T20:54:06.000Z</time>
      </trkpt>
      <trkpt lat="45.33624" lon="6.15949">
        <ele>1812</ele>
        <time>2022-07-22T20:54:16.000Z</time>
      </trkpt>
      <trkpt lat="45.33621" lon="6.15939">
        <ele>1807.6</ele>
        <time>2022-07-22T20:54:26.000Z</time>
      </trkpt>
      <trkpt lat="45.33619" lon="6.15919">
        <ele>1814</ele>
        <time>2022-07-22T20:54:36.000Z</time>
      </trkpt>
      <trkpt lat="45.3362" lon="6.15917">
        <ele>1808.7</ele>
        <time>2022-07-22T20:54:46.000Z</time>
      </trkpt>
      <trkpt lat="45.3367" lon="6.15901">
        <ele>1817</ele>
        <time>2022-07-22T20:54:56.000Z</time>
      </trkpt>
      <trkpt lat="45.33696" lon="6.15896">
        <ele>1820</ele>
        <time>2022-07-22T20:55:06.000Z</time>
      </trkpt>
      <trkpt lat="45.33727" lon="6.15891">
        <ele>1817</ele>
        <time>2022-07-22T20:55:16.000Z</time>
      </trkpt>
      <trkpt lat="45.33756" lon="6.15926">
        <ele>1818</ele>
        <time>2022-07-22T20:55:26.000Z</time>
      </trkpt>
      <trkpt lat="45.33786" lon="6.15935">
        <ele>1814</ele>
        <time>2022-07-22T20:55:36.000Z</time>
      </trkpt>
      <trkpt lat="45.338" lon="6.15981">
        <ele>1811</ele>
        <time>2022-07-22T20:55:46.000Z</time>
      </trkpt>
      <trkpt lat="45.33821" lon="6.15998">
        <ele>1810</ele>
        <time>2022-07-22T20:55:56.000Z</time>
      </trkpt>
      <trkpt lat="45.33837" lon="6.15981">
        <ele>1809</ele>
        <time>2022-07-22T20:56:06.000Z</time>
      </trkpt>
      <trkpt lat="45.33865" lon="6.16009">
        <ele>1806</ele>
        <time>2022-07-22T20:56:16.000Z</time>
      </trkpt>
      <trkpt lat="45.33876" lon="6.15982">
        <ele>1804</ele>
        <time>2022-07-22T20:56:26.000Z</time>
      </trkpt>
      <trkpt lat="45.33907" lon="6.1598">
        <ele>1797</ele>
        <time>2022-07-22T20:56:36.000Z</time>
      </trkpt>
      <trkpt lat="45.33932" lon="6.15972">
        <ele>1783</ele>
        <time>2022-07-22T20:56:46.000Z</time>
      </trkpt>
      <trkpt lat="45.33964" lon="6.15996">
        <ele>1774</ele>
        <time>2022-07-22T20:56:56.000Z</time>
      </trkpt>
      <trkpt lat="45.34001" lon="6.1602">
        <ele>1770</ele>
        <time>2022-07-22T20:57:06.000Z</time>
      </trkpt>
      <trkpt lat="45.34022" lon="6.16019">
        <ele>1769</ele>
        <time>2022-07-22T20:57:16.000Z</time>
      </trkpt>
      <trkpt lat="45.34049" lon="6.16015">
        <ele>1769</ele>
        <time>2022-07-22T20:57:26.000Z</time>
      </trkpt>
      <trkpt lat="45.34055" lon="6.15995">
        <ele>1755.7</ele>
        <time>2022-07-22T20:57:36.000Z</time>
      </trkpt>
      <trkpt lat="45.34084" lon="6.1599">
        <ele>1763</ele>
        <time>2022-07-22T20:57:46.000Z</time>
      </trkpt>
      <trkpt lat="45.34107" lon="6.16006">
        <ele>1757</ele>
        <time>2022-07-22T20:57:56.000Z</time>
      </trkpt>
      <trkpt lat="45.34135" lon="6.16021">
        <ele>1748</ele>
        <time>2022-07-22T20:58:06.000Z</time>
      </trkpt>
      <trkpt lat="45.34158" lon="6.1602">
        <ele>1748</ele>
        <time>2022-07-22T20:58:16.000Z</time>
      </trkpt>
      <trkpt lat="45.34163" lon="6.16072">
        <ele>1743</ele>
        <time>2022-07-22T20:58:26.000Z</time>
      </trkpt>
      <trkpt lat="45.34165" lon="6.16068">
        <ele>1745.6</ele>
        <time>2022-07-22T20:58:36.000Z</time>
      </trkpt>
      <trkpt lat="45.34187" lon="6.16083">
        <ele>1743</ele>
        <time>2022-07-22T20:58:46.000Z</time>
      </trkpt>
      <trkpt lat="45.3421" lon="6.161">
        <ele>1746</ele>
        <time>2022-07-22T20:58:56.000Z</time>
      </trkpt>
      <trkpt lat="45.34246" lon="6.16101">
        <ele>1746</ele>
        <time>2022-07-22T20:59:06.000Z</time>
      </trkpt>
      <trkpt lat="45.34283" lon="6.16103">
        <ele>1749</ele>
        <time>2022-07-22T20:59:16.000Z</time>
      </trkpt>
      <trkpt lat="45.34319" lon="6.16104">
        <ele>1749</ele>
        <time>2022-07-22T20:59:26.000Z</time>
      </trkpt>
      <trkpt lat="45.34366" lon="6.16106">
        <ele>1750</ele>
        <time>2022-07-22T20:59:36.000Z</time>
      </trkpt>
      <trkpt lat="45.3437" lon="6.16105">
        <ele>1749.4</ele>
        <time>2022-07-22T20:59:46.000Z</time>
      </trkpt>
      <trkpt lat="45.34379" lon="6.16108">
        <ele>1750.2</ele>
        <time>2022-07-22T20:59:56.000Z</time>
      </trkpt>
      <trkpt lat="45.34384" lon="6.16126">
        <ele>1753</ele>
        <time>2022-07-22T21:00:06.000Z</time>
      </trkpt>
      <trkpt lat="45.34386" lon="6.16127">
        <ele>1749.5</ele>
        <time>2022-07-22T21:00:16.000Z</time>
      </trkpt>
      <trkpt lat="45.34387" lon="6.16131">
        <ele>1749.4</ele>
        <time>2022-07-22T21:00:26.000Z</time>
      </trkpt>
      <trkpt lat="45.34386" lon="6.16134">
        <ele>1749</ele>
        <time>2022-07-22T21:00:36.000Z</time>
      </trkpt>
      <trkpt lat="45.34385" lon="6.16141">
        <ele>1748.7</ele>
        <time>2022-07-22T21:00:46.000Z</time>
      </trkpt>
      <trkpt lat="45.34388" lon="6.16148">
        <ele>1749.2</ele>
        <time>2022-07-22T21:00:56.000Z</time>
      </trkpt>
      <trkpt lat="45.34392" lon="6.16153">
        <ele>1757</ele>
        <time>2022-07-22T21:01:06.000Z</time>
      </trkpt>
      <trkpt lat="45.34395" lon="6.16161">
        <ele>1749.1</ele>
        <time>2022-07-22T21:01:16.000Z</time>
      </trkpt>
      <trkpt lat="45.34398" lon="6.16165">
        <ele>1748.7</ele>
        <time>2022-07-22T21:01:26.000Z</time>
      </trkpt>
      <trkpt lat="45.34399" lon="6.16168">
        <ele>1748.7</ele>
        <time>2022-07-22T21:01:36.000Z</time>
      </trkpt>
      <trkpt lat="45.344" lon="6.16169">
        <ele>1748.7</ele>
        <time>2022-07-22T21:01:46.000Z</time>
      </trkpt>
      <trkpt lat="45.34401" lon="6.16172">
        <ele>1748.8</ele>
        <time>2022-07-22T21:01:56.000Z</time>
      </trkpt>
      <trkpt lat="45.34404" lon="6.16177">
        <ele>1758</ele>
        <time>2022-07-22T21:02:06.000Z</time>
      </trkpt>
      <trkpt lat="45.34406" lon="6.16182">
        <ele>1748.6</ele>
        <time>2022-07-22T21:02:16.000Z</time>
      </trkpt>
      <trkpt lat="45.3441" lon="6.16189">
        <ele>1747.9</ele>
        <time>2022-07-22T21:02:26.000Z</time>
      </trkpt>
      <trkpt lat="45.34412" lon="6.1619">
        <ele>1747.4</ele>
        <time>2022-07-22T21:02:36.000Z</time>
      </trkpt>
      <trkpt lat="45.34416" lon="6.16199">
        <ele>1760</ele>
        <time>2022-07-22T21:02:46.000Z</time>
      </trkpt>
      <trkpt lat="45.34417" lon="6.16208">
        <ele>1747.9</ele>
        <time>2022-07-22T21:02:56.000Z</time>
      </trkpt>
      <trkpt lat="45.34419" lon="6.16213">
        <ele>1748.4</ele>
        <time>2022-07-22T21:03:06.000Z</time>
      </trkpt>
      <trkpt lat="45.34417" lon="6.16216">
        <ele>1749.1</ele>
        <time>2022-07-22T21:03:16.000Z</time>
      </trkpt>
      <trkpt lat="45.34418" lon="6.16218">
        <ele>1749.2</ele>
        <time>2022-07-22T21:03:26.000Z</time>
      </trkpt>
      <trkpt lat="45.34419" lon="6.16224">
        <ele>1762</ele>
        <time>2022-07-22T21:03:36.000Z</time>
      </trkpt>
      <trkpt lat="45.34423" lon="6.16229">
        <ele>1750</ele>
        <time>2022-07-22T21:03:46.000Z</time>
      </trkpt>
      <trkpt lat="45.34426" lon="6.16236">
        <ele>1750.5</ele>
        <time>2022-07-22T21:03:56.000Z</time>
      </trkpt>
      <trkpt lat="45.34434" lon="6.16247">
        <ele>1762</ele>
        <time>2022-07-22T21:04:06.000Z</time>
      </trkpt>
      <trkpt lat="45.34436" lon="6.16253">
        <ele>1750.8</ele>
        <time>2022-07-22T21:04:16.000Z</time>
      </trkpt>
      <trkpt lat="45.34437" lon="6.1626">
        <ele>1751.3</ele>
        <time>2022-07-22T21:04:26.000Z</time>
      </trkpt>
      <trkpt lat="45.34437" lon="6.16269">
        <ele>1752.1</ele>
        <time>2022-07-22T21:04:36.000Z</time>
      </trkpt>
      <trkpt lat="45.3444" lon="6.16276">
        <ele>1755</ele>
        <time>2022-07-22T21:04:46.000Z</time>
      </trkpt>
      <trkpt lat="45.34444" lon="6.16281">
        <ele>1751.5</ele>
        <time>2022-07-22T21:04:56.000Z</time>
      </trkpt>
      <trkpt lat="45.34446" lon="6.16286">
        <ele>1751.6</ele>
        <time>2022-07-22T21:05:06.000Z</time>
      </trkpt>
      <trkpt lat="45.34446" lon="6.1629">
        <ele>1752</ele>
        <time>2022-07-22T21:05:16.000Z</time>
      </trkpt>
      <trkpt lat="45.34448" lon="6.16296">
        <ele>1752.3</ele>
        <time>2022-07-22T21:05:26.000Z</time>
      </trkpt>
      <trkpt lat="45.34448" lon="6.16299">
        <ele>1755</ele>
        <time>2022-07-22T21:05:36.000Z</time>
      </trkpt>
      <trkpt lat="45.34446" lon="6.16304">
        <ele>1753.5</ele>
        <time>2022-07-22T21:05:46.000Z</time>
      </trkpt>
      <trkpt lat="45.34446" lon="6.16307">
        <ele>1753.8</ele>
        <time>2022-07-22T21:05:56.000Z</time>
      </trkpt>
      <trkpt lat="45.3445" lon="6.1631">
        <ele>1753.2</ele>
        <time>2022-07-22T21:06:06.000Z</time>
      </trkpt>
      <trkpt lat="45.34453" lon="6.16315">
        <ele>1753</ele>
        <time>2022-07-22T21:06:16.000Z</time>
      </trkpt>
      <trkpt lat="45.34455" lon="6.16317">
        <ele>1752.9</ele>
        <time>2022-07-22T21:06:26.000Z</time>
      </trkpt>
      <trkpt lat="45.34454" lon="6.16324">
        <ele>1760</ele>
        <time>2022-07-22T21:06:36.000Z</time>
      </trkpt>
      <trkpt lat="45.34451" lon="6.16333">
        <ele>1755</ele>
        <time>2022-07-22T21:06:46.000Z</time>
      </trkpt>
      <trkpt lat="45.3445" lon="6.16341">
        <ele>1755.8</ele>
        <time>2022-07-22T21:06:56.000Z</time>
      </trkpt>
      <trkpt lat="45.34446" lon="6.1635">
        <ele>1760</ele>
        <time>2022-07-22T21:07:06.000Z</time>
      </trkpt>
      <trkpt lat="45.34441" lon="6.16357">
        <ele>1758.9</ele>
        <time>2022-07-22T21:07:16.000Z</time>
      </trkpt>
      <trkpt lat="45.3444" lon="6.16365">
        <ele>1760.3</ele>
        <time>2022-07-22T21:07:26.000Z</time>
      </trkpt>
      <trkpt lat="45.3444" lon="6.16373">
        <ele>1761.9</ele>
        <time>2022-07-22T21:07:36.000Z</time>
      </trkpt>
      <trkpt lat="45.34442" lon="6.16382">
        <ele>1766</ele>
        <time>2022-07-22T21:07:46.000Z</time>
      </trkpt>
      <trkpt lat="45.3444" lon="6.16384">
        <ele>1764</ele>
        <time>2022-07-22T21:07:56.000Z</time>
      </trkpt>
      <trkpt lat="45.34441" lon="6.16388">
        <ele>1764.3</ele>
        <time>2022-07-22T21:08:06.000Z</time>
      </trkpt>
      <trkpt lat="45.34441" lon="6.16391">
        <ele>1764.9</ele>
        <time>2022-07-22T21:08:16.000Z</time>
      </trkpt>
      <trkpt lat="45.34447" lon="6.16411">
        <ele>1767</ele>
        <time>2022-07-22T21:08:26.000Z</time>
      </trkpt>
      <trkpt lat="45.34452" lon="6.16418">
        <ele>1768.6</ele>
        <time>2022-07-22T21:08:36.000Z</time>
      </trkpt>
      <trkpt lat="45.34452" lon="6.16421">
        <ele>1769.4</ele>
        <time>2022-07-22T21:08:46.000Z</time>
      </trkpt>
      <trkpt lat="45.34451" lon="6.1643">
        <ele>1772.1</ele>
        <time>2022-07-22T21:08:56.000Z</time>
      </trkpt>
      <trkpt lat="45.34451" lon="6.16439">
        <ele>1767</ele>
        <time>2022-07-22T21:09:06.000Z</time>
      </trkpt>
      <trkpt lat="45.3445" lon="6.16445">
        <ele>1776.6</ele>
        <time>2022-07-22T21:09:16.000Z</time>
      </trkpt>
      <trkpt lat="45.34446" lon="6.16453">
        <ele>1779.3</ele>
        <time>2022-07-22T21:09:26.000Z</time>
      </trkpt>
      <trkpt lat="45.34443" lon="6.16456">
        <ele>1780.5</ele>
        <time>2022-07-22T21:09:36.000Z</time>
      </trkpt>
      <trkpt lat="45.34444" lon="6.16459">
        <ele>1781.3</ele>
        <time>2022-07-22T21:09:46.000Z</time>
      </trkpt>
      <trkpt lat="45.34443" lon="6.16465">
        <ele>1781</ele>
        <time>2022-07-22T21:09:56.000Z</time>
      </trkpt>
      <trkpt lat="45.34443" lon="6.16468">
        <ele>1784</ele>
        <time>2022-07-22T21:10:06.000Z</time>
      </trkpt>
      <trkpt lat="45.34441" lon="6.1647">
        <ele>1784.8</ele>
        <time>2022-07-22T21:10:16.000Z</time>
      </trkpt>
      <trkpt lat="45.34441" lon="6.16476">
        <ele>1786.4</ele>
        <time>2022-07-22T21:10:26.000Z</time>
      </trkpt>
      <trkpt lat="45.34439" lon="6.16479">
        <ele>1787.5</ele>
        <time>2022-07-22T21:10:36.000Z</time>
      </trkpt>
      <trkpt lat="45.3444" lon="6.16483">
        <ele>1788.5</ele>
        <time>2022-07-22T21:10:46.000Z</time>
      </trkpt>
      <trkpt lat="45.34452" lon="6.16492">
        <ele>1793</ele>
        <time>2022-07-22T21:10:56.000Z</time>
      </trkpt>
      <trkpt lat="45.34453" lon="6.16498">
        <ele>1792.7</ele>
        <time>2022-07-22T21:11:06.000Z</time>
      </trkpt>
      <trkpt lat="45.34454" lon="6.165">
        <ele>1793.3</ele>
        <time>2022-07-22T21:11:16.000Z</time>
      </trkpt>
      <trkpt lat="45.34453" lon="6.16509">
        <ele>1796.8</ele>
        <time>2022-07-22T21:11:26.000Z</time>
      </trkpt>
      <trkpt lat="45.3445" lon="6.16509">
        <ele>1796.6</ele>
        <time>2022-07-22T21:11:36.000Z</time>
      </trkpt>
      <trkpt lat="45.34448" lon="6.16514">
        <ele>1793</ele>
        <time>2022-07-22T21:11:46.000Z</time>
      </trkpt>
      <trkpt lat="45.34445" lon="6.16518">
        <ele>1799.5</ele>
        <time>2022-07-22T21:11:56.000Z</time>
      </trkpt>
      <trkpt lat="45.34445" lon="6.16521">
        <ele>1800.6</ele>
        <time>2022-07-22T21:12:06.000Z</time>
      </trkpt>
      <trkpt lat="45.34447" lon="6.16527">
        <ele>1803.1</ele>
        <time>2022-07-22T21:12:16.000Z</time>
      </trkpt>
      <trkpt lat="45.34446" lon="6.16533">
        <ele>1805.3</ele>
        <time>2022-07-22T21:12:26.000Z</time>
      </trkpt>
      <trkpt lat="45.34443" lon="6.16537">
        <ele>1803</ele>
        <time>2022-07-22T21:12:36.000Z</time>
      </trkpt>
      <trkpt lat="45.34442" lon="6.16546">
        <ele>1810.2</ele>
        <time>2022-07-22T21:12:46.000Z</time>
      </trkpt>
      <trkpt lat="45.34438" lon="6.16558">
        <ele>1815</ele>
        <time>2022-07-22T21:12:56.000Z</time>
      </trkpt>
      <trkpt lat="45.34439" lon="6.16564">
        <ele>1818</ele>
        <time>2022-07-22T21:13:06.000Z</time>
      </trkpt>
      <trkpt lat="45.3444" lon="6.16566">
        <ele>1818.3</ele>
        <time>2022-07-22T21:13:16.000Z</time>
      </trkpt>
      <trkpt lat="45.34438" lon="6.1658">
        <ele>1823.9</ele>
        <time>2022-07-22T21:13:26.000Z</time>
      </trkpt>
      <trkpt lat="45.3444" lon="6.16583">
        <ele>1825.4</ele>
        <time>2022-07-22T21:13:36.000Z</time>
      </trkpt>
      <trkpt lat="45.34439" lon="6.16585">
        <ele>1825.9</ele>
        <time>2022-07-22T21:13:46.000Z</time>
      </trkpt>
      <trkpt lat="45.34439" lon="6.16588">
        <ele>1826.8</ele>
        <time>2022-07-22T21:13:56.000Z</time>
      </trkpt>
      <trkpt lat="45.3444" lon="6.1659">
        <ele>1830</ele>
        <time>2022-07-22T21:14:06.000Z</time>
      </trkpt>
      <trkpt lat="45.34441" lon="6.16596">
        <ele>1829.4</ele>
        <time>2022-07-22T21:14:16.000Z</time>
      </trkpt>
      <trkpt lat="45.3444" lon="6.16599">
        <ele>1830.2</ele>
        <time>2022-07-22T21:14:26.000Z</time>
      </trkpt>
      <trkpt lat="45.3444" lon="6.16605">
        <ele>1832</ele>
        <time>2022-07-22T21:14:36.000Z</time>
      </trkpt>
      <trkpt lat="45.34442" lon="6.16611">
        <ele>1833.9</ele>
        <time>2022-07-22T21:14:46.000Z</time>
      </trkpt>
      <trkpt lat="45.3444" lon="6.16615">
        <ele>1841</ele>
        <time>2022-07-22T21:14:56.000Z</time>
      </trkpt>
      <trkpt lat="45.34437" lon="6.16616">
        <ele>1835.5</ele>
        <time>2022-07-22T21:15:06.000Z</time>
      </trkpt>
      <trkpt lat="45.34436" lon="6.16618">
        <ele>1836.2</ele>
        <time>2022-07-22T21:15:16.000Z</time>
      </trkpt>
      <trkpt lat="45.34434" lon="6.1662">
        <ele>1836.8</ele>
        <time>2022-07-22T21:15:26.000Z</time>
      </trkpt>
      <trkpt lat="45.34431" lon="6.16627">
        <ele>1839.2</ele>
        <time>2022-07-22T21:15:36.000Z</time>
      </trkpt>
      <trkpt lat="45.34429" lon="6.16629">
        <ele>1839.9</ele>
        <time>2022-07-22T21:15:46.000Z</time>
      </trkpt>
      <trkpt lat="45.34429" lon="6.16633">
        <ele>1841.3</ele>
        <time>2022-07-22T21:15:56.000Z</time>
      </trkpt>
      <trkpt lat="45.34427" lon="6.16635">
        <ele>1848</ele>
        <time>2022-07-22T21:16:06.000Z</time>
      </trkpt>
      <trkpt lat="45.3443" lon="6.1664">
        <ele>1844.1</ele>
        <time>2022-07-22T21:16:16.000Z</time>
      </trkpt>
      <trkpt lat="45.34431" lon="6.16651">
        <ele>1850.1</ele>
        <time>2022-07-22T21:16:26.000Z</time>
      </trkpt>
      <trkpt lat="45.3443" lon="6.16654">
        <ele>1851.6</ele>
        <time>2022-07-22T21:16:36.000Z</time>
      </trkpt>
      <trkpt lat="45.34427" lon="6.16657">
        <ele>1852.5</ele>
        <time>2022-07-22T21:16:46.000Z</time>
      </trkpt>
      <trkpt lat="45.34428" lon="6.16659">
        <ele>1848</ele>
        <time>2022-07-22T21:16:56.000Z</time>
      </trkpt>
      <trkpt lat="45.3443" lon="6.16659">
        <ele>1854.2</ele>
        <time>2022-07-22T21:17:06.000Z</time>
      </trkpt>
      <trkpt lat="45.34432" lon="6.16661">
        <ele>1855.8</ele>
        <time>2022-07-22T21:17:16.000Z</time>
      </trkpt>
      <trkpt lat="45.3443" lon="6.16666">
        <ele>1858</ele>
        <time>2022-07-22T21:17:26.000Z</time>
      </trkpt>
      <trkpt lat="45.34427" lon="6.16669">
        <ele>1858.5</ele>
        <time>2022-07-22T21:17:36.000Z</time>
      </trkpt>
      <trkpt lat="45.34426" lon="6.16675">
        <ele>1861.2</ele>
        <time>2022-07-22T21:17:46.000Z</time>
      </trkpt>
      <trkpt lat="45.34424" lon="6.16677">
        <ele>1861.4</ele>
        <time>2022-07-22T21:17:56.000Z</time>
      </trkpt>
      <trkpt lat="45.34422" lon="6.16682">
        <ele>1862</ele>
        <time>2022-07-22T21:18:06.000Z</time>
      </trkpt>
      <trkpt lat="45.34423" lon="6.16685">
        <ele>1864.9</ele>
        <time>2022-07-22T21:18:16.000Z</time>
      </trkpt>
      <trkpt lat="45.34427" lon="6.16686">
        <ele>1867.3</ele>
        <time>2022-07-22T21:18:26.000Z</time>
      </trkpt>
      <trkpt lat="45.34427" lon="6.16689">
        <ele>1868.8</ele>
        <time>2022-07-22T21:18:36.000Z</time>
      </trkpt>
      <trkpt lat="45.34428" lon="6.16692">
        <ele>1870.8</ele>
        <time>2022-07-22T21:18:46.000Z</time>
      </trkpt>
      <trkpt lat="45.34428" lon="6.16702">
        <ele>1874.9</ele>
        <time>2022-07-22T21:18:56.000Z</time>
      </trkpt>
      <trkpt lat="45.34429" lon="6.16704">
        <ele>1875</ele>
        <time>2022-07-22T21:19:06.000Z</time>
      </trkpt>
      <trkpt lat="45.34429" lon="6.16707">
        <ele>1877.3</ele>
        <time>2022-07-22T21:19:16.000Z</time>
      </trkpt>
      <trkpt lat="45.34427" lon="6.16716">
        <ele>1879.7</ele>
        <time>2022-07-22T21:19:26.000Z</time>
      </trkpt>
      <trkpt lat="45.34429" lon="6.16724">
        <ele>1883.6</ele>
        <time>2022-07-22T21:19:36.000Z</time>
      </trkpt>
      <trkpt lat="45.34431" lon="6.16729">
        <ele>1886.2</ele>
        <time>2022-07-22T21:19:46.000Z</time>
      </trkpt>
      <trkpt lat="45.34429" lon="6.16731">
        <ele>1887</ele>
        <time>2022-07-22T21:19:56.000Z</time>
      </trkpt>
      <trkpt lat="45.34431" lon="6.16736">
        <ele>1888.9</ele>
        <time>2022-07-22T21:20:06.000Z</time>
      </trkpt>
      <trkpt lat="45.34435" lon="6.16755">
        <ele>1897.2</ele>
        <time>2022-07-22T21:20:16.000Z</time>
      </trkpt>
      <trkpt lat="45.34436" lon="6.16757">
        <ele>1898</ele>
        <time>2022-07-22T21:20:26.000Z</time>
      </trkpt>
      <trkpt lat="45.34436" lon="6.1676">
        <ele>1899.4</ele>
        <time>2022-07-22T21:20:36.000Z</time>
      </trkpt>
      <trkpt lat="45.34434" lon="6.16762">
        <ele>1899.6</ele>
        <time>2022-07-22T21:20:46.000Z</time>
      </trkpt>
      <trkpt lat="45.34436" lon="6.16764">
        <ele>1900.9</ele>
        <time>2022-07-22T21:20:56.000Z</time>
      </trkpt>
      <trkpt lat="45.34438" lon="6.16764">
        <ele>1901.4</ele>
        <time>2022-07-22T21:21:06.000Z</time>
      </trkpt>
      <trkpt lat="45.3444" lon="6.16769">
        <ele>1903.8</ele>
        <time>2022-07-22T21:21:16.000Z</time>
      </trkpt>
      <trkpt lat="45.34441" lon="6.16777">
        <ele>1907</ele>
        <time>2022-07-22T21:21:26.000Z</time>
      </trkpt>
      <trkpt lat="45.34443" lon="6.16778">
        <ele>1907</ele>
        <time>2022-07-22T21:21:36.000Z</time>
      </trkpt>
      <trkpt lat="45.34449" lon="6.16776">
        <ele>1909.8</ele>
        <time>2022-07-22T21:21:46.000Z</time>
      </trkpt>
      <trkpt lat="45.3445" lon="6.16779">
        <ele>1911.5</ele>
        <time>2022-07-22T21:21:56.000Z</time>
      </trkpt>
      <trkpt lat="45.34453" lon="6.1678">
        <ele>1913.4</ele>
        <time>2022-07-22T21:22:06.000Z</time>
      </trkpt>
      <trkpt lat="45.34458" lon="6.16777">
        <ele>1915</ele>
        <time>2022-07-22T21:22:16.000Z</time>
      </trkpt>
      <trkpt lat="45.34461" lon="6.16774">
        <ele>1927</ele>
        <time>2022-07-22T21:22:26.000Z</time>
      </trkpt>
      <trkpt lat="45.34463" lon="6.16774">
        <ele>1916.7</ele>
        <time>2022-07-22T21:22:36.000Z</time>
      </trkpt>
      <trkpt lat="45.34465" lon="6.16775">
        <ele>1918.1</ele>
        <time>2022-07-22T21:22:46.000Z</time>
      </trkpt>
      <trkpt lat="45.34467" lon="6.16773">
        <ele>1918.5</ele>
        <time>2022-07-22T21:22:56.000Z</time>
      </trkpt>
      <trkpt lat="45.34469" lon="6.16774">
        <ele>1919.9</ele>
        <time>2022-07-22T21:23:06.000Z</time>
      </trkpt>
      <trkpt lat="45.34474" lon="6.1678">
        <ele>1924.7</ele>
        <time>2022-07-22T21:23:16.000Z</time>
      </trkpt>
      <trkpt lat="45.34478" lon="6.1678">
        <ele>1927</ele>
        <time>2022-07-22T21:23:26.000Z</time>
      </trkpt>
      <trkpt lat="45.34482" lon="6.16782">
        <ele>1930.1</ele>
        <time>2022-07-22T21:23:36.000Z</time>
      </trkpt>
      <trkpt lat="45.34486" lon="6.16786">
        <ele>1933.7</ele>
        <time>2022-07-22T21:23:46.000Z</time>
      </trkpt>
      <trkpt lat="45.34488" lon="6.168">
        <ele>1938</ele>
        <time>2022-07-22T21:23:56.000Z</time>
      </trkpt>
      <trkpt lat="45.34494" lon="6.16796">
        <ele>1941.1</ele>
        <time>2022-07-22T21:24:06.000Z</time>
      </trkpt>
      <trkpt lat="45.34497" lon="6.16795">
        <ele>1942.6</ele>
        <time>2022-07-22T21:24:16.000Z</time>
      </trkpt>
      <trkpt lat="45.345" lon="6.16793">
        <ele>1943.8</ele>
        <time>2022-07-22T21:24:26.000Z</time>
      </trkpt>
      <trkpt lat="45.34502" lon="6.16794">
        <ele>1944.9</ele>
        <time>2022-07-22T21:24:36.000Z</time>
      </trkpt>
      <trkpt lat="45.34504" lon="6.16794">
        <ele>1945.7</ele>
        <time>2022-07-22T21:24:46.000Z</time>
      </trkpt>
      <trkpt lat="45.34512" lon="6.16799">
        <ele>1941</ele>
        <time>2022-07-22T21:24:56.000Z</time>
      </trkpt>
      <trkpt lat="45.34514" lon="6.16798">
        <ele>1951</ele>
        <time>2022-07-22T21:25:06.000Z</time>
      </trkpt>
      <trkpt lat="45.34516" lon="6.16798">
        <ele>1951.8</ele>
        <time>2022-07-22T21:25:16.000Z</time>
      </trkpt>
      <trkpt lat="45.3452" lon="6.168">
        <ele>1954.2</ele>
        <time>2022-07-22T21:25:26.000Z</time>
      </trkpt>
      <trkpt lat="45.34522" lon="6.168">
        <ele>1955.1</ele>
        <time>2022-07-22T21:25:36.000Z</time>
      </trkpt>
      <trkpt lat="45.34524" lon="6.16799">
        <ele>1955.6</ele>
        <time>2022-07-22T21:25:46.000Z</time>
      </trkpt>
      <trkpt lat="45.34525" lon="6.16796">
        <ele>1954.7</ele>
        <time>2022-07-22T21:25:56.000Z</time>
      </trkpt>
      <trkpt lat="45.34526" lon="6.16795">
        <ele>1954.7</ele>
        <time>2022-07-22T21:26:06.000Z</time>
      </trkpt>
      <trkpt lat="45.34536" lon="6.16791">
        <ele>1953</ele>
        <time>2022-07-22T21:26:16.000Z</time>
      </trkpt>
      <trkpt lat="45.34543" lon="6.16791">
        <ele>1956.1</ele>
        <time>2022-07-22T21:26:26.000Z</time>
      </trkpt>
      <trkpt lat="45.34546" lon="6.16794">
        <ele>1958.1</ele>
        <time>2022-07-22T21:26:36.000Z</time>
      </trkpt>
      <trkpt lat="45.34551" lon="6.16796">
        <ele>1960</ele>
        <time>2022-07-22T21:26:46.000Z</time>
      </trkpt>
      <trkpt lat="45.34557" lon="6.16794">
        <ele>1954</ele>
        <time>2022-07-22T21:26:56.000Z</time>
      </trkpt>
      <trkpt lat="45.34563" lon="6.16799">
        <ele>1964.6</ele>
        <time>2022-07-22T21:27:06.000Z</time>
      </trkpt>
      <trkpt lat="45.3457" lon="6.16801">
        <ele>1967.4</ele>
        <time>2022-07-22T21:27:16.000Z</time>
      </trkpt>
      <trkpt lat="45.34571" lon="6.16802">
        <ele>1968.1</ele>
        <time>2022-07-22T21:27:26.000Z</time>
      </trkpt>
      <trkpt lat="45.34577" lon="6.16803">
        <ele>1982</ele>
        <time>2022-07-22T21:27:36.000Z</time>
      </trkpt>
      <trkpt lat="45.34579" lon="6.16804">
        <ele>1970.6</ele>
        <time>2022-07-22T21:27:46.000Z</time>
      </trkpt>
      <trkpt lat="45.34581" lon="6.1681">
        <ele>1973.4</ele>
        <time>2022-07-22T21:27:56.000Z</time>
      </trkpt>
      <trkpt lat="45.34581" lon="6.16812">
        <ele>1974.2</ele>
        <time>2022-07-22T21:28:06.000Z</time>
      </trkpt>
      <trkpt lat="45.3458" lon="6.16815">
        <ele>1975.3</ele>
        <time>2022-07-22T21:28:16.000Z</time>
      </trkpt>
      <trkpt lat="45.34582" lon="6.16816">
        <ele>1976</ele>
        <time>2022-07-22T21:28:26.000Z</time>
      </trkpt>
      <trkpt lat="45.34586" lon="6.16816">
        <ele>1976.6</ele>
        <time>2022-07-22T21:28:36.000Z</time>
      </trkpt>
      <trkpt lat="45.34594" lon="6.16822">
        <ele>1990</ele>
        <time>2022-07-22T21:28:46.000Z</time>
      </trkpt>
      <trkpt lat="45.34596" lon="6.16824">
        <ele>1981</ele>
        <time>2022-07-22T21:28:56.000Z</time>
      </trkpt>
      <trkpt lat="45.34599" lon="6.16831">
        <ele>1983.4</ele>
        <time>2022-07-22T21:29:06.000Z</time>
      </trkpt>
      <trkpt lat="45.34603" lon="6.16833">
        <ele>1984.3</ele>
        <time>2022-07-22T21:29:16.000Z</time>
      </trkpt>
      <trkpt lat="45.34605" lon="6.1684">
        <ele>1985.9</ele>
        <time>2022-07-22T21:29:26.000Z</time>
      </trkpt>
      <trkpt lat="45.34605" lon="6.16843">
        <ele>1990</ele>
        <time>2022-07-22T21:29:36.000Z</time>
      </trkpt>
      <trkpt lat="45.34607" lon="6.16845">
        <ele>1986.9</ele>
        <time>2022-07-22T21:29:46.000Z</time>
      </trkpt>
      <trkpt lat="45.34612" lon="6.1686">
        <ele>1988.6</ele>
        <time>2022-07-22T21:29:56.000Z</time>
      </trkpt>
      <trkpt lat="45.34614" lon="6.16865">
        <ele>1988.6</ele>
        <time>2022-07-22T21:30:06.000Z</time>
      </trkpt>
      <trkpt lat="45.34619" lon="6.16874">
        <ele>1995</ele>
        <time>2022-07-22T21:30:16.000Z</time>
      </trkpt>
      <trkpt lat="45.34623" lon="6.16886">
        <ele>1986.9</ele>
        <time>2022-07-22T21:30:26.000Z</time>
      </trkpt>
      <trkpt lat="45.34624" lon="6.16892">
        <ele>1987</ele>
        <time>2022-07-22T21:30:36.000Z</time>
      </trkpt>
      <trkpt lat="45.34624" lon="6.16899">
        <ele>1988</ele>
        <time>2022-07-22T21:30:46.000Z</time>
      </trkpt>
      <trkpt lat="45.34627" lon="6.16908">
        <ele>1994</ele>
        <time>2022-07-22T21:30:56.000Z</time>
      </trkpt>
      <trkpt lat="45.34627" lon="6.1691">
        <ele>1987.7</ele>
        <time>2022-07-22T21:31:06.000Z</time>
      </trkpt>
      <trkpt lat="45.3463" lon="6.16915">
        <ele>1986.2</ele>
        <time>2022-07-22T21:31:16.000Z</time>
      </trkpt>
      <trkpt lat="45.3463" lon="6.16921">
        <ele>1987.4</ele>
        <time>2022-07-22T21:31:26.000Z</time>
      </trkpt>
      <trkpt lat="45.34629" lon="6.16923">
        <ele>1988.6</ele>
        <time>2022-07-22T21:31:36.000Z</time>
      </trkpt>
      <trkpt lat="45.34635" lon="6.16943">
        <ele>1996</ele>
        <time>2022-07-22T21:31:46.000Z</time>
      </trkpt>
      <trkpt lat="45.34636" lon="6.16953">
        <ele>1990.1</ele>
        <time>2022-07-22T21:31:56.000Z</time>
      </trkpt>
      <trkpt lat="45.34643" lon="6.16961">
        <ele>1988</ele>
        <time>2022-07-22T21:32:06.000Z</time>
      </trkpt>
      <trkpt lat="45.34648" lon="6.16969">
        <ele>1990</ele>
        <time>2022-07-22T21:32:16.000Z</time>
      </trkpt>
      <trkpt lat="45.34655" lon="6.16983">
        <ele>1987.3</ele>
        <time>2022-07-22T21:32:26.000Z</time>
      </trkpt>
      <trkpt lat="45.34656" lon="6.16986">
        <ele>1987.2</ele>
        <time>2022-07-22T21:32:36.000Z</time>
      </trkpt>
      <trkpt lat="45.34663" lon="6.16991">
        <ele>1985</ele>
        <time>2022-07-22T21:32:46.000Z</time>
      </trkpt>
      <trkpt lat="45.34664" lon="6.16996">
        <ele>1984.1</ele>
        <time>2022-07-22T21:32:56.000Z</time>
      </trkpt>
      <trkpt lat="45.34667" lon="6.16998">
        <ele>1982.8</ele>
        <time>2022-07-22T21:33:06.000Z</time>
      </trkpt>
      <trkpt lat="45.34677" lon="6.17013">
        <ele>1985</ele>
        <time>2022-07-22T21:33:16.000Z</time>
      </trkpt>
      <trkpt lat="45.34685" lon="6.17032">
        <ele>1978.6</ele>
        <time>2022-07-22T21:33:26.000Z</time>
      </trkpt>
      <trkpt lat="45.34687" lon="6.17034">
        <ele>1978.1</ele>
        <time>2022-07-22T21:33:36.000Z</time>
      </trkpt>
      <trkpt lat="45.3469" lon="6.1704">
        <ele>1981</ele>
        <time>2022-07-22T21:33:46.000Z</time>
      </trkpt>
      <trkpt lat="45.3469" lon="6.17043">
        <ele>1975.9</ele>
        <time>2022-07-22T21:33:56.000Z</time>
      </trkpt>
      <trkpt lat="45.34694" lon="6.17048">
        <ele>1974</ele>
        <time>2022-07-22T21:34:06.000Z</time>
      </trkpt>
      <trkpt lat="45.34695" lon="6.17053">
        <ele>1972.5</ele>
        <time>2022-07-22T21:34:16.000Z</time>
      </trkpt>
      <trkpt lat="45.34693" lon="6.17063">
        <ele>1971.3</ele>
        <time>2022-07-22T21:34:26.000Z</time>
      </trkpt>
      <trkpt lat="45.34695" lon="6.17078">
        <ele>1978</ele>
        <time>2022-07-22T21:34:36.000Z</time>
      </trkpt>
      <trkpt lat="45.34696" lon="6.17081">
        <ele>1968.3</ele>
        <time>2022-07-22T21:34:46.000Z</time>
      </trkpt>
      <trkpt lat="45.34691" lon="6.17088">
        <ele>1968.6</ele>
        <time>2022-07-22T21:34:56.000Z</time>
      </trkpt>
      <trkpt lat="45.34691" lon="6.17121">
        <ele>1982</ele>
        <time>2022-07-22T21:35:06.000Z</time>
      </trkpt>
      <trkpt lat="45.34692" lon="6.17124">
        <ele>1969.2</ele>
        <time>2022-07-22T21:35:16.000Z</time>
      </trkpt>
      <trkpt lat="45.34692" lon="6.17127">
        <ele>1969.4</ele>
        <time>2022-07-22T21:35:26.000Z</time>
      </trkpt>
      <trkpt lat="45.34689" lon="6.17129">
        <ele>1969.9</ele>
        <time>2022-07-22T21:35:36.000Z</time>
      </trkpt>
      <trkpt lat="45.34689" lon="6.17135">
        <ele>1970.3</ele>
        <time>2022-07-22T21:35:46.000Z</time>
      </trkpt>
      <trkpt lat="45.34688" lon="6.1714">
        <ele>1970.7</ele>
        <time>2022-07-22T21:35:56.000Z</time>
      </trkpt>
      <trkpt lat="45.34689" lon="6.17144">
        <ele>1970.8</ele>
        <time>2022-07-22T21:36:06.000Z</time>
      </trkpt>
      <trkpt lat="45.34685" lon="6.17152">
        <ele>1983</ele>
        <time>2022-07-22T21:36:16.000Z</time>
      </trkpt>
      <trkpt lat="45.34681" lon="6.17157">
        <ele>1972.1</ele>
        <time>2022-07-22T21:36:26.000Z</time>
      </trkpt>
      <trkpt lat="45.3468" lon="6.1716">
        <ele>1972.3</ele>
        <time>2022-07-22T21:36:36.000Z</time>
      </trkpt>
      <trkpt lat="45.34682" lon="6.17165">
        <ele>1972.3</ele>
        <time>2022-07-22T21:36:46.000Z</time>
      </trkpt>
      <trkpt lat="45.34682" lon="6.17171">
        <ele>1972.5</ele>
        <time>2022-07-22T21:36:56.000Z</time>
      </trkpt>
      <trkpt lat="45.34676" lon="6.17181">
        <ele>1982</ele>
        <time>2022-07-22T21:37:06.000Z</time>
      </trkpt>
      <trkpt lat="45.34673" lon="6.17185">
        <ele>1973.6</ele>
        <time>2022-07-22T21:37:16.000Z</time>
      </trkpt>
      <trkpt lat="45.34671" lon="6.1719">
        <ele>1973.8</ele>
        <time>2022-07-22T21:37:26.000Z</time>
      </trkpt>
      <trkpt lat="45.34671" lon="6.17198">
        <ele>1973.9</ele>
        <time>2022-07-22T21:37:36.000Z</time>
      </trkpt>
      <trkpt lat="45.34673" lon="6.17204">
        <ele>1973.9</ele>
        <time>2022-07-22T21:37:46.000Z</time>
      </trkpt>
      <trkpt lat="45.34673" lon="6.17208">
        <ele>1981</ele>
        <time>2022-07-22T21:37:56.000Z</time>
      </trkpt>
      <trkpt lat="45.34672" lon="6.17214">
        <ele>1973.9</ele>
        <time>2022-07-22T21:38:06.000Z</time>
      </trkpt>
      <trkpt lat="45.34671" lon="6.17216">
        <ele>1974</ele>
        <time>2022-07-22T21:38:16.000Z</time>
      </trkpt>
      <trkpt lat="45.34673" lon="6.17225">
        <ele>1974</ele>
        <time>2022-07-22T21:38:26.000Z</time>
      </trkpt>
      <trkpt lat="45.34673" lon="6.17231">
        <ele>1974.1</ele>
        <time>2022-07-22T21:38:36.000Z</time>
      </trkpt>
      <trkpt lat="45.34671" lon="6.1724">
        <ele>1980</ele>
        <time>2022-07-22T21:38:46.000Z</time>
      </trkpt>
      <trkpt lat="45.34671" lon="6.17243">
        <ele>1974.2</ele>
        <time>2022-07-22T21:38:56.000Z</time>
      </trkpt>
      <trkpt lat="45.34672" lon="6.17247">
        <ele>1974.3</ele>
        <time>2022-07-22T21:39:06.000Z</time>
      </trkpt>
      <trkpt lat="45.34671" lon="6.17254">
        <ele>1974.7</ele>
        <time>2022-07-22T21:39:16.000Z</time>
      </trkpt>
      <trkpt lat="45.34672" lon="6.17259">
        <ele>1975.3</ele>
        <time>2022-07-22T21:39:26.000Z</time>
      </trkpt>
      <trkpt lat="45.34675" lon="6.17266">
        <ele>1980</ele>
        <time>2022-07-22T21:39:36.000Z</time>
      </trkpt>
      <trkpt lat="45.34677" lon="6.17275">
        <ele>1977.1</ele>
        <time>2022-07-22T21:39:46.000Z</time>
      </trkpt>
      <trkpt lat="45.34679" lon="6.17277">
        <ele>1977.4</ele>
        <time>2022-07-22T21:39:56.000Z</time>
      </trkpt>
      <trkpt lat="45.34684" lon="6.1728">
        <ele>1977.9</ele>
        <time>2022-07-22T21:40:06.000Z</time>
      </trkpt>
      <trkpt lat="45.34689" lon="6.17294">
        <ele>1979</ele>
        <time>2022-07-22T21:40:16.000Z</time>
      </trkpt>
      <trkpt lat="45.34689" lon="6.17303">
        <ele>1981.1</ele>
        <time>2022-07-22T21:40:26.000Z</time>
      </trkpt>
      <trkpt lat="45.34692" lon="6.17311">
        <ele>1982.1</ele>
        <time>2022-07-22T21:40:36.000Z</time>
      </trkpt>
      <trkpt lat="45.34696" lon="6.17315">
        <ele>1983</ele>
        <time>2022-07-22T21:40:46.000Z</time>
      </trkpt>
      <trkpt lat="45.34696" lon="6.17318">
        <ele>1979</ele>
        <time>2022-07-22T21:40:56.000Z</time>
      </trkpt>
      <trkpt lat="45.34704" lon="6.17326">
        <ele>1985.2</ele>
        <time>2022-07-22T21:41:06.000Z</time>
      </trkpt>
      <trkpt lat="45.34704" lon="6.17328">
        <ele>1985.3</ele>
        <time>2022-07-22T21:41:16.000Z</time>
      </trkpt>
      <trkpt lat="45.34706" lon="6.17331">
        <ele>1985.9</ele>
        <time>2022-07-22T21:41:26.000Z</time>
      </trkpt>
      <trkpt lat="45.34706" lon="6.17334">
        <ele>1986.2</ele>
        <time>2022-07-22T21:41:36.000Z</time>
      </trkpt>
      <trkpt lat="45.34707" lon="6.17337">
        <ele>1986.7</ele>
        <time>2022-07-22T21:41:46.000Z</time>
      </trkpt>
      <trkpt lat="45.34711" lon="6.17341">
        <ele>1996</ele>
        <time>2022-07-22T21:41:56.000Z</time>
      </trkpt>
      <trkpt lat="45.34713" lon="6.17342">
        <ele>1988.6</ele>
        <time>2022-07-22T21:42:06.000Z</time>
      </trkpt>
      <trkpt lat="45.34715" lon="6.17347">
        <ele>1989.8</ele>
        <time>2022-07-22T21:42:16.000Z</time>
      </trkpt>
      <trkpt lat="45.34721" lon="6.1735">
        <ele>1991.7</ele>
        <time>2022-07-22T21:42:26.000Z</time>
      </trkpt>
      <trkpt lat="45.34724" lon="6.17354">
        <ele>1993</ele>
        <time>2022-07-22T21:42:36.000Z</time>
      </trkpt>
      <trkpt lat="45.34726" lon="6.17355">
        <ele>1993.5</ele>
        <time>2022-07-22T21:42:46.000Z</time>
      </trkpt>
      <trkpt lat="45.3473" lon="6.17359">
        <ele>2000</ele>
        <time>2022-07-22T21:42:56.000Z</time>
      </trkpt>
      <trkpt lat="45.34731" lon="6.17362">
        <ele>1995.1</ele>
        <time>2022-07-22T21:43:06.000Z</time>
      </trkpt>
      <trkpt lat="45.34734" lon="6.17364">
        <ele>1995.7</ele>
        <time>2022-07-22T21:43:16.000Z</time>
      </trkpt>
      <trkpt lat="45.34735" lon="6.17366">
        <ele>1996.1</ele>
        <time>2022-07-22T21:43:26.000Z</time>
      </trkpt>
      <trkpt lat="45.34739" lon="6.17379">
        <ele>1998.3</ele>
        <time>2022-07-22T21:43:36.000Z</time>
      </trkpt>
      <trkpt lat="45.34741" lon="6.1738">
        <ele>2001</ele>
        <time>2022-07-22T21:43:46.000Z</time>
      </trkpt>
      <trkpt lat="45.34743" lon="6.17392">
        <ele>2000.1</ele>
        <time>2022-07-22T21:43:56.000Z</time>
      </trkpt>
      <trkpt lat="45.34743" lon="6.17395">
        <ele>2000.5</ele>
        <time>2022-07-22T21:44:06.000Z</time>
      </trkpt>
      <trkpt lat="45.34742" lon="6.17397">
        <ele>2000.7</ele>
        <time>2022-07-22T21:44:16.000Z</time>
      </trkpt>
      <trkpt lat="45.34742" lon="6.174">
        <ele>2001</ele>
        <time>2022-07-22T21:44:26.000Z</time>
      </trkpt>
      <trkpt lat="45.34741" lon="6.17403">
        <ele>2001.4</ele>
        <time>2022-07-22T21:44:36.000Z</time>
      </trkpt>
      <trkpt lat="45.34738" lon="6.17402">
        <ele>2002</ele>
        <time>2022-07-22T21:44:46.000Z</time>
      </trkpt>
      <trkpt lat="45.3474" lon="6.17406">
        <ele>2001.7</ele>
        <time>2022-07-22T21:44:56.000Z</time>
      </trkpt>
      <trkpt lat="45.3474" lon="6.17409">
        <ele>2002.1</ele>
        <time>2022-07-22T21:45:06.000Z</time>
      </trkpt>
      <trkpt lat="45.34742" lon="6.17414">
        <ele>2002.7</ele>
        <time>2022-07-22T21:45:16.000Z</time>
      </trkpt>
      <trkpt lat="45.34744" lon="6.17422">
        <ele>2004.1</ele>
        <time>2022-07-22T21:45:26.000Z</time>
      </trkpt>
      <trkpt lat="45.34746" lon="6.17424">
        <ele>2004.5</ele>
        <time>2022-07-22T21:45:36.000Z</time>
      </trkpt>
      <trkpt lat="45.34745" lon="6.17426">
        <ele>2010</ele>
        <time>2022-07-22T21:45:46.000Z</time>
      </trkpt>
      <trkpt lat="45.34748" lon="6.17429">
        <ele>2005.6</ele>
        <time>2022-07-22T21:45:56.000Z</time>
      </trkpt>
      <trkpt lat="45.34754" lon="6.17431">
        <ele>2006.6</ele>
        <time>2022-07-22T21:46:06.000Z</time>
      </trkpt>
      <trkpt lat="45.34756" lon="6.17433">
        <ele>2007.2</ele>
        <time>2022-07-22T21:46:16.000Z</time>
      </trkpt>
      <trkpt lat="45.34762" lon="6.17429">
        <ele>2007.3</ele>
        <time>2022-07-22T21:46:26.000Z</time>
      </trkpt>
      <trkpt lat="45.34766" lon="6.17431">
        <ele>2010</ele>
        <time>2022-07-22T21:46:36.000Z</time>
      </trkpt>
      <trkpt lat="45.3477" lon="6.17434">
        <ele>2008.8</ele>
        <time>2022-07-22T21:46:46.000Z</time>
      </trkpt>
      <trkpt lat="45.34776" lon="6.17433">
        <ele>2009.4</ele>
        <time>2022-07-22T21:46:56.000Z</time>
      </trkpt>
      <trkpt lat="45.34786" lon="6.1744">
        <ele>2015</ele>
        <time>2022-07-22T21:47:06.000Z</time>
      </trkpt>
      <trkpt lat="45.3479" lon="6.17445">
        <ele>2014</ele>
        <time>2022-07-22T21:47:16.000Z</time>
      </trkpt>
      <trkpt lat="45.348" lon="6.17453">
        <ele>2017</ele>
        <time>2022-07-22T21:47:26.000Z</time>
      </trkpt>
      <trkpt lat="45.34806" lon="6.17452">
        <ele>2028</ele>
        <time>2022-07-22T21:47:36.000Z</time>
      </trkpt>
      <trkpt lat="45.3481" lon="6.17454">
        <ele>2020.8</ele>
        <time>2022-07-22T21:47:46.000Z</time>
      </trkpt>
      <trkpt lat="45.34811" lon="6.17456">
        <ele>2021.2</ele>
        <time>2022-07-22T21:47:56.000Z</time>
      </trkpt>
      <trkpt lat="45.34815" lon="6.17456">
        <ele>2023.1</ele>
        <time>2022-07-22T21:48:06.000Z</time>
      </trkpt>
      <trkpt lat="45.34816" lon="6.17459">
        <ele>2023.3</ele>
        <time>2022-07-22T21:48:16.000Z</time>
      </trkpt>
      <trkpt lat="45.34817" lon="6.1746">
        <ele>2023.7</ele>
        <time>2022-07-22T21:48:26.000Z</time>
      </trkpt>
      <trkpt lat="45.34822" lon="6.17463">
        <ele>2042</ele>
        <time>2022-07-22T21:48:36.000Z</time>
      </trkpt>
      <trkpt lat="45.34824" lon="6.17463">
        <ele>2026.7</ele>
        <time>2022-07-22T21:48:46.000Z</time>
      </trkpt>
      <trkpt lat="45.34825" lon="6.17457">
        <ele>2027.7</ele>
        <time>2022-07-22T21:48:56.000Z</time>
      </trkpt>
      <trkpt lat="45.34827" lon="6.17457">
        <ele>2028.7</ele>
        <time>2022-07-22T21:49:06.000Z</time>
      </trkpt>
      <trkpt lat="45.34832" lon="6.17465">
        <ele>2030.2</ele>
        <time>2022-07-22T21:49:16.000Z</time>
      </trkpt>
      <trkpt lat="45.34834" lon="6.17466">
        <ele>2031.1</ele>
        <time>2022-07-22T21:49:26.000Z</time>
      </trkpt>
      <trkpt lat="45.3484" lon="6.17463">
        <ele>2042</ele>
        <time>2022-07-22T21:49:36.000Z</time>
      </trkpt>
      <trkpt lat="45.34841" lon="6.17461">
        <ele>2036.2</ele>
        <time>2022-07-22T21:49:46.000Z</time>
      </trkpt>
      <trkpt lat="45.34842" lon="6.17464">
        <ele>2036.7</ele>
        <time>2022-07-22T21:49:56.000Z</time>
      </trkpt>
      <trkpt lat="45.34848" lon="6.17469">
        <ele>2040.6</ele>
        <time>2022-07-22T21:50:06.000Z</time>
      </trkpt>
      <trkpt lat="45.3485" lon="6.17469">
        <ele>2042</ele>
        <time>2022-07-22T21:50:16.000Z</time>
      </trkpt>
      <trkpt lat="45.34851" lon="6.17468">
        <ele>2042.7</ele>
        <time>2022-07-22T21:50:26.000Z</time>
      </trkpt>
      <trkpt lat="45.34856" lon="6.17468">
        <ele>2064</ele>
        <time>2022-07-22T21:50:36.000Z</time>
      </trkpt>
      <trkpt lat="45.34857" lon="6.17469">
        <ele>2046.9</ele>
        <time>2022-07-22T21:50:46.000Z</time>
      </trkpt>
      <trkpt lat="45.34861" lon="6.1747">
        <ele>2049.8</ele>
        <time>2022-07-22T21:50:56.000Z</time>
      </trkpt>
      <trkpt lat="45.34862" lon="6.17472">
        <ele>2050.4</ele>
        <time>2022-07-22T21:51:06.000Z</time>
      </trkpt>
      <trkpt lat="45.34863" lon="6.1747">
        <ele>2050.7</ele>
        <time>2022-07-22T21:51:16.000Z</time>
      </trkpt>
      <trkpt lat="45.34865" lon="6.17468">
        <ele>2051.5</ele>
        <time>2022-07-22T21:51:26.000Z</time>
      </trkpt>
      <trkpt lat="45.34869" lon="6.17469">
        <ele>2053.4</ele>
        <time>2022-07-22T21:51:36.000Z</time>
      </trkpt>
      <trkpt lat="45.34873" lon="6.17474">
        <ele>2064</ele>
        <time>2022-07-22T21:51:46.000Z</time>
      </trkpt>
      <trkpt lat="45.34875" lon="6.1748">
        <ele>2055.9</ele>
        <time>2022-07-22T21:51:56.000Z</time>
      </trkpt>
      <trkpt lat="45.34875" lon="6.17483">
        <ele>2055.8</ele>
        <time>2022-07-22T21:52:06.000Z</time>
      </trkpt>
      <trkpt lat="45.34879" lon="6.17488">
        <ele>2058</ele>
        <time>2022-07-22T21:52:16.000Z</time>
      </trkpt>
      <trkpt lat="45.34881" lon="6.17493">
        <ele>2059.3</ele>
        <time>2022-07-22T21:52:26.000Z</time>
      </trkpt>
      <trkpt lat="45.34881" lon="6.17496">
        <ele>2059.5</ele>
        <time>2022-07-22T21:52:36.000Z</time>
      </trkpt>
      <trkpt lat="45.34883" lon="6.17497">
        <ele>2081</ele>
        <time>2022-07-22T21:52:46.000Z</time>
      </trkpt>
      <trkpt lat="45.34885" lon="6.17497">
        <ele>2062.1</ele>
        <time>2022-07-22T21:52:56.000Z</time>
      </trkpt>
      <trkpt lat="45.34886" lon="6.17495">
        <ele>2062.6</ele>
        <time>2022-07-22T21:53:06.000Z</time>
      </trkpt>
      <trkpt lat="45.34888" lon="6.17494">
        <ele>2063.8</ele>
        <time>2022-07-22T21:53:16.000Z</time>
      </trkpt>
      <trkpt lat="45.3489" lon="6.17495">
        <ele>2064.5</ele>
        <time>2022-07-22T21:53:26.000Z</time>
      </trkpt>
      <trkpt lat="45.34895" lon="6.17501">
        <ele>2065</ele>
        <time>2022-07-22T21:53:36.000Z</time>
      </trkpt>
      <trkpt lat="45.34899" lon="6.17503">
        <ele>2065.1</ele>
        <time>2022-07-22T21:53:46.000Z</time>
      </trkpt>
      <trkpt lat="45.34905" lon="6.17519">
        <ele>2081</ele>
        <time>2022-07-22T21:53:56.000Z</time>
      </trkpt>
      <trkpt lat="45.34905" lon="6.17522">
        <ele>2067</ele>
        <time>2022-07-22T21:54:06.000Z</time>
      </trkpt>
      <trkpt lat="45.34904" lon="6.17525">
        <ele>2067</ele>
        <time>2022-07-22T21:54:16.000Z</time>
      </trkpt>
      <trkpt lat="45.34911" lon="6.17536">
        <ele>2069.8</ele>
        <time>2022-07-22T21:54:26.000Z</time>
      </trkpt>
      <trkpt lat="45.34913" lon="6.17542">
        <ele>2082</ele>
        <time>2022-07-22T21:54:36.000Z</time>
      </trkpt>
      <trkpt lat="45.34915" lon="6.17544">
        <ele>2072.3</ele>
        <time>2022-07-22T21:54:46.000Z</time>
      </trkpt>
      <trkpt lat="45.3492" lon="6.17557">
        <ele>2074.8</ele>
        <time>2022-07-22T21:54:56.000Z</time>
      </trkpt>
      <trkpt lat="45.3492" lon="6.17565">
        <ele>2075.7</ele>
        <time>2022-07-22T21:55:06.000Z</time>
      </trkpt>
      <trkpt lat="45.34923" lon="6.17568">
        <ele>2083</ele>
        <time>2022-07-22T21:55:16.000Z</time>
      </trkpt>
      <trkpt lat="45.34924" lon="6.17571">
        <ele>2076.2</ele>
        <time>2022-07-22T21:55:26.000Z</time>
      </trkpt>
      <trkpt lat="45.34924" lon="6.17578">
        <ele>2077.1</ele>
        <time>2022-07-22T21:55:36.000Z</time>
      </trkpt>
      <trkpt lat="45.34927" lon="6.17581">
        <ele>2077.3</ele>
        <time>2022-07-22T21:55:46.000Z</time>
      </trkpt>
      <trkpt lat="45.34929" lon="6.17587">
        <ele>2078.2</ele>
        <time>2022-07-22T21:55:56.000Z</time>
      </trkpt>
      <trkpt lat="45.34931" lon="6.17589">
        <ele>2078.6</ele>
        <time>2022-07-22T21:56:06.000Z</time>
      </trkpt>
      <trkpt lat="45.34934" lon="6.17594">
        <ele>2083</ele>
        <time>2022-07-22T21:56:16.000Z</time>
      </trkpt>
      <trkpt lat="45.34934" lon="6.17597">
        <ele>2080.6</ele>
        <time>2022-07-22T21:56:26.000Z</time>
      </trkpt>
      <trkpt lat="45.34943" lon="6.17609">
        <ele>2085.9</ele>
        <time>2022-07-22T21:56:36.000Z</time>
      </trkpt>
      <trkpt lat="45.34944" lon="6.17615">
        <ele>2087.6</ele>
        <time>2022-07-22T21:56:46.000Z</time>
      </trkpt>
      <trkpt lat="45.34947" lon="6.17617">
        <ele>2094</ele>
        <time>2022-07-22T21:56:56.000Z</time>
      </trkpt>
      <trkpt lat="45.34949" lon="6.17622">
        <ele>2089.6</ele>
        <time>2022-07-22T21:57:06.000Z</time>
      </trkpt>
      <trkpt lat="45.3495" lon="6.17628">
        <ele>2091.2</ele>
        <time>2022-07-22T21:57:16.000Z</time>
      </trkpt>
      <trkpt lat="45.34949" lon="6.17631">
        <ele>2091.7</ele>
        <time>2022-07-22T21:57:26.000Z</time>
      </trkpt>
      <trkpt lat="45.34951" lon="6.17632">
        <ele>2092.4</ele>
        <time>2022-07-22T21:57:36.000Z</time>
      </trkpt>
      <trkpt lat="45.34952" lon="6.17639">
        <ele>2094.5</ele>
        <time>2022-07-22T21:57:46.000Z</time>
      </trkpt>
      <trkpt lat="45.34952" lon="6.17642">
        <ele>2097</ele>
        <time>2022-07-22T21:57:56.000Z</time>
      </trkpt>
      <trkpt lat="45.34949" lon="6.17649">
        <ele>2097</ele>
        <time>2022-07-22T21:58:06.000Z</time>
      </trkpt>
      <trkpt lat="45.34951" lon="6.17651">
        <ele>2098.5</ele>
        <time>2022-07-22T21:58:16.000Z</time>
      </trkpt>
      <trkpt lat="45.34957" lon="6.17653">
        <ele>2101.6</ele>
        <time>2022-07-22T21:58:26.000Z</time>
      </trkpt>
      <trkpt lat="45.34961" lon="6.1765">
        <ele>2101.9</ele>
        <time>2022-07-22T21:58:36.000Z</time>
      </trkpt>
      <trkpt lat="45.34967" lon="6.1765">
        <ele>2111</ele>
        <time>2022-07-22T21:58:46.000Z</time>
      </trkpt>
      <trkpt lat="45.34968" lon="6.17647">
        <ele>2103.3</ele>
        <time>2022-07-22T21:58:56.000Z</time>
      </trkpt>
      <trkpt lat="45.34973" lon="6.17645">
        <ele>2104.2</ele>
        <time>2022-07-22T21:59:06.000Z</time>
      </trkpt>
      <trkpt lat="45.34975" lon="6.17645">
        <ele>2105</ele>
        <time>2022-07-22T21:59:16.000Z</time>
      </trkpt>
      <trkpt lat="45.34977" lon="6.17643">
        <ele>2104.8</ele>
        <time>2022-07-22T21:59:26.000Z</time>
      </trkpt>
      <trkpt lat="45.34981" lon="6.17642">
        <ele>2105.9</ele>
        <time>2022-07-22T21:59:36.000Z</time>
      </trkpt>
      <trkpt lat="45.34993" lon="6.17643">
        <ele>2126</ele>
        <time>2022-07-22T21:59:46.000Z</time>
      </trkpt>
      <trkpt lat="45.34997" lon="6.17641">
        <ele>2111.8</ele>
        <time>2022-07-22T21:59:56.000Z</time>
      </trkpt>
      <trkpt lat="45.35003" lon="6.17641">
        <ele>2114.2</ele>
        <time>2022-07-22T22:00:06.000Z</time>
      </trkpt>
      <trkpt lat="45.35007" lon="6.1764">
        <ele>2115.3</ele>
        <time>2022-07-22T22:00:16.000Z</time>
      </trkpt>
      <trkpt lat="45.35008" lon="6.17638">
        <ele>2114.8</ele>
        <time>2022-07-22T22:00:26.000Z</time>
      </trkpt>
      <trkpt lat="45.3501" lon="6.17637">
        <ele>2115.2</ele>
        <time>2022-07-22T22:00:36.000Z</time>
      </trkpt>
      <trkpt lat="45.35015" lon="6.17637">
        <ele>2126</ele>
        <time>2022-07-22T22:00:46.000Z</time>
      </trkpt>
      <trkpt lat="45.35021" lon="6.17638">
        <ele>2120</ele>
        <time>2022-07-22T22:00:56.000Z</time>
      </trkpt>
      <trkpt lat="45.3503" lon="6.17637">
        <ele>2123.1</ele>
        <time>2022-07-22T22:01:06.000Z</time>
      </trkpt>
      <trkpt lat="45.35034" lon="6.17635">
        <ele>2139</ele>
        <time>2022-07-22T22:01:16.000Z</time>
      </trkpt>
      <trkpt lat="45.3504" lon="6.17634">
        <ele>2125.7</ele>
        <time>2022-07-22T22:01:26.000Z</time>
      </trkpt>
      <trkpt lat="45.35042" lon="6.17633">
        <ele>2126.1</ele>
        <time>2022-07-22T22:01:36.000Z</time>
      </trkpt>
      <trkpt lat="45.35046" lon="6.17633">
        <ele>2127.6</ele>
        <time>2022-07-22T22:01:46.000Z</time>
      </trkpt>
      <trkpt lat="45.3505" lon="6.17629">
        <ele>2127.9</ele>
        <time>2022-07-22T22:01:56.000Z</time>
      </trkpt>
      <trkpt lat="45.35061" lon="6.17634">
        <ele>2146</ele>
        <time>2022-07-22T22:02:06.000Z</time>
      </trkpt>
      <trkpt lat="45.35065" lon="6.17634">
        <ele>2136.5</ele>
        <time>2022-07-22T22:02:16.000Z</time>
      </trkpt>
      <trkpt lat="45.35067" lon="6.17633">
        <ele>2137.2</ele>
        <time>2022-07-22T22:02:26.000Z</time>
      </trkpt>
      <trkpt lat="45.35069" lon="6.17633">
        <ele>2138.3</ele>
        <time>2022-07-22T22:02:36.000Z</time>
      </trkpt>
      <trkpt lat="45.35072" lon="6.17636">
        <ele>2140.6</ele>
        <time>2022-07-22T22:02:46.000Z</time>
      </trkpt>
      <trkpt lat="45.35074" lon="6.17636">
        <ele>2141.6</ele>
        <time>2022-07-22T22:02:56.000Z</time>
      </trkpt>
      <trkpt lat="45.35076" lon="6.17639">
        <ele>2143.3</ele>
        <time>2022-07-22T22:03:06.000Z</time>
      </trkpt>
      <trkpt lat="45.35075" lon="6.17642">
        <ele>2159</ele>
        <time>2022-07-22T22:03:16.000Z</time>
      </trkpt>
      <trkpt lat="45.35078" lon="6.17642">
        <ele>2145.5</ele>
        <time>2022-07-22T22:03:26.000Z</time>
      </trkpt>
      <trkpt lat="45.35079" lon="6.17643">
        <ele>2146.3</ele>
        <time>2022-07-22T22:03:36.000Z</time>
      </trkpt>
      <trkpt lat="45.3508" lon="6.17648">
        <ele>2148.7</ele>
        <time>2022-07-22T22:03:46.000Z</time>
      </trkpt>
      <trkpt lat="45.35084" lon="6.17645">
        <ele>2149.6</ele>
        <time>2022-07-22T22:03:56.000Z</time>
      </trkpt>
      <trkpt lat="45.35088" lon="6.17643">
        <ele>2151.3</ele>
        <time>2022-07-22T22:04:06.000Z</time>
      </trkpt>
      <trkpt lat="45.3509" lon="6.17645">
        <ele>2159</ele>
        <time>2022-07-22T22:04:16.000Z</time>
      </trkpt>
      <trkpt lat="45.3509" lon="6.17648">
        <ele>2154.1</ele>
        <time>2022-07-22T22:04:26.000Z</time>
      </trkpt>
      <trkpt lat="45.35094" lon="6.17654">
        <ele>2158.3</ele>
        <time>2022-07-22T22:04:36.000Z</time>
      </trkpt>
      <trkpt lat="45.35096" lon="6.17654">
        <ele>2159.4</ele>
        <time>2022-07-22T22:04:46.000Z</time>
      </trkpt>
      <trkpt lat="45.35102" lon="6.17657">
        <ele>2163.6</ele>
        <time>2022-07-22T22:04:56.000Z</time>
      </trkpt>
      <trkpt lat="45.35103" lon="6.1766">
        <ele>2165</ele>
        <time>2022-07-22T22:05:06.000Z</time>
      </trkpt>
      <trkpt lat="45.35107" lon="6.17663">
        <ele>2182</ele>
        <time>2022-07-22T22:05:16.000Z</time>
      </trkpt>
      <trkpt lat="45.35114" lon="6.17663">
        <ele>2171.9</ele>
        <time>2022-07-22T22:05:26.000Z</time>
      </trkpt>
      <trkpt lat="45.35119" lon="6.17672">
        <ele>2178.4</ele>
        <time>2022-07-22T22:05:36.000Z</time>
      </trkpt>
      <trkpt lat="45.3512" lon="6.17677">
        <ele>2181.3</ele>
        <time>2022-07-22T22:05:46.000Z</time>
      </trkpt>
      <trkpt lat="45.35122" lon="6.17678">
        <ele>2182</ele>
        <time>2022-07-22T22:05:56.000Z</time>
      </trkpt>
      <trkpt lat="45.35131" lon="6.17693">
        <ele>2193.3</ele>
        <time>2022-07-22T22:06:06.000Z</time>
      </trkpt>
      <trkpt lat="45.35134" lon="6.177">
        <ele>2203</ele>
        <time>2022-07-22T22:06:16.000Z</time>
      </trkpt>
      <trkpt lat="45.35133" lon="6.17712">
        <ele>2203.4</ele>
        <time>2022-07-22T22:06:26.000Z</time>
      </trkpt>
      <trkpt lat="45.35134" lon="6.17714">
        <ele>2204.4</ele>
        <time>2022-07-22T22:06:36.000Z</time>
      </trkpt>
      <trkpt lat="45.35136" lon="6.17725">
        <ele>2209.4</ele>
        <time>2022-07-22T22:06:46.000Z</time>
      </trkpt>
      <trkpt lat="45.35135" lon="6.17729">
        <ele>2214</ele>
        <time>2022-07-22T22:06:56.000Z</time>
      </trkpt>
      <trkpt lat="45.3513" lon="6.17736">
        <ele>2214.9</ele>
        <time>2022-07-22T22:07:06.000Z</time>
      </trkpt>
      <trkpt lat="45.3513" lon="6.17742">
        <ele>2217.6</ele>
        <time>2022-07-22T22:07:16.000Z</time>
      </trkpt>
      <trkpt lat="45.35127" lon="6.17746">
        <ele>2219.9</ele>
        <time>2022-07-22T22:07:26.000Z</time>
      </trkpt>
      <trkpt lat="45.35124" lon="6.17746">
        <ele>2220.3</ele>
        <time>2022-07-22T22:07:36.000Z</time>
      </trkpt>
      <trkpt lat="45.3512" lon="6.17742">
        <ele>2220</ele>
        <time>2022-07-22T22:07:46.000Z</time>
      </trkpt>
      <trkpt lat="45.35119" lon="6.17743">
        <ele>2219.5</ele>
        <time>2022-07-22T22:07:56.000Z</time>
      </trkpt>
      <trkpt lat="45.35122" lon="6.17763">
        <ele>2227.7</ele>
        <time>2022-07-22T22:08:06.000Z</time>
      </trkpt>
      <trkpt lat="45.35126" lon="6.17767">
        <ele>2220</ele>
        <time>2022-07-22T22:08:16.000Z</time>
      </trkpt>
      <trkpt lat="45.35126" lon="6.17773">
        <ele>2232</ele>
        <time>2022-07-22T22:08:26.000Z</time>
      </trkpt>
      <trkpt lat="45.35134" lon="6.1778">
        <ele>2235.8</ele>
        <time>2022-07-22T22:08:36.000Z</time>
      </trkpt>
      <trkpt lat="45.35139" lon="6.17783">
        <ele>2237</ele>
        <time>2022-07-22T22:08:46.000Z</time>
      </trkpt>
      <trkpt lat="45.3514" lon="6.17786">
        <ele>2240.2</ele>
        <time>2022-07-22T22:08:56.000Z</time>
      </trkpt>
      <trkpt lat="45.35145" lon="6.17791">
        <ele>2244.5</ele>
        <time>2022-07-22T22:09:06.000Z</time>
      </trkpt>
      <trkpt lat="45.35153" lon="6.17795">
        <ele>2248.6</ele>
        <time>2022-07-22T22:09:16.000Z</time>
      </trkpt>
      <trkpt lat="45.35154" lon="6.17797">
        <ele>2249.5</ele>
        <time>2022-07-22T22:09:26.000Z</time>
      </trkpt>
      <trkpt lat="45.35155" lon="6.17804">
        <ele>2253</ele>
        <time>2022-07-22T22:09:36.000Z</time>
      </trkpt>
      <trkpt lat="45.35154" lon="6.17809">
        <ele>2253.3</ele>
        <time>2022-07-22T22:09:46.000Z</time>
      </trkpt>
      <trkpt lat="45.35155" lon="6.17817">
        <ele>2254.7</ele>
        <time>2022-07-22T22:09:56.000Z</time>
      </trkpt>
      <trkpt lat="45.35154" lon="6.1782">
        <ele>2255.3</ele>
        <time>2022-07-22T22:10:06.000Z</time>
      </trkpt>
      <trkpt lat="45.35158" lon="6.17827">
        <ele>2256</ele>
        <time>2022-07-22T22:10:16.000Z</time>
      </trkpt>
      <trkpt lat="45.3516" lon="6.17828">
        <ele>2264</ele>
        <time>2022-07-22T22:10:26.000Z</time>
      </trkpt>
      <trkpt lat="45.35161" lon="6.17831">
        <ele>2256</ele>
        <time>2022-07-22T22:10:36.000Z</time>
      </trkpt>
      <trkpt lat="45.35165" lon="6.17834">
        <ele>2255.5</ele>
        <time>2022-07-22T22:10:46.000Z</time>
      </trkpt>
      <trkpt lat="45.35166" lon="6.17837">
        <ele>2255.7</ele>
        <time>2022-07-22T22:10:56.000Z</time>
      </trkpt>
      <trkpt lat="45.35166" lon="6.1784">
        <ele>2256.1</ele>
        <time>2022-07-22T22:11:06.000Z</time>
      </trkpt>
      <trkpt lat="45.35167" lon="6.17842">
        <ele>2256.4</ele>
        <time>2022-07-22T22:11:16.000Z</time>
      </trkpt>
      <trkpt lat="45.35169" lon="6.17844">
        <ele>2257.6</ele>
        <time>2022-07-22T22:11:26.000Z</time>
      </trkpt>
      <trkpt lat="45.35162" lon="6.17846">
        <ele>2270</ele>
        <time>2022-07-22T22:11:36.000Z</time>
      </trkpt>
      <trkpt lat="45.3516" lon="6.17848">
        <ele>2258.8</ele>
        <time>2022-07-22T22:11:46.000Z</time>
      </trkpt>
      <trkpt lat="45.35159" lon="6.17855">
        <ele>2260.2</ele>
        <time>2022-07-22T22:11:56.000Z</time>
      </trkpt>
      <trkpt lat="45.35161" lon="6.17869">
        <ele>2262.7</ele>
        <time>2022-07-22T22:12:06.000Z</time>
      </trkpt>
      <trkpt lat="45.35161" lon="6.17872">
        <ele>2274</ele>
        <time>2022-07-22T22:12:16.000Z</time>
      </trkpt>
      <trkpt lat="45.35163" lon="6.17876">
        <ele>2264.2</ele>
        <time>2022-07-22T22:12:26.000Z</time>
      </trkpt>
      <trkpt lat="45.35162" lon="6.17878">
        <ele>2264.9</ele>
        <time>2022-07-22T22:12:36.000Z</time>
      </trkpt>
      <trkpt lat="45.35163" lon="6.17885">
        <ele>2266.8</ele>
        <time>2022-07-22T22:12:46.000Z</time>
      </trkpt>
      <trkpt lat="45.35163" lon="6.1789">
        <ele>2267.9</ele>
        <time>2022-07-22T22:12:56.000Z</time>
      </trkpt>
      <trkpt lat="45.35167" lon="6.17892">
        <ele>2268.2</ele>
        <time>2022-07-22T22:13:06.000Z</time>
      </trkpt>
      <trkpt lat="45.35173" lon="6.17898">
        <ele>2275</ele>
        <time>2022-07-22T22:13:16.000Z</time>
      </trkpt>
      <trkpt lat="45.35173" lon="6.179">
        <ele>2270</ele>
        <time>2022-07-22T22:13:26.000Z</time>
      </trkpt>
      <trkpt lat="45.35171" lon="6.17901">
        <ele>2269.5</ele>
        <time>2022-07-22T22:13:36.000Z</time>
      </trkpt>
      <trkpt lat="45.35169" lon="6.17904">
        <ele>2269.1</ele>
        <time>2022-07-22T22:13:46.000Z</time>
      </trkpt>
      <trkpt lat="45.35173" lon="6.17903">
        <ele>2270.1</ele>
        <time>2022-07-22T22:13:56.000Z</time>
      </trkpt>
      <trkpt lat="45.35179" lon="6.17906">
        <ele>2271.8</ele>
        <time>2022-07-22T22:14:06.000Z</time>
      </trkpt>
      <trkpt lat="45.35184" lon="6.17905">
        <ele>2275</ele>
        <time>2022-07-22T22:14:16.000Z</time>
      </trkpt>
      <trkpt lat="45.35186" lon="6.17906">
        <ele>2273.6</ele>
        <time>2022-07-22T22:14:26.000Z</time>
      </trkpt>
      <trkpt lat="45.35191" lon="6.17911">
        <ele>2275.4</ele>
        <time>2022-07-22T22:14:36.000Z</time>
      </trkpt>
      <trkpt lat="45.35197" lon="6.17921">
        <ele>2277.6</ele>
        <time>2022-07-22T22:14:46.000Z</time>
      </trkpt>
      <trkpt lat="45.35199" lon="6.17922">
        <ele>2280</ele>
        <time>2022-07-22T22:14:56.000Z</time>
      </trkpt>
      <trkpt lat="45.35203" lon="6.17929">
        <ele>2279.5</ele>
        <time>2022-07-22T22:15:06.000Z</time>
      </trkpt>
      <trkpt lat="45.35205" lon="6.17929">
        <ele>2280.6</ele>
        <time>2022-07-22T22:15:16.000Z</time>
      </trkpt>
      <trkpt lat="45.35207" lon="6.17931">
        <ele>2281.4</ele>
        <time>2022-07-22T22:15:26.000Z</time>
      </trkpt>
      <trkpt lat="45.35207" lon="6.17934">
        <ele>2281.1</ele>
        <time>2022-07-22T22:15:36.000Z</time>
      </trkpt>
      <trkpt lat="45.35208" lon="6.17936">
        <ele>2281.4</ele>
        <time>2022-07-22T22:15:46.000Z</time>
      </trkpt>
      <trkpt lat="45.35208" lon="6.17939">
        <ele>2281</ele>
        <time>2022-07-22T22:15:56.000Z</time>
      </trkpt>
      <trkpt lat="45.3521" lon="6.17941">
        <ele>2293</ele>
        <time>2022-07-22T22:16:06.000Z</time>
      </trkpt>
      <trkpt lat="45.35229" lon="6.17947">
        <ele>2293</ele>
        <time>2022-07-22T22:16:16.000Z</time>
      </trkpt>
      <trkpt lat="45.35235" lon="6.17955">
        <ele>2289.6</ele>
        <time>2022-07-22T22:16:26.000Z</time>
      </trkpt>
      <trkpt lat="45.35238" lon="6.17957">
        <ele>2290.1</ele>
        <time>2022-07-22T22:16:36.000Z</time>
      </trkpt>
      <trkpt lat="45.3524" lon="6.17957">
        <ele>2290.8</ele>
        <time>2022-07-22T22:16:46.000Z</time>
      </trkpt>
      <trkpt lat="45.35243" lon="6.17961">
        <ele>2290.8</ele>
        <time>2022-07-22T22:16:56.000Z</time>
      </trkpt>
      <trkpt lat="45.35243" lon="6.17966">
        <ele>2302</ele>
        <time>2022-07-22T22:17:06.000Z</time>
      </trkpt>
      <trkpt lat="45.35247" lon="6.17974">
        <ele>2289.3</ele>
        <time>2022-07-22T22:17:16.000Z</time>
      </trkpt>
      <trkpt lat="45.35249" lon="6.17982">
        <ele>2288.7</ele>
        <time>2022-07-22T22:17:26.000Z</time>
      </trkpt>
      <trkpt lat="45.35255" lon="6.17991">
        <ele>2299</ele>
        <time>2022-07-22T22:17:36.000Z</time>
      </trkpt>
      <trkpt lat="45.35256" lon="6.17997">
        <ele>2290.2</ele>
        <time>2022-07-22T22:17:46.000Z</time>
      </trkpt>
      <trkpt lat="45.35257" lon="6.18">
        <ele>2290.3</ele>
        <time>2022-07-22T22:17:56.000Z</time>
      </trkpt>
      <trkpt lat="45.35257" lon="6.18003">
        <ele>2289.9</ele>
        <time>2022-07-22T22:18:06.000Z</time>
      </trkpt>
      <trkpt lat="45.3526" lon="6.18012">
        <ele>2290.7</ele>
        <time>2022-07-22T22:18:16.000Z</time>
      </trkpt>
      <trkpt lat="45.3526" lon="6.1802">
        <ele>2296</ele>
        <time>2022-07-22T22:18:26.000Z</time>
      </trkpt>
      <trkpt lat="45.35261" lon="6.18026">
        <ele>2289.9</ele>
        <time>2022-07-22T22:18:36.000Z</time>
      </trkpt>
      <trkpt lat="45.35261" lon="6.18029">
        <ele>2289.7</ele>
        <time>2022-07-22T22:18:46.000Z</time>
      </trkpt>
      <trkpt lat="45.35263" lon="6.18033">
        <ele>2291.5</ele>
        <time>2022-07-22T22:18:56.000Z</time>
      </trkpt>
      <trkpt lat="45.35262" lon="6.18035">
        <ele>2290.7</ele>
        <time>2022-07-22T22:19:06.000Z</time>
      </trkpt>
      <trkpt lat="45.35263" lon="6.18038">
        <ele>2291.6</ele>
        <time>2022-07-22T22:19:16.000Z</time>
      </trkpt>
      <trkpt lat="45.35262" lon="6.18044">
        <ele>2290.9</ele>
        <time>2022-07-22T22:19:26.000Z</time>
      </trkpt>
      <trkpt lat="45.35261" lon="6.18047">
        <ele>2296</ele>
        <time>2022-07-22T22:19:36.000Z</time>
      </trkpt>
      <trkpt lat="45.35262" lon="6.18052">
        <ele>2291.1</ele>
        <time>2022-07-22T22:19:46.000Z</time>
      </trkpt>
      <trkpt lat="45.35263" lon="6.18064">
        <ele>2291.8</ele>
        <time>2022-07-22T22:19:56.000Z</time>
      </trkpt>
      <trkpt lat="45.35263" lon="6.1807">
        <ele>2291.5</ele>
        <time>2022-07-22T22:20:06.000Z</time>
      </trkpt>
      <trkpt lat="45.35264" lon="6.18073">
        <ele>2292.1</ele>
        <time>2022-07-22T22:20:16.000Z</time>
      </trkpt>
      <trkpt lat="45.35264" lon="6.18076">
        <ele>2304</ele>
        <time>2022-07-22T22:20:26.000Z</time>
      </trkpt>
      <trkpt lat="45.35268" lon="6.18082">
        <ele>2294.7</ele>
        <time>2022-07-22T22:20:36.000Z</time>
      </trkpt>
      <trkpt lat="45.35269" lon="6.18088">
        <ele>2295.4</ele>
        <time>2022-07-22T22:20:46.000Z</time>
      </trkpt>
      <trkpt lat="45.35272" lon="6.18097">
        <ele>2297.4</ele>
        <time>2022-07-22T22:20:56.000Z</time>
      </trkpt>
      <trkpt lat="45.35273" lon="6.18106">
        <ele>2312</ele>
        <time>2022-07-22T22:21:06.000Z</time>
      </trkpt>
      <trkpt lat="45.35276" lon="6.18113">
        <ele>2299</ele>
        <time>2022-07-22T22:21:16.000Z</time>
      </trkpt>
      <trkpt lat="45.35278" lon="6.18122">
        <ele>2298.9</ele>
        <time>2022-07-22T22:21:26.000Z</time>
      </trkpt>
      <trkpt lat="45.35282" lon="6.18134">
        <ele>2320</ele>
        <time>2022-07-22T22:21:36.000Z</time>
      </trkpt>
      <trkpt lat="45.35284" lon="6.18146">
        <ele>2300.3</ele>
        <time>2022-07-22T22:21:46.000Z</time>
      </trkpt>
      <trkpt lat="45.3529" lon="6.18153">
        <ele>2302.5</ele>
        <time>2022-07-22T22:21:56.000Z</time>
      </trkpt>
      <trkpt lat="45.35294" lon="6.18156">
        <ele>2320</ele>
        <time>2022-07-22T22:22:06.000Z</time>
      </trkpt>
      <trkpt lat="45.35296" lon="6.1816">
        <ele>2303.7</ele>
        <time>2022-07-22T22:22:16.000Z</time>
      </trkpt>
      <trkpt lat="45.353" lon="6.18163">
        <ele>2304</ele>
        <time>2022-07-22T22:22:26.000Z</time>
      </trkpt>
      <trkpt lat="45.35302" lon="6.18166">
        <ele>2304</ele>
        <time>2022-07-22T22:22:36.000Z</time>
      </trkpt>
      <trkpt lat="45.35304" lon="6.18167">
        <ele>2304</ele>
        <time>2022-07-22T22:22:46.000Z</time>
      </trkpt>
      <trkpt lat="45.35305" lon="6.1817">
        <ele>2304.4</ele>
        <time>2022-07-22T22:22:56.000Z</time>
      </trkpt>
      <trkpt lat="45.35312" lon="6.18175">
        <ele>2329</ele>
        <time>2022-07-22T22:23:06.000Z</time>
      </trkpt>
      <trkpt lat="45.35315" lon="6.1818">
        <ele>2309.4</ele>
        <time>2022-07-22T22:23:16.000Z</time>
      </trkpt>
      <trkpt lat="45.35317" lon="6.18185">
        <ele>2310.4</ele>
        <time>2022-07-22T22:23:26.000Z</time>
      </trkpt>
      <trkpt lat="45.35322" lon="6.18191">
        <ele>2312.3</ele>
        <time>2022-07-22T22:23:36.000Z</time>
      </trkpt>
      <trkpt lat="45.35326" lon="6.18193">
        <ele>2336</ele>
        <time>2022-07-22T22:23:46.000Z</time>
      </trkpt>
      <trkpt lat="45.35327" lon="6.18196">
        <ele>2314.3</ele>
        <time>2022-07-22T22:23:56.000Z</time>
      </trkpt>
      <trkpt lat="45.35328" lon="6.18202">
        <ele>2316.1</ele>
        <time>2022-07-22T22:24:06.000Z</time>
      </trkpt>
      <trkpt lat="45.35332" lon="6.18204">
        <ele>2317.7</ele>
        <time>2022-07-22T22:24:16.000Z</time>
      </trkpt>
      <trkpt lat="45.35336" lon="6.1821">
        <ele>2320.8</ele>
        <time>2022-07-22T22:24:26.000Z</time>
      </trkpt>
      <trkpt lat="45.3534" lon="6.18212">
        <ele>2341</ele>
        <time>2022-07-22T22:24:36.000Z</time>
      </trkpt>
      <trkpt lat="45.3534" lon="6.18215">
        <ele>2323.6</ele>
        <time>2022-07-22T22:24:46.000Z</time>
      </trkpt>
      <trkpt lat="45.35348" lon="6.1822">
        <ele>2327.7</ele>
        <time>2022-07-22T22:24:56.000Z</time>
      </trkpt>
      <trkpt lat="45.3535" lon="6.18224">
        <ele>2329</ele>
        <time>2022-07-22T22:25:06.000Z</time>
      </trkpt>
      <trkpt lat="45.35352" lon="6.18226">
        <ele>2330.2</ele>
        <time>2022-07-22T22:25:16.000Z</time>
      </trkpt>
      <trkpt lat="45.35355" lon="6.18229">
        <ele>2345</ele>
        <time>2022-07-22T22:25:26.000Z</time>
      </trkpt>
      <trkpt lat="45.35358" lon="6.1823">
        <ele>2332.9</ele>
        <time>2022-07-22T22:25:36.000Z</time>
      </trkpt>
      <trkpt lat="45.35358" lon="6.18233">
        <ele>2333.3</ele>
        <time>2022-07-22T22:25:46.000Z</time>
      </trkpt>
      <trkpt lat="45.35362" lon="6.18239">
        <ele>2335.2</ele>
        <time>2022-07-22T22:25:56.000Z</time>
      </trkpt>
      <trkpt lat="45.35366" lon="6.18241">
        <ele>2337.1</ele>
        <time>2022-07-22T22:26:06.000Z</time>
      </trkpt>
      <trkpt lat="45.35368" lon="6.18239">
        <ele>2337.8</ele>
        <time>2022-07-22T22:26:16.000Z</time>
      </trkpt>
      <trkpt lat="45.3537" lon="6.18239">
        <ele>2345</ele>
        <time>2022-07-22T22:26:26.000Z</time>
      </trkpt>
      <trkpt lat="45.35373" lon="6.18242">
        <ele>2340</ele>
        <time>2022-07-22T22:26:36.000Z</time>
      </trkpt>
      <trkpt lat="45.35375" lon="6.18242">
        <ele>2340.8</ele>
        <time>2022-07-22T22:26:46.000Z</time>
      </trkpt>
      <trkpt lat="45.35381" lon="6.18251">
        <ele>2342.7</ele>
        <time>2022-07-22T22:26:56.000Z</time>
      </trkpt>
      <trkpt lat="45.35386" lon="6.18254">
        <ele>2359</ele>
        <time>2022-07-22T22:27:06.000Z</time>
      </trkpt>
      <trkpt lat="45.35388" lon="6.18256">
        <ele>2345.8</ele>
        <time>2022-07-22T22:27:16.000Z</time>
      </trkpt>
      <trkpt lat="45.35388" lon="6.18259">
        <ele>2346.4</ele>
        <time>2022-07-22T22:27:26.000Z</time>
      </trkpt>
      <trkpt lat="45.3539" lon="6.18258">
        <ele>2347.2</ele>
        <time>2022-07-22T22:27:36.000Z</time>
      </trkpt>
      <trkpt lat="45.35392" lon="6.18263">
        <ele>2349.3</ele>
        <time>2022-07-22T22:27:46.000Z</time>
      </trkpt>
      <trkpt lat="45.35394" lon="6.18265">
        <ele>2350.8</ele>
        <time>2022-07-22T22:27:56.000Z</time>
      </trkpt>
      <trkpt lat="45.35395" lon="6.18268">
        <ele>2351.7</ele>
        <time>2022-07-22T22:28:06.000Z</time>
      </trkpt>
      <trkpt lat="45.35398" lon="6.18267">
        <ele>2353.3</ele>
        <time>2022-07-22T22:28:16.000Z</time>
      </trkpt>
      <trkpt lat="45.35399" lon="6.18266">
        <ele>2359</ele>
        <time>2022-07-22T22:28:26.000Z</time>
      </trkpt>
      <trkpt lat="45.354" lon="6.18268">
        <ele>2354.6</ele>
        <time>2022-07-22T22:28:36.000Z</time>
      </trkpt>
      <trkpt lat="45.354" lon="6.18271">
        <ele>2354.8</ele>
        <time>2022-07-22T22:28:46.000Z</time>
      </trkpt>
      <trkpt lat="45.35403" lon="6.18278">
        <ele>2356.6</ele>
        <time>2022-07-22T22:28:56.000Z</time>
      </trkpt>
      <trkpt lat="45.35405" lon="6.1828">
        <ele>2357.9</ele>
        <time>2022-07-22T22:29:06.000Z</time>
      </trkpt>
      <trkpt lat="45.35408" lon="6.18279">
        <ele>2359.1</ele>
        <time>2022-07-22T22:29:16.000Z</time>
      </trkpt>
      <trkpt lat="45.35416" lon="6.18291">
        <ele>2385</ele>
        <time>2022-07-22T22:29:26.000Z</time>
      </trkpt>
      <trkpt lat="45.35416" lon="6.18298">
        <ele>2363.5</ele>
        <time>2022-07-22T22:29:36.000Z</time>
      </trkpt>
      <trkpt lat="45.35417" lon="6.18302">
        <ele>2364.1</ele>
        <time>2022-07-22T22:29:46.000Z</time>
      </trkpt>
      <trkpt lat="45.35416" lon="6.18305">
        <ele>2363.8</ele>
        <time>2022-07-22T22:29:56.000Z</time>
      </trkpt>
      <trkpt lat="45.35416" lon="6.18308">
        <ele>2364.6</ele>
        <time>2022-07-22T22:30:06.000Z</time>
      </trkpt>
      <trkpt lat="45.35417" lon="6.18309">
        <ele>2365.2</ele>
        <time>2022-07-22T22:30:16.000Z</time>
      </trkpt>
      <trkpt lat="45.35417" lon="6.18314">
        <ele>2366.6</ele>
        <time>2022-07-22T22:30:26.000Z</time>
      </trkpt>
      <trkpt lat="45.35421" lon="6.18317">
        <ele>2387</ele>
        <time>2022-07-22T22:30:36.000Z</time>
      </trkpt>
      <trkpt lat="45.35422" lon="6.1832">
        <ele>2370.8</ele>
        <time>2022-07-22T22:30:46.000Z</time>
      </trkpt>
      <trkpt lat="45.35424" lon="6.18322">
        <ele>2372.2</ele>
        <time>2022-07-22T22:30:56.000Z</time>
      </trkpt>
      <trkpt lat="45.35426" lon="6.18322">
        <ele>2373.2</ele>
        <time>2022-07-22T22:31:06.000Z</time>
      </trkpt>
      <trkpt lat="45.3543" lon="6.18331">
        <ele>2376.5</ele>
        <time>2022-07-22T22:31:16.000Z</time>
      </trkpt>
      <trkpt lat="45.35435" lon="6.18333">
        <ele>2389</ele>
        <time>2022-07-22T22:31:26.000Z</time>
      </trkpt>
      <trkpt lat="45.35436" lon="6.18336">
        <ele>2379.8</ele>
        <time>2022-07-22T22:31:36.000Z</time>
      </trkpt>
      <trkpt lat="45.3544" lon="6.18336">
        <ele>2381.1</ele>
        <time>2022-07-22T22:31:46.000Z</time>
      </trkpt>
      <trkpt lat="45.3544" lon="6.1834">
        <ele>2382.3</ele>
        <time>2022-07-22T22:31:56.000Z</time>
      </trkpt>
      <trkpt lat="45.35443" lon="6.18345">
        <ele>2384.5</ele>
        <time>2022-07-22T22:32:06.000Z</time>
      </trkpt>
      <trkpt lat="45.35442" lon="6.18347">
        <ele>2384.8</ele>
        <time>2022-07-22T22:32:16.000Z</time>
      </trkpt>
      <trkpt lat="45.35446" lon="6.18354">
        <ele>2417</ele>
        <time>2022-07-22T22:32:26.000Z</time>
      </trkpt>
      <trkpt lat="45.35446" lon="6.18359">
        <ele>2389.3</ele>
        <time>2022-07-22T22:32:36.000Z</time>
      </trkpt>
      <trkpt lat="45.35447" lon="6.18365">
        <ele>2391.5</ele>
        <time>2022-07-22T22:32:46.000Z</time>
      </trkpt>
      <trkpt lat="45.35447" lon="6.18368">
        <ele>2392.5</ele>
        <time>2022-07-22T22:32:56.000Z</time>
      </trkpt>
      <trkpt lat="45.35453" lon="6.1837">
        <ele>2396</ele>
        <time>2022-07-22T22:33:06.000Z</time>
      </trkpt>
      <trkpt lat="45.35456" lon="6.18374">
        <ele>2417</ele>
        <time>2022-07-22T22:33:16.000Z</time>
      </trkpt>
      <trkpt lat="45.35456" lon="6.18377">
        <ele>2399.5</ele>
        <time>2022-07-22T22:33:26.000Z</time>
      </trkpt>
      <trkpt lat="45.3546" lon="6.18378">
        <ele>2401.6</ele>
        <time>2022-07-22T22:33:36.000Z</time>
      </trkpt>
      <trkpt lat="45.35462" lon="6.18377">
        <ele>2402.3</ele>
        <time>2022-07-22T22:33:46.000Z</time>
      </trkpt>
      <trkpt lat="45.35466" lon="6.18377">
        <ele>2404.1</ele>
        <time>2022-07-22T22:33:56.000Z</time>
      </trkpt>
      <trkpt lat="45.35471" lon="6.1838">
        <ele>2407.2</ele>
        <time>2022-07-22T22:34:06.000Z</time>
      </trkpt>
      <trkpt lat="45.35478" lon="6.18382">
        <ele>2436</ele>
        <time>2022-07-22T22:34:16.000Z</time>
      </trkpt>
      <trkpt lat="45.35485" lon="6.18387">
        <ele>2417.9</ele>
        <time>2022-07-22T22:34:26.000Z</time>
      </trkpt>
      <trkpt lat="45.35487" lon="6.18386">
        <ele>2419.1</ele>
        <time>2022-07-22T22:34:36.000Z</time>
      </trkpt>
      <trkpt lat="45.35489" lon="6.18387">
        <ele>2420.6</ele>
        <time>2022-07-22T22:34:46.000Z</time>
      </trkpt>
      <trkpt lat="45.35492" lon="6.1839">
        <ele>2423.2</ele>
        <time>2022-07-22T22:34:56.000Z</time>
      </trkpt>
      <trkpt lat="45.35493" lon="6.18393">
        <ele>2425</ele>
        <time>2022-07-22T22:35:06.000Z</time>
      </trkpt>
      <trkpt lat="45.35496" lon="6.18397">
        <ele>2461</ele>
        <time>2022-07-22T22:35:16.000Z</time>
      </trkpt>
      <trkpt lat="45.35505" lon="6.18392">
        <ele>2433</ele>
        <time>2022-07-22T22:35:26.000Z</time>
      </trkpt>
      <trkpt lat="45.35523" lon="6.1839">
        <ele>2481</ele>
        <time>2022-07-22T22:35:36.000Z</time>
      </trkpt>
      <trkpt lat="45.35527" lon="6.18389">
        <ele>2449.4</ele>
        <time>2022-07-22T22:35:46.000Z</time>
      </trkpt>
      <trkpt lat="45.35531" lon="6.18398">
        <ele>2454.4</ele>
        <time>2022-07-22T22:35:56.000Z</time>
      </trkpt>
      <trkpt lat="45.35539" lon="6.18426">
        <ele>2482</ele>
        <time>2022-07-22T22:36:06.000Z</time>
      </trkpt>
      <trkpt lat="45.35539" lon="6.18443">
        <ele>2471.7</ele>
        <time>2022-07-22T22:36:16.000Z</time>
      </trkpt>
      <trkpt lat="45.35549" lon="6.18476">
        <ele>2489</ele>
        <time>2022-07-22T22:36:26.000Z</time>
      </trkpt>
      <trkpt lat="45.35582" lon="6.1851">
        <ele>2486</ele>
        <time>2022-07-22T22:36:36.000Z</time>
      </trkpt>
      <trkpt lat="45.3561" lon="6.18548">
        <ele>2484</ele>
        <time>2022-07-22T22:36:46.000Z</time>
      </trkpt>
      <trkpt lat="45.35643" lon="6.18549">
        <ele>2478</ele>
        <time>2022-07-22T22:36:56.000Z</time>
      </trkpt>
      <trkpt lat="45.35654" lon="6.18574">
        <ele>2477</ele>
        <time>2022-07-22T22:37:06.000Z</time>
      </trkpt>
      <trkpt lat="45.3569" lon="6.18568">
        <ele>2477</ele>
        <time>2022-07-22T22:37:16.000Z</time>
      </trkpt>
      <trkpt lat="45.3569" lon="6.18558">
        <ele>2421.8</ele>
        <time>2022-07-22T22:37:26.000Z</time>
      </trkpt>
      <trkpt lat="45.35713" lon="6.1855">
        <ele>2465</ele>
        <time>2022-07-22T22:37:36.000Z</time>
      </trkpt>
      <trkpt lat="45.35726" lon="6.18566">
        <ele>2404.3</ele>
        <time>2022-07-22T22:37:46.000Z</time>
      </trkpt>
      <trkpt lat="45.35752" lon="6.18557">
        <ele>2432</ele>
        <time>2022-07-22T22:37:56.000Z</time>
      </trkpt>
      <trkpt lat="45.35762" lon="6.18543">
        <ele>2372.4</ele>
        <time>2022-07-22T22:38:06.000Z</time>
      </trkpt>
      <trkpt lat="45.35778" lon="6.18539">
        <ele>2396</ele>
        <time>2022-07-22T22:38:16.000Z</time>
      </trkpt>
      <trkpt lat="45.35798" lon="6.18521">
        <ele>2396</ele>
        <time>2022-07-22T22:38:26.000Z</time>
      </trkpt>
      <trkpt lat="45.35809" lon="6.18491">
        <ele>2382</ele>
        <time>2022-07-22T22:38:36.000Z</time>
      </trkpt>
      <trkpt lat="45.35845" lon="6.18496">
        <ele>2352</ele>
        <time>2022-07-22T22:38:46.000Z</time>
      </trkpt>
      <trkpt lat="45.35855" lon="6.18489">
        <ele>2294.2</ele>
        <time>2022-07-22T22:38:56.000Z</time>
      </trkpt>
      <trkpt lat="45.35864" lon="6.18499">
        <ele>2302</ele>
        <time>2022-07-22T22:39:06.000Z</time>
      </trkpt>
      <trkpt lat="45.35882" lon="6.18488">
        <ele>2269</ele>
        <time>2022-07-22T22:39:16.000Z</time>
      </trkpt>
      <trkpt lat="45.35897" lon="6.18471">
        <ele>2269</ele>
        <time>2022-07-22T22:39:26.000Z</time>
      </trkpt>
      <trkpt lat="45.35916" lon="6.18459">
        <ele>2242</ele>
        <time>2022-07-22T22:39:36.000Z</time>
      </trkpt>
      <trkpt lat="45.35914" lon="6.18424">
        <ele>2242</ele>
        <time>2022-07-22T22:39:46.000Z</time>
      </trkpt>
      <trkpt lat="45.35932" lon="6.18429">
        <ele>2227.9</ele>
        <time>2022-07-22T22:39:56.000Z</time>
      </trkpt>
      <trkpt lat="45.35936" lon="6.18414">
        <ele>2242</ele>
        <time>2022-07-22T22:40:06.000Z</time>
      </trkpt>
      <trkpt lat="45.35947" lon="6.18406">
        <ele>2212.3</ele>
        <time>2022-07-22T22:40:16.000Z</time>
      </trkpt>
      <trkpt lat="45.35963" lon="6.18373">
        <ele>2200</ele>
        <time>2022-07-22T22:40:26.000Z</time>
      </trkpt>
      <trkpt lat="45.35985" lon="6.18345">
        <ele>2190</ele>
        <time>2022-07-22T22:40:36.000Z</time>
      </trkpt>
      <trkpt lat="45.35997" lon="6.18323">
        <ele>2179</ele>
        <time>2022-07-22T22:40:46.000Z</time>
      </trkpt>
      <trkpt lat="45.36028" lon="6.18307">
        <ele>2157</ele>
        <time>2022-07-22T22:40:56.000Z</time>
      </trkpt>
      <trkpt lat="45.36053" lon="6.18307">
        <ele>2141</ele>
        <time>2022-07-22T22:41:06.000Z</time>
      </trkpt>
      <trkpt lat="45.36079" lon="6.18295">
        <ele>2134</ele>
        <time>2022-07-22T22:41:16.000Z</time>
      </trkpt>
      <trkpt lat="45.36113" lon="6.18301">
        <ele>2129</ele>
        <time>2022-07-22T22:41:26.000Z</time>
      </trkpt>
      <trkpt lat="45.36151" lon="6.18295">
        <ele>2124</ele>
        <time>2022-07-22T22:41:36.000Z</time>
      </trkpt>
      <trkpt lat="45.36188" lon="6.18309">
        <ele>2108</ele>
        <time>2022-07-22T22:41:46.000Z</time>
      </trkpt>
      <trkpt lat="45.36214" lon="6.1832">
        <ele>2104</ele>
        <time>2022-07-22T22:41:56.000Z</time>
      </trkpt>
      <trkpt lat="45.36249" lon="6.1835">
        <ele>2100</ele>
        <time>2022-07-22T22:42:06.000Z</time>
      </trkpt>
      <trkpt lat="45.36257" lon="6.18381">
        <ele>2095</ele>
        <time>2022-07-22T22:42:16.000Z</time>
      </trkpt>
      <trkpt lat="45.36269" lon="6.18385">
        <ele>2064.5</ele>
        <time>2022-07-22T22:42:26.000Z</time>
      </trkpt>
      <trkpt lat="45.36288" lon="6.18381">
        <ele>2091</ele>
        <time>2022-07-22T22:42:36.000Z</time>
      </trkpt>
      <trkpt lat="45.36288" lon="6.18412">
        <ele>2091</ele>
        <time>2022-07-22T22:42:46.000Z</time>
      </trkpt>
      <trkpt lat="45.36305" lon="6.18449">
        <ele>2084</ele>
        <time>2022-07-22T22:42:56.000Z</time>
      </trkpt>
      <trkpt lat="45.36319" lon="6.18481">
        <ele>2072</ele>
        <time>2022-07-22T22:43:06.000Z</time>
      </trkpt>
      <trkpt lat="45.36338" lon="6.18521">
        <ele>2072</ele>
        <time>2022-07-22T22:43:16.000Z</time>
      </trkpt>
      <trkpt lat="45.36355" lon="6.1855">
        <ele>2072</ele>
        <time>2022-07-22T22:43:26.000Z</time>
      </trkpt>
      <trkpt lat="45.36377" lon="6.18588">
        <ele>2072</ele>
        <time>2022-07-22T22:43:36.000Z</time>
      </trkpt>
      <trkpt lat="45.36393" lon="6.18617">
        <ele>2068</ele>
        <time>2022-07-22T22:43:46.000Z</time>
      </trkpt>
      <trkpt lat="45.36408" lon="6.18647">
        <ele>2065</ele>
        <time>2022-07-22T22:43:56.000Z</time>
      </trkpt>
      <trkpt lat="45.36431" lon="6.18663">
        <ele>2064</ele>
        <time>2022-07-22T22:44:06.000Z</time>
      </trkpt>
      <trkpt lat="45.36458" lon="6.18682">
        <ele>2064</ele>
        <time>2022-07-22T22:44:16.000Z</time>
      </trkpt>
      <trkpt lat="45.36479" lon="6.18698">
        <ele>2064</ele>
        <time>2022-07-22T22:44:26.000Z</time>
      </trkpt>
      <trkpt lat="45.365" lon="6.18715">
        <ele>2062</ele>
        <time>2022-07-22T22:44:36.000Z</time>
      </trkpt>
      <trkpt lat="45.36515" lon="6.1877">
        <ele>2061</ele>
        <time>2022-07-22T22:44:46.000Z</time>
      </trkpt>
      <trkpt lat="45.36547" lon="6.18789">
        <ele>2054</ele>
        <time>2022-07-22T22:44:56.000Z</time>
      </trkpt>
      <trkpt lat="45.36568" lon="6.18834">
        <ele>2044</ele>
        <time>2022-07-22T22:45:06.000Z</time>
      </trkpt>
      <trkpt lat="45.36585" lon="6.18861">
        <ele>2034</ele>
        <time>2022-07-22T22:45:16.000Z</time>
      </trkpt>
      <trkpt lat="45.36591" lon="6.18906">
        <ele>2027</ele>
        <time>2022-07-22T22:45:26.000Z</time>
      </trkpt>
      <trkpt lat="45.36618" lon="6.1892">
        <ele>2013</ele>
        <time>2022-07-22T22:45:36.000Z</time>
      </trkpt>
      <trkpt lat="45.36641" lon="6.18933">
        <ele>2013</ele>
        <time>2022-07-22T22:45:46.000Z</time>
      </trkpt>
      <trkpt lat="45.36661" lon="6.18986">
        <ele>2000</ele>
        <time>2022-07-22T22:45:56.000Z</time>
      </trkpt>
      <trkpt lat="45.36667" lon="6.1902">
        <ele>1992</ele>
        <time>2022-07-22T22:46:06.000Z</time>
      </trkpt>
      <trkpt lat="45.36673" lon="6.19057">
        <ele>1989</ele>
        <time>2022-07-22T22:46:16.000Z</time>
      </trkpt>
      <trkpt lat="45.36682" lon="6.191">
        <ele>1986</ele>
        <time>2022-07-22T22:46:26.000Z</time>
      </trkpt>
      <trkpt lat="45.36713" lon="6.19139">
        <ele>1974</ele>
        <time>2022-07-22T22:46:36.000Z</time>
      </trkpt>
      <trkpt lat="45.36732" lon="6.19177">
        <ele>1964</ele>
        <time>2022-07-22T22:46:46.000Z</time>
      </trkpt>
      <trkpt lat="45.36761" lon="6.19179">
        <ele>1960</ele>
        <time>2022-07-22T22:46:56.000Z</time>
      </trkpt>
      <trkpt lat="45.36805" lon="6.19182">
        <ele>1949</ele>
        <time>2022-07-22T22:47:06.000Z</time>
      </trkpt>
      <trkpt lat="45.36833" lon="6.19173">
        <ele>1939</ele>
        <time>2022-07-22T22:47:16.000Z</time>
      </trkpt>
      <trkpt lat="45.36859" lon="6.19185">
        <ele>1930</ele>
        <time>2022-07-22T22:47:26.000Z</time>
      </trkpt>
      <trkpt lat="45.36897" lon="6.19203">
        <ele>1915</ele>
        <time>2022-07-22T22:47:36.000Z</time>
      </trkpt>
      <trkpt lat="45.36922" lon="6.19213">
        <ele>1901</ele>
        <time>2022-07-22T22:47:46.000Z</time>
      </trkpt>
      <trkpt lat="45.36952" lon="6.19226">
        <ele>1899</ele>
        <time>2022-07-22T22:47:56.000Z</time>
      </trkpt>
      <trkpt lat="45.36973" lon="6.1925">
        <ele>1898</ele>
        <time>2022-07-22T22:48:06.000Z</time>
      </trkpt>
      <trkpt lat="45.37004" lon="6.19258">
        <ele>1891</ele>
        <time>2022-07-22T22:48:16.000Z</time>
      </trkpt>
      <trkpt lat="45.37026" lon="6.1927">
        <ele>1890</ele>
        <time>2022-07-22T22:48:26.000Z</time>
      </trkpt>
      <trkpt lat="45.37049" lon="6.19283">
        <ele>1890</ele>
        <time>2022-07-22T22:48:36.000Z</time>
      </trkpt>
      <trkpt lat="45.3708" lon="6.19274">
        <ele>1883</ele>
        <time>2022-07-22T22:48:46.000Z</time>
      </trkpt>
      <trkpt lat="45.37105" lon="6.19297">
        <ele>1885</ele>
        <time>2022-07-22T22:48:56.000Z</time>
      </trkpt>
      <trkpt lat="45.37127" lon="6.19316">
        <ele>1888</ele>
        <time>2022-07-22T22:49:06.000Z</time>
      </trkpt>
      <trkpt lat="45.37149" lon="6.19337">
        <ele>1888</ele>
        <time>2022-07-22T22:49:16.000Z</time>
      </trkpt>
      <trkpt lat="45.37159" lon="6.19344">
        <ele>1893.7</ele>
        <time>2022-07-22T22:49:26.000Z</time>
      </trkpt>
      <trkpt lat="45.37193" lon="6.19379">
        <ele>1888</ele>
        <time>2022-07-22T22:49:36.000Z</time>
      </trkpt>
      <trkpt lat="45.372" lon="6.19393">
        <ele>1904.3</ele>
        <time>2022-07-22T22:49:46.000Z</time>
      </trkpt>
      <trkpt lat="45.37198" lon="6.19411">
        <ele>1898</ele>
        <time>2022-07-22T22:49:56.000Z</time>
      </trkpt>
      <trkpt lat="45.37222" lon="6.19423">
        <ele>1899</ele>
        <time>2022-07-22T22:50:06.000Z</time>
      </trkpt>
      <trkpt lat="45.37249" lon="6.19439">
        <ele>1898</ele>
        <time>2022-07-22T22:50:16.000Z</time>
      </trkpt>
      <trkpt lat="45.3728" lon="6.19443">
        <ele>1898</ele>
        <time>2022-07-22T22:50:26.000Z</time>
      </trkpt>
      <trkpt lat="45.3731" lon="6.19465">
        <ele>1893</ele>
        <time>2022-07-22T22:50:36.000Z</time>
      </trkpt>
      <trkpt lat="45.37333" lon="6.19481">
        <ele>1893</ele>
        <time>2022-07-22T22:50:46.000Z</time>
      </trkpt>
      <trkpt lat="45.37362" lon="6.19501">
        <ele>1893</ele>
        <time>2022-07-22T22:50:56.000Z</time>
      </trkpt>
      <trkpt lat="45.37385" lon="6.19518">
        <ele>1897</ele>
        <time>2022-07-22T22:51:06.000Z</time>
      </trkpt>
      <trkpt lat="45.37406" lon="6.19532">
        <ele>1895</ele>
        <time>2022-07-22T22:51:16.000Z</time>
      </trkpt>
      <trkpt lat="45.37429" lon="6.19502">
        <ele>1893</ele>
        <time>2022-07-22T22:51:26.000Z</time>
      </trkpt>
      <trkpt lat="45.37451" lon="6.19488">
        <ele>1884</ele>
        <time>2022-07-22T22:51:36.000Z</time>
      </trkpt>
      <trkpt lat="45.37473" lon="6.19475">
        <ele>1876</ele>
        <time>2022-07-22T22:51:46.000Z</time>
      </trkpt>
      <trkpt lat="45.37501" lon="6.19465">
        <ele>1874</ele>
        <time>2022-07-22T22:51:56.000Z</time>
      </trkpt>
      <trkpt lat="45.3752" lon="6.1946">
        <ele>1854</ele>
        <time>2022-07-22T22:52:06.000Z</time>
      </trkpt>
      <trkpt lat="45.37557" lon="6.19458">
        <ele>1859</ele>
        <time>2022-07-22T22:52:16.000Z</time>
      </trkpt>
      <trkpt lat="45.37584" lon="6.19476">
        <ele>1859</ele>
        <time>2022-07-22T22:52:26.000Z</time>
      </trkpt>
      <trkpt lat="45.37608" lon="6.19487">
        <ele>1859</ele>
        <time>2022-07-22T22:52:36.000Z</time>
      </trkpt>
      <trkpt lat="45.37638" lon="6.19482">
        <ele>1860</ele>
        <time>2022-07-22T22:52:46.000Z</time>
      </trkpt>
      <trkpt lat="45.37692" lon="6.19473">
        <ele>1884</ele>
        <time>2022-07-22T22:52:56.000Z</time>
      </trkpt>
      <trkpt lat="45.37718" lon="6.19468">
        <ele>1896</ele>
        <time>2022-07-22T22:53:06.000Z</time>
      </trkpt>
      <trkpt lat="45.3775" lon="6.19462">
        <ele>1899</ele>
        <time>2022-07-22T22:53:16.000Z</time>
      </trkpt>
      <trkpt lat="45.37784" lon="6.19481">
        <ele>1904</ele>
        <time>2022-07-22T22:53:26.000Z</time>
      </trkpt>
      <trkpt lat="45.37805" lon="6.19502">
        <ele>1921</ele>
        <time>2022-07-22T22:53:36.000Z</time>
      </trkpt>
      <trkpt lat="45.37831" lon="6.19527">
        <ele>1930</ele>
        <time>2022-07-22T22:53:46.000Z</time>
      </trkpt>
      <trkpt lat="45.37841" lon="6.19538">
        <ele>1941.2</ele>
        <time>2022-07-22T22:53:56.000Z</time>
      </trkpt>
      <trkpt lat="45.37855" lon="6.19555">
        <ele>1947</ele>
        <time>2022-07-22T22:54:06.000Z</time>
      </trkpt>
      <trkpt lat="45.37859" lon="6.19561">
        <ele>1950.7</ele>
        <time>2022-07-22T22:54:16.000Z</time>
      </trkpt>
      <trkpt lat="45.37879" lon="6.19564">
        <ele>1947</ele>
        <time>2022-07-22T22:54:26.000Z</time>
      </trkpt>
      <trkpt lat="45.37894" lon="6.19564">
        <ele>1958.3</ele>
        <time>2022-07-22T22:54:36.000Z</time>
      </trkpt>
      <trkpt lat="45.37931" lon="6.19599">
        <ele>1964</ele>
        <time>2022-07-22T22:54:46.000Z</time>
      </trkpt>
      <trkpt lat="45.37974" lon="6.1961">
        <ele>1979</ele>
        <time>2022-07-22T22:54:56.000Z</time>
      </trkpt>
      <trkpt lat="45.3799" lon="6.19605">
        <ele>1987.9</ele>
        <time>2022-07-22T22:55:06.000Z</time>
      </trkpt>
      <trkpt lat="45.38012" lon="6.19629">
        <ele>1989</ele>
        <time>2022-07-22T22:55:16.000Z</time>
      </trkpt>
      <trkpt lat="45.38029" lon="6.19662">
        <ele>2025</ele>
        <time>2022-07-22T22:55:26.000Z</time>
      </trkpt>
      <trkpt lat="45.3804" lon="6.1967">
        <ele>2029.8</ele>
        <time>2022-07-22T22:55:36.000Z</time>
      </trkpt>
      <trkpt lat="45.38062" lon="6.19694">
        <ele>2053</ele>
        <time>2022-07-22T22:55:46.000Z</time>
      </trkpt>
      <trkpt lat="45.38073" lon="6.19672">
        <ele>2055</ele>
        <time>2022-07-22T22:55:56.000Z</time>
      </trkpt>
      <trkpt lat="45.38084" lon="6.19674">
        <ele>2063.5</ele>
        <time>2022-07-22T22:56:06.000Z</time>
      </trkpt>
      <trkpt lat="45.38094" lon="6.19657">
        <ele>2058</ele>
        <time>2022-07-22T22:56:16.000Z</time>
      </trkpt>
      <trkpt lat="45.38104" lon="6.19683">
        <ele>2060</ele>
        <time>2022-07-22T22:56:26.000Z</time>
      </trkpt>
      <trkpt lat="45.38125" lon="6.19712">
        <ele>2063</ele>
        <time>2022-07-22T22:56:36.000Z</time>
      </trkpt>
      <trkpt lat="45.38144" lon="6.19737">
        <ele>2066</ele>
        <time>2022-07-22T22:56:46.000Z</time>
      </trkpt>
      <trkpt lat="45.38189" lon="6.19749">
        <ele>2069</ele>
        <time>2022-07-22T22:56:56.000Z</time>
      </trkpt>
      <trkpt lat="45.38202" lon="6.19745">
        <ele>2070.8</ele>
        <time>2022-07-22T22:57:06.000Z</time>
      </trkpt>
      <trkpt lat="45.38233" lon="6.1975">
        <ele>2064</ele>
        <time>2022-07-22T22:57:16.000Z</time>
      </trkpt>
      <trkpt lat="45.38278" lon="6.19738">
        <ele>2060</ele>
        <time>2022-07-22T22:57:26.000Z</time>
      </trkpt>
      <trkpt lat="45.38304" lon="6.19721">
        <ele>2059</ele>
        <time>2022-07-22T22:57:36.000Z</time>
      </trkpt>
      <trkpt lat="45.38327" lon="6.19707">
        <ele>2048</ele>
        <time>2022-07-22T22:57:46.000Z</time>
      </trkpt>
      <trkpt lat="45.3835" lon="6.19687">
        <ele>2043</ele>
        <time>2022-07-22T22:57:56.000Z</time>
      </trkpt>
      <trkpt lat="45.38385" lon="6.19658">
        <ele>2063</ele>
        <time>2022-07-22T22:58:06.000Z</time>
      </trkpt>
      <trkpt lat="45.38394" lon="6.19659">
        <ele>2042.6</ele>
        <time>2022-07-22T22:58:16.000Z</time>
      </trkpt>
      <trkpt lat="45.38413" lon="6.19714">
        <ele>2083</ele>
        <time>2022-07-22T22:58:26.000Z</time>
      </trkpt>
      <trkpt lat="45.38443" lon="6.19738">
        <ele>2083</ele>
        <time>2022-07-22T22:58:36.000Z</time>
      </trkpt>
      <trkpt lat="45.38462" lon="6.19768">
        <ele>2088</ele>
        <time>2022-07-22T22:58:46.000Z</time>
      </trkpt>
      <trkpt lat="45.38491" lon="6.19814">
        <ele>2096</ele>
        <time>2022-07-22T22:58:56.000Z</time>
      </trkpt>
      <trkpt lat="45.38511" lon="6.19834">
        <ele>2102</ele>
        <time>2022-07-22T22:59:06.000Z</time>
      </trkpt>
      <trkpt lat="45.38539" lon="6.19853">
        <ele>2114</ele>
        <time>2022-07-22T22:59:16.000Z</time>
      </trkpt>
      <trkpt lat="45.38557" lon="6.19864">
        <ele>2118</ele>
        <time>2022-07-22T22:59:26.000Z</time>
      </trkpt>
      <trkpt lat="45.38578" lon="6.1987">
        <ele>2121</ele>
        <time>2022-07-22T22:59:36.000Z</time>
      </trkpt>
      <trkpt lat="45.38593" lon="6.19868">
        <ele>2111.8</ele>
        <time>2022-07-22T22:59:46.000Z</time>
      </trkpt>
      <trkpt lat="45.38609" lon="6.19867">
        <ele>2132</ele>
        <time>2022-07-22T22:59:56.000Z</time>
      </trkpt>
      <trkpt lat="45.38618" lon="6.19863">
        <ele>2122.4</ele>
        <time>2022-07-22T23:00:06.000Z</time>
      </trkpt>
      <trkpt lat="45.38631" lon="6.19864">
        <ele>2146</ele>
        <time>2022-07-22T23:00:16.000Z</time>
      </trkpt>
      <trkpt lat="45.38662" lon="6.1984">
        <ele>2158</ele>
        <time>2022-07-22T23:00:26.000Z</time>
      </trkpt>
      <trkpt lat="45.38683" lon="6.19813">
        <ele>2162</ele>
        <time>2022-07-22T23:00:36.000Z</time>
      </trkpt>
      <trkpt lat="45.38692" lon="6.19776">
        <ele>2169</ele>
        <time>2022-07-22T23:00:46.000Z</time>
      </trkpt>
      <trkpt lat="45.38706" lon="6.19722">
        <ele>2176</ele>
        <time>2022-07-22T23:00:56.000Z</time>
      </trkpt>
      <trkpt lat="45.38723" lon="6.19726">
        <ele>2190.7</ele>
        <time>2022-07-22T23:01:06.000Z</time>
      </trkpt>
      <trkpt lat="45.38744" lon="6.19729">
        <ele>2193</ele>
        <time>2022-07-22T23:01:16.000Z</time>
      </trkpt>
      <trkpt lat="45.38761" lon="6.1974">
        <ele>2204.6</ele>
        <time>2022-07-22T23:01:26.000Z</time>
      </trkpt>
      <trkpt lat="45.3879" lon="6.19757">
        <ele>2206</ele>
        <time>2022-07-22T23:01:36.000Z</time>
      </trkpt>
      <trkpt lat="45.38802" lon="6.19759">
        <ele>2223.4</ele>
        <time>2022-07-22T23:01:46.000Z</time>
      </trkpt>
      <trkpt lat="45.38816" lon="6.19759">
        <ele>2219</ele>
        <time>2022-07-22T23:01:56.000Z</time>
      </trkpt>
      <trkpt lat="45.38823" lon="6.19766">
        <ele>2223.3</ele>
        <time>2022-07-22T23:02:06.000Z</time>
      </trkpt>
      <trkpt lat="45.38819" lon="6.19794">
        <ele>2228</ele>
        <time>2022-07-22T23:02:16.000Z</time>
      </trkpt>
      <trkpt lat="45.38837" lon="6.19805">
        <ele>2234</ele>
        <time>2022-07-22T23:02:26.000Z</time>
      </trkpt>
      <trkpt lat="45.38863" lon="6.19811">
        <ele>2232</ele>
        <time>2022-07-22T23:02:36.000Z</time>
      </trkpt>
      <trkpt lat="45.38898" lon="6.19818">
        <ele>2238</ele>
        <time>2022-07-22T23:02:46.000Z</time>
      </trkpt>
      <trkpt lat="45.38934" lon="6.19824">
        <ele>2236</ele>
        <time>2022-07-22T23:02:56.000Z</time>
      </trkpt>
      <trkpt lat="45.38955" lon="6.19849">
        <ele>2241</ele>
        <time>2022-07-22T23:03:06.000Z</time>
      </trkpt>
      <trkpt lat="45.3898" lon="6.1986">
        <ele>2246</ele>
        <time>2022-07-22T23:03:16.000Z</time>
      </trkpt>
      <trkpt lat="45.38996" lon="6.1987">
        <ele>2256.9</ele>
        <time>2022-07-22T23:03:26.000Z</time>
      </trkpt>
      <trkpt lat="45.39008" lon="6.1986">
        <ele>2249</ele>
        <time>2022-07-22T23:03:36.000Z</time>
      </trkpt>
      <trkpt lat="45.39022" lon="6.1986">
        <ele>2263.5</ele>
        <time>2022-07-22T23:03:46.000Z</time>
      </trkpt>
      <trkpt lat="45.3903" lon="6.19864">
        <ele>2253</ele>
        <time>2022-07-22T23:03:56.000Z</time>
      </trkpt>
      <trkpt lat="45.39039" lon="6.19872">
        <ele>2261.7</ele>
        <time>2022-07-22T23:04:06.000Z</time>
      </trkpt>
      <trkpt lat="45.39059" lon="6.1987">
        <ele>2256</ele>
        <time>2022-07-22T23:04:16.000Z</time>
      </trkpt>
      <trkpt lat="45.39082" lon="6.19877">
        <ele>2264</ele>
        <time>2022-07-22T23:04:26.000Z</time>
      </trkpt>
      <trkpt lat="45.39108" lon="6.19886">
        <ele>2261</ele>
        <time>2022-07-22T23:04:36.000Z</time>
      </trkpt>
      <trkpt lat="45.39144" lon="6.19882">
        <ele>2259</ele>
        <time>2022-07-22T23:04:46.000Z</time>
      </trkpt>
      <trkpt lat="45.39172" lon="6.19902">
        <ele>2259</ele>
        <time>2022-07-22T23:04:56.000Z</time>
      </trkpt>
      <trkpt lat="45.3919" lon="6.19922">
        <ele>2259</ele>
        <time>2022-07-22T23:05:06.000Z</time>
      </trkpt>
      <trkpt lat="45.39199" lon="6.19945">
        <ele>2263.9</ele>
        <time>2022-07-22T23:05:16.000Z</time>
      </trkpt>
      <trkpt lat="45.39216" lon="6.1996">
        <ele>2261</ele>
        <time>2022-07-22T23:05:26.000Z</time>
      </trkpt>
      <trkpt lat="45.39233" lon="6.19971">
        <ele>2261.5</ele>
        <time>2022-07-22T23:05:36.000Z</time>
      </trkpt>
      <trkpt lat="45.39252" lon="6.19987">
        <ele>2264</ele>
        <time>2022-07-22T23:05:46.000Z</time>
      </trkpt>
      <trkpt lat="45.39262" lon="6.20006">
        <ele>2252.2</ele>
        <time>2022-07-22T23:05:56.000Z</time>
      </trkpt>
      <trkpt lat="45.39263" lon="6.20016">
        <ele>2262</ele>
        <time>2022-07-22T23:06:06.000Z</time>
      </trkpt>
      <trkpt lat="45.39268" lon="6.20028">
        <ele>2249.7</ele>
        <time>2022-07-22T23:06:16.000Z</time>
      </trkpt>
      <trkpt lat="45.3928" lon="6.2005">
        <ele>2262</ele>
        <time>2022-07-22T23:06:26.000Z</time>
      </trkpt>
      <trkpt lat="45.39295" lon="6.20082">
        <ele>2257</ele>
        <time>2022-07-22T23:06:36.000Z</time>
      </trkpt>
      <trkpt lat="45.39318" lon="6.20094">
        <ele>2252</ele>
        <time>2022-07-22T23:06:46.000Z</time>
      </trkpt>
      <trkpt lat="45.39344" lon="6.20107">
        <ele>2249</ele>
        <time>2022-07-22T23:06:56.000Z</time>
      </trkpt>
      <trkpt lat="45.39377" lon="6.20123">
        <ele>2226</ele>
        <time>2022-07-22T23:07:06.000Z</time>
      </trkpt>
      <trkpt lat="45.39423" lon="6.20132">
        <ele>2221</ele>
        <time>2022-07-22T23:07:16.000Z</time>
      </trkpt>
      <trkpt lat="45.39455" lon="6.20115">
        <ele>2217</ele>
        <time>2022-07-22T23:07:26.000Z</time>
      </trkpt>
      <trkpt lat="45.39492" lon="6.20081">
        <ele>2213</ele>
        <time>2022-07-22T23:07:36.000Z</time>
      </trkpt>
      <trkpt lat="45.39517" lon="6.20074">
        <ele>2213</ele>
        <time>2022-07-22T23:07:46.000Z</time>
      </trkpt>
      <trkpt lat="45.39547" lon="6.20061">
        <ele>2227</ele>
        <time>2022-07-22T23:07:56.000Z</time>
      </trkpt>
      <trkpt lat="45.39564" lon="6.20071">
        <ele>2242.2</ele>
        <time>2022-07-22T23:08:06.000Z</time>
      </trkpt>
      <trkpt lat="45.39586" lon="6.20054">
        <ele>2231</ele>
        <time>2022-07-22T23:08:16.000Z</time>
      </trkpt>
      <trkpt lat="45.39603" lon="6.20031">
        <ele>2224</ele>
        <time>2022-07-22T23:08:26.000Z</time>
      </trkpt>
      <trkpt lat="45.39597" lon="6.19979">
        <ele>2227</ele>
        <time>2022-07-22T23:08:36.000Z</time>
      </trkpt>
      <trkpt lat="45.39605" lon="6.19946">
        <ele>2225</ele>
        <time>2022-07-22T23:08:46.000Z</time>
      </trkpt>
      <trkpt lat="45.39624" lon="6.19924">
        <ele>2225</ele>
        <time>2022-07-22T23:08:56.000Z</time>
      </trkpt>
      <trkpt lat="45.39646" lon="6.199">
        <ele>2221</ele>
        <time>2022-07-22T23:09:06.000Z</time>
      </trkpt>
      <trkpt lat="45.39656" lon="6.19873">
        <ele>2221</ele>
        <time>2022-07-22T23:09:16.000Z</time>
      </trkpt>
      <trkpt lat="45.39685" lon="6.19862">
        <ele>2221</ele>
        <time>2022-07-22T23:09:26.000Z</time>
      </trkpt>
      <trkpt lat="45.39704" lon="6.199">
        <ele>2219</ele>
        <time>2022-07-22T23:09:36.000Z</time>
      </trkpt>
      <trkpt lat="45.39735" lon="6.19933">
        <ele>2217</ele>
        <time>2022-07-22T23:09:46.000Z</time>
      </trkpt>
      <trkpt lat="45.39747" lon="6.19943">
        <ele>2188.2</ele>
        <time>2022-07-22T23:09:56.000Z</time>
      </trkpt>
      <trkpt lat="45.3978" lon="6.19961">
        <ele>2182</ele>
        <time>2022-07-22T23:10:06.000Z</time>
      </trkpt>
      <trkpt lat="45.3981" lon="6.19961">
        <ele>2163</ele>
        <time>2022-07-22T23:10:16.000Z</time>
      </trkpt>
      <trkpt lat="45.39836" lon="6.19956">
        <ele>2133</ele>
        <time>2022-07-22T23:10:26.000Z</time>
      </trkpt>
      <trkpt lat="45.39852" lon="6.19952">
        <ele>2137.7</ele>
        <time>2022-07-22T23:10:36.000Z</time>
      </trkpt>
      <trkpt lat="45.39885" lon="6.19931">
        <ele>2109</ele>
        <time>2022-07-22T23:10:46.000Z</time>
      </trkpt>
      <trkpt lat="45.39923" lon="6.199">
        <ele>2110</ele>
        <time>2022-07-22T23:10:56.000Z</time>
      </trkpt>
      <trkpt lat="45.39947" lon="6.19881">
        <ele>2108</ele>
        <time>2022-07-22T23:11:06.000Z</time>
      </trkpt>
      <trkpt lat="45.39981" lon="6.19854">
        <ele>2114</ele>
        <time>2022-07-22T23:11:16.000Z</time>
      </trkpt>
      <trkpt lat="45.40007" lon="6.19853">
        <ele>2120</ele>
        <time>2022-07-22T23:11:26.000Z</time>
      </trkpt>
      <trkpt lat="45.4004" lon="6.19852">
        <ele>2143</ele>
        <time>2022-07-22T23:11:36.000Z</time>
      </trkpt>
      <trkpt lat="45.40085" lon="6.19871">
        <ele>2167</ele>
        <time>2022-07-22T23:11:46.000Z</time>
      </trkpt>
      <trkpt lat="45.40127" lon="6.19843">
        <ele>2180</ele>
        <time>2022-07-22T23:11:56.000Z</time>
      </trkpt>
      <trkpt lat="45.40144" lon="6.19816">
        <ele>2192</ele>
        <time>2022-07-22T23:12:06.000Z</time>
      </trkpt>
      <trkpt lat="45.40162" lon="6.19786">
        <ele>2196</ele>
        <time>2022-07-22T23:12:16.000Z</time>
      </trkpt>
      <trkpt lat="45.40201" lon="6.19822">
        <ele>2204</ele>
        <time>2022-07-22T23:12:26.000Z</time>
      </trkpt>
      <trkpt lat="45.40236" lon="6.19805">
        <ele>2202</ele>
        <time>2022-07-22T23:12:36.000Z</time>
      </trkpt>
      <trkpt lat="45.40269" lon="6.19762">
        <ele>2207</ele>
        <time>2022-07-22T23:12:46.000Z</time>
      </trkpt>
      <trkpt lat="45.40268" lon="6.19798">
        <ele>2213</ele>
        <time>2022-07-22T23:12:56.000Z</time>
      </trkpt>
      <trkpt lat="45.40266" lon="6.19839">
        <ele>2233</ele>
        <time>2022-07-22T23:13:06.000Z</time>
      </trkpt>
      <trkpt lat="45.40242" lon="6.19863">
        <ele>2235</ele>
        <time>2022-07-22T23:13:16.000Z</time>
      </trkpt>
      <trkpt lat="45.40233" lon="6.19914">
        <ele>2242</ele>
        <time>2022-07-22T23:13:26.000Z</time>
      </trkpt>
      <trkpt lat="45.40271" lon="6.19901">
        <ele>2255</ele>
        <time>2022-07-22T23:13:36.000Z</time>
      </trkpt>
      <trkpt lat="45.40289" lon="6.19927">
        <ele>2259</ele>
        <time>2022-07-22T23:13:46.000Z</time>
      </trkpt>
      <trkpt lat="45.40314" lon="6.19916">
        <ele>2283</ele>
        <time>2022-07-22T23:13:56.000Z</time>
      </trkpt>
      <trkpt lat="45.40343" lon="6.19903">
        <ele>2301</ele>
        <time>2022-07-22T23:14:06.000Z</time>
      </trkpt>
      <trkpt lat="45.40372" lon="6.1994">
        <ele>2323</ele>
        <time>2022-07-22T23:14:16.000Z</time>
      </trkpt>
      <trkpt lat="45.40396" lon="6.1993">
        <ele>2346</ele>
        <time>2022-07-22T23:14:26.000Z</time>
      </trkpt>
      <trkpt lat="45.40423" lon="6.19919">
        <ele>2358</ele>
        <time>2022-07-22T23:14:36.000Z</time>
      </trkpt>
      <trkpt lat="45.40438" lon="6.19959">
        <ele>2371</ele>
        <time>2022-07-22T23:14:46.000Z</time>
      </trkpt>
      <trkpt lat="45.40468" lon="6.19936">
        <ele>2404</ele>
        <time>2022-07-22T23:14:56.000Z</time>
      </trkpt>
      <trkpt lat="45.40507" lon="6.19936">
        <ele>2424</ele>
        <time>2022-07-22T23:15:06.000Z</time>
      </trkpt>
      <trkpt lat="45.40527" lon="6.19917">
        <ele>2431</ele>
        <time>2022-07-22T23:15:16.000Z</time>
      </trkpt>
      <trkpt lat="45.40549" lon="6.19897">
        <ele>2437</ele>
        <time>2022-07-22T23:15:26.000Z</time>
      </trkpt>
      <trkpt lat="45.40569" lon="6.19876">
        <ele>2456</ele>
        <time>2022-07-22T23:15:36.000Z</time>
      </trkpt>
      <trkpt lat="45.4059" lon="6.19854">
        <ele>2461</ele>
        <time>2022-07-22T23:15:46.000Z</time>
      </trkpt>
      <trkpt lat="45.40614" lon="6.19853">
        <ele>2470</ele>
        <time>2022-07-22T23:15:56.000Z</time>
      </trkpt>
      <trkpt lat="45.40641" lon="6.19852">
        <ele>2476</ele>
        <time>2022-07-22T23:16:06.000Z</time>
      </trkpt>
      <trkpt lat="45.40673" lon="6.19863">
        <ele>2476</ele>
        <time>2022-07-22T23:16:16.000Z</time>
      </trkpt>
      <trkpt lat="45.40669" lon="6.19858">
        <ele>2491.5</ele>
        <time>2022-07-22T23:16:26.000Z</time>
      </trkpt>
      <trkpt lat="45.40672" lon="6.19881">
        <ele>2476</ele>
        <time>2022-07-22T23:16:36.000Z</time>
      </trkpt>
      <trkpt lat="45.40675" lon="6.19888">
        <ele>2482.7</ele>
        <time>2022-07-22T23:16:46.000Z</time>
      </trkpt>
      <trkpt lat="45.40673" lon="6.19916">
        <ele>2476</ele>
        <time>2022-07-22T23:16:56.000Z</time>
      </trkpt>
      <trkpt lat="45.40674" lon="6.19929">
        <ele>2473.8</ele>
        <time>2022-07-22T23:17:06.000Z</time>
      </trkpt>
      <trkpt lat="45.40668" lon="6.19954">
        <ele>2475</ele>
        <time>2022-07-22T23:17:16.000Z</time>
      </trkpt>
      <trkpt lat="45.40665" lon="6.19973">
        <ele>2467</ele>
        <time>2022-07-22T23:17:26.000Z</time>
      </trkpt>
      <trkpt lat="45.4066" lon="6.19989">
        <ele>2473</ele>
        <time>2022-07-22T23:17:36.000Z</time>
      </trkpt>
      <trkpt lat="45.40656" lon="6.20005">
        <ele>2459.4</ele>
        <time>2022-07-22T23:17:46.000Z</time>
      </trkpt>
      <trkpt lat="45.40655" lon="6.2002">
        <ele>2463</ele>
        <time>2022-07-22T23:17:56.000Z</time>
      </trkpt>
      <trkpt lat="45.40656" lon="6.20032">
        <ele>2451.9</ele>
        <time>2022-07-22T23:18:06.000Z</time>
      </trkpt>
      <trkpt lat="45.40656" lon="6.20051">
        <ele>2463</ele>
        <time>2022-07-22T23:18:16.000Z</time>
      </trkpt>
      <trkpt lat="45.40658" lon="6.20067">
        <ele>2442.9</ele>
        <time>2022-07-22T23:18:26.000Z</time>
      </trkpt>
      <trkpt lat="45.40662" lon="6.2008">
        <ele>2462</ele>
        <time>2022-07-22T23:18:36.000Z</time>
      </trkpt>
      <trkpt lat="45.40668" lon="6.20092">
        <ele>2452.3</ele>
        <time>2022-07-22T23:18:46.000Z</time>
      </trkpt>
      <trkpt lat="45.40678" lon="6.20126">
        <ele>2457</ele>
        <time>2022-07-22T23:18:56.000Z</time>
      </trkpt>
      <trkpt lat="45.40686" lon="6.20167">
        <ele>2446</ele>
        <time>2022-07-22T23:19:06.000Z</time>
      </trkpt>
      <trkpt lat="45.40698" lon="6.20208">
        <ele>2435</ele>
        <time>2022-07-22T23:19:16.000Z</time>
      </trkpt>
      <trkpt lat="45.40711" lon="6.20236">
        <ele>2425</ele>
        <time>2022-07-22T23:19:26.000Z</time>
      </trkpt>
      <trkpt lat="45.40717" lon="6.20255">
        <ele>2411.9</ele>
        <time>2022-07-22T23:19:36.000Z</time>
      </trkpt>
      <trkpt lat="45.40729" lon="6.20267">
        <ele>2419</ele>
        <time>2022-07-22T23:19:46.000Z</time>
      </trkpt>
      <trkpt lat="45.40738" lon="6.20248">
        <ele>2386.2</ele>
        <time>2022-07-22T23:19:56.000Z</time>
      </trkpt>
      <trkpt lat="45.40744" lon="6.20247">
        <ele>2419</ele>
        <time>2022-07-22T23:20:06.000Z</time>
      </trkpt>
      <trkpt lat="45.40752" lon="6.20247">
        <ele>2367</ele>
        <time>2022-07-22T23:20:16.000Z</time>
      </trkpt>
      <trkpt lat="45.4076" lon="6.2024">
        <ele>2360</ele>
        <time>2022-07-22T23:20:26.000Z</time>
      </trkpt>
      <trkpt lat="45.40767" lon="6.20236">
        <ele>2419</ele>
        <time>2022-07-22T23:20:36.000Z</time>
      </trkpt>
      <trkpt lat="45.40773" lon="6.20229">
        <ele>2347.7</ele>
        <time>2022-07-22T23:20:46.000Z</time>
      </trkpt>
      <trkpt lat="45.40782" lon="6.20225">
        <ele>2340.2</ele>
        <time>2022-07-22T23:20:56.000Z</time>
      </trkpt>
      <trkpt lat="45.4079" lon="6.20215">
        <ele>2387</ele>
        <time>2022-07-22T23:21:06.000Z</time>
      </trkpt>
      <trkpt lat="45.408" lon="6.2021">
        <ele>2324.7</ele>
        <time>2022-07-22T23:21:16.000Z</time>
      </trkpt>
      <trkpt lat="45.40808" lon="6.20202">
        <ele>2354</ele>
        <time>2022-07-22T23:21:26.000Z</time>
      </trkpt>
      <trkpt lat="45.40822" lon="6.20202">
        <ele>2309.4</ele>
        <time>2022-07-22T23:21:36.000Z</time>
      </trkpt>
      <trkpt lat="45.40839" lon="6.20205">
        <ele>2334</ele>
        <time>2022-07-22T23:21:46.000Z</time>
      </trkpt>
      <trkpt lat="45.40856" lon="6.202">
        <ele>2292.9</ele>
        <time>2022-07-22T23:21:56.000Z</time>
      </trkpt>
      <trkpt lat="45.40864" lon="6.20192">
        <ele>2320</ele>
        <time>2022-07-22T23:22:06.000Z</time>
      </trkpt>
      <trkpt lat="45.40883" lon="6.20195">
        <ele>2304</ele>
        <time>2022-07-22T23:22:16.000Z</time>
      </trkpt>
      <trkpt lat="45.40912" lon="6.20177">
        <ele>2296</ele>
        <time>2022-07-22T23:22:26.000Z</time>
      </trkpt>
      <trkpt lat="45.40929" lon="6.20174">
        <ele>2266.8</ele>
        <time>2022-07-22T23:22:36.000Z</time>
      </trkpt>
      <trkpt lat="45.40948" lon="6.20177">
        <ele>2275</ele>
        <time>2022-07-22T23:22:46.000Z</time>
      </trkpt>
      <trkpt lat="45.40965" lon="6.20186">
        <ele>2257.4</ele>
        <time>2022-07-22T23:22:56.000Z</time>
      </trkpt>
      <trkpt lat="45.40979" lon="6.20206">
        <ele>2265</ele>
        <time>2022-07-22T23:23:06.000Z</time>
      </trkpt>
      <trkpt lat="45.40987" lon="6.20222">
        <ele>2257.6</ele>
        <time>2022-07-22T23:23:16.000Z</time>
      </trkpt>
      <trkpt lat="45.40997" lon="6.20238">
        <ele>2263</ele>
        <time>2022-07-22T23:23:26.000Z</time>
      </trkpt>
      <trkpt lat="45.41018" lon="6.20266">
        <ele>2262</ele>
        <time>2022-07-22T23:23:36.000Z</time>
      </trkpt>
      <trkpt lat="45.41026" lon="6.20283">
        <ele>2238.2</ele>
        <time>2022-07-22T23:23:46.000Z</time>
      </trkpt>
      <trkpt lat="45.41037" lon="6.203">
        <ele>2254</ele>
        <time>2022-07-22T23:23:56.000Z</time>
      </trkpt>
      <trkpt lat="45.41057" lon="6.20328">
        <ele>2250</ele>
        <time>2022-07-22T23:24:06.000Z</time>
      </trkpt>
      <trkpt lat="45.41063" lon="6.2034">
        <ele>2219.9</ele>
        <time>2022-07-22T23:24:16.000Z</time>
      </trkpt>
      <trkpt lat="45.41066" lon="6.2035">
        <ele>2221.2</ele>
        <time>2022-07-22T23:24:26.000Z</time>
      </trkpt>
      <trkpt lat="45.4108" lon="6.20377">
        <ele>2260</ele>
        <time>2022-07-22T23:24:36.000Z</time>
      </trkpt>
      <trkpt lat="45.4108" lon="6.20385">
        <ele>2226.4</ele>
        <time>2022-07-22T23:24:46.000Z</time>
      </trkpt>
      <trkpt lat="45.41095" lon="6.20417">
        <ele>2255</ele>
        <time>2022-07-22T23:24:56.000Z</time>
      </trkpt>
      <trkpt lat="45.41095" lon="6.20422">
        <ele>2235.9</ele>
        <time>2022-07-22T23:25:06.000Z</time>
      </trkpt>
      <trkpt lat="45.41096" lon="6.20425">
        <ele>2237.4</ele>
        <time>2022-07-22T23:25:16.000Z</time>
      </trkpt>
      <trkpt lat="45.41096" lon="6.20435">
        <ele>2243.9</ele>
        <time>2022-07-22T23:25:26.000Z</time>
      </trkpt>
      <trkpt lat="45.41099" lon="6.20442">
        <ele>2247.1</ele>
        <time>2022-07-22T23:25:36.000Z</time>
      </trkpt>
      <trkpt lat="45.41101" lon="6.20457">
        <ele>2259</ele>
        <time>2022-07-22T23:25:46.000Z</time>
      </trkpt>
      <trkpt lat="45.41108" lon="6.2047">
        <ele>2264.3</ele>
        <time>2022-07-22T23:25:56.000Z</time>
      </trkpt>
      <trkpt lat="45.41114" lon="6.20473">
        <ele>2260.6</ele>
        <time>2022-07-22T23:26:06.000Z</time>
      </trkpt>
      <trkpt lat="45.4112" lon="6.20473">
        <ele>2253</ele>
        <time>2022-07-22T23:26:16.000Z</time>
      </trkpt>
      <trkpt lat="45.41125" lon="6.20475">
        <ele>2250.8</ele>
        <time>2022-07-22T23:26:26.000Z</time>
      </trkpt>
      <trkpt lat="45.41129" lon="6.20485">
        <ele>2243.9</ele>
        <time>2022-07-22T23:26:36.000Z</time>
      </trkpt>
      <trkpt lat="45.41134" lon="6.205">
        <ele>2248</ele>
        <time>2022-07-22T23:26:46.000Z</time>
      </trkpt>
      <trkpt lat="45.41139" lon="6.20519">
        <ele>2225</ele>
        <time>2022-07-22T23:26:56.000Z</time>
      </trkpt>
      <trkpt lat="45.41144" lon="6.20523">
        <ele>2244</ele>
        <time>2022-07-22T23:27:06.000Z</time>
      </trkpt>
      <trkpt lat="45.41149" lon="6.20531">
        <ele>2220.9</ele>
        <time>2022-07-22T23:27:16.000Z</time>
      </trkpt>
      <trkpt lat="45.41155" lon="6.20581">
        <ele>2229</ele>
        <time>2022-07-22T23:27:26.000Z</time>
      </trkpt>
      <trkpt lat="45.41156" lon="6.20613">
        <ele>2223</ele>
        <time>2022-07-22T23:27:36.000Z</time>
      </trkpt>
      <trkpt lat="45.41159" lon="6.20626">
        <ele>2199.8</ele>
        <time>2022-07-22T23:27:46.000Z</time>
      </trkpt>
      <trkpt lat="45.41164" lon="6.20638">
        <ele>2205</ele>
        <time>2022-07-22T23:27:56.000Z</time>
      </trkpt>
      <trkpt lat="45.4117" lon="6.20657">
        <ele>2195.1</ele>
        <time>2022-07-22T23:28:06.000Z</time>
      </trkpt>
      <trkpt lat="45.41188" lon="6.20688">
        <ele>2201</ele>
        <time>2022-07-22T23:28:16.000Z</time>
      </trkpt>
      <trkpt lat="45.41191" lon="6.20695">
        <ele>2179.6</ele>
        <time>2022-07-22T23:28:26.000Z</time>
      </trkpt>
      <trkpt lat="45.41192" lon="6.20703">
        <ele>2176.1</ele>
        <time>2022-07-22T23:28:36.000Z</time>
      </trkpt>
      <trkpt lat="45.41195" lon="6.20711">
        <ele>2172.5</ele>
        <time>2022-07-22T23:28:46.000Z</time>
      </trkpt>
      <trkpt lat="45.412" lon="6.20718">
        <ele>2184</ele>
        <time>2022-07-22T23:28:56.000Z</time>
      </trkpt>
      <trkpt lat="45.41218" lon="6.20737">
        <ele>2183</ele>
        <time>2022-07-22T23:29:06.000Z</time>
      </trkpt>
      <trkpt lat="45.41224" lon="6.2075">
        <ele>2170</ele>
        <time>2022-07-22T23:29:16.000Z</time>
      </trkpt>
      <trkpt lat="45.4123" lon="6.20765">
        <ele>2180</ele>
        <time>2022-07-22T23:29:26.000Z</time>
      </trkpt>
      <trkpt lat="45.41229" lon="6.20774">
        <ele>2170.9</ele>
        <time>2022-07-22T23:29:36.000Z</time>
      </trkpt>
      <trkpt lat="45.41229" lon="6.20791">
        <ele>2167.7</ele>
        <time>2022-07-22T23:29:46.000Z</time>
      </trkpt>
      <trkpt lat="45.41225" lon="6.20816">
        <ele>2171</ele>
        <time>2022-07-22T23:29:56.000Z</time>
      </trkpt>
      <trkpt lat="45.41225" lon="6.20827">
        <ele>2162.3</ele>
        <time>2022-07-22T23:30:06.000Z</time>
      </trkpt>
      <trkpt lat="45.41232" lon="6.2084">
        <ele>2167</ele>
        <time>2022-07-22T23:30:16.000Z</time>
      </trkpt>
      <trkpt lat="45.41251" lon="6.20864">
        <ele>2168</ele>
        <time>2022-07-22T23:30:26.000Z</time>
      </trkpt>
      <trkpt lat="45.41248" lon="6.20876">
        <ele>2165.8</ele>
        <time>2022-07-22T23:30:36.000Z</time>
      </trkpt>
      <trkpt lat="45.41254" lon="6.20897">
        <ele>2168</ele>
        <time>2022-07-22T23:30:46.000Z</time>
      </trkpt>
      <trkpt lat="45.41271" lon="6.20918">
        <ele>2169</ele>
        <time>2022-07-22T23:30:56.000Z</time>
      </trkpt>
      <trkpt lat="45.41299" lon="6.20944">
        <ele>2177</ele>
        <time>2022-07-22T23:31:06.000Z</time>
      </trkpt>
      <trkpt lat="45.41303" lon="6.20951">
        <ele>2179.8</ele>
        <time>2022-07-22T23:31:16.000Z</time>
      </trkpt>
      <trkpt lat="45.41315" lon="6.20965">
        <ele>2198</ele>
        <time>2022-07-22T23:31:26.000Z</time>
      </trkpt>
      <trkpt lat="45.41323" lon="6.20991">
        <ele>2231</ele>
        <time>2022-07-22T23:31:36.000Z</time>
      </trkpt>
      <trkpt lat="45.41326" lon="6.21005">
        <ele>2224.7</ele>
        <time>2022-07-22T23:31:46.000Z</time>
      </trkpt>
      <trkpt lat="45.41327" lon="6.21013">
        <ele>2230.8</ele>
        <time>2022-07-22T23:31:56.000Z</time>
      </trkpt>
      <trkpt lat="45.41336" lon="6.21039">
        <ele>2245</ele>
        <time>2022-07-22T23:32:06.000Z</time>
      </trkpt>
      <trkpt lat="45.41346" lon="6.21065">
        <ele>2256</ele>
        <time>2022-07-22T23:32:16.000Z</time>
      </trkpt>
      <trkpt lat="45.41353" lon="6.21079">
        <ele>2253</ele>
        <time>2022-07-22T23:32:26.000Z</time>
      </trkpt>
      <trkpt lat="45.41361" lon="6.21093">
        <ele>2262</ele>
        <time>2022-07-22T23:32:36.000Z</time>
      </trkpt>
      <trkpt lat="45.41359" lon="6.21102">
        <ele>2253.5</ele>
        <time>2022-07-22T23:32:46.000Z</time>
      </trkpt>
      <trkpt lat="45.41369" lon="6.2111">
        <ele>2252.8</ele>
        <time>2022-07-22T23:32:56.000Z</time>
      </trkpt>
      <trkpt lat="45.41395" lon="6.21128">
        <ele>2262</ele>
        <time>2022-07-22T23:33:06.000Z</time>
      </trkpt>
      <trkpt lat="45.41422" lon="6.21144">
        <ele>2256</ele>
        <time>2022-07-22T23:33:16.000Z</time>
      </trkpt>
      <trkpt lat="45.41446" lon="6.21153">
        <ele>2251</ele>
        <time>2022-07-22T23:33:26.000Z</time>
      </trkpt>
      <trkpt lat="45.41474" lon="6.21163">
        <ele>2247</ele>
        <time>2022-07-22T23:33:36.000Z</time>
      </trkpt>
      <trkpt lat="45.41492" lon="6.21168">
        <ele>2232.8</ele>
        <time>2022-07-22T23:33:46.000Z</time>
      </trkpt>
      <trkpt lat="45.4151" lon="6.21172">
        <ele>2244</ele>
        <time>2022-07-22T23:33:56.000Z</time>
      </trkpt>
      <trkpt lat="45.41545" lon="6.21176">
        <ele>2244</ele>
        <time>2022-07-22T23:34:06.000Z</time>
      </trkpt>
      <trkpt lat="45.41578" lon="6.21192">
        <ele>2236</ele>
        <time>2022-07-22T23:34:16.000Z</time>
      </trkpt>
      <trkpt lat="45.41594" lon="6.21197">
        <ele>2226.5</ele>
        <time>2022-07-22T23:34:26.000Z</time>
      </trkpt>
      <trkpt lat="45.41607" lon="6.212">
        <ele>2224</ele>
        <time>2022-07-22T23:34:36.000Z</time>
      </trkpt>
      <trkpt lat="45.41626" lon="6.21201">
        <ele>2224</ele>
        <time>2022-07-22T23:34:46.000Z</time>
      </trkpt>
      <trkpt lat="45.41649" lon="6.21205">
        <ele>2222</ele>
        <time>2022-07-22T23:34:56.000Z</time>
      </trkpt>
      <trkpt lat="45.41663" lon="6.21209">
        <ele>2202.4</ele>
        <time>2022-07-22T23:35:06.000Z</time>
      </trkpt>
      <trkpt lat="45.41676" lon="6.21216">
        <ele>2220</ele>
        <time>2022-07-22T23:35:16.000Z</time>
      </trkpt>
      <trkpt lat="45.41703" lon="6.21223">
        <ele>2206</ele>
        <time>2022-07-22T23:35:26.000Z</time>
      </trkpt>
      <trkpt lat="45.41719" lon="6.21226">
        <ele>2200.6</ele>
        <time>2022-07-22T23:35:36.000Z</time>
      </trkpt>
      <trkpt lat="45.41749" lon="6.21234">
        <ele>2226</ele>
        <time>2022-07-22T23:35:46.000Z</time>
      </trkpt>
      <trkpt lat="45.41775" lon="6.21279">
        <ele>2246</ele>
        <time>2022-07-22T23:35:56.000Z</time>
      </trkpt>
      <trkpt lat="45.41782" lon="6.21289">
        <ele>2275.6</ele>
        <time>2022-07-22T23:36:06.000Z</time>
      </trkpt>
      <trkpt lat="45.41792" lon="6.21299">
        <ele>2246</ele>
        <time>2022-07-22T23:36:16.000Z</time>
      </trkpt>
      <trkpt lat="45.4181" lon="6.21304">
        <ele>2290.4</ele>
        <time>2022-07-22T23:36:26.000Z</time>
      </trkpt>
      <trkpt lat="45.41838" lon="6.21301">
        <ele>2266</ele>
        <time>2022-07-22T23:36:36.000Z</time>
      </trkpt>
      <trkpt lat="45.41862" lon="6.21303">
        <ele>2274</ele>
        <time>2022-07-22T23:36:46.000Z</time>
      </trkpt>
      <trkpt lat="45.41886" lon="6.21305">
        <ele>2280</ele>
        <time>2022-07-22T23:36:56.000Z</time>
      </trkpt>
      <trkpt lat="45.41909" lon="6.21305">
        <ele>2280</ele>
        <time>2022-07-22T23:37:06.000Z</time>
      </trkpt>
      <trkpt lat="45.41934" lon="6.21302">
        <ele>2280</ele>
        <time>2022-07-22T23:37:16.000Z</time>
      </trkpt>
      <trkpt lat="45.41958" lon="6.21296">
        <ele>2280</ele>
        <time>2022-07-22T23:37:26.000Z</time>
      </trkpt>
      <trkpt lat="45.41983" lon="6.21296">
        <ele>2280</ele>
        <time>2022-07-22T23:37:36.000Z</time>
      </trkpt>
      <trkpt lat="45.42001" lon="6.21314">
        <ele>2288</ele>
        <time>2022-07-22T23:37:46.000Z</time>
      </trkpt>
      <trkpt lat="45.4202" lon="6.21337">
        <ele>2293</ele>
        <time>2022-07-22T23:37:56.000Z</time>
      </trkpt>
      <trkpt lat="45.42046" lon="6.21374">
        <ele>2293</ele>
        <time>2022-07-22T23:38:06.000Z</time>
      </trkpt>
      <trkpt lat="45.42059" lon="6.21368">
        <ele>2298.1</ele>
        <time>2022-07-22T23:38:16.000Z</time>
      </trkpt>
      <trkpt lat="45.4208" lon="6.21364">
        <ele>2306</ele>
        <time>2022-07-22T23:38:26.000Z</time>
      </trkpt>
      <trkpt lat="45.42099" lon="6.21349">
        <ele>2306</ele>
        <time>2022-07-22T23:38:36.000Z</time>
      </trkpt>
      <trkpt lat="45.4213" lon="6.21317">
        <ele>2317</ele>
        <time>2022-07-22T23:38:46.000Z</time>
      </trkpt>
      <trkpt lat="45.42147" lon="6.2131">
        <ele>2312.4</ele>
        <time>2022-07-22T23:38:56.000Z</time>
      </trkpt>
      <trkpt lat="45.42163" lon="6.21311">
        <ele>2324</ele>
        <time>2022-07-22T23:39:06.000Z</time>
      </trkpt>
      <trkpt lat="45.42178" lon="6.21318">
        <ele>2314.6</ele>
        <time>2022-07-22T23:39:16.000Z</time>
      </trkpt>
      <trkpt lat="45.42192" lon="6.2133">
        <ele>2324</ele>
        <time>2022-07-22T23:39:26.000Z</time>
      </trkpt>
      <trkpt lat="45.422" lon="6.21352">
        <ele>2304.3</ele>
        <time>2022-07-22T23:39:36.000Z</time>
      </trkpt>
      <trkpt lat="45.42208" lon="6.21394">
        <ele>2315</ele>
        <time>2022-07-22T23:39:46.000Z</time>
      </trkpt>
      <trkpt lat="45.42215" lon="6.21413">
        <ele>2303.3</ele>
        <time>2022-07-22T23:39:56.000Z</time>
      </trkpt>
      <trkpt lat="45.42226" lon="6.21463">
        <ele>2307</ele>
        <time>2022-07-22T23:40:06.000Z</time>
      </trkpt>
      <trkpt lat="45.42229" lon="6.2149">
        <ele>2304</ele>
        <time>2022-07-22T23:40:16.000Z</time>
      </trkpt>
      <trkpt lat="45.42228" lon="6.21514">
        <ele>2290.9</ele>
        <time>2022-07-22T23:40:26.000Z</time>
      </trkpt>
      <trkpt lat="45.42226" lon="6.21522">
        <ele>2299</ele>
        <time>2022-07-22T23:40:36.000Z</time>
      </trkpt>
      <trkpt lat="45.42229" lon="6.21555">
        <ele>2297</ele>
        <time>2022-07-22T23:40:46.000Z</time>
      </trkpt>
      <trkpt lat="45.42235" lon="6.21577">
        <ele>2284.3</ele>
        <time>2022-07-22T23:40:56.000Z</time>
      </trkpt>
      <trkpt lat="45.42246" lon="6.21591">
        <ele>2297</ele>
        <time>2022-07-22T23:41:06.000Z</time>
      </trkpt>
      <trkpt lat="45.42271" lon="6.21607">
        <ele>2297</ele>
        <time>2022-07-22T23:41:16.000Z</time>
      </trkpt>
      <trkpt lat="45.42266" lon="6.21623">
        <ele>2293.5</ele>
        <time>2022-07-22T23:41:26.000Z</time>
      </trkpt>
      <trkpt lat="45.42272" lon="6.21636">
        <ele>2294</ele>
        <time>2022-07-22T23:41:36.000Z</time>
      </trkpt>
      <trkpt lat="45.42281" lon="6.2165">
        <ele>2296.8</ele>
        <time>2022-07-22T23:41:46.000Z</time>
      </trkpt>
      <trkpt lat="45.42305" lon="6.21682">
        <ele>2301</ele>
        <time>2022-07-22T23:41:56.000Z</time>
      </trkpt>
      <trkpt lat="45.42317" lon="6.21705">
        <ele>2308</ele>
        <time>2022-07-22T23:42:06.000Z</time>
      </trkpt>
      <trkpt lat="45.42328" lon="6.21751">
        <ele>2310</ele>
        <time>2022-07-22T23:42:16.000Z</time>
      </trkpt>
      <trkpt lat="45.42322" lon="6.21757">
        <ele>2314</ele>
        <time>2022-07-22T23:42:26.000Z</time>
      </trkpt>
      <trkpt lat="45.42309" lon="6.21782">
        <ele>2318</ele>
        <time>2022-07-22T23:42:36.000Z</time>
      </trkpt>
      <trkpt lat="45.42308" lon="6.21789">
        <ele>2320.1</ele>
        <time>2022-07-22T23:42:46.000Z</time>
      </trkpt>
      <trkpt lat="45.42307" lon="6.21804">
        <ele>2319.6</ele>
        <time>2022-07-22T23:42:56.000Z</time>
      </trkpt>
      <trkpt lat="45.42312" lon="6.21819">
        <ele>2321</ele>
        <time>2022-07-22T23:43:06.000Z</time>
      </trkpt>
      <trkpt lat="45.42321" lon="6.21833">
        <ele>2326.2</ele>
        <time>2022-07-22T23:43:16.000Z</time>
      </trkpt>
      <trkpt lat="45.42331" lon="6.21843">
        <ele>2322</ele>
        <time>2022-07-22T23:43:26.000Z</time>
      </trkpt>
      <trkpt lat="45.42335" lon="6.21837">
        <ele>2334</ele>
        <time>2022-07-22T23:43:36.000Z</time>
      </trkpt>
      <trkpt lat="45.42344" lon="6.21827">
        <ele>2331</ele>
        <time>2022-07-22T23:43:46.000Z</time>
      </trkpt>
      <trkpt lat="45.42367" lon="6.2182">
        <ele>2314</ele>
        <time>2022-07-22T23:43:56.000Z</time>
      </trkpt>
      <trkpt lat="45.42373" lon="6.21822">
        <ele>2322.2</ele>
        <time>2022-07-22T23:44:06.000Z</time>
      </trkpt>
      <trkpt lat="45.42378" lon="6.21811">
        <ele>2320.1</ele>
        <time>2022-07-22T23:44:16.000Z</time>
      </trkpt>
      <trkpt lat="45.42382" lon="6.21804">
        <ele>2307</ele>
        <time>2022-07-22T23:44:26.000Z</time>
      </trkpt>
      <trkpt lat="45.42392" lon="6.21806">
        <ele>2313.2</ele>
        <time>2022-07-22T23:44:36.000Z</time>
      </trkpt>
      <trkpt lat="45.42397" lon="6.21794">
        <ele>2294</ele>
        <time>2022-07-22T23:44:46.000Z</time>
      </trkpt>
      <trkpt lat="45.42409" lon="6.21773">
        <ele>2294</ele>
        <time>2022-07-22T23:44:56.000Z</time>
      </trkpt>
      <trkpt lat="45.42407" lon="6.21754">
        <ele>2293.5</ele>
        <time>2022-07-22T23:45:06.000Z</time>
      </trkpt>
      <trkpt lat="45.424" lon="6.21736">
        <ele>2265</ele>
        <time>2022-07-22T23:45:16.000Z</time>
      </trkpt>
      <trkpt lat="45.4241" lon="6.21725">
        <ele>2281.6</ele>
        <time>2022-07-22T23:45:26.000Z</time>
      </trkpt>
      <trkpt lat="45.42419" lon="6.21711">
        <ele>2262</ele>
        <time>2022-07-22T23:45:36.000Z</time>
      </trkpt>
      <trkpt lat="45.42423" lon="6.21696">
        <ele>2266.7</ele>
        <time>2022-07-22T23:45:46.000Z</time>
      </trkpt>
      <trkpt lat="45.42425" lon="6.21675">
        <ele>2246</ele>
        <time>2022-07-22T23:45:56.000Z</time>
      </trkpt>
      <trkpt lat="45.4244" lon="6.21673">
        <ele>2262.3</ele>
        <time>2022-07-22T23:46:06.000Z</time>
      </trkpt>
      <trkpt lat="45.42454" lon="6.21655">
        <ele>2241</ele>
        <time>2022-07-22T23:46:16.000Z</time>
      </trkpt>
      <trkpt lat="45.42467" lon="6.21657">
        <ele>2250.4</ele>
        <time>2022-07-22T23:46:26.000Z</time>
      </trkpt>
      <trkpt lat="45.42478" lon="6.21654">
        <ele>2236</ele>
        <time>2022-07-22T23:46:36.000Z</time>
      </trkpt>
      <trkpt lat="45.42486" lon="6.21637">
        <ele>2242.1</ele>
        <time>2022-07-22T23:46:46.000Z</time>
      </trkpt>
      <trkpt lat="45.42492" lon="6.21615">
        <ele>2236</ele>
        <time>2022-07-22T23:46:56.000Z</time>
      </trkpt>
      <trkpt lat="45.42472" lon="6.21576">
        <ele>2214</ele>
        <time>2022-07-22T23:47:06.000Z</time>
      </trkpt>
      <trkpt lat="45.42469" lon="6.21561">
        <ele>2193.7</ele>
        <time>2022-07-22T23:47:16.000Z</time>
      </trkpt>
      <trkpt lat="45.42465" lon="6.21547">
        <ele>2184</ele>
        <time>2022-07-22T23:47:26.000Z</time>
      </trkpt>
      <trkpt lat="45.42469" lon="6.21509">
        <ele>2180</ele>
        <time>2022-07-22T23:47:36.000Z</time>
      </trkpt>
      <trkpt lat="45.42473" lon="6.2149">
        <ele>2161.4</ele>
        <time>2022-07-22T23:47:46.000Z</time>
      </trkpt>
      <trkpt lat="45.4249" lon="6.21466">
        <ele>2174</ele>
        <time>2022-07-22T23:47:56.000Z</time>
      </trkpt>
      <trkpt lat="45.42489" lon="6.2146">
        <ele>2154.7</ele>
        <time>2022-07-22T23:48:06.000Z</time>
      </trkpt>
      <trkpt lat="45.425" lon="6.21431">
        <ele>2159</ele>
        <time>2022-07-22T23:48:16.000Z</time>
      </trkpt>
      <trkpt lat="45.42499" lon="6.21422">
        <ele>2138.9</ele>
        <time>2022-07-22T23:48:26.000Z</time>
      </trkpt>
      <trkpt lat="45.42505" lon="6.21383">
        <ele>2134</ele>
        <time>2022-07-22T23:48:36.000Z</time>
      </trkpt>
      <trkpt lat="45.425" lon="6.21377">
        <ele>2123.9</ele>
        <time>2022-07-22T23:48:46.000Z</time>
      </trkpt>
      <trkpt lat="45.42498" lon="6.21359">
        <ele>2134</ele>
        <time>2022-07-22T23:48:56.000Z</time>
      </trkpt>
      <trkpt lat="45.42498" lon="6.2134">
        <ele>2105.5</ele>
        <time>2022-07-22T23:49:06.000Z</time>
      </trkpt>
      <trkpt lat="45.42492" lon="6.21334">
        <ele>2116</ele>
        <time>2022-07-22T23:49:16.000Z</time>
      </trkpt>
      <trkpt lat="45.42491" lon="6.21324">
        <ele>2093.1</ele>
        <time>2022-07-22T23:49:26.000Z</time>
      </trkpt>
      <trkpt lat="45.42492" lon="6.21311">
        <ele>2084.5</ele>
        <time>2022-07-22T23:49:36.000Z</time>
      </trkpt>
      <trkpt lat="45.42522" lon="6.21288">
        <ele>2073</ele>
        <time>2022-07-22T23:49:46.000Z</time>
      </trkpt>
      <trkpt lat="45.42538" lon="6.21281">
        <ele>2067.6</ele>
        <time>2022-07-22T23:49:56.000Z</time>
      </trkpt>
      <trkpt lat="45.42555" lon="6.21269">
        <ele>2066</ele>
        <time>2022-07-22T23:50:06.000Z</time>
      </trkpt>
      <trkpt lat="45.4257" lon="6.21255">
        <ele>2058.4</ele>
        <time>2022-07-22T23:50:16.000Z</time>
      </trkpt>
      <trkpt lat="45.42582" lon="6.21238">
        <ele>2059</ele>
        <time>2022-07-22T23:50:26.000Z</time>
      </trkpt>
      <trkpt lat="45.42593" lon="6.21221">
        <ele>2047.2</ele>
        <time>2022-07-22T23:50:36.000Z</time>
      </trkpt>
      <trkpt lat="45.42611" lon="6.21181">
        <ele>2029</ele>
        <time>2022-07-22T23:50:46.000Z</time>
      </trkpt>
      <trkpt lat="45.42617" lon="6.21173">
        <ele>2031.1</ele>
        <time>2022-07-22T23:50:56.000Z</time>
      </trkpt>
      <trkpt lat="45.42628" lon="6.21153">
        <ele>2015</ele>
        <time>2022-07-22T23:51:06.000Z</time>
      </trkpt>
      <trkpt lat="45.42641" lon="6.21144">
        <ele>2015.8</ele>
        <time>2022-07-22T23:51:16.000Z</time>
      </trkpt>
      <trkpt lat="45.42665" lon="6.21139">
        <ele>2000</ele>
        <time>2022-07-22T23:51:26.000Z</time>
      </trkpt>
      <trkpt lat="45.42676" lon="6.21131">
        <ele>1997.9</ele>
        <time>2022-07-22T23:51:36.000Z</time>
      </trkpt>
      <trkpt lat="45.42689" lon="6.21126">
        <ele>1994</ele>
        <time>2022-07-22T23:51:46.000Z</time>
      </trkpt>
      <trkpt lat="45.42701" lon="6.21129">
        <ele>1994.1</ele>
        <time>2022-07-22T23:51:56.000Z</time>
      </trkpt>
      <trkpt lat="45.42744" lon="6.21123">
        <ele>1992</ele>
        <time>2022-07-22T23:52:06.000Z</time>
      </trkpt>
      <trkpt lat="45.4276" lon="6.21124">
        <ele>1987.2</ele>
        <time>2022-07-22T23:52:16.000Z</time>
      </trkpt>
      <trkpt lat="45.42796" lon="6.21132">
        <ele>1993</ele>
        <time>2022-07-22T23:52:26.000Z</time>
      </trkpt>
      <trkpt lat="45.42805" lon="6.21135">
        <ele>1986</ele>
        <time>2022-07-22T23:52:36.000Z</time>
      </trkpt>
      <trkpt lat="45.4287" lon="6.21177">
        <ele>1995</ele>
        <time>2022-07-22T23:52:46.000Z</time>
      </trkpt>
      <trkpt lat="45.42899" lon="6.21206">
        <ele>1996</ele>
        <time>2022-07-22T23:52:56.000Z</time>
      </trkpt>
      <trkpt lat="45.42921" lon="6.21214">
        <ele>1997</ele>
        <time>2022-07-22T23:53:06.000Z</time>
      </trkpt>
      <trkpt lat="45.42951" lon="6.21235">
        <ele>1989</ele>
        <time>2022-07-22T23:53:16.000Z</time>
      </trkpt>
      <trkpt lat="45.42977" lon="6.2125">
        <ele>1982</ele>
        <time>2022-07-22T23:53:26.000Z</time>
      </trkpt>
      <trkpt lat="45.43016" lon="6.21272">
        <ele>1969</ele>
        <time>2022-07-22T23:53:36.000Z</time>
      </trkpt>
      <trkpt lat="45.43038" lon="6.21295">
        <ele>1969</ele>
        <time>2022-07-22T23:53:46.000Z</time>
      </trkpt>
      <trkpt lat="45.43072" lon="6.21309">
        <ele>1962</ele>
        <time>2022-07-22T23:53:56.000Z</time>
      </trkpt>
      <trkpt lat="45.43097" lon="6.21304">
        <ele>1962</ele>
        <time>2022-07-22T23:54:06.000Z</time>
      </trkpt>
      <trkpt lat="45.43125" lon="6.21299">
        <ele>1964</ele>
        <time>2022-07-22T23:54:16.000Z</time>
      </trkpt>
      <trkpt lat="45.43137" lon="6.21293">
        <ele>1949</ele>
        <time>2022-07-22T23:54:26.000Z</time>
      </trkpt>
      <trkpt lat="45.43168" lon="6.21296">
        <ele>1962</ele>
        <time>2022-07-22T23:54:36.000Z</time>
      </trkpt>
      <trkpt lat="45.43197" lon="6.21312">
        <ele>1961</ele>
        <time>2022-07-22T23:54:46.000Z</time>
      </trkpt>
      <trkpt lat="45.43223" lon="6.21302">
        <ele>1949</ele>
        <time>2022-07-22T23:54:56.000Z</time>
      </trkpt>
      <trkpt lat="45.43237" lon="6.21302">
        <ele>1936</ele>
        <time>2022-07-22T23:55:06.000Z</time>
      </trkpt>
      <trkpt lat="45.43254" lon="6.21303">
        <ele>1943</ele>
        <time>2022-07-22T23:55:16.000Z</time>
      </trkpt>
      <trkpt lat="45.43264" lon="6.21321">
        <ele>1935.1</ele>
        <time>2022-07-22T23:55:26.000Z</time>
      </trkpt>
      <trkpt lat="45.43272" lon="6.21359">
        <ele>1929</ele>
        <time>2022-07-22T23:55:36.000Z</time>
      </trkpt>
      <trkpt lat="45.43287" lon="6.21372">
        <ele>1923.8</ele>
        <time>2022-07-22T23:55:46.000Z</time>
      </trkpt>
      <trkpt lat="45.43324" lon="6.21371">
        <ele>1930</ele>
        <time>2022-07-22T23:55:56.000Z</time>
      </trkpt>
      <trkpt lat="45.4335" lon="6.21379">
        <ele>1926</ele>
        <time>2022-07-22T23:56:06.000Z</time>
      </trkpt>
      <trkpt lat="45.43358" lon="6.21392">
        <ele>1907.2</ele>
        <time>2022-07-22T23:56:16.000Z</time>
      </trkpt>
      <trkpt lat="45.43372" lon="6.21395">
        <ele>1922</ele>
        <time>2022-07-22T23:56:26.000Z</time>
      </trkpt>
      <trkpt lat="45.434" lon="6.21416">
        <ele>1919</ele>
        <time>2022-07-22T23:56:36.000Z</time>
      </trkpt>
      <trkpt lat="45.43419" lon="6.21429">
        <ele>1917</ele>
        <time>2022-07-22T23:56:46.000Z</time>
      </trkpt>
      <trkpt lat="45.4343" lon="6.21447">
        <ele>1892</ele>
        <time>2022-07-22T23:56:56.000Z</time>
      </trkpt>
      <trkpt lat="45.43434" lon="6.21472">
        <ele>1910</ele>
        <time>2022-07-22T23:57:06.000Z</time>
      </trkpt>
      <trkpt lat="45.43465" lon="6.21505">
        <ele>1904</ele>
        <time>2022-07-22T23:57:16.000Z</time>
      </trkpt>
      <trkpt lat="45.43497" lon="6.21499">
        <ele>1902</ele>
        <time>2022-07-22T23:57:26.000Z</time>
      </trkpt>
      <trkpt lat="45.43526" lon="6.21518">
        <ele>1891</ele>
        <time>2022-07-22T23:57:36.000Z</time>
      </trkpt>
      <trkpt lat="45.43555" lon="6.21537">
        <ele>1888</ele>
        <time>2022-07-22T23:57:46.000Z</time>
      </trkpt>
      <trkpt lat="45.43586" lon="6.21557">
        <ele>1890</ele>
        <time>2022-07-22T23:57:56.000Z</time>
      </trkpt>
      <trkpt lat="45.43604" lon="6.21576">
        <ele>1892</ele>
        <time>2022-07-22T23:58:06.000Z</time>
      </trkpt>
      <trkpt lat="45.43623" lon="6.2158">
        <ele>1892</ele>
        <time>2022-07-22T23:58:16.000Z</time>
      </trkpt>
      <trkpt lat="45.43646" lon="6.21589">
        <ele>1885</ele>
        <time>2022-07-22T23:58:26.000Z</time>
      </trkpt>
      <trkpt lat="45.43672" lon="6.21622">
        <ele>1885</ele>
        <time>2022-07-22T23:58:36.000Z</time>
      </trkpt>
      <trkpt lat="45.43699" lon="6.21654">
        <ele>1891</ele>
        <time>2022-07-22T23:58:46.000Z</time>
      </trkpt>
      <trkpt lat="45.4372" lon="6.2168">
        <ele>1891</ele>
        <time>2022-07-22T23:58:56.000Z</time>
      </trkpt>
      <trkpt lat="45.43748" lon="6.21715">
        <ele>1882</ele>
        <time>2022-07-22T23:59:06.000Z</time>
      </trkpt>
      <trkpt lat="45.43751" lon="6.21733">
        <ele>1871.5</ele>
        <time>2022-07-22T23:59:16.000Z</time>
      </trkpt>
      <trkpt lat="45.43829" lon="6.2172">
        <ele>1875</ele>
        <time>2022-07-22T23:59:26.000Z</time>
      </trkpt>
      <trkpt lat="45.43861" lon="6.21728">
        <ele>1873</ele>
        <time>2022-07-22T23:59:36.000Z</time>
      </trkpt>
      <trkpt lat="45.43889" lon="6.21744">
        <ele>1872</ele>
        <time>2022-07-22T23:59:46.000Z</time>
      </trkpt>
      <trkpt lat="45.43907" lon="6.21743">
        <ele>1862.9</ele>
        <time>2022-07-22T23:59:56.000Z</time>
      </trkpt>
      <trkpt lat="45.43916" lon="6.21726">
        <ele>1874</ele>
        <time>2022-07-23T00:00:06.000Z</time>
      </trkpt>
      <trkpt lat="45.43927" lon="6.21722">
        <ele>1865.4</ele>
        <time>2022-07-23T00:00:16.000Z</time>
      </trkpt>
      <trkpt lat="45.43948" lon="6.21745">
        <ele>1876</ele>
        <time>2022-07-23T00:00:26.000Z</time>
      </trkpt>
      <trkpt lat="45.43957" lon="6.2175">
        <ele>1871.8</ele>
        <time>2022-07-23T00:00:36.000Z</time>
      </trkpt>
      <trkpt lat="45.43995" lon="6.21763">
        <ele>1883</ele>
        <time>2022-07-23T00:00:46.000Z</time>
      </trkpt>
      <trkpt lat="45.44009" lon="6.21758">
        <ele>1884.5</ele>
        <time>2022-07-23T00:00:56.000Z</time>
      </trkpt>
      <trkpt lat="45.44033" lon="6.21764">
        <ele>1890</ele>
        <time>2022-07-23T00:01:06.000Z</time>
      </trkpt>
      <trkpt lat="45.44048" lon="6.21769">
        <ele>1896.6</ele>
        <time>2022-07-23T00:01:16.000Z</time>
      </trkpt>
      <trkpt lat="45.4406" lon="6.21751">
        <ele>1897</ele>
        <time>2022-07-23T00:01:26.000Z</time>
      </trkpt>
      <trkpt lat="45.44088" lon="6.21716">
        <ele>1901</ele>
        <time>2022-07-23T00:01:36.000Z</time>
      </trkpt>
      <trkpt lat="45.44116" lon="6.21696">
        <ele>1906</ele>
        <time>2022-07-23T00:01:46.000Z</time>
      </trkpt>
      <trkpt lat="45.44153" lon="6.21699">
        <ele>1908</ele>
        <time>2022-07-23T00:01:56.000Z</time>
      </trkpt>
      <trkpt lat="45.44186" lon="6.21701">
        <ele>1910</ele>
        <time>2022-07-23T00:02:06.000Z</time>
      </trkpt>
      <trkpt lat="45.44217" lon="6.21702">
        <ele>1913</ele>
        <time>2022-07-23T00:02:16.000Z</time>
      </trkpt>
      <trkpt lat="45.44243" lon="6.21704">
        <ele>1914</ele>
        <time>2022-07-23T00:02:26.000Z</time>
      </trkpt>
      <trkpt lat="45.44275" lon="6.21706">
        <ele>1920</ele>
        <time>2022-07-23T00:02:36.000Z</time>
      </trkpt>
      <trkpt lat="45.44311" lon="6.21695">
        <ele>1921</ele>
        <time>2022-07-23T00:02:46.000Z</time>
      </trkpt>
      <trkpt lat="45.44339" lon="6.21687">
        <ele>1918</ele>
        <time>2022-07-23T00:02:56.000Z</time>
      </trkpt>
      <trkpt lat="45.44382" lon="6.21675">
        <ele>1916</ele>
        <time>2022-07-23T00:03:06.000Z</time>
      </trkpt>
      <trkpt lat="45.44406" lon="6.21667">
        <ele>1916</ele>
        <time>2022-07-23T00:03:16.000Z</time>
      </trkpt>
      <trkpt lat="45.44433" lon="6.21659">
        <ele>1915</ele>
        <time>2022-07-23T00:03:26.000Z</time>
      </trkpt>
      <trkpt lat="45.44453" lon="6.2164">
        <ele>1917</ele>
        <time>2022-07-23T00:03:36.000Z</time>
      </trkpt>
      <trkpt lat="45.44474" lon="6.2162">
        <ele>1919</ele>
        <time>2022-07-23T00:03:46.000Z</time>
      </trkpt>
      <trkpt lat="45.44497" lon="6.21597">
        <ele>1932</ele>
        <time>2022-07-23T00:03:56.000Z</time>
      </trkpt>
      <trkpt lat="45.4453" lon="6.21564">
        <ele>1946</ele>
        <time>2022-07-23T00:04:06.000Z</time>
      </trkpt>
      <trkpt lat="45.44563" lon="6.21533">
        <ele>1955</ele>
        <time>2022-07-23T00:04:16.000Z</time>
      </trkpt>
      <trkpt lat="45.44587" lon="6.21509">
        <ele>1960</ele>
        <time>2022-07-23T00:04:26.000Z</time>
      </trkpt>
      <trkpt lat="45.44607" lon="6.2149">
        <ele>1971</ele>
        <time>2022-07-23T00:04:36.000Z</time>
      </trkpt>
      <trkpt lat="45.44628" lon="6.2147">
        <ele>1971</ele>
        <time>2022-07-23T00:04:46.000Z</time>
      </trkpt>
      <trkpt lat="45.44657" lon="6.21458">
        <ele>1975</ele>
        <time>2022-07-23T00:04:56.000Z</time>
      </trkpt>
      <trkpt lat="45.4467" lon="6.21464">
        <ele>1986.6</ele>
        <time>2022-07-23T00:05:06.000Z</time>
      </trkpt>
      <trkpt lat="45.44713" lon="6.21463">
        <ele>1977</ele>
        <time>2022-07-23T00:05:16.000Z</time>
      </trkpt>
      <trkpt lat="45.44747" lon="6.21477">
        <ele>1979</ele>
        <time>2022-07-23T00:05:26.000Z</time>
      </trkpt>
      <trkpt lat="45.44788" lon="6.21478">
        <ele>1976</ele>
        <time>2022-07-23T00:05:36.000Z</time>
      </trkpt>
      <trkpt lat="45.44823" lon="6.21461">
        <ele>1973</ele>
        <time>2022-07-23T00:05:46.000Z</time>
      </trkpt>
      <trkpt lat="45.44859" lon="6.21445">
        <ele>1969</ele>
        <time>2022-07-23T00:05:56.000Z</time>
      </trkpt>
      <trkpt lat="45.44891" lon="6.2143">
        <ele>1966</ele>
        <time>2022-07-23T00:06:06.000Z</time>
      </trkpt>
      <trkpt lat="45.44922" lon="6.21415">
        <ele>1966</ele>
        <time>2022-07-23T00:06:16.000Z</time>
      </trkpt>
      <trkpt lat="45.44967" lon="6.21394">
        <ele>1964</ele>
        <time>2022-07-23T00:06:26.000Z</time>
      </trkpt>
      <trkpt lat="45.44984" lon="6.21374">
        <ele>1964</ele>
        <time>2022-07-23T00:06:36.000Z</time>
      </trkpt>
      <trkpt lat="45.45012" lon="6.21355">
        <ele>1964</ele>
        <time>2022-07-23T00:06:46.000Z</time>
      </trkpt>
      <trkpt lat="45.45044" lon="6.21354">
        <ele>1963</ele>
        <time>2022-07-23T00:06:56.000Z</time>
      </trkpt>
      <trkpt lat="45.45072" lon="6.21331">
        <ele>1963</ele>
        <time>2022-07-23T00:07:06.000Z</time>
      </trkpt>
      <trkpt lat="45.45113" lon="6.21322">
        <ele>1963</ele>
        <time>2022-07-23T00:07:16.000Z</time>
      </trkpt>
      <trkpt lat="45.45141" lon="6.21309">
        <ele>1963</ele>
        <time>2022-07-23T00:07:26.000Z</time>
      </trkpt>
      <trkpt lat="45.4519" lon="6.21287">
        <ele>1964</ele>
        <time>2022-07-23T00:07:36.000Z</time>
      </trkpt>
      <trkpt lat="45.45222" lon="6.21304">
        <ele>1966</ele>
        <time>2022-07-23T00:07:46.000Z</time>
      </trkpt>
      <trkpt lat="45.45253" lon="6.21322">
        <ele>1960</ele>
        <time>2022-07-23T00:07:56.000Z</time>
      </trkpt>
      <trkpt lat="45.45274" lon="6.21327">
        <ele>1954</ele>
        <time>2022-07-23T00:08:06.000Z</time>
      </trkpt>
      <trkpt lat="45.45297" lon="6.21347">
        <ele>1954</ele>
        <time>2022-07-23T00:08:16.000Z</time>
      </trkpt>
      <trkpt lat="45.45309" lon="6.21342">
        <ele>1942.8</ele>
        <time>2022-07-23T00:08:26.000Z</time>
      </trkpt>
      <trkpt lat="45.45316" lon="6.21323">
        <ele>1939</ele>
        <time>2022-07-23T00:08:36.000Z</time>
      </trkpt>
      <trkpt lat="45.45346" lon="6.2134">
        <ele>1930</ele>
        <time>2022-07-23T00:08:46.000Z</time>
      </trkpt>
      <trkpt lat="45.45373" lon="6.21354">
        <ele>1924</ele>
        <time>2022-07-23T00:08:56.000Z</time>
      </trkpt>
      <trkpt lat="45.45418" lon="6.21378">
        <ele>1905</ele>
        <time>2022-07-23T00:09:06.000Z</time>
      </trkpt>
      <trkpt lat="45.45437" lon="6.2137">
        <ele>1905</ele>
        <time>2022-07-23T00:09:16.000Z</time>
      </trkpt>
      <trkpt lat="45.45474" lon="6.21388">
        <ele>1896</ele>
        <time>2022-07-23T00:09:26.000Z</time>
      </trkpt>
      <trkpt lat="45.45516" lon="6.21398">
        <ele>1894</ele>
        <time>2022-07-23T00:09:36.000Z</time>
      </trkpt>
      <trkpt lat="45.45542" lon="6.21416">
        <ele>1896</ele>
        <time>2022-07-23T00:09:46.000Z</time>
      </trkpt>
      <trkpt lat="45.45564" lon="6.2143">
        <ele>1899</ele>
        <time>2022-07-23T00:09:56.000Z</time>
      </trkpt>
      <trkpt lat="45.45586" lon="6.21445">
        <ele>1900</ele>
        <time>2022-07-23T00:10:06.000Z</time>
      </trkpt>
      <trkpt lat="45.45616" lon="6.21472">
        <ele>1901</ele>
        <time>2022-07-23T00:10:16.000Z</time>
      </trkpt>
      <trkpt lat="45.45638" lon="6.21493">
        <ele>1901</ele>
        <time>2022-07-23T00:10:26.000Z</time>
      </trkpt>
      <trkpt lat="45.45662" lon="6.21516">
        <ele>1901</ele>
        <time>2022-07-23T00:10:36.000Z</time>
      </trkpt>
      <trkpt lat="45.457" lon="6.21554">
        <ele>1898</ele>
        <time>2022-07-23T00:10:46.000Z</time>
      </trkpt>
      <trkpt lat="45.4572" lon="6.21586">
        <ele>1893</ele>
        <time>2022-07-23T00:10:56.000Z</time>
      </trkpt>
      <trkpt lat="45.45737" lon="6.21612">
        <ele>1889</ele>
        <time>2022-07-23T00:11:06.000Z</time>
      </trkpt>
      <trkpt lat="45.45755" lon="6.2164">
        <ele>1886</ele>
        <time>2022-07-23T00:11:16.000Z</time>
      </trkpt>
      <trkpt lat="45.4578" lon="6.21668">
        <ele>1872</ele>
        <time>2022-07-23T00:11:26.000Z</time>
      </trkpt>
      <trkpt lat="45.45805" lon="6.21695">
        <ele>1863</ele>
        <time>2022-07-23T00:11:36.000Z</time>
      </trkpt>
      <trkpt lat="45.45831" lon="6.21724">
        <ele>1862</ele>
        <time>2022-07-23T00:11:46.000Z</time>
      </trkpt>
      <trkpt lat="45.45859" lon="6.21753">
        <ele>1862</ele>
        <time>2022-07-23T00:11:56.000Z</time>
      </trkpt>
      <trkpt lat="45.45873" lon="6.21785">
        <ele>1857</ele>
        <time>2022-07-23T00:12:06.000Z</time>
      </trkpt>
      <trkpt lat="45.45892" lon="6.21826">
        <ele>1839</ele>
        <time>2022-07-23T00:12:16.000Z</time>
      </trkpt>
      <trkpt lat="45.45916" lon="6.21844">
        <ele>1834</ele>
        <time>2022-07-23T00:12:26.000Z</time>
      </trkpt>
      <trkpt lat="45.4593" lon="6.21871">
        <ele>1834</ele>
        <time>2022-07-23T00:12:36.000Z</time>
      </trkpt>
      <trkpt lat="45.45948" lon="6.21892">
        <ele>1819</ele>
        <time>2022-07-23T00:12:46.000Z</time>
      </trkpt>
      <trkpt lat="45.45978" lon="6.21914">
        <ele>1804</ele>
        <time>2022-07-23T00:12:56.000Z</time>
      </trkpt>
      <trkpt lat="45.45984" lon="6.21934">
        <ele>1790.5</ele>
        <time>2022-07-23T00:13:06.000Z</time>
      </trkpt>
      <trkpt lat="45.45997" lon="6.21941">
        <ele>1790</ele>
        <time>2022-07-23T00:13:16.000Z</time>
      </trkpt>
      <trkpt lat="45.46005" lon="6.21964">
        <ele>1776.5</ele>
        <time>2022-07-23T00:13:26.000Z</time>
      </trkpt>
      <trkpt lat="45.46023" lon="6.21976">
        <ele>1774</ele>
        <time>2022-07-23T00:13:36.000Z</time>
      </trkpt>
      <trkpt lat="45.46036" lon="6.21967">
        <ele>1758.7</ele>
        <time>2022-07-23T00:13:46.000Z</time>
      </trkpt>
      <trkpt lat="45.46063" lon="6.21999">
        <ele>1757</ele>
        <time>2022-07-23T00:13:56.000Z</time>
      </trkpt>
      <trkpt lat="45.46076" lon="6.22001">
        <ele>1737.9</ele>
        <time>2022-07-23T00:14:06.000Z</time>
      </trkpt>
      <trkpt lat="45.4613" lon="6.2204">
        <ele>1725</ele>
        <time>2022-07-23T00:14:16.000Z</time>
      </trkpt>
      <trkpt lat="45.46135" lon="6.22036">
        <ele>1722.5</ele>
        <time>2022-07-23T00:14:26.000Z</time>
      </trkpt>
      <trkpt lat="45.46137" lon="6.22018">
        <ele>1721.7</ele>
        <time>2022-07-23T00:14:36.000Z</time>
      </trkpt>
      <trkpt lat="45.46147" lon="6.21994">
        <ele>1721</ele>
        <time>2022-07-23T00:14:46.000Z</time>
      </trkpt>
      <trkpt lat="45.46164" lon="6.21971">
        <ele>1716</ele>
        <time>2022-07-23T00:14:56.000Z</time>
      </trkpt>
      <trkpt lat="45.46181" lon="6.21958">
        <ele>1704</ele>
        <time>2022-07-23T00:15:06.000Z</time>
      </trkpt>
      <trkpt lat="45.46197" lon="6.21944">
        <ele>1699.6</ele>
        <time>2022-07-23T00:15:16.000Z</time>
      </trkpt>
      <trkpt lat="45.46229" lon="6.21941">
        <ele>1699</ele>
        <time>2022-07-23T00:15:26.000Z</time>
      </trkpt>
      <trkpt lat="45.46239" lon="6.21941">
        <ele>1692.7</ele>
        <time>2022-07-23T00:15:36.000Z</time>
      </trkpt>
      <trkpt lat="45.4628" lon="6.21966">
        <ele>1698</ele>
        <time>2022-07-23T00:15:46.000Z</time>
      </trkpt>
      <trkpt lat="45.4629" lon="6.21967">
        <ele>1685.9</ele>
        <time>2022-07-23T00:15:56.000Z</time>
      </trkpt>
      <trkpt lat="45.46312" lon="6.21971">
        <ele>1690</ele>
        <time>2022-07-23T00:16:06.000Z</time>
      </trkpt>
      <trkpt lat="45.46329" lon="6.21984">
        <ele>1670</ele>
        <time>2022-07-23T00:16:16.000Z</time>
      </trkpt>
      <trkpt lat="45.46352" lon="6.21989">
        <ele>1666</ele>
        <time>2022-07-23T00:16:26.000Z</time>
      </trkpt>
      <trkpt lat="45.46368" lon="6.21986">
        <ele>1665.6</ele>
        <time>2022-07-23T00:16:36.000Z</time>
      </trkpt>
      <trkpt lat="45.46387" lon="6.21972">
        <ele>1663</ele>
        <time>2022-07-23T00:16:46.000Z</time>
      </trkpt>
      <trkpt lat="45.46406" lon="6.21972">
        <ele>1663</ele>
        <time>2022-07-23T00:16:56.000Z</time>
      </trkpt>
      <trkpt lat="45.46422" lon="6.2197">
        <ele>1651.3</ele>
        <time>2022-07-23T00:17:06.000Z</time>
      </trkpt>
      <trkpt lat="45.4644" lon="6.21966">
        <ele>1649</ele>
        <time>2022-07-23T00:17:16.000Z</time>
      </trkpt>
      <trkpt lat="45.46445" lon="6.21943">
        <ele>1642.8</ele>
        <time>2022-07-23T00:17:26.000Z</time>
      </trkpt>
      <trkpt lat="45.46467" lon="6.21932">
        <ele>1638</ele>
        <time>2022-07-23T00:17:36.000Z</time>
      </trkpt>
      <trkpt lat="45.46478" lon="6.21921">
        <ele>1634.6</ele>
        <time>2022-07-23T00:17:46.000Z</time>
      </trkpt>
      <trkpt lat="45.46493" lon="6.21914">
        <ele>1628</ele>
        <time>2022-07-23T00:17:56.000Z</time>
      </trkpt>
      <trkpt lat="45.46516" lon="6.2191">
        <ele>1628</ele>
        <time>2022-07-23T00:18:06.000Z</time>
      </trkpt>
      <trkpt lat="45.46537" lon="6.21911">
        <ele>1625</ele>
        <time>2022-07-23T00:18:16.000Z</time>
      </trkpt>
      <trkpt lat="45.46554" lon="6.21909">
        <ele>1618</ele>
        <time>2022-07-23T00:18:26.000Z</time>
      </trkpt>
      <trkpt lat="45.46574" lon="6.21909">
        <ele>1620</ele>
        <time>2022-07-23T00:18:36.000Z</time>
      </trkpt>
      <trkpt lat="45.46604" lon="6.21902">
        <ele>1616</ele>
        <time>2022-07-23T00:18:46.000Z</time>
      </trkpt>
      <trkpt lat="45.46609" lon="6.21892">
        <ele>1609.3</ele>
        <time>2022-07-23T00:18:56.000Z</time>
      </trkpt>
      <trkpt lat="45.46609" lon="6.21881">
        <ele>1607.9</ele>
        <time>2022-07-23T00:19:06.000Z</time>
      </trkpt>
      <trkpt lat="45.46598" lon="6.21865">
        <ele>1606</ele>
        <time>2022-07-23T00:19:16.000Z</time>
      </trkpt>
      <trkpt lat="45.46587" lon="6.21854">
        <ele>1599.5</ele>
        <time>2022-07-23T00:19:26.000Z</time>
      </trkpt>
      <trkpt lat="45.46585" lon="6.21841">
        <ele>1600</ele>
        <time>2022-07-23T00:19:36.000Z</time>
      </trkpt>
      <trkpt lat="45.46592" lon="6.21826">
        <ele>1591.1</ele>
        <time>2022-07-23T00:19:46.000Z</time>
      </trkpt>
      <trkpt lat="45.46598" lon="6.21798">
        <ele>1583</ele>
        <time>2022-07-23T00:19:56.000Z</time>
      </trkpt>
      <trkpt lat="45.46593" lon="6.21786">
        <ele>1577.7</ele>
        <time>2022-07-23T00:20:06.000Z</time>
      </trkpt>
      <trkpt lat="45.4659" lon="6.21768">
        <ele>1572</ele>
        <time>2022-07-23T00:20:16.000Z</time>
      </trkpt>
      <trkpt lat="45.4659" lon="6.21748">
        <ele>1567.6</ele>
        <time>2022-07-23T00:20:26.000Z</time>
      </trkpt>
      <trkpt lat="45.46588" lon="6.21726">
        <ele>1564</ele>
        <time>2022-07-23T00:20:36.000Z</time>
      </trkpt>
      <trkpt lat="45.46588" lon="6.21691">
        <ele>1559</ele>
        <time>2022-07-23T00:20:46.000Z</time>
      </trkpt>
      <trkpt lat="45.46599" lon="6.21652">
        <ele>1553</ele>
        <time>2022-07-23T00:20:56.000Z</time>
      </trkpt>
      <trkpt lat="45.46596" lon="6.21621">
        <ele>1552</ele>
        <time>2022-07-23T00:21:06.000Z</time>
      </trkpt>
      <trkpt lat="45.46614" lon="6.2164">
        <ele>1552</ele>
        <time>2022-07-23T00:21:16.000Z</time>
      </trkpt>
      <trkpt lat="45.46632" lon="6.21667">
        <ele>1551</ele>
        <time>2022-07-23T00:21:26.000Z</time>
      </trkpt>
      <trkpt lat="45.46655" lon="6.21698">
        <ele>1550</ele>
        <time>2022-07-23T00:21:36.000Z</time>
      </trkpt>
      <trkpt lat="45.46672" lon="6.21717">
        <ele>1550</ele>
        <time>2022-07-23T00:21:46.000Z</time>
      </trkpt>
      <trkpt lat="45.46692" lon="6.21728">
        <ele>1542</ele>
        <time>2022-07-23T00:21:56.000Z</time>
      </trkpt>
      <trkpt lat="45.46714" lon="6.21737">
        <ele>1535</ele>
        <time>2022-07-23T00:22:06.000Z</time>
      </trkpt>
      <trkpt lat="45.46729" lon="6.21747">
        <ele>1525.9</ele>
        <time>2022-07-23T00:22:16.000Z</time>
      </trkpt>
      <trkpt lat="45.46746" lon="6.21754">
        <ele>1535</ele>
        <time>2022-07-23T00:22:26.000Z</time>
      </trkpt>
      <trkpt lat="45.46778" lon="6.21771">
        <ele>1531</ele>
        <time>2022-07-23T00:22:36.000Z</time>
      </trkpt>
      <trkpt lat="45.46805" lon="6.21781">
        <ele>1527</ele>
        <time>2022-07-23T00:22:46.000Z</time>
      </trkpt>
      <trkpt lat="45.4683" lon="6.21789">
        <ele>1525</ele>
        <time>2022-07-23T00:22:56.000Z</time>
      </trkpt>
      <trkpt lat="45.46861" lon="6.21799">
        <ele>1520</ele>
        <time>2022-07-23T00:23:06.000Z</time>
      </trkpt>
      <trkpt lat="45.46882" lon="6.21792">
        <ele>1518</ele>
        <time>2022-07-23T00:23:16.000Z</time>
      </trkpt>
      <trkpt lat="45.46898" lon="6.21793">
        <ele>1504.6</ele>
        <time>2022-07-23T00:23:26.000Z</time>
      </trkpt>
      <trkpt lat="45.46924" lon="6.21793">
        <ele>1505</ele>
        <time>2022-07-23T00:23:36.000Z</time>
      </trkpt>
      <trkpt lat="45.46944" lon="6.21796">
        <ele>1507</ele>
        <time>2022-07-23T00:23:46.000Z</time>
      </trkpt>
      <trkpt lat="45.46969" lon="6.21806">
        <ele>1502</ele>
        <time>2022-07-23T00:23:56.000Z</time>
      </trkpt>
      <trkpt lat="45.46992" lon="6.21816">
        <ele>1505</ele>
        <time>2022-07-23T00:24:06.000Z</time>
      </trkpt>
      <trkpt lat="45.47015" lon="6.21826">
        <ele>1505</ele>
        <time>2022-07-23T00:24:16.000Z</time>
      </trkpt>
      <trkpt lat="45.47029" lon="6.21838">
        <ele>1487.5</ele>
        <time>2022-07-23T00:24:26.000Z</time>
      </trkpt>
      <trkpt lat="45.47049" lon="6.2185">
        <ele>1494</ele>
        <time>2022-07-23T00:24:36.000Z</time>
      </trkpt>
      <trkpt lat="45.47065" lon="6.21863">
        <ele>1478.9</ele>
        <time>2022-07-23T00:24:46.000Z</time>
      </trkpt>
      <trkpt lat="45.47089" lon="6.21874">
        <ele>1490</ele>
        <time>2022-07-23T00:24:56.000Z</time>
      </trkpt>
      <trkpt lat="45.47113" lon="6.21896">
        <ele>1487</ele>
        <time>2022-07-23T00:25:06.000Z</time>
      </trkpt>
      <trkpt lat="45.47135" lon="6.21907">
        <ele>1472</ele>
        <time>2022-07-23T00:25:16.000Z</time>
      </trkpt>
      <trkpt lat="45.4715" lon="6.21918">
        <ele>1467.3</ele>
        <time>2022-07-23T00:25:26.000Z</time>
      </trkpt>
      <trkpt lat="45.47165" lon="6.21922">
        <ele>1473</ele>
        <time>2022-07-23T00:25:36.000Z</time>
      </trkpt>
      <trkpt lat="45.47178" lon="6.21915">
        <ele>1465.1</ele>
        <time>2022-07-23T00:25:46.000Z</time>
      </trkpt>
      <trkpt lat="45.47193" lon="6.21901">
        <ele>1471</ele>
        <time>2022-07-23T00:25:56.000Z</time>
      </trkpt>
      <trkpt lat="45.47201" lon="6.21882">
        <ele>1460.9</ele>
        <time>2022-07-23T00:26:06.000Z</time>
      </trkpt>
      <trkpt lat="45.47201" lon="6.21839">
        <ele>1469</ele>
        <time>2022-07-23T00:26:16.000Z</time>
      </trkpt>
      <trkpt lat="45.47203" lon="6.2182">
        <ele>1451.9</ele>
        <time>2022-07-23T00:26:26.000Z</time>
      </trkpt>
      <trkpt lat="45.47203" lon="6.21806">
        <ele>1463</ele>
        <time>2022-07-23T00:26:36.000Z</time>
      </trkpt>
      <trkpt lat="45.47222" lon="6.21806">
        <ele>1457</ele>
        <time>2022-07-23T00:26:46.000Z</time>
      </trkpt>
      <trkpt lat="45.47238" lon="6.21813">
        <ele>1442.2</ele>
        <time>2022-07-23T00:26:56.000Z</time>
      </trkpt>
      <trkpt lat="45.47244" lon="6.2181">
        <ele>1447</ele>
        <time>2022-07-23T00:27:06.000Z</time>
      </trkpt>
      <trkpt lat="45.47254" lon="6.21828">
        <ele>1439</ele>
        <time>2022-07-23T00:27:16.000Z</time>
      </trkpt>
      <trkpt lat="45.47274" lon="6.21851">
        <ele>1446</ele>
        <time>2022-07-23T00:27:26.000Z</time>
      </trkpt>
      <trkpt lat="45.47283" lon="6.21857">
        <ele>1432.7</ele>
        <time>2022-07-23T00:27:36.000Z</time>
      </trkpt>
      <trkpt lat="45.47286" lon="6.2184">
        <ele>1439</ele>
        <time>2022-07-23T00:27:46.000Z</time>
      </trkpt>
      <trkpt lat="45.47288" lon="6.21809">
        <ele>1434</ele>
        <time>2022-07-23T00:27:56.000Z</time>
      </trkpt>
      <trkpt lat="45.47299" lon="6.21802">
        <ele>1421.3</ele>
        <time>2022-07-23T00:28:06.000Z</time>
      </trkpt>
      <trkpt lat="45.47313" lon="6.21808">
        <ele>1432</ele>
        <time>2022-07-23T00:28:16.000Z</time>
      </trkpt>
      <trkpt lat="45.47324" lon="6.21814">
        <ele>1414.9</ele>
        <time>2022-07-23T00:28:26.000Z</time>
      </trkpt>
      <trkpt lat="45.47343" lon="6.21823">
        <ele>1422</ele>
        <time>2022-07-23T00:28:36.000Z</time>
      </trkpt>
      <trkpt lat="45.47346" lon="6.21794">
        <ele>1411</ele>
        <time>2022-07-23T00:28:46.000Z</time>
      </trkpt>
      <trkpt lat="45.47358" lon="6.218">
        <ele>1397.2</ele>
        <time>2022-07-23T00:28:56.000Z</time>
      </trkpt>
      <trkpt lat="45.47371" lon="6.21821">
        <ele>1411</ele>
        <time>2022-07-23T00:29:06.000Z</time>
      </trkpt>
      <trkpt lat="45.47385" lon="6.21842">
        <ele>1396</ele>
        <time>2022-07-23T00:29:16.000Z</time>
      </trkpt>
      <trkpt lat="45.47396" lon="6.21854">
        <ele>1390.1</ele>
        <time>2022-07-23T00:29:26.000Z</time>
      </trkpt>
      <trkpt lat="45.47395" lon="6.21817">
        <ele>1388</ele>
        <time>2022-07-23T00:29:36.000Z</time>
      </trkpt>
      <trkpt lat="45.4739" lon="6.21789">
        <ele>1377</ele>
        <time>2022-07-23T00:29:46.000Z</time>
      </trkpt>
      <trkpt lat="45.47389" lon="6.21771">
        <ele>1374.7</ele>
        <time>2022-07-23T00:29:56.000Z</time>
      </trkpt>
      <trkpt lat="45.47411" lon="6.21789">
        <ele>1376</ele>
        <time>2022-07-23T00:30:06.000Z</time>
      </trkpt>
      <trkpt lat="45.47435" lon="6.21833">
        <ele>1376</ele>
        <time>2022-07-23T00:30:16.000Z</time>
      </trkpt>
      <trkpt lat="45.47443" lon="6.2182">
        <ele>1356</ele>
        <time>2022-07-23T00:30:26.000Z</time>
      </trkpt>
      <trkpt lat="45.47442" lon="6.21797">
        <ele>1373</ele>
        <time>2022-07-23T00:30:36.000Z</time>
      </trkpt>
      <trkpt lat="45.47432" lon="6.21773">
        <ele>1371</ele>
        <time>2022-07-23T00:30:46.000Z</time>
      </trkpt>
      <trkpt lat="45.47426" lon="6.21745">
        <ele>1369</ele>
        <time>2022-07-23T00:30:56.000Z</time>
      </trkpt>
      <trkpt lat="45.47436" lon="6.21737">
        <ele>1339.8</ele>
        <time>2022-07-23T00:31:06.000Z</time>
      </trkpt>
      <trkpt lat="45.47449" lon="6.21743">
        <ele>1349</ele>
        <time>2022-07-23T00:31:16.000Z</time>
      </trkpt>
      <trkpt lat="45.47461" lon="6.21763">
        <ele>1333.7</ele>
        <time>2022-07-23T00:31:26.000Z</time>
      </trkpt>
      <trkpt lat="45.47472" lon="6.21776">
        <ele>1344</ele>
        <time>2022-07-23T00:31:36.000Z</time>
      </trkpt>
      <trkpt lat="45.47481" lon="6.21777">
        <ele>1326.1</ele>
        <time>2022-07-23T00:31:46.000Z</time>
      </trkpt>
      <trkpt lat="45.47481" lon="6.21756">
        <ele>1334</ele>
        <time>2022-07-23T00:31:56.000Z</time>
      </trkpt>
      <trkpt lat="45.47474" lon="6.21729">
        <ele>1327</ele>
        <time>2022-07-23T00:32:06.000Z</time>
      </trkpt>
      <trkpt lat="45.47472" lon="6.21718">
        <ele>1317.2</ele>
        <time>2022-07-23T00:32:16.000Z</time>
      </trkpt>
      <trkpt lat="45.47473" lon="6.21708">
        <ele>1314.5</ele>
        <time>2022-07-23T00:32:26.000Z</time>
      </trkpt>
      <trkpt lat="45.47484" lon="6.21703">
        <ele>1324</ele>
        <time>2022-07-23T00:32:36.000Z</time>
      </trkpt>
      <trkpt lat="45.47497" lon="6.21715">
        <ele>1303.7</ele>
        <time>2022-07-23T00:32:46.000Z</time>
      </trkpt>
      <trkpt lat="45.47515" lon="6.21737">
        <ele>1321</ele>
        <time>2022-07-23T00:32:56.000Z</time>
      </trkpt>
      <trkpt lat="45.47533" lon="6.21767">
        <ele>1320</ele>
        <time>2022-07-23T00:33:06.000Z</time>
      </trkpt>
      <trkpt lat="45.4755" lon="6.21794">
        <ele>1300</ele>
        <time>2022-07-23T00:33:16.000Z</time>
      </trkpt>
      <trkpt lat="45.4759" lon="6.21825">
        <ele>1277</ele>
        <time>2022-07-23T00:33:26.000Z</time>
      </trkpt>
      <trkpt lat="45.47618" lon="6.2184">
        <ele>1264</ele>
        <time>2022-07-23T00:33:36.000Z</time>
      </trkpt>
      <trkpt lat="45.47624" lon="6.2184">
        <ele>1251.5</ele>
        <time>2022-07-23T00:33:46.000Z</time>
      </trkpt>
      <trkpt lat="45.47627" lon="6.21865">
        <ele>1254</ele>
        <time>2022-07-23T00:33:56.000Z</time>
      </trkpt>
      <trkpt lat="45.47637" lon="6.21847">
        <ele>1239</ele>
        <time>2022-07-23T00:34:06.000Z</time>
      </trkpt>
      <trkpt lat="45.47645" lon="6.21821">
        <ele>1257</ele>
        <time>2022-07-23T00:34:16.000Z</time>
      </trkpt>
      <trkpt lat="45.47645" lon="6.21777">
        <ele>1248</ele>
        <time>2022-07-23T00:34:26.000Z</time>
      </trkpt>
      <trkpt lat="45.47645" lon="6.21693">
        <ele>1239</ele>
        <time>2022-07-23T00:34:36.000Z</time>
      </trkpt>
      <trkpt lat="45.47656" lon="6.21694">
        <ele>1213.6</ele>
        <time>2022-07-23T00:34:46.000Z</time>
      </trkpt>
      <trkpt lat="45.47701" lon="6.21737">
        <ele>1213</ele>
        <time>2022-07-23T00:34:56.000Z</time>
      </trkpt>
      <trkpt lat="45.47722" lon="6.21755">
        <ele>1198</ele>
        <time>2022-07-23T00:35:06.000Z</time>
      </trkpt>
      <trkpt lat="45.4773" lon="6.21792">
        <ele>1198</ele>
        <time>2022-07-23T00:35:16.000Z</time>
      </trkpt>
      <trkpt lat="45.47751" lon="6.21782">
        <ele>1191</ele>
        <time>2022-07-23T00:35:26.000Z</time>
      </trkpt>
      <trkpt lat="45.47769" lon="6.21753">
        <ele>1185</ele>
        <time>2022-07-23T00:35:36.000Z</time>
      </trkpt>
      <trkpt lat="45.47778" lon="6.21693">
        <ele>1166</ele>
        <time>2022-07-23T00:35:46.000Z</time>
      </trkpt>
      <trkpt lat="45.47781" lon="6.21676">
        <ele>1140.9</ele>
        <time>2022-07-23T00:35:56.000Z</time>
      </trkpt>
      <trkpt lat="45.47809" lon="6.21722">
        <ele>1162</ele>
        <time>2022-07-23T00:36:06.000Z</time>
      </trkpt>
      <trkpt lat="45.47816" lon="6.21723">
        <ele>1130.6</ele>
        <time>2022-07-23T00:36:16.000Z</time>
      </trkpt>
      <trkpt lat="45.47826" lon="6.21706">
        <ele>1148</ele>
        <time>2022-07-23T00:36:26.000Z</time>
      </trkpt>
      <trkpt lat="45.47831" lon="6.21678">
        <ele>1148</ele>
        <time>2022-07-23T00:36:36.000Z</time>
      </trkpt>
      <trkpt lat="45.47831" lon="6.21653">
        <ele>1116.6</ele>
        <time>2022-07-23T00:36:46.000Z</time>
      </trkpt>
      <trkpt lat="45.47825" lon="6.21596">
        <ele>1115</ele>
        <time>2022-07-23T00:36:56.000Z</time>
      </trkpt>
      <trkpt lat="45.47816" lon="6.21554">
        <ele>1108</ele>
        <time>2022-07-23T00:37:06.000Z</time>
      </trkpt>
      <trkpt lat="45.47807" lon="6.2152">
        <ele>1106</ele>
        <time>2022-07-23T00:37:16.000Z</time>
      </trkpt>
      <trkpt lat="45.47796" lon="6.21482">
        <ele>1105</ele>
        <time>2022-07-23T00:37:26.000Z</time>
      </trkpt>
      <trkpt lat="45.47787" lon="6.21446">
        <ele>1100</ele>
        <time>2022-07-23T00:37:36.000Z</time>
      </trkpt>
      <trkpt lat="45.4778" lon="6.21386">
        <ele>1087</ele>
        <time>2022-07-23T00:37:46.000Z</time>
      </trkpt>
      <trkpt lat="45.47775" lon="6.21353">
        <ele>1079</ele>
        <time>2022-07-23T00:37:56.000Z</time>
      </trkpt>
      <trkpt lat="45.47768" lon="6.21319">
        <ele>1069</ele>
        <time>2022-07-23T00:38:06.000Z</time>
      </trkpt>
      <trkpt lat="45.47763" lon="6.21286">
        <ele>1062</ele>
        <time>2022-07-23T00:38:16.000Z</time>
      </trkpt>
      <trkpt lat="45.47762" lon="6.21247">
        <ele>1060</ele>
        <time>2022-07-23T00:38:26.000Z</time>
      </trkpt>
      <trkpt lat="45.47753" lon="6.21203">
        <ele>1044</ele>
        <time>2022-07-23T00:38:36.000Z</time>
      </trkpt>
      <trkpt lat="45.47751" lon="6.21153">
        <ele>1040</ele>
        <time>2022-07-23T00:38:46.000Z</time>
      </trkpt>
      <trkpt lat="45.47748" lon="6.21101">
        <ele>1040</ele>
        <time>2022-07-23T00:38:56.000Z</time>
      </trkpt>
      <trkpt lat="45.47747" lon="6.21131">
        <ele>1040</ele>
        <time>2022-07-23T00:39:06.000Z</time>
      </trkpt>
      <trkpt lat="45.47745" lon="6.21102">
        <ele>1034</ele>
        <time>2022-07-23T00:39:16.000Z</time>
      </trkpt>
      <trkpt lat="45.47748" lon="6.21055">
        <ele>1030</ele>
        <time>2022-07-23T00:39:26.000Z</time>
      </trkpt>
      <trkpt lat="45.47742" lon="6.21017">
        <ele>1029</ele>
        <time>2022-07-23T00:39:36.000Z</time>
      </trkpt>
      <trkpt lat="45.47735" lon="6.20965">
        <ele>1028</ele>
        <time>2022-07-23T00:39:46.000Z</time>
      </trkpt>
      <trkpt lat="45.47727" lon="6.20924">
        <ele>1014</ele>
        <time>2022-07-23T00:39:56.000Z</time>
      </trkpt>
      <trkpt lat="45.47718" lon="6.20886">
        <ele>1007</ele>
        <time>2022-07-23T00:40:06.000Z</time>
      </trkpt>
      <trkpt lat="45.47712" lon="6.20848">
        <ele>994</ele>
        <time>2022-07-23T00:40:16.000Z</time>
      </trkpt>
      <trkpt lat="45.4771" lon="6.20828">
        <ele>990</ele>
        <time>2022-07-23T00:40:26.000Z</time>
      </trkpt>
      <trkpt lat="45.47712" lon="6.20814">
        <ele>989</ele>
        <time>2022-07-23T00:40:36.000Z</time>
      </trkpt>
      <trkpt lat="45.4773" lon="6.20809">
        <ele>981.4</ele>
        <time>2022-07-23T00:40:46.000Z</time>
      </trkpt>
      <trkpt lat="45.47747" lon="6.20802">
        <ele>984</ele>
        <time>2022-07-23T00:40:56.000Z</time>
      </trkpt>
      <trkpt lat="45.47764" lon="6.20818">
        <ele>984</ele>
        <time>2022-07-23T00:41:06.000Z</time>
      </trkpt>
      <trkpt lat="45.478" lon="6.20834">
        <ele>971</ele>
        <time>2022-07-23T00:41:16.000Z</time>
      </trkpt>
      <trkpt lat="45.4782" lon="6.20844">
        <ele>970</ele>
        <time>2022-07-23T00:41:26.000Z</time>
      </trkpt>
      <trkpt lat="45.47841" lon="6.20857">
        <ele>970</ele>
        <time>2022-07-23T00:41:36.000Z</time>
      </trkpt>
      <trkpt lat="45.47852" lon="6.20879">
        <ele>967</ele>
        <time>2022-07-23T00:41:46.000Z</time>
      </trkpt>
      <trkpt lat="45.47865" lon="6.20899">
        <ele>965</ele>
        <time>2022-07-23T00:41:56.000Z</time>
      </trkpt>
      <trkpt lat="45.47894" lon="6.20915">
        <ele>961</ele>
        <time>2022-07-23T00:42:06.000Z</time>
      </trkpt>
      <trkpt lat="45.47924" lon="6.20924">
        <ele>949</ele>
        <time>2022-07-23T00:42:16.000Z</time>
      </trkpt>
      <trkpt lat="45.47953" lon="6.20948">
        <ele>934</ele>
        <time>2022-07-23T00:42:26.000Z</time>
      </trkpt>
      <trkpt lat="45.47976" lon="6.20968">
        <ele>916</ele>
        <time>2022-07-23T00:42:36.000Z</time>
      </trkpt>
      <trkpt lat="45.47999" lon="6.2098">
        <ele>902</ele>
        <time>2022-07-23T00:42:46.000Z</time>
      </trkpt>
      <trkpt lat="45.48007" lon="6.20956">
        <ele>890.4</ele>
        <time>2022-07-23T00:42:56.000Z</time>
      </trkpt>
      <trkpt lat="45.48009" lon="6.20938">
        <ele>896</ele>
        <time>2022-07-23T00:43:06.000Z</time>
      </trkpt>
      <trkpt lat="45.48016" lon="6.2091">
        <ele>896</ele>
        <time>2022-07-23T00:43:16.000Z</time>
      </trkpt>
      <trkpt lat="45.48048" lon="6.20933">
        <ele>881</ele>
        <time>2022-07-23T00:43:26.000Z</time>
      </trkpt>
      <trkpt lat="45.4808" lon="6.20956">
        <ele>875</ele>
        <time>2022-07-23T00:43:36.000Z</time>
      </trkpt>
      <trkpt lat="45.48111" lon="6.20979">
        <ele>874</ele>
        <time>2022-07-23T00:43:46.000Z</time>
      </trkpt>
      <trkpt lat="45.48146" lon="6.21004">
        <ele>867</ele>
        <time>2022-07-23T00:43:56.000Z</time>
      </trkpt>
      <trkpt lat="45.48186" lon="6.20969">
        <ele>860</ele>
        <time>2022-07-23T00:44:06.000Z</time>
      </trkpt>
      <trkpt lat="45.48206" lon="6.20966">
        <ele>855</ele>
        <time>2022-07-23T00:44:16.000Z</time>
      </trkpt>
      <trkpt lat="45.4822" lon="6.20971">
        <ele>854.2</ele>
        <time>2022-07-23T00:44:26.000Z</time>
      </trkpt>
      <trkpt lat="45.48267" lon="6.21">
        <ele>847</ele>
        <time>2022-07-23T00:44:36.000Z</time>
      </trkpt>
      <trkpt lat="45.48305" lon="6.21002">
        <ele>841</ele>
        <time>2022-07-23T00:44:46.000Z</time>
      </trkpt>
      <trkpt lat="45.48337" lon="6.21009">
        <ele>840</ele>
        <time>2022-07-23T00:44:56.000Z</time>
      </trkpt>
      <trkpt lat="45.48356" lon="6.21033">
        <ele>840</ele>
        <time>2022-07-23T00:45:06.000Z</time>
      </trkpt>
      <trkpt lat="45.48378" lon="6.21062">
        <ele>846</ele>
        <time>2022-07-23T00:45:16.000Z</time>
      </trkpt>
      <trkpt lat="45.48403" lon="6.21085">
        <ele>845</ele>
        <time>2022-07-23T00:45:26.000Z</time>
      </trkpt>
      <trkpt lat="45.4843" lon="6.21108">
        <ele>845</ele>
        <time>2022-07-23T00:45:36.000Z</time>
      </trkpt>
      <trkpt lat="45.48455" lon="6.21125">
        <ele>840</ele>
        <time>2022-07-23T00:45:46.000Z</time>
      </trkpt>
      <trkpt lat="45.48491" lon="6.21149">
        <ele>831</ele>
        <time>2022-07-23T00:45:56.000Z</time>
      </trkpt>
      <trkpt lat="45.48524" lon="6.21154">
        <ele>818</ele>
        <time>2022-07-23T00:46:06.000Z</time>
      </trkpt>
      <trkpt lat="45.48556" lon="6.21156">
        <ele>817</ele>
        <time>2022-07-23T00:46:16.000Z</time>
      </trkpt>
      <trkpt lat="45.48583" lon="6.21154">
        <ele>817</ele>
        <time>2022-07-23T00:46:26.000Z</time>
      </trkpt>
      <trkpt lat="45.48599" lon="6.21138">
        <ele>817</ele>
        <time>2022-07-23T00:46:36.000Z</time>
      </trkpt>
      <trkpt lat="45.48623" lon="6.21128">
        <ele>822</ele>
        <time>2022-07-23T00:46:46.000Z</time>
      </trkpt>
      <trkpt lat="45.48632" lon="6.21125">
        <ele>821.2</ele>
        <time>2022-07-23T00:46:56.000Z</time>
      </trkpt>
      <trkpt lat="45.48628" lon="6.21109">
        <ele>822</ele>
        <time>2022-07-23T00:47:06.000Z</time>
      </trkpt>
      <trkpt lat="45.48615" lon="6.21087">
        <ele>821</ele>
        <time>2022-07-23T00:47:16.000Z</time>
      </trkpt>
      <trkpt lat="45.48591" lon="6.21029">
        <ele>821</ele>
        <time>2022-07-23T00:47:26.000Z</time>
      </trkpt>
      <trkpt lat="45.48584" lon="6.20998">
        <ele>820</ele>
        <time>2022-07-23T00:47:36.000Z</time>
      </trkpt>
      <trkpt lat="45.4858" lon="6.20958">
        <ele>820</ele>
        <time>2022-07-23T00:47:46.000Z</time>
      </trkpt>
      <trkpt lat="45.4858" lon="6.20933">
        <ele>819.5</ele>
        <time>2022-07-23T00:47:56.000Z</time>
      </trkpt>
      <trkpt lat="45.48583" lon="6.20925">
        <ele>823</ele>
        <time>2022-07-23T00:48:06.000Z</time>
      </trkpt>
      <trkpt lat="45.48598" lon="6.20904">
        <ele>820</ele>
        <time>2022-07-23T00:48:16.000Z</time>
      </trkpt>
      <trkpt lat="45.48587" lon="6.20892">
        <ele>818</ele>
        <time>2022-07-23T00:48:26.000Z</time>
      </trkpt>
      <trkpt lat="45.4855" lon="6.20838">
        <ele>818</ele>
        <time>2022-07-23T00:48:36.000Z</time>
      </trkpt>
      <trkpt lat="45.48559" lon="6.20794">
        <ele>818</ele>
        <time>2022-07-23T00:48:46.000Z</time>
      </trkpt>
      <trkpt lat="45.48565" lon="6.20781">
        <ele>819.9</ele>
        <time>2022-07-23T00:48:56.000Z</time>
      </trkpt>
      <trkpt lat="45.48578" lon="6.20733">
        <ele>819</ele>
        <time>2022-07-23T00:49:06.000Z</time>
      </trkpt>
      <trkpt lat="45.48587" lon="6.20697">
        <ele>820</ele>
        <time>2022-07-23T00:49:16.000Z</time>
      </trkpt>
      <trkpt lat="45.48593" lon="6.20655">
        <ele>823</ele>
        <time>2022-07-23T00:49:26.000Z</time>
      </trkpt>
      <trkpt lat="45.48597" lon="6.20615">
        <ele>827</ele>
        <time>2022-07-23T00:49:36.000Z</time>
      </trkpt>
      <trkpt lat="45.48591" lon="6.20586">
        <ele>827</ele>
        <time>2022-07-23T00:49:46.000Z</time>
      </trkpt>
      <trkpt lat="45.48584" lon="6.20597">
        <ele>822</ele>
        <time>2022-07-23T00:49:56.000Z</time>
      </trkpt>
      <trkpt lat="45.48576" lon="6.20602">
        <ele>827</ele>
        <time>2022-07-23T00:50:06.000Z</time>
      </trkpt>
      <trkpt lat="45.48572" lon="6.20609">
        <ele>822</ele>
        <time>2022-07-23T00:50:16.000Z</time>
      </trkpt>
      <trkpt lat="45.48573" lon="6.2063">
        <ele>823</ele>
        <time>2022-07-23T00:50:26.000Z</time>
      </trkpt>
      <trkpt lat="45.48568" lon="6.20647">
        <ele>819.8</ele>
        <time>2022-07-23T00:50:36.000Z</time>
      </trkpt>
      <trkpt lat="45.48564" lon="6.20705">
        <ele>822</ele>
        <time>2022-07-23T00:50:46.000Z</time>
      </trkpt>
      <trkpt lat="45.48567" lon="6.20722">
        <ele>819.4</ele>
        <time>2022-07-23T00:50:56.000Z</time>
      </trkpt>
      <trkpt lat="45.4857" lon="6.20754">
        <ele>822</ele>
        <time>2022-07-23T00:51:06.000Z</time>
      </trkpt>
      <trkpt lat="45.48567" lon="6.20772">
        <ele>819.8</ele>
        <time>2022-07-23T00:51:16.000Z</time>
      </trkpt>
      <trkpt lat="45.48565" lon="6.20781">
        <ele>818</ele>
        <time>2022-07-23T00:51:26.000Z</time>
      </trkpt>
      <trkpt lat="45.48559" lon="6.20794">
        <ele>819.4</ele>
        <time>2022-07-23T00:51:36.000Z</time>
      </trkpt>
      <trkpt lat="45.4855" lon="6.20838">
        <ele>818</ele>
        <time>2022-07-23T00:51:46.000Z</time>
      </trkpt>
      <trkpt lat="45.48567" lon="6.20863">
        <ele>823</ele>
        <time>2022-07-23T00:51:56.000Z</time>
      </trkpt>
      <trkpt lat="45.48587" lon="6.20892">
        <ele>823</ele>
        <time>2022-07-23T00:52:06.000Z</time>
      </trkpt>
      <trkpt lat="45.48598" lon="6.20904">
        <ele>818.3</ele>
        <time>2022-07-23T00:52:16.000Z</time>
      </trkpt>
      <trkpt lat="45.48583" lon="6.20925">
        <ele>823</ele>
        <time>2022-07-23T00:52:26.000Z</time>
      </trkpt>
      <trkpt lat="45.4858" lon="6.20933">
        <ele>819.5</ele>
        <time>2022-07-23T00:52:36.000Z</time>
      </trkpt>
      <trkpt lat="45.4858" lon="6.20958">
        <ele>820</ele>
        <time>2022-07-23T00:52:46.000Z</time>
      </trkpt>
      <trkpt lat="45.48584" lon="6.20998">
        <ele>820</ele>
        <time>2022-07-23T00:52:56.000Z</time>
      </trkpt>
      <trkpt lat="45.48591" lon="6.21029">
        <ele>821</ele>
        <time>2022-07-23T00:53:06.000Z</time>
      </trkpt>
      <trkpt lat="45.48615" lon="6.21087">
        <ele>821</ele>
        <time>2022-07-23T00:53:16.000Z</time>
      </trkpt>
      <trkpt lat="45.48628" lon="6.21109">
        <ele>820</ele>
        <time>2022-07-23T00:53:26.000Z</time>
      </trkpt>
      <trkpt lat="45.48632" lon="6.21125">
        <ele>821.2</ele>
        <time>2022-07-23T00:53:36.000Z</time>
      </trkpt>
      <trkpt lat="45.48601" lon="6.21137">
        <ele>820</ele>
        <time>2022-07-23T00:53:46.000Z</time>
      </trkpt>
      <trkpt lat="45.48599" lon="6.21138">
        <ele>822.4</ele>
        <time>2022-07-23T00:53:56.000Z</time>
      </trkpt>
      <trkpt lat="45.48591" lon="6.21145">
        <ele>822.9</ele>
        <time>2022-07-23T00:54:06.000Z</time>
      </trkpt>
      <trkpt lat="45.48583" lon="6.21155">
        <ele>817</ele>
        <time>2022-07-23T00:54:16.000Z</time>
      </trkpt>
      <trkpt lat="45.48576" lon="6.21172">
        <ele>824.3</ele>
        <time>2022-07-23T00:54:26.000Z</time>
      </trkpt>
      <trkpt lat="45.48565" lon="6.21205">
        <ele>817</ele>
        <time>2022-07-23T00:54:36.000Z</time>
      </trkpt>
      <trkpt lat="45.48553" lon="6.21243">
        <ele>825</ele>
        <time>2022-07-23T00:54:46.000Z</time>
      </trkpt>
      <trkpt lat="45.48543" lon="6.21293">
        <ele>827</ele>
        <time>2022-07-23T00:54:56.000Z</time>
      </trkpt>
      <trkpt lat="45.48537" lon="6.2133">
        <ele>830</ele>
        <time>2022-07-23T00:55:06.000Z</time>
      </trkpt>
      <trkpt lat="45.48537" lon="6.21382">
        <ele>830</ele>
        <time>2022-07-23T00:55:16.000Z</time>
      </trkpt>
      <trkpt lat="45.4854" lon="6.21414">
        <ele>837</ele>
        <time>2022-07-23T00:55:26.000Z</time>
      </trkpt>
      <trkpt lat="45.4855" lon="6.21443">
        <ele>837</ele>
        <time>2022-07-23T00:55:36.000Z</time>
      </trkpt>
      <trkpt lat="45.48562" lon="6.21467">
        <ele>844</ele>
        <time>2022-07-23T00:55:46.000Z</time>
      </trkpt>
      <trkpt lat="45.4857" lon="6.21492">
        <ele>841</ele>
        <time>2022-07-23T00:55:56.000Z</time>
      </trkpt>
      <trkpt lat="45.48579" lon="6.21517">
        <ele>839</ele>
        <time>2022-07-23T00:56:06.000Z</time>
      </trkpt>
      <trkpt lat="45.486" lon="6.21538">
        <ele>838</ele>
        <time>2022-07-23T00:56:16.000Z</time>
      </trkpt>
      <trkpt lat="45.4862" lon="6.21569">
        <ele>837</ele>
        <time>2022-07-23T00:56:26.000Z</time>
      </trkpt>
      <trkpt lat="45.48653" lon="6.21619">
        <ele>837</ele>
        <time>2022-07-23T00:56:36.000Z</time>
      </trkpt>
      <trkpt lat="45.48656" lon="6.21647">
        <ele>836</ele>
        <time>2022-07-23T00:56:46.000Z</time>
      </trkpt>
      <trkpt lat="45.48673" lon="6.21675">
        <ele>835</ele>
        <time>2022-07-23T00:56:56.000Z</time>
      </trkpt>
      <trkpt lat="45.48694" lon="6.21708">
        <ele>836</ele>
        <time>2022-07-23T00:57:06.000Z</time>
      </trkpt>
      <trkpt lat="45.48708" lon="6.21742">
        <ele>833</ele>
        <time>2022-07-23T00:57:16.000Z</time>
      </trkpt>
      <trkpt lat="45.48724" lon="6.21774">
        <ele>833</ele>
        <time>2022-07-23T00:57:26.000Z</time>
      </trkpt>
      <trkpt lat="45.48734" lon="6.21787">
        <ele>825.3</ele>
        <time>2022-07-23T00:57:36.000Z</time>
      </trkpt>
      <trkpt lat="45.48731" lon="6.21818">
        <ele>833</ele>
        <time>2022-07-23T00:57:46.000Z</time>
      </trkpt>
      <trkpt lat="45.48736" lon="6.21848">
        <ele>829</ele>
        <time>2022-07-23T00:57:56.000Z</time>
      </trkpt>
      <trkpt lat="45.48745" lon="6.21876">
        <ele>831</ele>
        <time>2022-07-23T00:58:06.000Z</time>
      </trkpt>
      <trkpt lat="45.48755" lon="6.21899">
        <ele>833</ele>
        <time>2022-07-23T00:58:16.000Z</time>
      </trkpt>
      <trkpt lat="45.48756" lon="6.21932">
        <ele>840</ele>
        <time>2022-07-23T00:58:26.000Z</time>
      </trkpt>
      <trkpt lat="45.48758" lon="6.21962">
        <ele>857</ele>
        <time>2022-07-23T00:58:36.000Z</time>
      </trkpt>
      <trkpt lat="45.4877" lon="6.21987">
        <ele>857</ele>
        <time>2022-07-23T00:58:46.000Z</time>
      </trkpt>
      <trkpt lat="45.48767" lon="6.22015">
        <ele>863</ele>
        <time>2022-07-23T00:58:56.000Z</time>
      </trkpt>
      <trkpt lat="45.48759" lon="6.22027">
        <ele>851.6</ele>
        <time>2022-07-23T00:59:06.000Z</time>
      </trkpt>
      <trkpt lat="45.48764" lon="6.22088">
        <ele>875</ele>
        <time>2022-07-23T00:59:16.000Z</time>
      </trkpt>
      <trkpt lat="45.48767" lon="6.22117">
        <ele>875</ele>
        <time>2022-07-23T00:59:26.000Z</time>
      </trkpt>
      <trkpt lat="45.48772" lon="6.22146">
        <ele>875</ele>
        <time>2022-07-23T00:59:36.000Z</time>
      </trkpt>
      <trkpt lat="45.48778" lon="6.2217">
        <ele>853.5</ele>
        <time>2022-07-23T00:59:46.000Z</time>
      </trkpt>
      <trkpt lat="45.48778" lon="6.22196">
        <ele>876</ele>
        <time>2022-07-23T00:59:56.000Z</time>
      </trkpt>
      <trkpt lat="45.48784" lon="6.22206">
        <ele>856.8</ele>
        <time>2022-07-23T01:00:06.000Z</time>
      </trkpt>
      <trkpt lat="45.48792" lon="6.2223">
        <ele>872</ele>
        <time>2022-07-23T01:00:16.000Z</time>
      </trkpt>
      <trkpt lat="45.48804" lon="6.22262">
        <ele>873</ele>
        <time>2022-07-23T01:00:26.000Z</time>
      </trkpt>
      <trkpt lat="45.48817" lon="6.22299">
        <ele>874</ele>
        <time>2022-07-23T01:00:36.000Z</time>
      </trkpt>
      <trkpt lat="45.48818" lon="6.22304">
        <ele>863.2</ele>
        <time>2022-07-23T01:00:46.000Z</time>
      </trkpt>
      <trkpt lat="45.4883" lon="6.22302">
        <ele>864.3</ele>
        <time>2022-07-23T01:00:56.000Z</time>
      </trkpt>
      <trkpt lat="45.48837" lon="6.22305">
        <ele>882</ele>
        <time>2022-07-23T01:01:06.000Z</time>
      </trkpt>
      <trkpt lat="45.48859" lon="6.22325">
        <ele>884</ele>
        <time>2022-07-23T01:01:16.000Z</time>
      </trkpt>
      <trkpt lat="45.48886" lon="6.22351">
        <ele>884</ele>
        <time>2022-07-23T01:01:26.000Z</time>
      </trkpt>
      <trkpt lat="45.48905" lon="6.22377">
        <ele>884</ele>
        <time>2022-07-23T01:01:36.000Z</time>
      </trkpt>
      <trkpt lat="45.48929" lon="6.22409">
        <ele>881</ele>
        <time>2022-07-23T01:01:46.000Z</time>
      </trkpt>
      <trkpt lat="45.48945" lon="6.22434">
        <ele>884</ele>
        <time>2022-07-23T01:01:56.000Z</time>
      </trkpt>
      <trkpt lat="45.48952" lon="6.22451">
        <ele>865.9</ele>
        <time>2022-07-23T01:02:06.000Z</time>
      </trkpt>
      <trkpt lat="45.48955" lon="6.2246">
        <ele>888</ele>
        <time>2022-07-23T01:02:16.000Z</time>
      </trkpt>
      <trkpt lat="45.48955" lon="6.22469">
        <ele>866.6</ele>
        <time>2022-07-23T01:02:26.000Z</time>
      </trkpt>
      <trkpt lat="45.48946" lon="6.22489">
        <ele>888</ele>
        <time>2022-07-23T01:02:36.000Z</time>
      </trkpt>
      <trkpt lat="45.48944" lon="6.22503">
        <ele>872.4</ele>
        <time>2022-07-23T01:02:46.000Z</time>
      </trkpt>
      <trkpt lat="45.48949" lon="6.22522">
        <ele>889</ele>
        <time>2022-07-23T01:02:56.000Z</time>
      </trkpt>
      <trkpt lat="45.48966" lon="6.22568">
        <ele>886</ele>
        <time>2022-07-23T01:03:06.000Z</time>
      </trkpt>
      <trkpt lat="45.48972" lon="6.22578">
        <ele>874.5</ele>
        <time>2022-07-23T01:03:16.000Z</time>
      </trkpt>
      <trkpt lat="45.48994" lon="6.22596">
        <ele>885</ele>
        <time>2022-07-23T01:03:26.000Z</time>
      </trkpt>
      <trkpt lat="45.49028" lon="6.2262">
        <ele>885</ele>
        <time>2022-07-23T01:03:36.000Z</time>
      </trkpt>
      <trkpt lat="45.49035" lon="6.22621">
        <ele>871</ele>
        <time>2022-07-23T01:03:46.000Z</time>
      </trkpt>
      <trkpt lat="45.49048" lon="6.22615">
        <ele>885</ele>
        <time>2022-07-23T01:03:56.000Z</time>
      </trkpt>
      <trkpt lat="45.49054" lon="6.22615">
        <ele>866.9</ele>
        <time>2022-07-23T01:04:06.000Z</time>
      </trkpt>
      <trkpt lat="45.49087" lon="6.22663">
        <ele>877</ele>
        <time>2022-07-23T01:04:16.000Z</time>
      </trkpt>
      <trkpt lat="45.49108" lon="6.22681">
        <ele>878</ele>
        <time>2022-07-23T01:04:26.000Z</time>
      </trkpt>
      <trkpt lat="45.4913" lon="6.22701">
        <ele>880</ele>
        <time>2022-07-23T01:04:36.000Z</time>
      </trkpt>
      <trkpt lat="45.49141" lon="6.22718">
        <ele>864.5</ele>
        <time>2022-07-23T01:04:46.000Z</time>
      </trkpt>
      <trkpt lat="45.4915" lon="6.22725">
        <ele>875</ele>
        <time>2022-07-23T01:04:56.000Z</time>
      </trkpt>
      <trkpt lat="45.49163" lon="6.22743">
        <ele>861.1</ele>
        <time>2022-07-23T01:05:06.000Z</time>
      </trkpt>
      <trkpt lat="45.49192" lon="6.22769">
        <ele>873</ele>
        <time>2022-07-23T01:05:16.000Z</time>
      </trkpt>
      <trkpt lat="45.49212" lon="6.22784">
        <ele>871</ele>
        <time>2022-07-23T01:05:26.000Z</time>
      </trkpt>
      <trkpt lat="45.49219" lon="6.22806">
        <ele>853.6</ele>
        <time>2022-07-23T01:05:36.000Z</time>
      </trkpt>
      <trkpt lat="45.49232" lon="6.22793">
        <ele>871</ele>
        <time>2022-07-23T01:05:46.000Z</time>
      </trkpt>
      <trkpt lat="45.49236" lon="6.22793">
        <ele>856.2</ele>
        <time>2022-07-23T01:05:56.000Z</time>
      </trkpt>
      <trkpt lat="45.49261" lon="6.22844">
        <ele>865</ele>
        <time>2022-07-23T01:06:06.000Z</time>
      </trkpt>
      <trkpt lat="45.49278" lon="6.22877">
        <ele>865</ele>
        <time>2022-07-23T01:06:16.000Z</time>
      </trkpt>
      <trkpt lat="45.49285" lon="6.22906">
        <ele>870</ele>
        <time>2022-07-23T01:06:26.000Z</time>
      </trkpt>
      <trkpt lat="45.49298" lon="6.22939">
        <ele>865</ele>
        <time>2022-07-23T01:06:36.000Z</time>
      </trkpt>
      <trkpt lat="45.493" lon="6.22962">
        <ele>859.1</ele>
        <time>2022-07-23T01:06:46.000Z</time>
      </trkpt>
      <trkpt lat="45.49306" lon="6.22979">
        <ele>864</ele>
        <time>2022-07-23T01:06:56.000Z</time>
      </trkpt>
      <trkpt lat="45.49315" lon="6.23017">
        <ele>868</ele>
        <time>2022-07-23T01:07:06.000Z</time>
      </trkpt>
      <trkpt lat="45.49317" lon="6.23028">
        <ele>858.6</ele>
        <time>2022-07-23T01:07:16.000Z</time>
      </trkpt>
      <trkpt lat="45.49317" lon="6.23043">
        <ele>859.9</ele>
        <time>2022-07-23T01:07:26.000Z</time>
      </trkpt>
      <trkpt lat="45.49319" lon="6.23076">
        <ele>872</ele>
        <time>2022-07-23T01:07:36.000Z</time>
      </trkpt>
      <trkpt lat="45.49318" lon="6.23112">
        <ele>872</ele>
        <time>2022-07-23T01:07:46.000Z</time>
      </trkpt>
      <trkpt lat="45.49321" lon="6.23153">
        <ele>873</ele>
        <time>2022-07-23T01:07:56.000Z</time>
      </trkpt>
      <trkpt lat="45.49327" lon="6.23184">
        <ele>874</ele>
        <time>2022-07-23T01:08:06.000Z</time>
      </trkpt>
      <trkpt lat="45.49331" lon="6.23225">
        <ele>876</ele>
        <time>2022-07-23T01:08:16.000Z</time>
      </trkpt>
      <trkpt lat="45.49338" lon="6.23258">
        <ele>876</ele>
        <time>2022-07-23T01:08:26.000Z</time>
      </trkpt>
      <trkpt lat="45.49349" lon="6.23287">
        <ele>874</ele>
        <time>2022-07-23T01:08:36.000Z</time>
      </trkpt>
      <trkpt lat="45.49376" lon="6.23337">
        <ele>872</ele>
        <time>2022-07-23T01:08:46.000Z</time>
      </trkpt>
      <trkpt lat="45.49397" lon="6.23374">
        <ele>872</ele>
        <time>2022-07-23T01:08:56.000Z</time>
      </trkpt>
      <trkpt lat="45.49417" lon="6.23411">
        <ele>872</ele>
        <time>2022-07-23T01:09:06.000Z</time>
      </trkpt>
      <trkpt lat="45.4944" lon="6.2344">
        <ele>875</ele>
        <time>2022-07-23T01:09:16.000Z</time>
      </trkpt>
      <trkpt lat="45.49466" lon="6.23482">
        <ele>878</ele>
        <time>2022-07-23T01:09:26.000Z</time>
      </trkpt>
      <trkpt lat="45.49488" lon="6.23507">
        <ele>877</ele>
        <time>2022-07-23T01:09:36.000Z</time>
      </trkpt>
      <trkpt lat="45.49504" lon="6.23534">
        <ele>876</ele>
        <time>2022-07-23T01:09:46.000Z</time>
      </trkpt>
      <trkpt lat="45.49522" lon="6.23564">
        <ele>876</ele>
        <time>2022-07-23T01:09:56.000Z</time>
      </trkpt>
      <trkpt lat="45.49534" lon="6.23593">
        <ele>877</ele>
        <time>2022-07-23T01:10:06.000Z</time>
      </trkpt>
      <trkpt lat="45.49558" lon="6.23635">
        <ele>881</ele>
        <time>2022-07-23T01:10:16.000Z</time>
      </trkpt>
      <trkpt lat="45.49575" lon="6.23661">
        <ele>886</ele>
        <time>2022-07-23T01:10:26.000Z</time>
      </trkpt>
      <trkpt lat="45.49591" lon="6.23687">
        <ele>886</ele>
        <time>2022-07-23T01:10:36.000Z</time>
      </trkpt>
      <trkpt lat="45.49613" lon="6.23686">
        <ele>881</ele>
        <time>2022-07-23T01:10:46.000Z</time>
      </trkpt>
      <trkpt lat="45.49626" lon="6.2369">
        <ele>870.9</ele>
        <time>2022-07-23T01:10:56.000Z</time>
      </trkpt>
      <trkpt lat="45.49647" lon="6.2369">
        <ele>877</ele>
        <time>2022-07-23T01:11:06.000Z</time>
      </trkpt>
      <trkpt lat="45.49686" lon="6.23704">
        <ele>872</ele>
        <time>2022-07-23T01:11:16.000Z</time>
      </trkpt>
      <trkpt lat="45.49708" lon="6.23708">
        <ele>870</ele>
        <time>2022-07-23T01:11:26.000Z</time>
      </trkpt>
      <trkpt lat="45.49728" lon="6.23717">
        <ele>872</ele>
        <time>2022-07-23T01:11:36.000Z</time>
      </trkpt>
      <trkpt lat="45.49758" lon="6.23727">
        <ele>874</ele>
        <time>2022-07-23T01:11:46.000Z</time>
      </trkpt>
      <trkpt lat="45.49804" lon="6.2374">
        <ele>876</ele>
        <time>2022-07-23T01:11:56.000Z</time>
      </trkpt>
      <trkpt lat="45.49834" lon="6.23744">
        <ele>882</ele>
        <time>2022-07-23T01:12:06.000Z</time>
      </trkpt>
      <trkpt lat="45.49887" lon="6.23751">
        <ele>882</ele>
        <time>2022-07-23T01:12:16.000Z</time>
      </trkpt>
      <trkpt lat="45.4991" lon="6.23756">
        <ele>887</ele>
        <time>2022-07-23T01:12:26.000Z</time>
      </trkpt>
      <trkpt lat="45.49934" lon="6.2376">
        <ele>887</ele>
        <time>2022-07-23T01:12:36.000Z</time>
      </trkpt>
      <trkpt lat="45.49954" lon="6.23754">
        <ele>887</ele>
        <time>2022-07-23T01:12:46.000Z</time>
      </trkpt>
      <trkpt lat="45.49975" lon="6.23762">
        <ele>884</ele>
        <time>2022-07-23T01:12:56.000Z</time>
      </trkpt>
      <trkpt lat="45.49993" lon="6.23761">
        <ele>882.1</ele>
        <time>2022-07-23T01:13:06.000Z</time>
      </trkpt>
      <trkpt lat="45.50036" lon="6.23742">
        <ele>883</ele>
        <time>2022-07-23T01:13:16.000Z</time>
      </trkpt>
      <trkpt lat="45.5006" lon="6.2373">
        <ele>883</ele>
        <time>2022-07-23T01:13:26.000Z</time>
      </trkpt>
      <trkpt lat="45.50104" lon="6.23737">
        <ele>884</ele>
        <time>2022-07-23T01:13:36.000Z</time>
      </trkpt>
      <trkpt lat="45.50127" lon="6.23751">
        <ele>884</ele>
        <time>2022-07-23T01:13:46.000Z</time>
      </trkpt>
      <trkpt lat="45.50131" lon="6.23752">
        <ele>890.6</ele>
        <time>2022-07-23T01:13:56.000Z</time>
      </trkpt>
      <trkpt lat="45.50144" lon="6.23739">
        <ele>889</ele>
        <time>2022-07-23T01:14:06.000Z</time>
      </trkpt>
      <trkpt lat="45.50163" lon="6.23742">
        <ele>896</ele>
        <time>2022-07-23T01:14:16.000Z</time>
      </trkpt>
      <trkpt lat="45.50179" lon="6.23751">
        <ele>894.8</ele>
        <time>2022-07-23T01:14:26.000Z</time>
      </trkpt>
      <trkpt lat="45.50192" lon="6.23771">
        <ele>896</ele>
        <time>2022-07-23T01:14:36.000Z</time>
      </trkpt>
      <trkpt lat="45.50211" lon="6.23787">
        <ele>896</ele>
        <time>2022-07-23T01:14:46.000Z</time>
      </trkpt>
      <trkpt lat="45.50222" lon="6.23793">
        <ele>901.5</ele>
        <time>2022-07-23T01:14:56.000Z</time>
      </trkpt>
      <trkpt lat="45.5023" lon="6.23811">
        <ele>897</ele>
        <time>2022-07-23T01:15:06.000Z</time>
      </trkpt>
      <trkpt lat="45.50244" lon="6.23848">
        <ele>903</ele>
        <time>2022-07-23T01:15:16.000Z</time>
      </trkpt>
      <trkpt lat="45.50254" lon="6.23884">
        <ele>903</ele>
        <time>2022-07-23T01:15:26.000Z</time>
      </trkpt>
      <trkpt lat="45.5027" lon="6.23924">
        <ele>904</ele>
        <time>2022-07-23T01:15:36.000Z</time>
      </trkpt>
      <trkpt lat="45.50289" lon="6.23981">
        <ele>911</ele>
        <time>2022-07-23T01:15:46.000Z</time>
      </trkpt>
      <trkpt lat="45.50318" lon="6.24012">
        <ele>922</ele>
        <time>2022-07-23T01:15:56.000Z</time>
      </trkpt>
      <trkpt lat="45.50327" lon="6.2407">
        <ele>931</ele>
        <time>2022-07-23T01:16:06.000Z</time>
      </trkpt>
      <trkpt lat="45.50337" lon="6.24124">
        <ele>941</ele>
        <time>2022-07-23T01:16:16.000Z</time>
      </trkpt>
      <trkpt lat="45.50341" lon="6.24176">
        <ele>942</ele>
        <time>2022-07-23T01:16:26.000Z</time>
      </trkpt>
      <trkpt lat="45.5034" lon="6.24214">
        <ele>941</ele>
        <time>2022-07-23T01:16:36.000Z</time>
      </trkpt>
      <trkpt lat="45.50339" lon="6.24233">
        <ele>946.7</ele>
        <time>2022-07-23T01:16:46.000Z</time>
      </trkpt>
      <trkpt lat="45.50339" lon="6.24252">
        <ele>947</ele>
        <time>2022-07-23T01:16:56.000Z</time>
      </trkpt>
      <trkpt lat="45.50349" lon="6.24255">
        <ele>950.2</ele>
        <time>2022-07-23T01:17:06.000Z</time>
      </trkpt>
      <trkpt lat="45.50352" lon="6.24243">
        <ele>948</ele>
        <time>2022-07-23T01:17:16.000Z</time>
      </trkpt>
      <trkpt lat="45.50353" lon="6.24217">
        <ele>950.9</ele>
        <time>2022-07-23T01:17:26.000Z</time>
      </trkpt>
      <trkpt lat="45.50365" lon="6.24195">
        <ele>950</ele>
        <time>2022-07-23T01:17:36.000Z</time>
      </trkpt>
      <trkpt lat="45.50377" lon="6.24182">
        <ele>956.2</ele>
        <time>2022-07-23T01:17:46.000Z</time>
      </trkpt>
      <trkpt lat="45.50395" lon="6.24165">
        <ele>958</ele>
        <time>2022-07-23T01:17:56.000Z</time>
      </trkpt>
      <trkpt lat="45.50416" lon="6.24148">
        <ele>961</ele>
        <time>2022-07-23T01:18:06.000Z</time>
      </trkpt>
      <trkpt lat="45.50433" lon="6.24123">
        <ele>965</ele>
        <time>2022-07-23T01:18:16.000Z</time>
      </trkpt>
      <trkpt lat="45.50443" lon="6.24086">
        <ele>978</ele>
        <time>2022-07-23T01:18:26.000Z</time>
      </trkpt>
      <trkpt lat="45.50449" lon="6.24044">
        <ele>978</ele>
        <time>2022-07-23T01:18:36.000Z</time>
      </trkpt>
      <trkpt lat="45.50442" lon="6.24029">
        <ele>972.2</ele>
        <time>2022-07-23T01:18:46.000Z</time>
      </trkpt>
      <trkpt lat="45.50436" lon="6.24011">
        <ele>981</ele>
        <time>2022-07-23T01:18:56.000Z</time>
      </trkpt>
      <trkpt lat="45.50442" lon="6.24001">
        <ele>974.2</ele>
        <time>2022-07-23T01:19:06.000Z</time>
      </trkpt>
      <trkpt lat="45.50453" lon="6.24004">
        <ele>979</ele>
        <time>2022-07-23T01:19:16.000Z</time>
      </trkpt>
      <trkpt lat="45.50452" lon="6.24024">
        <ele>975.5</ele>
        <time>2022-07-23T01:19:26.000Z</time>
      </trkpt>
      <trkpt lat="45.50458" lon="6.24047">
        <ele>981</ele>
        <time>2022-07-23T01:19:36.000Z</time>
      </trkpt>
      <trkpt lat="45.50469" lon="6.24065">
        <ele>977.4</ele>
        <time>2022-07-23T01:19:46.000Z</time>
      </trkpt>
      <trkpt lat="45.50486" lon="6.24078">
        <ele>983</ele>
        <time>2022-07-23T01:19:56.000Z</time>
      </trkpt>
      <trkpt lat="45.50506" lon="6.24098">
        <ele>987</ele>
        <time>2022-07-23T01:20:06.000Z</time>
      </trkpt>
      <trkpt lat="45.50519" lon="6.24118">
        <ele>991</ele>
        <time>2022-07-23T01:20:16.000Z</time>
      </trkpt>
      <trkpt lat="45.5053" lon="6.24139">
        <ele>989</ele>
        <time>2022-07-23T01:20:26.000Z</time>
      </trkpt>
      <trkpt lat="45.50542" lon="6.24198">
        <ele>999</ele>
        <time>2022-07-23T01:20:36.000Z</time>
      </trkpt>
      <trkpt lat="45.50555" lon="6.2422">
        <ele>999</ele>
        <time>2022-07-23T01:20:46.000Z</time>
      </trkpt>
      <trkpt lat="45.50559" lon="6.24251">
        <ele>998</ele>
        <time>2022-07-23T01:20:56.000Z</time>
      </trkpt>
      <trkpt lat="45.50553" lon="6.24266">
        <ele>1000.6</ele>
        <time>2022-07-23T01:21:06.000Z</time>
      </trkpt>
      <trkpt lat="45.50542" lon="6.24286">
        <ele>998</ele>
        <time>2022-07-23T01:21:16.000Z</time>
      </trkpt>
      <trkpt lat="45.50538" lon="6.24305">
        <ele>1000.9</ele>
        <time>2022-07-23T01:21:26.000Z</time>
      </trkpt>
      <trkpt lat="45.50537" lon="6.24314">
        <ele>1002</ele>
        <time>2022-07-23T01:21:36.000Z</time>
      </trkpt>
      <trkpt lat="45.50561" lon="6.2434">
        <ele>1011</ele>
        <time>2022-07-23T01:21:46.000Z</time>
      </trkpt>
      <trkpt lat="45.50577" lon="6.24366">
        <ele>1024</ele>
        <time>2022-07-23T01:21:56.000Z</time>
      </trkpt>
      <trkpt lat="45.50593" lon="6.24401">
        <ele>1032</ele>
        <time>2022-07-23T01:22:06.000Z</time>
      </trkpt>
      <trkpt lat="45.50612" lon="6.24431">
        <ele>1045</ele>
        <time>2022-07-23T01:22:16.000Z</time>
      </trkpt>
      <trkpt lat="45.50631" lon="6.24473">
        <ele>1050</ele>
        <time>2022-07-23T01:22:26.000Z</time>
      </trkpt>
      <trkpt lat="45.50659" lon="6.24512">
        <ele>1056</ele>
        <time>2022-07-23T01:22:36.000Z</time>
      </trkpt>
      <trkpt lat="45.5068" lon="6.24535">
        <ele>1075</ele>
        <time>2022-07-23T01:22:46.000Z</time>
      </trkpt>
      <trkpt lat="45.50698" lon="6.24564">
        <ele>1080</ele>
        <time>2022-07-23T01:22:56.000Z</time>
      </trkpt>
      <trkpt lat="45.50715" lon="6.24574">
        <ele>1073.5</ele>
        <time>2022-07-23T01:23:06.000Z</time>
      </trkpt>
      <trkpt lat="45.5073" lon="6.24589">
        <ele>1090</ele>
        <time>2022-07-23T01:23:16.000Z</time>
      </trkpt>
      <trkpt lat="45.50744" lon="6.24593">
        <ele>1082</ele>
        <time>2022-07-23T01:23:26.000Z</time>
      </trkpt>
      <trkpt lat="45.50757" lon="6.24606">
        <ele>1106</ele>
        <time>2022-07-23T01:23:36.000Z</time>
      </trkpt>
      <trkpt lat="45.50766" lon="6.24625">
        <ele>1092.5</ele>
        <time>2022-07-23T01:23:46.000Z</time>
      </trkpt>
      <trkpt lat="45.5078" lon="6.24639">
        <ele>1119</ele>
        <time>2022-07-23T01:23:56.000Z</time>
      </trkpt>
      <trkpt lat="45.50791" lon="6.24655">
        <ele>1106.3</ele>
        <time>2022-07-23T01:24:06.000Z</time>
      </trkpt>
      <trkpt lat="45.508" lon="6.24677">
        <ele>1122</ele>
        <time>2022-07-23T01:24:16.000Z</time>
      </trkpt>
      <trkpt lat="45.508" lon="6.24691">
        <ele>1110.1</ele>
        <time>2022-07-23T01:24:26.000Z</time>
      </trkpt>
      <trkpt lat="45.50804" lon="6.24721">
        <ele>1126</ele>
        <time>2022-07-23T01:24:36.000Z</time>
      </trkpt>
      <trkpt lat="45.50805" lon="6.24746">
        <ele>1116.4</ele>
        <time>2022-07-23T01:24:46.000Z</time>
      </trkpt>
      <trkpt lat="45.50811" lon="6.24763">
        <ele>1126</ele>
        <time>2022-07-23T01:24:56.000Z</time>
      </trkpt>
      <trkpt lat="45.50823" lon="6.24782">
        <ele>1120.7</ele>
        <time>2022-07-23T01:25:06.000Z</time>
      </trkpt>
      <trkpt lat="45.50835" lon="6.24796">
        <ele>1141</ele>
        <time>2022-07-23T01:25:16.000Z</time>
      </trkpt>
      <trkpt lat="45.50853" lon="6.24798">
        <ele>1127.1</ele>
        <time>2022-07-23T01:25:26.000Z</time>
      </trkpt>
      <trkpt lat="45.50865" lon="6.24815">
        <ele>1142</ele>
        <time>2022-07-23T01:25:36.000Z</time>
      </trkpt>
      <trkpt lat="45.50876" lon="6.24838">
        <ele>1144</ele>
        <time>2022-07-23T01:25:46.000Z</time>
      </trkpt>
      <trkpt lat="45.50886" lon="6.24864">
        <ele>1160</ele>
        <time>2022-07-23T01:25:56.000Z</time>
      </trkpt>
      <trkpt lat="45.50893" lon="6.24887">
        <ele>1145</ele>
        <time>2022-07-23T01:26:06.000Z</time>
      </trkpt>
      <trkpt lat="45.50898" lon="6.24926">
        <ele>1172</ele>
        <time>2022-07-23T01:26:16.000Z</time>
      </trkpt>
      <trkpt lat="45.50915" lon="6.24963">
        <ele>1181</ele>
        <time>2022-07-23T01:26:26.000Z</time>
      </trkpt>
      <trkpt lat="45.50929" lon="6.24999">
        <ele>1182</ele>
        <time>2022-07-23T01:26:36.000Z</time>
      </trkpt>
      <trkpt lat="45.50945" lon="6.25037">
        <ele>1192</ele>
        <time>2022-07-23T01:26:46.000Z</time>
      </trkpt>
      <trkpt lat="45.50967" lon="6.25076">
        <ele>1199</ele>
        <time>2022-07-23T01:26:56.000Z</time>
      </trkpt>
      <trkpt lat="45.50976" lon="6.25107">
        <ele>1206</ele>
        <time>2022-07-23T01:27:06.000Z</time>
      </trkpt>
      <trkpt lat="45.5098" lon="6.25127">
        <ele>1196.6</ele>
        <time>2022-07-23T01:27:16.000Z</time>
      </trkpt>
      <trkpt lat="45.50995" lon="6.25142">
        <ele>1209</ele>
        <time>2022-07-23T01:27:26.000Z</time>
      </trkpt>
      <trkpt lat="45.50997" lon="6.25169">
        <ele>1210</ele>
        <time>2022-07-23T01:27:36.000Z</time>
      </trkpt>
      <trkpt lat="45.50997" lon="6.252">
        <ele>1211</ele>
        <time>2022-07-23T01:27:46.000Z</time>
      </trkpt>
      <trkpt lat="45.51004" lon="6.25223">
        <ele>1211</ele>
        <time>2022-07-23T01:27:56.000Z</time>
      </trkpt>
      <trkpt lat="45.5103" lon="6.25281">
        <ele>1225</ele>
        <time>2022-07-23T01:28:06.000Z</time>
      </trkpt>
      <trkpt lat="45.51053" lon="6.25334">
        <ele>1231</ele>
        <time>2022-07-23T01:28:16.000Z</time>
      </trkpt>
      <trkpt lat="45.5106" lon="6.25359">
        <ele>1229.8</ele>
        <time>2022-07-23T01:28:26.000Z</time>
      </trkpt>
      <trkpt lat="45.51066" lon="6.25388">
        <ele>1237</ele>
        <time>2022-07-23T01:28:36.000Z</time>
      </trkpt>
      <trkpt lat="45.51084" lon="6.2544">
        <ele>1249</ele>
        <time>2022-07-23T01:28:46.000Z</time>
      </trkpt>
      <trkpt lat="45.51091" lon="6.25475">
        <ele>1248</ele>
        <time>2022-07-23T01:28:56.000Z</time>
      </trkpt>
      <trkpt lat="45.51099" lon="6.25516">
        <ele>1248</ele>
        <time>2022-07-23T01:29:06.000Z</time>
      </trkpt>
      <trkpt lat="45.51106" lon="6.25555">
        <ele>1252</ele>
        <time>2022-07-23T01:29:16.000Z</time>
      </trkpt>
      <trkpt lat="45.5111" lon="6.25588">
        <ele>1257</ele>
        <time>2022-07-23T01:29:26.000Z</time>
      </trkpt>
      <trkpt lat="45.51124" lon="6.25641">
        <ele>1257</ele>
        <time>2022-07-23T01:29:36.000Z</time>
      </trkpt>
      <trkpt lat="45.51116" lon="6.25673">
        <ele>1254</ele>
        <time>2022-07-23T01:29:46.000Z</time>
      </trkpt>
      <trkpt lat="45.51112" lon="6.257">
        <ele>1254</ele>
        <time>2022-07-23T01:29:56.000Z</time>
      </trkpt>
      <trkpt lat="45.51118" lon="6.25745">
        <ele>1254</ele>
        <time>2022-07-23T01:30:06.000Z</time>
      </trkpt>
      <trkpt lat="45.51113" lon="6.25767">
        <ele>1243.9</ele>
        <time>2022-07-23T01:30:16.000Z</time>
      </trkpt>
      <trkpt lat="45.51105" lon="6.2578">
        <ele>1253</ele>
        <time>2022-07-23T01:30:26.000Z</time>
      </trkpt>
      <trkpt lat="45.51092" lon="6.2579">
        <ele>1247.2</ele>
        <time>2022-07-23T01:30:36.000Z</time>
      </trkpt>
      <trkpt lat="45.51083" lon="6.25802">
        <ele>1257</ele>
        <time>2022-07-23T01:30:46.000Z</time>
      </trkpt>
      <trkpt lat="45.51078" lon="6.25825">
        <ele>1244.2</ele>
        <time>2022-07-23T01:30:56.000Z</time>
      </trkpt>
      <trkpt lat="45.51083" lon="6.25862">
        <ele>1258</ele>
        <time>2022-07-23T01:31:06.000Z</time>
      </trkpt>
      <trkpt lat="45.5109" lon="6.25893">
        <ele>1260</ele>
        <time>2022-07-23T01:31:16.000Z</time>
      </trkpt>
      <trkpt lat="45.51089" lon="6.25928">
        <ele>1260</ele>
        <time>2022-07-23T01:31:26.000Z</time>
      </trkpt>
      <trkpt lat="45.51091" lon="6.25969">
        <ele>1263</ele>
        <time>2022-07-23T01:31:36.000Z</time>
      </trkpt>
      <trkpt lat="45.51103" lon="6.26008">
        <ele>1267</ele>
        <time>2022-07-23T01:31:46.000Z</time>
      </trkpt>
      <trkpt lat="45.51137" lon="6.2605">
        <ele>1271</ele>
        <time>2022-07-23T01:31:56.000Z</time>
      </trkpt>
      <trkpt lat="45.51147" lon="6.2606">
        <ele>1261.7</ele>
        <time>2022-07-23T01:32:06.000Z</time>
      </trkpt>
      <trkpt lat="45.51157" lon="6.26059">
        <ele>1271</ele>
        <time>2022-07-23T01:32:16.000Z</time>
      </trkpt>
      <trkpt lat="45.51165" lon="6.26041">
        <ele>1267</ele>
        <time>2022-07-23T01:32:26.000Z</time>
      </trkpt>
      <trkpt lat="45.51172" lon="6.26018">
        <ele>1286</ele>
        <time>2022-07-23T01:32:36.000Z</time>
      </trkpt>
      <trkpt lat="45.51192" lon="6.26014">
        <ele>1291</ele>
        <time>2022-07-23T01:32:46.000Z</time>
      </trkpt>
      <trkpt lat="45.51218" lon="6.2603">
        <ele>1292</ele>
        <time>2022-07-23T01:32:56.000Z</time>
      </trkpt>
      <trkpt lat="45.51241" lon="6.2605">
        <ele>1310</ele>
        <time>2022-07-23T01:33:06.000Z</time>
      </trkpt>
      <trkpt lat="45.51274" lon="6.26069">
        <ele>1326</ele>
        <time>2022-07-23T01:33:16.000Z</time>
      </trkpt>
      <trkpt lat="45.51291" lon="6.26071">
        <ele>1305.5</ele>
        <time>2022-07-23T01:33:26.000Z</time>
      </trkpt>
      <trkpt lat="45.5131" lon="6.26065">
        <ele>1328</ele>
        <time>2022-07-23T01:33:36.000Z</time>
      </trkpt>
      <trkpt lat="45.51329" lon="6.26062">
        <ele>1329</ele>
        <time>2022-07-23T01:33:46.000Z</time>
      </trkpt>
      <trkpt lat="45.5134" lon="6.26061">
        <ele>1311.1</ele>
        <time>2022-07-23T01:33:56.000Z</time>
      </trkpt>
      <trkpt lat="45.51354" lon="6.26086">
        <ele>1326</ele>
        <time>2022-07-23T01:34:06.000Z</time>
      </trkpt>
      <trkpt lat="45.51357" lon="6.26105">
        <ele>1312.4</ele>
        <time>2022-07-23T01:34:16.000Z</time>
      </trkpt>
      <trkpt lat="45.5138" lon="6.2616">
        <ele>1324</ele>
        <time>2022-07-23T01:34:26.000Z</time>
      </trkpt>
      <trkpt lat="45.51395" lon="6.26201">
        <ele>1325</ele>
        <time>2022-07-23T01:34:36.000Z</time>
      </trkpt>
      <trkpt lat="45.51413" lon="6.26244">
        <ele>1324</ele>
        <time>2022-07-23T01:34:46.000Z</time>
      </trkpt>
      <trkpt lat="45.51424" lon="6.26234">
        <ele>1323</ele>
        <time>2022-07-23T01:34:56.000Z</time>
      </trkpt>
      <trkpt lat="45.51444" lon="6.26222">
        <ele>1327</ele>
        <time>2022-07-23T01:35:06.000Z</time>
      </trkpt>
      <trkpt lat="45.51467" lon="6.2623">
        <ele>1330</ele>
        <time>2022-07-23T01:35:16.000Z</time>
      </trkpt>
      <trkpt lat="45.5148" lon="6.26253">
        <ele>1333</ele>
        <time>2022-07-23T01:35:26.000Z</time>
      </trkpt>
      <trkpt lat="45.51494" lon="6.26273">
        <ele>1337</ele>
        <time>2022-07-23T01:35:36.000Z</time>
      </trkpt>
      <trkpt lat="45.51509" lon="6.26271">
        <ele>1331.7</ele>
        <time>2022-07-23T01:35:46.000Z</time>
      </trkpt>
      <trkpt lat="45.51512" lon="6.26242">
        <ele>1337</ele>
        <time>2022-07-23T01:35:56.000Z</time>
      </trkpt>
      <trkpt lat="45.515" lon="6.262">
        <ele>1333</ele>
        <time>2022-07-23T01:36:06.000Z</time>
      </trkpt>
      <trkpt lat="45.51497" lon="6.2617">
        <ele>1331</ele>
        <time>2022-07-23T01:36:16.000Z</time>
      </trkpt>
      <trkpt lat="45.51507" lon="6.26141">
        <ele>1330</ele>
        <time>2022-07-23T01:36:26.000Z</time>
      </trkpt>
      <trkpt lat="45.51523" lon="6.26122">
        <ele>1330</ele>
        <time>2022-07-23T01:36:36.000Z</time>
      </trkpt>
      <trkpt lat="45.51537" lon="6.26075">
        <ele>1331</ele>
        <time>2022-07-23T01:36:46.000Z</time>
      </trkpt>
      <trkpt lat="45.51548" lon="6.26047">
        <ele>1332</ele>
        <time>2022-07-23T01:36:56.000Z</time>
      </trkpt>
      <trkpt lat="45.51556" lon="6.26021">
        <ele>1331</ele>
        <time>2022-07-23T01:37:06.000Z</time>
      </trkpt>
      <trkpt lat="45.5156" lon="6.25995">
        <ele>1329.7</ele>
        <time>2022-07-23T01:37:16.000Z</time>
      </trkpt>
      <trkpt lat="45.51581" lon="6.26008">
        <ele>1331</ele>
        <time>2022-07-23T01:37:26.000Z</time>
      </trkpt>
      <trkpt lat="45.51601" lon="6.26025">
        <ele>1333</ele>
        <time>2022-07-23T01:37:36.000Z</time>
      </trkpt>
      <trkpt lat="45.51617" lon="6.26032">
        <ele>1331.3</ele>
        <time>2022-07-23T01:37:46.000Z</time>
      </trkpt>
      <trkpt lat="45.51651" lon="6.26035">
        <ele>1336</ele>
        <time>2022-07-23T01:37:56.000Z</time>
      </trkpt>
      <trkpt lat="45.51673" lon="6.26034">
        <ele>1341</ele>
        <time>2022-07-23T01:38:06.000Z</time>
      </trkpt>
      <trkpt lat="45.51695" lon="6.26002">
        <ele>1336</ele>
        <time>2022-07-23T01:38:16.000Z</time>
      </trkpt>
      <trkpt lat="45.51709" lon="6.25986">
        <ele>1332.1</ele>
        <time>2022-07-23T01:38:26.000Z</time>
      </trkpt>
      <trkpt lat="45.51764" lon="6.25981">
        <ele>1336</ele>
        <time>2022-07-23T01:38:36.000Z</time>
      </trkpt>
      <trkpt lat="45.51793" lon="6.25993">
        <ele>1336</ele>
        <time>2022-07-23T01:38:46.000Z</time>
      </trkpt>
      <trkpt lat="45.51817" lon="6.26004">
        <ele>1337</ele>
        <time>2022-07-23T01:38:56.000Z</time>
      </trkpt>
      <trkpt lat="45.51846" lon="6.26021">
        <ele>1342</ele>
        <time>2022-07-23T01:39:06.000Z</time>
      </trkpt>
      <trkpt lat="45.51861" lon="6.26016">
        <ele>1337.5</ele>
        <time>2022-07-23T01:39:16.000Z</time>
      </trkpt>
      <trkpt lat="45.51874" lon="6.25996">
        <ele>1347</ele>
        <time>2022-07-23T01:39:26.000Z</time>
      </trkpt>
      <trkpt lat="45.51888" lon="6.25983">
        <ele>1337.5</ele>
        <time>2022-07-23T01:39:36.000Z</time>
      </trkpt>
      <trkpt lat="45.5191" lon="6.25983">
        <ele>1345</ele>
        <time>2022-07-23T01:39:46.000Z</time>
      </trkpt>
      <trkpt lat="45.51944" lon="6.26008">
        <ele>1344</ele>
        <time>2022-07-23T01:39:56.000Z</time>
      </trkpt>
      <trkpt lat="45.51966" lon="6.26009">
        <ele>1342</ele>
        <time>2022-07-23T01:40:06.000Z</time>
      </trkpt>
      <trkpt lat="45.51985" lon="6.26011">
        <ele>1342</ele>
        <time>2022-07-23T01:40:16.000Z</time>
      </trkpt>
      <trkpt lat="45.52003" lon="6.2603">
        <ele>1342</ele>
        <time>2022-07-23T01:40:26.000Z</time>
      </trkpt>
      <trkpt lat="45.5202" lon="6.26055">
        <ele>1342</ele>
        <time>2022-07-23T01:40:36.000Z</time>
      </trkpt>
      <trkpt lat="45.52049" lon="6.26065">
        <ele>1348</ele>
        <time>2022-07-23T01:40:46.000Z</time>
      </trkpt>
      <trkpt lat="45.52074" lon="6.26077">
        <ele>1354</ele>
        <time>2022-07-23T01:40:56.000Z</time>
      </trkpt>
      <trkpt lat="45.52096" lon="6.26079">
        <ele>1354</ele>
        <time>2022-07-23T01:41:06.000Z</time>
      </trkpt>
      <trkpt lat="45.52112" lon="6.26074">
        <ele>1340.3</ele>
        <time>2022-07-23T01:41:16.000Z</time>
      </trkpt>
      <trkpt lat="45.5212" lon="6.26062">
        <ele>1344</ele>
        <time>2022-07-23T01:41:26.000Z</time>
      </trkpt>
      <trkpt lat="45.52148" lon="6.26038">
        <ele>1342</ele>
        <time>2022-07-23T01:41:36.000Z</time>
      </trkpt>
      <trkpt lat="45.52173" lon="6.26023">
        <ele>1343</ele>
        <time>2022-07-23T01:41:46.000Z</time>
      </trkpt>
      <trkpt lat="45.5219" lon="6.26008">
        <ele>1344</ele>
        <time>2022-07-23T01:41:56.000Z</time>
      </trkpt>
      <trkpt lat="45.52201" lon="6.25995">
        <ele>1347.3</ele>
        <time>2022-07-23T01:42:06.000Z</time>
      </trkpt>
      <trkpt lat="45.52207" lon="6.25971">
        <ele>1348</ele>
        <time>2022-07-23T01:42:16.000Z</time>
      </trkpt>
      <trkpt lat="45.52204" lon="6.25938">
        <ele>1353</ele>
        <time>2022-07-23T01:42:26.000Z</time>
      </trkpt>
      <trkpt lat="45.5221" lon="6.25917">
        <ele>1345.6</ele>
        <time>2022-07-23T01:42:36.000Z</time>
      </trkpt>
      <trkpt lat="45.52221" lon="6.25907">
        <ele>1351</ele>
        <time>2022-07-23T01:42:46.000Z</time>
      </trkpt>
      <trkpt lat="45.52234" lon="6.25912">
        <ele>1343.9</ele>
        <time>2022-07-23T01:42:56.000Z</time>
      </trkpt>
      <trkpt lat="45.52246" lon="6.25921">
        <ele>1349</ele>
        <time>2022-07-23T01:43:06.000Z</time>
      </trkpt>
      <trkpt lat="45.52264" lon="6.25944">
        <ele>1351</ele>
        <time>2022-07-23T01:43:16.000Z</time>
      </trkpt>
      <trkpt lat="45.52285" lon="6.2596">
        <ele>1351</ele>
        <time>2022-07-23T01:43:26.000Z</time>
      </trkpt>
      <trkpt lat="45.52307" lon="6.25975">
        <ele>1351</ele>
        <time>2022-07-23T01:43:36.000Z</time>
      </trkpt>
      <trkpt lat="45.52343" lon="6.26008">
        <ele>1351</ele>
        <time>2022-07-23T01:43:46.000Z</time>
      </trkpt>
      <trkpt lat="45.52377" lon="6.26023">
        <ele>1347</ele>
        <time>2022-07-23T01:43:56.000Z</time>
      </trkpt>
      <trkpt lat="45.52412" lon="6.26027">
        <ele>1331</ele>
        <time>2022-07-23T01:44:06.000Z</time>
      </trkpt>
      <trkpt lat="45.52442" lon="6.26021">
        <ele>1325</ele>
        <time>2022-07-23T01:44:16.000Z</time>
      </trkpt>
      <trkpt lat="45.52467" lon="6.26024">
        <ele>1321</ele>
        <time>2022-07-23T01:44:26.000Z</time>
      </trkpt>
      <trkpt lat="45.52485" lon="6.26003">
        <ele>1318</ele>
        <time>2022-07-23T01:44:36.000Z</time>
      </trkpt>
      <trkpt lat="45.52513" lon="6.25977">
        <ele>1314</ele>
        <time>2022-07-23T01:44:46.000Z</time>
      </trkpt>
      <trkpt lat="45.52549" lon="6.25952">
        <ele>1317</ele>
        <time>2022-07-23T01:44:56.000Z</time>
      </trkpt>
      <trkpt lat="45.5257" lon="6.25923">
        <ele>1316</ele>
        <time>2022-07-23T01:45:06.000Z</time>
      </trkpt>
      <trkpt lat="45.52594" lon="6.25906">
        <ele>1318</ele>
        <time>2022-07-23T01:45:16.000Z</time>
      </trkpt>
      <trkpt lat="45.52627" lon="6.25883">
        <ele>1314</ele>
        <time>2022-07-23T01:45:26.000Z</time>
      </trkpt>
      <trkpt lat="45.52653" lon="6.25857">
        <ele>1310</ele>
        <time>2022-07-23T01:45:36.000Z</time>
      </trkpt>
      <trkpt lat="45.52686" lon="6.25827">
        <ele>1298</ele>
        <time>2022-07-23T01:45:46.000Z</time>
      </trkpt>
      <trkpt lat="45.52713" lon="6.25808">
        <ele>1281</ele>
        <time>2022-07-23T01:45:56.000Z</time>
      </trkpt>
      <trkpt lat="45.52731" lon="6.25787">
        <ele>1283</ele>
        <time>2022-07-23T01:46:06.000Z</time>
      </trkpt>
      <trkpt lat="45.52758" lon="6.25769">
        <ele>1286</ele>
        <time>2022-07-23T01:46:16.000Z</time>
      </trkpt>
      <trkpt lat="45.5278" lon="6.25759">
        <ele>1295</ele>
        <time>2022-07-23T01:46:26.000Z</time>
      </trkpt>
      <trkpt lat="45.52803" lon="6.25753">
        <ele>1301</ele>
        <time>2022-07-23T01:46:36.000Z</time>
      </trkpt>
      <trkpt lat="45.52833" lon="6.25748">
        <ele>1301</ele>
        <time>2022-07-23T01:46:46.000Z</time>
      </trkpt>
      <trkpt lat="45.52851" lon="6.25739">
        <ele>1302</ele>
        <time>2022-07-23T01:46:56.000Z</time>
      </trkpt>
      <trkpt lat="45.52893" lon="6.25729">
        <ele>1302</ele>
        <time>2022-07-23T01:47:06.000Z</time>
      </trkpt>
      <trkpt lat="45.52927" lon="6.25716">
        <ele>1300</ele>
        <time>2022-07-23T01:47:16.000Z</time>
      </trkpt>
      <trkpt lat="45.5296" lon="6.25701">
        <ele>1292</ele>
        <time>2022-07-23T01:47:26.000Z</time>
      </trkpt>
      <trkpt lat="45.52988" lon="6.25701">
        <ele>1292</ele>
        <time>2022-07-23T01:47:36.000Z</time>
      </trkpt>
      <trkpt lat="45.53028" lon="6.25701">
        <ele>1292</ele>
        <time>2022-07-23T01:47:46.000Z</time>
      </trkpt>
      <trkpt lat="45.53045" lon="6.25687">
        <ele>1292</ele>
        <time>2022-07-23T01:47:56.000Z</time>
      </trkpt>
      <trkpt lat="45.53065" lon="6.25672">
        <ele>1292</ele>
        <time>2022-07-23T01:48:06.000Z</time>
      </trkpt>
      <trkpt lat="45.53091" lon="6.25665">
        <ele>1287</ele>
        <time>2022-07-23T01:48:16.000Z</time>
      </trkpt>
      <trkpt lat="45.53107" lon="6.25665">
        <ele>1265.5</ele>
        <time>2022-07-23T01:48:26.000Z</time>
      </trkpt>
      <trkpt lat="45.53124" lon="6.25669">
        <ele>1283</ele>
        <time>2022-07-23T01:48:36.000Z</time>
      </trkpt>
      <trkpt lat="45.53141" lon="6.25669">
        <ele>1246.6</ele>
        <time>2022-07-23T01:48:46.000Z</time>
      </trkpt>
      <trkpt lat="45.53153" lon="6.25674">
        <ele>1270</ele>
        <time>2022-07-23T01:48:56.000Z</time>
      </trkpt>
      <trkpt lat="45.53171" lon="6.25684">
        <ele>1250</ele>
        <time>2022-07-23T01:49:06.000Z</time>
      </trkpt>
      <trkpt lat="45.53182" lon="6.25686">
        <ele>1225.1</ele>
        <time>2022-07-23T01:49:16.000Z</time>
      </trkpt>
      <trkpt lat="45.53205" lon="6.25681">
        <ele>1231</ele>
        <time>2022-07-23T01:49:26.000Z</time>
      </trkpt>
      <trkpt lat="45.53221" lon="6.25687">
        <ele>1205.5</ele>
        <time>2022-07-23T01:49:36.000Z</time>
      </trkpt>
      <trkpt lat="45.53227" lon="6.25691">
        <ele>1213</ele>
        <time>2022-07-23T01:49:46.000Z</time>
      </trkpt>
      <trkpt lat="45.53242" lon="6.25698">
        <ele>1197.7</ele>
        <time>2022-07-23T01:49:56.000Z</time>
      </trkpt>
      <trkpt lat="45.53273" lon="6.25722">
        <ele>1198</ele>
        <time>2022-07-23T01:50:06.000Z</time>
      </trkpt>
      <trkpt lat="45.53304" lon="6.25765">
        <ele>1193</ele>
        <time>2022-07-23T01:50:16.000Z</time>
      </trkpt>
      <trkpt lat="45.53324" lon="6.25794">
        <ele>1180</ele>
        <time>2022-07-23T01:50:26.000Z</time>
      </trkpt>
      <trkpt lat="45.53362" lon="6.25828">
        <ele>1168</ele>
        <time>2022-07-23T01:50:36.000Z</time>
      </trkpt>
      <trkpt lat="45.53398" lon="6.25847">
        <ele>1159</ele>
        <time>2022-07-23T01:50:46.000Z</time>
      </trkpt>
      <trkpt lat="45.53439" lon="6.25863">
        <ele>1157</ele>
        <time>2022-07-23T01:50:56.000Z</time>
      </trkpt>
      <trkpt lat="45.53463" lon="6.25878">
        <ele>1154</ele>
        <time>2022-07-23T01:51:06.000Z</time>
      </trkpt>
      <trkpt lat="45.53483" lon="6.25897">
        <ele>1152</ele>
        <time>2022-07-23T01:51:16.000Z</time>
      </trkpt>
      <trkpt lat="45.53508" lon="6.25914">
        <ele>1145</ele>
        <time>2022-07-23T01:51:26.000Z</time>
      </trkpt>
      <trkpt lat="45.53532" lon="6.25927">
        <ele>1138</ele>
        <time>2022-07-23T01:51:36.000Z</time>
      </trkpt>
      <trkpt lat="45.53563" lon="6.25947">
        <ele>1133</ele>
        <time>2022-07-23T01:51:46.000Z</time>
      </trkpt>
      <trkpt lat="45.53584" lon="6.25966">
        <ele>1120</ele>
        <time>2022-07-23T01:51:56.000Z</time>
      </trkpt>
      <trkpt lat="45.53627" lon="6.25987">
        <ele>1107</ele>
        <time>2022-07-23T01:52:06.000Z</time>
      </trkpt>
      <trkpt lat="45.53639" lon="6.26014">
        <ele>1100</ele>
        <time>2022-07-23T01:52:16.000Z</time>
      </trkpt>
      <trkpt lat="45.53652" lon="6.26038">
        <ele>1097</ele>
        <time>2022-07-23T01:52:26.000Z</time>
      </trkpt>
      <trkpt lat="45.53675" lon="6.26056">
        <ele>1089</ele>
        <time>2022-07-23T01:52:36.000Z</time>
      </trkpt>
      <trkpt lat="45.53677" lon="6.26084">
        <ele>1085</ele>
        <time>2022-07-23T01:52:46.000Z</time>
      </trkpt>
      <trkpt lat="45.53691" lon="6.261">
        <ele>1082.7</ele>
        <time>2022-07-23T01:52:56.000Z</time>
      </trkpt>
      <trkpt lat="45.53704" lon="6.26109">
        <ele>1085</ele>
        <time>2022-07-23T01:53:06.000Z</time>
      </trkpt>
      <trkpt lat="45.53735" lon="6.26121">
        <ele>1082</ele>
        <time>2022-07-23T01:53:16.000Z</time>
      </trkpt>
      <trkpt lat="45.53747" lon="6.26136">
        <ele>1061.7</ele>
        <time>2022-07-23T01:53:26.000Z</time>
      </trkpt>
      <trkpt lat="45.53771" lon="6.26155">
        <ele>1071</ele>
        <time>2022-07-23T01:53:36.000Z</time>
      </trkpt>
      <trkpt lat="45.53802" lon="6.26193">
        <ele>1063</ele>
        <time>2022-07-23T01:53:46.000Z</time>
      </trkpt>
      <trkpt lat="45.53824" lon="6.26206">
        <ele>1054</ele>
        <time>2022-07-23T01:53:56.000Z</time>
      </trkpt>
      <trkpt lat="45.53847" lon="6.2622">
        <ele>1046</ele>
        <time>2022-07-23T01:54:06.000Z</time>
      </trkpt>
      <trkpt lat="45.53869" lon="6.2624">
        <ele>1041</ele>
        <time>2022-07-23T01:54:16.000Z</time>
      </trkpt>
      <trkpt lat="45.53896" lon="6.26264">
        <ele>1027</ele>
        <time>2022-07-23T01:54:26.000Z</time>
      </trkpt>
      <trkpt lat="45.5392" lon="6.26289">
        <ele>1019</ele>
        <time>2022-07-23T01:54:36.000Z</time>
      </trkpt>
      <trkpt lat="45.53961" lon="6.26332">
        <ele>1008</ele>
        <time>2022-07-23T01:54:46.000Z</time>
      </trkpt>
      <trkpt lat="45.53978" lon="6.26363">
        <ele>1004</ele>
        <time>2022-07-23T01:54:56.000Z</time>
      </trkpt>
      <trkpt lat="45.53997" lon="6.26394">
        <ele>1003</ele>
        <time>2022-07-23T01:55:06.000Z</time>
      </trkpt>
      <trkpt lat="45.54014" lon="6.26424">
        <ele>996</ele>
        <time>2022-07-23T01:55:16.000Z</time>
      </trkpt>
      <trkpt lat="45.54037" lon="6.26465">
        <ele>986</ele>
        <time>2022-07-23T01:55:26.000Z</time>
      </trkpt>
      <trkpt lat="45.54048" lon="6.26497">
        <ele>976</ele>
        <time>2022-07-23T01:55:36.000Z</time>
      </trkpt>
      <trkpt lat="45.5406" lon="6.26532">
        <ele>965</ele>
        <time>2022-07-23T01:55:46.000Z</time>
      </trkpt>
      <trkpt lat="45.54064" lon="6.26581">
        <ele>957</ele>
        <time>2022-07-23T01:55:56.000Z</time>
      </trkpt>
      <trkpt lat="45.54063" lon="6.26631">
        <ele>945</ele>
        <time>2022-07-23T01:56:06.000Z</time>
      </trkpt>
      <trkpt lat="45.54079" lon="6.2666">
        <ele>944</ele>
        <time>2022-07-23T01:56:16.000Z</time>
      </trkpt>
      <trkpt lat="45.54097" lon="6.26695">
        <ele>940</ele>
        <time>2022-07-23T01:56:26.000Z</time>
      </trkpt>
      <trkpt lat="45.54114" lon="6.26721">
        <ele>936</ele>
        <time>2022-07-23T01:56:36.000Z</time>
      </trkpt>
      <trkpt lat="45.54133" lon="6.26749">
        <ele>926</ele>
        <time>2022-07-23T01:56:46.000Z</time>
      </trkpt>
      <trkpt lat="45.54168" lon="6.26791">
        <ele>914</ele>
        <time>2022-07-23T01:56:56.000Z</time>
      </trkpt>
      <trkpt lat="45.54186" lon="6.26815">
        <ele>904</ele>
        <time>2022-07-23T01:57:06.000Z</time>
      </trkpt>
      <trkpt lat="45.54205" lon="6.2684">
        <ele>894</ele>
        <time>2022-07-23T01:57:16.000Z</time>
      </trkpt>
      <trkpt lat="45.54222" lon="6.26865">
        <ele>880</ele>
        <time>2022-07-23T01:57:26.000Z</time>
      </trkpt>
      <trkpt lat="45.5424" lon="6.26891">
        <ele>875</ele>
        <time>2022-07-23T01:57:36.000Z</time>
      </trkpt>
      <trkpt lat="45.5426" lon="6.26915">
        <ele>865</ele>
        <time>2022-07-23T01:57:46.000Z</time>
      </trkpt>
      <trkpt lat="45.5428" lon="6.2694">
        <ele>855</ele>
        <time>2022-07-23T01:57:56.000Z</time>
      </trkpt>
      <trkpt lat="45.54305" lon="6.26972">
        <ele>845</ele>
        <time>2022-07-23T01:58:06.000Z</time>
      </trkpt>
      <trkpt lat="45.54325" lon="6.26999">
        <ele>839</ele>
        <time>2022-07-23T01:58:16.000Z</time>
      </trkpt>
      <trkpt lat="45.54343" lon="6.27029">
        <ele>835</ele>
        <time>2022-07-23T01:58:26.000Z</time>
      </trkpt>
      <trkpt lat="45.54359" lon="6.27048">
        <ele>835</ele>
        <time>2022-07-23T01:58:36.000Z</time>
      </trkpt>
      <trkpt lat="45.54341" lon="6.27084">
        <ele>819</ele>
        <time>2022-07-23T01:58:46.000Z</time>
      </trkpt>
      <trkpt lat="45.54315" lon="6.27103">
        <ele>806</ele>
        <time>2022-07-23T01:58:56.000Z</time>
      </trkpt>
      <trkpt lat="45.54296" lon="6.27129">
        <ele>794</ele>
        <time>2022-07-23T01:59:06.000Z</time>
      </trkpt>
      <trkpt lat="45.54272" lon="6.27148">
        <ele>787</ele>
        <time>2022-07-23T01:59:16.000Z</time>
      </trkpt>
      <trkpt lat="45.54251" lon="6.27169">
        <ele>777</ele>
        <time>2022-07-23T01:59:26.000Z</time>
      </trkpt>
      <trkpt lat="45.5423" lon="6.27171">
        <ele>773</ele>
        <time>2022-07-23T01:59:36.000Z</time>
      </trkpt>
      <trkpt lat="45.54211" lon="6.2718">
        <ele>773</ele>
        <time>2022-07-23T01:59:46.000Z</time>
      </trkpt>
      <trkpt lat="45.54177" lon="6.27172">
        <ele>765</ele>
        <time>2022-07-23T01:59:56.000Z</time>
      </trkpt>
      <trkpt lat="45.54158" lon="6.27161">
        <ele>763</ele>
        <time>2022-07-23T02:00:06.000Z</time>
      </trkpt>
      <trkpt lat="45.54154" lon="6.2716">
        <ele>763.4</ele>
        <time>2022-07-23T02:00:16.000Z</time>
      </trkpt>
      <trkpt lat="45.54164" lon="6.27197">
        <ele>761</ele>
        <time>2022-07-23T02:00:26.000Z</time>
      </trkpt>
      <trkpt lat="45.54183" lon="6.27221">
        <ele>761</ele>
        <time>2022-07-23T02:00:36.000Z</time>
      </trkpt>
      <trkpt lat="45.54208" lon="6.27239">
        <ele>761</ele>
        <time>2022-07-23T02:00:46.000Z</time>
      </trkpt>
      <trkpt lat="45.54218" lon="6.27256">
        <ele>752.8</ele>
        <time>2022-07-23T02:00:56.000Z</time>
      </trkpt>
      <trkpt lat="45.54208" lon="6.27261">
        <ele>759</ele>
        <time>2022-07-23T02:01:06.000Z</time>
      </trkpt>
      <trkpt lat="45.5418" lon="6.27243">
        <ele>755</ele>
        <time>2022-07-23T02:01:16.000Z</time>
      </trkpt>
      <trkpt lat="45.54153" lon="6.27231">
        <ele>751</ele>
        <time>2022-07-23T02:01:26.000Z</time>
      </trkpt>
      <trkpt lat="45.54111" lon="6.27221">
        <ele>752</ele>
        <time>2022-07-23T02:01:36.000Z</time>
      </trkpt>
      <trkpt lat="45.54079" lon="6.27199">
        <ele>749</ele>
        <time>2022-07-23T02:01:46.000Z</time>
      </trkpt>
      <trkpt lat="45.5404" lon="6.27177">
        <ele>746</ele>
        <time>2022-07-23T02:01:56.000Z</time>
      </trkpt>
      <trkpt lat="45.54009" lon="6.27154">
        <ele>745</ele>
        <time>2022-07-23T02:02:06.000Z</time>
      </trkpt>
      <trkpt lat="45.53971" lon="6.27131">
        <ele>738</ele>
        <time>2022-07-23T02:02:16.000Z</time>
      </trkpt>
      <trkpt lat="45.53955" lon="6.27118">
        <ele>722.5</ele>
        <time>2022-07-23T02:02:26.000Z</time>
      </trkpt>
      <trkpt lat="45.53956" lon="6.27138">
        <ele>733</ele>
        <time>2022-07-23T02:02:36.000Z</time>
      </trkpt>
      <trkpt lat="45.53982" lon="6.2717">
        <ele>729</ele>
        <time>2022-07-23T02:02:46.000Z</time>
      </trkpt>
      <trkpt lat="45.53996" lon="6.27213">
        <ele>725</ele>
        <time>2022-07-23T02:02:56.000Z</time>
      </trkpt>
      <trkpt lat="45.54011" lon="6.27241">
        <ele>719</ele>
        <time>2022-07-23T02:03:06.000Z</time>
      </trkpt>
      <trkpt lat="45.54018" lon="6.2727">
        <ele>717</ele>
        <time>2022-07-23T02:03:16.000Z</time>
      </trkpt>
      <trkpt lat="45.54044" lon="6.27317">
        <ele>717</ele>
        <time>2022-07-23T02:03:26.000Z</time>
      </trkpt>
      <trkpt lat="45.54076" lon="6.27341">
        <ele>717</ele>
        <time>2022-07-23T02:03:36.000Z</time>
      </trkpt>
      <trkpt lat="45.54102" lon="6.27347">
        <ele>717</ele>
        <time>2022-07-23T02:03:46.000Z</time>
      </trkpt>
      <trkpt lat="45.54136" lon="6.27355">
        <ele>715</ele>
        <time>2022-07-23T02:03:56.000Z</time>
      </trkpt>
      <trkpt lat="45.54147" lon="6.27387">
        <ele>713</ele>
        <time>2022-07-23T02:04:06.000Z</time>
      </trkpt>
      <trkpt lat="45.54169" lon="6.27422">
        <ele>709</ele>
        <time>2022-07-23T02:04:16.000Z</time>
      </trkpt>
      <trkpt lat="45.54184" lon="6.27448">
        <ele>706</ele>
        <time>2022-07-23T02:04:26.000Z</time>
      </trkpt>
      <trkpt lat="45.54213" lon="6.2747">
        <ele>704</ele>
        <time>2022-07-23T02:04:36.000Z</time>
      </trkpt>
      <trkpt lat="45.54227" lon="6.27506">
        <ele>693</ele>
        <time>2022-07-23T02:04:46.000Z</time>
      </trkpt>
      <trkpt lat="45.54246" lon="6.27546">
        <ele>692</ele>
        <time>2022-07-23T02:04:56.000Z</time>
      </trkpt>
      <trkpt lat="45.54246" lon="6.27587">
        <ele>669</ele>
        <time>2022-07-23T02:05:06.000Z</time>
      </trkpt>
      <trkpt lat="45.54249" lon="6.27633">
        <ele>658</ele>
        <time>2022-07-23T02:05:16.000Z</time>
      </trkpt>
      <trkpt lat="45.54264" lon="6.27675">
        <ele>659</ele>
        <time>2022-07-23T02:05:26.000Z</time>
      </trkpt>
      <trkpt lat="45.54286" lon="6.27708">
        <ele>656</ele>
        <time>2022-07-23T02:05:36.000Z</time>
      </trkpt>
      <trkpt lat="45.54307" lon="6.27725">
        <ele>658</ele>
        <time>2022-07-23T02:05:46.000Z</time>
      </trkpt>
      <trkpt lat="45.54329" lon="6.27743">
        <ele>653</ele>
        <time>2022-07-23T02:05:56.000Z</time>
      </trkpt>
      <trkpt lat="45.54345" lon="6.27774">
        <ele>657</ele>
        <time>2022-07-23T02:06:06.000Z</time>
      </trkpt>
      <trkpt lat="45.54367" lon="6.278">
        <ele>659</ele>
        <time>2022-07-23T02:06:16.000Z</time>
      </trkpt>
      <trkpt lat="45.54389" lon="6.27843">
        <ele>657</ele>
        <time>2022-07-23T02:06:26.000Z</time>
      </trkpt>
      <trkpt lat="45.54398" lon="6.27874">
        <ele>655</ele>
        <time>2022-07-23T02:06:36.000Z</time>
      </trkpt>
      <trkpt lat="45.54403" lon="6.27905">
        <ele>646</ele>
        <time>2022-07-23T02:06:46.000Z</time>
      </trkpt>
      <trkpt lat="45.5443" lon="6.27941">
        <ele>643</ele>
        <time>2022-07-23T02:06:56.000Z</time>
      </trkpt>
      <trkpt lat="45.54447" lon="6.27965">
        <ele>644</ele>
        <time>2022-07-23T02:07:06.000Z</time>
      </trkpt>
      <trkpt lat="45.54465" lon="6.27991">
        <ele>643</ele>
        <time>2022-07-23T02:07:16.000Z</time>
      </trkpt>
      <trkpt lat="45.54498" lon="6.28028">
        <ele>643</ele>
        <time>2022-07-23T02:07:26.000Z</time>
      </trkpt>
      <trkpt lat="45.54519" lon="6.28049">
        <ele>643</ele>
        <time>2022-07-23T02:07:36.000Z</time>
      </trkpt>
      <trkpt lat="45.54534" lon="6.28074">
        <ele>640</ele>
        <time>2022-07-23T02:07:46.000Z</time>
      </trkpt>
      <trkpt lat="45.54558" lon="6.28097">
        <ele>638</ele>
        <time>2022-07-23T02:07:56.000Z</time>
      </trkpt>
      <trkpt lat="45.54574" lon="6.28122">
        <ele>632</ele>
        <time>2022-07-23T02:08:06.000Z</time>
      </trkpt>
      <trkpt lat="45.5459" lon="6.28147">
        <ele>612</ele>
        <time>2022-07-23T02:08:16.000Z</time>
      </trkpt>
      <trkpt lat="45.54609" lon="6.28172">
        <ele>609</ele>
        <time>2022-07-23T02:08:26.000Z</time>
      </trkpt>
      <trkpt lat="45.54632" lon="6.28204">
        <ele>609</ele>
        <time>2022-07-23T02:08:36.000Z</time>
      </trkpt>
      <trkpt lat="45.54652" lon="6.28225">
        <ele>601</ele>
        <time>2022-07-23T02:08:46.000Z</time>
      </trkpt>
      <trkpt lat="45.54673" lon="6.28249">
        <ele>602</ele>
        <time>2022-07-23T02:08:56.000Z</time>
      </trkpt>
      <trkpt lat="45.54701" lon="6.28269">
        <ele>597</ele>
        <time>2022-07-23T02:09:06.000Z</time>
      </trkpt>
      <trkpt lat="45.54731" lon="6.283">
        <ele>595</ele>
        <time>2022-07-23T02:09:16.000Z</time>
      </trkpt>
      <trkpt lat="45.54754" lon="6.28315">
        <ele>594</ele>
        <time>2022-07-23T02:09:26.000Z</time>
      </trkpt>
      <trkpt lat="45.54781" lon="6.28331">
        <ele>580</ele>
        <time>2022-07-23T02:09:36.000Z</time>
      </trkpt>
      <trkpt lat="45.54811" lon="6.28354">
        <ele>566</ele>
        <time>2022-07-23T02:09:46.000Z</time>
      </trkpt>
      <trkpt lat="45.54839" lon="6.28364">
        <ele>561</ele>
        <time>2022-07-23T02:09:56.000Z</time>
      </trkpt>
      <trkpt lat="45.54886" lon="6.28381">
        <ele>552</ele>
        <time>2022-07-23T02:10:06.000Z</time>
      </trkpt>
      <trkpt lat="45.54914" lon="6.28403">
        <ele>551</ele>
        <time>2022-07-23T02:10:16.000Z</time>
      </trkpt>
      <trkpt lat="45.54932" lon="6.28407">
        <ele>547.9</ele>
        <time>2022-07-23T02:10:26.000Z</time>
      </trkpt>
      <trkpt lat="45.54949" lon="6.28405">
        <ele>548</ele>
        <time>2022-07-23T02:10:36.000Z</time>
      </trkpt>
      <trkpt lat="45.54965" lon="6.28407">
        <ele>545.8</ele>
        <time>2022-07-23T02:10:46.000Z</time>
      </trkpt>
      <trkpt lat="45.54947" lon="6.28427">
        <ele>548</ele>
        <time>2022-07-23T02:10:56.000Z</time>
      </trkpt>
      <trkpt lat="45.54935" lon="6.28442">
        <ele>541.5</ele>
        <time>2022-07-23T02:11:06.000Z</time>
      </trkpt>
      <trkpt lat="45.54943" lon="6.28454">
        <ele>548</ele>
        <time>2022-07-23T02:11:16.000Z</time>
      </trkpt>
      <trkpt lat="45.54963" lon="6.28456">
        <ele>543</ele>
        <time>2022-07-23T02:11:26.000Z</time>
      </trkpt>
      <trkpt lat="45.54978" lon="6.28461">
        <ele>536.3</ele>
        <time>2022-07-23T02:11:36.000Z</time>
      </trkpt>
      <trkpt lat="45.55008" lon="6.28454">
        <ele>541</ele>
        <time>2022-07-23T02:11:46.000Z</time>
      </trkpt>
      <trkpt lat="45.55014" lon="6.2847">
        <ele>534</ele>
        <time>2022-07-23T02:11:56.000Z</time>
      </trkpt>
      <trkpt lat="45.55" lon="6.28486">
        <ele>536</ele>
        <time>2022-07-23T02:12:06.000Z</time>
      </trkpt>
      <trkpt lat="45.54995" lon="6.28499">
        <ele>531.5</ele>
        <time>2022-07-23T02:12:16.000Z</time>
      </trkpt>
      <trkpt lat="45.54985" lon="6.28518">
        <ele>536</ele>
        <time>2022-07-23T02:12:26.000Z</time>
      </trkpt>
      <trkpt lat="45.54983" lon="6.28538">
        <ele>526.1</ele>
        <time>2022-07-23T02:12:36.000Z</time>
      </trkpt>
      <trkpt lat="45.5498" lon="6.2856">
        <ele>529</ele>
        <time>2022-07-23T02:12:46.000Z</time>
      </trkpt>
      <trkpt lat="45.54975" lon="6.28583">
        <ele>514.8</ele>
        <time>2022-07-23T02:12:56.000Z</time>
      </trkpt>
      <trkpt lat="45.54969" lon="6.28603">
        <ele>526</ele>
        <time>2022-07-23T02:13:06.000Z</time>
      </trkpt>
      <trkpt lat="45.54948" lon="6.28622">
        <ele>526</ele>
        <time>2022-07-23T02:13:16.000Z</time>
      </trkpt>
      <trkpt lat="45.54929" lon="6.28634">
        <ele>522</ele>
        <time>2022-07-23T02:13:26.000Z</time>
      </trkpt>
      <trkpt lat="45.54908" lon="6.28641">
        <ele>518</ele>
        <time>2022-07-23T02:13:36.000Z</time>
      </trkpt>
      <trkpt lat="45.54892" lon="6.28643">
        <ele>494.7</ele>
        <time>2022-07-23T02:13:46.000Z</time>
      </trkpt>
      <trkpt lat="45.54875" lon="6.28648">
        <ele>515</ele>
        <time>2022-07-23T02:13:56.000Z</time>
      </trkpt>
      <trkpt lat="45.5486" lon="6.28646">
        <ele>486.6</ele>
        <time>2022-07-23T02:14:06.000Z</time>
      </trkpt>
      <trkpt lat="45.54825" lon="6.28645">
        <ele>509</ele>
        <time>2022-07-23T02:14:16.000Z</time>
      </trkpt>
      <trkpt lat="45.54813" lon="6.28641">
        <ele>480.7</ele>
        <time>2022-07-23T02:14:26.000Z</time>
      </trkpt>
      <trkpt lat="45.548" lon="6.28632">
        <ele>495</ele>
        <time>2022-07-23T02:14:36.000Z</time>
      </trkpt>
      <trkpt lat="45.54782" lon="6.28627">
        <ele>472.4</ele>
        <time>2022-07-23T02:14:46.000Z</time>
      </trkpt>
      <trkpt lat="45.54766" lon="6.28616">
        <ele>478</ele>
        <time>2022-07-23T02:14:56.000Z</time>
      </trkpt>
      <trkpt lat="45.54749" lon="6.28619">
        <ele>463.4</ele>
        <time>2022-07-23T02:15:06.000Z</time>
      </trkpt>
      <trkpt lat="45.54769" lon="6.28653">
        <ele>478</ele>
        <time>2022-07-23T02:15:16.000Z</time>
      </trkpt>
      <trkpt lat="45.54786" lon="6.28677">
        <ele>478</ele>
        <time>2022-07-23T02:15:26.000Z</time>
      </trkpt>
      <trkpt lat="45.54807" lon="6.28691">
        <ele>466</ele>
        <time>2022-07-23T02:15:36.000Z</time>
      </trkpt>
      <trkpt lat="45.54827" lon="6.2871">
        <ele>464</ele>
        <time>2022-07-23T02:15:46.000Z</time>
      </trkpt>
      <trkpt lat="45.54797" lon="6.28721">
        <ele>459</ele>
        <time>2022-07-23T02:15:56.000Z</time>
      </trkpt>
      <trkpt lat="45.54778" lon="6.28716">
        <ele>459</ele>
        <time>2022-07-23T02:16:06.000Z</time>
      </trkpt>
      <trkpt lat="45.54754" lon="6.28707">
        <ele>455</ele>
        <time>2022-07-23T02:16:16.000Z</time>
      </trkpt>
      <trkpt lat="45.54733" lon="6.28701">
        <ele>453</ele>
        <time>2022-07-23T02:16:26.000Z</time>
      </trkpt>
      <trkpt lat="45.54697" lon="6.28689">
        <ele>452</ele>
        <time>2022-07-23T02:16:36.000Z</time>
      </trkpt>
      <trkpt lat="45.5468" lon="6.2869">
        <ele>444.2</ele>
        <time>2022-07-23T02:16:46.000Z</time>
      </trkpt>
      <trkpt lat="45.54667" lon="6.287">
        <ele>446</ele>
        <time>2022-07-23T02:16:56.000Z</time>
      </trkpt>
      <trkpt lat="45.54663" lon="6.28725">
        <ele>437.7</ele>
        <time>2022-07-23T02:17:06.000Z</time>
      </trkpt>
      <trkpt lat="45.54666" lon="6.28747">
        <ele>443</ele>
        <time>2022-07-23T02:17:16.000Z</time>
      </trkpt>
      <trkpt lat="45.54686" lon="6.28771">
        <ele>443</ele>
        <time>2022-07-23T02:17:26.000Z</time>
      </trkpt>
      <trkpt lat="45.54704" lon="6.28794">
        <ele>442</ele>
        <time>2022-07-23T02:17:36.000Z</time>
      </trkpt>
      <trkpt lat="45.54736" lon="6.2884">
        <ele>436</ele>
        <time>2022-07-23T02:17:46.000Z</time>
      </trkpt>
      <trkpt lat="45.54751" lon="6.28872">
        <ele>428</ele>
        <time>2022-07-23T02:17:56.000Z</time>
      </trkpt>
      <trkpt lat="45.54775" lon="6.28903">
        <ele>416</ele>
        <time>2022-07-23T02:18:06.000Z</time>
      </trkpt>
      <trkpt lat="45.54807" lon="6.28942">
        <ele>405</ele>
        <time>2022-07-23T02:18:16.000Z</time>
      </trkpt>
      <trkpt lat="45.54827" lon="6.28957">
        <ele>395</ele>
        <time>2022-07-23T02:18:26.000Z</time>
      </trkpt>
      <trkpt lat="45.54851" lon="6.28957">
        <ele>391</ele>
        <time>2022-07-23T02:18:36.000Z</time>
      </trkpt>
      <trkpt lat="45.54861" lon="6.28937">
        <ele>382.9</ele>
        <time>2022-07-23T02:18:46.000Z</time>
      </trkpt>
      <trkpt lat="45.54877" lon="6.28943">
        <ele>391</ele>
        <time>2022-07-23T02:18:56.000Z</time>
      </trkpt>
      <trkpt lat="45.5487" lon="6.28969">
        <ele>382</ele>
        <time>2022-07-23T02:19:06.000Z</time>
      </trkpt>
      <trkpt lat="45.54848" lon="6.29007">
        <ele>375</ele>
        <time>2022-07-23T02:19:16.000Z</time>
      </trkpt>
      <trkpt lat="45.5483" lon="6.29017">
        <ele>375</ele>
        <time>2022-07-23T02:19:26.000Z</time>
      </trkpt>
      <trkpt lat="45.54812" lon="6.29035">
        <ele>370</ele>
        <time>2022-07-23T02:19:36.000Z</time>
      </trkpt>
      <trkpt lat="45.5478" lon="6.29043">
        <ele>363</ele>
        <time>2022-07-23T02:19:46.000Z</time>
      </trkpt>
      <trkpt lat="45.54749" lon="6.29041">
        <ele>359</ele>
        <time>2022-07-23T02:19:56.000Z</time>
      </trkpt>
      <trkpt lat="45.54719" lon="6.29031">
        <ele>356</ele>
        <time>2022-07-23T02:20:06.000Z</time>
      </trkpt>
      <trkpt lat="45.54712" lon="6.29043">
        <ele>342.2</ele>
        <time>2022-07-23T02:20:16.000Z</time>
      </trkpt>
      <trkpt lat="45.54722" lon="6.29065">
        <ele>342</ele>
        <time>2022-07-23T02:20:26.000Z</time>
      </trkpt>
      <trkpt lat="45.54751" lon="6.29078">
        <ele>338</ele>
        <time>2022-07-23T02:20:36.000Z</time>
      </trkpt>
      <trkpt lat="45.54766" lon="6.2909">
        <ele>337</ele>
        <time>2022-07-23T02:20:46.000Z</time>
      </trkpt>
      <trkpt lat="45.54763" lon="6.29108">
        <ele>334</ele>
        <time>2022-07-23T02:20:56.000Z</time>
      </trkpt>
      <trkpt lat="45.54754" lon="6.2914">
        <ele>333</ele>
        <time>2022-07-23T02:21:06.000Z</time>
      </trkpt>
      <trkpt lat="45.54742" lon="6.29167">
        <ele>333</ele>
        <time>2022-07-23T02:21:16.000Z</time>
      </trkpt>
      <trkpt lat="45.54705" lon="6.29188">
        <ele>334</ele>
        <time>2022-07-23T02:21:26.000Z</time>
      </trkpt>
      <trkpt lat="45.54686" lon="6.29203">
        <ele>330</ele>
        <time>2022-07-23T02:21:36.000Z</time>
      </trkpt>
      <trkpt lat="45.54671" lon="6.29219">
        <ele>328.2</ele>
        <time>2022-07-23T02:21:46.000Z</time>
      </trkpt>
      <trkpt lat="45.5466" lon="6.29241">
        <ele>332</ele>
        <time>2022-07-23T02:21:56.000Z</time>
      </trkpt>
      <trkpt lat="45.54638" lon="6.29277">
        <ele>335</ele>
        <time>2022-07-23T02:22:06.000Z</time>
      </trkpt>
      <trkpt lat="45.54618" lon="6.29315">
        <ele>338</ele>
        <time>2022-07-23T02:22:16.000Z</time>
      </trkpt>
      <trkpt lat="45.54596" lon="6.29339">
        <ele>341</ele>
        <time>2022-07-23T02:22:26.000Z</time>
      </trkpt>
      <trkpt lat="45.54589" lon="6.29376">
        <ele>335</ele>
        <time>2022-07-23T02:22:36.000Z</time>
      </trkpt>
      <trkpt lat="45.5458" lon="6.29425">
        <ele>330</ele>
        <time>2022-07-23T02:22:46.000Z</time>
      </trkpt>
      <trkpt lat="45.54575" lon="6.29465">
        <ele>328</ele>
        <time>2022-07-23T02:22:56.000Z</time>
      </trkpt>
      <trkpt lat="45.54569" lon="6.29523">
        <ele>327</ele>
        <time>2022-07-23T02:23:06.000Z</time>
      </trkpt>
      <trkpt lat="45.54564" lon="6.29565">
        <ele>325</ele>
        <time>2022-07-23T02:23:16.000Z</time>
      </trkpt>
      <trkpt lat="45.54558" lon="6.2963">
        <ele>324</ele>
        <time>2022-07-23T02:23:26.000Z</time>
      </trkpt>
      <trkpt lat="45.54544" lon="6.29677">
        <ele>324</ele>
        <time>2022-07-23T02:23:36.000Z</time>
      </trkpt>
      <trkpt lat="45.54522" lon="6.29731">
        <ele>322</ele>
        <time>2022-07-23T02:23:46.000Z</time>
      </trkpt>
      <trkpt lat="45.54509" lon="6.29761">
        <ele>322</ele>
        <time>2022-07-23T02:23:56.000Z</time>
      </trkpt>
      <trkpt lat="45.54488" lon="6.29777">
        <ele>319</ele>
        <time>2022-07-23T02:24:06.000Z</time>
      </trkpt>
      <trkpt lat="45.54468" lon="6.29794">
        <ele>319</ele>
        <time>2022-07-23T02:24:16.000Z</time>
      </trkpt>
      <trkpt lat="45.54442" lon="6.29819">
        <ele>318</ele>
        <time>2022-07-23T02:24:26.000Z</time>
      </trkpt>
      <trkpt lat="45.5442" lon="6.29839">
        <ele>317</ele>
        <time>2022-07-23T02:24:36.000Z</time>
      </trkpt>
      <trkpt lat="45.54393" lon="6.29865">
        <ele>316</ele>
        <time>2022-07-23T02:24:46.000Z</time>
      </trkpt>
      <trkpt lat="45.54369" lon="6.29891">
        <ele>315</ele>
        <time>2022-07-23T02:24:56.000Z</time>
      </trkpt>
      <trkpt lat="45.54328" lon="6.29935">
        <ele>314</ele>
        <time>2022-07-23T02:25:06.000Z</time>
      </trkpt>
      <trkpt lat="45.54308" lon="6.29965">
        <ele>314</ele>
        <time>2022-07-23T02:25:16.000Z</time>
      </trkpt>
      <trkpt lat="45.54276" lon="6.30012">
        <ele>316</ele>
        <time>2022-07-23T02:25:26.000Z</time>
      </trkpt>
      <trkpt lat="45.54257" lon="6.30038">
        <ele>316</ele>
        <time>2022-07-23T02:25:36.000Z</time>
      </trkpt>
      <trkpt lat="45.5424" lon="6.30063">
        <ele>316</ele>
        <time>2022-07-23T02:25:46.000Z</time>
      </trkpt>
      <trkpt lat="45.54265" lon="6.30095">
        <ele>316</ele>
        <time>2022-07-23T02:25:56.000Z</time>
      </trkpt>
      <trkpt lat="45.54288" lon="6.30126">
        <ele>319</ele>
        <time>2022-07-23T02:26:06.000Z</time>
      </trkpt>
      <trkpt lat="45.54309" lon="6.30152">
        <ele>319</ele>
        <time>2022-07-23T02:26:16.000Z</time>
      </trkpt>
      <trkpt lat="45.54341" lon="6.30192">
        <ele>320</ele>
        <time>2022-07-23T02:26:26.000Z</time>
      </trkpt>
      <trkpt lat="45.54342" lon="6.30215">
        <ele>320</ele>
        <time>2022-07-23T02:26:36.000Z</time>
      </trkpt>
      <trkpt lat="45.54366" lon="6.30236">
        <ele>323</ele>
        <time>2022-07-23T02:26:46.000Z</time>
      </trkpt>
      <trkpt lat="45.54389" lon="6.30249">
        <ele>327</ele>
        <time>2022-07-23T02:26:56.000Z</time>
      </trkpt>
      <trkpt lat="45.54413" lon="6.30262">
        <ele>328</ele>
        <time>2022-07-23T02:27:06.000Z</time>
      </trkpt>
      <trkpt lat="45.54447" lon="6.30269">
        <ele>328</ele>
        <time>2022-07-23T02:27:16.000Z</time>
      </trkpt>
      <trkpt lat="45.54463" lon="6.30273">
        <ele>320</ele>
        <time>2022-07-23T02:27:26.000Z</time>
      </trkpt>
      <trkpt lat="45.5447" lon="6.30281">
        <ele>324</ele>
        <time>2022-07-23T02:27:36.000Z</time>
      </trkpt>
      <trkpt lat="45.54509" lon="6.30267">
        <ele>317</ele>
        <time>2022-07-23T02:27:46.000Z</time>
      </trkpt>
      <trkpt lat="45.54522" lon="6.30259">
        <ele>319.2</ele>
        <time>2022-07-23T02:27:56.000Z</time>
      </trkpt>
      <trkpt lat="45.54534" lon="6.30245">
        <ele>316</ele>
        <time>2022-07-23T02:28:06.000Z</time>
      </trkpt>
      <trkpt lat="45.54542" lon="6.30233">
        <ele>316</ele>
        <time>2022-07-23T02:28:16.000Z</time>
      </trkpt>
    </trkseg>
  </trk>
</gpx>